<?xml version="1.0" encoding="UTF-8"?>
<gpx creator="Garmin Connect" version="1.1"
  xsi:schemaLocation="http://www.topografix.com/GPX/1/1 http://www.topografix.com/GPX/11.xsd"
  xmlns:ns3="http://www.garmin.com/xmlschemas/TrackPointExtension/v1"
  xmlns="http://www.topografix.com/GPX/1/1"
  xmlns:xsi="http://www.w3.org/2001/XMLSchema-instance" xmlns:ns2="http://www.garmin.com/xmlschemas/GpxExtensions/v3">
  <metadata>
    <link href="connect.garmin.com">
      <text>Garmin Connect</text>
    </link>
    <time>2023-08-19T17:00:51.000Z</time>
  </metadata>
  <trk>
    <name>Llupia - La Llupianenque</name>
    <type>trail_running</type>
    <trkseg>
      <trkpt lat="42.621344625949859619140625" lon="2.77325986884534358978271484375">
        <ele>98.1999969482421875</ele>
        <time>2023-08-19T17:00:51.000Z</time>
        <extensions>
          <ns3:TrackPointExtension>
            <ns3:hr>104</ns3:hr>
            <ns3:cad>88</ns3:cad>
          </ns3:TrackPointExtension>
        </extensions>
      </trkpt>
      <trkpt lat="42.6213350705802440643310546875" lon="2.7732242457568645477294921875">
        <ele>98.1999969482421875</ele>
        <time>2023-08-19T17:00:52.000Z</time>
        <extensions>
          <ns3:TrackPointExtension>
            <ns3:hr>105</ns3:hr>
            <ns3:cad>88</ns3:cad>
          </ns3:TrackPointExtension>
        </extensions>
      </trkpt>
      <trkpt lat="42.62132517993450164794921875" lon="2.7731853537261486053466796875">
        <ele>98.1999969482421875</ele>
        <time>2023-08-19T17:00:53.000Z</time>
        <extensions>
          <ns3:TrackPointExtension>
            <ns3:hr>105</ns3:hr>
            <ns3:cad>88</ns3:cad>
          </ns3:TrackPointExtension>
        </extensions>
      </trkpt>
      <trkpt lat="42.6213159598410129547119140625" lon="2.77315526269376277923583984375">
        <ele>98.1999969482421875</ele>
        <time>2023-08-19T17:00:54.000Z</time>
        <extensions>
          <ns3:TrackPointExtension>
            <ns3:hr>108</ns3:hr>
            <ns3:cad>87</ns3:cad>
          </ns3:TrackPointExtension>
        </extensions>
      </trkpt>
      <trkpt lat="42.62131067924201488494873046875" lon="2.773125171661376953125">
        <ele>98.1999969482421875</ele>
        <time>2023-08-19T17:00:55.000Z</time>
        <extensions>
          <ns3:TrackPointExtension>
            <ns3:hr>111</ns3:hr>
            <ns3:cad>86</ns3:cad>
          </ns3:TrackPointExtension>
        </extensions>
      </trkpt>
      <trkpt lat="42.621302716434001922607421875" lon="2.7730889618396759033203125">
        <ele>98.1999969482421875</ele>
        <time>2023-08-19T17:00:56.000Z</time>
        <extensions>
          <ns3:TrackPointExtension>
            <ns3:hr>113</ns3:hr>
            <ns3:cad>86</ns3:cad>
          </ns3:TrackPointExtension>
        </extensions>
      </trkpt>
      <trkpt lat="42.62129542417824268341064453125" lon="2.773047387599945068359375">
        <ele>98.40000152587890625</ele>
        <time>2023-08-19T17:00:57.000Z</time>
        <extensions>
          <ns3:TrackPointExtension>
            <ns3:hr>112</ns3:hr>
            <ns3:cad>86</ns3:cad>
          </ns3:TrackPointExtension>
        </extensions>
      </trkpt>
      <trkpt lat="42.6212877966463565826416015625" lon="2.77300958521664142608642578125">
        <ele>98.40000152587890625</ele>
        <time>2023-08-19T17:00:58.000Z</time>
        <extensions>
          <ns3:TrackPointExtension>
            <ns3:hr>115</ns3:hr>
            <ns3:cad>86</ns3:cad>
          </ns3:TrackPointExtension>
        </extensions>
      </trkpt>
      <trkpt lat="42.62127866037189960479736328125" lon="2.77297656051814556121826171875">
        <ele>98.40000152587890625</ele>
        <time>2023-08-19T17:00:59.000Z</time>
        <extensions>
          <ns3:TrackPointExtension>
            <ns3:hr>118</ns3:hr>
            <ns3:cad>86</ns3:cad>
          </ns3:TrackPointExtension>
        </extensions>
      </trkpt>
      <trkpt lat="42.6212737150490283966064453125" lon="2.772941105067729949951171875">
        <ele>98.40000152587890625</ele>
        <time>2023-08-19T17:01:00.000Z</time>
        <extensions>
          <ns3:TrackPointExtension>
            <ns3:hr>119</ns3:hr>
            <ns3:cad>87</ns3:cad>
          </ns3:TrackPointExtension>
        </extensions>
      </trkpt>
      <trkpt lat="42.6212683506309986114501953125" lon="2.772907912731170654296875">
        <ele>98.40000152587890625</ele>
        <time>2023-08-19T17:01:01.000Z</time>
        <extensions>
          <ns3:TrackPointExtension>
            <ns3:hr>120</ns3:hr>
            <ns3:cad>87</ns3:cad>
          </ns3:TrackPointExtension>
        </extensions>
      </trkpt>
      <trkpt lat="42.62126374058425426483154296875" lon="2.77287446893751621246337890625">
        <ele>98.40000152587890625</ele>
        <time>2023-08-19T17:01:02.000Z</time>
        <extensions>
          <ns3:TrackPointExtension>
            <ns3:hr>120</ns3:hr>
            <ns3:cad>87</ns3:cad>
          </ns3:TrackPointExtension>
        </extensions>
      </trkpt>
      <trkpt lat="42.6212546043097972869873046875" lon="2.7728423662483692169189453125">
        <ele>98.40000152587890625</ele>
        <time>2023-08-19T17:01:03.000Z</time>
        <extensions>
          <ns3:TrackPointExtension>
            <ns3:hr>120</ns3:hr>
            <ns3:cad>87</ns3:cad>
          </ns3:TrackPointExtension>
        </extensions>
      </trkpt>
      <trkpt lat="42.6212413609027862548828125" lon="2.7728021331131458282470703125">
        <ele>98.40000152587890625</ele>
        <time>2023-08-19T17:01:04.000Z</time>
        <extensions>
          <ns3:TrackPointExtension>
            <ns3:hr>120</ns3:hr>
            <ns3:cad>87</ns3:cad>
          </ns3:TrackPointExtension>
        </extensions>
      </trkpt>
      <trkpt lat="42.62122853659093379974365234375" lon="2.77276617474853992462158203125">
        <ele>98.59999847412109375</ele>
        <time>2023-08-19T17:01:05.000Z</time>
        <extensions>
          <ns3:TrackPointExtension>
            <ns3:hr>120</ns3:hr>
            <ns3:cad>86</ns3:cad>
          </ns3:TrackPointExtension>
        </extensions>
      </trkpt>
      <trkpt lat="42.6212157122790813446044921875" lon="2.772733233869075775146484375">
        <ele>98.59999847412109375</ele>
        <time>2023-08-19T17:01:06.000Z</time>
        <extensions>
          <ns3:TrackPointExtension>
            <ns3:hr>120</ns3:hr>
            <ns3:cad>85</ns3:cad>
          </ns3:TrackPointExtension>
        </extensions>
      </trkpt>
      <trkpt lat="42.6212046481668949127197265625" lon="2.77269794605672359466552734375">
        <ele>98.8000030517578125</ele>
        <time>2023-08-19T17:01:07.000Z</time>
        <extensions>
          <ns3:TrackPointExtension>
            <ns3:hr>120</ns3:hr>
            <ns3:cad>85</ns3:cad>
          </ns3:TrackPointExtension>
        </extensions>
      </trkpt>
      <trkpt lat="42.621192745864391326904296875" lon="2.77266978286206722259521484375">
        <ele>98.8000030517578125</ele>
        <time>2023-08-19T17:01:08.000Z</time>
        <extensions>
          <ns3:TrackPointExtension>
            <ns3:hr>121</ns3:hr>
            <ns3:cad>84</ns3:cad>
          </ns3:TrackPointExtension>
        </extensions>
      </trkpt>
      <trkpt lat="42.62117824517190456390380859375" lon="2.77263273485004901885986328125">
        <ele>98.8000030517578125</ele>
        <time>2023-08-19T17:01:09.000Z</time>
        <extensions>
          <ns3:TrackPointExtension>
            <ns3:hr>122</ns3:hr>
            <ns3:cad>83</ns3:cad>
          </ns3:TrackPointExtension>
        </extensions>
      </trkpt>
      <trkpt lat="42.62116667814552783966064453125" lon="2.772603146731853485107421875">
        <ele>98.8000030517578125</ele>
        <time>2023-08-19T17:01:10.000Z</time>
        <extensions>
          <ns3:TrackPointExtension>
            <ns3:hr>123</ns3:hr>
            <ns3:cad>84</ns3:cad>
          </ns3:TrackPointExtension>
        </extensions>
      </trkpt>
      <trkpt lat="42.62115259654819965362548828125" lon="2.7725711278617382049560546875">
        <ele>98.8000030517578125</ele>
        <time>2023-08-19T17:01:11.000Z</time>
        <extensions>
          <ns3:TrackPointExtension>
            <ns3:hr>125</ns3:hr>
            <ns3:cad>84</ns3:cad>
          </ns3:TrackPointExtension>
        </extensions>
      </trkpt>
      <trkpt lat="42.621145136654376983642578125" lon="2.7725369296967983245849609375">
        <ele>99</ele>
        <time>2023-08-19T17:01:12.000Z</time>
        <extensions>
          <ns3:TrackPointExtension>
            <ns3:hr>127</ns3:hr>
            <ns3:cad>84</ns3:cad>
          </ns3:TrackPointExtension>
        </extensions>
      </trkpt>
      <trkpt lat="42.6211335696280002593994140625" lon="2.7725074253976345062255859375">
        <ele>99</ele>
        <time>2023-08-19T17:01:13.000Z</time>
        <extensions>
          <ns3:TrackPointExtension>
            <ns3:hr>129</ns3:hr>
            <ns3:cad>85</ns3:cad>
          </ns3:TrackPointExtension>
        </extensions>
      </trkpt>
      <trkpt lat="42.62112292461097240447998046875" lon="2.7724707126617431640625">
        <ele>99</ele>
        <time>2023-08-19T17:01:14.000Z</time>
        <extensions>
          <ns3:TrackPointExtension>
            <ns3:hr>130</ns3:hr>
            <ns3:cad>85</ns3:cad>
          </ns3:TrackPointExtension>
        </extensions>
      </trkpt>
      <trkpt lat="42.6211111061275005340576171875" lon="2.772438861429691314697265625">
        <ele>99.1999969482421875</ele>
        <time>2023-08-19T17:01:15.000Z</time>
        <extensions>
          <ns3:TrackPointExtension>
            <ns3:hr>136</ns3:hr>
            <ns3:cad>85</ns3:cad>
          </ns3:TrackPointExtension>
        </extensions>
      </trkpt>
      <trkpt lat="42.62110331095755100250244140625" lon="2.77240139432251453399658203125">
        <ele>99.1999969482421875</ele>
        <time>2023-08-19T17:01:16.000Z</time>
        <extensions>
          <ns3:TrackPointExtension>
            <ns3:hr>137</ns3:hr>
            <ns3:cad>85</ns3:cad>
          </ns3:TrackPointExtension>
        </extensions>
      </trkpt>
      <trkpt lat="42.6210973598062992095947265625" lon="2.77236384339630603790283203125">
        <ele>99.1999969482421875</ele>
        <time>2023-08-19T17:01:17.000Z</time>
        <extensions>
          <ns3:TrackPointExtension>
            <ns3:hr>137</ns3:hr>
            <ns3:cad>85</ns3:cad>
          </ns3:TrackPointExtension>
        </extensions>
      </trkpt>
      <trkpt lat="42.62109124101698398590087890625" lon="2.77233132161200046539306640625">
        <ele>99.40000152587890625</ele>
        <time>2023-08-19T17:01:18.000Z</time>
        <extensions>
          <ns3:TrackPointExtension>
            <ns3:hr>137</ns3:hr>
            <ns3:cad>85</ns3:cad>
          </ns3:TrackPointExtension>
        </extensions>
      </trkpt>
      <trkpt lat="42.62108470313251018524169921875" lon="2.772293351590633392333984375">
        <ele>99.40000152587890625</ele>
        <time>2023-08-19T17:01:19.000Z</time>
        <extensions>
          <ns3:TrackPointExtension>
            <ns3:hr>136</ns3:hr>
            <ns3:cad>85</ns3:cad>
          </ns3:TrackPointExtension>
        </extensions>
      </trkpt>
      <trkpt lat="42.6210775785148143768310546875" lon="2.772258482873439788818359375">
        <ele>99.40000152587890625</ele>
        <time>2023-08-19T17:01:20.000Z</time>
        <extensions>
          <ns3:TrackPointExtension>
            <ns3:hr>135</ns3:hr>
            <ns3:cad>86</ns3:cad>
          </ns3:TrackPointExtension>
        </extensions>
      </trkpt>
      <trkpt lat="42.621065340936183929443359375" lon="2.7722153998911380767822265625">
        <ele>99.59999847412109375</ele>
        <time>2023-08-19T17:01:21.000Z</time>
        <extensions>
          <ns3:TrackPointExtension>
            <ns3:hr>137</ns3:hr>
            <ns3:cad>86</ns3:cad>
          </ns3:TrackPointExtension>
        </extensions>
      </trkpt>
      <trkpt lat="42.6210544444620609283447265625" lon="2.77218078263103961944580078125">
        <ele>99.59999847412109375</ele>
        <time>2023-08-19T17:01:22.000Z</time>
        <extensions>
          <ns3:TrackPointExtension>
            <ns3:hr>137</ns3:hr>
            <ns3:cad>86</ns3:cad>
          </ns3:TrackPointExtension>
        </extensions>
      </trkpt>
      <trkpt lat="42.62104597873985767364501953125" lon="2.772137783467769622802734375">
        <ele>99.8000030517578125</ele>
        <time>2023-08-19T17:01:23.000Z</time>
        <extensions>
          <ns3:TrackPointExtension>
            <ns3:hr>137</ns3:hr>
            <ns3:cad>86</ns3:cad>
          </ns3:TrackPointExtension>
        </extensions>
      </trkpt>
      <trkpt lat="42.62103877030313014984130859375" lon="2.77210165746510028839111328125">
        <ele>99.8000030517578125</ele>
        <time>2023-08-19T17:01:24.000Z</time>
        <extensions>
          <ns3:TrackPointExtension>
            <ns3:hr>137</ns3:hr>
            <ns3:cad>86</ns3:cad>
          </ns3:TrackPointExtension>
        </extensions>
      </trkpt>
      <trkpt lat="42.62103189714252948760986328125" lon="2.7720655314624309539794921875">
        <ele>99.8000030517578125</ele>
        <time>2023-08-19T17:01:25.000Z</time>
        <extensions>
          <ns3:TrackPointExtension>
            <ns3:hr>138</ns3:hr>
            <ns3:cad>86</ns3:cad>
          </ns3:TrackPointExtension>
        </extensions>
      </trkpt>
      <trkpt lat="42.621023766696453094482421875" lon="2.77202454395592212677001953125">
        <ele>99.8000030517578125</ele>
        <time>2023-08-19T17:01:26.000Z</time>
        <extensions>
          <ns3:TrackPointExtension>
            <ns3:hr>138</ns3:hr>
            <ns3:cad>86</ns3:cad>
          </ns3:TrackPointExtension>
        </extensions>
      </trkpt>
      <trkpt lat="42.62101345695555210113525390625" lon="2.771990261971950531005859375">
        <ele>100</ele>
        <time>2023-08-19T17:01:27.000Z</time>
        <extensions>
          <ns3:TrackPointExtension>
            <ns3:hr>138</ns3:hr>
            <ns3:cad>86</ns3:cad>
          </ns3:TrackPointExtension>
        </extensions>
      </trkpt>
      <trkpt lat="42.62100306339561939239501953125" lon="2.7719491906464099884033203125">
        <ele>100</ele>
        <time>2023-08-19T17:01:28.000Z</time>
        <extensions>
          <ns3:TrackPointExtension>
            <ns3:hr>138</ns3:hr>
            <ns3:cad>86</ns3:cad>
          </ns3:TrackPointExtension>
        </extensions>
      </trkpt>
      <trkpt lat="42.62099417857825756072998046875" lon="2.77191725559532642364501953125">
        <ele>100</ele>
        <time>2023-08-19T17:01:29.000Z</time>
        <extensions>
          <ns3:TrackPointExtension>
            <ns3:hr>138</ns3:hr>
            <ns3:cad>85</ns3:cad>
          </ns3:TrackPointExtension>
        </extensions>
      </trkpt>
      <trkpt lat="42.6209857128560543060302734375" lon="2.771880291402339935302734375">
        <ele>100</ele>
        <time>2023-08-19T17:01:30.000Z</time>
        <extensions>
          <ns3:TrackPointExtension>
            <ns3:hr>138</ns3:hr>
            <ns3:cad>85</ns3:cad>
          </ns3:TrackPointExtension>
        </extensions>
      </trkpt>
      <trkpt lat="42.6209776662290096282958984375" lon="2.77184567414224147796630859375">
        <ele>100</ele>
        <time>2023-08-19T17:01:31.000Z</time>
        <extensions>
          <ns3:TrackPointExtension>
            <ns3:hr>139</ns3:hr>
            <ns3:cad>85</ns3:cad>
          </ns3:TrackPointExtension>
        </extensions>
      </trkpt>
      <trkpt lat="42.6209669373929500579833984375" lon="2.77180829085409641265869140625">
        <ele>100.1999969482421875</ele>
        <time>2023-08-19T17:01:32.000Z</time>
        <extensions>
          <ns3:TrackPointExtension>
            <ns3:hr>139</ns3:hr>
            <ns3:cad>85</ns3:cad>
          </ns3:TrackPointExtension>
        </extensions>
      </trkpt>
      <trkpt lat="42.620958052575588226318359375" lon="2.771770991384983062744140625">
        <ele>100.1999969482421875</ele>
        <time>2023-08-19T17:01:33.000Z</time>
        <extensions>
          <ns3:TrackPointExtension>
            <ns3:hr>139</ns3:hr>
            <ns3:cad>86</ns3:cad>
          </ns3:TrackPointExtension>
        </extensions>
      </trkpt>
      <trkpt lat="42.62094807811081409454345703125" lon="2.7717386372387409210205078125">
        <ele>100.1999969482421875</ele>
        <time>2023-08-19T17:01:34.000Z</time>
        <extensions>
          <ns3:TrackPointExtension>
            <ns3:hr>139</ns3:hr>
            <ns3:cad>86</ns3:cad>
          </ns3:TrackPointExtension>
        </extensions>
      </trkpt>
      <trkpt lat="42.62093801982700824737548828125" lon="2.77170033194124698638916015625">
        <ele>100.1999969482421875</ele>
        <time>2023-08-19T17:01:35.000Z</time>
        <extensions>
          <ns3:TrackPointExtension>
            <ns3:hr>139</ns3:hr>
            <ns3:cad>86</ns3:cad>
          </ns3:TrackPointExtension>
        </extensions>
      </trkpt>
      <trkpt lat="42.62092863209545612335205078125" lon="2.77166630141437053680419921875">
        <ele>100.40000152587890625</ele>
        <time>2023-08-19T17:01:36.000Z</time>
        <extensions>
          <ns3:TrackPointExtension>
            <ns3:hr>140</ns3:hr>
            <ns3:cad>86</ns3:cad>
          </ns3:TrackPointExtension>
        </extensions>
      </trkpt>
      <trkpt lat="42.620915807783603668212890625" lon="2.7716273255646228790283203125">
        <ele>100.40000152587890625</ele>
        <time>2023-08-19T17:01:37.000Z</time>
        <extensions>
          <ns3:TrackPointExtension>
            <ns3:hr>140</ns3:hr>
            <ns3:cad>86</ns3:cad>
          </ns3:TrackPointExtension>
        </extensions>
      </trkpt>
      <trkpt lat="42.62090667150914669036865234375" lon="2.77159027755260467529296875">
        <ele>100.59999847412109375</ele>
        <time>2023-08-19T17:01:38.000Z</time>
        <extensions>
          <ns3:TrackPointExtension>
            <ns3:hr>140</ns3:hr>
            <ns3:cad>86</ns3:cad>
          </ns3:TrackPointExtension>
        </extensions>
      </trkpt>
      <trkpt lat="42.62089644558727741241455078125" lon="2.77155264280736446380615234375">
        <ele>100.59999847412109375</ele>
        <time>2023-08-19T17:01:39.000Z</time>
        <extensions>
          <ns3:TrackPointExtension>
            <ns3:hr>140</ns3:hr>
            <ns3:cad>86</ns3:cad>
          </ns3:TrackPointExtension>
        </extensions>
      </trkpt>
      <trkpt lat="42.62089041061699390411376953125" lon="2.77151207439601421356201171875">
        <ele>100.59999847412109375</ele>
        <time>2023-08-19T17:01:40.000Z</time>
        <extensions>
          <ns3:TrackPointExtension>
            <ns3:hr>140</ns3:hr>
            <ns3:cad>86</ns3:cad>
          </ns3:TrackPointExtension>
        </extensions>
      </trkpt>
      <trkpt lat="42.6208819448947906494140625" lon="2.77147628366947174072265625">
        <ele>100.8000030517578125</ele>
        <time>2023-08-19T17:01:41.000Z</time>
        <extensions>
          <ns3:TrackPointExtension>
            <ns3:hr>141</ns3:hr>
            <ns3:cad>86</ns3:cad>
          </ns3:TrackPointExtension>
        </extensions>
      </trkpt>
      <trkpt lat="42.62087632901966571807861328125" lon="2.77143630199134349822998046875">
        <ele>100.8000030517578125</ele>
        <time>2023-08-19T17:01:42.000Z</time>
        <extensions>
          <ns3:TrackPointExtension>
            <ns3:hr>141</ns3:hr>
            <ns3:cad>86</ns3:cad>
          </ns3:TrackPointExtension>
        </extensions>
      </trkpt>
      <trkpt lat="42.6208703778684139251708984375" lon="2.77140378020703792572021484375">
        <ele>101</ele>
        <time>2023-08-19T17:01:43.000Z</time>
        <extensions>
          <ns3:TrackPointExtension>
            <ns3:hr>141</ns3:hr>
            <ns3:cad>85</ns3:cad>
          </ns3:TrackPointExtension>
        </extensions>
      </trkpt>
      <trkpt lat="42.6208631694316864013671875" lon="2.771365977823734283447265625">
        <ele>101</ele>
        <time>2023-08-19T17:01:44.000Z</time>
        <extensions>
          <ns3:TrackPointExtension>
            <ns3:hr>141</ns3:hr>
            <ns3:cad>85</ns3:cad>
          </ns3:TrackPointExtension>
        </extensions>
      </trkpt>
      <trkpt lat="42.6208562962710857391357421875" lon="2.77132867835462093353271484375">
        <ele>101</ele>
        <time>2023-08-19T17:01:45.000Z</time>
        <extensions>
          <ns3:TrackPointExtension>
            <ns3:hr>142</ns3:hr>
            <ns3:cad>85</ns3:cad>
          </ns3:TrackPointExtension>
        </extensions>
      </trkpt>
      <trkpt lat="42.62084682472050189971923828125" lon="2.7712940610945224761962890625">
        <ele>101.1999969482421875</ele>
        <time>2023-08-19T17:01:46.000Z</time>
        <extensions>
          <ns3:TrackPointExtension>
            <ns3:hr>142</ns3:hr>
            <ns3:cad>85</ns3:cad>
          </ns3:TrackPointExtension>
        </extensions>
      </trkpt>
      <trkpt lat="42.62083793990314006805419921875" lon="2.77126162312924861907958984375">
        <ele>101.1999969482421875</ele>
        <time>2023-08-19T17:01:47.000Z</time>
        <extensions>
          <ns3:TrackPointExtension>
            <ns3:hr>142</ns3:hr>
            <ns3:cad>85</ns3:cad>
          </ns3:TrackPointExtension>
        </extensions>
      </trkpt>
      <trkpt lat="42.62082771398127079010009765625" lon="2.771229855716228485107421875">
        <ele>101.1999969482421875</ele>
        <time>2023-08-19T17:01:48.000Z</time>
        <extensions>
          <ns3:TrackPointExtension>
            <ns3:hr>143</ns3:hr>
            <ns3:cad>85</ns3:cad>
          </ns3:TrackPointExtension>
        </extensions>
      </trkpt>
      <trkpt lat="42.6208187453448772430419921875" lon="2.77119322679936885833740234375">
        <ele>101.1999969482421875</ele>
        <time>2023-08-19T17:01:49.000Z</time>
        <extensions>
          <ns3:TrackPointExtension>
            <ns3:hr>143</ns3:hr>
            <ns3:cad>85</ns3:cad>
          </ns3:TrackPointExtension>
        </extensions>
      </trkpt>
      <trkpt lat="42.620811201632022857666015625" lon="2.7711596153676509857177734375">
        <ele>101.40000152587890625</ele>
        <time>2023-08-19T17:01:50.000Z</time>
        <extensions>
          <ns3:TrackPointExtension>
            <ns3:hr>144</ns3:hr>
            <ns3:cad>85</ns3:cad>
          </ns3:TrackPointExtension>
        </extensions>
      </trkpt>
      <trkpt lat="42.62080214917659759521484375" lon="2.77112248353660106658935546875">
        <ele>101.59999847412109375</ele>
        <time>2023-08-19T17:01:51.000Z</time>
        <extensions>
          <ns3:TrackPointExtension>
            <ns3:hr>144</ns3:hr>
            <ns3:cad>85</ns3:cad>
          </ns3:TrackPointExtension>
        </extensions>
      </trkpt>
      <trkpt lat="42.62079435400664806365966796875" lon="2.7710851840674877166748046875">
        <ele>101.59999847412109375</ele>
        <time>2023-08-19T17:01:52.000Z</time>
        <extensions>
          <ns3:TrackPointExtension>
            <ns3:hr>145</ns3:hr>
            <ns3:cad>85</ns3:cad>
          </ns3:TrackPointExtension>
        </extensions>
      </trkpt>
      <trkpt lat="42.620781697332859039306640625" lon="2.7710493095219135284423828125">
        <ele>101.8000030517578125</ele>
        <time>2023-08-19T17:01:53.000Z</time>
        <extensions>
          <ns3:TrackPointExtension>
            <ns3:hr>145</ns3:hr>
            <ns3:cad>85</ns3:cad>
          </ns3:TrackPointExtension>
        </extensions>
      </trkpt>
      <trkpt lat="42.62077038176357746124267578125" lon="2.7710110880434513092041015625">
        <ele>102</ele>
        <time>2023-08-19T17:01:54.000Z</time>
        <extensions>
          <ns3:TrackPointExtension>
            <ns3:hr>145</ns3:hr>
            <ns3:cad>85</ns3:cad>
          </ns3:TrackPointExtension>
        </extensions>
      </trkpt>
      <trkpt lat="42.620760910212993621826171875" lon="2.77097781188786029815673828125">
        <ele>102</ele>
        <time>2023-08-19T17:01:55.000Z</time>
        <extensions>
          <ns3:TrackPointExtension>
            <ns3:hr>146</ns3:hr>
            <ns3:cad>85</ns3:cad>
          </ns3:TrackPointExtension>
        </extensions>
      </trkpt>
      <trkpt lat="42.62075009755790233612060546875" lon="2.77093724347651004791259765625">
        <ele>102.1999969482421875</ele>
        <time>2023-08-19T17:01:56.000Z</time>
        <extensions>
          <ns3:TrackPointExtension>
            <ns3:hr>146</ns3:hr>
            <ns3:cad>85</ns3:cad>
          </ns3:TrackPointExtension>
        </extensions>
      </trkpt>
      <trkpt lat="42.6207439787685871124267578125" lon="2.7709027938544750213623046875">
        <ele>102.1999969482421875</ele>
        <time>2023-08-19T17:01:57.000Z</time>
        <extensions>
          <ns3:TrackPointExtension>
            <ns3:hr>146</ns3:hr>
            <ns3:cad>85</ns3:cad>
          </ns3:TrackPointExtension>
        </extensions>
      </trkpt>
      <trkpt lat="42.62073232792317867279052734375" lon="2.77086867950856685638427734375">
        <ele>102.1999969482421875</ele>
        <time>2023-08-19T17:01:58.000Z</time>
        <extensions>
          <ns3:TrackPointExtension>
            <ns3:hr>146</ns3:hr>
            <ns3:cad>85</ns3:cad>
          </ns3:TrackPointExtension>
        </extensions>
      </trkpt>
      <trkpt lat="42.620721347630023956298828125" lon="2.77082978747785091400146484375">
        <ele>102.40000152587890625</ele>
        <time>2023-08-19T17:01:59.000Z</time>
        <extensions>
          <ns3:TrackPointExtension>
            <ns3:hr>146</ns3:hr>
            <ns3:cad>85</ns3:cad>
          </ns3:TrackPointExtension>
        </extensions>
      </trkpt>
      <trkpt lat="42.62071095407009124755859375" lon="2.77079625986516475677490234375">
        <ele>102.40000152587890625</ele>
        <time>2023-08-19T17:02:00.000Z</time>
        <extensions>
          <ns3:TrackPointExtension>
            <ns3:hr>147</ns3:hr>
            <ns3:cad>85</ns3:cad>
          </ns3:TrackPointExtension>
        </extensions>
      </trkpt>
      <trkpt lat="42.62070483528077602386474609375" lon="2.770760469138622283935546875">
        <ele>102.59999847412109375</ele>
        <time>2023-08-19T17:02:01.000Z</time>
        <extensions>
          <ns3:TrackPointExtension>
            <ns3:hr>147</ns3:hr>
            <ns3:cad>85</ns3:cad>
          </ns3:TrackPointExtension>
        </extensions>
      </trkpt>
      <trkpt lat="42.6206970401108264923095703125" lon="2.77072803117334842681884765625">
        <ele>102.8000030517578125</ele>
        <time>2023-08-19T17:02:02.000Z</time>
        <extensions>
          <ns3:TrackPointExtension>
            <ns3:hr>147</ns3:hr>
            <ns3:cad>86</ns3:cad>
          </ns3:TrackPointExtension>
        </extensions>
      </trkpt>
      <trkpt lat="42.6206883229315280914306640625" lon="2.77068964205682277679443359375">
        <ele>102.8000030517578125</ele>
        <time>2023-08-19T17:02:03.000Z</time>
        <extensions>
          <ns3:TrackPointExtension>
            <ns3:hr>147</ns3:hr>
            <ns3:cad>86</ns3:cad>
          </ns3:TrackPointExtension>
        </extensions>
      </trkpt>
      <trkpt lat="42.62068212032318115234375" lon="2.77065510861575603485107421875">
        <ele>103</ele>
        <time>2023-08-19T17:02:04.000Z</time>
        <extensions>
          <ns3:TrackPointExtension>
            <ns3:hr>147</ns3:hr>
            <ns3:cad>86</ns3:cad>
          </ns3:TrackPointExtension>
        </extensions>
      </trkpt>
      <trkpt lat="42.6206762529909610748291015625" lon="2.770623676478862762451171875">
        <ele>103</ele>
        <time>2023-08-19T17:02:05.000Z</time>
        <extensions>
          <ns3:TrackPointExtension>
            <ns3:hr>147</ns3:hr>
            <ns3:cad>86</ns3:cad>
          </ns3:TrackPointExtension>
        </extensions>
      </trkpt>
      <trkpt lat="42.62067046947777271270751953125" lon="2.77058713138103485107421875">
        <ele>103.1999969482421875</ele>
        <time>2023-08-19T17:02:06.000Z</time>
        <extensions>
          <ns3:TrackPointExtension>
            <ns3:hr>147</ns3:hr>
            <ns3:cad>86</ns3:cad>
          </ns3:TrackPointExtension>
        </extensions>
      </trkpt>
      <trkpt lat="42.6206625066697597503662109375" lon="2.770551927387714385986328125">
        <ele>103.1999969482421875</ele>
        <time>2023-08-19T17:02:07.000Z</time>
        <extensions>
          <ns3:TrackPointExtension>
            <ns3:hr>147</ns3:hr>
            <ns3:cad>86</ns3:cad>
          </ns3:TrackPointExtension>
        </extensions>
      </trkpt>
      <trkpt lat="42.62065085582435131072998046875" lon="2.77051328681409358978271484375">
        <ele>103.40000152587890625</ele>
        <time>2023-08-19T17:02:08.000Z</time>
        <extensions>
          <ns3:TrackPointExtension>
            <ns3:hr>147</ns3:hr>
            <ns3:cad>86</ns3:cad>
          </ns3:TrackPointExtension>
        </extensions>
      </trkpt>
      <trkpt lat="42.6206417195498943328857421875" lon="2.7704796753823757171630859375">
        <ele>103.40000152587890625</ele>
        <time>2023-08-19T17:02:09.000Z</time>
        <extensions>
          <ns3:TrackPointExtension>
            <ns3:hr>147</ns3:hr>
            <ns3:cad>86</ns3:cad>
          </ns3:TrackPointExtension>
        </extensions>
      </trkpt>
      <trkpt lat="42.62063073925673961639404296875" lon="2.7704354189336299896240234375">
        <ele>103.40000152587890625</ele>
        <time>2023-08-19T17:02:10.000Z</time>
        <extensions>
          <ns3:TrackPointExtension>
            <ns3:hr>147</ns3:hr>
            <ns3:cad>86</ns3:cad>
          </ns3:TrackPointExtension>
        </extensions>
      </trkpt>
      <trkpt lat="42.6206202618777751922607421875" lon="2.77040348388254642486572265625">
        <ele>103.59999847412109375</ele>
        <time>2023-08-19T17:02:11.000Z</time>
        <extensions>
          <ns3:TrackPointExtension>
            <ns3:hr>147</ns3:hr>
            <ns3:cad>85</ns3:cad>
          </ns3:TrackPointExtension>
        </extensions>
      </trkpt>
      <trkpt lat="42.62061079032719135284423828125" lon="2.77036962099373340606689453125">
        <ele>103.8000030517578125</ele>
        <time>2023-08-19T17:02:12.000Z</time>
        <extensions>
          <ns3:TrackPointExtension>
            <ns3:hr>148</ns3:hr>
            <ns3:cad>85</ns3:cad>
          </ns3:TrackPointExtension>
        </extensions>
      </trkpt>
      <trkpt lat="42.6206024922430515289306640625" lon="2.7703316509723663330078125">
        <ele>103.8000030517578125</ele>
        <time>2023-08-19T17:02:13.000Z</time>
        <extensions>
          <ns3:TrackPointExtension>
            <ns3:hr>148</ns3:hr>
            <ns3:cad>85</ns3:cad>
          </ns3:TrackPointExtension>
        </extensions>
      </trkpt>
      <trkpt lat="42.62059201486408710479736328125" lon="2.77029904536902904510498046875">
        <ele>104</ele>
        <time>2023-08-19T17:02:14.000Z</time>
        <extensions>
          <ns3:TrackPointExtension>
            <ns3:hr>148</ns3:hr>
            <ns3:cad>85</ns3:cad>
          </ns3:TrackPointExtension>
        </extensions>
      </trkpt>
      <trkpt lat="42.62058556079864501953125" lon="2.7702630870044231414794921875">
        <ele>104.1999969482421875</ele>
        <time>2023-08-19T17:02:15.000Z</time>
        <extensions>
          <ns3:TrackPointExtension>
            <ns3:hr>148</ns3:hr>
            <ns3:cad>84</ns3:cad>
          </ns3:TrackPointExtension>
        </extensions>
      </trkpt>
      <trkpt lat="42.62057960964739322662353515625" lon="2.77023366652429103851318359375">
        <ele>104.40000152587890625</ele>
        <time>2023-08-19T17:02:16.000Z</time>
        <extensions>
          <ns3:TrackPointExtension>
            <ns3:hr>148</ns3:hr>
            <ns3:cad>84</ns3:cad>
          </ns3:TrackPointExtension>
        </extensions>
      </trkpt>
      <trkpt lat="42.6205694675445556640625" lon="2.7702007256448268890380859375">
        <ele>104.40000152587890625</ele>
        <time>2023-08-19T17:02:17.000Z</time>
        <extensions>
          <ns3:TrackPointExtension>
            <ns3:hr>148</ns3:hr>
            <ns3:cad>84</ns3:cad>
          </ns3:TrackPointExtension>
        </extensions>
      </trkpt>
      <trkpt lat="42.62055999599397182464599609375" lon="2.77016409672796726226806640625">
        <ele>104.59999847412109375</ele>
        <time>2023-08-19T17:02:18.000Z</time>
        <extensions>
          <ns3:TrackPointExtension>
            <ns3:hr>148</ns3:hr>
            <ns3:cad>84</ns3:cad>
          </ns3:TrackPointExtension>
        </extensions>
      </trkpt>
      <trkpt lat="42.62055245228111743927001953125" lon="2.77013895101845264434814453125">
        <ele>104.59999847412109375</ele>
        <time>2023-08-19T17:02:19.000Z</time>
        <extensions>
          <ns3:TrackPointExtension>
            <ns3:hr>149</ns3:hr>
            <ns3:cad>84</ns3:cad>
          </ns3:TrackPointExtension>
        </extensions>
      </trkpt>
      <trkpt lat="42.62054733932018280029296875" lon="2.77010190300643444061279296875">
        <ele>104.8000030517578125</ele>
        <time>2023-08-19T17:02:20.000Z</time>
        <extensions>
          <ns3:TrackPointExtension>
            <ns3:hr>149</ns3:hr>
            <ns3:cad>85</ns3:cad>
          </ns3:TrackPointExtension>
        </extensions>
      </trkpt>
      <trkpt lat="42.62054239399731159210205078125" lon="2.77007005177438259124755859375">
        <ele>105</ele>
        <time>2023-08-19T17:02:21.000Z</time>
        <extensions>
          <ns3:TrackPointExtension>
            <ns3:hr>149</ns3:hr>
            <ns3:cad>85</ns3:cad>
          </ns3:TrackPointExtension>
        </extensions>
      </trkpt>
      <trkpt lat="42.62053669430315494537353515625" lon="2.7700357697904109954833984375">
        <ele>105</ele>
        <time>2023-08-19T17:02:22.000Z</time>
        <extensions>
          <ns3:TrackPointExtension>
            <ns3:hr>149</ns3:hr>
            <ns3:cad>86</ns3:cad>
          </ns3:TrackPointExtension>
        </extensions>
      </trkpt>
      <trkpt lat="42.6205307431519031524658203125" lon="2.769998721778392791748046875">
        <ele>105.1999969482421875</ele>
        <time>2023-08-19T17:02:23.000Z</time>
        <extensions>
          <ns3:TrackPointExtension>
            <ns3:hr>149</ns3:hr>
            <ns3:cad>86</ns3:cad>
          </ns3:TrackPointExtension>
        </extensions>
      </trkpt>
      <trkpt lat="42.6205243729054927825927734375" lon="2.76996293105185031890869140625">
        <ele>105.1999969482421875</ele>
        <time>2023-08-19T17:02:24.000Z</time>
        <extensions>
          <ns3:TrackPointExtension>
            <ns3:hr>150</ns3:hr>
            <ns3:cad>86</ns3:cad>
          </ns3:TrackPointExtension>
        </extensions>
      </trkpt>
      <trkpt lat="42.6205159910023212432861328125" lon="2.7699264697730541229248046875">
        <ele>105.40000152587890625</ele>
        <time>2023-08-19T17:02:25.000Z</time>
        <extensions>
          <ns3:TrackPointExtension>
            <ns3:hr>150</ns3:hr>
            <ns3:cad>86</ns3:cad>
          </ns3:TrackPointExtension>
        </extensions>
      </trkpt>
      <trkpt lat="42.62050576508045196533203125" lon="2.76989051140844821929931640625">
        <ele>105.40000152587890625</ele>
        <time>2023-08-19T17:02:26.000Z</time>
        <extensions>
          <ns3:TrackPointExtension>
            <ns3:hr>150</ns3:hr>
            <ns3:cad>86</ns3:cad>
          </ns3:TrackPointExtension>
        </extensions>
      </trkpt>
      <trkpt lat="42.6204978860914707183837890625" lon="2.76984809897840023040771484375">
        <ele>105.59999847412109375</ele>
        <time>2023-08-19T17:02:27.000Z</time>
        <extensions>
          <ns3:TrackPointExtension>
            <ns3:hr>150</ns3:hr>
            <ns3:cad>86</ns3:cad>
          </ns3:TrackPointExtension>
        </extensions>
      </trkpt>
      <trkpt lat="42.62048824690282344818115234375" lon="2.76980954222381114959716796875">
        <ele>105.59999847412109375</ele>
        <time>2023-08-19T17:02:28.000Z</time>
        <extensions>
          <ns3:TrackPointExtension>
            <ns3:hr>150</ns3:hr>
            <ns3:cad>86</ns3:cad>
          </ns3:TrackPointExtension>
        </extensions>
      </trkpt>
      <trkpt lat="42.62047869153320789337158203125" lon="2.769764028489589691162109375">
        <ele>105.8000030517578125</ele>
        <time>2023-08-19T17:02:29.000Z</time>
        <extensions>
          <ns3:TrackPointExtension>
            <ns3:hr>150</ns3:hr>
            <ns3:cad>86</ns3:cad>
          </ns3:TrackPointExtension>
        </extensions>
      </trkpt>
      <trkpt lat="42.62046695686876773834228515625" lon="2.7697236277163028717041015625">
        <ele>106</ele>
        <time>2023-08-19T17:02:30.000Z</time>
        <extensions>
          <ns3:TrackPointExtension>
            <ns3:hr>150</ns3:hr>
            <ns3:cad>86</ns3:cad>
          </ns3:TrackPointExtension>
        </extensions>
      </trkpt>
      <trkpt lat="42.62045689858496189117431640625" lon="2.7696864120662212371826171875">
        <ele>106</ele>
        <time>2023-08-19T17:02:31.000Z</time>
        <extensions>
          <ns3:TrackPointExtension>
            <ns3:hr>150</ns3:hr>
            <ns3:cad>85</ns3:cad>
          </ns3:TrackPointExtension>
        </extensions>
      </trkpt>
      <trkpt lat="42.6204492710530757904052734375" lon="2.76964827440679073333740234375">
        <ele>106.1999969482421875</ele>
        <time>2023-08-19T17:02:32.000Z</time>
        <extensions>
          <ns3:TrackPointExtension>
            <ns3:hr>151</ns3:hr>
            <ns3:cad>85</ns3:cad>
          </ns3:TrackPointExtension>
        </extensions>
      </trkpt>
      <trkpt lat="42.62043912895023822784423828125" lon="2.76961809955537319183349609375">
        <ele>106.1999969482421875</ele>
        <time>2023-08-19T17:02:33.000Z</time>
        <extensions>
          <ns3:TrackPointExtension>
            <ns3:hr>151</ns3:hr>
            <ns3:cad>85</ns3:cad>
          </ns3:TrackPointExtension>
        </extensions>
      </trkpt>
      <trkpt lat="42.62043200433254241943359375" lon="2.76958188973367214202880859375">
        <ele>106.40000152587890625</ele>
        <time>2023-08-19T17:02:34.000Z</time>
        <extensions>
          <ns3:TrackPointExtension>
            <ns3:hr>151</ns3:hr>
            <ns3:cad>85</ns3:cad>
          </ns3:TrackPointExtension>
        </extensions>
      </trkpt>
      <trkpt lat="42.62042471207678318023681640625" lon="2.7695499546825885772705078125">
        <ele>106.59999847412109375</ele>
        <time>2023-08-19T17:02:35.000Z</time>
        <extensions>
          <ns3:TrackPointExtension>
            <ns3:hr>151</ns3:hr>
            <ns3:cad>84</ns3:cad>
          </ns3:TrackPointExtension>
        </extensions>
      </trkpt>
      <trkpt lat="42.62041783891618251800537109375" lon="2.7695150859653949737548828125">
        <ele>106.59999847412109375</ele>
        <time>2023-08-19T17:02:36.000Z</time>
        <extensions>
          <ns3:TrackPointExtension>
            <ns3:hr>151</ns3:hr>
            <ns3:cad>84</ns3:cad>
          </ns3:TrackPointExtension>
        </extensions>
      </trkpt>
      <trkpt lat="42.6204123906791210174560546875" lon="2.76947745122015476226806640625">
        <ele>106.59999847412109375</ele>
        <time>2023-08-19T17:02:37.000Z</time>
        <extensions>
          <ns3:TrackPointExtension>
            <ns3:hr>151</ns3:hr>
            <ns3:cad>84</ns3:cad>
          </ns3:TrackPointExtension>
        </extensions>
      </trkpt>
      <trkpt lat="42.620405517518520355224609375" lon="2.76943872682750225067138671875">
        <ele>106.8000030517578125</ele>
        <time>2023-08-19T17:02:38.000Z</time>
        <extensions>
          <ns3:TrackPointExtension>
            <ns3:hr>151</ns3:hr>
            <ns3:cad>84</ns3:cad>
          </ns3:TrackPointExtension>
        </extensions>
      </trkpt>
      <trkpt lat="42.62040442787110805511474609375" lon="2.76939664967358112335205078125">
        <ele>107</ele>
        <time>2023-08-19T17:02:39.000Z</time>
        <extensions>
          <ns3:TrackPointExtension>
            <ns3:hr>151</ns3:hr>
            <ns3:cad>84</ns3:cad>
          </ns3:TrackPointExtension>
        </extensions>
      </trkpt>
      <trkpt lat="42.62039805762469768524169921875" lon="2.76935976929962635040283203125">
        <ele>107</ele>
        <time>2023-08-19T17:02:40.000Z</time>
        <extensions>
          <ns3:TrackPointExtension>
            <ns3:hr>151</ns3:hr>
            <ns3:cad>84</ns3:cad>
          </ns3:TrackPointExtension>
        </extensions>
      </trkpt>
      <trkpt lat="42.6203912682831287384033203125" lon="2.7693192847073078155517578125">
        <ele>107</ele>
        <time>2023-08-19T17:02:41.000Z</time>
        <extensions>
          <ns3:TrackPointExtension>
            <ns3:hr>151</ns3:hr>
            <ns3:cad>83</ns3:cad>
          </ns3:TrackPointExtension>
        </extensions>
      </trkpt>
      <trkpt lat="42.6203859038650989532470703125" lon="2.76928223669528961181640625">
        <ele>107</ele>
        <time>2023-08-19T17:02:42.000Z</time>
        <extensions>
          <ns3:TrackPointExtension>
            <ns3:hr>151</ns3:hr>
            <ns3:cad>83</ns3:cad>
          </ns3:TrackPointExtension>
        </extensions>
      </trkpt>
      <trkpt lat="42.6203795336186885833740234375" lon="2.76924879290163516998291015625">
        <ele>107</ele>
        <time>2023-08-19T17:02:43.000Z</time>
        <extensions>
          <ns3:TrackPointExtension>
            <ns3:hr>152</ns3:hr>
            <ns3:cad>83</ns3:cad>
          </ns3:TrackPointExtension>
        </extensions>
      </trkpt>
      <trkpt lat="42.62037106789648532867431640625" lon="2.7692104876041412353515625">
        <ele>107</ele>
        <time>2023-08-19T17:02:44.000Z</time>
        <extensions>
          <ns3:TrackPointExtension>
            <ns3:hr>152</ns3:hr>
            <ns3:cad>83</ns3:cad>
          </ns3:TrackPointExtension>
        </extensions>
      </trkpt>
      <trkpt lat="42.6203631050884723663330078125" lon="2.7691794745624065399169921875">
        <ele>107</ele>
        <time>2023-08-19T17:02:45.000Z</time>
        <extensions>
          <ns3:TrackPointExtension>
            <ns3:hr>152</ns3:hr>
            <ns3:cad>84</ns3:cad>
          </ns3:TrackPointExtension>
        </extensions>
      </trkpt>
      <trkpt lat="42.62035514228045940399169921875" lon="2.76914770714938640594482421875">
        <ele>107</ele>
        <time>2023-08-19T17:02:46.000Z</time>
        <extensions>
          <ns3:TrackPointExtension>
            <ns3:hr>152</ns3:hr>
            <ns3:cad>84</ns3:cad>
          </ns3:TrackPointExtension>
        </extensions>
      </trkpt>
      <trkpt lat="42.62034617364406585693359375" lon="2.7691139280796051025390625">
        <ele>107</ele>
        <time>2023-08-19T17:02:47.000Z</time>
        <extensions>
          <ns3:TrackPointExtension>
            <ns3:hr>152</ns3:hr>
            <ns3:cad>84</ns3:cad>
          </ns3:TrackPointExtension>
        </extensions>
      </trkpt>
      <trkpt lat="42.620334438979625701904296875" lon="2.7690889500081539154052734375">
        <ele>107</ele>
        <time>2023-08-19T17:02:48.000Z</time>
        <extensions>
          <ns3:TrackPointExtension>
            <ns3:hr>152</ns3:hr>
            <ns3:cad>84</ns3:cad>
          </ns3:TrackPointExtension>
        </extensions>
      </trkpt>
      <trkpt lat="42.6203188486397266387939453125" lon="2.76905969716608524322509765625">
        <ele>107</ele>
        <time>2023-08-19T17:02:49.000Z</time>
        <extensions>
          <ns3:TrackPointExtension>
            <ns3:hr>152</ns3:hr>
            <ns3:cad>83</ns3:cad>
          </ns3:TrackPointExtension>
        </extensions>
      </trkpt>
      <trkpt lat="42.6203034259378910064697265625" lon="2.7690334618091583251953125">
        <ele>107</ele>
        <time>2023-08-19T17:02:50.000Z</time>
        <extensions>
          <ns3:TrackPointExtension>
            <ns3:hr>152</ns3:hr>
            <ns3:cad>83</ns3:cad>
          </ns3:TrackPointExtension>
        </extensions>
      </trkpt>
      <trkpt lat="42.6202880032360553741455078125" lon="2.769005633890628814697265625">
        <ele>107</ele>
        <time>2023-08-19T17:02:51.000Z</time>
        <extensions>
          <ns3:TrackPointExtension>
            <ns3:hr>152</ns3:hr>
            <ns3:cad>83</ns3:cad>
          </ns3:TrackPointExtension>
        </extensions>
      </trkpt>
      <trkpt lat="42.62027802877128124237060546875" lon="2.76897621341049671173095703125">
        <ele>107</ele>
        <time>2023-08-19T17:02:52.000Z</time>
        <extensions>
          <ns3:TrackPointExtension>
            <ns3:hr>152</ns3:hr>
            <ns3:cad>84</ns3:cad>
          </ns3:TrackPointExtension>
        </extensions>
      </trkpt>
      <trkpt lat="42.6202672161161899566650390625" lon="2.7689457871019840240478515625">
        <ele>107</ele>
        <time>2023-08-19T17:02:53.000Z</time>
        <extensions>
          <ns3:TrackPointExtension>
            <ns3:hr>152</ns3:hr>
            <ns3:cad>84</ns3:cad>
          </ns3:TrackPointExtension>
        </extensions>
      </trkpt>
      <trkpt lat="42.620252631604671478271484375" lon="2.768907062709331512451171875">
        <ele>107.1999969482421875</ele>
        <time>2023-08-19T17:02:54.000Z</time>
        <extensions>
          <ns3:TrackPointExtension>
            <ns3:hr>152</ns3:hr>
            <ns3:cad>84</ns3:cad>
          </ns3:TrackPointExtension>
        </extensions>
      </trkpt>
      <trkpt lat="42.62023754417896270751953125" lon="2.76887730695307254791259765625">
        <ele>107.1999969482421875</ele>
        <time>2023-08-19T17:02:55.000Z</time>
        <extensions>
          <ns3:TrackPointExtension>
            <ns3:hr>152</ns3:hr>
            <ns3:cad>84</ns3:cad>
          </ns3:TrackPointExtension>
        </extensions>
      </trkpt>
      <trkpt lat="42.620220445096492767333984375" lon="2.76884428225457668304443359375">
        <ele>107.1999969482421875</ele>
        <time>2023-08-19T17:02:56.000Z</time>
        <extensions>
          <ns3:TrackPointExtension>
            <ns3:hr>153</ns3:hr>
            <ns3:cad>84</ns3:cad>
          </ns3:TrackPointExtension>
        </extensions>
      </trkpt>
      <trkpt lat="42.62020762078464031219482421875" lon="2.76881419122219085693359375">
        <ele>107.1999969482421875</ele>
        <time>2023-08-19T17:02:57.000Z</time>
        <extensions>
          <ns3:TrackPointExtension>
            <ns3:hr>153</ns3:hr>
            <ns3:cad>84</ns3:cad>
          </ns3:TrackPointExtension>
        </extensions>
      </trkpt>
      <trkpt lat="42.62019731104373931884765625" lon="2.7687855251133441925048828125">
        <ele>107.40000152587890625</ele>
        <time>2023-08-19T17:02:58.000Z</time>
        <extensions>
          <ns3:TrackPointExtension>
            <ns3:hr>152</ns3:hr>
            <ns3:cad>84</ns3:cad>
          </ns3:TrackPointExtension>
        </extensions>
      </trkpt>
      <trkpt lat="42.62018750421702861785888671875" lon="2.76875258423388004302978515625">
        <ele>107.40000152587890625</ele>
        <time>2023-08-19T17:02:59.000Z</time>
        <extensions>
          <ns3:TrackPointExtension>
            <ns3:hr>152</ns3:hr>
            <ns3:cad>84</ns3:cad>
          </ns3:TrackPointExtension>
        </extensions>
      </trkpt>
      <trkpt lat="42.620180211961269378662109375" lon="2.76872098445892333984375">
        <ele>107.40000152587890625</ele>
        <time>2023-08-19T17:03:00.000Z</time>
        <extensions>
          <ns3:TrackPointExtension>
            <ns3:hr>153</ns3:hr>
            <ns3:cad>83</ns3:cad>
          </ns3:TrackPointExtension>
        </extensions>
      </trkpt>
      <trkpt lat="42.6201711595058441162109375" lon="2.7686836011707782745361328125">
        <ele>107.40000152587890625</ele>
        <time>2023-08-19T17:03:01.000Z</time>
        <extensions>
          <ns3:TrackPointExtension>
            <ns3:hr>152</ns3:hr>
            <ns3:cad>84</ns3:cad>
          </ns3:TrackPointExtension>
        </extensions>
      </trkpt>
      <trkpt lat="42.6201569102704524993896484375" lon="2.76864864863455295562744140625">
        <ele>107.59999847412109375</ele>
        <time>2023-08-19T17:03:02.000Z</time>
        <extensions>
          <ns3:TrackPointExtension>
            <ns3:hr>152</ns3:hr>
            <ns3:cad>85</ns3:cad>
          </ns3:TrackPointExtension>
        </extensions>
      </trkpt>
      <trkpt lat="42.620139308273792266845703125" lon="2.76861746795475482940673828125">
        <ele>107.59999847412109375</ele>
        <time>2023-08-19T17:03:03.000Z</time>
        <extensions>
          <ns3:TrackPointExtension>
            <ns3:hr>152</ns3:hr>
            <ns3:cad>85</ns3:cad>
          </ns3:TrackPointExtension>
        </extensions>
      </trkpt>
      <trkpt lat="42.62011826969683170318603515625" lon="2.76858829893171787261962890625">
        <ele>107.59999847412109375</ele>
        <time>2023-08-19T17:03:04.000Z</time>
        <extensions>
          <ns3:TrackPointExtension>
            <ns3:hr>152</ns3:hr>
            <ns3:cad>85</ns3:cad>
          </ns3:TrackPointExtension>
        </extensions>
      </trkpt>
      <trkpt lat="42.62010100297629833221435546875" lon="2.768563739955425262451171875">
        <ele>107.8000030517578125</ele>
        <time>2023-08-19T17:03:05.000Z</time>
        <extensions>
          <ns3:TrackPointExtension>
            <ns3:hr>152</ns3:hr>
            <ns3:cad>85</ns3:cad>
          </ns3:TrackPointExtension>
        </extensions>
      </trkpt>
      <trkpt lat="42.6200797967612743377685546875" lon="2.7685407735407352447509765625">
        <ele>107.8000030517578125</ele>
        <time>2023-08-19T17:03:06.000Z</time>
        <extensions>
          <ns3:TrackPointExtension>
            <ns3:hr>152</ns3:hr>
            <ns3:cad>85</ns3:cad>
          </ns3:TrackPointExtension>
        </extensions>
      </trkpt>
      <trkpt lat="42.62005926109850406646728515625" lon="2.76852526701986789703369140625">
        <ele>107.8000030517578125</ele>
        <time>2023-08-19T17:03:07.000Z</time>
        <extensions>
          <ns3:TrackPointExtension>
            <ns3:hr>152</ns3:hr>
            <ns3:cad>84</ns3:cad>
          </ns3:TrackPointExtension>
        </extensions>
      </trkpt>
      <trkpt lat="42.62003839015960693359375" lon="2.768518142402172088623046875">
        <ele>108</ele>
        <time>2023-08-19T17:03:08.000Z</time>
        <extensions>
          <ns3:TrackPointExtension>
            <ns3:hr>152</ns3:hr>
            <ns3:cad>84</ns3:cad>
          </ns3:TrackPointExtension>
        </extensions>
      </trkpt>
      <trkpt lat="42.6200110651552677154541015625" lon="2.7685250155627727508544921875">
        <ele>108</ele>
        <time>2023-08-19T17:03:09.000Z</time>
        <extensions>
          <ns3:TrackPointExtension>
            <ns3:hr>152</ns3:hr>
            <ns3:cad>84</ns3:cad>
          </ns3:TrackPointExtension>
        </extensions>
      </trkpt>
      <trkpt lat="42.61998466216027736663818359375" lon="2.76853783987462520599365234375">
        <ele>108</ele>
        <time>2023-08-19T17:03:10.000Z</time>
        <extensions>
          <ns3:TrackPointExtension>
            <ns3:hr>152</ns3:hr>
            <ns3:cad>85</ns3:cad>
          </ns3:TrackPointExtension>
        </extensions>
      </trkpt>
      <trkpt lat="42.61995415203273296356201171875" lon="2.76855829171836376190185546875">
        <ele>108</ele>
        <time>2023-08-19T17:03:11.000Z</time>
        <extensions>
          <ns3:TrackPointExtension>
            <ns3:hr>152</ns3:hr>
            <ns3:cad>85</ns3:cad>
          </ns3:TrackPointExtension>
        </extensions>
      </trkpt>
      <trkpt lat="42.61992833577096462249755859375" lon="2.76857404969632625579833984375">
        <ele>108</ele>
        <time>2023-08-19T17:03:12.000Z</time>
        <extensions>
          <ns3:TrackPointExtension>
            <ns3:hr>152</ns3:hr>
            <ns3:cad>85</ns3:cad>
          </ns3:TrackPointExtension>
        </extensions>
      </trkpt>
      <trkpt lat="42.61990268714725971221923828125" lon="2.7685917355120182037353515625">
        <ele>108</ele>
        <time>2023-08-19T17:03:13.000Z</time>
        <extensions>
          <ns3:TrackPointExtension>
            <ns3:hr>152</ns3:hr>
            <ns3:cad>84</ns3:cad>
          </ns3:TrackPointExtension>
        </extensions>
      </trkpt>
      <trkpt lat="42.61987670324742794036865234375" lon="2.76860891841351985931396484375">
        <ele>108</ele>
        <time>2023-08-19T17:03:14.000Z</time>
        <extensions>
          <ns3:TrackPointExtension>
            <ns3:hr>152</ns3:hr>
            <ns3:cad>84</ns3:cad>
          </ns3:TrackPointExtension>
        </extensions>
      </trkpt>
      <trkpt lat="42.619853317737579345703125" lon="2.768624089658260345458984375">
        <ele>108.1999969482421875</ele>
        <time>2023-08-19T17:03:15.000Z</time>
        <extensions>
          <ns3:TrackPointExtension>
            <ns3:hr>152</ns3:hr>
            <ns3:cad>84</ns3:cad>
          </ns3:TrackPointExtension>
        </extensions>
      </trkpt>
      <trkpt lat="42.61982792057096958160400390625" lon="2.7686416916549205780029296875">
        <ele>108.1999969482421875</ele>
        <time>2023-08-19T17:03:16.000Z</time>
        <extensions>
          <ns3:TrackPointExtension>
            <ns3:hr>152</ns3:hr>
            <ns3:cad>84</ns3:cad>
          </ns3:TrackPointExtension>
        </extensions>
      </trkpt>
      <trkpt lat="42.61980327777564525604248046875" lon="2.76866021566092967987060546875">
        <ele>108.1999969482421875</ele>
        <time>2023-08-19T17:03:17.000Z</time>
        <extensions>
          <ns3:TrackPointExtension>
            <ns3:hr>152</ns3:hr>
            <ns3:cad>84</ns3:cad>
          </ns3:TrackPointExtension>
        </extensions>
      </trkpt>
      <trkpt lat="42.61977679096162319183349609375" lon="2.7686795778572559356689453125">
        <ele>108.1999969482421875</ele>
        <time>2023-08-19T17:03:18.000Z</time>
        <extensions>
          <ns3:TrackPointExtension>
            <ns3:hr>152</ns3:hr>
            <ns3:cad>84</ns3:cad>
          </ns3:TrackPointExtension>
        </extensions>
      </trkpt>
      <trkpt lat="42.61975265108048915863037109375" lon="2.768695838749408721923828125">
        <ele>108.40000152587890625</ele>
        <time>2023-08-19T17:03:19.000Z</time>
        <extensions>
          <ns3:TrackPointExtension>
            <ns3:hr>152</ns3:hr>
            <ns3:cad>84</ns3:cad>
          </ns3:TrackPointExtension>
        </extensions>
      </trkpt>
      <trkpt lat="42.619729936122894287109375" lon="2.7687127701938152313232421875">
        <ele>108.40000152587890625</ele>
        <time>2023-08-19T17:03:20.000Z</time>
        <extensions>
          <ns3:TrackPointExtension>
            <ns3:hr>152</ns3:hr>
            <ns3:cad>84</ns3:cad>
          </ns3:TrackPointExtension>
        </extensions>
      </trkpt>
      <trkpt lat="42.6197079755365848541259765625" lon="2.768731378018856048583984375">
        <ele>108.40000152587890625</ele>
        <time>2023-08-19T17:03:21.000Z</time>
        <extensions>
          <ns3:TrackPointExtension>
            <ns3:hr>152</ns3:hr>
            <ns3:cad>84</ns3:cad>
          </ns3:TrackPointExtension>
        </extensions>
      </trkpt>
      <trkpt lat="42.61968509294092655181884765625" lon="2.768750824034214019775390625">
        <ele>108.40000152587890625</ele>
        <time>2023-08-19T17:03:22.000Z</time>
        <extensions>
          <ns3:TrackPointExtension>
            <ns3:hr>152</ns3:hr>
            <ns3:cad>84</ns3:cad>
          </ns3:TrackPointExtension>
        </extensions>
      </trkpt>
      <trkpt lat="42.61965860612690448760986328125" lon="2.7687732875347137451171875">
        <ele>108.40000152587890625</ele>
        <time>2023-08-19T17:03:23.000Z</time>
        <extensions>
          <ns3:TrackPointExtension>
            <ns3:hr>152</ns3:hr>
            <ns3:cad>84</ns3:cad>
          </ns3:TrackPointExtension>
        </extensions>
      </trkpt>
      <trkpt lat="42.619633376598358154296875" lon="2.7687992714345455169677734375">
        <ele>108.40000152587890625</ele>
        <time>2023-08-19T17:03:24.000Z</time>
        <extensions>
          <ns3:TrackPointExtension>
            <ns3:hr>152</ns3:hr>
            <ns3:cad>84</ns3:cad>
          </ns3:TrackPointExtension>
        </extensions>
      </trkpt>
      <trkpt lat="42.6196073926985263824462890625" lon="2.76881016790866851806640625">
        <ele>108.59999847412109375</ele>
        <time>2023-08-19T17:03:25.000Z</time>
        <extensions>
          <ns3:TrackPointExtension>
            <ns3:hr>152</ns3:hr>
            <ns3:cad>84</ns3:cad>
          </ns3:TrackPointExtension>
        </extensions>
      </trkpt>
      <trkpt lat="42.619580738246440887451171875" lon="2.76882198639214038848876953125">
        <ele>108.59999847412109375</ele>
        <time>2023-08-19T17:03:26.000Z</time>
        <extensions>
          <ns3:TrackPointExtension>
            <ns3:hr>152</ns3:hr>
            <ns3:cad>84</ns3:cad>
          </ns3:TrackPointExtension>
        </extensions>
      </trkpt>
      <trkpt lat="42.6195547543466091156005859375" lon="2.768833301961421966552734375">
        <ele>108.59999847412109375</ele>
        <time>2023-08-19T17:03:27.000Z</time>
        <extensions>
          <ns3:TrackPointExtension>
            <ns3:hr>152</ns3:hr>
            <ns3:cad>84</ns3:cad>
          </ns3:TrackPointExtension>
        </extensions>
      </trkpt>
      <trkpt lat="42.619529105722904205322265625" lon="2.7688482217490673065185546875">
        <ele>108.8000030517578125</ele>
        <time>2023-08-19T17:03:28.000Z</time>
        <extensions>
          <ns3:TrackPointExtension>
            <ns3:hr>152</ns3:hr>
            <ns3:cad>84</ns3:cad>
          </ns3:TrackPointExtension>
        </extensions>
      </trkpt>
      <trkpt lat="42.61950303800404071807861328125" lon="2.76886272244155406951904296875">
        <ele>108.8000030517578125</ele>
        <time>2023-08-19T17:03:29.000Z</time>
        <extensions>
          <ns3:TrackPointExtension>
            <ns3:hr>152</ns3:hr>
            <ns3:cad>83</ns3:cad>
          </ns3:TrackPointExtension>
        </extensions>
      </trkpt>
      <trkpt lat="42.61947755701839923858642578125" lon="2.7688720263540744781494140625">
        <ele>108.8000030517578125</ele>
        <time>2023-08-19T17:03:30.000Z</time>
        <extensions>
          <ns3:TrackPointExtension>
            <ns3:hr>152</ns3:hr>
            <ns3:cad>83</ns3:cad>
          </ns3:TrackPointExtension>
        </extensions>
      </trkpt>
      <trkpt lat="42.61945023201406002044677734375" lon="2.76888283900916576385498046875">
        <ele>108.8000030517578125</ele>
        <time>2023-08-19T17:03:31.000Z</time>
        <extensions>
          <ns3:TrackPointExtension>
            <ns3:hr>152</ns3:hr>
            <ns3:cad>83</ns3:cad>
          </ns3:TrackPointExtension>
        </extensions>
      </trkpt>
      <trkpt lat="42.61942424811422824859619140625" lon="2.76889675296843051910400390625">
        <ele>108.8000030517578125</ele>
        <time>2023-08-19T17:03:32.000Z</time>
        <extensions>
          <ns3:TrackPointExtension>
            <ns3:hr>152</ns3:hr>
            <ns3:cad>83</ns3:cad>
          </ns3:TrackPointExtension>
        </extensions>
      </trkpt>
      <trkpt lat="42.61939893476665019989013671875" lon="2.768907062709331512451171875">
        <ele>109</ele>
        <time>2023-08-19T17:03:33.000Z</time>
        <extensions>
          <ns3:TrackPointExtension>
            <ns3:hr>153</ns3:hr>
            <ns3:cad>83</ns3:cad>
          </ns3:TrackPointExtension>
        </extensions>
      </trkpt>
      <trkpt lat="42.61937194503843784332275390625" lon="2.76891611516475677490234375">
        <ele>109</ele>
        <time>2023-08-19T17:03:34.000Z</time>
        <extensions>
          <ns3:TrackPointExtension>
            <ns3:hr>153</ns3:hr>
            <ns3:cad>83</ns3:cad>
          </ns3:TrackPointExtension>
        </extensions>
      </trkpt>
      <trkpt lat="42.61934864334762096405029296875" lon="2.7689208090305328369140625">
        <ele>109</ele>
        <time>2023-08-19T17:03:35.000Z</time>
        <extensions>
          <ns3:TrackPointExtension>
            <ns3:hr>153</ns3:hr>
            <ns3:cad>83</ns3:cad>
          </ns3:TrackPointExtension>
        </extensions>
      </trkpt>
      <trkpt lat="42.6193187199532985687255859375" lon="2.76892818510532379150390625">
        <ele>109.1999969482421875</ele>
        <time>2023-08-19T17:03:36.000Z</time>
        <extensions>
          <ns3:TrackPointExtension>
            <ns3:hr>153</ns3:hr>
            <ns3:cad>83</ns3:cad>
          </ns3:TrackPointExtension>
        </extensions>
      </trkpt>
      <trkpt lat="42.61928795836865901947021484375" lon="2.7689306996762752532958984375">
        <ele>109.1999969482421875</ele>
        <time>2023-08-19T17:03:37.000Z</time>
        <extensions>
          <ns3:TrackPointExtension>
            <ns3:hr>153</ns3:hr>
            <ns3:cad>83</ns3:cad>
          </ns3:TrackPointExtension>
        </extensions>
      </trkpt>
      <trkpt lat="42.61925912462174892425537109375" lon="2.7689395844936370849609375">
        <ele>109.40000152587890625</ele>
        <time>2023-08-19T17:03:38.000Z</time>
        <extensions>
          <ns3:TrackPointExtension>
            <ns3:hr>153</ns3:hr>
            <ns3:cad>83</ns3:cad>
          </ns3:TrackPointExtension>
        </extensions>
      </trkpt>
      <trkpt lat="42.6192298717796802520751953125" lon="2.768946625292301177978515625">
        <ele>109.40000152587890625</ele>
        <time>2023-08-19T17:03:39.000Z</time>
        <extensions>
          <ns3:TrackPointExtension>
            <ns3:hr>153</ns3:hr>
            <ns3:cad>83</ns3:cad>
          </ns3:TrackPointExtension>
        </extensions>
      </trkpt>
      <trkpt lat="42.6192050613462924957275390625" lon="2.76895341463387012481689453125">
        <ele>109.40000152587890625</ele>
        <time>2023-08-19T17:03:40.000Z</time>
        <extensions>
          <ns3:TrackPointExtension>
            <ns3:hr>153</ns3:hr>
            <ns3:cad>83</ns3:cad>
          </ns3:TrackPointExtension>
        </extensions>
      </trkpt>
      <trkpt lat="42.61918033473193645477294921875" lon="2.7689618803560733795166015625">
        <ele>109.40000152587890625</ele>
        <time>2023-08-19T17:03:41.000Z</time>
        <extensions>
          <ns3:TrackPointExtension>
            <ns3:hr>153</ns3:hr>
            <ns3:cad>83</ns3:cad>
          </ns3:TrackPointExtension>
        </extensions>
      </trkpt>
      <trkpt lat="42.61915636248886585235595703125" lon="2.76896850205957889556884765625">
        <ele>109.40000152587890625</ele>
        <time>2023-08-19T17:03:42.000Z</time>
        <extensions>
          <ns3:TrackPointExtension>
            <ns3:hr>153</ns3:hr>
            <ns3:cad>82</ns3:cad>
          </ns3:TrackPointExtension>
        </extensions>
      </trkpt>
      <trkpt lat="42.619134485721588134765625" lon="2.76897110044956207275390625">
        <ele>109.59999847412109375</ele>
        <time>2023-08-19T17:03:43.000Z</time>
        <extensions>
          <ns3:TrackPointExtension>
            <ns3:hr>153</ns3:hr>
            <ns3:cad>82</ns3:cad>
          </ns3:TrackPointExtension>
        </extensions>
      </trkpt>
      <trkpt lat="42.6191078312695026397705078125" lon="2.76897319592535495758056640625">
        <ele>109.59999847412109375</ele>
        <time>2023-08-19T17:03:44.000Z</time>
        <extensions>
          <ns3:TrackPointExtension>
            <ns3:hr>153</ns3:hr>
            <ns3:cad>82</ns3:cad>
          </ns3:TrackPointExtension>
        </extensions>
      </trkpt>
      <trkpt lat="42.6190776564180850982666015625" lon="2.7689726091921329498291015625">
        <ele>109.59999847412109375</ele>
        <time>2023-08-19T17:03:45.000Z</time>
        <extensions>
          <ns3:TrackPointExtension>
            <ns3:hr>153</ns3:hr>
            <ns3:cad>82</ns3:cad>
          </ns3:TrackPointExtension>
        </extensions>
      </trkpt>
      <trkpt lat="42.61904773302376270294189453125" lon="2.7689726091921329498291015625">
        <ele>109.8000030517578125</ele>
        <time>2023-08-19T17:03:46.000Z</time>
        <extensions>
          <ns3:TrackPointExtension>
            <ns3:hr>153</ns3:hr>
            <ns3:cad>82</ns3:cad>
          </ns3:TrackPointExtension>
        </extensions>
      </trkpt>
      <trkpt lat="42.61901655234396457672119140625" lon="2.76897084899246692657470703125">
        <ele>109.8000030517578125</ele>
        <time>2023-08-19T17:03:47.000Z</time>
        <extensions>
          <ns3:TrackPointExtension>
            <ns3:hr>153</ns3:hr>
            <ns3:cad>82</ns3:cad>
          </ns3:TrackPointExtension>
        </extensions>
      </trkpt>
      <trkpt lat="42.6189891435205936431884765625" lon="2.768971435725688934326171875">
        <ele>110</ele>
        <time>2023-08-19T17:03:48.000Z</time>
        <extensions>
          <ns3:TrackPointExtension>
            <ns3:hr>153</ns3:hr>
            <ns3:cad>83</ns3:cad>
          </ns3:TrackPointExtension>
        </extensions>
      </trkpt>
      <trkpt lat="42.6189614832401275634765625" lon="2.7689749561250209808349609375">
        <ele>110</ele>
        <time>2023-08-19T17:03:49.000Z</time>
        <extensions>
          <ns3:TrackPointExtension>
            <ns3:hr>153</ns3:hr>
            <ns3:cad>83</ns3:cad>
          </ns3:TrackPointExtension>
        </extensions>
      </trkpt>
      <trkpt lat="42.61893742717802524566650390625" lon="2.76898141019046306610107421875">
        <ele>110</ele>
        <time>2023-08-19T17:03:50.000Z</time>
        <extensions>
          <ns3:TrackPointExtension>
            <ns3:hr>153</ns3:hr>
            <ns3:cad>83</ns3:cad>
          </ns3:TrackPointExtension>
        </extensions>
      </trkpt>
      <trkpt lat="42.61891119182109832763671875" lon="2.76898719370365142822265625">
        <ele>110.1999969482421875</ele>
        <time>2023-08-19T17:03:51.000Z</time>
        <extensions>
          <ns3:TrackPointExtension>
            <ns3:hr>153</ns3:hr>
            <ns3:cad>83</ns3:cad>
          </ns3:TrackPointExtension>
        </extensions>
      </trkpt>
      <trkpt lat="42.61888344772160053253173828125" lon="2.76899255812168121337890625">
        <ele>110.1999969482421875</ele>
        <time>2023-08-19T17:03:52.000Z</time>
        <extensions>
          <ns3:TrackPointExtension>
            <ns3:hr>153</ns3:hr>
            <ns3:cad>83</ns3:cad>
          </ns3:TrackPointExtension>
        </extensions>
      </trkpt>
      <trkpt lat="42.61884824372828006744384765625" lon="2.7689907141029834747314453125">
        <ele>110.40000152587890625</ele>
        <time>2023-08-19T17:03:53.000Z</time>
        <extensions>
          <ns3:TrackPointExtension>
            <ns3:hr>153</ns3:hr>
            <ns3:cad>83</ns3:cad>
          </ns3:TrackPointExtension>
        </extensions>
      </trkpt>
      <trkpt lat="42.618820331990718841552734375" lon="2.7689863555133342742919921875">
        <ele>110.40000152587890625</ele>
        <time>2023-08-19T17:03:54.000Z</time>
        <extensions>
          <ns3:TrackPointExtension>
            <ns3:hr>153</ns3:hr>
            <ns3:cad>83</ns3:cad>
          </ns3:TrackPointExtension>
        </extensions>
      </trkpt>
      <trkpt lat="42.61879443190991878509521484375" lon="2.7689709328114986419677734375">
        <ele>110.40000152587890625</ele>
        <time>2023-08-19T17:03:55.000Z</time>
        <extensions>
          <ns3:TrackPointExtension>
            <ns3:hr>153</ns3:hr>
            <ns3:cad>83</ns3:cad>
          </ns3:TrackPointExtension>
        </extensions>
      </trkpt>
      <trkpt lat="42.61877448298037052154541015625" lon="2.76894603855907917022705078125">
        <ele>110.40000152587890625</ele>
        <time>2023-08-19T17:03:56.000Z</time>
        <extensions>
          <ns3:TrackPointExtension>
            <ns3:hr>153</ns3:hr>
            <ns3:cad>83</ns3:cad>
          </ns3:TrackPointExtension>
        </extensions>
      </trkpt>
      <trkpt lat="42.61875520460307598114013671875" lon="2.76891033165156841278076171875">
        <ele>110.59999847412109375</ele>
        <time>2023-08-19T17:03:57.000Z</time>
        <extensions>
          <ns3:TrackPointExtension>
            <ns3:hr>153</ns3:hr>
            <ns3:cad>83</ns3:cad>
          </ns3:TrackPointExtension>
        </extensions>
      </trkpt>
      <trkpt lat="42.61873961426317691802978515625" lon="2.7688673324882984161376953125">
        <ele>110.59999847412109375</ele>
        <time>2023-08-19T17:03:58.000Z</time>
        <extensions>
          <ns3:TrackPointExtension>
            <ns3:hr>154</ns3:hr>
            <ns3:cad>83</ns3:cad>
          </ns3:TrackPointExtension>
        </extensions>
      </trkpt>
      <trkpt lat="42.6187306456267833709716796875" lon="2.768834643065929412841796875">
        <ele>110.8000030517578125</ele>
        <time>2023-08-19T17:03:59.000Z</time>
        <extensions>
          <ns3:TrackPointExtension>
            <ns3:hr>154</ns3:hr>
            <ns3:cad>84</ns3:cad>
          </ns3:TrackPointExtension>
        </extensions>
      </trkpt>
      <trkpt lat="42.61872519738972187042236328125" lon="2.768790721893310546875">
        <ele>111</ele>
        <time>2023-08-19T17:04:00.000Z</time>
        <extensions>
          <ns3:TrackPointExtension>
            <ns3:hr>154</ns3:hr>
            <ns3:cad>84</ns3:cad>
          </ns3:TrackPointExtension>
        </extensions>
      </trkpt>
      <trkpt lat="42.61872209608554840087890625" lon="2.76875610463321208953857421875">
        <ele>111.1999969482421875</ele>
        <time>2023-08-19T17:04:01.000Z</time>
        <extensions>
          <ns3:TrackPointExtension>
            <ns3:hr>154</ns3:hr>
            <ns3:cad>84</ns3:cad>
          </ns3:TrackPointExtension>
        </extensions>
      </trkpt>
      <trkpt lat="42.61871874332427978515625" lon="2.76871520094573497772216796875">
        <ele>111.1999969482421875</ele>
        <time>2023-08-19T17:04:02.000Z</time>
        <extensions>
          <ns3:TrackPointExtension>
            <ns3:hr>154</ns3:hr>
            <ns3:cad>83</ns3:cad>
          </ns3:TrackPointExtension>
        </extensions>
      </trkpt>
      <trkpt lat="42.61871807277202606201171875" lon="2.76867337524890899658203125">
        <ele>111.1999969482421875</ele>
        <time>2023-08-19T17:04:03.000Z</time>
        <extensions>
          <ns3:TrackPointExtension>
            <ns3:hr>154</ns3:hr>
            <ns3:cad>83</ns3:cad>
          </ns3:TrackPointExtension>
        </extensions>
      </trkpt>
      <trkpt lat="42.6187132112681865692138671875" lon="2.76864110492169857025146484375">
        <ele>111.40000152587890625</ele>
        <time>2023-08-19T17:04:04.000Z</time>
        <extensions>
          <ns3:TrackPointExtension>
            <ns3:hr>154</ns3:hr>
            <ns3:cad>83</ns3:cad>
          </ns3:TrackPointExtension>
        </extensions>
      </trkpt>
      <trkpt lat="42.6187013089656829833984375" lon="2.76859601028263568878173828125">
        <ele>111.59999847412109375</ele>
        <time>2023-08-19T17:04:05.000Z</time>
        <extensions>
          <ns3:TrackPointExtension>
            <ns3:hr>154</ns3:hr>
            <ns3:cad>83</ns3:cad>
          </ns3:TrackPointExtension>
        </extensions>
      </trkpt>
      <trkpt lat="42.61868848465383052825927734375" lon="2.76856130920350551605224609375">
        <ele>111.59999847412109375</ele>
        <time>2023-08-19T17:04:06.000Z</time>
        <extensions>
          <ns3:TrackPointExtension>
            <ns3:hr>154</ns3:hr>
            <ns3:cad>83</ns3:cad>
          </ns3:TrackPointExtension>
        </extensions>
      </trkpt>
      <trkpt lat="42.6186733134090900421142578125" lon="2.7685256861150264739990234375">
        <ele>111.59999847412109375</ele>
        <time>2023-08-19T17:04:07.000Z</time>
        <extensions>
          <ns3:TrackPointExtension>
            <ns3:hr>154</ns3:hr>
            <ns3:cad>83</ns3:cad>
          </ns3:TrackPointExtension>
        </extensions>
      </trkpt>
      <trkpt lat="42.618660070002079010009765625" lon="2.76848872192203998565673828125">
        <ele>111.59999847412109375</ele>
        <time>2023-08-19T17:04:08.000Z</time>
        <extensions>
          <ns3:TrackPointExtension>
            <ns3:hr>155</ns3:hr>
            <ns3:cad>83</ns3:cad>
          </ns3:TrackPointExtension>
        </extensions>
      </trkpt>
      <trkpt lat="42.61864565312862396240234375" lon="2.76845653541386127471923828125">
        <ele>111.59999847412109375</ele>
        <time>2023-08-19T17:04:09.000Z</time>
        <extensions>
          <ns3:TrackPointExtension>
            <ns3:hr>155</ns3:hr>
            <ns3:cad>84</ns3:cad>
          </ns3:TrackPointExtension>
        </extensions>
      </trkpt>
      <trkpt lat="42.61863366700708866119384765625" lon="2.7684187330305576324462890625">
        <ele>111.59999847412109375</ele>
        <time>2023-08-19T17:04:10.000Z</time>
        <extensions>
          <ns3:TrackPointExtension>
            <ns3:hr>155</ns3:hr>
            <ns3:cad>83</ns3:cad>
          </ns3:TrackPointExtension>
        </extensions>
      </trkpt>
      <trkpt lat="42.618624530732631683349609375" lon="2.768382690846920013427734375">
        <ele>111.59999847412109375</ele>
        <time>2023-08-19T17:04:11.000Z</time>
        <extensions>
          <ns3:TrackPointExtension>
            <ns3:hr>154</ns3:hr>
            <ns3:cad>83</ns3:cad>
          </ns3:TrackPointExtension>
        </extensions>
      </trkpt>
      <trkpt lat="42.61861614882946014404296875" lon="2.768345810472965240478515625">
        <ele>111.8000030517578125</ele>
        <time>2023-08-19T17:04:12.000Z</time>
        <extensions>
          <ns3:TrackPointExtension>
            <ns3:hr>155</ns3:hr>
            <ns3:cad>83</ns3:cad>
          </ns3:TrackPointExtension>
        </extensions>
      </trkpt>
      <trkpt lat="42.61860969476401805877685546875" lon="2.7683084271848201751708984375">
        <ele>111.8000030517578125</ele>
        <time>2023-08-19T17:04:13.000Z</time>
        <extensions>
          <ns3:TrackPointExtension>
            <ns3:hr>154</ns3:hr>
            <ns3:cad>83</ns3:cad>
          </ns3:TrackPointExtension>
        </extensions>
      </trkpt>
      <trkpt lat="42.61860248632729053497314453125" lon="2.76827615685760974884033203125">
        <ele>111.8000030517578125</ele>
        <time>2023-08-19T17:04:14.000Z</time>
        <extensions>
          <ns3:TrackPointExtension>
            <ns3:hr>154</ns3:hr>
            <ns3:cad>83</ns3:cad>
          </ns3:TrackPointExtension>
        </extensions>
      </trkpt>
      <trkpt lat="42.6185951940715312957763671875" lon="2.7682395279407501220703125">
        <ele>111.8000030517578125</ele>
        <time>2023-08-19T17:04:15.000Z</time>
        <extensions>
          <ns3:TrackPointExtension>
            <ns3:hr>154</ns3:hr>
            <ns3:cad>83</ns3:cad>
          </ns3:TrackPointExtension>
        </extensions>
      </trkpt>
      <trkpt lat="42.618589662015438079833984375" lon="2.7682031504809856414794921875">
        <ele>111.8000030517578125</ele>
        <time>2023-08-19T17:04:16.000Z</time>
        <extensions>
          <ns3:TrackPointExtension>
            <ns3:hr>154</ns3:hr>
            <ns3:cad>83</ns3:cad>
          </ns3:TrackPointExtension>
        </extensions>
      </trkpt>
      <trkpt lat="42.6185837946832180023193359375" lon="2.76817205362021923065185546875">
        <ele>111.8000030517578125</ele>
        <time>2023-08-19T17:04:17.000Z</time>
        <extensions>
          <ns3:TrackPointExtension>
            <ns3:hr>154</ns3:hr>
            <ns3:cad>83</ns3:cad>
          </ns3:TrackPointExtension>
        </extensions>
      </trkpt>
      <trkpt lat="42.61857935227453708648681640625" lon="2.768133580684661865234375">
        <ele>111.8000030517578125</ele>
        <time>2023-08-19T17:04:18.000Z</time>
        <extensions>
          <ns3:TrackPointExtension>
            <ns3:hr>154</ns3:hr>
            <ns3:cad>83</ns3:cad>
          </ns3:TrackPointExtension>
        </extensions>
      </trkpt>
      <trkpt lat="42.6185739040374755859375" lon="2.76810063980519771575927734375">
        <ele>111.8000030517578125</ele>
        <time>2023-08-19T17:04:19.000Z</time>
        <extensions>
          <ns3:TrackPointExtension>
            <ns3:hr>154</ns3:hr>
            <ns3:cad>83</ns3:cad>
          </ns3:TrackPointExtension>
        </extensions>
      </trkpt>
      <trkpt lat="42.6185723952949047088623046875" lon="2.76806744746863842010498046875">
        <ele>111.8000030517578125</ele>
        <time>2023-08-19T17:04:20.000Z</time>
        <extensions>
          <ns3:TrackPointExtension>
            <ns3:hr>154</ns3:hr>
            <ns3:cad>83</ns3:cad>
          </ns3:TrackPointExtension>
        </extensions>
      </trkpt>
      <trkpt lat="42.61856694705784320831298828125" lon="2.7680291421711444854736328125">
        <ele>111.8000030517578125</ele>
        <time>2023-08-19T17:04:21.000Z</time>
        <extensions>
          <ns3:TrackPointExtension>
            <ns3:hr>154</ns3:hr>
            <ns3:cad>83</ns3:cad>
          </ns3:TrackPointExtension>
        </extensions>
      </trkpt>
      <trkpt lat="42.61856208555400371551513671875" lon="2.7679929323494434356689453125">
        <ele>112</ele>
        <time>2023-08-19T17:04:22.000Z</time>
        <extensions>
          <ns3:TrackPointExtension>
            <ns3:hr>153</ns3:hr>
            <ns3:cad>83</ns3:cad>
          </ns3:TrackPointExtension>
        </extensions>
      </trkpt>
      <trkpt lat="42.6185552962124347686767578125" lon="2.76795278303325176239013671875">
        <ele>112</ele>
        <time>2023-08-19T17:04:23.000Z</time>
        <extensions>
          <ns3:TrackPointExtension>
            <ns3:hr>153</ns3:hr>
            <ns3:cad>83</ns3:cad>
          </ns3:TrackPointExtension>
        </extensions>
      </trkpt>
      <trkpt lat="42.6185519434511661529541015625" lon="2.7679144777357578277587890625">
        <ele>112</ele>
        <time>2023-08-19T17:04:24.000Z</time>
        <extensions>
          <ns3:TrackPointExtension>
            <ns3:hr>153</ns3:hr>
            <ns3:cad>83</ns3:cad>
          </ns3:TrackPointExtension>
        </extensions>
      </trkpt>
      <trkpt lat="42.618549764156341552734375" lon="2.7678705565631389617919921875">
        <ele>112</ele>
        <time>2023-08-19T17:04:25.000Z</time>
        <extensions>
          <ns3:TrackPointExtension>
            <ns3:hr>153</ns3:hr>
            <ns3:cad>83</ns3:cad>
          </ns3:TrackPointExtension>
        </extensions>
      </trkpt>
      <trkpt lat="42.61855018325150012969970703125" lon="2.76782806031405925750732421875">
        <ele>112</ele>
        <time>2023-08-19T17:04:26.000Z</time>
        <extensions>
          <ns3:TrackPointExtension>
            <ns3:hr>153</ns3:hr>
            <ns3:cad>83</ns3:cad>
          </ns3:TrackPointExtension>
        </extensions>
      </trkpt>
      <trkpt lat="42.6185522787272930145263671875" lon="2.76779117994010448455810546875">
        <ele>112</ele>
        <time>2023-08-19T17:04:27.000Z</time>
        <extensions>
          <ns3:TrackPointExtension>
            <ns3:hr>153</ns3:hr>
            <ns3:cad>83</ns3:cad>
          </ns3:TrackPointExtension>
        </extensions>
      </trkpt>
      <trkpt lat="42.61856644414365291595458984375" lon="2.767748348414897918701171875">
        <ele>112</ele>
        <time>2023-08-19T17:04:28.000Z</time>
        <extensions>
          <ns3:TrackPointExtension>
            <ns3:hr>153</ns3:hr>
            <ns3:cad>84</ns3:cad>
          </ns3:TrackPointExtension>
        </extensions>
      </trkpt>
      <trkpt lat="42.61858438141644001007080078125" lon="2.76771691627800464630126953125">
        <ele>112</ele>
        <time>2023-08-19T17:04:29.000Z</time>
        <extensions>
          <ns3:TrackPointExtension>
            <ns3:hr>152</ns3:hr>
            <ns3:cad>84</ns3:cad>
          </ns3:TrackPointExtension>
        </extensions>
      </trkpt>
      <trkpt lat="42.6186049170792102813720703125" lon="2.7676844783127307891845703125">
        <ele>112</ele>
        <time>2023-08-19T17:04:30.000Z</time>
        <extensions>
          <ns3:TrackPointExtension>
            <ns3:hr>152</ns3:hr>
            <ns3:cad>84</ns3:cad>
          </ns3:TrackPointExtension>
        </extensions>
      </trkpt>
      <trkpt lat="42.618630565702915191650390625" lon="2.7676576562225818634033203125">
        <ele>112.1999969482421875</ele>
        <time>2023-08-19T17:04:31.000Z</time>
        <extensions>
          <ns3:TrackPointExtension>
            <ns3:hr>152</ns3:hr>
            <ns3:cad>84</ns3:cad>
          </ns3:TrackPointExtension>
        </extensions>
      </trkpt>
      <trkpt lat="42.61865545995533466339111328125" lon="2.76763410307466983795166015625">
        <ele>112.1999969482421875</ele>
        <time>2023-08-19T17:04:32.000Z</time>
        <extensions>
          <ns3:TrackPointExtension>
            <ns3:hr>152</ns3:hr>
            <ns3:cad>83</ns3:cad>
          </ns3:TrackPointExtension>
        </extensions>
      </trkpt>
      <trkpt lat="42.61867959983646869659423828125" lon="2.7676187641918659210205078125">
        <ele>112.1999969482421875</ele>
        <time>2023-08-19T17:04:33.000Z</time>
        <extensions>
          <ns3:TrackPointExtension>
            <ns3:hr>152</ns3:hr>
            <ns3:cad>83</ns3:cad>
          </ns3:TrackPointExtension>
        </extensions>
      </trkpt>
      <trkpt lat="42.61870441026985645294189453125" lon="2.76760912500321865081787109375">
        <ele>112</ele>
        <time>2023-08-19T17:04:34.000Z</time>
        <extensions>
          <ns3:TrackPointExtension>
            <ns3:hr>152</ns3:hr>
            <ns3:cad>83</ns3:cad>
          </ns3:TrackPointExtension>
        </extensions>
      </trkpt>
      <trkpt lat="42.6187281310558319091796875" lon="2.76759470812976360321044921875">
        <ele>112</ele>
        <time>2023-08-19T17:04:35.000Z</time>
        <extensions>
          <ns3:TrackPointExtension>
            <ns3:hr>152</ns3:hr>
            <ns3:cad>83</ns3:cad>
          </ns3:TrackPointExtension>
        </extensions>
      </trkpt>
      <trkpt lat="42.6187541149556636810302734375" lon="2.7675765193998813629150390625">
        <ele>112.1999969482421875</ele>
        <time>2023-08-19T17:04:36.000Z</time>
        <extensions>
          <ns3:TrackPointExtension>
            <ns3:hr>152</ns3:hr>
            <ns3:cad>83</ns3:cad>
          </ns3:TrackPointExtension>
        </extensions>
      </trkpt>
      <trkpt lat="42.61877481825649738311767578125" lon="2.76756134815514087677001953125">
        <ele>112.1999969482421875</ele>
        <time>2023-08-19T17:04:37.000Z</time>
        <extensions>
          <ns3:TrackPointExtension>
            <ns3:hr>152</ns3:hr>
            <ns3:cad>84</ns3:cad>
          </ns3:TrackPointExtension>
        </extensions>
      </trkpt>
      <trkpt lat="42.6188003830611705780029296875" lon="2.767539136111736297607421875">
        <ele>112.1999969482421875</ele>
        <time>2023-08-19T17:04:38.000Z</time>
        <extensions>
          <ns3:TrackPointExtension>
            <ns3:hr>152</ns3:hr>
            <ns3:cad>83</ns3:cad>
          </ns3:TrackPointExtension>
        </extensions>
      </trkpt>
      <trkpt lat="42.61883080936968326568603515625" lon="2.7675168402493000030517578125">
        <ele>112.1999969482421875</ele>
        <time>2023-08-19T17:04:39.000Z</time>
        <extensions>
          <ns3:TrackPointExtension>
            <ns3:hr>152</ns3:hr>
            <ns3:cad>83</ns3:cad>
          </ns3:TrackPointExtension>
        </extensions>
      </trkpt>
      <trkpt lat="42.6188550330698490142822265625" lon="2.7675004117190837860107421875">
        <ele>112.1999969482421875</ele>
        <time>2023-08-19T17:04:40.000Z</time>
        <extensions>
          <ns3:TrackPointExtension>
            <ns3:hr>152</ns3:hr>
            <ns3:cad>83</ns3:cad>
          </ns3:TrackPointExtension>
        </extensions>
      </trkpt>
      <trkpt lat="42.61888277716934680938720703125" lon="2.7674806304275989532470703125">
        <ele>112.1999969482421875</ele>
        <time>2023-08-19T17:04:41.000Z</time>
        <extensions>
          <ns3:TrackPointExtension>
            <ns3:hr>152</ns3:hr>
            <ns3:cad>83</ns3:cad>
          </ns3:TrackPointExtension>
        </extensions>
      </trkpt>
      <trkpt lat="42.61891026981174945831298828125" lon="2.76746462099254131317138671875">
        <ele>112.1999969482421875</ele>
        <time>2023-08-19T17:04:42.000Z</time>
        <extensions>
          <ns3:TrackPointExtension>
            <ns3:hr>152</ns3:hr>
            <ns3:cad>83</ns3:cad>
          </ns3:TrackPointExtension>
        </extensions>
      </trkpt>
      <trkpt lat="42.6189365051686763763427734375" lon="2.76744869537651538848876953125">
        <ele>112.1999969482421875</ele>
        <time>2023-08-19T17:04:43.000Z</time>
        <extensions>
          <ns3:TrackPointExtension>
            <ns3:hr>152</ns3:hr>
            <ns3:cad>83</ns3:cad>
          </ns3:TrackPointExtension>
        </extensions>
      </trkpt>
      <trkpt lat="42.61896542273461818695068359375" lon="2.76743276976048946380615234375">
        <ele>112.1999969482421875</ele>
        <time>2023-08-19T17:04:44.000Z</time>
        <extensions>
          <ns3:TrackPointExtension>
            <ns3:hr>152</ns3:hr>
            <ns3:cad>83</ns3:cad>
          </ns3:TrackPointExtension>
        </extensions>
      </trkpt>
      <trkpt lat="42.61899241246283054351806640625" lon="2.767415754497051239013671875">
        <ele>112.1999969482421875</ele>
        <time>2023-08-19T17:04:45.000Z</time>
        <extensions>
          <ns3:TrackPointExtension>
            <ns3:hr>152</ns3:hr>
            <ns3:cad>83</ns3:cad>
          </ns3:TrackPointExtension>
        </extensions>
      </trkpt>
      <trkpt lat="42.61902191676199436187744140625" lon="2.76739639230072498321533203125">
        <ele>112.1999969482421875</ele>
        <time>2023-08-19T17:04:46.000Z</time>
        <extensions>
          <ns3:TrackPointExtension>
            <ns3:hr>152</ns3:hr>
            <ns3:cad>83</ns3:cad>
          </ns3:TrackPointExtension>
        </extensions>
      </trkpt>
      <trkpt lat="42.6190461404621601104736328125" lon="2.767377533018589019775390625">
        <ele>112</ele>
        <time>2023-08-19T17:04:47.000Z</time>
        <extensions>
          <ns3:TrackPointExtension>
            <ns3:hr>152</ns3:hr>
            <ns3:cad>83</ns3:cad>
          </ns3:TrackPointExtension>
        </extensions>
      </trkpt>
      <trkpt lat="42.6190729625523090362548828125" lon="2.76735842227935791015625">
        <ele>112</ele>
        <time>2023-08-19T17:04:48.000Z</time>
        <extensions>
          <ns3:TrackPointExtension>
            <ns3:hr>152</ns3:hr>
            <ns3:cad>83</ns3:cad>
          </ns3:TrackPointExtension>
        </extensions>
      </trkpt>
      <trkpt lat="42.61910238303244113922119140625" lon="2.7673418261110782623291015625">
        <ele>111.8000030517578125</ele>
        <time>2023-08-19T17:04:49.000Z</time>
        <extensions>
          <ns3:TrackPointExtension>
            <ns3:hr>152</ns3:hr>
            <ns3:cad>83</ns3:cad>
          </ns3:TrackPointExtension>
        </extensions>
      </trkpt>
      <trkpt lat="42.6191256009042263031005859375" lon="2.7673247270286083221435546875">
        <ele>111.8000030517578125</ele>
        <time>2023-08-19T17:04:50.000Z</time>
        <extensions>
          <ns3:TrackPointExtension>
            <ns3:hr>153</ns3:hr>
            <ns3:cad>83</ns3:cad>
          </ns3:TrackPointExtension>
        </extensions>
      </trkpt>
      <trkpt lat="42.61915300972759723663330078125" lon="2.7673061192035675048828125">
        <ele>111.8000030517578125</ele>
        <time>2023-08-19T17:04:51.000Z</time>
        <extensions>
          <ns3:TrackPointExtension>
            <ns3:hr>153</ns3:hr>
            <ns3:cad>83</ns3:cad>
          </ns3:TrackPointExtension>
        </extensions>
      </trkpt>
      <trkpt lat="42.61917681433260440826416015625" lon="2.76729010976850986480712890625">
        <ele>111.8000030517578125</ele>
        <time>2023-08-19T17:04:52.000Z</time>
        <extensions>
          <ns3:TrackPointExtension>
            <ns3:hr>153</ns3:hr>
            <ns3:cad>83</ns3:cad>
          </ns3:TrackPointExtension>
        </extensions>
      </trkpt>
      <trkpt lat="42.6191923208534717559814453125" lon="2.76726513169705867767333984375">
        <ele>111.59999847412109375</ele>
        <time>2023-08-19T17:04:53.000Z</time>
        <extensions>
          <ns3:TrackPointExtension>
            <ns3:hr>153</ns3:hr>
            <ns3:cad>83</ns3:cad>
          </ns3:TrackPointExtension>
        </extensions>
      </trkpt>
      <trkpt lat="42.619213275611400604248046875" lon="2.7672352083027362823486328125">
        <ele>111.59999847412109375</ele>
        <time>2023-08-19T17:04:54.000Z</time>
        <extensions>
          <ns3:TrackPointExtension>
            <ns3:hr>153</ns3:hr>
            <ns3:cad>83</ns3:cad>
          </ns3:TrackPointExtension>
        </extensions>
      </trkpt>
      <trkpt lat="42.61923263780772686004638671875" lon="2.76721115224063396453857421875">
        <ele>111.59999847412109375</ele>
        <time>2023-08-19T17:04:55.000Z</time>
        <extensions>
          <ns3:TrackPointExtension>
            <ns3:hr>153</ns3:hr>
            <ns3:cad>83</ns3:cad>
          </ns3:TrackPointExtension>
        </extensions>
      </trkpt>
      <trkpt lat="42.6192489825189113616943359375" lon="2.76717804372310638427734375">
        <ele>111.40000152587890625</ele>
        <time>2023-08-19T17:04:56.000Z</time>
        <extensions>
          <ns3:TrackPointExtension>
            <ns3:hr>153</ns3:hr>
            <ns3:cad>84</ns3:cad>
          </ns3:TrackPointExtension>
        </extensions>
      </trkpt>
      <trkpt lat="42.6192511618137359619140625" lon="2.76714175008237361907958984375">
        <ele>111.40000152587890625</ele>
        <time>2023-08-19T17:04:57.000Z</time>
        <extensions>
          <ns3:TrackPointExtension>
            <ns3:hr>153</ns3:hr>
            <ns3:cad>84</ns3:cad>
          </ns3:TrackPointExtension>
        </extensions>
      </trkpt>
      <trkpt lat="42.6192409358918666839599609375" lon="2.7671091444790363311767578125">
        <ele>111.1999969482421875</ele>
        <time>2023-08-19T17:04:58.000Z</time>
        <extensions>
          <ns3:TrackPointExtension>
            <ns3:hr>153</ns3:hr>
            <ns3:cad>84</ns3:cad>
          </ns3:TrackPointExtension>
        </extensions>
      </trkpt>
      <trkpt lat="42.6192243397235870361328125" lon="2.76706664822995662689208984375">
        <ele>111.1999969482421875</ele>
        <time>2023-08-19T17:04:59.000Z</time>
        <extensions>
          <ns3:TrackPointExtension>
            <ns3:hr>153</ns3:hr>
            <ns3:cad>84</ns3:cad>
          </ns3:TrackPointExtension>
        </extensions>
      </trkpt>
      <trkpt lat="42.6192074082791805267333984375" lon="2.7670387364923954010009765625">
        <ele>111.1999969482421875</ele>
        <time>2023-08-19T17:05:00.000Z</time>
        <extensions>
          <ns3:TrackPointExtension>
            <ns3:hr>153</ns3:hr>
            <ns3:cad>84</ns3:cad>
          </ns3:TrackPointExtension>
        </extensions>
      </trkpt>
      <trkpt lat="42.61918838135898113250732421875" lon="2.76700126938521862030029296875">
        <ele>111.1999969482421875</ele>
        <time>2023-08-19T17:05:01.000Z</time>
        <extensions>
          <ns3:TrackPointExtension>
            <ns3:hr>153</ns3:hr>
            <ns3:cad>84</ns3:cad>
          </ns3:TrackPointExtension>
        </extensions>
      </trkpt>
      <trkpt lat="42.61917404830455780029296875" lon="2.76696673594415187835693359375">
        <ele>111</ele>
        <time>2023-08-19T17:05:02.000Z</time>
        <extensions>
          <ns3:TrackPointExtension>
            <ns3:hr>153</ns3:hr>
            <ns3:cad>84</ns3:cad>
          </ns3:TrackPointExtension>
        </extensions>
      </trkpt>
      <trkpt lat="42.619161307811737060546875" lon="2.76693438179790973663330078125">
        <ele>111</ele>
        <time>2023-08-19T17:05:03.000Z</time>
        <extensions>
          <ns3:TrackPointExtension>
            <ns3:hr>153</ns3:hr>
            <ns3:cad>84</ns3:cad>
          </ns3:TrackPointExtension>
        </extensions>
      </trkpt>
      <trkpt lat="42.61914881877601146697998046875" lon="2.7669011056423187255859375">
        <ele>111</ele>
        <time>2023-08-19T17:05:04.000Z</time>
        <extensions>
          <ns3:TrackPointExtension>
            <ns3:hr>153</ns3:hr>
            <ns3:cad>83</ns3:cad>
          </ns3:TrackPointExtension>
        </extensions>
      </trkpt>
      <trkpt lat="42.61913725174963474273681640625" lon="2.766865231096744537353515625">
        <ele>111.1999969482421875</ele>
        <time>2023-08-19T17:05:05.000Z</time>
        <extensions>
          <ns3:TrackPointExtension>
            <ns3:hr>153</ns3:hr>
            <ns3:cad>83</ns3:cad>
          </ns3:TrackPointExtension>
        </extensions>
      </trkpt>
      <trkpt lat="42.619127444922924041748046875" lon="2.7668345533311367034912109375">
        <ele>111.1999969482421875</ele>
        <time>2023-08-19T17:05:06.000Z</time>
        <extensions>
          <ns3:TrackPointExtension>
            <ns3:hr>153</ns3:hr>
            <ns3:cad>83</ns3:cad>
          </ns3:TrackPointExtension>
        </extensions>
      </trkpt>
      <trkpt lat="42.61911462061107158660888671875" lon="2.7667993493378162384033203125">
        <ele>111.1999969482421875</ele>
        <time>2023-08-19T17:05:07.000Z</time>
        <extensions>
          <ns3:TrackPointExtension>
            <ns3:hr>153</ns3:hr>
            <ns3:cad>83</ns3:cad>
          </ns3:TrackPointExtension>
        </extensions>
      </trkpt>
      <trkpt lat="42.619101293385028839111328125" lon="2.76676590554416179656982421875">
        <ele>111.1999969482421875</ele>
        <time>2023-08-19T17:05:08.000Z</time>
        <extensions>
          <ns3:TrackPointExtension>
            <ns3:hr>153</ns3:hr>
            <ns3:cad>83</ns3:cad>
          </ns3:TrackPointExtension>
        </extensions>
      </trkpt>
      <trkpt lat="42.61908846907317638397216796875" lon="2.7667302824556827545166015625">
        <ele>111.40000152587890625</ele>
        <time>2023-08-19T17:05:09.000Z</time>
        <extensions>
          <ns3:TrackPointExtension>
            <ns3:hr>153</ns3:hr>
            <ns3:cad>83</ns3:cad>
          </ns3:TrackPointExtension>
        </extensions>
      </trkpt>
      <trkpt lat="42.61907614767551422119140625" lon="2.7666977606713771820068359375">
        <ele>111.59999847412109375</ele>
        <time>2023-08-19T17:05:10.000Z</time>
        <extensions>
          <ns3:TrackPointExtension>
            <ns3:hr>153</ns3:hr>
            <ns3:cad>82</ns3:cad>
          </ns3:TrackPointExtension>
        </extensions>
      </trkpt>
      <trkpt lat="42.61906282044947147369384765625" lon="2.76666574180126190185546875">
        <ele>111.59999847412109375</ele>
        <time>2023-08-19T17:05:11.000Z</time>
        <extensions>
          <ns3:TrackPointExtension>
            <ns3:hr>153</ns3:hr>
            <ns3:cad>82</ns3:cad>
          </ns3:TrackPointExtension>
        </extensions>
      </trkpt>
      <trkpt lat="42.61904924176633358001708984375" lon="2.766627855598926544189453125">
        <ele>111.8000030517578125</ele>
        <time>2023-08-19T17:05:12.000Z</time>
        <extensions>
          <ns3:TrackPointExtension>
            <ns3:hr>153</ns3:hr>
            <ns3:cad>82</ns3:cad>
          </ns3:TrackPointExtension>
        </extensions>
      </trkpt>
      <trkpt lat="42.6190401054918766021728515625" lon="2.76660128496587276458740234375">
        <ele>111.8000030517578125</ele>
        <time>2023-08-19T17:05:13.000Z</time>
        <extensions>
          <ns3:TrackPointExtension>
            <ns3:hr>153</ns3:hr>
            <ns3:cad>83</ns3:cad>
          </ns3:TrackPointExtension>
        </extensions>
      </trkpt>
      <trkpt lat="42.6190258562564849853515625" lon="2.766570188105106353759765625">
        <ele>111.8000030517578125</ele>
        <time>2023-08-19T17:05:14.000Z</time>
        <extensions>
          <ns3:TrackPointExtension>
            <ns3:hr>153</ns3:hr>
            <ns3:cad>83</ns3:cad>
          </ns3:TrackPointExtension>
        </extensions>
      </trkpt>
      <trkpt lat="42.61901185847818851470947265625" lon="2.76653758250176906585693359375">
        <ele>112</ele>
        <time>2023-08-19T17:05:15.000Z</time>
        <extensions>
          <ns3:TrackPointExtension>
            <ns3:hr>153</ns3:hr>
            <ns3:cad>83</ns3:cad>
          </ns3:TrackPointExtension>
        </extensions>
      </trkpt>
      <trkpt lat="42.61899911798536777496337890625" lon="2.766511179506778717041015625">
        <ele>112</ele>
        <time>2023-08-19T17:05:16.000Z</time>
        <extensions>
          <ns3:TrackPointExtension>
            <ns3:hr>153</ns3:hr>
            <ns3:cad>83</ns3:cad>
          </ns3:TrackPointExtension>
        </extensions>
      </trkpt>
      <trkpt lat="42.61898537166416645050048828125" lon="2.766478322446346282958984375">
        <ele>112</ele>
        <time>2023-08-19T17:05:17.000Z</time>
        <extensions>
          <ns3:TrackPointExtension>
            <ns3:hr>153</ns3:hr>
            <ns3:cad>83</ns3:cad>
          </ns3:TrackPointExtension>
        </extensions>
      </trkpt>
      <trkpt lat="42.61897397227585315704345703125" lon="2.766449153423309326171875">
        <ele>112.1999969482421875</ele>
        <time>2023-08-19T17:05:18.000Z</time>
        <extensions>
          <ns3:TrackPointExtension>
            <ns3:hr>153</ns3:hr>
            <ns3:cad>83</ns3:cad>
          </ns3:TrackPointExtension>
        </extensions>
      </trkpt>
      <trkpt lat="42.618961818516254425048828125" lon="2.76642375625669956207275390625">
        <ele>112.1999969482421875</ele>
        <time>2023-08-19T17:05:19.000Z</time>
        <extensions>
          <ns3:TrackPointExtension>
            <ns3:hr>153</ns3:hr>
            <ns3:cad>83</ns3:cad>
          </ns3:TrackPointExtension>
        </extensions>
      </trkpt>
      <trkpt lat="42.61894832365214824676513671875" lon="2.7663916535675525665283203125">
        <ele>112.1999969482421875</ele>
        <time>2023-08-19T17:05:20.000Z</time>
        <extensions>
          <ns3:TrackPointExtension>
            <ns3:hr>153</ns3:hr>
            <ns3:cad>83</ns3:cad>
          </ns3:TrackPointExtension>
        </extensions>
      </trkpt>
      <trkpt lat="42.61893399059772491455078125" lon="2.7663591317832469940185546875">
        <ele>112.1999969482421875</ele>
        <time>2023-08-19T17:05:21.000Z</time>
        <extensions>
          <ns3:TrackPointExtension>
            <ns3:hr>153</ns3:hr>
            <ns3:cad>83</ns3:cad>
          </ns3:TrackPointExtension>
        </extensions>
      </trkpt>
      <trkpt lat="42.61891798116266727447509765625" lon="2.766325771808624267578125">
        <ele>112.1999969482421875</ele>
        <time>2023-08-19T17:05:22.000Z</time>
        <extensions>
          <ns3:TrackPointExtension>
            <ns3:hr>153</ns3:hr>
            <ns3:cad>83</ns3:cad>
          </ns3:TrackPointExtension>
        </extensions>
      </trkpt>
      <trkpt lat="42.6189033128321170806884765625" lon="2.76629148982465267181396484375">
        <ele>112.1999969482421875</ele>
        <time>2023-08-19T17:05:23.000Z</time>
        <extensions>
          <ns3:TrackPointExtension>
            <ns3:hr>153</ns3:hr>
            <ns3:cad>83</ns3:cad>
          </ns3:TrackPointExtension>
        </extensions>
      </trkpt>
      <trkpt lat="42.61888797394931316375732421875" lon="2.76626408100128173828125">
        <ele>112.1999969482421875</ele>
        <time>2023-08-19T17:05:24.000Z</time>
        <extensions>
          <ns3:TrackPointExtension>
            <ns3:hr>152</ns3:hr>
            <ns3:cad>83</ns3:cad>
          </ns3:TrackPointExtension>
        </extensions>
      </trkpt>
      <trkpt lat="42.61887204833328723907470703125" lon="2.7662347443401813507080078125">
        <ele>112.1999969482421875</ele>
        <time>2023-08-19T17:05:25.000Z</time>
        <extensions>
          <ns3:TrackPointExtension>
            <ns3:hr>152</ns3:hr>
            <ns3:cad>83</ns3:cad>
          </ns3:TrackPointExtension>
        </extensions>
      </trkpt>
      <trkpt lat="42.61885645799338817596435546875" lon="2.76620264165103435516357421875">
        <ele>112.1999969482421875</ele>
        <time>2023-08-19T17:05:26.000Z</time>
        <extensions>
          <ns3:TrackPointExtension>
            <ns3:hr>152</ns3:hr>
            <ns3:cad>83</ns3:cad>
          </ns3:TrackPointExtension>
        </extensions>
      </trkpt>
      <trkpt lat="42.618837766349315643310546875" lon="2.7661733888089656829833984375">
        <ele>112.1999969482421875</ele>
        <time>2023-08-19T17:05:27.000Z</time>
        <extensions>
          <ns3:TrackPointExtension>
            <ns3:hr>152</ns3:hr>
            <ns3:cad>83</ns3:cad>
          </ns3:TrackPointExtension>
        </extensions>
      </trkpt>
      <trkpt lat="42.61881924234330654144287109375" lon="2.766139693558216094970703125">
        <ele>112</ele>
        <time>2023-08-19T17:05:28.000Z</time>
        <extensions>
          <ns3:TrackPointExtension>
            <ns3:hr>152</ns3:hr>
            <ns3:cad>83</ns3:cad>
          </ns3:TrackPointExtension>
        </extensions>
      </trkpt>
      <trkpt lat="42.61880398727953433990478515625" lon="2.76611329056322574615478515625">
        <ele>112</ele>
        <time>2023-08-19T17:05:29.000Z</time>
        <extensions>
          <ns3:TrackPointExtension>
            <ns3:hr>152</ns3:hr>
            <ns3:cad>83</ns3:cad>
          </ns3:TrackPointExtension>
        </extensions>
      </trkpt>
      <trkpt lat="42.61878646910190582275390625" lon="2.7660801820456981658935546875">
        <ele>112</ele>
        <time>2023-08-19T17:05:30.000Z</time>
        <extensions>
          <ns3:TrackPointExtension>
            <ns3:hr>152</ns3:hr>
            <ns3:cad>83</ns3:cad>
          </ns3:TrackPointExtension>
        </extensions>
      </trkpt>
      <trkpt lat="42.6187688671052455902099609375" lon="2.76604690589010715484619140625">
        <ele>112</ele>
        <time>2023-08-19T17:05:31.000Z</time>
        <extensions>
          <ns3:TrackPointExtension>
            <ns3:hr>152</ns3:hr>
            <ns3:cad>83</ns3:cad>
          </ns3:TrackPointExtension>
        </extensions>
      </trkpt>
      <trkpt lat="42.6187494210898876190185546875" lon="2.76601706631481647491455078125">
        <ele>112</ele>
        <time>2023-08-19T17:05:32.000Z</time>
        <extensions>
          <ns3:TrackPointExtension>
            <ns3:hr>152</ns3:hr>
            <ns3:cad>83</ns3:cad>
          </ns3:TrackPointExtension>
        </extensions>
      </trkpt>
      <trkpt lat="42.618729136884212493896484375" lon="2.76598714292049407958984375">
        <ele>112</ele>
        <time>2023-08-19T17:05:33.000Z</time>
        <extensions>
          <ns3:TrackPointExtension>
            <ns3:hr>151</ns3:hr>
            <ns3:cad>83</ns3:cad>
          </ns3:TrackPointExtension>
        </extensions>
      </trkpt>
      <trkpt lat="42.618709020316600799560546875" lon="2.76595487259328365325927734375">
        <ele>112</ele>
        <time>2023-08-19T17:05:34.000Z</time>
        <extensions>
          <ns3:TrackPointExtension>
            <ns3:hr>151</ns3:hr>
            <ns3:cad>82</ns3:cad>
          </ns3:TrackPointExtension>
        </extensions>
      </trkpt>
      <trkpt lat="42.6186873950064182281494140625" lon="2.76592721231281757354736328125">
        <ele>111.8000030517578125</ele>
        <time>2023-08-19T17:05:35.000Z</time>
        <extensions>
          <ns3:TrackPointExtension>
            <ns3:hr>151</ns3:hr>
            <ns3:cad>82</ns3:cad>
          </ns3:TrackPointExtension>
        </extensions>
      </trkpt>
      <trkpt lat="42.618665434420108795166015625" lon="2.76589787565171718597412109375">
        <ele>111.8000030517578125</ele>
        <time>2023-08-19T17:05:36.000Z</time>
        <extensions>
          <ns3:TrackPointExtension>
            <ns3:hr>151</ns3:hr>
            <ns3:cad>82</ns3:cad>
          </ns3:TrackPointExtension>
        </extensions>
      </trkpt>
      <trkpt lat="42.61864758096635341644287109375" lon="2.7658739872276782989501953125">
        <ele>111.59999847412109375</ele>
        <time>2023-08-19T17:05:37.000Z</time>
        <extensions>
          <ns3:TrackPointExtension>
            <ns3:hr>151</ns3:hr>
            <ns3:cad>82</ns3:cad>
          </ns3:TrackPointExtension>
        </extensions>
      </trkpt>
      <trkpt lat="42.61862528510391712188720703125" lon="2.76584674604237079620361328125">
        <ele>111.59999847412109375</ele>
        <time>2023-08-19T17:05:38.000Z</time>
        <extensions>
          <ns3:TrackPointExtension>
            <ns3:hr>151</ns3:hr>
            <ns3:cad>82</ns3:cad>
          </ns3:TrackPointExtension>
        </extensions>
      </trkpt>
      <trkpt lat="42.61860407888889312744140625" lon="2.765819169580936431884765625">
        <ele>111.40000152587890625</ele>
        <time>2023-08-19T17:05:39.000Z</time>
        <extensions>
          <ns3:TrackPointExtension>
            <ns3:hr>151</ns3:hr>
            <ns3:cad>83</ns3:cad>
          </ns3:TrackPointExtension>
        </extensions>
      </trkpt>
      <trkpt lat="42.61858530342578887939453125" lon="2.76579913683235645294189453125">
        <ele>111.40000152587890625</ele>
        <time>2023-08-19T17:05:40.000Z</time>
        <extensions>
          <ns3:TrackPointExtension>
            <ns3:hr>151</ns3:hr>
            <ns3:cad>82</ns3:cad>
          </ns3:TrackPointExtension>
        </extensions>
      </trkpt>
      <trkpt lat="42.61856359429657459259033203125" lon="2.76577281765639781951904296875">
        <ele>111.40000152587890625</ele>
        <time>2023-08-19T17:05:41.000Z</time>
        <extensions>
          <ns3:TrackPointExtension>
            <ns3:hr>151</ns3:hr>
            <ns3:cad>82</ns3:cad>
          </ns3:TrackPointExtension>
        </extensions>
      </trkpt>
      <trkpt lat="42.61854238808155059814453125" lon="2.76574574410915374755859375">
        <ele>111.1999969482421875</ele>
        <time>2023-08-19T17:05:42.000Z</time>
        <extensions>
          <ns3:TrackPointExtension>
            <ns3:hr>152</ns3:hr>
            <ns3:cad>83</ns3:cad>
          </ns3:TrackPointExtension>
        </extensions>
      </trkpt>
      <trkpt lat="42.6185187511146068572998046875" lon="2.76572001166641712188720703125">
        <ele>111</ele>
        <time>2023-08-19T17:05:43.000Z</time>
        <extensions>
          <ns3:TrackPointExtension>
            <ns3:hr>152</ns3:hr>
            <ns3:cad>83</ns3:cad>
          </ns3:TrackPointExtension>
        </extensions>
      </trkpt>
      <trkpt lat="42.6184972934424877166748046875" lon="2.76569687761366367340087890625">
        <ele>111</ele>
        <time>2023-08-19T17:05:44.000Z</time>
        <extensions>
          <ns3:TrackPointExtension>
            <ns3:hr>152</ns3:hr>
            <ns3:cad>83</ns3:cad>
          </ns3:TrackPointExtension>
        </extensions>
      </trkpt>
      <trkpt lat="42.61847742833197116851806640625" lon="2.76568011380732059478759765625">
        <ele>111</ele>
        <time>2023-08-19T17:05:45.000Z</time>
        <extensions>
          <ns3:TrackPointExtension>
            <ns3:hr>152</ns3:hr>
            <ns3:cad>83</ns3:cad>
          </ns3:TrackPointExtension>
        </extensions>
      </trkpt>
      <trkpt lat="42.61845714412629604339599609375" lon="2.76565949432551860809326171875">
        <ele>111</ele>
        <time>2023-08-19T17:05:46.000Z</time>
        <extensions>
          <ns3:TrackPointExtension>
            <ns3:hr>152</ns3:hr>
            <ns3:cad>83</ns3:cad>
          </ns3:TrackPointExtension>
        </extensions>
      </trkpt>
      <trkpt lat="42.61843652464449405670166015625" lon="2.76563501916825771331787109375">
        <ele>110.8000030517578125</ele>
        <time>2023-08-19T17:05:47.000Z</time>
        <extensions>
          <ns3:TrackPointExtension>
            <ns3:hr>152</ns3:hr>
            <ns3:cad>82</ns3:cad>
          </ns3:TrackPointExtension>
        </extensions>
      </trkpt>
      <trkpt lat="42.6184151507914066314697265625" lon="2.76561523787677288055419921875">
        <ele>110.8000030517578125</ele>
        <time>2023-08-19T17:05:48.000Z</time>
        <extensions>
          <ns3:TrackPointExtension>
            <ns3:hr>152</ns3:hr>
            <ns3:cad>82</ns3:cad>
          </ns3:TrackPointExtension>
        </extensions>
      </trkpt>
      <trkpt lat="42.6183910109102725982666015625" lon="2.76559176854789257049560546875">
        <ele>110.8000030517578125</ele>
        <time>2023-08-19T17:05:49.000Z</time>
        <extensions>
          <ns3:TrackPointExtension>
            <ns3:hr>152</ns3:hr>
            <ns3:cad>82</ns3:cad>
          </ns3:TrackPointExtension>
        </extensions>
      </trkpt>
      <trkpt lat="42.61837164871394634246826171875" lon="2.7655692212283611297607421875">
        <ele>110.59999847412109375</ele>
        <time>2023-08-19T17:05:50.000Z</time>
        <extensions>
          <ns3:TrackPointExtension>
            <ns3:hr>152</ns3:hr>
            <ns3:cad>83</ns3:cad>
          </ns3:TrackPointExtension>
        </extensions>
      </trkpt>
      <trkpt lat="42.61835354380309581756591796875" lon="2.76554382406175136566162109375">
        <ele>110.40000152587890625</ele>
        <time>2023-08-19T17:05:51.000Z</time>
        <extensions>
          <ns3:TrackPointExtension>
            <ns3:hr>153</ns3:hr>
            <ns3:cad>84</ns3:cad>
          </ns3:TrackPointExtension>
        </extensions>
      </trkpt>
      <trkpt lat="42.61833610944449901580810546875" lon="2.7655159123241901397705078125">
        <ele>110.1999969482421875</ele>
        <time>2023-08-19T17:05:52.000Z</time>
        <extensions>
          <ns3:TrackPointExtension>
            <ns3:hr>153</ns3:hr>
            <ns3:cad>84</ns3:cad>
          </ns3:TrackPointExtension>
        </extensions>
      </trkpt>
      <trkpt lat="42.6183169148862361907958984375" lon="2.76548749767243862152099609375">
        <ele>110</ele>
        <time>2023-08-19T17:05:53.000Z</time>
        <extensions>
          <ns3:TrackPointExtension>
            <ns3:hr>153</ns3:hr>
            <ns3:cad>84</ns3:cad>
          </ns3:TrackPointExtension>
        </extensions>
      </trkpt>
      <trkpt lat="42.61830140836536884307861328125" lon="2.76545472443103790283203125">
        <ele>110</ele>
        <time>2023-08-19T17:05:54.000Z</time>
        <extensions>
          <ns3:TrackPointExtension>
            <ns3:hr>153</ns3:hr>
            <ns3:cad>84</ns3:cad>
          </ns3:TrackPointExtension>
        </extensions>
      </trkpt>
      <trkpt lat="42.61828514747321605682373046875" lon="2.7654253877699375152587890625">
        <ele>110</ele>
        <time>2023-08-19T17:05:55.000Z</time>
        <extensions>
          <ns3:TrackPointExtension>
            <ns3:hr>153</ns3:hr>
            <ns3:cad>84</ns3:cad>
          </ns3:TrackPointExtension>
        </extensions>
      </trkpt>
      <trkpt lat="42.61826804839074611663818359375" lon="2.765389345586299896240234375">
        <ele>110</ele>
        <time>2023-08-19T17:05:56.000Z</time>
        <extensions>
          <ns3:TrackPointExtension>
            <ns3:hr>152</ns3:hr>
            <ns3:cad>85</ns3:cad>
          </ns3:TrackPointExtension>
        </extensions>
      </trkpt>
      <trkpt lat="42.61825430206954479217529296875" lon="2.76535439305007457733154296875">
        <ele>110.1999969482421875</ele>
        <time>2023-08-19T17:05:57.000Z</time>
        <extensions>
          <ns3:TrackPointExtension>
            <ns3:hr>152</ns3:hr>
            <ns3:cad>85</ns3:cad>
          </ns3:TrackPointExtension>
        </extensions>
      </trkpt>
      <trkpt lat="42.61824256740510463714599609375" lon="2.76532086543738842010498046875">
        <ele>110.1999969482421875</ele>
        <time>2023-08-19T17:05:58.000Z</time>
        <extensions>
          <ns3:TrackPointExtension>
            <ns3:hr>152</ns3:hr>
            <ns3:cad>84</ns3:cad>
          </ns3:TrackPointExtension>
        </extensions>
      </trkpt>
      <trkpt lat="42.61823393404483795166015625" lon="2.765284739434719085693359375">
        <ele>110.1999969482421875</ele>
        <time>2023-08-19T17:05:59.000Z</time>
        <extensions>
          <ns3:TrackPointExtension>
            <ns3:hr>152</ns3:hr>
            <ns3:cad>84</ns3:cad>
          </ns3:TrackPointExtension>
        </extensions>
      </trkpt>
      <trkpt lat="42.6182237081229686737060546875" lon="2.76525246910750865936279296875">
        <ele>110.40000152587890625</ele>
        <time>2023-08-19T17:06:00.000Z</time>
        <extensions>
          <ns3:TrackPointExtension>
            <ns3:hr>152</ns3:hr>
            <ns3:cad>84</ns3:cad>
          </ns3:TrackPointExtension>
        </extensions>
      </trkpt>
      <trkpt lat="42.6182156614959239959716796875" lon="2.76521324180066585540771484375">
        <ele>110.40000152587890625</ele>
        <time>2023-08-19T17:06:01.000Z</time>
        <extensions>
          <ns3:TrackPointExtension>
            <ns3:hr>152</ns3:hr>
            <ns3:cad>84</ns3:cad>
          </ns3:TrackPointExtension>
        </extensions>
      </trkpt>
      <trkpt lat="42.6182086206972599029541015625" lon="2.76517921127378940582275390625">
        <ele>110.59999847412109375</ele>
        <time>2023-08-19T17:06:02.000Z</time>
        <extensions>
          <ns3:TrackPointExtension>
            <ns3:hr>152</ns3:hr>
            <ns3:cad>84</ns3:cad>
          </ns3:TrackPointExtension>
        </extensions>
      </trkpt>
      <trkpt lat="42.61819965206086635589599609375" lon="2.76514492928981781005859375">
        <ele>110.59999847412109375</ele>
        <time>2023-08-19T17:06:03.000Z</time>
        <extensions>
          <ns3:TrackPointExtension>
            <ns3:hr>152</ns3:hr>
            <ns3:cad>84</ns3:cad>
          </ns3:TrackPointExtension>
        </extensions>
      </trkpt>
      <trkpt lat="42.6181921921670436859130859375" lon="2.76511006057262420654296875">
        <ele>110.8000030517578125</ele>
        <time>2023-08-19T17:06:04.000Z</time>
        <extensions>
          <ns3:TrackPointExtension>
            <ns3:hr>151</ns3:hr>
            <ns3:cad>83</ns3:cad>
          </ns3:TrackPointExtension>
        </extensions>
      </trkpt>
      <trkpt lat="42.6181838102638721466064453125" lon="2.76507309637963771820068359375">
        <ele>110.8000030517578125</ele>
        <time>2023-08-19T17:06:05.000Z</time>
        <extensions>
          <ns3:TrackPointExtension>
            <ns3:hr>151</ns3:hr>
            <ns3:cad>83</ns3:cad>
          </ns3:TrackPointExtension>
        </extensions>
      </trkpt>
      <trkpt lat="42.61817626655101776123046875" lon="2.7650378085672855377197265625">
        <ele>110.8000030517578125</ele>
        <time>2023-08-19T17:06:06.000Z</time>
        <extensions>
          <ns3:TrackPointExtension>
            <ns3:hr>151</ns3:hr>
            <ns3:cad>83</ns3:cad>
          </ns3:TrackPointExtension>
        </extensions>
      </trkpt>
      <trkpt lat="42.61817031539976596832275390625" lon="2.76500503532588481903076171875">
        <ele>111</ele>
        <time>2023-08-19T17:06:07.000Z</time>
        <extensions>
          <ns3:TrackPointExtension>
            <ns3:hr>151</ns3:hr>
            <ns3:cad>83</ns3:cad>
          </ns3:TrackPointExtension>
        </extensions>
      </trkpt>
      <trkpt lat="42.6181626878678798675537109375" lon="2.7649731002748012542724609375">
        <ele>111.1999969482421875</ele>
        <time>2023-08-19T17:06:08.000Z</time>
        <extensions>
          <ns3:TrackPointExtension>
            <ns3:hr>151</ns3:hr>
            <ns3:cad>83</ns3:cad>
          </ns3:TrackPointExtension>
        </extensions>
      </trkpt>
      <trkpt lat="42.61815673671662807464599609375" lon="2.76493429206311702728271484375">
        <ele>111.1999969482421875</ele>
        <time>2023-08-19T17:06:09.000Z</time>
        <extensions>
          <ns3:TrackPointExtension>
            <ns3:hr>152</ns3:hr>
            <ns3:cad>83</ns3:cad>
          </ns3:TrackPointExtension>
        </extensions>
      </trkpt>
      <trkpt lat="42.61815120466053485870361328125" lon="2.7649026922881603240966796875">
        <ele>111.1999969482421875</ele>
        <time>2023-08-19T17:06:10.000Z</time>
        <extensions>
          <ns3:TrackPointExtension>
            <ns3:hr>152</ns3:hr>
            <ns3:cad>83</ns3:cad>
          </ns3:TrackPointExtension>
        </extensions>
      </trkpt>
      <trkpt lat="42.61814500205218791961669921875" lon="2.76486924849450588226318359375">
        <ele>111.1999969482421875</ele>
        <time>2023-08-19T17:06:11.000Z</time>
        <extensions>
          <ns3:TrackPointExtension>
            <ns3:hr>152</ns3:hr>
            <ns3:cad>83</ns3:cad>
          </ns3:TrackPointExtension>
        </extensions>
      </trkpt>
      <trkpt lat="42.6181398890912532806396484375" lon="2.76482800953090190887451171875">
        <ele>111.1999969482421875</ele>
        <time>2023-08-19T17:06:12.000Z</time>
        <extensions>
          <ns3:TrackPointExtension>
            <ns3:hr>152</ns3:hr>
            <ns3:cad>83</ns3:cad>
          </ns3:TrackPointExtension>
        </extensions>
      </trkpt>
      <trkpt lat="42.61813343502581119537353515625" lon="2.76479330845177173614501953125">
        <ele>111.40000152587890625</ele>
        <time>2023-08-19T17:06:13.000Z</time>
        <extensions>
          <ns3:TrackPointExtension>
            <ns3:hr>152</ns3:hr>
            <ns3:cad>83</ns3:cad>
          </ns3:TrackPointExtension>
        </extensions>
      </trkpt>
      <trkpt lat="42.61812522076070308685302734375" lon="2.7647605352103710174560546875">
        <ele>111.40000152587890625</ele>
        <time>2023-08-19T17:06:14.000Z</time>
        <extensions>
          <ns3:TrackPointExtension>
            <ns3:hr>152</ns3:hr>
            <ns3:cad>83</ns3:cad>
          </ns3:TrackPointExtension>
        </extensions>
      </trkpt>
      <trkpt lat="42.61811197735369205474853515625" lon="2.7647365629673004150390625">
        <ele>111.59999847412109375</ele>
        <time>2023-08-19T17:06:15.000Z</time>
        <extensions>
          <ns3:TrackPointExtension>
            <ns3:hr>151</ns3:hr>
            <ns3:cad>83</ns3:cad>
          </ns3:TrackPointExtension>
        </extensions>
      </trkpt>
      <trkpt lat="42.618093453347682952880859375" lon="2.7647156082093715667724609375">
        <ele>111.59999847412109375</ele>
        <time>2023-08-19T17:06:16.000Z</time>
        <extensions>
          <ns3:TrackPointExtension>
            <ns3:hr>151</ns3:hr>
            <ns3:cad>84</ns3:cad>
          </ns3:TrackPointExtension>
        </extensions>
      </trkpt>
      <trkpt lat="42.6180708222091197967529296875" lon="2.76469205506145954132080078125">
        <ele>111.59999847412109375</ele>
        <time>2023-08-19T17:06:17.000Z</time>
        <extensions>
          <ns3:TrackPointExtension>
            <ns3:hr>151</ns3:hr>
            <ns3:cad>84</ns3:cad>
          </ns3:TrackPointExtension>
        </extensions>
      </trkpt>
      <trkpt lat="42.61804810725152492523193359375" lon="2.76467713527381420135498046875">
        <ele>111.59999847412109375</ele>
        <time>2023-08-19T17:06:18.000Z</time>
        <extensions>
          <ns3:TrackPointExtension>
            <ns3:hr>151</ns3:hr>
            <ns3:cad>84</ns3:cad>
          </ns3:TrackPointExtension>
        </extensions>
      </trkpt>
      <trkpt lat="42.618020363152027130126953125" lon="2.76465819217264652252197265625">
        <ele>111.59999847412109375</ele>
        <time>2023-08-19T17:06:19.000Z</time>
        <extensions>
          <ns3:TrackPointExtension>
            <ns3:hr>151</ns3:hr>
            <ns3:cad>84</ns3:cad>
          </ns3:TrackPointExtension>
        </extensions>
      </trkpt>
      <trkpt lat="42.61799714528024196624755859375" lon="2.76464142836630344390869140625">
        <ele>111.8000030517578125</ele>
        <time>2023-08-19T17:06:20.000Z</time>
        <extensions>
          <ns3:TrackPointExtension>
            <ns3:hr>151</ns3:hr>
            <ns3:cad>84</ns3:cad>
          </ns3:TrackPointExtension>
        </extensions>
      </trkpt>
      <trkpt lat="42.61796973645687103271484375" lon="2.76462265290319919586181640625">
        <ele>112</ele>
        <time>2023-08-19T17:06:21.000Z</time>
        <extensions>
          <ns3:TrackPointExtension>
            <ns3:hr>151</ns3:hr>
            <ns3:cad>84</ns3:cad>
          </ns3:TrackPointExtension>
        </extensions>
      </trkpt>
      <trkpt lat="42.61794702149927616119384765625" lon="2.76460806839168071746826171875">
        <ele>112</ele>
        <time>2023-08-19T17:06:22.000Z</time>
        <extensions>
          <ns3:TrackPointExtension>
            <ns3:hr>152</ns3:hr>
            <ns3:cad>84</ns3:cad>
          </ns3:TrackPointExtension>
        </extensions>
      </trkpt>
      <trkpt lat="42.6179256476461887359619140625" lon="2.764600105583667755126953125">
        <ele>112</ele>
        <time>2023-08-19T17:06:23.000Z</time>
        <extensions>
          <ns3:TrackPointExtension>
            <ns3:hr>151</ns3:hr>
            <ns3:cad>84</ns3:cad>
          </ns3:TrackPointExtension>
        </extensions>
      </trkpt>
      <trkpt lat="42.6178971491754055023193359375" lon="2.76458510197699069976806640625">
        <ele>112.1999969482421875</ele>
        <time>2023-08-19T17:06:24.000Z</time>
        <extensions>
          <ns3:TrackPointExtension>
            <ns3:hr>152</ns3:hr>
            <ns3:cad>84</ns3:cad>
          </ns3:TrackPointExtension>
        </extensions>
      </trkpt>
      <trkpt lat="42.61787585914134979248046875" lon="2.76457487605512142181396484375">
        <ele>112.1999969482421875</ele>
        <time>2023-08-19T17:06:25.000Z</time>
        <extensions>
          <ns3:TrackPointExtension>
            <ns3:hr>152</ns3:hr>
            <ns3:cad>84</ns3:cad>
          </ns3:TrackPointExtension>
        </extensions>
      </trkpt>
      <trkpt lat="42.61785029433667659759521484375" lon="2.764566242694854736328125">
        <ele>112.1999969482421875</ele>
        <time>2023-08-19T17:06:26.000Z</time>
        <extensions>
          <ns3:TrackPointExtension>
            <ns3:hr>152</ns3:hr>
            <ns3:cad>84</ns3:cad>
          </ns3:TrackPointExtension>
        </extensions>
      </trkpt>
      <trkpt lat="42.6178274117410182952880859375" lon="2.76456029154360294342041015625">
        <ele>112.40000152587890625</ele>
        <time>2023-08-19T17:06:27.000Z</time>
        <extensions>
          <ns3:TrackPointExtension>
            <ns3:hr>152</ns3:hr>
            <ns3:cad>84</ns3:cad>
          </ns3:TrackPointExtension>
        </extensions>
      </trkpt>
      <trkpt lat="42.61780075728893280029296875" lon="2.76455760933458805084228515625">
        <ele>112.40000152587890625</ele>
        <time>2023-08-19T17:06:28.000Z</time>
        <extensions>
          <ns3:TrackPointExtension>
            <ns3:hr>152</ns3:hr>
            <ns3:cad>84</ns3:cad>
          </ns3:TrackPointExtension>
        </extensions>
      </trkpt>
      <trkpt lat="42.6177700795233249664306640625" lon="2.7645513229072093963623046875">
        <ele>112.40000152587890625</ele>
        <time>2023-08-19T17:06:29.000Z</time>
        <extensions>
          <ns3:TrackPointExtension>
            <ns3:hr>152</ns3:hr>
            <ns3:cad>84</ns3:cad>
          </ns3:TrackPointExtension>
        </extensions>
      </trkpt>
      <trkpt lat="42.61774501763284206390380859375" lon="2.7645472995936870574951171875">
        <ele>112.40000152587890625</ele>
        <time>2023-08-19T17:06:30.000Z</time>
        <extensions>
          <ns3:TrackPointExtension>
            <ns3:hr>152</ns3:hr>
            <ns3:cad>84</ns3:cad>
          </ns3:TrackPointExtension>
        </extensions>
      </trkpt>
      <trkpt lat="42.61772020719945430755615234375" lon="2.76454537175595760345458984375">
        <ele>112.40000152587890625</ele>
        <time>2023-08-19T17:06:31.000Z</time>
        <extensions>
          <ns3:TrackPointExtension>
            <ns3:hr>153</ns3:hr>
            <ns3:cad>84</ns3:cad>
          </ns3:TrackPointExtension>
        </extensions>
      </trkpt>
      <trkpt lat="42.617693804204463958740234375" lon="2.76454553939402103424072265625">
        <ele>112.59999847412109375</ele>
        <time>2023-08-19T17:06:32.000Z</time>
        <extensions>
          <ns3:TrackPointExtension>
            <ns3:hr>153</ns3:hr>
            <ns3:cad>84</ns3:cad>
          </ns3:TrackPointExtension>
        </extensions>
      </trkpt>
      <trkpt lat="42.61767058633267879486083984375" lon="2.76454755105078220367431640625">
        <ele>112.8000030517578125</ele>
        <time>2023-08-19T17:06:33.000Z</time>
        <extensions>
          <ns3:TrackPointExtension>
            <ns3:hr>153</ns3:hr>
            <ns3:cad>84</ns3:cad>
          </ns3:TrackPointExtension>
        </extensions>
      </trkpt>
      <trkpt lat="42.6176463626325130462646484375" lon="2.76454419828951358795166015625">
        <ele>113</ele>
        <time>2023-08-19T17:06:34.000Z</time>
        <extensions>
          <ns3:TrackPointExtension>
            <ns3:hr>153</ns3:hr>
            <ns3:cad>84</ns3:cad>
          </ns3:TrackPointExtension>
        </extensions>
      </trkpt>
      <trkpt lat="42.61762431822717189788818359375" lon="2.76454185135662555694580078125">
        <ele>113.1999969482421875</ele>
        <time>2023-08-19T17:06:35.000Z</time>
        <extensions>
          <ns3:TrackPointExtension>
            <ns3:hr>153</ns3:hr>
            <ns3:cad>84</ns3:cad>
          </ns3:TrackPointExtension>
        </extensions>
      </trkpt>
      <trkpt lat="42.61759766377508640289306640625" lon="2.76453916914761066436767578125">
        <ele>113.40000152587890625</ele>
        <time>2023-08-19T17:06:36.000Z</time>
        <extensions>
          <ns3:TrackPointExtension>
            <ns3:hr>153</ns3:hr>
            <ns3:cad>85</ns3:cad>
          </ns3:TrackPointExtension>
        </extensions>
      </trkpt>
      <trkpt lat="42.617567740380764007568359375" lon="2.764539420604705810546875">
        <ele>113.40000152587890625</ele>
        <time>2023-08-19T17:06:37.000Z</time>
        <extensions>
          <ns3:TrackPointExtension>
            <ns3:hr>154</ns3:hr>
            <ns3:cad>85</ns3:cad>
          </ns3:TrackPointExtension>
        </extensions>
      </trkpt>
      <trkpt lat="42.6175387389957904815673828125" lon="2.76454369537532329559326171875">
        <ele>113.8000030517578125</ele>
        <time>2023-08-19T17:06:38.000Z</time>
        <extensions>
          <ns3:TrackPointExtension>
            <ns3:hr>154</ns3:hr>
            <ns3:cad>84</ns3:cad>
          </ns3:TrackPointExtension>
        </extensions>
      </trkpt>
      <trkpt lat="42.61750747449696063995361328125" lon="2.7645446173846721649169921875">
        <ele>114</ele>
        <time>2023-08-19T17:06:39.000Z</time>
        <extensions>
          <ns3:TrackPointExtension>
            <ns3:hr>154</ns3:hr>
            <ns3:cad>84</ns3:cad>
          </ns3:TrackPointExtension>
        </extensions>
      </trkpt>
      <trkpt lat="42.61749154888093471527099609375" lon="2.76454956270754337310791015625">
        <ele>114.1999969482421875</ele>
        <time>2023-08-19T17:06:40.000Z</time>
        <extensions>
          <ns3:TrackPointExtension>
            <ns3:hr>155</ns3:hr>
            <ns3:cad>84</ns3:cad>
          </ns3:TrackPointExtension>
        </extensions>
      </trkpt>
      <trkpt lat="42.6174646429717540740966796875" lon="2.76455081999301910400390625">
        <ele>114.1999969482421875</ele>
        <time>2023-08-19T17:06:41.000Z</time>
        <extensions>
          <ns3:TrackPointExtension>
            <ns3:hr>155</ns3:hr>
            <ns3:cad>84</ns3:cad>
          </ns3:TrackPointExtension>
        </extensions>
      </trkpt>
      <trkpt lat="42.61744075454771518707275390625" lon="2.76454956270754337310791015625">
        <ele>114.40000152587890625</ele>
        <time>2023-08-19T17:06:42.000Z</time>
        <extensions>
          <ns3:TrackPointExtension>
            <ns3:hr>155</ns3:hr>
            <ns3:cad>84</ns3:cad>
          </ns3:TrackPointExtension>
        </extensions>
      </trkpt>
      <trkpt lat="42.61741644702851772308349609375" lon="2.7645516581833362579345703125">
        <ele>114.8000030517578125</ele>
        <time>2023-08-19T17:06:43.000Z</time>
        <extensions>
          <ns3:TrackPointExtension>
            <ns3:hr>156</ns3:hr>
            <ns3:cad>84</ns3:cad>
          </ns3:TrackPointExtension>
        </extensions>
      </trkpt>
      <trkpt lat="42.6173908822238445281982421875" lon="2.76454947888851165771484375">
        <ele>115.1999969482421875</ele>
        <time>2023-08-19T17:06:44.000Z</time>
        <extensions>
          <ns3:TrackPointExtension>
            <ns3:hr>156</ns3:hr>
            <ns3:cad>84</ns3:cad>
          </ns3:TrackPointExtension>
        </extensions>
      </trkpt>
      <trkpt lat="42.6173664070665836334228515625" lon="2.7645536698400974273681640625">
        <ele>115.40000152587890625</ele>
        <time>2023-08-19T17:06:45.000Z</time>
        <extensions>
          <ns3:TrackPointExtension>
            <ns3:hr>156</ns3:hr>
            <ns3:cad>84</ns3:cad>
          </ns3:TrackPointExtension>
        </extensions>
      </trkpt>
      <trkpt lat="42.6173399202525615692138671875" lon="2.76455593295395374298095703125">
        <ele>115.40000152587890625</ele>
        <time>2023-08-19T17:06:46.000Z</time>
        <extensions>
          <ns3:TrackPointExtension>
            <ns3:hr>156</ns3:hr>
            <ns3:cad>84</ns3:cad>
          </ns3:TrackPointExtension>
        </extensions>
      </trkpt>
      <trkpt lat="42.6173167861998081207275390625" lon="2.76455140672624111175537109375">
        <ele>115.59999847412109375</ele>
        <time>2023-08-19T17:06:47.000Z</time>
        <extensions>
          <ns3:TrackPointExtension>
            <ns3:hr>157</ns3:hr>
            <ns3:cad>83</ns3:cad>
          </ns3:TrackPointExtension>
        </extensions>
      </trkpt>
      <trkpt lat="42.61729239486157894134521484375" lon="2.7645456232130527496337890625">
        <ele>115.8000030517578125</ele>
        <time>2023-08-19T17:06:48.000Z</time>
        <extensions>
          <ns3:TrackPointExtension>
            <ns3:hr>157</ns3:hr>
            <ns3:cad>83</ns3:cad>
          </ns3:TrackPointExtension>
        </extensions>
      </trkpt>
      <trkpt lat="42.6172628067433834075927734375" lon="2.76453363709151744842529296875">
        <ele>116.1999969482421875</ele>
        <time>2023-08-19T17:06:49.000Z</time>
        <extensions>
          <ns3:TrackPointExtension>
            <ns3:hr>157</ns3:hr>
            <ns3:cad>83</ns3:cad>
          </ns3:TrackPointExtension>
        </extensions>
      </trkpt>
      <trkpt lat="42.617236487567424774169921875" lon="2.76452089659869670867919921875">
        <ele>116.40000152587890625</ele>
        <time>2023-08-19T17:06:50.000Z</time>
        <extensions>
          <ns3:TrackPointExtension>
            <ns3:hr>157</ns3:hr>
            <ns3:cad>83</ns3:cad>
          </ns3:TrackPointExtension>
        </extensions>
      </trkpt>
      <trkpt lat="42.6172098331153392791748046875" lon="2.7645037136971950531005859375">
        <ele>116.40000152587890625</ele>
        <time>2023-08-19T17:06:51.000Z</time>
        <extensions>
          <ns3:TrackPointExtension>
            <ns3:hr>157</ns3:hr>
            <ns3:cad>83</ns3:cad>
          </ns3:TrackPointExtension>
        </extensions>
      </trkpt>
      <trkpt lat="42.61718292720615863800048828125" lon="2.764480747282505035400390625">
        <ele>116.40000152587890625</ele>
        <time>2023-08-19T17:06:52.000Z</time>
        <extensions>
          <ns3:TrackPointExtension>
            <ns3:hr>157</ns3:hr>
            <ns3:cad>83</ns3:cad>
          </ns3:TrackPointExtension>
        </extensions>
      </trkpt>
      <trkpt lat="42.6171571947634220123291015625" lon="2.7644618041813373565673828125">
        <ele>116.40000152587890625</ele>
        <time>2023-08-19T17:06:53.000Z</time>
        <extensions>
          <ns3:TrackPointExtension>
            <ns3:hr>157</ns3:hr>
            <ns3:cad>84</ns3:cad>
          </ns3:TrackPointExtension>
        </extensions>
      </trkpt>
      <trkpt lat="42.61713632382452487945556640625" lon="2.7644442021846771240234375">
        <ele>116.40000152587890625</ele>
        <time>2023-08-19T17:06:54.000Z</time>
        <extensions>
          <ns3:TrackPointExtension>
            <ns3:hr>158</ns3:hr>
            <ns3:cad>84</ns3:cad>
          </ns3:TrackPointExtension>
        </extensions>
      </trkpt>
      <trkpt lat="42.617119811475276947021484375" lon="2.764431126415729522705078125">
        <ele>116.40000152587890625</ele>
        <time>2023-08-19T17:06:55.000Z</time>
        <extensions>
          <ns3:TrackPointExtension>
            <ns3:hr>158</ns3:hr>
            <ns3:cad>83</ns3:cad>
          </ns3:TrackPointExtension>
        </extensions>
      </trkpt>
      <trkpt lat="42.617107070982456207275390625" lon="2.7644222415983676910400390625">
        <ele>116.59999847412109375</ele>
        <time>2023-08-19T17:06:56.000Z</time>
        <extensions>
          <ns3:TrackPointExtension>
            <ns3:hr>158</ns3:hr>
            <ns3:cad>83</ns3:cad>
          </ns3:TrackPointExtension>
        </extensions>
      </trkpt>
      <trkpt lat="42.61708519421517848968505859375" lon="2.76440556161105632781982421875">
        <ele>116.59999847412109375</ele>
        <time>2023-08-19T17:06:57.000Z</time>
        <extensions>
          <ns3:TrackPointExtension>
            <ns3:hr>158</ns3:hr>
            <ns3:cad>83</ns3:cad>
          </ns3:TrackPointExtension>
        </extensions>
      </trkpt>
      <trkpt lat="42.6170659996569156646728515625" lon="2.764394246041774749755859375">
        <ele>116.8000030517578125</ele>
        <time>2023-08-19T17:06:58.000Z</time>
        <extensions>
          <ns3:TrackPointExtension>
            <ns3:hr>158</ns3:hr>
            <ns3:cad>83</ns3:cad>
          </ns3:TrackPointExtension>
        </extensions>
      </trkpt>
      <trkpt lat="42.61704177595674991607666015625" lon="2.76438142172992229461669921875">
        <ele>116.8000030517578125</ele>
        <time>2023-08-19T17:06:59.000Z</time>
        <extensions>
          <ns3:TrackPointExtension>
            <ns3:hr>158</ns3:hr>
            <ns3:cad>83</ns3:cad>
          </ns3:TrackPointExtension>
        </extensions>
      </trkpt>
      <trkpt lat="42.6170163787901401519775390625" lon="2.7643716149032115936279296875">
        <ele>116.8000030517578125</ele>
        <time>2023-08-19T17:07:00.000Z</time>
        <extensions>
          <ns3:TrackPointExtension>
            <ns3:hr>158</ns3:hr>
            <ns3:cad>83</ns3:cad>
          </ns3:TrackPointExtension>
        </extensions>
      </trkpt>
      <trkpt lat="42.61699399910867214202880859375" lon="2.76436599902808666229248046875">
        <ele>117</ele>
        <time>2023-08-19T17:07:01.000Z</time>
        <extensions>
          <ns3:TrackPointExtension>
            <ns3:hr>158</ns3:hr>
            <ns3:cad>83</ns3:cad>
          </ns3:TrackPointExtension>
        </extensions>
      </trkpt>
      <trkpt lat="42.6169660873711109161376953125" lon="2.76435845531523227691650390625">
        <ele>117.1999969482421875</ele>
        <time>2023-08-19T17:07:02.000Z</time>
        <extensions>
          <ns3:TrackPointExtension>
            <ns3:hr>158</ns3:hr>
            <ns3:cad>84</ns3:cad>
          </ns3:TrackPointExtension>
        </extensions>
      </trkpt>
      <trkpt lat="42.61694471351802349090576171875" lon="2.764354683458805084228515625">
        <ele>117.40000152587890625</ele>
        <time>2023-08-19T17:07:03.000Z</time>
        <extensions>
          <ns3:TrackPointExtension>
            <ns3:hr>158</ns3:hr>
            <ns3:cad>84</ns3:cad>
          </ns3:TrackPointExtension>
        </extensions>
      </trkpt>
      <trkpt lat="42.61692325584590435028076171875" lon="2.764341272413730621337890625">
        <ele>117.40000152587890625</ele>
        <time>2023-08-19T17:07:04.000Z</time>
        <extensions>
          <ns3:TrackPointExtension>
            <ns3:hr>158</ns3:hr>
            <ns3:cad>84</ns3:cad>
          </ns3:TrackPointExtension>
        </extensions>
      </trkpt>
      <trkpt lat="42.61690230108797550201416015625" lon="2.76432425715029239654541015625">
        <ele>117.59999847412109375</ele>
        <time>2023-08-19T17:07:05.000Z</time>
        <extensions>
          <ns3:TrackPointExtension>
            <ns3:hr>157</ns3:hr>
            <ns3:cad>84</ns3:cad>
          </ns3:TrackPointExtension>
        </extensions>
      </trkpt>
      <trkpt lat="42.61688201688230037689208984375" lon="2.76431118138134479522705078125">
        <ele>118</ele>
        <time>2023-08-19T17:07:06.000Z</time>
        <extensions>
          <ns3:TrackPointExtension>
            <ns3:hr>157</ns3:hr>
            <ns3:cad>83</ns3:cad>
          </ns3:TrackPointExtension>
        </extensions>
      </trkpt>
      <trkpt lat="42.61686106212437152862548828125" lon="2.76428972370922565460205078125">
        <ele>118.40000152587890625</ele>
        <time>2023-08-19T17:07:07.000Z</time>
        <extensions>
          <ns3:TrackPointExtension>
            <ns3:hr>157</ns3:hr>
            <ns3:cad>83</ns3:cad>
          </ns3:TrackPointExtension>
        </extensions>
      </trkpt>
      <trkpt lat="42.61684111319482326507568359375" lon="2.764274887740612030029296875">
        <ele>118.59999847412109375</ele>
        <time>2023-08-19T17:07:08.000Z</time>
        <extensions>
          <ns3:TrackPointExtension>
            <ns3:hr>157</ns3:hr>
            <ns3:cad>84</ns3:cad>
          </ns3:TrackPointExtension>
        </extensions>
      </trkpt>
      <trkpt lat="42.61681747622787952423095703125" lon="2.76426248252391815185546875">
        <ele>118.8000030517578125</ele>
        <time>2023-08-19T17:07:09.000Z</time>
        <extensions>
          <ns3:TrackPointExtension>
            <ns3:hr>157</ns3:hr>
            <ns3:cad>84</ns3:cad>
          </ns3:TrackPointExtension>
        </extensions>
      </trkpt>
      <trkpt lat="42.616795934736728668212890625" lon="2.76424773037433624267578125">
        <ele>119</ele>
        <time>2023-08-19T17:07:10.000Z</time>
        <extensions>
          <ns3:TrackPointExtension>
            <ns3:hr>157</ns3:hr>
            <ns3:cad>84</ns3:cad>
          </ns3:TrackPointExtension>
        </extensions>
      </trkpt>
      <trkpt lat="42.61677523143589496612548828125" lon="2.76424127630889415740966796875">
        <ele>119.1999969482421875</ele>
        <time>2023-08-19T17:07:11.000Z</time>
        <extensions>
          <ns3:TrackPointExtension>
            <ns3:hr>157</ns3:hr>
            <ns3:cad>83</ns3:cad>
          </ns3:TrackPointExtension>
        </extensions>
      </trkpt>
      <trkpt lat="42.61675226502120494842529296875" lon="2.76422970928251743316650390625">
        <ele>119.40000152587890625</ele>
        <time>2023-08-19T17:07:12.000Z</time>
        <extensions>
          <ns3:TrackPointExtension>
            <ns3:hr>157</ns3:hr>
            <ns3:cad>83</ns3:cad>
          </ns3:TrackPointExtension>
        </extensions>
      </trkpt>
      <trkpt lat="42.6167297177016735076904296875" lon="2.76422132737934589385986328125">
        <ele>119.8000030517578125</ele>
        <time>2023-08-19T17:07:13.000Z</time>
        <extensions>
          <ns3:TrackPointExtension>
            <ns3:hr>157</ns3:hr>
            <ns3:cad>83</ns3:cad>
          </ns3:TrackPointExtension>
        </extensions>
      </trkpt>
      <trkpt lat="42.61670582927763462066650390625" lon="2.76421663351356983184814453125">
        <ele>120</ele>
        <time>2023-08-19T17:07:14.000Z</time>
        <extensions>
          <ns3:TrackPointExtension>
            <ns3:hr>157</ns3:hr>
            <ns3:cad>83</ns3:cad>
          </ns3:TrackPointExtension>
        </extensions>
      </trkpt>
      <trkpt lat="42.61668168939650058746337890625" lon="2.76420758105814456939697265625">
        <ele>120</ele>
        <time>2023-08-19T17:07:15.000Z</time>
        <extensions>
          <ns3:TrackPointExtension>
            <ns3:hr>157</ns3:hr>
            <ns3:cad>82</ns3:cad>
          </ns3:TrackPointExtension>
        </extensions>
      </trkpt>
      <trkpt lat="42.61666157282888889312744140625" lon="2.7642019651830196380615234375">
        <ele>120.1999969482421875</ele>
        <time>2023-08-19T17:07:16.000Z</time>
        <extensions>
          <ns3:TrackPointExtension>
            <ns3:hr>158</ns3:hr>
            <ns3:cad>82</ns3:cad>
          </ns3:TrackPointExtension>
        </extensions>
      </trkpt>
      <trkpt lat="42.61663994751870632171630859375" lon="2.76419735513627529144287109375">
        <ele>120.1999969482421875</ele>
        <time>2023-08-19T17:07:17.000Z</time>
        <extensions>
          <ns3:TrackPointExtension>
            <ns3:hr>158</ns3:hr>
            <ns3:cad>82</ns3:cad>
          </ns3:TrackPointExtension>
        </extensions>
      </trkpt>
      <trkpt lat="42.61661463417112827301025390625" lon="2.7641865424811840057373046875">
        <ele>120.40000152587890625</ele>
        <time>2023-08-19T17:07:18.000Z</time>
        <extensions>
          <ns3:TrackPointExtension>
            <ns3:hr>158</ns3:hr>
            <ns3:cad>82</ns3:cad>
          </ns3:TrackPointExtension>
        </extensions>
      </trkpt>
      <trkpt lat="42.61659443378448486328125" lon="2.7641835249960422515869140625">
        <ele>120.59999847412109375</ele>
        <time>2023-08-19T17:07:19.000Z</time>
        <extensions>
          <ns3:TrackPointExtension>
            <ns3:hr>158</ns3:hr>
            <ns3:cad>82</ns3:cad>
          </ns3:TrackPointExtension>
        </extensions>
      </trkpt>
      <trkpt lat="42.61657230556011199951171875" lon="2.76417757384479045867919921875">
        <ele>120.59999847412109375</ele>
        <time>2023-08-19T17:07:20.000Z</time>
        <extensions>
          <ns3:TrackPointExtension>
            <ns3:hr>158</ns3:hr>
            <ns3:cad>82</ns3:cad>
          </ns3:TrackPointExtension>
        </extensions>
      </trkpt>
      <trkpt lat="42.61655009351670742034912109375" lon="2.764168940484523773193359375">
        <ele>120.8000030517578125</ele>
        <time>2023-08-19T17:07:21.000Z</time>
        <extensions>
          <ns3:TrackPointExtension>
            <ns3:hr>158</ns3:hr>
            <ns3:cad>82</ns3:cad>
          </ns3:TrackPointExtension>
        </extensions>
      </trkpt>
      <trkpt lat="42.61652796529233455657958984375" lon="2.76416567154228687286376953125">
        <ele>121</ele>
        <time>2023-08-19T17:07:22.000Z</time>
        <extensions>
          <ns3:TrackPointExtension>
            <ns3:hr>158</ns3:hr>
            <ns3:cad>82</ns3:cad>
          </ns3:TrackPointExtension>
        </extensions>
      </trkpt>
      <trkpt lat="42.61650298722088336944580078125" lon="2.76415728963911533355712890625">
        <ele>121.1999969482421875</ele>
        <time>2023-08-19T17:07:23.000Z</time>
        <extensions>
          <ns3:TrackPointExtension>
            <ns3:hr>158</ns3:hr>
            <ns3:cad>82</ns3:cad>
          </ns3:TrackPointExtension>
        </extensions>
      </trkpt>
      <trkpt lat="42.6164826191961765289306640625" lon="2.764149494469165802001953125">
        <ele>121.40000152587890625</ele>
        <time>2023-08-19T17:07:24.000Z</time>
        <extensions>
          <ns3:TrackPointExtension>
            <ns3:hr>158</ns3:hr>
            <ns3:cad>82</ns3:cad>
          </ns3:TrackPointExtension>
        </extensions>
      </trkpt>
      <trkpt lat="42.61645353399217128753662109375" lon="2.76414253748953342437744140625">
        <ele>121.59999847412109375</ele>
        <time>2023-08-19T17:07:25.000Z</time>
        <extensions>
          <ns3:TrackPointExtension>
            <ns3:hr>158</ns3:hr>
            <ns3:cad>82</ns3:cad>
          </ns3:TrackPointExtension>
        </extensions>
      </trkpt>
      <trkpt lat="42.61642746627330780029296875" lon="2.76413264684379100799560546875">
        <ele>121.59999847412109375</ele>
        <time>2023-08-19T17:07:26.000Z</time>
        <extensions>
          <ns3:TrackPointExtension>
            <ns3:hr>158</ns3:hr>
            <ns3:cad>82</ns3:cad>
          </ns3:TrackPointExtension>
        </extensions>
      </trkpt>
      <trkpt lat="42.61640642769634723663330078125" lon="2.7641268633306026458740234375">
        <ele>121.8000030517578125</ele>
        <time>2023-08-19T17:07:27.000Z</time>
        <extensions>
          <ns3:TrackPointExtension>
            <ns3:hr>159</ns3:hr>
            <ns3:cad>82</ns3:cad>
          </ns3:TrackPointExtension>
        </extensions>
      </trkpt>
      <trkpt lat="42.61637918651103973388671875" lon="2.76412208564579486846923828125">
        <ele>122</ele>
        <time>2023-08-19T17:07:28.000Z</time>
        <extensions>
          <ns3:TrackPointExtension>
            <ns3:hr>159</ns3:hr>
            <ns3:cad>82</ns3:cad>
          </ns3:TrackPointExtension>
        </extensions>
      </trkpt>
      <trkpt lat="42.61635563336312770843505859375" lon="2.7641117759048938751220703125">
        <ele>122.1999969482421875</ele>
        <time>2023-08-19T17:07:29.000Z</time>
        <extensions>
          <ns3:TrackPointExtension>
            <ns3:hr>159</ns3:hr>
            <ns3:cad>82</ns3:cad>
          </ns3:TrackPointExtension>
        </extensions>
      </trkpt>
      <trkpt lat="42.61633266694843769073486328125" lon="2.7641050703823566436767578125">
        <ele>122.40000152587890625</ele>
        <time>2023-08-19T17:07:30.000Z</time>
        <extensions>
          <ns3:TrackPointExtension>
            <ns3:hr>159</ns3:hr>
            <ns3:cad>82</ns3:cad>
          </ns3:TrackPointExtension>
        </extensions>
      </trkpt>
      <trkpt lat="42.61630886234343051910400390625" lon="2.76409727521240711212158203125">
        <ele>122.59999847412109375</ele>
        <time>2023-08-19T17:07:31.000Z</time>
        <extensions>
          <ns3:TrackPointExtension>
            <ns3:hr>160</ns3:hr>
            <ns3:cad>81</ns3:cad>
          </ns3:TrackPointExtension>
        </extensions>
      </trkpt>
      <trkpt lat="42.616286985576152801513671875" lon="2.76409056968986988067626953125">
        <ele>122.8000030517578125</ele>
        <time>2023-08-19T17:07:32.000Z</time>
        <extensions>
          <ns3:TrackPointExtension>
            <ns3:hr>160</ns3:hr>
            <ns3:cad>81</ns3:cad>
          </ns3:TrackPointExtension>
        </extensions>
      </trkpt>
      <trkpt lat="42.61626527644693851470947265625" lon="2.76409040205180644989013671875">
        <ele>122.8000030517578125</ele>
        <time>2023-08-19T17:07:33.000Z</time>
        <extensions>
          <ns3:TrackPointExtension>
            <ns3:hr>160</ns3:hr>
            <ns3:cad>81</ns3:cad>
          </ns3:TrackPointExtension>
        </extensions>
      </trkpt>
      <trkpt lat="42.61624096892774105072021484375" lon="2.764091826975345611572265625">
        <ele>123.1999969482421875</ele>
        <time>2023-08-19T17:07:34.000Z</time>
        <extensions>
          <ns3:TrackPointExtension>
            <ns3:hr>160</ns3:hr>
            <ns3:cad>81</ns3:cad>
          </ns3:TrackPointExtension>
        </extensions>
      </trkpt>
      <trkpt lat="42.61621716432273387908935546875" lon="2.76409308426082134246826171875">
        <ele>123.1999969482421875</ele>
        <time>2023-08-19T17:07:35.000Z</time>
        <extensions>
          <ns3:TrackPointExtension>
            <ns3:hr>160</ns3:hr>
            <ns3:cad>81</ns3:cad>
          </ns3:TrackPointExtension>
        </extensions>
      </trkpt>
      <trkpt lat="42.61619545519351959228515625" lon="2.76409710757434368133544921875">
        <ele>123.40000152587890625</ele>
        <time>2023-08-19T17:07:36.000Z</time>
        <extensions>
          <ns3:TrackPointExtension>
            <ns3:hr>160</ns3:hr>
            <ns3:cad>81</ns3:cad>
          </ns3:TrackPointExtension>
        </extensions>
      </trkpt>
      <trkpt lat="42.6161721535027027130126953125" lon="2.7640966884791851043701171875">
        <ele>123.40000152587890625</ele>
        <time>2023-08-19T17:07:37.000Z</time>
        <extensions>
          <ns3:TrackPointExtension>
            <ns3:hr>160</ns3:hr>
            <ns3:cad>81</ns3:cad>
          </ns3:TrackPointExtension>
        </extensions>
      </trkpt>
      <trkpt lat="42.6161496900022029876708984375" lon="2.76409610174596309661865234375">
        <ele>123.40000152587890625</ele>
        <time>2023-08-19T17:07:38.000Z</time>
        <extensions>
          <ns3:TrackPointExtension>
            <ns3:hr>160</ns3:hr>
            <ns3:cad>81</ns3:cad>
          </ns3:TrackPointExtension>
        </extensions>
      </trkpt>
      <trkpt lat="42.6161248795688152313232421875" lon="2.76409358717501163482666015625">
        <ele>123.40000152587890625</ele>
        <time>2023-08-19T17:07:39.000Z</time>
        <extensions>
          <ns3:TrackPointExtension>
            <ns3:hr>160</ns3:hr>
            <ns3:cad>82</ns3:cad>
          </ns3:TrackPointExtension>
        </extensions>
      </trkpt>
      <trkpt lat="42.61609814129769802093505859375" lon="2.76409174315631389617919921875">
        <ele>123.59999847412109375</ele>
        <time>2023-08-19T17:07:40.000Z</time>
        <extensions>
          <ns3:TrackPointExtension>
            <ns3:hr>160</ns3:hr>
            <ns3:cad>82</ns3:cad>
          </ns3:TrackPointExtension>
        </extensions>
      </trkpt>
      <trkpt lat="42.61607584543526172637939453125" lon="2.76409476064145565032958984375">
        <ele>124</ele>
        <time>2023-08-19T17:07:41.000Z</time>
        <extensions>
          <ns3:TrackPointExtension>
            <ns3:hr>160</ns3:hr>
            <ns3:cad>82</ns3:cad>
          </ns3:TrackPointExtension>
        </extensions>
      </trkpt>
      <trkpt lat="42.6160477660596370697021484375" lon="2.7640970237553119659423828125">
        <ele>124.1999969482421875</ele>
        <time>2023-08-19T17:07:42.000Z</time>
        <extensions>
          <ns3:TrackPointExtension>
            <ns3:hr>160</ns3:hr>
            <ns3:cad>82</ns3:cad>
          </ns3:TrackPointExtension>
        </extensions>
      </trkpt>
      <trkpt lat="42.6160236261785030364990234375" lon="2.764099538326263427734375">
        <ele>124.40000152587890625</ele>
        <time>2023-08-19T17:07:43.000Z</time>
        <extensions>
          <ns3:TrackPointExtension>
            <ns3:hr>160</ns3:hr>
            <ns3:cad>82</ns3:cad>
          </ns3:TrackPointExtension>
        </extensions>
      </trkpt>
      <trkpt lat="42.6160008274018764495849609375" lon="2.7641062438488006591796875">
        <ele>124.40000152587890625</ele>
        <time>2023-08-19T17:07:44.000Z</time>
        <extensions>
          <ns3:TrackPointExtension>
            <ns3:hr>160</ns3:hr>
            <ns3:cad>83</ns3:cad>
          </ns3:TrackPointExtension>
        </extensions>
      </trkpt>
      <trkpt lat="42.61597660370171070098876953125" lon="2.7641097642481327056884765625">
        <ele>124.40000152587890625</ele>
        <time>2023-08-19T17:07:45.000Z</time>
        <extensions>
          <ns3:TrackPointExtension>
            <ns3:hr>160</ns3:hr>
            <ns3:cad>83</ns3:cad>
          </ns3:TrackPointExtension>
        </extensions>
      </trkpt>
      <trkpt lat="42.61595673859119415283203125" lon="2.76411521248519420623779296875">
        <ele>124.59999847412109375</ele>
        <time>2023-08-19T17:07:46.000Z</time>
        <extensions>
          <ns3:TrackPointExtension>
            <ns3:hr>159</ns3:hr>
            <ns3:cad>83</ns3:cad>
          </ns3:TrackPointExtension>
        </extensions>
      </trkpt>
      <trkpt lat="42.61593519710004329681396484375" lon="2.76412040926516056060791015625">
        <ele>124.8000030517578125</ele>
        <time>2023-08-19T17:07:47.000Z</time>
        <extensions>
          <ns3:TrackPointExtension>
            <ns3:hr>159</ns3:hr>
            <ns3:cad>83</ns3:cad>
          </ns3:TrackPointExtension>
        </extensions>
      </trkpt>
      <trkpt lat="42.6159106381237506866455078125" lon="2.76412493549287319183349609375">
        <ele>125</ele>
        <time>2023-08-19T17:07:48.000Z</time>
        <extensions>
          <ns3:TrackPointExtension>
            <ns3:hr>159</ns3:hr>
            <ns3:cad>83</ns3:cad>
          </ns3:TrackPointExtension>
        </extensions>
      </trkpt>
      <trkpt lat="42.61588943190872669219970703125" lon="2.764132730662822723388671875">
        <ele>125.1999969482421875</ele>
        <time>2023-08-19T17:07:49.000Z</time>
        <extensions>
          <ns3:TrackPointExtension>
            <ns3:hr>159</ns3:hr>
            <ns3:cad>82</ns3:cad>
          </ns3:TrackPointExtension>
        </extensions>
      </trkpt>
      <trkpt lat="42.615865208208560943603515625" lon="2.764142118394374847412109375">
        <ele>125.59999847412109375</ele>
        <time>2023-08-19T17:07:50.000Z</time>
        <extensions>
          <ns3:TrackPointExtension>
            <ns3:hr>159</ns3:hr>
            <ns3:cad>82</ns3:cad>
          </ns3:TrackPointExtension>
        </extensions>
      </trkpt>
      <trkpt lat="42.6158429123461246490478515625" lon="2.7641439624130725860595703125">
        <ele>126</ele>
        <time>2023-08-19T17:07:51.000Z</time>
        <extensions>
          <ns3:TrackPointExtension>
            <ns3:hr>159</ns3:hr>
            <ns3:cad>82</ns3:cad>
          </ns3:TrackPointExtension>
        </extensions>
      </trkpt>
      <trkpt lat="42.61582220904529094696044921875" lon="2.76415108703076839447021484375">
        <ele>126.1999969482421875</ele>
        <time>2023-08-19T17:07:52.000Z</time>
        <extensions>
          <ns3:TrackPointExtension>
            <ns3:hr>158</ns3:hr>
            <ns3:cad>82</ns3:cad>
          </ns3:TrackPointExtension>
        </extensions>
      </trkpt>
      <trkpt lat="42.61580075137317180633544921875" lon="2.76415511034429073333740234375">
        <ele>126.1999969482421875</ele>
        <time>2023-08-19T17:07:53.000Z</time>
        <extensions>
          <ns3:TrackPointExtension>
            <ns3:hr>158</ns3:hr>
            <ns3:cad>82</ns3:cad>
          </ns3:TrackPointExtension>
        </extensions>
      </trkpt>
      <trkpt lat="42.61578113771975040435791015625" lon="2.76415745727717876434326171875">
        <ele>126.40000152587890625</ele>
        <time>2023-08-19T17:07:54.000Z</time>
        <extensions>
          <ns3:TrackPointExtension>
            <ns3:hr>158</ns3:hr>
            <ns3:cad>82</ns3:cad>
          </ns3:TrackPointExtension>
        </extensions>
      </trkpt>
      <trkpt lat="42.61575959622859954833984375" lon="2.764162234961986541748046875">
        <ele>126.59999847412109375</ele>
        <time>2023-08-19T17:07:55.000Z</time>
        <extensions>
          <ns3:TrackPointExtension>
            <ns3:hr>158</ns3:hr>
            <ns3:cad>82</ns3:cad>
          </ns3:TrackPointExtension>
        </extensions>
      </trkpt>
      <trkpt lat="42.61573545634746551513671875" lon="2.76416516862809658050537109375">
        <ele>126.59999847412109375</ele>
        <time>2023-08-19T17:07:56.000Z</time>
        <extensions>
          <ns3:TrackPointExtension>
            <ns3:hr>158</ns3:hr>
            <ns3:cad>82</ns3:cad>
          </ns3:TrackPointExtension>
        </extensions>
      </trkpt>
      <trkpt lat="42.61571399867534637451171875" lon="2.76416818611323833465576171875">
        <ele>126.8000030517578125</ele>
        <time>2023-08-19T17:07:57.000Z</time>
        <extensions>
          <ns3:TrackPointExtension>
            <ns3:hr>158</ns3:hr>
            <ns3:cad>82</ns3:cad>
          </ns3:TrackPointExtension>
        </extensions>
      </trkpt>
      <trkpt lat="42.6156910322606563568115234375" lon="2.76417472399771213531494140625">
        <ele>126.8000030517578125</ele>
        <time>2023-08-19T17:07:58.000Z</time>
        <extensions>
          <ns3:TrackPointExtension>
            <ns3:hr>158</ns3:hr>
            <ns3:cad>82</ns3:cad>
          </ns3:TrackPointExtension>
        </extensions>
      </trkpt>
      <trkpt lat="42.61567083187401294708251953125" lon="2.7641840279102325439453125">
        <ele>127</ele>
        <time>2023-08-19T17:07:59.000Z</time>
        <extensions>
          <ns3:TrackPointExtension>
            <ns3:hr>158</ns3:hr>
            <ns3:cad>81</ns3:cad>
          </ns3:TrackPointExtension>
        </extensions>
      </trkpt>
      <trkpt lat="42.61565373279154300689697265625" lon="2.7642002888023853302001953125">
        <ele>127.40000152587890625</ele>
        <time>2023-08-19T17:08:00.000Z</time>
        <extensions>
          <ns3:TrackPointExtension>
            <ns3:hr>158</ns3:hr>
            <ns3:cad>81</ns3:cad>
          </ns3:TrackPointExtension>
        </extensions>
      </trkpt>
      <trkpt lat="42.61562992818653583526611328125" lon="2.76421126909554004669189453125">
        <ele>127.59999847412109375</ele>
        <time>2023-08-19T17:08:01.000Z</time>
        <extensions>
          <ns3:TrackPointExtension>
            <ns3:hr>158</ns3:hr>
            <ns3:cad>82</ns3:cad>
          </ns3:TrackPointExtension>
        </extensions>
      </trkpt>
      <trkpt lat="42.61560805141925811767578125" lon="2.76421797461807727813720703125">
        <ele>127.8000030517578125</ele>
        <time>2023-08-19T17:08:02.000Z</time>
        <extensions>
          <ns3:TrackPointExtension>
            <ns3:hr>158</ns3:hr>
            <ns3:cad>82</ns3:cad>
          </ns3:TrackPointExtension>
        </extensions>
      </trkpt>
      <trkpt lat="42.61558617465198040008544921875" lon="2.7642274461686611175537109375">
        <ele>128</ele>
        <time>2023-08-19T17:08:03.000Z</time>
        <extensions>
          <ns3:TrackPointExtension>
            <ns3:hr>158</ns3:hr>
            <ns3:cad>82</ns3:cad>
          </ns3:TrackPointExtension>
        </extensions>
      </trkpt>
      <trkpt lat="42.615560106933116912841796875" lon="2.76423373259603977203369140625">
        <ele>128.399993896484375</ele>
        <time>2023-08-19T17:08:04.000Z</time>
        <extensions>
          <ns3:TrackPointExtension>
            <ns3:hr>158</ns3:hr>
            <ns3:cad>82</ns3:cad>
          </ns3:TrackPointExtension>
        </extensions>
      </trkpt>
      <trkpt lat="42.61554024182260036468505859375" lon="2.764239348471164703369140625">
        <ele>128.399993896484375</ele>
        <time>2023-08-19T17:08:05.000Z</time>
        <extensions>
          <ns3:TrackPointExtension>
            <ns3:hr>158</ns3:hr>
            <ns3:cad>82</ns3:cad>
          </ns3:TrackPointExtension>
        </extensions>
      </trkpt>
      <trkpt lat="42.6155193708837032318115234375" lon="2.76424781419336795806884765625">
        <ele>128.600006103515625</ele>
        <time>2023-08-19T17:08:06.000Z</time>
        <extensions>
          <ns3:TrackPointExtension>
            <ns3:hr>159</ns3:hr>
            <ns3:cad>82</ns3:cad>
          </ns3:TrackPointExtension>
        </extensions>
      </trkpt>
      <trkpt lat="42.61549380607903003692626953125" lon="2.7642509154975414276123046875">
        <ele>128.8000030517578125</ele>
        <time>2023-08-19T17:08:07.000Z</time>
        <extensions>
          <ns3:TrackPointExtension>
            <ns3:hr>159</ns3:hr>
            <ns3:cad>81</ns3:cad>
          </ns3:TrackPointExtension>
        </extensions>
      </trkpt>
      <trkpt lat="42.61547352187335491180419921875" lon="2.7642537653446197509765625">
        <ele>129</ele>
        <time>2023-08-19T17:08:08.000Z</time>
        <extensions>
          <ns3:TrackPointExtension>
            <ns3:hr>159</ns3:hr>
            <ns3:cad>81</ns3:cad>
          </ns3:TrackPointExtension>
        </extensions>
      </trkpt>
      <trkpt lat="42.61544854380190372467041015625" lon="2.76425845921039581298828125">
        <ele>129.1999969482421875</ele>
        <time>2023-08-19T17:08:09.000Z</time>
        <extensions>
          <ns3:TrackPointExtension>
            <ns3:hr>159</ns3:hr>
            <ns3:cad>81</ns3:cad>
          </ns3:TrackPointExtension>
        </extensions>
      </trkpt>
      <trkpt lat="42.6154218055307865142822265625" lon="2.7642633207142353057861328125">
        <ele>129.399993896484375</ele>
        <time>2023-08-19T17:08:10.000Z</time>
        <extensions>
          <ns3:TrackPointExtension>
            <ns3:hr>159</ns3:hr>
            <ns3:cad>82</ns3:cad>
          </ns3:TrackPointExtension>
        </extensions>
      </trkpt>
      <trkpt lat="42.61540152132511138916015625" lon="2.76427178643643856048583984375">
        <ele>129.600006103515625</ele>
        <time>2023-08-19T17:08:11.000Z</time>
        <extensions>
          <ns3:TrackPointExtension>
            <ns3:hr>159</ns3:hr>
            <ns3:cad>82</ns3:cad>
          </ns3:TrackPointExtension>
        </extensions>
      </trkpt>
      <trkpt lat="42.61537612415850162506103515625" lon="2.76427664794027805328369140625">
        <ele>129.600006103515625</ele>
        <time>2023-08-19T17:08:12.000Z</time>
        <extensions>
          <ns3:TrackPointExtension>
            <ns3:hr>159</ns3:hr>
            <ns3:cad>82</ns3:cad>
          </ns3:TrackPointExtension>
        </extensions>
      </trkpt>
      <trkpt lat="42.6153510622680187225341796875" lon="2.76427924633026123046875">
        <ele>129.600006103515625</ele>
        <time>2023-08-19T17:08:13.000Z</time>
        <extensions>
          <ns3:TrackPointExtension>
            <ns3:hr>159</ns3:hr>
            <ns3:cad>82</ns3:cad>
          </ns3:TrackPointExtension>
        </extensions>
      </trkpt>
      <trkpt lat="42.61532910168170928955078125" lon="2.76428285054862499237060546875">
        <ele>130</ele>
        <time>2023-08-19T17:08:14.000Z</time>
        <extensions>
          <ns3:TrackPointExtension>
            <ns3:hr>159</ns3:hr>
            <ns3:cad>82</ns3:cad>
          </ns3:TrackPointExtension>
        </extensions>
      </trkpt>
      <trkpt lat="42.6153061352670192718505859375" lon="2.76428352110087871551513671875">
        <ele>130</ele>
        <time>2023-08-19T17:08:15.000Z</time>
        <extensions>
          <ns3:TrackPointExtension>
            <ns3:hr>159</ns3:hr>
            <ns3:cad>81</ns3:cad>
          </ns3:TrackPointExtension>
        </extensions>
      </trkpt>
      <trkpt lat="42.61528392322361469268798828125" lon="2.76428519748151302337646484375">
        <ele>130.1999969482421875</ele>
        <time>2023-08-19T17:08:16.000Z</time>
        <extensions>
          <ns3:TrackPointExtension>
            <ns3:hr>159</ns3:hr>
            <ns3:cad>81</ns3:cad>
          </ns3:TrackPointExtension>
        </extensions>
      </trkpt>
      <trkpt lat="42.61526078917086124420166015625" lon="2.764287628233432769775390625">
        <ele>130.1999969482421875</ele>
        <time>2023-08-19T17:08:17.000Z</time>
        <extensions>
          <ns3:TrackPointExtension>
            <ns3:hr>159</ns3:hr>
            <ns3:cad>81</ns3:cad>
          </ns3:TrackPointExtension>
        </extensions>
      </trkpt>
      <trkpt lat="42.61523480527102947235107421875" lon="2.7642854489386081695556640625">
        <ele>130.1999969482421875</ele>
        <time>2023-08-19T17:08:18.000Z</time>
        <extensions>
          <ns3:TrackPointExtension>
            <ns3:hr>159</ns3:hr>
            <ns3:cad>81</ns3:cad>
          </ns3:TrackPointExtension>
        </extensions>
      </trkpt>
      <trkpt lat="42.61521016247570514678955078125" lon="2.764284946024417877197265625">
        <ele>130.399993896484375</ele>
        <time>2023-08-19T17:08:19.000Z</time>
        <extensions>
          <ns3:TrackPointExtension>
            <ns3:hr>160</ns3:hr>
            <ns3:cad>81</ns3:cad>
          </ns3:TrackPointExtension>
        </extensions>
      </trkpt>
      <trkpt lat="42.6151867769658565521240234375" lon="2.764280252158641815185546875">
        <ele>130.399993896484375</ele>
        <time>2023-08-19T17:08:20.000Z</time>
        <extensions>
          <ns3:TrackPointExtension>
            <ns3:hr>160</ns3:hr>
            <ns3:cad>82</ns3:cad>
          </ns3:TrackPointExtension>
        </extensions>
      </trkpt>
      <trkpt lat="42.615159116685390472412109375" lon="2.76427178643643856048583984375">
        <ele>130.600006103515625</ele>
        <time>2023-08-19T17:08:21.000Z</time>
        <extensions>
          <ns3:TrackPointExtension>
            <ns3:hr>160</ns3:hr>
            <ns3:cad>82</ns3:cad>
          </ns3:TrackPointExtension>
        </extensions>
      </trkpt>
      <trkpt lat="42.61513195931911468505859375" lon="2.7642656676471233367919921875">
        <ele>130.600006103515625</ele>
        <time>2023-08-19T17:08:22.000Z</time>
        <extensions>
          <ns3:TrackPointExtension>
            <ns3:hr>160</ns3:hr>
            <ns3:cad>82</ns3:cad>
          </ns3:TrackPointExtension>
        </extensions>
      </trkpt>
      <trkpt lat="42.6151073165237903594970703125" lon="2.76426088996231555938720703125">
        <ele>130.8000030517578125</ele>
        <time>2023-08-19T17:08:23.000Z</time>
        <extensions>
          <ns3:TrackPointExtension>
            <ns3:hr>160</ns3:hr>
            <ns3:cad>82</ns3:cad>
          </ns3:TrackPointExtension>
        </extensions>
      </trkpt>
      <trkpt lat="42.61508258990943431854248046875" lon="2.7642519213259220123291015625">
        <ele>130.8000030517578125</ele>
        <time>2023-08-19T17:08:24.000Z</time>
        <extensions>
          <ns3:TrackPointExtension>
            <ns3:hr>160</ns3:hr>
            <ns3:cad>82</ns3:cad>
          </ns3:TrackPointExtension>
        </extensions>
      </trkpt>
      <trkpt lat="42.61505207978188991546630859375" lon="2.7642485685646533966064453125">
        <ele>131</ele>
        <time>2023-08-19T17:08:25.000Z</time>
        <extensions>
          <ns3:TrackPointExtension>
            <ns3:hr>160</ns3:hr>
            <ns3:cad>82</ns3:cad>
          </ns3:TrackPointExtension>
        </extensions>
      </trkpt>
      <trkpt lat="42.615029700100421905517578125" lon="2.76424429379403591156005859375">
        <ele>131</ele>
        <time>2023-08-19T17:08:26.000Z</time>
        <extensions>
          <ns3:TrackPointExtension>
            <ns3:hr>160</ns3:hr>
            <ns3:cad>82</ns3:cad>
          </ns3:TrackPointExtension>
        </extensions>
      </trkpt>
      <trkpt lat="42.61500765569508075714111328125" lon="2.76423976756632328033447265625">
        <ele>131</ele>
        <time>2023-08-19T17:08:27.000Z</time>
        <extensions>
          <ns3:TrackPointExtension>
            <ns3:hr>160</ns3:hr>
            <ns3:cad>82</ns3:cad>
          </ns3:TrackPointExtension>
        </extensions>
      </trkpt>
      <trkpt lat="42.614981420338153839111328125" lon="2.76423566043376922607421875">
        <ele>131</ele>
        <time>2023-08-19T17:08:28.000Z</time>
        <extensions>
          <ns3:TrackPointExtension>
            <ns3:hr>159</ns3:hr>
            <ns3:cad>82</ns3:cad>
          </ns3:TrackPointExtension>
        </extensions>
      </trkpt>
      <trkpt lat="42.6149497367441654205322265625" lon="2.7642274461686611175537109375">
        <ele>131</ele>
        <time>2023-08-19T17:08:29.000Z</time>
        <extensions>
          <ns3:TrackPointExtension>
            <ns3:hr>159</ns3:hr>
            <ns3:cad>82</ns3:cad>
          </ns3:TrackPointExtension>
        </extensions>
      </trkpt>
      <trkpt lat="42.6149202324450016021728515625" lon="2.76422560214996337890625">
        <ele>131</ele>
        <time>2023-08-19T17:08:30.000Z</time>
        <extensions>
          <ns3:TrackPointExtension>
            <ns3:hr>159</ns3:hr>
            <ns3:cad>83</ns3:cad>
          </ns3:TrackPointExtension>
        </extensions>
      </trkpt>
      <trkpt lat="42.61488561518490314483642578125" lon="2.764220573008060455322265625">
        <ele>131</ele>
        <time>2023-08-19T17:08:31.000Z</time>
        <extensions>
          <ns3:TrackPointExtension>
            <ns3:hr>159</ns3:hr>
            <ns3:cad>83</ns3:cad>
          </ns3:TrackPointExtension>
        </extensions>
      </trkpt>
      <trkpt lat="42.61485946364700794219970703125" lon="2.76421629823744297027587890625">
        <ele>131</ele>
        <time>2023-08-19T17:08:32.000Z</time>
        <extensions>
          <ns3:TrackPointExtension>
            <ns3:hr>159</ns3:hr>
            <ns3:cad>83</ns3:cad>
          </ns3:TrackPointExtension>
        </extensions>
      </trkpt>
      <trkpt lat="42.61483289301395416259765625" lon="2.7642157115042209625244140625">
        <ele>131</ele>
        <time>2023-08-19T17:08:33.000Z</time>
        <extensions>
          <ns3:TrackPointExtension>
            <ns3:hr>159</ns3:hr>
            <ns3:cad>83</ns3:cad>
          </ns3:TrackPointExtension>
        </extensions>
      </trkpt>
      <trkpt lat="42.6148028858006000518798828125" lon="2.76421261020004749298095703125">
        <ele>131</ele>
        <time>2023-08-19T17:08:34.000Z</time>
        <extensions>
          <ns3:TrackPointExtension>
            <ns3:hr>159</ns3:hr>
            <ns3:cad>83</ns3:cad>
          </ns3:TrackPointExtension>
        </extensions>
      </trkpt>
      <trkpt lat="42.614778913557529449462890625" lon="2.7642095088958740234375">
        <ele>131</ele>
        <time>2023-08-19T17:08:35.000Z</time>
        <extensions>
          <ns3:TrackPointExtension>
            <ns3:hr>159</ns3:hr>
            <ns3:cad>83</ns3:cad>
          </ns3:TrackPointExtension>
        </extensions>
      </trkpt>
      <trkpt lat="42.6147504150867462158203125" lon="2.764207161962985992431640625">
        <ele>131</ele>
        <time>2023-08-19T17:08:36.000Z</time>
        <extensions>
          <ns3:TrackPointExtension>
            <ns3:hr>159</ns3:hr>
            <ns3:cad>83</ns3:cad>
          </ns3:TrackPointExtension>
        </extensions>
      </trkpt>
      <trkpt lat="42.6147267781198024749755859375" lon="2.7642046473920345306396484375">
        <ele>131</ele>
        <time>2023-08-19T17:08:37.000Z</time>
        <extensions>
          <ns3:TrackPointExtension>
            <ns3:hr>158</ns3:hr>
            <ns3:cad>83</ns3:cad>
          </ns3:TrackPointExtension>
        </extensions>
      </trkpt>
      <trkpt lat="42.61470012366771697998046875" lon="2.76420640759170055389404296875">
        <ele>131</ele>
        <time>2023-08-19T17:08:38.000Z</time>
        <extensions>
          <ns3:TrackPointExtension>
            <ns3:hr>159</ns3:hr>
            <ns3:cad>83</ns3:cad>
          </ns3:TrackPointExtension>
        </extensions>
      </trkpt>
      <trkpt lat="42.61467053554952144622802734375" lon="2.76420271955430507659912109375">
        <ele>131</ele>
        <time>2023-08-19T17:08:39.000Z</time>
        <extensions>
          <ns3:TrackPointExtension>
            <ns3:hr>160</ns3:hr>
            <ns3:cad>83</ns3:cad>
          </ns3:TrackPointExtension>
        </extensions>
      </trkpt>
      <trkpt lat="42.61464706622064113616943359375" lon="2.76419936679303646087646484375">
        <ele>131</ele>
        <time>2023-08-19T17:08:40.000Z</time>
        <extensions>
          <ns3:TrackPointExtension>
            <ns3:hr>160</ns3:hr>
            <ns3:cad>83</ns3:cad>
          </ns3:TrackPointExtension>
        </extensions>
      </trkpt>
      <trkpt lat="42.61461840011179447174072265625" lon="2.7641935832798480987548828125">
        <ele>131</ele>
        <time>2023-08-19T17:08:41.000Z</time>
        <extensions>
          <ns3:TrackPointExtension>
            <ns3:hr>159</ns3:hr>
            <ns3:cad>83</ns3:cad>
          </ns3:TrackPointExtension>
        </extensions>
      </trkpt>
      <trkpt lat="42.61459107510745525360107421875" lon="2.76418578810989856719970703125">
        <ele>131</ele>
        <time>2023-08-19T17:08:42.000Z</time>
        <extensions>
          <ns3:TrackPointExtension>
            <ns3:hr>159</ns3:hr>
            <ns3:cad>84</ns3:cad>
          </ns3:TrackPointExtension>
        </extensions>
      </trkpt>
      <trkpt lat="42.6145621575415134429931640625" lon="2.76418444700539112091064453125">
        <ele>131</ele>
        <time>2023-08-19T17:08:43.000Z</time>
        <extensions>
          <ns3:TrackPointExtension>
            <ns3:hr>159</ns3:hr>
            <ns3:cad>84</ns3:cad>
          </ns3:TrackPointExtension>
        </extensions>
      </trkpt>
      <trkpt lat="42.6145339943468570709228515625" lon="2.7641744725406169891357421875">
        <ele>131.1999969482421875</ele>
        <time>2023-08-19T17:08:44.000Z</time>
        <extensions>
          <ns3:TrackPointExtension>
            <ns3:hr>159</ns3:hr>
            <ns3:cad>84</ns3:cad>
          </ns3:TrackPointExtension>
        </extensions>
      </trkpt>
      <trkpt lat="42.614509351551532745361328125" lon="2.7641634084284305572509765625">
        <ele>131.1999969482421875</ele>
        <time>2023-08-19T17:08:45.000Z</time>
        <extensions>
          <ns3:TrackPointExtension>
            <ns3:hr>159</ns3:hr>
            <ns3:cad>83</ns3:cad>
          </ns3:TrackPointExtension>
        </extensions>
      </trkpt>
      <trkpt lat="42.61448395438492298126220703125" lon="2.7641577087342739105224609375">
        <ele>131.1999969482421875</ele>
        <time>2023-08-19T17:08:46.000Z</time>
        <extensions>
          <ns3:TrackPointExtension>
            <ns3:hr>159</ns3:hr>
            <ns3:cad>83</ns3:cad>
          </ns3:TrackPointExtension>
        </extensions>
      </trkpt>
      <trkpt lat="42.6144605688750743865966796875" lon="2.7641451358795166015625">
        <ele>131.399993896484375</ele>
        <time>2023-08-19T17:08:47.000Z</time>
        <extensions>
          <ns3:TrackPointExtension>
            <ns3:hr>159</ns3:hr>
            <ns3:cad>83</ns3:cad>
          </ns3:TrackPointExtension>
        </extensions>
      </trkpt>
      <trkpt lat="42.614435255527496337890625" lon="2.76413532905280590057373046875">
        <ele>131.399993896484375</ele>
        <time>2023-08-19T17:08:48.000Z</time>
        <extensions>
          <ns3:TrackPointExtension>
            <ns3:hr>159</ns3:hr>
            <ns3:cad>83</ns3:cad>
          </ns3:TrackPointExtension>
        </extensions>
      </trkpt>
      <trkpt lat="42.61440315283834934234619140625" lon="2.764120660722255706787109375">
        <ele>131.399993896484375</ele>
        <time>2023-08-19T17:08:49.000Z</time>
        <extensions>
          <ns3:TrackPointExtension>
            <ns3:hr>158</ns3:hr>
            <ns3:cad>83</ns3:cad>
          </ns3:TrackPointExtension>
        </extensions>
      </trkpt>
      <trkpt lat="42.6143740676343441009521484375" lon="2.7641054056584835052490234375">
        <ele>131.399993896484375</ele>
        <time>2023-08-19T17:08:50.000Z</time>
        <extensions>
          <ns3:TrackPointExtension>
            <ns3:hr>158</ns3:hr>
            <ns3:cad>83</ns3:cad>
          </ns3:TrackPointExtension>
        </extensions>
      </trkpt>
      <trkpt lat="42.61434070765972137451171875" lon="2.76409761048853397369384765625">
        <ele>131.399993896484375</ele>
        <time>2023-08-19T17:08:51.000Z</time>
        <extensions>
          <ns3:TrackPointExtension>
            <ns3:hr>158</ns3:hr>
            <ns3:cad>83</ns3:cad>
          </ns3:TrackPointExtension>
        </extensions>
      </trkpt>
      <trkpt lat="42.61431254446506500244140625" lon="2.76409258134663105010986328125">
        <ele>131.399993896484375</ele>
        <time>2023-08-19T17:08:52.000Z</time>
        <extensions>
          <ns3:TrackPointExtension>
            <ns3:hr>158</ns3:hr>
            <ns3:cad>84</ns3:cad>
          </ns3:TrackPointExtension>
        </extensions>
      </trkpt>
      <trkpt lat="42.61429050005972385406494140625" lon="2.7640928328037261962890625">
        <ele>131.399993896484375</ele>
        <time>2023-08-19T17:08:53.000Z</time>
        <extensions>
          <ns3:TrackPointExtension>
            <ns3:hr>158</ns3:hr>
            <ns3:cad>84</ns3:cad>
          </ns3:TrackPointExtension>
        </extensions>
      </trkpt>
      <trkpt lat="42.61426351033151149749755859375" lon="2.76409618556499481201171875">
        <ele>131.399993896484375</ele>
        <time>2023-08-19T17:08:54.000Z</time>
        <extensions>
          <ns3:TrackPointExtension>
            <ns3:hr>158</ns3:hr>
            <ns3:cad>84</ns3:cad>
          </ns3:TrackPointExtension>
        </extensions>
      </trkpt>
      <trkpt lat="42.6142389513552188873291015625" lon="2.76410096324980258941650390625">
        <ele>131.1999969482421875</ele>
        <time>2023-08-19T17:08:55.000Z</time>
        <extensions>
          <ns3:TrackPointExtension>
            <ns3:hr>158</ns3:hr>
            <ns3:cad>84</ns3:cad>
          </ns3:TrackPointExtension>
        </extensions>
      </trkpt>
      <trkpt lat="42.61421196162700653076171875" lon="2.76410917751491069793701171875">
        <ele>131.1999969482421875</ele>
        <time>2023-08-19T17:08:56.000Z</time>
        <extensions>
          <ns3:TrackPointExtension>
            <ns3:hr>158</ns3:hr>
            <ns3:cad>84</ns3:cad>
          </ns3:TrackPointExtension>
        </extensions>
      </trkpt>
      <trkpt lat="42.614180780947208404541015625" lon="2.76411487720906734466552734375">
        <ele>131.1999969482421875</ele>
        <time>2023-08-19T17:08:57.000Z</time>
        <extensions>
          <ns3:TrackPointExtension>
            <ns3:hr>158</ns3:hr>
            <ns3:cad>84</ns3:cad>
          </ns3:TrackPointExtension>
        </extensions>
      </trkpt>
      <trkpt lat="42.6141541264951229095458984375" lon="2.7641241811215877532958984375">
        <ele>131.1999969482421875</ele>
        <time>2023-08-19T17:08:58.000Z</time>
        <extensions>
          <ns3:TrackPointExtension>
            <ns3:hr>158</ns3:hr>
            <ns3:cad>84</ns3:cad>
          </ns3:TrackPointExtension>
        </extensions>
      </trkpt>
      <trkpt lat="42.61411984451115131378173828125" lon="2.7641295455396175384521484375">
        <ele>131.399993896484375</ele>
        <time>2023-08-19T17:08:59.000Z</time>
        <extensions>
          <ns3:TrackPointExtension>
            <ns3:hr>158</ns3:hr>
            <ns3:cad>84</ns3:cad>
          </ns3:TrackPointExtension>
        </extensions>
      </trkpt>
      <trkpt lat="42.6140904240310192108154296875" lon="2.7641322277486324310302734375">
        <ele>131.399993896484375</ele>
        <time>2023-08-19T17:09:00.000Z</time>
        <extensions>
          <ns3:TrackPointExtension>
            <ns3:hr>158</ns3:hr>
            <ns3:cad>84</ns3:cad>
          </ns3:TrackPointExtension>
        </extensions>
      </trkpt>
      <trkpt lat="42.61406418867409229278564453125" lon="2.764137089252471923828125">
        <ele>131.399993896484375</ele>
        <time>2023-08-19T17:09:01.000Z</time>
        <extensions>
          <ns3:TrackPointExtension>
            <ns3:hr>158</ns3:hr>
            <ns3:cad>84</ns3:cad>
          </ns3:TrackPointExtension>
        </extensions>
      </trkpt>
      <trkpt lat="42.61403351090848445892333984375" lon="2.76413331739604473114013671875">
        <ele>131.399993896484375</ele>
        <time>2023-08-19T17:09:02.000Z</time>
        <extensions>
          <ns3:TrackPointExtension>
            <ns3:hr>158</ns3:hr>
            <ns3:cad>84</ns3:cad>
          </ns3:TrackPointExtension>
        </extensions>
      </trkpt>
      <trkpt lat="42.6140102930366992950439453125" lon="2.7641328983008861541748046875">
        <ele>131.399993896484375</ele>
        <time>2023-08-19T17:09:03.000Z</time>
        <extensions>
          <ns3:TrackPointExtension>
            <ns3:hr>158</ns3:hr>
            <ns3:cad>84</ns3:cad>
          </ns3:TrackPointExtension>
        </extensions>
      </trkpt>
      <trkpt lat="42.61397969909012317657470703125" lon="2.7641198225319385528564453125">
        <ele>131.399993896484375</ele>
        <time>2023-08-19T17:09:04.000Z</time>
        <extensions>
          <ns3:TrackPointExtension>
            <ns3:hr>159</ns3:hr>
            <ns3:cad>84</ns3:cad>
          </ns3:TrackPointExtension>
        </extensions>
      </trkpt>
      <trkpt lat="42.61395723558962345123291015625" lon="2.76410012505948543548583984375">
        <ele>131.399993896484375</ele>
        <time>2023-08-19T17:09:05.000Z</time>
        <extensions>
          <ns3:TrackPointExtension>
            <ns3:hr>159</ns3:hr>
            <ns3:cad>83</ns3:cad>
          </ns3:TrackPointExtension>
        </extensions>
      </trkpt>
      <trkpt lat="42.61393594555556774139404296875" lon="2.7640832774341106414794921875">
        <ele>131.1999969482421875</ele>
        <time>2023-08-19T17:09:06.000Z</time>
        <extensions>
          <ns3:TrackPointExtension>
            <ns3:hr>159</ns3:hr>
            <ns3:cad>83</ns3:cad>
          </ns3:TrackPointExtension>
        </extensions>
      </trkpt>
      <trkpt lat="42.6139103807508945465087890625" lon="2.76405653916299343109130859375">
        <ele>131.1999969482421875</ele>
        <time>2023-08-19T17:09:07.000Z</time>
        <extensions>
          <ns3:TrackPointExtension>
            <ns3:hr>158</ns3:hr>
            <ns3:cad>83</ns3:cad>
          </ns3:TrackPointExtension>
        </extensions>
      </trkpt>
      <trkpt lat="42.6138926111161708831787109375" lon="2.7640313096344470977783203125">
        <ele>131.1999969482421875</ele>
        <time>2023-08-19T17:09:08.000Z</time>
        <extensions>
          <ns3:TrackPointExtension>
            <ns3:hr>158</ns3:hr>
            <ns3:cad>83</ns3:cad>
          </ns3:TrackPointExtension>
        </extensions>
      </trkpt>
      <trkpt lat="42.61386687867343425750732421875" lon="2.76399962604045867919921875">
        <ele>131.1999969482421875</ele>
        <time>2023-08-19T17:09:09.000Z</time>
        <extensions>
          <ns3:TrackPointExtension>
            <ns3:hr>158</ns3:hr>
            <ns3:cad>83</ns3:cad>
          </ns3:TrackPointExtension>
        </extensions>
      </trkpt>
      <trkpt lat="42.61384877376258373260498046875" lon="2.76397523470222949981689453125">
        <ele>131.1999969482421875</ele>
        <time>2023-08-19T17:09:10.000Z</time>
        <extensions>
          <ns3:TrackPointExtension>
            <ns3:hr>158</ns3:hr>
            <ns3:cad>84</ns3:cad>
          </ns3:TrackPointExtension>
        </extensions>
      </trkpt>
      <trkpt lat="42.61382480151951313018798828125" lon="2.76395243592560291290283203125">
        <ele>131.1999969482421875</ele>
        <time>2023-08-19T17:09:11.000Z</time>
        <extensions>
          <ns3:TrackPointExtension>
            <ns3:hr>158</ns3:hr>
            <ns3:cad>84</ns3:cad>
          </ns3:TrackPointExtension>
        </extensions>
      </trkpt>
      <trkpt lat="42.6137982308864593505859375" lon="2.76392276398837566375732421875">
        <ele>131.1999969482421875</ele>
        <time>2023-08-19T17:09:12.000Z</time>
        <extensions>
          <ns3:TrackPointExtension>
            <ns3:hr>157</ns3:hr>
            <ns3:cad>84</ns3:cad>
          </ns3:TrackPointExtension>
        </extensions>
      </trkpt>
      <trkpt lat="42.61378054507076740264892578125" lon="2.76389996521174907684326171875">
        <ele>131.399993896484375</ele>
        <time>2023-08-19T17:09:13.000Z</time>
        <extensions>
          <ns3:TrackPointExtension>
            <ns3:hr>157</ns3:hr>
            <ns3:cad>84</ns3:cad>
          </ns3:TrackPointExtension>
        </extensions>
      </trkpt>
      <trkpt lat="42.6137578301131725311279296875" lon="2.76386895217001438140869140625">
        <ele>131.399993896484375</ele>
        <time>2023-08-19T17:09:14.000Z</time>
        <extensions>
          <ns3:TrackPointExtension>
            <ns3:hr>157</ns3:hr>
            <ns3:cad>84</ns3:cad>
          </ns3:TrackPointExtension>
        </extensions>
      </trkpt>
      <trkpt lat="42.61374165304005146026611328125" lon="2.76384271681308746337890625">
        <ele>131.399993896484375</ele>
        <time>2023-08-19T17:09:15.000Z</time>
        <extensions>
          <ns3:TrackPointExtension>
            <ns3:hr>157</ns3:hr>
            <ns3:cad>84</ns3:cad>
          </ns3:TrackPointExtension>
        </extensions>
      </trkpt>
      <trkpt lat="42.61371868662536144256591796875" lon="2.7638137154281139373779296875">
        <ele>131.399993896484375</ele>
        <time>2023-08-19T17:09:16.000Z</time>
        <extensions>
          <ns3:TrackPointExtension>
            <ns3:hr>157</ns3:hr>
            <ns3:cad>84</ns3:cad>
          </ns3:TrackPointExtension>
        </extensions>
      </trkpt>
      <trkpt lat="42.61369739659130573272705078125" lon="2.76378362439572811126708984375">
        <ele>131.399993896484375</ele>
        <time>2023-08-19T17:09:17.000Z</time>
        <extensions>
          <ns3:TrackPointExtension>
            <ns3:hr>157</ns3:hr>
            <ns3:cad>84</ns3:cad>
          </ns3:TrackPointExtension>
        </extensions>
      </trkpt>
      <trkpt lat="42.6136807166039943695068359375" lon="2.76375998742878437042236328125">
        <ele>131.399993896484375</ele>
        <time>2023-08-19T17:09:18.000Z</time>
        <extensions>
          <ns3:TrackPointExtension>
            <ns3:hr>156</ns3:hr>
            <ns3:cad>84</ns3:cad>
          </ns3:TrackPointExtension>
        </extensions>
      </trkpt>
      <trkpt lat="42.613659761846065521240234375" lon="2.76372713036835193634033203125">
        <ele>131.600006103515625</ele>
        <time>2023-08-19T17:09:19.000Z</time>
        <extensions>
          <ns3:TrackPointExtension>
            <ns3:hr>156</ns3:hr>
            <ns3:cad>84</ns3:cad>
          </ns3:TrackPointExtension>
        </extensions>
      </trkpt>
      <trkpt lat="42.6136448420584201812744140625" lon="2.76370114646852016448974609375">
        <ele>131.600006103515625</ele>
        <time>2023-08-19T17:09:20.000Z</time>
        <extensions>
          <ns3:TrackPointExtension>
            <ns3:hr>156</ns3:hr>
            <ns3:cad>84</ns3:cad>
          </ns3:TrackPointExtension>
        </extensions>
      </trkpt>
      <trkpt lat="42.613628245890140533447265625" lon="2.763682119548320770263671875">
        <ele>131.600006103515625</ele>
        <time>2023-08-19T17:09:21.000Z</time>
        <extensions>
          <ns3:TrackPointExtension>
            <ns3:hr>156</ns3:hr>
            <ns3:cad>84</ns3:cad>
          </ns3:TrackPointExtension>
        </extensions>
      </trkpt>
      <trkpt lat="42.61360486038029193878173828125" lon="2.763653285801410675048828125">
        <ele>131.600006103515625</ele>
        <time>2023-08-19T17:09:22.000Z</time>
        <extensions>
          <ns3:TrackPointExtension>
            <ns3:hr>156</ns3:hr>
            <ns3:cad>84</ns3:cad>
          </ns3:TrackPointExtension>
        </extensions>
      </trkpt>
      <trkpt lat="42.6135848276317119598388671875" lon="2.7636279724538326263427734375">
        <ele>131.600006103515625</ele>
        <time>2023-08-19T17:09:23.000Z</time>
        <extensions>
          <ns3:TrackPointExtension>
            <ns3:hr>156</ns3:hr>
            <ns3:cad>84</ns3:cad>
          </ns3:TrackPointExtension>
        </extensions>
      </trkpt>
      <trkpt lat="42.6135583408176898956298828125" lon="2.7636055089533329010009765625">
        <ele>131.600006103515625</ele>
        <time>2023-08-19T17:09:24.000Z</time>
        <extensions>
          <ns3:TrackPointExtension>
            <ns3:hr>156</ns3:hr>
            <ns3:cad>84</ns3:cad>
          </ns3:TrackPointExtension>
        </extensions>
      </trkpt>
      <trkpt lat="42.6135321892797946929931640625" lon="2.763587571680545806884765625">
        <ele>131.399993896484375</ele>
        <time>2023-08-19T17:09:25.000Z</time>
        <extensions>
          <ns3:TrackPointExtension>
            <ns3:hr>156</ns3:hr>
            <ns3:cad>83</ns3:cad>
          </ns3:TrackPointExtension>
        </extensions>
      </trkpt>
      <trkpt lat="42.61350830085575580596923828125" lon="2.76357608847320079803466796875">
        <ele>131.399993896484375</ele>
        <time>2023-08-19T17:09:26.000Z</time>
        <extensions>
          <ns3:TrackPointExtension>
            <ns3:hr>156</ns3:hr>
            <ns3:cad>83</ns3:cad>
          </ns3:TrackPointExtension>
        </extensions>
      </trkpt>
      <trkpt lat="42.613476030528545379638671875" lon="2.76355681009590625762939453125">
        <ele>131.1999969482421875</ele>
        <time>2023-08-19T17:09:27.000Z</time>
        <extensions>
          <ns3:TrackPointExtension>
            <ns3:hr>156</ns3:hr>
            <ns3:cad>83</ns3:cad>
          </ns3:TrackPointExtension>
        </extensions>
      </trkpt>
      <trkpt lat="42.61345155537128448486328125" lon="2.763547338545322418212890625">
        <ele>131.1999969482421875</ele>
        <time>2023-08-19T17:09:28.000Z</time>
        <extensions>
          <ns3:TrackPointExtension>
            <ns3:hr>156</ns3:hr>
            <ns3:cad>84</ns3:cad>
          </ns3:TrackPointExtension>
        </extensions>
      </trkpt>
      <trkpt lat="42.613419704139232635498046875" lon="2.7635334245860576629638671875">
        <ele>131.1999969482421875</ele>
        <time>2023-08-19T17:09:29.000Z</time>
        <extensions>
          <ns3:TrackPointExtension>
            <ns3:hr>156</ns3:hr>
            <ns3:cad>84</ns3:cad>
          </ns3:TrackPointExtension>
        </extensions>
      </trkpt>
      <trkpt lat="42.6133905351161956787109375" lon="2.76352345012128353118896484375">
        <ele>131.1999969482421875</ele>
        <time>2023-08-19T17:09:30.000Z</time>
        <extensions>
          <ns3:TrackPointExtension>
            <ns3:hr>156</ns3:hr>
            <ns3:cad>84</ns3:cad>
          </ns3:TrackPointExtension>
        </extensions>
      </trkpt>
      <trkpt lat="42.61336111463606357574462890625" lon="2.76352043263614177703857421875">
        <ele>131</ele>
        <time>2023-08-19T17:09:31.000Z</time>
        <extensions>
          <ns3:TrackPointExtension>
            <ns3:hr>156</ns3:hr>
            <ns3:cad>84</ns3:cad>
          </ns3:TrackPointExtension>
        </extensions>
      </trkpt>
      <trkpt lat="42.613326497375965118408203125" lon="2.76351775042712688446044921875">
        <ele>131</ele>
        <time>2023-08-19T17:09:32.000Z</time>
        <extensions>
          <ns3:TrackPointExtension>
            <ns3:hr>156</ns3:hr>
            <ns3:cad>85</ns3:cad>
          </ns3:TrackPointExtension>
        </extensions>
      </trkpt>
      <trkpt lat="42.61329841800034046173095703125" lon="2.76352294720709323883056640625">
        <ele>131</ele>
        <time>2023-08-19T17:09:33.000Z</time>
        <extensions>
          <ns3:TrackPointExtension>
            <ns3:hr>156</ns3:hr>
            <ns3:cad>85</ns3:cad>
          </ns3:TrackPointExtension>
        </extensions>
      </trkpt>
      <trkpt lat="42.61326916515827178955078125" lon="2.7635273896157741546630859375">
        <ele>131</ele>
        <time>2023-08-19T17:09:34.000Z</time>
        <extensions>
          <ns3:TrackPointExtension>
            <ns3:hr>156</ns3:hr>
            <ns3:cad>85</ns3:cad>
          </ns3:TrackPointExtension>
        </extensions>
      </trkpt>
      <trkpt lat="42.6132435165345668792724609375" lon="2.76353417895734310150146484375">
        <ele>131.1999969482421875</ele>
        <time>2023-08-19T17:09:35.000Z</time>
        <extensions>
          <ns3:TrackPointExtension>
            <ns3:hr>156</ns3:hr>
            <ns3:cad>85</ns3:cad>
          </ns3:TrackPointExtension>
        </extensions>
      </trkpt>
      <trkpt lat="42.61321476660668849945068359375" lon="2.76354574598371982574462890625">
        <ele>131.1999969482421875</ele>
        <time>2023-08-19T17:09:36.000Z</time>
        <extensions>
          <ns3:TrackPointExtension>
            <ns3:hr>156</ns3:hr>
            <ns3:cad>85</ns3:cad>
          </ns3:TrackPointExtension>
        </extensions>
      </trkpt>
      <trkpt lat="42.61318962089717388153076171875" lon="2.7635590732097625732421875">
        <ele>131.1999969482421875</ele>
        <time>2023-08-19T17:09:37.000Z</time>
        <extensions>
          <ns3:TrackPointExtension>
            <ns3:hr>156</ns3:hr>
            <ns3:cad>85</ns3:cad>
          </ns3:TrackPointExtension>
        </extensions>
      </trkpt>
      <trkpt lat="42.613163553178310394287109375" lon="2.76357575319707393646240234375">
        <ele>131.1999969482421875</ele>
        <time>2023-08-19T17:09:38.000Z</time>
        <extensions>
          <ns3:TrackPointExtension>
            <ns3:hr>156</ns3:hr>
            <ns3:cad>85</ns3:cad>
          </ns3:TrackPointExtension>
        </extensions>
      </trkpt>
      <trkpt lat="42.6131332106888294219970703125" lon="2.76358799077570438385009765625">
        <ele>131.1999969482421875</ele>
        <time>2023-08-19T17:09:39.000Z</time>
        <extensions>
          <ns3:TrackPointExtension>
            <ns3:hr>156</ns3:hr>
            <ns3:cad>85</ns3:cad>
          </ns3:TrackPointExtension>
        </extensions>
      </trkpt>
      <trkpt lat="42.61310957372188568115234375" lon="2.76359821669757366180419921875">
        <ele>131.1999969482421875</ele>
        <time>2023-08-19T17:09:40.000Z</time>
        <extensions>
          <ns3:TrackPointExtension>
            <ns3:hr>156</ns3:hr>
            <ns3:cad>85</ns3:cad>
          </ns3:TrackPointExtension>
        </extensions>
      </trkpt>
      <trkpt lat="42.61308484710752964019775390625" lon="2.76360995136201381683349609375">
        <ele>131.1999969482421875</ele>
        <time>2023-08-19T17:09:41.000Z</time>
        <extensions>
          <ns3:TrackPointExtension>
            <ns3:hr>156</ns3:hr>
            <ns3:cad>84</ns3:cad>
          </ns3:TrackPointExtension>
        </extensions>
      </trkpt>
      <trkpt lat="42.61305886320769786834716796875" lon="2.7636175788938999176025390625">
        <ele>131.399993896484375</ele>
        <time>2023-08-19T17:09:42.000Z</time>
        <extensions>
          <ns3:TrackPointExtension>
            <ns3:hr>156</ns3:hr>
            <ns3:cad>84</ns3:cad>
          </ns3:TrackPointExtension>
        </extensions>
      </trkpt>
      <trkpt lat="42.61303572915494441986083984375" lon="2.7636289782822132110595703125">
        <ele>131.399993896484375</ele>
        <time>2023-08-19T17:09:43.000Z</time>
        <extensions>
          <ns3:TrackPointExtension>
            <ns3:hr>156</ns3:hr>
            <ns3:cad>84</ns3:cad>
          </ns3:TrackPointExtension>
        </extensions>
      </trkpt>
      <trkpt lat="42.61300672776997089385986328125" lon="2.763637192547321319580078125">
        <ele>131.399993896484375</ele>
        <time>2023-08-19T17:09:44.000Z</time>
        <extensions>
          <ns3:TrackPointExtension>
            <ns3:hr>156</ns3:hr>
            <ns3:cad>84</ns3:cad>
          </ns3:TrackPointExtension>
        </extensions>
      </trkpt>
      <trkpt lat="42.6129803247749805450439453125" lon="2.76364381425082683563232421875">
        <ele>131.600006103515625</ele>
        <time>2023-08-19T17:09:45.000Z</time>
        <extensions>
          <ns3:TrackPointExtension>
            <ns3:hr>156</ns3:hr>
            <ns3:cad>84</ns3:cad>
          </ns3:TrackPointExtension>
        </extensions>
      </trkpt>
      <trkpt lat="42.612952329218387603759765625" lon="2.76365135796368122100830078125">
        <ele>131.600006103515625</ele>
        <time>2023-08-19T17:09:46.000Z</time>
        <extensions>
          <ns3:TrackPointExtension>
            <ns3:hr>156</ns3:hr>
            <ns3:cad>83</ns3:cad>
          </ns3:TrackPointExtension>
        </extensions>
      </trkpt>
      <trkpt lat="42.61292089708149433135986328125" lon="2.7636457420885562896728515625">
        <ele>131.600006103515625</ele>
        <time>2023-08-19T17:09:47.000Z</time>
        <extensions>
          <ns3:TrackPointExtension>
            <ns3:hr>156</ns3:hr>
            <ns3:cad>84</ns3:cad>
          </ns3:TrackPointExtension>
        </extensions>
      </trkpt>
      <trkpt lat="42.6128931529819965362548828125" lon="2.76365068741142749786376953125">
        <ele>131.600006103515625</ele>
        <time>2023-08-19T17:09:48.000Z</time>
        <extensions>
          <ns3:TrackPointExtension>
            <ns3:hr>156</ns3:hr>
            <ns3:cad>84</ns3:cad>
          </ns3:TrackPointExtension>
        </extensions>
      </trkpt>
      <trkpt lat="42.6128623075783252716064453125" lon="2.76365554891526699066162109375">
        <ele>131.8000030517578125</ele>
        <time>2023-08-19T17:09:49.000Z</time>
        <extensions>
          <ns3:TrackPointExtension>
            <ns3:hr>156</ns3:hr>
            <ns3:cad>84</ns3:cad>
          </ns3:TrackPointExtension>
        </extensions>
      </trkpt>
      <trkpt lat="42.6128361560404300689697265625" lon="2.7636609971523284912109375">
        <ele>132</ele>
        <time>2023-08-19T17:09:50.000Z</time>
        <extensions>
          <ns3:TrackPointExtension>
            <ns3:hr>156</ns3:hr>
            <ns3:cad>84</ns3:cad>
          </ns3:TrackPointExtension>
        </extensions>
      </trkpt>
      <trkpt lat="42.61281193234026432037353515625" lon="2.7636698819696903228759765625">
        <ele>132</ele>
        <time>2023-08-19T17:09:51.000Z</time>
        <extensions>
          <ns3:TrackPointExtension>
            <ns3:hr>156</ns3:hr>
            <ns3:cad>84</ns3:cad>
          </ns3:TrackPointExtension>
        </extensions>
      </trkpt>
      <trkpt lat="42.6127861998975276947021484375" lon="2.7636782638728618621826171875">
        <ele>132.1999969482421875</ele>
        <time>2023-08-19T17:09:52.000Z</time>
        <extensions>
          <ns3:TrackPointExtension>
            <ns3:hr>156</ns3:hr>
            <ns3:cad>84</ns3:cad>
          </ns3:TrackPointExtension>
        </extensions>
      </trkpt>
      <trkpt lat="42.61275954544544219970703125" lon="2.7636903338134288787841796875">
        <ele>132.1999969482421875</ele>
        <time>2023-08-19T17:09:53.000Z</time>
        <extensions>
          <ns3:TrackPointExtension>
            <ns3:hr>156</ns3:hr>
            <ns3:cad>84</ns3:cad>
          </ns3:TrackPointExtension>
        </extensions>
      </trkpt>
      <trkpt lat="42.61272870004177093505859375" lon="2.7637007273733615875244140625">
        <ele>132.399993896484375</ele>
        <time>2023-08-19T17:09:54.000Z</time>
        <extensions>
          <ns3:TrackPointExtension>
            <ns3:hr>156</ns3:hr>
            <ns3:cad>84</ns3:cad>
          </ns3:TrackPointExtension>
        </extensions>
      </trkpt>
      <trkpt lat="42.61270447634160518646240234375" lon="2.76371254585683345794677734375">
        <ele>132.399993896484375</ele>
        <time>2023-08-19T17:09:55.000Z</time>
        <extensions>
          <ns3:TrackPointExtension>
            <ns3:hr>156</ns3:hr>
            <ns3:cad>84</ns3:cad>
          </ns3:TrackPointExtension>
        </extensions>
      </trkpt>
      <trkpt lat="42.61267849244177341461181640625" lon="2.7637226879596710205078125">
        <ele>132.399993896484375</ele>
        <time>2023-08-19T17:09:56.000Z</time>
        <extensions>
          <ns3:TrackPointExtension>
            <ns3:hr>155</ns3:hr>
            <ns3:cad>84</ns3:cad>
          </ns3:TrackPointExtension>
        </extensions>
      </trkpt>
      <trkpt lat="42.6126551069319248199462890625" lon="2.76373006403446197509765625">
        <ele>132.600006103515625</ele>
        <time>2023-08-19T17:09:57.000Z</time>
        <extensions>
          <ns3:TrackPointExtension>
            <ns3:hr>155</ns3:hr>
            <ns3:cad>84</ns3:cad>
          </ns3:TrackPointExtension>
        </extensions>
      </trkpt>
      <trkpt lat="42.6126349903643131256103515625" lon="2.7637414634227752685546875">
        <ele>132.600006103515625</ele>
        <time>2023-08-19T17:09:58.000Z</time>
        <extensions>
          <ns3:TrackPointExtension>
            <ns3:hr>155</ns3:hr>
            <ns3:cad>84</ns3:cad>
          </ns3:TrackPointExtension>
        </extensions>
      </trkpt>
      <trkpt lat="42.61260976083576679229736328125" lon="2.76375328190624713897705078125">
        <ele>132.600006103515625</ele>
        <time>2023-08-19T17:09:59.000Z</time>
        <extensions>
          <ns3:TrackPointExtension>
            <ns3:hr>155</ns3:hr>
            <ns3:cad>84</ns3:cad>
          </ns3:TrackPointExtension>
        </extensions>
      </trkpt>
      <trkpt lat="42.6125873811542987823486328125" lon="2.76376367546617984771728515625">
        <ele>132.8000030517578125</ele>
        <time>2023-08-19T17:10:00.000Z</time>
        <extensions>
          <ns3:TrackPointExtension>
            <ns3:hr>156</ns3:hr>
            <ns3:cad>84</ns3:cad>
          </ns3:TrackPointExtension>
        </extensions>
      </trkpt>
      <trkpt lat="42.61256131343543529510498046875" lon="2.7637761645019054412841796875">
        <ele>132.8000030517578125</ele>
        <time>2023-08-19T17:10:01.000Z</time>
        <extensions>
          <ns3:TrackPointExtension>
            <ns3:hr>155</ns3:hr>
            <ns3:cad>84</ns3:cad>
          </ns3:TrackPointExtension>
        </extensions>
      </trkpt>
      <trkpt lat="42.61253817938268184661865234375" lon="2.76378697715699672698974609375">
        <ele>133</ele>
        <time>2023-08-19T17:10:02.000Z</time>
        <extensions>
          <ns3:TrackPointExtension>
            <ns3:hr>155</ns3:hr>
            <ns3:cad>84</ns3:cad>
          </ns3:TrackPointExtension>
        </extensions>
      </trkpt>
      <trkpt lat="42.6125149615108966827392578125" lon="2.7637989632785320281982421875">
        <ele>133</ele>
        <time>2023-08-19T17:10:03.000Z</time>
        <extensions>
          <ns3:TrackPointExtension>
            <ns3:hr>156</ns3:hr>
            <ns3:cad>84</ns3:cad>
          </ns3:TrackPointExtension>
        </extensions>
      </trkpt>
      <trkpt lat="42.6124878041446208953857421875" lon="2.76380717754364013671875">
        <ele>133.399993896484375</ele>
        <time>2023-08-19T17:10:04.000Z</time>
        <extensions>
          <ns3:TrackPointExtension>
            <ns3:hr>156</ns3:hr>
            <ns3:cad>84</ns3:cad>
          </ns3:TrackPointExtension>
        </extensions>
      </trkpt>
      <trkpt lat="42.61246358044445514678955078125" lon="2.7638150565326213836669921875">
        <ele>133.399993896484375</ele>
        <time>2023-08-19T17:10:05.000Z</time>
        <extensions>
          <ns3:TrackPointExtension>
            <ns3:hr>156</ns3:hr>
            <ns3:cad>84</ns3:cad>
          </ns3:TrackPointExtension>
        </extensions>
      </trkpt>
      <trkpt lat="42.61243759654462337493896484375" lon="2.76382603682577610015869140625">
        <ele>133.399993896484375</ele>
        <time>2023-08-19T17:10:06.000Z</time>
        <extensions>
          <ns3:TrackPointExtension>
            <ns3:hr>156</ns3:hr>
            <ns3:cad>84</ns3:cad>
          </ns3:TrackPointExtension>
        </extensions>
      </trkpt>
      <trkpt lat="42.61240976862609386444091796875" lon="2.76383961550891399383544921875">
        <ele>133.600006103515625</ele>
        <time>2023-08-19T17:10:07.000Z</time>
        <extensions>
          <ns3:TrackPointExtension>
            <ns3:hr>156</ns3:hr>
            <ns3:cad>83</ns3:cad>
          </ns3:TrackPointExtension>
        </extensions>
      </trkpt>
      <trkpt lat="42.61239199899137020111083984375" lon="2.7638536132872104644775390625">
        <ele>133.600006103515625</ele>
        <time>2023-08-19T17:10:08.000Z</time>
        <extensions>
          <ns3:TrackPointExtension>
            <ns3:hr>156</ns3:hr>
            <ns3:cad>83</ns3:cad>
          </ns3:TrackPointExtension>
        </extensions>
      </trkpt>
      <trkpt lat="42.61236886493861675262451171875" lon="2.76386191137135028839111328125">
        <ele>133.8000030517578125</ele>
        <time>2023-08-19T17:10:09.000Z</time>
        <extensions>
          <ns3:TrackPointExtension>
            <ns3:hr>156</ns3:hr>
            <ns3:cad>83</ns3:cad>
          </ns3:TrackPointExtension>
        </extensions>
      </trkpt>
      <trkpt lat="42.61234807781875133514404296875" lon="2.76386727578938007354736328125">
        <ele>133.8000030517578125</ele>
        <time>2023-08-19T17:10:10.000Z</time>
        <extensions>
          <ns3:TrackPointExtension>
            <ns3:hr>156</ns3:hr>
            <ns3:cad>82</ns3:cad>
          </ns3:TrackPointExtension>
        </extensions>
      </trkpt>
      <trkpt lat="42.612326033413410186767578125" lon="2.76387683115899562835693359375">
        <ele>134.1999969482421875</ele>
        <time>2023-08-19T17:10:11.000Z</time>
        <extensions>
          <ns3:TrackPointExtension>
            <ns3:hr>156</ns3:hr>
            <ns3:cad>82</ns3:cad>
          </ns3:TrackPointExtension>
        </extensions>
      </trkpt>
      <trkpt lat="42.6123007200658321380615234375" lon="2.763883955776691436767578125">
        <ele>134.600006103515625</ele>
        <time>2023-08-19T17:10:12.000Z</time>
        <extensions>
          <ns3:TrackPointExtension>
            <ns3:hr>156</ns3:hr>
            <ns3:cad>82</ns3:cad>
          </ns3:TrackPointExtension>
        </extensions>
      </trkpt>
      <trkpt lat="42.61227800510823726654052734375" lon="2.7638861350715160369873046875">
        <ele>134.8000030517578125</ele>
        <time>2023-08-19T17:10:13.000Z</time>
        <extensions>
          <ns3:TrackPointExtension>
            <ns3:hr>156</ns3:hr>
            <ns3:cad>82</ns3:cad>
          </ns3:TrackPointExtension>
        </extensions>
      </trkpt>
      <trkpt lat="42.61225529015064239501953125" lon="2.7638904936611652374267578125">
        <ele>134.8000030517578125</ele>
        <time>2023-08-19T17:10:14.000Z</time>
        <extensions>
          <ns3:TrackPointExtension>
            <ns3:hr>156</ns3:hr>
            <ns3:cad>82</ns3:cad>
          </ns3:TrackPointExtension>
        </extensions>
      </trkpt>
      <trkpt lat="42.61222980916500091552734375" lon="2.76388965547084808349609375">
        <ele>135</ele>
        <time>2023-08-19T17:10:15.000Z</time>
        <extensions>
          <ns3:TrackPointExtension>
            <ns3:hr>156</ns3:hr>
            <ns3:cad>82</ns3:cad>
          </ns3:TrackPointExtension>
        </extensions>
      </trkpt>
      <trkpt lat="42.61220944114029407501220703125" lon="2.7638878114521503448486328125">
        <ele>135.1999969482421875</ele>
        <time>2023-08-19T17:10:16.000Z</time>
        <extensions>
          <ns3:TrackPointExtension>
            <ns3:hr>156</ns3:hr>
            <ns3:cad>82</ns3:cad>
          </ns3:TrackPointExtension>
        </extensions>
      </trkpt>
      <trkpt lat="42.612181194126605987548828125" lon="2.76388353668153285980224609375">
        <ele>135.1999969482421875</ele>
        <time>2023-08-19T17:10:17.000Z</time>
        <extensions>
          <ns3:TrackPointExtension>
            <ns3:hr>156</ns3:hr>
            <ns3:cad>82</ns3:cad>
          </ns3:TrackPointExtension>
        </extensions>
      </trkpt>
      <trkpt lat="42.61215965263545513153076171875" lon="2.7638777531683444976806640625">
        <ele>135.399993896484375</ele>
        <time>2023-08-19T17:10:18.000Z</time>
        <extensions>
          <ns3:TrackPointExtension>
            <ns3:hr>156</ns3:hr>
            <ns3:cad>82</ns3:cad>
          </ns3:TrackPointExtension>
        </extensions>
      </trkpt>
      <trkpt lat="42.61213819496333599090576171875" lon="2.76387481950223445892333984375">
        <ele>135.8000030517578125</ele>
        <time>2023-08-19T17:10:19.000Z</time>
        <extensions>
          <ns3:TrackPointExtension>
            <ns3:hr>156</ns3:hr>
            <ns3:cad>82</ns3:cad>
          </ns3:TrackPointExtension>
        </extensions>
      </trkpt>
      <trkpt lat="42.6121106185019016265869140625" lon="2.76386392302811145782470703125">
        <ele>136.1999969482421875</ele>
        <time>2023-08-19T17:10:20.000Z</time>
        <extensions>
          <ns3:TrackPointExtension>
            <ns3:hr>156</ns3:hr>
            <ns3:cad>82</ns3:cad>
          </ns3:TrackPointExtension>
        </extensions>
      </trkpt>
      <trkpt lat="42.61208756826817989349365234375" lon="2.76385336183011531829833984375">
        <ele>136.399993896484375</ele>
        <time>2023-08-19T17:10:21.000Z</time>
        <extensions>
          <ns3:TrackPointExtension>
            <ns3:hr>156</ns3:hr>
            <ns3:cad>82</ns3:cad>
          </ns3:TrackPointExtension>
        </extensions>
      </trkpt>
      <trkpt lat="42.61205990798771381378173828125" lon="2.7638433873653411865234375">
        <ele>136.399993896484375</ele>
        <time>2023-08-19T17:10:22.000Z</time>
        <extensions>
          <ns3:TrackPointExtension>
            <ns3:hr>156</ns3:hr>
            <ns3:cad>83</ns3:cad>
          </ns3:TrackPointExtension>
        </extensions>
      </trkpt>
      <trkpt lat="42.612034343183040618896484375" lon="2.7638345025479793548583984375">
        <ele>136.600006103515625</ele>
        <time>2023-08-19T17:10:23.000Z</time>
        <extensions>
          <ns3:TrackPointExtension>
            <ns3:hr>156</ns3:hr>
            <ns3:cad>83</ns3:cad>
          </ns3:TrackPointExtension>
        </extensions>
      </trkpt>
      <trkpt lat="42.6120137237012386322021484375" lon="2.76382670737802982330322265625">
        <ele>136.600006103515625</ele>
        <time>2023-08-19T17:10:24.000Z</time>
        <extensions>
          <ns3:TrackPointExtension>
            <ns3:hr>156</ns3:hr>
            <ns3:cad>83</ns3:cad>
          </ns3:TrackPointExtension>
        </extensions>
      </trkpt>
      <trkpt lat="42.6119882427155971527099609375" lon="2.76381296105682849884033203125">
        <ele>136.8000030517578125</ele>
        <time>2023-08-19T17:10:25.000Z</time>
        <extensions>
          <ns3:TrackPointExtension>
            <ns3:hr>156</ns3:hr>
            <ns3:cad>83</ns3:cad>
          </ns3:TrackPointExtension>
        </extensions>
      </trkpt>
      <trkpt lat="42.611964605748653411865234375" lon="2.76380038820207118988037109375">
        <ele>137.1999969482421875</ele>
        <time>2023-08-19T17:10:26.000Z</time>
        <extensions>
          <ns3:TrackPointExtension>
            <ns3:hr>156</ns3:hr>
            <ns3:cad>83</ns3:cad>
          </ns3:TrackPointExtension>
        </extensions>
      </trkpt>
      <trkpt lat="42.6119419746100902557373046875" lon="2.7637909166514873504638671875">
        <ele>137.399993896484375</ele>
        <time>2023-08-19T17:10:27.000Z</time>
        <extensions>
          <ns3:TrackPointExtension>
            <ns3:hr>156</ns3:hr>
            <ns3:cad>82</ns3:cad>
          </ns3:TrackPointExtension>
        </extensions>
      </trkpt>
      <trkpt lat="42.6119158230721950531005859375" lon="2.76377968490123748779296875">
        <ele>137.399993896484375</ele>
        <time>2023-08-19T17:10:28.000Z</time>
        <extensions>
          <ns3:TrackPointExtension>
            <ns3:hr>156</ns3:hr>
            <ns3:cad>82</ns3:cad>
          </ns3:TrackPointExtension>
        </extensions>
      </trkpt>
      <trkpt lat="42.611890174448490142822265625" lon="2.76376568712294101715087890625">
        <ele>137.399993896484375</ele>
        <time>2023-08-19T17:10:29.000Z</time>
        <extensions>
          <ns3:TrackPointExtension>
            <ns3:hr>157</ns3:hr>
            <ns3:cad>83</ns3:cad>
          </ns3:TrackPointExtension>
        </extensions>
      </trkpt>
      <trkpt lat="42.61186880059540271759033203125" lon="2.76375696994364261627197265625">
        <ele>137.399993896484375</ele>
        <time>2023-08-19T17:10:30.000Z</time>
        <extensions>
          <ns3:TrackPointExtension>
            <ns3:hr>157</ns3:hr>
            <ns3:cad>83</ns3:cad>
          </ns3:TrackPointExtension>
        </extensions>
      </trkpt>
      <trkpt lat="42.61184357106685638427734375" lon="2.76373534463346004486083984375">
        <ele>137.399993896484375</ele>
        <time>2023-08-19T17:10:31.000Z</time>
        <extensions>
          <ns3:TrackPointExtension>
            <ns3:hr>157</ns3:hr>
            <ns3:cad>83</ns3:cad>
          </ns3:TrackPointExtension>
        </extensions>
      </trkpt>
      <trkpt lat="42.6118179224431514739990234375" lon="2.7637164853513240814208984375">
        <ele>137.399993896484375</ele>
        <time>2023-08-19T17:10:32.000Z</time>
        <extensions>
          <ns3:TrackPointExtension>
            <ns3:hr>158</ns3:hr>
            <ns3:cad>83</ns3:cad>
          </ns3:TrackPointExtension>
        </extensions>
      </trkpt>
      <trkpt lat="42.61178850196301937103271484375" lon="2.76369242928922176361083984375">
        <ele>137.399993896484375</ele>
        <time>2023-08-19T17:10:33.000Z</time>
        <extensions>
          <ns3:TrackPointExtension>
            <ns3:hr>158</ns3:hr>
            <ns3:cad>83</ns3:cad>
          </ns3:TrackPointExtension>
        </extensions>
      </trkpt>
      <trkpt lat="42.61176444590091705322265625" lon="2.76367248035967350006103515625">
        <ele>137.399993896484375</ele>
        <time>2023-08-19T17:10:34.000Z</time>
        <extensions>
          <ns3:TrackPointExtension>
            <ns3:hr>158</ns3:hr>
            <ns3:cad>83</ns3:cad>
          </ns3:TrackPointExtension>
        </extensions>
      </trkpt>
      <trkpt lat="42.611740641295909881591796875" lon="2.76364750228822231292724609375">
        <ele>137.399993896484375</ele>
        <time>2023-08-19T17:10:35.000Z</time>
        <extensions>
          <ns3:TrackPointExtension>
            <ns3:hr>158</ns3:hr>
            <ns3:cad>83</ns3:cad>
          </ns3:TrackPointExtension>
        </extensions>
      </trkpt>
      <trkpt lat="42.6117237098515033721923828125" lon="2.76361414231359958648681640625">
        <ele>137.399993896484375</ele>
        <time>2023-08-19T17:10:36.000Z</time>
        <extensions>
          <ns3:TrackPointExtension>
            <ns3:hr>158</ns3:hr>
            <ns3:cad>83</ns3:cad>
          </ns3:TrackPointExtension>
        </extensions>
      </trkpt>
      <trkpt lat="42.61170451529324054718017578125" lon="2.76358648203313350677490234375">
        <ele>137.399993896484375</ele>
        <time>2023-08-19T17:10:37.000Z</time>
        <extensions>
          <ns3:TrackPointExtension>
            <ns3:hr>159</ns3:hr>
            <ns3:cad>83</ns3:cad>
          </ns3:TrackPointExtension>
        </extensions>
      </trkpt>
      <trkpt lat="42.6116861589252948760986328125" lon="2.76355572044849395751953125">
        <ele>137.600006103515625</ele>
        <time>2023-08-19T17:10:38.000Z</time>
        <extensions>
          <ns3:TrackPointExtension>
            <ns3:hr>159</ns3:hr>
            <ns3:cad>83</ns3:cad>
          </ns3:TrackPointExtension>
        </extensions>
      </trkpt>
      <trkpt lat="42.61167232878506183624267578125" lon="2.7635267190635204315185546875">
        <ele>137.600006103515625</ele>
        <time>2023-08-19T17:10:39.000Z</time>
        <extensions>
          <ns3:TrackPointExtension>
            <ns3:hr>159</ns3:hr>
            <ns3:cad>83</ns3:cad>
          </ns3:TrackPointExtension>
        </extensions>
      </trkpt>
      <trkpt lat="42.61165774427354335784912109375" lon="2.76349545456469058990478515625">
        <ele>137.600006103515625</ele>
        <time>2023-08-19T17:10:40.000Z</time>
        <extensions>
          <ns3:TrackPointExtension>
            <ns3:hr>159</ns3:hr>
            <ns3:cad>83</ns3:cad>
          </ns3:TrackPointExtension>
        </extensions>
      </trkpt>
      <trkpt lat="42.6116459257900714874267578125" lon="2.76345388032495975494384765625">
        <ele>137.600006103515625</ele>
        <time>2023-08-19T17:10:41.000Z</time>
        <extensions>
          <ns3:TrackPointExtension>
            <ns3:hr>159</ns3:hr>
            <ns3:cad>83</ns3:cad>
          </ns3:TrackPointExtension>
        </extensions>
      </trkpt>
      <trkpt lat="42.61163628660142421722412109375" lon="2.76342554949223995208740234375">
        <ele>137.600006103515625</ele>
        <time>2023-08-19T17:10:42.000Z</time>
        <extensions>
          <ns3:TrackPointExtension>
            <ns3:hr>159</ns3:hr>
            <ns3:cad>83</ns3:cad>
          </ns3:TrackPointExtension>
        </extensions>
      </trkpt>
      <trkpt lat="42.61162438429892063140869140625" lon="2.76339478790760040283203125">
        <ele>137.8000030517578125</ele>
        <time>2023-08-19T17:10:43.000Z</time>
        <extensions>
          <ns3:TrackPointExtension>
            <ns3:hr>160</ns3:hr>
            <ns3:cad>83</ns3:cad>
          </ns3:TrackPointExtension>
        </extensions>
      </trkpt>
      <trkpt lat="42.61161030270159244537353515625" lon="2.763363607227802276611328125">
        <ele>137.8000030517578125</ele>
        <time>2023-08-19T17:10:44.000Z</time>
        <extensions>
          <ns3:TrackPointExtension>
            <ns3:hr>160</ns3:hr>
            <ns3:cad>83</ns3:cad>
          </ns3:TrackPointExtension>
        </extensions>
      </trkpt>
      <trkpt lat="42.611595131456851959228515625" lon="2.7633403055369853973388671875">
        <ele>137.8000030517578125</ele>
        <time>2023-08-19T17:10:45.000Z</time>
        <extensions>
          <ns3:TrackPointExtension>
            <ns3:hr>160</ns3:hr>
            <ns3:cad>83</ns3:cad>
          </ns3:TrackPointExtension>
        </extensions>
      </trkpt>
      <trkpt lat="42.6115755178034305572509765625" lon="2.76330568827688694000244140625">
        <ele>137.8000030517578125</ele>
        <time>2023-08-19T17:10:46.000Z</time>
        <extensions>
          <ns3:TrackPointExtension>
            <ns3:hr>160</ns3:hr>
            <ns3:cad>83</ns3:cad>
          </ns3:TrackPointExtension>
        </extensions>
      </trkpt>
      <trkpt lat="42.61156017892062664031982421875" lon="2.7632742561399936676025390625">
        <ele>137.8000030517578125</ele>
        <time>2023-08-19T17:10:47.000Z</time>
        <extensions>
          <ns3:TrackPointExtension>
            <ns3:hr>160</ns3:hr>
            <ns3:cad>83</ns3:cad>
          </ns3:TrackPointExtension>
        </extensions>
      </trkpt>
      <trkpt lat="42.61154442094266414642333984375" lon="2.7632474340498447418212890625">
        <ele>137.8000030517578125</ele>
        <time>2023-08-19T17:10:48.000Z</time>
        <extensions>
          <ns3:TrackPointExtension>
            <ns3:hr>160</ns3:hr>
            <ns3:cad>83</ns3:cad>
          </ns3:TrackPointExtension>
        </extensions>
      </trkpt>
      <trkpt lat="42.61153151281177997589111328125" lon="2.763219438493251800537109375">
        <ele>137.8000030517578125</ele>
        <time>2023-08-19T17:10:49.000Z</time>
        <extensions>
          <ns3:TrackPointExtension>
            <ns3:hr>161</ns3:hr>
            <ns3:cad>83</ns3:cad>
          </ns3:TrackPointExtension>
        </extensions>
      </trkpt>
      <trkpt lat="42.61152036488056182861328125" lon="2.763195298612117767333984375">
        <ele>137.8000030517578125</ele>
        <time>2023-08-19T17:10:50.000Z</time>
        <extensions>
          <ns3:TrackPointExtension>
            <ns3:hr>161</ns3:hr>
            <ns3:cad>82</ns3:cad>
          </ns3:TrackPointExtension>
        </extensions>
      </trkpt>
      <trkpt lat="42.61150670237839221954345703125" lon="2.76316973380744457244873046875">
        <ele>137.8000030517578125</ele>
        <time>2023-08-19T17:10:51.000Z</time>
        <extensions>
          <ns3:TrackPointExtension>
            <ns3:hr>160</ns3:hr>
            <ns3:cad>82</ns3:cad>
          </ns3:TrackPointExtension>
        </extensions>
      </trkpt>
      <trkpt lat="42.61149211786687374114990234375" lon="2.76314198970794677734375">
        <ele>137.8000030517578125</ele>
        <time>2023-08-19T17:10:52.000Z</time>
        <extensions>
          <ns3:TrackPointExtension>
            <ns3:hr>160</ns3:hr>
            <ns3:cad>82</ns3:cad>
          </ns3:TrackPointExtension>
        </extensions>
      </trkpt>
      <trkpt lat="42.61147954501211643218994140625" lon="2.76311927475035190582275390625">
        <ele>138</ele>
        <time>2023-08-19T17:10:53.000Z</time>
        <extensions>
          <ns3:TrackPointExtension>
            <ns3:hr>160</ns3:hr>
            <ns3:cad>82</ns3:cad>
          </ns3:TrackPointExtension>
        </extensions>
      </trkpt>
      <trkpt lat="42.61146328411996364593505859375" lon="2.7630878426134586334228515625">
        <ele>138</ele>
        <time>2023-08-19T17:10:54.000Z</time>
        <extensions>
          <ns3:TrackPointExtension>
            <ns3:hr>160</ns3:hr>
            <ns3:cad>82</ns3:cad>
          </ns3:TrackPointExtension>
        </extensions>
      </trkpt>
      <trkpt lat="42.61144953779876232147216796875" lon="2.76306009851396083831787109375">
        <ele>138</ele>
        <time>2023-08-19T17:10:55.000Z</time>
        <extensions>
          <ns3:TrackPointExtension>
            <ns3:hr>160</ns3:hr>
            <ns3:cad>82</ns3:cad>
          </ns3:TrackPointExtension>
        </extensions>
      </trkpt>
      <trkpt lat="42.6114333607256412506103515625" lon="2.76303528808057308197021484375">
        <ele>138.1999969482421875</ele>
        <time>2023-08-19T17:10:56.000Z</time>
        <extensions>
          <ns3:TrackPointExtension>
            <ns3:hr>159</ns3:hr>
            <ns3:cad>82</ns3:cad>
          </ns3:TrackPointExtension>
        </extensions>
      </trkpt>
      <trkpt lat="42.6114159263670444488525390625" lon="2.76300243102014064788818359375">
        <ele>138.1999969482421875</ele>
        <time>2023-08-19T17:10:57.000Z</time>
        <extensions>
          <ns3:TrackPointExtension>
            <ns3:hr>160</ns3:hr>
            <ns3:cad>82</ns3:cad>
          </ns3:TrackPointExtension>
        </extensions>
      </trkpt>
      <trkpt lat="42.61140209622681140899658203125" lon="2.762973010540008544921875">
        <ele>138.1999969482421875</ele>
        <time>2023-08-19T17:10:58.000Z</time>
        <extensions>
          <ns3:TrackPointExtension>
            <ns3:hr>160</ns3:hr>
            <ns3:cad>82</ns3:cad>
          </ns3:TrackPointExtension>
        </extensions>
      </trkpt>
      <trkpt lat="42.61138700880110263824462890625" lon="2.762943170964717864990234375">
        <ele>138.1999969482421875</ele>
        <time>2023-08-19T17:10:59.000Z</time>
        <extensions>
          <ns3:TrackPointExtension>
            <ns3:hr>160</ns3:hr>
            <ns3:cad>82</ns3:cad>
          </ns3:TrackPointExtension>
        </extensions>
      </trkpt>
      <trkpt lat="42.61137426830828189849853515625" lon="2.7629134990274906158447265625">
        <ele>138.1999969482421875</ele>
        <time>2023-08-19T17:11:00.000Z</time>
        <extensions>
          <ns3:TrackPointExtension>
            <ns3:hr>159</ns3:hr>
            <ns3:cad>82</ns3:cad>
          </ns3:TrackPointExtension>
        </extensions>
      </trkpt>
      <trkpt lat="42.61136203072965145111083984375" lon="2.7628846652805805206298828125">
        <ele>138.1999969482421875</ele>
        <time>2023-08-19T17:11:01.000Z</time>
        <extensions>
          <ns3:TrackPointExtension>
            <ns3:hr>159</ns3:hr>
            <ns3:cad>82</ns3:cad>
          </ns3:TrackPointExtension>
        </extensions>
      </trkpt>
      <trkpt lat="42.611347027122974395751953125" lon="2.76285256259143352508544921875">
        <ele>138.399993896484375</ele>
        <time>2023-08-19T17:11:02.000Z</time>
        <extensions>
          <ns3:TrackPointExtension>
            <ns3:hr>159</ns3:hr>
            <ns3:cad>82</ns3:cad>
          </ns3:TrackPointExtension>
        </extensions>
      </trkpt>
      <trkpt lat="42.61133654974400997161865234375" lon="2.762821801006793975830078125">
        <ele>138.600006103515625</ele>
        <time>2023-08-19T17:11:03.000Z</time>
        <extensions>
          <ns3:TrackPointExtension>
            <ns3:hr>159</ns3:hr>
            <ns3:cad>82</ns3:cad>
          </ns3:TrackPointExtension>
        </extensions>
      </trkpt>
      <trkpt lat="42.6113254018127918243408203125" lon="2.76279405690729618072509765625">
        <ele>138.600006103515625</ele>
        <time>2023-08-19T17:11:04.000Z</time>
        <extensions>
          <ns3:TrackPointExtension>
            <ns3:hr>158</ns3:hr>
            <ns3:cad>82</ns3:cad>
          </ns3:TrackPointExtension>
        </extensions>
      </trkpt>
      <trkpt lat="42.61131039820611476898193359375" lon="2.76276044547557830810546875">
        <ele>138.600006103515625</ele>
        <time>2023-08-19T17:11:05.000Z</time>
        <extensions>
          <ns3:TrackPointExtension>
            <ns3:hr>158</ns3:hr>
            <ns3:cad>83</ns3:cad>
          </ns3:TrackPointExtension>
        </extensions>
      </trkpt>
      <trkpt lat="42.61129648424685001373291015625" lon="2.76273521594703197479248046875">
        <ele>138.8000030517578125</ele>
        <time>2023-08-19T17:11:06.000Z</time>
        <extensions>
          <ns3:TrackPointExtension>
            <ns3:hr>158</ns3:hr>
            <ns3:cad>83</ns3:cad>
          </ns3:TrackPointExtension>
        </extensions>
      </trkpt>
      <trkpt lat="42.6112798042595386505126953125" lon="2.76270872913300991058349609375">
        <ele>139</ele>
        <time>2023-08-19T17:11:07.000Z</time>
        <extensions>
          <ns3:TrackPointExtension>
            <ns3:hr>158</ns3:hr>
            <ns3:cad>83</ns3:cad>
          </ns3:TrackPointExtension>
        </extensions>
      </trkpt>
      <trkpt lat="42.6112657226622104644775390625" lon="2.76268064975738525390625">
        <ele>139</ele>
        <time>2023-08-19T17:11:08.000Z</time>
        <extensions>
          <ns3:TrackPointExtension>
            <ns3:hr>158</ns3:hr>
            <ns3:cad>83</ns3:cad>
          </ns3:TrackPointExtension>
        </extensions>
      </trkpt>
      <trkpt lat="42.61124954558908939361572265625" lon="2.76265525259077548980712890625">
        <ele>139.1999969482421875</ele>
        <time>2023-08-19T17:11:09.000Z</time>
        <extensions>
          <ns3:TrackPointExtension>
            <ns3:hr>158</ns3:hr>
            <ns3:cad>83</ns3:cad>
          </ns3:TrackPointExtension>
        </extensions>
      </trkpt>
      <trkpt lat="42.61123328469693660736083984375" lon="2.76262457482516765594482421875">
        <ele>139.399993896484375</ele>
        <time>2023-08-19T17:11:10.000Z</time>
        <extensions>
          <ns3:TrackPointExtension>
            <ns3:hr>158</ns3:hr>
            <ns3:cad>82</ns3:cad>
          </ns3:TrackPointExtension>
        </extensions>
      </trkpt>
      <trkpt lat="42.61121995747089385986328125" lon="2.7625956572592258453369140625">
        <ele>139.600006103515625</ele>
        <time>2023-08-19T17:11:11.000Z</time>
        <extensions>
          <ns3:TrackPointExtension>
            <ns3:hr>158</ns3:hr>
            <ns3:cad>82</ns3:cad>
          </ns3:TrackPointExtension>
        </extensions>
      </trkpt>
      <trkpt lat="42.61120243929326534271240234375" lon="2.76256757788360118865966796875">
        <ele>139.600006103515625</ele>
        <time>2023-08-19T17:11:12.000Z</time>
        <extensions>
          <ns3:TrackPointExtension>
            <ns3:hr>158</ns3:hr>
            <ns3:cad>82</ns3:cad>
          </ns3:TrackPointExtension>
        </extensions>
      </trkpt>
      <trkpt lat="42.611184753477573394775390625" lon="2.76253622956573963165283203125">
        <ele>139.8000030517578125</ele>
        <time>2023-08-19T17:11:13.000Z</time>
        <extensions>
          <ns3:TrackPointExtension>
            <ns3:hr>158</ns3:hr>
            <ns3:cad>82</ns3:cad>
          </ns3:TrackPointExtension>
        </extensions>
      </trkpt>
      <trkpt lat="42.61116857640445232391357421875" lon="2.76251108385622501373291015625">
        <ele>139.8000030517578125</ele>
        <time>2023-08-19T17:11:14.000Z</time>
        <extensions>
          <ns3:TrackPointExtension>
            <ns3:hr>158</ns3:hr>
            <ns3:cad>82</ns3:cad>
          </ns3:TrackPointExtension>
        </extensions>
      </trkpt>
      <trkpt lat="42.611155919730663299560546875" lon="2.7624749578535556793212890625">
        <ele>139.8000030517578125</ele>
        <time>2023-08-19T17:11:15.000Z</time>
        <extensions>
          <ns3:TrackPointExtension>
            <ns3:hr>158</ns3:hr>
            <ns3:cad>83</ns3:cad>
          </ns3:TrackPointExtension>
        </extensions>
      </trkpt>
      <trkpt lat="42.61114887893199920654296875" lon="2.76244268752634525299072265625">
        <ele>140</ele>
        <time>2023-08-19T17:11:16.000Z</time>
        <extensions>
          <ns3:TrackPointExtension>
            <ns3:hr>158</ns3:hr>
            <ns3:cad>83</ns3:cad>
          </ns3:TrackPointExtension>
        </extensions>
      </trkpt>
      <trkpt lat="42.61113974265754222869873046875" lon="2.7624156139791011810302734375">
        <ele>140.1999969482421875</ele>
        <time>2023-08-19T17:11:17.000Z</time>
        <extensions>
          <ns3:TrackPointExtension>
            <ns3:hr>158</ns3:hr>
            <ns3:cad>83</ns3:cad>
          </ns3:TrackPointExtension>
        </extensions>
      </trkpt>
      <trkpt lat="42.6111319474875926971435546875" lon="2.7623800747096538543701171875">
        <ele>140.399993896484375</ele>
        <time>2023-08-19T17:11:18.000Z</time>
        <extensions>
          <ns3:TrackPointExtension>
            <ns3:hr>158</ns3:hr>
            <ns3:cad>82</ns3:cad>
          </ns3:TrackPointExtension>
        </extensions>
      </trkpt>
      <trkpt lat="42.611125744879245758056640625" lon="2.76234746910631656646728515625">
        <ele>140.399993896484375</ele>
        <time>2023-08-19T17:11:19.000Z</time>
        <extensions>
          <ns3:TrackPointExtension>
            <ns3:hr>158</ns3:hr>
            <ns3:cad>82</ns3:cad>
          </ns3:TrackPointExtension>
        </extensions>
      </trkpt>
      <trkpt lat="42.6111182011663913726806640625" lon="2.762315534055233001708984375">
        <ele>140.600006103515625</ele>
        <time>2023-08-19T17:11:20.000Z</time>
        <extensions>
          <ns3:TrackPointExtension>
            <ns3:hr>158</ns3:hr>
            <ns3:cad>82</ns3:cad>
          </ns3:TrackPointExtension>
        </extensions>
      </trkpt>
      <trkpt lat="42.6111158542335033416748046875" lon="2.76228376664221286773681640625">
        <ele>140.600006103515625</ele>
        <time>2023-08-19T17:11:21.000Z</time>
        <extensions>
          <ns3:TrackPointExtension>
            <ns3:hr>158</ns3:hr>
            <ns3:cad>83</ns3:cad>
          </ns3:TrackPointExtension>
        </extensions>
      </trkpt>
      <trkpt lat="42.61110856197774410247802734375" lon="2.7622546814382076263427734375">
        <ele>140.600006103515625</ele>
        <time>2023-08-19T17:11:22.000Z</time>
        <extensions>
          <ns3:TrackPointExtension>
            <ns3:hr>158</ns3:hr>
            <ns3:cad>83</ns3:cad>
          </ns3:TrackPointExtension>
        </extensions>
      </trkpt>
      <trkpt lat="42.61110118590295314788818359375" lon="2.7622178010642528533935546875">
        <ele>140.600006103515625</ele>
        <time>2023-08-19T17:11:23.000Z</time>
        <extensions>
          <ns3:TrackPointExtension>
            <ns3:hr>158</ns3:hr>
            <ns3:cad>83</ns3:cad>
          </ns3:TrackPointExtension>
        </extensions>
      </trkpt>
      <trkpt lat="42.611094899475574493408203125" lon="2.76218268088996410369873046875">
        <ele>140.8000030517578125</ele>
        <time>2023-08-19T17:11:24.000Z</time>
        <extensions>
          <ns3:TrackPointExtension>
            <ns3:hr>158</ns3:hr>
            <ns3:cad>82</ns3:cad>
          </ns3:TrackPointExtension>
        </extensions>
      </trkpt>
      <trkpt lat="42.61108643375337123870849609375" lon="2.76214932091534137725830078125">
        <ele>141</ele>
        <time>2023-08-19T17:11:25.000Z</time>
        <extensions>
          <ns3:TrackPointExtension>
            <ns3:hr>158</ns3:hr>
            <ns3:cad>83</ns3:cad>
          </ns3:TrackPointExtension>
        </extensions>
      </trkpt>
      <trkpt lat="42.61107914149761199951171875" lon="2.76211344636976718902587890625">
        <ele>141</ele>
        <time>2023-08-19T17:11:26.000Z</time>
        <extensions>
          <ns3:TrackPointExtension>
            <ns3:hr>158</ns3:hr>
            <ns3:cad>83</ns3:cad>
          </ns3:TrackPointExtension>
        </extensions>
      </trkpt>
      <trkpt lat="42.6110731065273284912109375" lon="2.76208050549030303955078125">
        <ele>141.1999969482421875</ele>
        <time>2023-08-19T17:11:27.000Z</time>
        <extensions>
          <ns3:TrackPointExtension>
            <ns3:hr>158</ns3:hr>
            <ns3:cad>83</ns3:cad>
          </ns3:TrackPointExtension>
        </extensions>
      </trkpt>
      <trkpt lat="42.61106514371931552886962890625" lon="2.76204873807728290557861328125">
        <ele>141.1999969482421875</ele>
        <time>2023-08-19T17:11:28.000Z</time>
        <extensions>
          <ns3:TrackPointExtension>
            <ns3:hr>158</ns3:hr>
            <ns3:cad>82</ns3:cad>
          </ns3:TrackPointExtension>
        </extensions>
      </trkpt>
      <trkpt lat="42.6110578514635562896728515625" lon="2.76201345026493072509765625">
        <ele>141.399993896484375</ele>
        <time>2023-08-19T17:11:29.000Z</time>
        <extensions>
          <ns3:TrackPointExtension>
            <ns3:hr>158</ns3:hr>
            <ns3:cad>82</ns3:cad>
          </ns3:TrackPointExtension>
        </extensions>
      </trkpt>
      <trkpt lat="42.6110518164932727813720703125" lon="2.7619787491858005523681640625">
        <ele>141.399993896484375</ele>
        <time>2023-08-19T17:11:30.000Z</time>
        <extensions>
          <ns3:TrackPointExtension>
            <ns3:hr>158</ns3:hr>
            <ns3:cad>82</ns3:cad>
          </ns3:TrackPointExtension>
        </extensions>
      </trkpt>
      <trkpt lat="42.61104670353233814239501953125" lon="2.76194245554506778717041015625">
        <ele>141.600006103515625</ele>
        <time>2023-08-19T17:11:31.000Z</time>
        <extensions>
          <ns3:TrackPointExtension>
            <ns3:hr>158</ns3:hr>
            <ns3:cad>82</ns3:cad>
          </ns3:TrackPointExtension>
        </extensions>
      </trkpt>
      <trkpt lat="42.6110420934855937957763671875" lon="2.76190482079982757568359375">
        <ele>141.600006103515625</ele>
        <time>2023-08-19T17:11:32.000Z</time>
        <extensions>
          <ns3:TrackPointExtension>
            <ns3:hr>158</ns3:hr>
            <ns3:cad>82</ns3:cad>
          </ns3:TrackPointExtension>
        </extensions>
      </trkpt>
      <trkpt lat="42.6110370643436908721923828125" lon="2.76187204755842685699462890625">
        <ele>141.8000030517578125</ele>
        <time>2023-08-19T17:11:33.000Z</time>
        <extensions>
          <ns3:TrackPointExtension>
            <ns3:hr>158</ns3:hr>
            <ns3:cad>82</ns3:cad>
          </ns3:TrackPointExtension>
        </extensions>
      </trkpt>
      <trkpt lat="42.61103086173534393310546875" lon="2.7618339098989963531494140625">
        <ele>141.8000030517578125</ele>
        <time>2023-08-19T17:11:34.000Z</time>
        <extensions>
          <ns3:TrackPointExtension>
            <ns3:hr>158</ns3:hr>
            <ns3:cad>82</ns3:cad>
          </ns3:TrackPointExtension>
        </extensions>
      </trkpt>
      <trkpt lat="42.6110286824405193328857421875" lon="2.76179778389632701873779296875">
        <ele>141.8000030517578125</ele>
        <time>2023-08-19T17:11:35.000Z</time>
        <extensions>
          <ns3:TrackPointExtension>
            <ns3:hr>158</ns3:hr>
            <ns3:cad>82</ns3:cad>
          </ns3:TrackPointExtension>
        </extensions>
      </trkpt>
      <trkpt lat="42.61102289892733097076416015625" lon="2.76176107116043567657470703125">
        <ele>141.8000030517578125</ele>
        <time>2023-08-19T17:11:36.000Z</time>
        <extensions>
          <ns3:TrackPointExtension>
            <ns3:hr>157</ns3:hr>
            <ns3:cad>82</ns3:cad>
          </ns3:TrackPointExtension>
        </extensions>
      </trkpt>
      <trkpt lat="42.6110206358134746551513671875" lon="2.76172569952905178070068359375">
        <ele>141.8000030517578125</ele>
        <time>2023-08-19T17:11:37.000Z</time>
        <extensions>
          <ns3:TrackPointExtension>
            <ns3:hr>157</ns3:hr>
            <ns3:cad>82</ns3:cad>
          </ns3:TrackPointExtension>
        </extensions>
      </trkpt>
      <trkpt lat="42.6110166124999523162841796875" lon="2.76169334538280963897705078125">
        <ele>141.8000030517578125</ele>
        <time>2023-08-19T17:11:38.000Z</time>
        <extensions>
          <ns3:TrackPointExtension>
            <ns3:hr>157</ns3:hr>
            <ns3:cad>82</ns3:cad>
          </ns3:TrackPointExtension>
        </extensions>
      </trkpt>
      <trkpt lat="42.61101166717708110809326171875" lon="2.761662416160106658935546875">
        <ele>141.8000030517578125</ele>
        <time>2023-08-19T17:11:39.000Z</time>
        <extensions>
          <ns3:TrackPointExtension>
            <ns3:hr>157</ns3:hr>
            <ns3:cad>82</ns3:cad>
          </ns3:TrackPointExtension>
        </extensions>
      </trkpt>
      <trkpt lat="42.61101074516773223876953125" lon="2.761629559099674224853515625">
        <ele>141.8000030517578125</ele>
        <time>2023-08-19T17:11:40.000Z</time>
        <extensions>
          <ns3:TrackPointExtension>
            <ns3:hr>157</ns3:hr>
            <ns3:cad>82</ns3:cad>
          </ns3:TrackPointExtension>
        </extensions>
      </trkpt>
      <trkpt lat="42.61100613512098789215087890625" lon="2.7616022340953350067138671875">
        <ele>141.8000030517578125</ele>
        <time>2023-08-19T17:11:41.000Z</time>
        <extensions>
          <ns3:TrackPointExtension>
            <ns3:hr>157</ns3:hr>
            <ns3:cad>82</ns3:cad>
          </ns3:TrackPointExtension>
        </extensions>
      </trkpt>
      <trkpt lat="42.61100077070295810699462890625" lon="2.76156476698815822601318359375">
        <ele>141.8000030517578125</ele>
        <time>2023-08-19T17:11:42.000Z</time>
        <extensions>
          <ns3:TrackPointExtension>
            <ns3:hr>157</ns3:hr>
            <ns3:cad>83</ns3:cad>
          </ns3:TrackPointExtension>
        </extensions>
      </trkpt>
      <trkpt lat="42.6109958253800868988037109375" lon="2.76152889244258403778076171875">
        <ele>141.8000030517578125</ele>
        <time>2023-08-19T17:11:43.000Z</time>
        <extensions>
          <ns3:TrackPointExtension>
            <ns3:hr>157</ns3:hr>
            <ns3:cad>83</ns3:cad>
          </ns3:TrackPointExtension>
        </extensions>
      </trkpt>
      <trkpt lat="42.6109901256859302520751953125" lon="2.761494778096675872802734375">
        <ele>141.8000030517578125</ele>
        <time>2023-08-19T17:11:44.000Z</time>
        <extensions>
          <ns3:TrackPointExtension>
            <ns3:hr>157</ns3:hr>
            <ns3:cad>82</ns3:cad>
          </ns3:TrackPointExtension>
        </extensions>
      </trkpt>
      <trkpt lat="42.61098568327724933624267578125" lon="2.7614513598382472991943359375">
        <ele>141.8000030517578125</ele>
        <time>2023-08-19T17:11:45.000Z</time>
        <extensions>
          <ns3:TrackPointExtension>
            <ns3:hr>157</ns3:hr>
            <ns3:cad>82</ns3:cad>
          </ns3:TrackPointExtension>
        </extensions>
      </trkpt>
      <trkpt lat="42.61098199523985385894775390625" lon="2.76141640730202198028564453125">
        <ele>142</ele>
        <time>2023-08-19T17:11:46.000Z</time>
        <extensions>
          <ns3:TrackPointExtension>
            <ns3:hr>157</ns3:hr>
            <ns3:cad>82</ns3:cad>
          </ns3:TrackPointExtension>
        </extensions>
      </trkpt>
      <trkpt lat="42.61097813956439495086669921875" lon="2.76138254441320896148681640625">
        <ele>142</ele>
        <time>2023-08-19T17:11:47.000Z</time>
        <extensions>
          <ns3:TrackPointExtension>
            <ns3:hr>157</ns3:hr>
            <ns3:cad>82</ns3:cad>
          </ns3:TrackPointExtension>
        </extensions>
      </trkpt>
      <trkpt lat="42.61097260750830173492431640625" lon="2.76134558022022247314453125">
        <ele>142</ele>
        <time>2023-08-19T17:11:48.000Z</time>
        <extensions>
          <ns3:TrackPointExtension>
            <ns3:hr>157</ns3:hr>
            <ns3:cad>82</ns3:cad>
          </ns3:TrackPointExtension>
        </extensions>
      </trkpt>
      <trkpt lat="42.61096539907157421112060546875" lon="2.76131071150302886962890625">
        <ele>142</ele>
        <time>2023-08-19T17:11:49.000Z</time>
        <extensions>
          <ns3:TrackPointExtension>
            <ns3:hr>157</ns3:hr>
            <ns3:cad>82</ns3:cad>
          </ns3:TrackPointExtension>
        </extensions>
      </trkpt>
      <trkpt lat="42.61096053756773471832275390625" lon="2.761270813643932342529296875">
        <ele>142</ele>
        <time>2023-08-19T17:11:50.000Z</time>
        <extensions>
          <ns3:TrackPointExtension>
            <ns3:hr>157</ns3:hr>
            <ns3:cad>82</ns3:cad>
          </ns3:TrackPointExtension>
        </extensions>
      </trkpt>
      <trkpt lat="42.61095835827291011810302734375" lon="2.76123569346964359283447265625">
        <ele>142</ele>
        <time>2023-08-19T17:11:51.000Z</time>
        <extensions>
          <ns3:TrackPointExtension>
            <ns3:hr>157</ns3:hr>
            <ns3:cad>82</ns3:cad>
          </ns3:TrackPointExtension>
        </extensions>
      </trkpt>
      <trkpt lat="42.61095517314970493316650390625" lon="2.7611965499818325042724609375">
        <ele>142</ele>
        <time>2023-08-19T17:11:52.000Z</time>
        <extensions>
          <ns3:TrackPointExtension>
            <ns3:hr>157</ns3:hr>
            <ns3:cad>82</ns3:cad>
          </ns3:TrackPointExtension>
        </extensions>
      </trkpt>
      <trkpt lat="42.61095114983618259429931640625" lon="2.76115271262824535369873046875">
        <ele>142</ele>
        <time>2023-08-19T17:11:53.000Z</time>
        <extensions>
          <ns3:TrackPointExtension>
            <ns3:hr>157</ns3:hr>
            <ns3:cad>82</ns3:cad>
          </ns3:TrackPointExtension>
        </extensions>
      </trkpt>
      <trkpt lat="42.610945366322994232177734375" lon="2.7611191011965274810791015625">
        <ele>141.8000030517578125</ele>
        <time>2023-08-19T17:11:54.000Z</time>
        <extensions>
          <ns3:TrackPointExtension>
            <ns3:hr>157</ns3:hr>
            <ns3:cad>82</ns3:cad>
          </ns3:TrackPointExtension>
        </extensions>
      </trkpt>
      <trkpt lat="42.61093673296272754669189453125" lon="2.76108129881322383880615234375">
        <ele>141.8000030517578125</ele>
        <time>2023-08-19T17:11:55.000Z</time>
        <extensions>
          <ns3:TrackPointExtension>
            <ns3:hr>157</ns3:hr>
            <ns3:cad>83</ns3:cad>
          </ns3:TrackPointExtension>
        </extensions>
      </trkpt>
      <trkpt lat="42.61092985980212688446044921875" lon="2.76104651391506195068359375">
        <ele>141.8000030517578125</ele>
        <time>2023-08-19T17:11:56.000Z</time>
        <extensions>
          <ns3:TrackPointExtension>
            <ns3:hr>157</ns3:hr>
            <ns3:cad>83</ns3:cad>
          </ns3:TrackPointExtension>
        </extensions>
      </trkpt>
      <trkpt lat="42.610915862023830413818359375" lon="2.76101524941623210906982421875">
        <ele>141.8000030517578125</ele>
        <time>2023-08-19T17:11:57.000Z</time>
        <extensions>
          <ns3:TrackPointExtension>
            <ns3:hr>157</ns3:hr>
            <ns3:cad>83</ns3:cad>
          </ns3:TrackPointExtension>
        </extensions>
      </trkpt>
      <trkpt lat="42.61089901439845561981201171875" lon="2.76097903959453105926513671875">
        <ele>141.600006103515625</ele>
        <time>2023-08-19T17:11:58.000Z</time>
        <extensions>
          <ns3:TrackPointExtension>
            <ns3:hr>157</ns3:hr>
            <ns3:cad>83</ns3:cad>
          </ns3:TrackPointExtension>
        </extensions>
      </trkpt>
      <trkpt lat="42.61088359169661998748779296875" lon="2.7609477750957012176513671875">
        <ele>141.399993896484375</ele>
        <time>2023-08-19T17:11:59.000Z</time>
        <extensions>
          <ns3:TrackPointExtension>
            <ns3:hr>156</ns3:hr>
            <ns3:cad>83</ns3:cad>
          </ns3:TrackPointExtension>
        </extensions>
      </trkpt>
      <trkpt lat="42.61086397804319858551025390625" lon="2.76091231964528560638427734375">
        <ele>141.1999969482421875</ele>
        <time>2023-08-19T17:12:00.000Z</time>
        <extensions>
          <ns3:TrackPointExtension>
            <ns3:hr>156</ns3:hr>
            <ns3:cad>83</ns3:cad>
          </ns3:TrackPointExtension>
        </extensions>
      </trkpt>
      <trkpt lat="42.6108412630856037139892578125" lon="2.76088264770805835723876953125">
        <ele>141.1999969482421875</ele>
        <time>2023-08-19T17:12:01.000Z</time>
        <extensions>
          <ns3:TrackPointExtension>
            <ns3:hr>156</ns3:hr>
            <ns3:cad>83</ns3:cad>
          </ns3:TrackPointExtension>
        </extensions>
      </trkpt>
      <trkpt lat="42.6108221523463726043701171875" lon="2.76086035184562206268310546875">
        <ele>141</ele>
        <time>2023-08-19T17:12:02.000Z</time>
        <extensions>
          <ns3:TrackPointExtension>
            <ns3:hr>156</ns3:hr>
            <ns3:cad>83</ns3:cad>
          </ns3:TrackPointExtension>
        </extensions>
      </trkpt>
      <trkpt lat="42.610792480409145355224609375" lon="2.7608334459364414215087890625">
        <ele>141</ele>
        <time>2023-08-19T17:12:03.000Z</time>
        <extensions>
          <ns3:TrackPointExtension>
            <ns3:hr>156</ns3:hr>
            <ns3:cad>83</ns3:cad>
          </ns3:TrackPointExtension>
        </extensions>
      </trkpt>
      <trkpt lat="42.6107728667557239532470703125" lon="2.76081492193043231964111328125">
        <ele>141</ele>
        <time>2023-08-19T17:12:04.000Z</time>
        <extensions>
          <ns3:TrackPointExtension>
            <ns3:hr>156</ns3:hr>
            <ns3:cad>83</ns3:cad>
          </ns3:TrackPointExtension>
        </extensions>
      </trkpt>
      <trkpt lat="42.610749900341033935546875" lon="2.76080285198986530303955078125">
        <ele>141</ele>
        <time>2023-08-19T17:12:05.000Z</time>
        <extensions>
          <ns3:TrackPointExtension>
            <ns3:hr>156</ns3:hr>
            <ns3:cad>83</ns3:cad>
          </ns3:TrackPointExtension>
        </extensions>
      </trkpt>
      <trkpt lat="42.61072316206991672515869140625" lon="2.76078877039253711700439453125">
        <ele>141</ele>
        <time>2023-08-19T17:12:06.000Z</time>
        <extensions>
          <ns3:TrackPointExtension>
            <ns3:hr>156</ns3:hr>
            <ns3:cad>83</ns3:cad>
          </ns3:TrackPointExtension>
        </extensions>
      </trkpt>
      <trkpt lat="42.61070220731198787689208984375" lon="2.7607700787484645843505859375">
        <ele>141</ele>
        <time>2023-08-19T17:12:07.000Z</time>
        <extensions>
          <ns3:TrackPointExtension>
            <ns3:hr>156</ns3:hr>
            <ns3:cad>83</ns3:cad>
          </ns3:TrackPointExtension>
        </extensions>
      </trkpt>
      <trkpt lat="42.61067572049796581268310546875" lon="2.76074904017150402069091796875">
        <ele>141.1999969482421875</ele>
        <time>2023-08-19T17:12:08.000Z</time>
        <extensions>
          <ns3:TrackPointExtension>
            <ns3:hr>156</ns3:hr>
            <ns3:cad>83</ns3:cad>
          </ns3:TrackPointExtension>
        </extensions>
      </trkpt>
      <trkpt lat="42.61065225116908550262451171875" lon="2.7607293426990509033203125">
        <ele>141.1999969482421875</ele>
        <time>2023-08-19T17:12:09.000Z</time>
        <extensions>
          <ns3:TrackPointExtension>
            <ns3:hr>156</ns3:hr>
            <ns3:cad>83</ns3:cad>
          </ns3:TrackPointExtension>
        </extensions>
      </trkpt>
      <trkpt lat="42.61062760837376117706298828125" lon="2.7607100643217563629150390625">
        <ele>141.1999969482421875</ele>
        <time>2023-08-19T17:12:10.000Z</time>
        <extensions>
          <ns3:TrackPointExtension>
            <ns3:hr>156</ns3:hr>
            <ns3:cad>83</ns3:cad>
          </ns3:TrackPointExtension>
        </extensions>
      </trkpt>
      <trkpt lat="42.6106058992445468902587890625" lon="2.76068349368870258331298828125">
        <ele>141.399993896484375</ele>
        <time>2023-08-19T17:12:11.000Z</time>
        <extensions>
          <ns3:TrackPointExtension>
            <ns3:hr>156</ns3:hr>
            <ns3:cad>83</ns3:cad>
          </ns3:TrackPointExtension>
        </extensions>
      </trkpt>
      <trkpt lat="42.6105867885053157806396484375" lon="2.7606617845594882965087890625">
        <ele>141.399993896484375</ele>
        <time>2023-08-19T17:12:12.000Z</time>
        <extensions>
          <ns3:TrackPointExtension>
            <ns3:hr>157</ns3:hr>
            <ns3:cad>83</ns3:cad>
          </ns3:TrackPointExtension>
        </extensions>
      </trkpt>
      <trkpt lat="42.61056642048060894012451171875" lon="2.76063613593578338623046875">
        <ele>141.399993896484375</ele>
        <time>2023-08-19T17:12:13.000Z</time>
        <extensions>
          <ns3:TrackPointExtension>
            <ns3:hr>157</ns3:hr>
            <ns3:cad>83</ns3:cad>
          </ns3:TrackPointExtension>
        </extensions>
      </trkpt>
      <trkpt lat="42.6105485670268535614013671875" lon="2.76061065495014190673828125">
        <ele>141.399993896484375</ele>
        <time>2023-08-19T17:12:14.000Z</time>
        <extensions>
          <ns3:TrackPointExtension>
            <ns3:hr>157</ns3:hr>
            <ns3:cad>83</ns3:cad>
          </ns3:TrackPointExtension>
        </extensions>
      </trkpt>
      <trkpt lat="42.6105307973921298980712890625" lon="2.760588862001895904541015625">
        <ele>141.399993896484375</ele>
        <time>2023-08-19T17:12:15.000Z</time>
        <extensions>
          <ns3:TrackPointExtension>
            <ns3:hr>157</ns3:hr>
            <ns3:cad>83</ns3:cad>
          </ns3:TrackPointExtension>
        </extensions>
      </trkpt>
      <trkpt lat="42.61051311157643795013427734375" lon="2.760564051568508148193359375">
        <ele>141.399993896484375</ele>
        <time>2023-08-19T17:12:16.000Z</time>
        <extensions>
          <ns3:TrackPointExtension>
            <ns3:hr>157</ns3:hr>
            <ns3:cad>83</ns3:cad>
          </ns3:TrackPointExtension>
        </extensions>
      </trkpt>
      <trkpt lat="42.6104955933988094329833984375" lon="2.76053697802126407623291015625">
        <ele>141.399993896484375</ele>
        <time>2023-08-19T17:12:17.000Z</time>
        <extensions>
          <ns3:TrackPointExtension>
            <ns3:hr>157</ns3:hr>
            <ns3:cad>83</ns3:cad>
          </ns3:TrackPointExtension>
        </extensions>
      </trkpt>
      <trkpt lat="42.61047556065022945404052734375" lon="2.7605159394443035125732421875">
        <ele>141.600006103515625</ele>
        <time>2023-08-19T17:12:18.000Z</time>
        <extensions>
          <ns3:TrackPointExtension>
            <ns3:hr>157</ns3:hr>
            <ns3:cad>83</ns3:cad>
          </ns3:TrackPointExtension>
        </extensions>
      </trkpt>
      <trkpt lat="42.61045393534004688262939453125" lon="2.76048869825899600982666015625">
        <ele>141.600006103515625</ele>
        <time>2023-08-19T17:12:19.000Z</time>
        <extensions>
          <ns3:TrackPointExtension>
            <ns3:hr>157</ns3:hr>
            <ns3:cad>83</ns3:cad>
          </ns3:TrackPointExtension>
        </extensions>
      </trkpt>
      <trkpt lat="42.61043180711567401885986328125" lon="2.760468162596225738525390625">
        <ele>141.8000030517578125</ele>
        <time>2023-08-19T17:12:20.000Z</time>
        <extensions>
          <ns3:TrackPointExtension>
            <ns3:hr>158</ns3:hr>
            <ns3:cad>83</ns3:cad>
          </ns3:TrackPointExtension>
        </extensions>
      </trkpt>
      <trkpt lat="42.6104097627103328704833984375" lon="2.7604438550770282745361328125">
        <ele>141.8000030517578125</ele>
        <time>2023-08-19T17:12:21.000Z</time>
        <extensions>
          <ns3:TrackPointExtension>
            <ns3:hr>158</ns3:hr>
            <ns3:cad>83</ns3:cad>
          </ns3:TrackPointExtension>
        </extensions>
      </trkpt>
      <trkpt lat="42.61039308272302150726318359375" lon="2.76042181067168712615966796875">
        <ele>142</ele>
        <time>2023-08-19T17:12:22.000Z</time>
        <extensions>
          <ns3:TrackPointExtension>
            <ns3:hr>157</ns3:hr>
            <ns3:cad>83</ns3:cad>
          </ns3:TrackPointExtension>
        </extensions>
      </trkpt>
      <trkpt lat="42.610374055802822113037109375" lon="2.760402448475360870361328125">
        <ele>142.1999969482421875</ele>
        <time>2023-08-19T17:12:23.000Z</time>
        <extensions>
          <ns3:TrackPointExtension>
            <ns3:hr>157</ns3:hr>
            <ns3:cad>83</ns3:cad>
          </ns3:TrackPointExtension>
        </extensions>
      </trkpt>
      <trkpt lat="42.610352933406829833984375" lon="2.760374285280704498291015625">
        <ele>142.1999969482421875</ele>
        <time>2023-08-19T17:12:24.000Z</time>
        <extensions>
          <ns3:TrackPointExtension>
            <ns3:hr>157</ns3:hr>
            <ns3:cad>83</ns3:cad>
          </ns3:TrackPointExtension>
        </extensions>
      </trkpt>
      <trkpt lat="42.61033507995307445526123046875" lon="2.76034503243863582611083984375">
        <ele>142.1999969482421875</ele>
        <time>2023-08-19T17:12:25.000Z</time>
        <extensions>
          <ns3:TrackPointExtension>
            <ns3:hr>158</ns3:hr>
            <ns3:cad>82</ns3:cad>
          </ns3:TrackPointExtension>
        </extensions>
      </trkpt>
      <trkpt lat="42.61031647212803363800048828125" lon="2.76031586341559886932373046875">
        <ele>142.399993896484375</ele>
        <time>2023-08-19T17:12:26.000Z</time>
        <extensions>
          <ns3:TrackPointExtension>
            <ns3:hr>158</ns3:hr>
            <ns3:cad>82</ns3:cad>
          </ns3:TrackPointExtension>
        </extensions>
      </trkpt>
      <trkpt lat="42.61030037887394428253173828125" lon="2.76028619147837162017822265625">
        <ele>142.399993896484375</ele>
        <time>2023-08-19T17:12:27.000Z</time>
        <extensions>
          <ns3:TrackPointExtension>
            <ns3:hr>158</ns3:hr>
            <ns3:cad>82</ns3:cad>
          </ns3:TrackPointExtension>
        </extensions>
      </trkpt>
      <trkpt lat="42.6102890633046627044677734375" lon="2.76025794446468353271484375">
        <ele>142.399993896484375</ele>
        <time>2023-08-19T17:12:28.000Z</time>
        <extensions>
          <ns3:TrackPointExtension>
            <ns3:hr>158</ns3:hr>
            <ns3:cad>82</ns3:cad>
          </ns3:TrackPointExtension>
        </extensions>
      </trkpt>
      <trkpt lat="42.61027456261217594146728515625" lon="2.76022416539490222930908203125">
        <ele>142.399993896484375</ele>
        <time>2023-08-19T17:12:29.000Z</time>
        <extensions>
          <ns3:TrackPointExtension>
            <ns3:hr>158</ns3:hr>
            <ns3:cad>82</ns3:cad>
          </ns3:TrackPointExtension>
        </extensions>
      </trkpt>
      <trkpt lat="42.6102645881474018096923828125" lon="2.76018862612545490264892578125">
        <ele>142.600006103515625</ele>
        <time>2023-08-19T17:12:30.000Z</time>
        <extensions>
          <ns3:TrackPointExtension>
            <ns3:hr>158</ns3:hr>
            <ns3:cad>82</ns3:cad>
          </ns3:TrackPointExtension>
        </extensions>
      </trkpt>
      <trkpt lat="42.6102562062442302703857421875" lon="2.76015912182629108428955078125">
        <ele>142.600006103515625</ele>
        <time>2023-08-19T17:12:31.000Z</time>
        <extensions>
          <ns3:TrackPointExtension>
            <ns3:hr>157</ns3:hr>
            <ns3:cad>82</ns3:cad>
          </ns3:TrackPointExtension>
        </extensions>
      </trkpt>
      <trkpt lat="42.61025008745491504669189453125" lon="2.76012442074716091156005859375">
        <ele>142.8000030517578125</ele>
        <time>2023-08-19T17:12:32.000Z</time>
        <extensions>
          <ns3:TrackPointExtension>
            <ns3:hr>157</ns3:hr>
            <ns3:cad>82</ns3:cad>
          </ns3:TrackPointExtension>
        </extensions>
      </trkpt>
      <trkpt lat="42.6102481596171855926513671875" lon="2.76009164750576019287109375">
        <ele>143.1999969482421875</ele>
        <time>2023-08-19T17:12:33.000Z</time>
        <extensions>
          <ns3:TrackPointExtension>
            <ns3:hr>157</ns3:hr>
            <ns3:cad>82</ns3:cad>
          </ns3:TrackPointExtension>
        </extensions>
      </trkpt>
      <trkpt lat="42.61024363338947296142578125" lon="2.76005837135016918182373046875">
        <ele>143.1999969482421875</ele>
        <time>2023-08-19T17:12:34.000Z</time>
        <extensions>
          <ns3:TrackPointExtension>
            <ns3:hr>157</ns3:hr>
            <ns3:cad>82</ns3:cad>
          </ns3:TrackPointExtension>
        </extensions>
      </trkpt>
      <trkpt lat="42.61023969389498233795166015625" lon="2.7600220777094364166259765625">
        <ele>143.1999969482421875</ele>
        <time>2023-08-19T17:12:35.000Z</time>
        <extensions>
          <ns3:TrackPointExtension>
            <ns3:hr>157</ns3:hr>
            <ns3:cad>81</ns3:cad>
          </ns3:TrackPointExtension>
        </extensions>
      </trkpt>
      <trkpt lat="42.61024019680917263031005859375" lon="2.75998704135417938232421875">
        <ele>143.399993896484375</ele>
        <time>2023-08-19T17:12:36.000Z</time>
        <extensions>
          <ns3:TrackPointExtension>
            <ns3:hr>157</ns3:hr>
            <ns3:cad>81</ns3:cad>
          </ns3:TrackPointExtension>
        </extensions>
      </trkpt>
      <trkpt lat="42.61023969389498233795166015625" lon="2.75995460338890552520751953125">
        <ele>143.399993896484375</ele>
        <time>2023-08-19T17:12:37.000Z</time>
        <extensions>
          <ns3:TrackPointExtension>
            <ns3:hr>157</ns3:hr>
            <ns3:cad>81</ns3:cad>
          </ns3:TrackPointExtension>
        </extensions>
      </trkpt>
      <trkpt lat="42.61023818515241146087646484375" lon="2.75991587899625301361083984375">
        <ele>143.399993896484375</ele>
        <time>2023-08-19T17:12:38.000Z</time>
        <extensions>
          <ns3:TrackPointExtension>
            <ns3:hr>157</ns3:hr>
            <ns3:cad>81</ns3:cad>
          </ns3:TrackPointExtension>
        </extensions>
      </trkpt>
      <trkpt lat="42.61023424565792083740234375" lon="2.75988402776420116424560546875">
        <ele>143.399993896484375</ele>
        <time>2023-08-19T17:12:39.000Z</time>
        <extensions>
          <ns3:TrackPointExtension>
            <ns3:hr>157</ns3:hr>
            <ns3:cad>82</ns3:cad>
          </ns3:TrackPointExtension>
        </extensions>
      </trkpt>
      <trkpt lat="42.61022611521184444427490234375" lon="2.759855277836322784423828125">
        <ele>143.399993896484375</ele>
        <time>2023-08-19T17:12:40.000Z</time>
        <extensions>
          <ns3:TrackPointExtension>
            <ns3:hr>157</ns3:hr>
            <ns3:cad>81</ns3:cad>
          </ns3:TrackPointExtension>
        </extensions>
      </trkpt>
      <trkpt lat="42.61021370999515056610107421875" lon="2.7598200738430023193359375">
        <ele>143.399993896484375</ele>
        <time>2023-08-19T17:12:41.000Z</time>
        <extensions>
          <ns3:TrackPointExtension>
            <ns3:hr>157</ns3:hr>
            <ns3:cad>81</ns3:cad>
          </ns3:TrackPointExtension>
        </extensions>
      </trkpt>
      <trkpt lat="42.6102005504071712493896484375" lon="2.7597947604954242706298828125">
        <ele>143.600006103515625</ele>
        <time>2023-08-19T17:12:42.000Z</time>
        <extensions>
          <ns3:TrackPointExtension>
            <ns3:hr>157</ns3:hr>
            <ns3:cad>81</ns3:cad>
          </ns3:TrackPointExtension>
        </extensions>
      </trkpt>
      <trkpt lat="42.6101847924292087554931640625" lon="2.75976148433983325958251953125">
        <ele>143.600006103515625</ele>
        <time>2023-08-19T17:12:43.000Z</time>
        <extensions>
          <ns3:TrackPointExtension>
            <ns3:hr>157</ns3:hr>
            <ns3:cad>82</ns3:cad>
          </ns3:TrackPointExtension>
        </extensions>
      </trkpt>
      <trkpt lat="42.61017146520316600799560546875" lon="2.75973223149776458740234375">
        <ele>143.600006103515625</ele>
        <time>2023-08-19T17:12:44.000Z</time>
        <extensions>
          <ns3:TrackPointExtension>
            <ns3:hr>157</ns3:hr>
            <ns3:cad>82</ns3:cad>
          </ns3:TrackPointExtension>
        </extensions>
      </trkpt>
      <trkpt lat="42.61015503667294979095458984375" lon="2.75970943272113800048828125">
        <ele>143.8000030517578125</ele>
        <time>2023-08-19T17:12:45.000Z</time>
        <extensions>
          <ns3:TrackPointExtension>
            <ns3:hr>157</ns3:hr>
            <ns3:cad>82</ns3:cad>
          </ns3:TrackPointExtension>
        </extensions>
      </trkpt>
      <trkpt lat="42.610137350857257843017578125" lon="2.759679257869720458984375">
        <ele>143.600006103515625</ele>
        <time>2023-08-19T17:12:46.000Z</time>
        <extensions>
          <ns3:TrackPointExtension>
            <ns3:hr>156</ns3:hr>
            <ns3:cad>82</ns3:cad>
          </ns3:TrackPointExtension>
        </extensions>
      </trkpt>
      <trkpt lat="42.61012083850800991058349609375" lon="2.7596539445221424102783203125">
        <ele>143.8000030517578125</ele>
        <time>2023-08-19T17:12:47.000Z</time>
        <extensions>
          <ns3:TrackPointExtension>
            <ns3:hr>156</ns3:hr>
            <ns3:cad>82</ns3:cad>
          </ns3:TrackPointExtension>
        </extensions>
      </trkpt>
      <trkpt lat="42.610098458826541900634765625" lon="2.75962871499359607696533203125">
        <ele>143.8000030517578125</ele>
        <time>2023-08-19T17:12:48.000Z</time>
        <extensions>
          <ns3:TrackPointExtension>
            <ns3:hr>156</ns3:hr>
            <ns3:cad>82</ns3:cad>
          </ns3:TrackPointExtension>
        </extensions>
      </trkpt>
      <trkpt lat="42.610077671706676483154296875" lon="2.75960977189242839813232421875">
        <ele>143.8000030517578125</ele>
        <time>2023-08-19T17:12:49.000Z</time>
        <extensions>
          <ns3:TrackPointExtension>
            <ns3:hr>156</ns3:hr>
            <ns3:cad>82</ns3:cad>
          </ns3:TrackPointExtension>
        </extensions>
      </trkpt>
      <trkpt lat="42.61005545966327190399169921875" lon="2.7595961093902587890625">
        <ele>143.8000030517578125</ele>
        <time>2023-08-19T17:12:50.000Z</time>
        <extensions>
          <ns3:TrackPointExtension>
            <ns3:hr>156</ns3:hr>
            <ns3:cad>82</ns3:cad>
          </ns3:TrackPointExtension>
        </extensions>
      </trkpt>
      <trkpt lat="42.61002729646861553192138671875" lon="2.759583033621311187744140625">
        <ele>143.8000030517578125</ele>
        <time>2023-08-19T17:12:51.000Z</time>
        <extensions>
          <ns3:TrackPointExtension>
            <ns3:hr>156</ns3:hr>
            <ns3:cad>82</ns3:cad>
          </ns3:TrackPointExtension>
        </extensions>
      </trkpt>
      <trkpt lat="42.60999527759850025177001953125" lon="2.75957657955586910247802734375">
        <ele>143.8000030517578125</ele>
        <time>2023-08-19T17:12:52.000Z</time>
        <extensions>
          <ns3:TrackPointExtension>
            <ns3:hr>156</ns3:hr>
            <ns3:cad>82</ns3:cad>
          </ns3:TrackPointExtension>
        </extensions>
      </trkpt>
      <trkpt lat="42.60997080244123935699462890625" lon="2.7595798484981060028076171875">
        <ele>143.8000030517578125</ele>
        <time>2023-08-19T17:12:53.000Z</time>
        <extensions>
          <ns3:TrackPointExtension>
            <ns3:hr>155</ns3:hr>
            <ns3:cad>83</ns3:cad>
          </ns3:TrackPointExtension>
        </extensions>
      </trkpt>
      <trkpt lat="42.60994247160851955413818359375" lon="2.75958579964935779571533203125">
        <ele>143.8000030517578125</ele>
        <time>2023-08-19T17:12:54.000Z</time>
        <extensions>
          <ns3:TrackPointExtension>
            <ns3:hr>155</ns3:hr>
            <ns3:cad>83</ns3:cad>
          </ns3:TrackPointExtension>
        </extensions>
      </trkpt>
      <trkpt lat="42.60991866700351238250732421875" lon="2.75959535501897335052490234375">
        <ele>143.8000030517578125</ele>
        <time>2023-08-19T17:12:55.000Z</time>
        <extensions>
          <ns3:TrackPointExtension>
            <ns3:hr>155</ns3:hr>
            <ns3:cad>83</ns3:cad>
          </ns3:TrackPointExtension>
        </extensions>
      </trkpt>
      <trkpt lat="42.6098894141614437103271484375" lon="2.7596076764166355133056640625">
        <ele>143.8000030517578125</ele>
        <time>2023-08-19T17:12:56.000Z</time>
        <extensions>
          <ns3:TrackPointExtension>
            <ns3:hr>156</ns3:hr>
            <ns3:cad>83</ns3:cad>
          </ns3:TrackPointExtension>
        </extensions>
      </trkpt>
      <trkpt lat="42.60985999368131160736083984375" lon="2.7596167288720607757568359375">
        <ele>143.8000030517578125</ele>
        <time>2023-08-19T17:12:57.000Z</time>
        <extensions>
          <ns3:TrackPointExtension>
            <ns3:hr>155</ns3:hr>
            <ns3:cad>83</ns3:cad>
          </ns3:TrackPointExtension>
        </extensions>
      </trkpt>
      <trkpt lat="42.60983283631503582000732421875" lon="2.75962737388908863067626953125">
        <ele>143.8000030517578125</ele>
        <time>2023-08-19T17:12:58.000Z</time>
        <extensions>
          <ns3:TrackPointExtension>
            <ns3:hr>155</ns3:hr>
            <ns3:cad>83</ns3:cad>
          </ns3:TrackPointExtension>
        </extensions>
      </trkpt>
      <trkpt lat="42.60980316437780857086181640625" lon="2.75963508524000644683837890625">
        <ele>143.8000030517578125</ele>
        <time>2023-08-19T17:12:59.000Z</time>
        <extensions>
          <ns3:TrackPointExtension>
            <ns3:hr>155</ns3:hr>
            <ns3:cad>82</ns3:cad>
          </ns3:TrackPointExtension>
        </extensions>
      </trkpt>
      <trkpt lat="42.6097760908305644989013671875" lon="2.7596344985067844390869140625">
        <ele>143.8000030517578125</ele>
        <time>2023-08-19T17:13:00.000Z</time>
        <extensions>
          <ns3:TrackPointExtension>
            <ns3:hr>155</ns3:hr>
            <ns3:cad>82</ns3:cad>
          </ns3:TrackPointExtension>
        </extensions>
      </trkpt>
      <trkpt lat="42.60974650271236896514892578125" lon="2.7596344985067844390869140625">
        <ele>143.8000030517578125</ele>
        <time>2023-08-19T17:13:01.000Z</time>
        <extensions>
          <ns3:TrackPointExtension>
            <ns3:hr>156</ns3:hr>
            <ns3:cad>82</ns3:cad>
          </ns3:TrackPointExtension>
        </extensions>
      </trkpt>
      <trkpt lat="42.6097160764038562774658203125" lon="2.75962418876588344573974609375">
        <ele>144</ele>
        <time>2023-08-19T17:13:02.000Z</time>
        <extensions>
          <ns3:TrackPointExtension>
            <ns3:hr>156</ns3:hr>
            <ns3:cad>82</ns3:cad>
          </ns3:TrackPointExtension>
        </extensions>
      </trkpt>
      <trkpt lat="42.6096902601420879364013671875" lon="2.75961094535887241363525390625">
        <ele>144</ele>
        <time>2023-08-19T17:13:03.000Z</time>
        <extensions>
          <ns3:TrackPointExtension>
            <ns3:hr>156</ns3:hr>
            <ns3:cad>82</ns3:cad>
          </ns3:TrackPointExtension>
        </extensions>
      </trkpt>
      <trkpt lat="42.60965882800519466400146484375" lon="2.75958797894418239593505859375">
        <ele>144</ele>
        <time>2023-08-19T17:13:04.000Z</time>
        <extensions>
          <ns3:TrackPointExtension>
            <ns3:hr>156</ns3:hr>
            <ns3:cad>82</ns3:cad>
          </ns3:TrackPointExtension>
        </extensions>
      </trkpt>
      <trkpt lat="42.6096372865140438079833984375" lon="2.75956300087273120880126953125">
        <ele>144</ele>
        <time>2023-08-19T17:13:05.000Z</time>
        <extensions>
          <ns3:TrackPointExtension>
            <ns3:hr>156</ns3:hr>
            <ns3:cad>83</ns3:cad>
          </ns3:TrackPointExtension>
        </extensions>
      </trkpt>
      <trkpt lat="42.60961758904159069061279296875" lon="2.75953969918191432952880859375">
        <ele>144</ele>
        <time>2023-08-19T17:13:06.000Z</time>
        <extensions>
          <ns3:TrackPointExtension>
            <ns3:hr>156</ns3:hr>
            <ns3:cad>83</ns3:cad>
          </ns3:TrackPointExtension>
        </extensions>
      </trkpt>
      <trkpt lat="42.6095977239310741424560546875" lon="2.75950491428375244140625">
        <ele>144.1999969482421875</ele>
        <time>2023-08-19T17:13:07.000Z</time>
        <extensions>
          <ns3:TrackPointExtension>
            <ns3:hr>156</ns3:hr>
            <ns3:cad>83</ns3:cad>
          </ns3:TrackPointExtension>
        </extensions>
      </trkpt>
      <trkpt lat="42.60958255268633365631103515625" lon="2.7594735659658908843994140625">
        <ele>144.1999969482421875</ele>
        <time>2023-08-19T17:13:08.000Z</time>
        <extensions>
          <ns3:TrackPointExtension>
            <ns3:hr>156</ns3:hr>
            <ns3:cad>82</ns3:cad>
          </ns3:TrackPointExtension>
        </extensions>
      </trkpt>
      <trkpt lat="42.609567381441593170166015625" lon="2.7594443969428539276123046875">
        <ele>144.1999969482421875</ele>
        <time>2023-08-19T17:13:09.000Z</time>
        <extensions>
          <ns3:TrackPointExtension>
            <ns3:hr>156</ns3:hr>
            <ns3:cad>82</ns3:cad>
          </ns3:TrackPointExtension>
        </extensions>
      </trkpt>
      <trkpt lat="42.60955162346363067626953125" lon="2.75940961204469203948974609375">
        <ele>144.1999969482421875</ele>
        <time>2023-08-19T17:13:10.000Z</time>
        <extensions>
          <ns3:TrackPointExtension>
            <ns3:hr>156</ns3:hr>
            <ns3:cad>82</ns3:cad>
          </ns3:TrackPointExtension>
        </extensions>
      </trkpt>
      <trkpt lat="42.60953997261822223663330078125" lon="2.759378850460052490234375">
        <ele>144.1999969482421875</ele>
        <time>2023-08-19T17:13:11.000Z</time>
        <extensions>
          <ns3:TrackPointExtension>
            <ns3:hr>156</ns3:hr>
            <ns3:cad>82</ns3:cad>
          </ns3:TrackPointExtension>
        </extensions>
      </trkpt>
      <trkpt lat="42.6095254719257354736328125" lon="2.7593438141047954559326171875">
        <ele>144.1999969482421875</ele>
        <time>2023-08-19T17:13:12.000Z</time>
        <extensions>
          <ns3:TrackPointExtension>
            <ns3:hr>156</ns3:hr>
            <ns3:cad>82</ns3:cad>
          </ns3:TrackPointExtension>
        </extensions>
      </trkpt>
      <trkpt lat="42.60951130650937557220458984375" lon="2.7593116275966167449951171875">
        <ele>144.1999969482421875</ele>
        <time>2023-08-19T17:13:13.000Z</time>
        <extensions>
          <ns3:TrackPointExtension>
            <ns3:hr>156</ns3:hr>
            <ns3:cad>82</ns3:cad>
          </ns3:TrackPointExtension>
        </extensions>
      </trkpt>
      <trkpt lat="42.609497644007205963134765625" lon="2.7592851407825946807861328125">
        <ele>144.1999969482421875</ele>
        <time>2023-08-19T17:13:14.000Z</time>
        <extensions>
          <ns3:TrackPointExtension>
            <ns3:hr>156</ns3:hr>
            <ns3:cad>82</ns3:cad>
          </ns3:TrackPointExtension>
        </extensions>
      </trkpt>
      <trkpt lat="42.6094825565814971923828125" lon="2.75925052352249622344970703125">
        <ele>144.399993896484375</ele>
        <time>2023-08-19T17:13:15.000Z</time>
        <extensions>
          <ns3:TrackPointExtension>
            <ns3:hr>156</ns3:hr>
            <ns3:cad>82</ns3:cad>
          </ns3:TrackPointExtension>
        </extensions>
      </trkpt>
      <trkpt lat="42.60946939699351787567138671875" lon="2.7592165768146514892578125">
        <ele>144.399993896484375</ele>
        <time>2023-08-19T17:13:16.000Z</time>
        <extensions>
          <ns3:TrackPointExtension>
            <ns3:hr>156</ns3:hr>
            <ns3:cad>83</ns3:cad>
          </ns3:TrackPointExtension>
        </extensions>
      </trkpt>
      <trkpt lat="42.6094535551965236663818359375" lon="2.75918715633451938629150390625">
        <ele>144.399993896484375</ele>
        <time>2023-08-19T17:13:17.000Z</time>
        <extensions>
          <ns3:TrackPointExtension>
            <ns3:hr>156</ns3:hr>
            <ns3:cad>83</ns3:cad>
          </ns3:TrackPointExtension>
        </extensions>
      </trkpt>
      <trkpt lat="42.60943737812340259552001953125" lon="2.75915421545505523681640625">
        <ele>144.399993896484375</ele>
        <time>2023-08-19T17:13:18.000Z</time>
        <extensions>
          <ns3:TrackPointExtension>
            <ns3:hr>156</ns3:hr>
            <ns3:cad>82</ns3:cad>
          </ns3:TrackPointExtension>
        </extensions>
      </trkpt>
      <trkpt lat="42.609423212707042694091796875" lon="2.75912311859428882598876953125">
        <ele>144.399993896484375</ele>
        <time>2023-08-19T17:13:19.000Z</time>
        <extensions>
          <ns3:TrackPointExtension>
            <ns3:hr>156</ns3:hr>
            <ns3:cad>82</ns3:cad>
          </ns3:TrackPointExtension>
        </extensions>
      </trkpt>
      <trkpt lat="42.60940770618617534637451171875" lon="2.75909445248544216156005859375">
        <ele>144.399993896484375</ele>
        <time>2023-08-19T17:13:20.000Z</time>
        <extensions>
          <ns3:TrackPointExtension>
            <ns3:hr>156</ns3:hr>
            <ns3:cad>81</ns3:cad>
          </ns3:TrackPointExtension>
        </extensions>
      </trkpt>
      <trkpt lat="42.60939178057014942169189453125" lon="2.7590645290911197662353515625">
        <ele>144.600006103515625</ele>
        <time>2023-08-19T17:13:21.000Z</time>
        <extensions>
          <ns3:TrackPointExtension>
            <ns3:hr>156</ns3:hr>
            <ns3:cad>81</ns3:cad>
          </ns3:TrackPointExtension>
        </extensions>
      </trkpt>
      <trkpt lat="42.60937971062958240509033203125" lon="2.75903561152517795562744140625">
        <ele>144.600006103515625</ele>
        <time>2023-08-19T17:13:22.000Z</time>
        <extensions>
          <ns3:TrackPointExtension>
            <ns3:hr>156</ns3:hr>
            <ns3:cad>81</ns3:cad>
          </ns3:TrackPointExtension>
        </extensions>
      </trkpt>
      <trkpt lat="42.60936713777482509613037109375" lon="2.75900728069245815277099609375">
        <ele>144.600006103515625</ele>
        <time>2023-08-19T17:13:23.000Z</time>
        <extensions>
          <ns3:TrackPointExtension>
            <ns3:hr>156</ns3:hr>
            <ns3:cad>81</ns3:cad>
          </ns3:TrackPointExtension>
        </extensions>
      </trkpt>
      <trkpt lat="42.60935573838651180267333984375" lon="2.75897475890815258026123046875">
        <ele>144.600006103515625</ele>
        <time>2023-08-19T17:13:24.000Z</time>
        <extensions>
          <ns3:TrackPointExtension>
            <ns3:hr>157</ns3:hr>
            <ns3:cad>81</ns3:cad>
          </ns3:TrackPointExtension>
        </extensions>
      </trkpt>
      <trkpt lat="42.609344422817230224609375" lon="2.7589495293796062469482421875">
        <ele>144.600006103515625</ele>
        <time>2023-08-19T17:13:25.000Z</time>
        <extensions>
          <ns3:TrackPointExtension>
            <ns3:hr>157</ns3:hr>
            <ns3:cad>82</ns3:cad>
          </ns3:TrackPointExtension>
        </extensions>
      </trkpt>
      <trkpt lat="42.60932958684861660003662109375" lon="2.7589180134236812591552734375">
        <ele>144.8000030517578125</ele>
        <time>2023-08-19T17:13:26.000Z</time>
        <extensions>
          <ns3:TrackPointExtension>
            <ns3:hr>157</ns3:hr>
            <ns3:cad>82</ns3:cad>
          </ns3:TrackPointExtension>
        </extensions>
      </trkpt>
      <trkpt lat="42.60931500233709812164306640625" lon="2.75888741947710514068603515625">
        <ele>144.8000030517578125</ele>
        <time>2023-08-19T17:13:27.000Z</time>
        <extensions>
          <ns3:TrackPointExtension>
            <ns3:hr>157</ns3:hr>
            <ns3:cad>82</ns3:cad>
          </ns3:TrackPointExtension>
        </extensions>
      </trkpt>
      <trkpt lat="42.60929991491138935089111328125" lon="2.7588633634150028228759765625">
        <ele>145</ele>
        <time>2023-08-19T17:13:28.000Z</time>
        <extensions>
          <ns3:TrackPointExtension>
            <ns3:hr>157</ns3:hr>
            <ns3:cad>82</ns3:cad>
          </ns3:TrackPointExtension>
        </extensions>
      </trkpt>
      <trkpt lat="42.60928072035312652587890625" lon="2.75883645750582218170166015625">
        <ele>145</ele>
        <time>2023-08-19T17:13:29.000Z</time>
        <extensions>
          <ns3:TrackPointExtension>
            <ns3:hr>157</ns3:hr>
            <ns3:cad>82</ns3:cad>
          </ns3:TrackPointExtension>
        </extensions>
      </trkpt>
      <trkpt lat="42.6092634536325931549072265625" lon="2.7588140778243541717529296875">
        <ele>145</ele>
        <time>2023-08-19T17:13:30.000Z</time>
        <extensions>
          <ns3:TrackPointExtension>
            <ns3:hr>157</ns3:hr>
            <ns3:cad>82</ns3:cad>
          </ns3:TrackPointExtension>
        </extensions>
      </trkpt>
      <trkpt lat="42.60924476198852062225341796875" lon="2.75879421271383762359619140625">
        <ele>145</ele>
        <time>2023-08-19T17:13:31.000Z</time>
        <extensions>
          <ns3:TrackPointExtension>
            <ns3:hr>157</ns3:hr>
            <ns3:cad>82</ns3:cad>
          </ns3:TrackPointExtension>
        </extensions>
      </trkpt>
      <trkpt lat="42.6092222146689891815185546875" lon="2.758771665394306182861328125">
        <ele>145.1999969482421875</ele>
        <time>2023-08-19T17:13:32.000Z</time>
        <extensions>
          <ns3:TrackPointExtension>
            <ns3:hr>157</ns3:hr>
            <ns3:cad>82</ns3:cad>
          </ns3:TrackPointExtension>
        </extensions>
      </trkpt>
      <trkpt lat="42.60919782333076000213623046875" lon="2.7587632834911346435546875">
        <ele>145.1999969482421875</ele>
        <time>2023-08-19T17:13:33.000Z</time>
        <extensions>
          <ns3:TrackPointExtension>
            <ns3:hr>157</ns3:hr>
            <ns3:cad>82</ns3:cad>
          </ns3:TrackPointExtension>
        </extensions>
      </trkpt>
      <trkpt lat="42.60917167179286479949951171875" lon="2.7587523870170116424560546875">
        <ele>145.399993896484375</ele>
        <time>2023-08-19T17:13:34.000Z</time>
        <extensions>
          <ns3:TrackPointExtension>
            <ns3:hr>157</ns3:hr>
            <ns3:cad>82</ns3:cad>
          </ns3:TrackPointExtension>
        </extensions>
      </trkpt>
      <trkpt lat="42.6091417483985424041748046875" lon="2.758744172751903533935546875">
        <ele>145.399993896484375</ele>
        <time>2023-08-19T17:13:35.000Z</time>
        <extensions>
          <ns3:TrackPointExtension>
            <ns3:hr>157</ns3:hr>
            <ns3:cad>82</ns3:cad>
          </ns3:TrackPointExtension>
        </extensions>
      </trkpt>
      <trkpt lat="42.6091129146516323089599609375" lon="2.75874844752252101898193359375">
        <ele>145.399993896484375</ele>
        <time>2023-08-19T17:13:36.000Z</time>
        <extensions>
          <ns3:TrackPointExtension>
            <ns3:hr>157</ns3:hr>
            <ns3:cad>83</ns3:cad>
          </ns3:TrackPointExtension>
        </extensions>
      </trkpt>
      <trkpt lat="42.60908517055213451385498046875" lon="2.75875733233988285064697265625">
        <ele>145.600006103515625</ele>
        <time>2023-08-19T17:13:37.000Z</time>
        <extensions>
          <ns3:TrackPointExtension>
            <ns3:hr>157</ns3:hr>
            <ns3:cad>83</ns3:cad>
          </ns3:TrackPointExtension>
        </extensions>
      </trkpt>
      <trkpt lat="42.60906077921390533447265625" lon="2.7587671391665935516357421875">
        <ele>145.600006103515625</ele>
        <time>2023-08-19T17:13:38.000Z</time>
        <extensions>
          <ns3:TrackPointExtension>
            <ns3:hr>157</ns3:hr>
            <ns3:cad>83</ns3:cad>
          </ns3:TrackPointExtension>
        </extensions>
      </trkpt>
      <trkpt lat="42.60903387330472469329833984375" lon="2.7587812207639217376708984375">
        <ele>145.600006103515625</ele>
        <time>2023-08-19T17:13:39.000Z</time>
        <extensions>
          <ns3:TrackPointExtension>
            <ns3:hr>157</ns3:hr>
            <ns3:cad>83</ns3:cad>
          </ns3:TrackPointExtension>
        </extensions>
      </trkpt>
      <trkpt lat="42.609007470309734344482421875" lon="2.75879404507577419281005859375">
        <ele>145.600006103515625</ele>
        <time>2023-08-19T17:13:40.000Z</time>
        <extensions>
          <ns3:TrackPointExtension>
            <ns3:hr>157</ns3:hr>
            <ns3:cad>82</ns3:cad>
          </ns3:TrackPointExtension>
        </extensions>
      </trkpt>
      <trkpt lat="42.60898995213210582733154296875" lon="2.75880410335958003997802734375">
        <ele>145.600006103515625</ele>
        <time>2023-08-19T17:13:41.000Z</time>
        <extensions>
          <ns3:TrackPointExtension>
            <ns3:hr>157</ns3:hr>
            <ns3:cad>82</ns3:cad>
          </ns3:TrackPointExtension>
        </extensions>
      </trkpt>
      <trkpt lat="42.608963884413242340087890625" lon="2.75881315581500530242919921875">
        <ele>145.600006103515625</ele>
        <time>2023-08-19T17:13:42.000Z</time>
        <extensions>
          <ns3:TrackPointExtension>
            <ns3:hr>156</ns3:hr>
            <ns3:cad>82</ns3:cad>
          </ns3:TrackPointExtension>
        </extensions>
      </trkpt>
      <trkpt lat="42.6089365594089031219482421875" lon="2.75882220827043056488037109375">
        <ele>145.8000030517578125</ele>
        <time>2023-08-19T17:13:43.000Z</time>
        <extensions>
          <ns3:TrackPointExtension>
            <ns3:hr>156</ns3:hr>
            <ns3:cad>82</ns3:cad>
          </ns3:TrackPointExtension>
        </extensions>
      </trkpt>
      <trkpt lat="42.60891250334680080413818359375" lon="2.7588335238397121429443359375">
        <ele>146</ele>
        <time>2023-08-19T17:13:44.000Z</time>
        <extensions>
          <ns3:TrackPointExtension>
            <ns3:hr>156</ns3:hr>
            <ns3:cad>82</ns3:cad>
          </ns3:TrackPointExtension>
        </extensions>
      </trkpt>
      <trkpt lat="42.6088862679898738861083984375" lon="2.75884165428578853607177734375">
        <ele>146</ele>
        <time>2023-08-19T17:13:45.000Z</time>
        <extensions>
          <ns3:TrackPointExtension>
            <ns3:hr>156</ns3:hr>
            <ns3:cad>82</ns3:cad>
          </ns3:TrackPointExtension>
        </extensions>
      </trkpt>
      <trkpt lat="42.608859948813915252685546875" lon="2.75884919799864292144775390625">
        <ele>146.1999969482421875</ele>
        <time>2023-08-19T17:13:46.000Z</time>
        <extensions>
          <ns3:TrackPointExtension>
            <ns3:hr>156</ns3:hr>
            <ns3:cad>81</ns3:cad>
          </ns3:TrackPointExtension>
        </extensions>
      </trkpt>
      <trkpt lat="42.608836479485034942626953125" lon="2.7588613517582416534423828125">
        <ele>146.1999969482421875</ele>
        <time>2023-08-19T17:13:47.000Z</time>
        <extensions>
          <ns3:TrackPointExtension>
            <ns3:hr>156</ns3:hr>
            <ns3:cad>81</ns3:cad>
          </ns3:TrackPointExtension>
        </extensions>
      </trkpt>
      <trkpt lat="42.60880873538553714752197265625" lon="2.758872248232364654541015625">
        <ele>146.1999969482421875</ele>
        <time>2023-08-19T17:13:48.000Z</time>
        <extensions>
          <ns3:TrackPointExtension>
            <ns3:hr>156</ns3:hr>
            <ns3:cad>81</ns3:cad>
          </ns3:TrackPointExtension>
        </extensions>
      </trkpt>
      <trkpt lat="42.6087836734950542449951171875" lon="2.75887928903102874755859375">
        <ele>146.1999969482421875</ele>
        <time>2023-08-19T17:13:49.000Z</time>
        <extensions>
          <ns3:TrackPointExtension>
            <ns3:hr>156</ns3:hr>
            <ns3:cad>81</ns3:cad>
          </ns3:TrackPointExtension>
        </extensions>
      </trkpt>
      <trkpt lat="42.60875727050006389617919921875" lon="2.758892364799976348876953125">
        <ele>146.1999969482421875</ele>
        <time>2023-08-19T17:13:50.000Z</time>
        <extensions>
          <ns3:TrackPointExtension>
            <ns3:hr>156</ns3:hr>
            <ns3:cad>81</ns3:cad>
          </ns3:TrackPointExtension>
        </extensions>
      </trkpt>
      <trkpt lat="42.608731202781200408935546875" lon="2.75889731012284755706787109375">
        <ele>146.399993896484375</ele>
        <time>2023-08-19T17:13:51.000Z</time>
        <extensions>
          <ns3:TrackPointExtension>
            <ns3:hr>155</ns3:hr>
            <ns3:cad>81</ns3:cad>
          </ns3:TrackPointExtension>
        </extensions>
      </trkpt>
      <trkpt lat="42.60871016420423984527587890625" lon="2.75890032760798931121826171875">
        <ele>146.399993896484375</ele>
        <time>2023-08-19T17:13:52.000Z</time>
        <extensions>
          <ns3:TrackPointExtension>
            <ns3:hr>155</ns3:hr>
            <ns3:cad>81</ns3:cad>
          </ns3:TrackPointExtension>
        </extensions>
      </trkpt>
      <trkpt lat="42.60868267156183719635009765625" lon="2.7589029259979724884033203125">
        <ele>146.399993896484375</ele>
        <time>2023-08-19T17:13:53.000Z</time>
        <extensions>
          <ns3:TrackPointExtension>
            <ns3:hr>155</ns3:hr>
            <ns3:cad>81</ns3:cad>
          </ns3:TrackPointExtension>
        </extensions>
      </trkpt>
      <trkpt lat="42.6086572743952274322509765625" lon="2.75890770368278026580810546875">
        <ele>146.600006103515625</ele>
        <time>2023-08-19T17:13:54.000Z</time>
        <extensions>
          <ns3:TrackPointExtension>
            <ns3:hr>155</ns3:hr>
            <ns3:cad>81</ns3:cad>
          </ns3:TrackPointExtension>
        </extensions>
      </trkpt>
      <trkpt lat="42.60863564908504486083984375" lon="2.75891281664371490478515625">
        <ele>146.8000030517578125</ele>
        <time>2023-08-19T17:13:55.000Z</time>
        <extensions>
          <ns3:TrackPointExtension>
            <ns3:hr>156</ns3:hr>
            <ns3:cad>81</ns3:cad>
          </ns3:TrackPointExtension>
        </extensions>
      </trkpt>
      <trkpt lat="42.6086170412600040435791015625" lon="2.7589173428714275360107421875">
        <ele>147</ele>
        <time>2023-08-19T17:13:56.000Z</time>
        <extensions>
          <ns3:TrackPointExtension>
            <ns3:hr>156</ns3:hr>
            <ns3:cad>81</ns3:cad>
          </ns3:TrackPointExtension>
        </extensions>
      </trkpt>
      <trkpt lat="42.6085949130356311798095703125" lon="2.7589193545281887054443359375">
        <ele>147.399993896484375</ele>
        <time>2023-08-19T17:13:57.000Z</time>
        <extensions>
          <ns3:TrackPointExtension>
            <ns3:hr>155</ns3:hr>
            <ns3:cad>81</ns3:cad>
          </ns3:TrackPointExtension>
        </extensions>
      </trkpt>
      <trkpt lat="42.60857529938220977783203125" lon="2.758926562964916229248046875">
        <ele>147.399993896484375</ele>
        <time>2023-08-19T17:13:58.000Z</time>
        <extensions>
          <ns3:TrackPointExtension>
            <ns3:hr>156</ns3:hr>
            <ns3:cad>81</ns3:cad>
          </ns3:TrackPointExtension>
        </extensions>
      </trkpt>
      <trkpt lat="42.6085509918630123138427734375" lon="2.75893284939229488372802734375">
        <ele>147.399993896484375</ele>
        <time>2023-08-19T17:13:59.000Z</time>
        <extensions>
          <ns3:TrackPointExtension>
            <ns3:hr>156</ns3:hr>
            <ns3:cad>81</ns3:cad>
          </ns3:TrackPointExtension>
        </extensions>
      </trkpt>
      <trkpt lat="42.6085265167057514190673828125" lon="2.7589381299912929534912109375">
        <ele>147.600006103515625</ele>
        <time>2023-08-19T17:14:00.000Z</time>
        <extensions>
          <ns3:TrackPointExtension>
            <ns3:hr>156</ns3:hr>
            <ns3:cad>81</ns3:cad>
          </ns3:TrackPointExtension>
        </extensions>
      </trkpt>
      <trkpt lat="42.60850279591977596282958984375" lon="2.75894776917994022369384765625">
        <ele>147.8000030517578125</ele>
        <time>2023-08-19T17:14:01.000Z</time>
        <extensions>
          <ns3:TrackPointExtension>
            <ns3:hr>156</ns3:hr>
            <ns3:cad>81</ns3:cad>
          </ns3:TrackPointExtension>
        </extensions>
      </trkpt>
      <trkpt lat="42.60847630910575389862060546875" lon="2.75895665399730205535888671875">
        <ele>148</ele>
        <time>2023-08-19T17:14:02.000Z</time>
        <extensions>
          <ns3:TrackPointExtension>
            <ns3:hr>156</ns3:hr>
            <ns3:cad>82</ns3:cad>
          </ns3:TrackPointExtension>
        </extensions>
      </trkpt>
      <trkpt lat="42.6084530912339687347412109375" lon="2.7589642815291881561279296875">
        <ele>148.1999969482421875</ele>
        <time>2023-08-19T17:14:03.000Z</time>
        <extensions>
          <ns3:TrackPointExtension>
            <ns3:hr>156</ns3:hr>
            <ns3:cad>82</ns3:cad>
          </ns3:TrackPointExtension>
        </extensions>
      </trkpt>
      <trkpt lat="42.60843314230442047119140625" lon="2.75897492654621601104736328125">
        <ele>148.1999969482421875</ele>
        <time>2023-08-19T17:14:04.000Z</time>
        <extensions>
          <ns3:TrackPointExtension>
            <ns3:hr>156</ns3:hr>
            <ns3:cad>82</ns3:cad>
          </ns3:TrackPointExtension>
        </extensions>
      </trkpt>
      <trkpt lat="42.60840606875717639923095703125" lon="2.75898657739162445068359375">
        <ele>148.1999969482421875</ele>
        <time>2023-08-19T17:14:05.000Z</time>
        <extensions>
          <ns3:TrackPointExtension>
            <ns3:hr>156</ns3:hr>
            <ns3:cad>81</ns3:cad>
          </ns3:TrackPointExtension>
        </extensions>
      </trkpt>
      <trkpt lat="42.6083826832473278045654296875" lon="2.75899504311382770538330078125">
        <ele>148.600006103515625</ele>
        <time>2023-08-19T17:14:06.000Z</time>
        <extensions>
          <ns3:TrackPointExtension>
            <ns3:hr>155</ns3:hr>
            <ns3:cad>81</ns3:cad>
          </ns3:TrackPointExtension>
        </extensions>
      </trkpt>
      <trkpt lat="42.608358375728130340576171875" lon="2.7590051852166652679443359375">
        <ele>148.600006103515625</ele>
        <time>2023-08-19T17:14:07.000Z</time>
        <extensions>
          <ns3:TrackPointExtension>
            <ns3:hr>155</ns3:hr>
            <ns3:cad>81</ns3:cad>
          </ns3:TrackPointExtension>
        </extensions>
      </trkpt>
      <trkpt lat="42.6083317212760448455810546875" lon="2.75901415385305881500244140625">
        <ele>148.8000030517578125</ele>
        <time>2023-08-19T17:14:08.000Z</time>
        <extensions>
          <ns3:TrackPointExtension>
            <ns3:hr>155</ns3:hr>
            <ns3:cad>81</ns3:cad>
          </ns3:TrackPointExtension>
        </extensions>
      </trkpt>
      <trkpt lat="42.60831110179424285888671875" lon="2.75902572087943553924560546875">
        <ele>149</ele>
        <time>2023-08-19T17:14:09.000Z</time>
        <extensions>
          <ns3:TrackPointExtension>
            <ns3:hr>155</ns3:hr>
            <ns3:cad>82</ns3:cad>
          </ns3:TrackPointExtension>
        </extensions>
      </trkpt>
      <trkpt lat="42.60828553698956966400146484375" lon="2.75903393514454364776611328125">
        <ele>149.399993896484375</ele>
        <time>2023-08-19T17:14:10.000Z</time>
        <extensions>
          <ns3:TrackPointExtension>
            <ns3:hr>155</ns3:hr>
            <ns3:cad>82</ns3:cad>
          </ns3:TrackPointExtension>
        </extensions>
      </trkpt>
      <trkpt lat="42.6082609780132770538330078125" lon="2.7590417303144931793212890625">
        <ele>149.600006103515625</ele>
        <time>2023-08-19T17:14:11.000Z</time>
        <extensions>
          <ns3:TrackPointExtension>
            <ns3:hr>155</ns3:hr>
            <ns3:cad>82</ns3:cad>
          </ns3:TrackPointExtension>
        </extensions>
      </trkpt>
      <trkpt lat="42.6082380115985870361328125" lon="2.7590529620647430419921875">
        <ele>149.8000030517578125</ele>
        <time>2023-08-19T17:14:12.000Z</time>
        <extensions>
          <ns3:TrackPointExtension>
            <ns3:hr>155</ns3:hr>
            <ns3:cad>82</ns3:cad>
          </ns3:TrackPointExtension>
        </extensions>
      </trkpt>
      <trkpt lat="42.60821244679391384124755859375" lon="2.75906092487275600433349609375">
        <ele>150</ele>
        <time>2023-08-19T17:14:13.000Z</time>
        <extensions>
          <ns3:TrackPointExtension>
            <ns3:hr>155</ns3:hr>
            <ns3:cad>82</ns3:cad>
          </ns3:TrackPointExtension>
        </extensions>
      </trkpt>
      <trkpt lat="42.60818914510309696197509765625" lon="2.7590725757181644439697265625">
        <ele>150</ele>
        <time>2023-08-19T17:14:14.000Z</time>
        <extensions>
          <ns3:TrackPointExtension>
            <ns3:hr>155</ns3:hr>
            <ns3:cad>83</ns3:cad>
          </ns3:TrackPointExtension>
        </extensions>
      </trkpt>
      <trkpt lat="42.60815930552780628204345703125" lon="2.75908674113452434539794921875">
        <ele>150</ele>
        <time>2023-08-19T17:14:15.000Z</time>
        <extensions>
          <ns3:TrackPointExtension>
            <ns3:hr>155</ns3:hr>
            <ns3:cad>83</ns3:cad>
          </ns3:TrackPointExtension>
        </extensions>
      </trkpt>
      <trkpt lat="42.608131729066371917724609375" lon="2.7590960450470447540283203125">
        <ele>150.1999969482421875</ele>
        <time>2023-08-19T17:14:16.000Z</time>
        <extensions>
          <ns3:TrackPointExtension>
            <ns3:hr>155</ns3:hr>
            <ns3:cad>83</ns3:cad>
          </ns3:TrackPointExtension>
        </extensions>
      </trkpt>
      <trkpt lat="42.6081080920994281768798828125" lon="2.75910803116858005523681640625">
        <ele>150.399993896484375</ele>
        <time>2023-08-19T17:14:17.000Z</time>
        <extensions>
          <ns3:TrackPointExtension>
            <ns3:hr>155</ns3:hr>
            <ns3:cad>83</ns3:cad>
          </ns3:TrackPointExtension>
        </extensions>
      </trkpt>
      <trkpt lat="42.6080811023712158203125" lon="2.75911658070981502532958984375">
        <ele>150.600006103515625</ele>
        <time>2023-08-19T17:14:18.000Z</time>
        <extensions>
          <ns3:TrackPointExtension>
            <ns3:hr>155</ns3:hr>
            <ns3:cad>83</ns3:cad>
          </ns3:TrackPointExtension>
        </extensions>
      </trkpt>
      <trkpt lat="42.60805738158524036407470703125" lon="2.759124375879764556884765625">
        <ele>150.600006103515625</ele>
        <time>2023-08-19T17:14:19.000Z</time>
        <extensions>
          <ns3:TrackPointExtension>
            <ns3:hr>155</ns3:hr>
            <ns3:cad>82</ns3:cad>
          </ns3:TrackPointExtension>
        </extensions>
      </trkpt>
      <trkpt lat="42.60803190059959888458251953125" lon="2.75913619436323642730712890625">
        <ele>150.600006103515625</ele>
        <time>2023-08-19T17:14:20.000Z</time>
        <extensions>
          <ns3:TrackPointExtension>
            <ns3:hr>155</ns3:hr>
            <ns3:cad>82</ns3:cad>
          </ns3:TrackPointExtension>
        </extensions>
      </trkpt>
      <trkpt lat="42.60800264775753021240234375" lon="2.759144492447376251220703125">
        <ele>150.600006103515625</ele>
        <time>2023-08-19T17:14:21.000Z</time>
        <extensions>
          <ns3:TrackPointExtension>
            <ns3:hr>155</ns3:hr>
            <ns3:cad>82</ns3:cad>
          </ns3:TrackPointExtension>
        </extensions>
      </trkpt>
      <trkpt lat="42.6079769991338253021240234375" lon="2.75915379635989665985107421875">
        <ele>150.399993896484375</ele>
        <time>2023-08-19T17:14:22.000Z</time>
        <extensions>
          <ns3:TrackPointExtension>
            <ns3:hr>155</ns3:hr>
            <ns3:cad>82</ns3:cad>
          </ns3:TrackPointExtension>
        </extensions>
      </trkpt>
      <trkpt lat="42.6079488359391689300537109375" lon="2.75916360318660736083984375">
        <ele>150.399993896484375</ele>
        <time>2023-08-19T17:14:23.000Z</time>
        <extensions>
          <ns3:TrackPointExtension>
            <ns3:hr>155</ns3:hr>
            <ns3:cad>82</ns3:cad>
          </ns3:TrackPointExtension>
        </extensions>
      </trkpt>
      <trkpt lat="42.60791975073516368865966796875" lon="2.75917156599462032318115234375">
        <ele>150.399993896484375</ele>
        <time>2023-08-19T17:14:24.000Z</time>
        <extensions>
          <ns3:TrackPointExtension>
            <ns3:hr>156</ns3:hr>
            <ns3:cad>82</ns3:cad>
          </ns3:TrackPointExtension>
        </extensions>
      </trkpt>
      <trkpt lat="42.60789259336888790130615234375" lon="2.75918061845004558563232421875">
        <ele>150.399993896484375</ele>
        <time>2023-08-19T17:14:25.000Z</time>
        <extensions>
          <ns3:TrackPointExtension>
            <ns3:hr>155</ns3:hr>
            <ns3:cad>83</ns3:cad>
          </ns3:TrackPointExtension>
        </extensions>
      </trkpt>
      <trkpt lat="42.60786023922264575958251953125" lon="2.759190760552883148193359375">
        <ele>150.399993896484375</ele>
        <time>2023-08-19T17:14:26.000Z</time>
        <extensions>
          <ns3:TrackPointExtension>
            <ns3:hr>155</ns3:hr>
            <ns3:cad>83</ns3:cad>
          </ns3:TrackPointExtension>
        </extensions>
      </trkpt>
      <trkpt lat="42.60782989673316478729248046875" lon="2.7591972984373569488525390625">
        <ele>150.1999969482421875</ele>
        <time>2023-08-19T17:14:27.000Z</time>
        <extensions>
          <ns3:TrackPointExtension>
            <ns3:hr>155</ns3:hr>
            <ns3:cad>83</ns3:cad>
          </ns3:TrackPointExtension>
        </extensions>
      </trkpt>
      <trkpt lat="42.6078003086149692535400390625" lon="2.7592056803405284881591796875">
        <ele>150.1999969482421875</ele>
        <time>2023-08-19T17:14:28.000Z</time>
        <extensions>
          <ns3:TrackPointExtension>
            <ns3:hr>156</ns3:hr>
            <ns3:cad>82</ns3:cad>
          </ns3:TrackPointExtension>
        </extensions>
      </trkpt>
      <trkpt lat="42.60775948874652385711669921875" lon="2.75921481661498546600341796875">
        <ele>149.8000030517578125</ele>
        <time>2023-08-19T17:14:29.000Z</time>
        <extensions>
          <ns3:TrackPointExtension>
            <ns3:hr>156</ns3:hr>
            <ns3:cad>82</ns3:cad>
          </ns3:TrackPointExtension>
        </extensions>
      </trkpt>
      <trkpt lat="42.6077255420386791229248046875" lon="2.7592264674603939056396484375">
        <ele>149.600006103515625</ele>
        <time>2023-08-19T17:14:30.000Z</time>
        <extensions>
          <ns3:TrackPointExtension>
            <ns3:hr>156</ns3:hr>
            <ns3:cad>83</ns3:cad>
          </ns3:TrackPointExtension>
        </extensions>
      </trkpt>
      <trkpt lat="42.6076881587505340576171875" lon="2.75923828594386577606201171875">
        <ele>149.1999969482421875</ele>
        <time>2023-08-19T17:14:31.000Z</time>
        <extensions>
          <ns3:TrackPointExtension>
            <ns3:hr>157</ns3:hr>
            <ns3:cad>84</ns3:cad>
          </ns3:TrackPointExtension>
        </extensions>
      </trkpt>
      <trkpt lat="42.60766142047941684722900390625" lon="2.75924666784703731536865234375">
        <ele>149</ele>
        <time>2023-08-19T17:14:32.000Z</time>
        <extensions>
          <ns3:TrackPointExtension>
            <ns3:hr>157</ns3:hr>
            <ns3:cad>84</ns3:cad>
          </ns3:TrackPointExtension>
        </extensions>
      </trkpt>
      <trkpt lat="42.6076283119618892669677734375" lon="2.75926443748176097869873046875">
        <ele>149</ele>
        <time>2023-08-19T17:14:33.000Z</time>
        <extensions>
          <ns3:TrackPointExtension>
            <ns3:hr>157</ns3:hr>
            <ns3:cad>84</ns3:cad>
          </ns3:TrackPointExtension>
        </extensions>
      </trkpt>
      <trkpt lat="42.607591263949871063232421875" lon="2.75927667506039142608642578125">
        <ele>148.600006103515625</ele>
        <time>2023-08-19T17:14:34.000Z</time>
        <extensions>
          <ns3:TrackPointExtension>
            <ns3:hr>157</ns3:hr>
            <ns3:cad>84</ns3:cad>
          </ns3:TrackPointExtension>
        </extensions>
      </trkpt>
      <trkpt lat="42.6075646094977855682373046875" lon="2.75929025374352931976318359375">
        <ele>148.1999969482421875</ele>
        <time>2023-08-19T17:14:35.000Z</time>
        <extensions>
          <ns3:TrackPointExtension>
            <ns3:hr>157</ns3:hr>
            <ns3:cad>84</ns3:cad>
          </ns3:TrackPointExtension>
        </extensions>
      </trkpt>
      <trkpt lat="42.60753284208476543426513671875" lon="2.75929561816155910491943359375">
        <ele>147.8000030517578125</ele>
        <time>2023-08-19T17:14:36.000Z</time>
        <extensions>
          <ns3:TrackPointExtension>
            <ns3:hr>158</ns3:hr>
            <ns3:cad>85</ns3:cad>
          </ns3:TrackPointExtension>
        </extensions>
      </trkpt>
      <trkpt lat="42.60750886984169483184814453125" lon="2.75929997675120830535888671875">
        <ele>147.600006103515625</ele>
        <time>2023-08-19T17:14:37.000Z</time>
        <extensions>
          <ns3:TrackPointExtension>
            <ns3:hr>158</ns3:hr>
            <ns3:cad>86</ns3:cad>
          </ns3:TrackPointExtension>
        </extensions>
      </trkpt>
      <trkpt lat="42.6074838079512119293212890625" lon="2.759271897375583648681640625">
        <ele>147.399993896484375</ele>
        <time>2023-08-19T17:14:38.000Z</time>
        <extensions>
          <ns3:TrackPointExtension>
            <ns3:hr>158</ns3:hr>
            <ns3:cad>87</ns3:cad>
          </ns3:TrackPointExtension>
        </extensions>
      </trkpt>
      <trkpt lat="42.60746712796390056610107421875" lon="2.75924197398126125335693359375">
        <ele>147.1999969482421875</ele>
        <time>2023-08-19T17:14:39.000Z</time>
        <extensions>
          <ns3:TrackPointExtension>
            <ns3:hr>158</ns3:hr>
            <ns3:cad>87</ns3:cad>
          </ns3:TrackPointExtension>
        </extensions>
      </trkpt>
      <trkpt lat="42.60744952596724033355712890625" lon="2.75920140556991100311279296875">
        <ele>147</ele>
        <time>2023-08-19T17:14:40.000Z</time>
        <extensions>
          <ns3:TrackPointExtension>
            <ns3:hr>158</ns3:hr>
            <ns3:cad>87</ns3:cad>
          </ns3:TrackPointExtension>
        </extensions>
      </trkpt>
      <trkpt lat="42.607444413006305694580078125" lon="2.75915957987308502197265625">
        <ele>147</ele>
        <time>2023-08-19T17:14:41.000Z</time>
        <extensions>
          <ns3:TrackPointExtension>
            <ns3:hr>158</ns3:hr>
            <ns3:cad>86</ns3:cad>
          </ns3:TrackPointExtension>
        </extensions>
      </trkpt>
      <trkpt lat="42.607441060245037078857421875" lon="2.75912337005138397216796875">
        <ele>147</ele>
        <time>2023-08-19T17:14:42.000Z</time>
        <extensions>
          <ns3:TrackPointExtension>
            <ns3:hr>158</ns3:hr>
            <ns3:cad>85</ns3:cad>
          </ns3:TrackPointExtension>
        </extensions>
      </trkpt>
      <trkpt lat="42.60743846185505390167236328125" lon="2.75908070616424083709716796875">
        <ele>146.8000030517578125</ele>
        <time>2023-08-19T17:14:43.000Z</time>
        <extensions>
          <ns3:TrackPointExtension>
            <ns3:hr>158</ns3:hr>
            <ns3:cad>85</ns3:cad>
          </ns3:TrackPointExtension>
        </extensions>
      </trkpt>
      <trkpt lat="42.60743594728410243988037109375" lon="2.75904064066708087921142578125">
        <ele>146.8000030517578125</ele>
        <time>2023-08-19T17:14:44.000Z</time>
        <extensions>
          <ns3:TrackPointExtension>
            <ns3:hr>158</ns3:hr>
            <ns3:cad>84</ns3:cad>
          </ns3:TrackPointExtension>
        </extensions>
      </trkpt>
      <trkpt lat="42.607433684170246124267578125" lon="2.759005688130855560302734375">
        <ele>146.8000030517578125</ele>
        <time>2023-08-19T17:14:45.000Z</time>
        <extensions>
          <ns3:TrackPointExtension>
            <ns3:hr>158</ns3:hr>
            <ns3:cad>84</ns3:cad>
          </ns3:TrackPointExtension>
        </extensions>
      </trkpt>
      <trkpt lat="42.60743427090346813201904296875" lon="2.75896805338561534881591796875">
        <ele>147</ele>
        <time>2023-08-19T17:14:46.000Z</time>
        <extensions>
          <ns3:TrackPointExtension>
            <ns3:hr>158</ns3:hr>
            <ns3:cad>84</ns3:cad>
          </ns3:TrackPointExtension>
        </extensions>
      </trkpt>
      <trkpt lat="42.60742890648543834686279296875" lon="2.7589337714016437530517578125">
        <ele>146.8000030517578125</ele>
        <time>2023-08-19T17:14:47.000Z</time>
        <extensions>
          <ns3:TrackPointExtension>
            <ns3:hr>158</ns3:hr>
            <ns3:cad>84</ns3:cad>
          </ns3:TrackPointExtension>
        </extensions>
      </trkpt>
      <trkpt lat="42.607422284781932830810546875" lon="2.75889194570481777191162109375">
        <ele>146.8000030517578125</ele>
        <time>2023-08-19T17:14:48.000Z</time>
        <extensions>
          <ns3:TrackPointExtension>
            <ns3:hr>158</ns3:hr>
            <ns3:cad>84</ns3:cad>
          </ns3:TrackPointExtension>
        </extensions>
      </trkpt>
      <trkpt lat="42.60741499252617359161376953125" lon="2.7588569931685924530029296875">
        <ele>146.8000030517578125</ele>
        <time>2023-08-19T17:14:49.000Z</time>
        <extensions>
          <ns3:TrackPointExtension>
            <ns3:hr>158</ns3:hr>
            <ns3:cad>84</ns3:cad>
          </ns3:TrackPointExtension>
        </extensions>
      </trkpt>
      <trkpt lat="42.6074083708226680755615234375" lon="2.75882539339363574981689453125">
        <ele>146.8000030517578125</ele>
        <time>2023-08-19T17:14:50.000Z</time>
        <extensions>
          <ns3:TrackPointExtension>
            <ns3:hr>158</ns3:hr>
            <ns3:cad>83</ns3:cad>
          </ns3:TrackPointExtension>
        </extensions>
      </trkpt>
      <trkpt lat="42.6074092090129852294921875" lon="2.7587889321148395538330078125">
        <ele>146.8000030517578125</ele>
        <time>2023-08-19T17:14:51.000Z</time>
        <extensions>
          <ns3:TrackPointExtension>
            <ns3:hr>158</ns3:hr>
            <ns3:cad>83</ns3:cad>
          </ns3:TrackPointExtension>
        </extensions>
      </trkpt>
      <trkpt lat="42.60740183293819427490234375" lon="2.758752889931201934814453125">
        <ele>146.8000030517578125</ele>
        <time>2023-08-19T17:14:52.000Z</time>
        <extensions>
          <ns3:TrackPointExtension>
            <ns3:hr>158</ns3:hr>
            <ns3:cad>83</ns3:cad>
          </ns3:TrackPointExtension>
        </extensions>
      </trkpt>
      <trkpt lat="42.60739554651081562042236328125" lon="2.758718691766262054443359375">
        <ele>146.8000030517578125</ele>
        <time>2023-08-19T17:14:53.000Z</time>
        <extensions>
          <ns3:TrackPointExtension>
            <ns3:hr>158</ns3:hr>
            <ns3:cad>83</ns3:cad>
          </ns3:TrackPointExtension>
        </extensions>
      </trkpt>
      <trkpt lat="42.60738783515989780426025390625" lon="2.75868491269648075103759765625">
        <ele>147</ele>
        <time>2023-08-19T17:14:54.000Z</time>
        <extensions>
          <ns3:TrackPointExtension>
            <ns3:hr>158</ns3:hr>
            <ns3:cad>83</ns3:cad>
          </ns3:TrackPointExtension>
        </extensions>
      </trkpt>
      <trkpt lat="42.6073792017996311187744140625" lon="2.75865490548312664031982421875">
        <ele>147</ele>
        <time>2023-08-19T17:14:55.000Z</time>
        <extensions>
          <ns3:TrackPointExtension>
            <ns3:hr>158</ns3:hr>
            <ns3:cad>83</ns3:cad>
          </ns3:TrackPointExtension>
        </extensions>
      </trkpt>
      <trkpt lat="42.60737442411482334136962890625" lon="2.75861919857561588287353515625">
        <ele>147.1999969482421875</ele>
        <time>2023-08-19T17:14:56.000Z</time>
        <extensions>
          <ns3:TrackPointExtension>
            <ns3:hr>158</ns3:hr>
            <ns3:cad>83</ns3:cad>
          </ns3:TrackPointExtension>
        </extensions>
      </trkpt>
      <trkpt lat="42.60736822150647640228271484375" lon="2.75858902372419834136962890625">
        <ele>147.1999969482421875</ele>
        <time>2023-08-19T17:14:57.000Z</time>
        <extensions>
          <ns3:TrackPointExtension>
            <ns3:hr>158</ns3:hr>
            <ns3:cad>83</ns3:cad>
          </ns3:TrackPointExtension>
        </extensions>
      </trkpt>
      <trkpt lat="42.60736419819295406341552734375" lon="2.758550383150577545166015625">
        <ele>147.399993896484375</ele>
        <time>2023-08-19T17:14:58.000Z</time>
        <extensions>
          <ns3:TrackPointExtension>
            <ns3:hr>158</ns3:hr>
            <ns3:cad>83</ns3:cad>
          </ns3:TrackPointExtension>
        </extensions>
      </trkpt>
      <trkpt lat="42.60736486874520778656005859375" lon="2.7585138380527496337890625">
        <ele>147.399993896484375</ele>
        <time>2023-08-19T17:14:59.000Z</time>
        <extensions>
          <ns3:TrackPointExtension>
            <ns3:hr>157</ns3:hr>
            <ns3:cad>83</ns3:cad>
          </ns3:TrackPointExtension>
        </extensions>
      </trkpt>
      <trkpt lat="42.60736336000263690948486328125" lon="2.75847938843071460723876953125">
        <ele>147.600006103515625</ele>
        <time>2023-08-19T17:15:00.000Z</time>
        <extensions>
          <ns3:TrackPointExtension>
            <ns3:hr>157</ns3:hr>
            <ns3:cad>83</ns3:cad>
          </ns3:TrackPointExtension>
        </extensions>
      </trkpt>
      <trkpt lat="42.6073716580867767333984375" lon="2.75844049639999866485595703125">
        <ele>147.8000030517578125</ele>
        <time>2023-08-19T17:15:01.000Z</time>
        <extensions>
          <ns3:TrackPointExtension>
            <ns3:hr>157</ns3:hr>
            <ns3:cad>83</ns3:cad>
          </ns3:TrackPointExtension>
        </extensions>
      </trkpt>
      <trkpt lat="42.60738163255155086517333984375" lon="2.75841283611953258514404296875">
        <ele>147.8000030517578125</ele>
        <time>2023-08-19T17:15:02.000Z</time>
        <extensions>
          <ns3:TrackPointExtension>
            <ns3:hr>157</ns3:hr>
            <ns3:cad>83</ns3:cad>
          </ns3:TrackPointExtension>
        </extensions>
      </trkpt>
      <trkpt lat="42.607397474348545074462890625" lon="2.75838442146778106689453125">
        <ele>147.8000030517578125</ele>
        <time>2023-08-19T17:15:03.000Z</time>
        <extensions>
          <ns3:TrackPointExtension>
            <ns3:hr>157</ns3:hr>
            <ns3:cad>83</ns3:cad>
          </ns3:TrackPointExtension>
        </extensions>
      </trkpt>
      <trkpt lat="42.6074204407632350921630859375" lon="2.758361287415027618408203125">
        <ele>148</ele>
        <time>2023-08-19T17:15:04.000Z</time>
        <extensions>
          <ns3:TrackPointExtension>
            <ns3:hr>157</ns3:hr>
            <ns3:cad>83</ns3:cad>
          </ns3:TrackPointExtension>
        </extensions>
      </trkpt>
      <trkpt lat="42.60744080878794193267822265625" lon="2.7583406679332256317138671875">
        <ele>148.1999969482421875</ele>
        <time>2023-08-19T17:15:05.000Z</time>
        <extensions>
          <ns3:TrackPointExtension>
            <ns3:hr>157</ns3:hr>
            <ns3:cad>83</ns3:cad>
          </ns3:TrackPointExtension>
        </extensions>
      </trkpt>
      <trkpt lat="42.6074650324881076812744140625" lon="2.7583182044327259063720703125">
        <ele>148.399993896484375</ele>
        <time>2023-08-19T17:15:06.000Z</time>
        <extensions>
          <ns3:TrackPointExtension>
            <ns3:hr>157</ns3:hr>
            <ns3:cad>83</ns3:cad>
          </ns3:TrackPointExtension>
        </extensions>
      </trkpt>
      <trkpt lat="42.60748422704637050628662109375" lon="2.7583011053502559661865234375">
        <ele>148.600006103515625</ele>
        <time>2023-08-19T17:15:07.000Z</time>
        <extensions>
          <ns3:TrackPointExtension>
            <ns3:hr>157</ns3:hr>
            <ns3:cad>83</ns3:cad>
          </ns3:TrackPointExtension>
        </extensions>
      </trkpt>
      <trkpt lat="42.60750400833785533905029296875" lon="2.75827855803072452545166015625">
        <ele>148.600006103515625</ele>
        <time>2023-08-19T17:15:08.000Z</time>
        <extensions>
          <ns3:TrackPointExtension>
            <ns3:hr>157</ns3:hr>
            <ns3:cad>83</ns3:cad>
          </ns3:TrackPointExtension>
        </extensions>
      </trkpt>
      <trkpt lat="42.6075203530490398406982421875" lon="2.75824838317930698394775390625">
        <ele>148.8000030517578125</ele>
        <time>2023-08-19T17:15:09.000Z</time>
        <extensions>
          <ns3:TrackPointExtension>
            <ns3:hr>157</ns3:hr>
            <ns3:cad>83</ns3:cad>
          </ns3:TrackPointExtension>
        </extensions>
      </trkpt>
      <trkpt lat="42.60752798058092594146728515625" lon="2.75822374038398265838623046875">
        <ele>148.8000030517578125</ele>
        <time>2023-08-19T17:15:10.000Z</time>
        <extensions>
          <ns3:TrackPointExtension>
            <ns3:hr>157</ns3:hr>
            <ns3:cad>83</ns3:cad>
          </ns3:TrackPointExtension>
        </extensions>
      </trkpt>
      <trkpt lat="42.60753192007541656494140625" lon="2.758187949657440185546875">
        <ele>149.1999969482421875</ele>
        <time>2023-08-19T17:15:11.000Z</time>
        <extensions>
          <ns3:TrackPointExtension>
            <ns3:hr>157</ns3:hr>
            <ns3:cad>83</ns3:cad>
          </ns3:TrackPointExtension>
        </extensions>
      </trkpt>
      <trkpt lat="42.6075324229896068572998046875" lon="2.75815819390118122100830078125">
        <ele>149.399993896484375</ele>
        <time>2023-08-19T17:15:12.000Z</time>
        <extensions>
          <ns3:TrackPointExtension>
            <ns3:hr>157</ns3:hr>
            <ns3:cad>83</ns3:cad>
          </ns3:TrackPointExtension>
        </extensions>
      </trkpt>
      <trkpt lat="42.60752789676189422607421875" lon="2.75812667794525623321533203125">
        <ele>149.600006103515625</ele>
        <time>2023-08-19T17:15:13.000Z</time>
        <extensions>
          <ns3:TrackPointExtension>
            <ns3:hr>157</ns3:hr>
            <ns3:cad>83</ns3:cad>
          </ns3:TrackPointExtension>
        </extensions>
      </trkpt>
      <trkpt lat="42.6075206883251667022705078125" lon="2.75809113867580890655517578125">
        <ele>149.600006103515625</ele>
        <time>2023-08-19T17:15:14.000Z</time>
        <extensions>
          <ns3:TrackPointExtension>
            <ns3:hr>157</ns3:hr>
            <ns3:cad>83</ns3:cad>
          </ns3:TrackPointExtension>
        </extensions>
      </trkpt>
      <trkpt lat="42.60751247406005859375" lon="2.7580590359866619110107421875">
        <ele>149.600006103515625</ele>
        <time>2023-08-19T17:15:15.000Z</time>
        <extensions>
          <ns3:TrackPointExtension>
            <ns3:hr>157</ns3:hr>
            <ns3:cad>83</ns3:cad>
          </ns3:TrackPointExtension>
        </extensions>
      </trkpt>
      <trkpt lat="42.60750249959528446197509765625" lon="2.75802500545978546142578125">
        <ele>149.8000030517578125</ele>
        <time>2023-08-19T17:15:16.000Z</time>
        <extensions>
          <ns3:TrackPointExtension>
            <ns3:hr>157</ns3:hr>
            <ns3:cad>83</ns3:cad>
          </ns3:TrackPointExtension>
        </extensions>
      </trkpt>
      <trkpt lat="42.607493363320827484130859375" lon="2.75799189694225788116455078125">
        <ele>149.8000030517578125</ele>
        <time>2023-08-19T17:15:17.000Z</time>
        <extensions>
          <ns3:TrackPointExtension>
            <ns3:hr>157</ns3:hr>
            <ns3:cad>82</ns3:cad>
          </ns3:TrackPointExtension>
        </extensions>
      </trkpt>
      <trkpt lat="42.607483975589275360107421875" lon="2.75796373374760150909423828125">
        <ele>149.8000030517578125</ele>
        <time>2023-08-19T17:15:18.000Z</time>
        <extensions>
          <ns3:TrackPointExtension>
            <ns3:hr>157</ns3:hr>
            <ns3:cad>82</ns3:cad>
          </ns3:TrackPointExtension>
        </extensions>
      </trkpt>
      <trkpt lat="42.60747668333351612091064453125" lon="2.7579279430210590362548828125">
        <ele>150</ele>
        <time>2023-08-19T17:15:19.000Z</time>
        <extensions>
          <ns3:TrackPointExtension>
            <ns3:hr>157</ns3:hr>
            <ns3:cad>82</ns3:cad>
          </ns3:TrackPointExtension>
        </extensions>
      </trkpt>
      <trkpt lat="42.6074707321822643280029296875" lon="2.75789215229451656341552734375">
        <ele>150</ele>
        <time>2023-08-19T17:15:20.000Z</time>
        <extensions>
          <ns3:TrackPointExtension>
            <ns3:hr>158</ns3:hr>
            <ns3:cad>82</ns3:cad>
          </ns3:TrackPointExtension>
        </extensions>
      </trkpt>
      <trkpt lat="42.60746276937425136566162109375" lon="2.75786315090954303741455078125">
        <ele>150.1999969482421875</ele>
        <time>2023-08-19T17:15:21.000Z</time>
        <extensions>
          <ns3:TrackPointExtension>
            <ns3:hr>158</ns3:hr>
            <ns3:cad>82</ns3:cad>
          </ns3:TrackPointExtension>
        </extensions>
      </trkpt>
      <trkpt lat="42.60745388455688953399658203125" lon="2.75782660581171512603759765625">
        <ele>150.399993896484375</ele>
        <time>2023-08-19T17:15:22.000Z</time>
        <extensions>
          <ns3:TrackPointExtension>
            <ns3:hr>157</ns3:hr>
            <ns3:cad>82</ns3:cad>
          </ns3:TrackPointExtension>
        </extensions>
      </trkpt>
      <trkpt lat="42.60744734667241573333740234375" lon="2.75779341347515583038330078125">
        <ele>150.399993896484375</ele>
        <time>2023-08-19T17:15:23.000Z</time>
        <extensions>
          <ns3:TrackPointExtension>
            <ns3:hr>157</ns3:hr>
            <ns3:cad>82</ns3:cad>
          </ns3:TrackPointExtension>
        </extensions>
      </trkpt>
      <trkpt lat="42.60743829421699047088623046875" lon="2.7577626518905162811279296875">
        <ele>150.399993896484375</ele>
        <time>2023-08-19T17:15:24.000Z</time>
        <extensions>
          <ns3:TrackPointExtension>
            <ns3:hr>157</ns3:hr>
            <ns3:cad>82</ns3:cad>
          </ns3:TrackPointExtension>
        </extensions>
      </trkpt>
      <trkpt lat="42.60743091814219951629638671875" lon="2.75772325694561004638671875">
        <ele>150.399993896484375</ele>
        <time>2023-08-19T17:15:25.000Z</time>
        <extensions>
          <ns3:TrackPointExtension>
            <ns3:hr>157</ns3:hr>
            <ns3:cad>81</ns3:cad>
          </ns3:TrackPointExtension>
        </extensions>
      </trkpt>
      <trkpt lat="42.6074231229722499847412109375" lon="2.7576895616948604583740234375">
        <ele>150.399993896484375</ele>
        <time>2023-08-19T17:15:26.000Z</time>
        <extensions>
          <ns3:TrackPointExtension>
            <ns3:hr>157</ns3:hr>
            <ns3:cad>83</ns3:cad>
          </ns3:TrackPointExtension>
        </extensions>
      </trkpt>
      <trkpt lat="42.6074159145355224609375" lon="2.75765217840671539306640625">
        <ele>150.399993896484375</ele>
        <time>2023-08-19T17:15:27.000Z</time>
        <extensions>
          <ns3:TrackPointExtension>
            <ns3:hr>157</ns3:hr>
            <ns3:cad>83</ns3:cad>
          </ns3:TrackPointExtension>
        </extensions>
      </trkpt>
      <trkpt lat="42.60741130448877811431884765625" lon="2.75761471129953861236572265625">
        <ele>150.399993896484375</ele>
        <time>2023-08-19T17:15:28.000Z</time>
        <extensions>
          <ns3:TrackPointExtension>
            <ns3:hr>157</ns3:hr>
            <ns3:cad>83</ns3:cad>
          </ns3:TrackPointExtension>
        </extensions>
      </trkpt>
      <trkpt lat="42.60740317404270172119140625" lon="2.757581770420074462890625">
        <ele>150.600006103515625</ele>
        <time>2023-08-19T17:15:29.000Z</time>
        <extensions>
          <ns3:TrackPointExtension>
            <ns3:hr>157</ns3:hr>
            <ns3:cad>83</ns3:cad>
          </ns3:TrackPointExtension>
        </extensions>
      </trkpt>
      <trkpt lat="42.607395462691783905029296875" lon="2.757543213665485382080078125">
        <ele>150.600006103515625</ele>
        <time>2023-08-19T17:15:30.000Z</time>
        <extensions>
          <ns3:TrackPointExtension>
            <ns3:hr>157</ns3:hr>
            <ns3:cad>82</ns3:cad>
          </ns3:TrackPointExtension>
        </extensions>
      </trkpt>
      <trkpt lat="42.60739001445472240447998046875" lon="2.75751094333827495574951171875">
        <ele>150.600006103515625</ele>
        <time>2023-08-19T17:15:31.000Z</time>
        <extensions>
          <ns3:TrackPointExtension>
            <ns3:hr>157</ns3:hr>
            <ns3:cad>82</ns3:cad>
          </ns3:TrackPointExtension>
        </extensions>
      </trkpt>
      <trkpt lat="42.60738079436123371124267578125" lon="2.7574793435633182525634765625">
        <ele>150.600006103515625</ele>
        <time>2023-08-19T17:15:32.000Z</time>
        <extensions>
          <ns3:TrackPointExtension>
            <ns3:hr>157</ns3:hr>
            <ns3:cad>82</ns3:cad>
          </ns3:TrackPointExtension>
        </extensions>
      </trkpt>
      <trkpt lat="42.6073728315532207489013671875" lon="2.75744162499904632568359375">
        <ele>150.600006103515625</ele>
        <time>2023-08-19T17:15:33.000Z</time>
        <extensions>
          <ns3:TrackPointExtension>
            <ns3:hr>157</ns3:hr>
            <ns3:cad>82</ns3:cad>
          </ns3:TrackPointExtension>
        </extensions>
      </trkpt>
      <trkpt lat="42.6073654554784297943115234375" lon="2.75740885175764560699462890625">
        <ele>150.600006103515625</ele>
        <time>2023-08-19T17:15:34.000Z</time>
        <extensions>
          <ns3:TrackPointExtension>
            <ns3:hr>157</ns3:hr>
            <ns3:cad>82</ns3:cad>
          </ns3:TrackPointExtension>
        </extensions>
      </trkpt>
      <trkpt lat="42.607357241213321685791015625" lon="2.75737230665981769561767578125">
        <ele>150.600006103515625</ele>
        <time>2023-08-19T17:15:35.000Z</time>
        <extensions>
          <ns3:TrackPointExtension>
            <ns3:hr>157</ns3:hr>
            <ns3:cad>82</ns3:cad>
          </ns3:TrackPointExtension>
        </extensions>
      </trkpt>
      <trkpt lat="42.60735246352851390838623046875" lon="2.7573348395526409149169921875">
        <ele>150.600006103515625</ele>
        <time>2023-08-19T17:15:36.000Z</time>
        <extensions>
          <ns3:TrackPointExtension>
            <ns3:hr>157</ns3:hr>
            <ns3:cad>82</ns3:cad>
          </ns3:TrackPointExtension>
        </extensions>
      </trkpt>
      <trkpt lat="42.6073448359966278076171875" lon="2.7573036588728427886962890625">
        <ele>150.600006103515625</ele>
        <time>2023-08-19T17:15:37.000Z</time>
        <extensions>
          <ns3:TrackPointExtension>
            <ns3:hr>157</ns3:hr>
            <ns3:cad>82</ns3:cad>
          </ns3:TrackPointExtension>
        </extensions>
      </trkpt>
      <trkpt lat="42.6073453389108180999755859375" lon="2.75726870633661746978759765625">
        <ele>150.600006103515625</ele>
        <time>2023-08-19T17:15:38.000Z</time>
        <extensions>
          <ns3:TrackPointExtension>
            <ns3:hr>157</ns3:hr>
            <ns3:cad>82</ns3:cad>
          </ns3:TrackPointExtension>
        </extensions>
      </trkpt>
      <trkpt lat="42.607343159615993499755859375" lon="2.75723802857100963592529296875">
        <ele>150.600006103515625</ele>
        <time>2023-08-19T17:15:39.000Z</time>
        <extensions>
          <ns3:TrackPointExtension>
            <ns3:hr>156</ns3:hr>
            <ns3:cad>82</ns3:cad>
          </ns3:TrackPointExtension>
        </extensions>
      </trkpt>
      <trkpt lat="42.60733838193118572235107421875" lon="2.75720827281475067138671875">
        <ele>150.600006103515625</ele>
        <time>2023-08-19T17:15:40.000Z</time>
        <extensions>
          <ns3:TrackPointExtension>
            <ns3:hr>156</ns3:hr>
            <ns3:cad>82</ns3:cad>
          </ns3:TrackPointExtension>
        </extensions>
      </trkpt>
      <trkpt lat="42.6073339395225048065185546875" lon="2.7571708895266056060791015625">
        <ele>150.600006103515625</ele>
        <time>2023-08-19T17:15:41.000Z</time>
        <extensions>
          <ns3:TrackPointExtension>
            <ns3:hr>156</ns3:hr>
            <ns3:cad>83</ns3:cad>
          </ns3:TrackPointExtension>
        </extensions>
      </trkpt>
      <trkpt lat="42.6073279045522212982177734375" lon="2.757136523723602294921875">
        <ele>150.600006103515625</ele>
        <time>2023-08-19T17:15:42.000Z</time>
        <extensions>
          <ns3:TrackPointExtension>
            <ns3:hr>156</ns3:hr>
            <ns3:cad>83</ns3:cad>
          </ns3:TrackPointExtension>
        </extensions>
      </trkpt>
      <trkpt lat="42.6073205284774303436279296875" lon="2.757094614207744598388671875">
        <ele>150.8000030517578125</ele>
        <time>2023-08-19T17:15:43.000Z</time>
        <extensions>
          <ns3:TrackPointExtension>
            <ns3:hr>156</ns3:hr>
            <ns3:cad>83</ns3:cad>
          </ns3:TrackPointExtension>
        </extensions>
      </trkpt>
      <trkpt lat="42.6073165051639080047607421875" lon="2.757058404386043548583984375">
        <ele>150.8000030517578125</ele>
        <time>2023-08-19T17:15:44.000Z</time>
        <extensions>
          <ns3:TrackPointExtension>
            <ns3:hr>156</ns3:hr>
            <ns3:cad>83</ns3:cad>
          </ns3:TrackPointExtension>
        </extensions>
      </trkpt>
      <trkpt lat="42.6073097996413707733154296875" lon="2.7570243738591670989990234375">
        <ele>150.8000030517578125</ele>
        <time>2023-08-19T17:15:45.000Z</time>
        <extensions>
          <ns3:TrackPointExtension>
            <ns3:hr>156</ns3:hr>
            <ns3:cad>83</ns3:cad>
          </ns3:TrackPointExtension>
        </extensions>
      </trkpt>
      <trkpt lat="42.60730334557592868804931640625" lon="2.7569811232388019561767578125">
        <ele>150.8000030517578125</ele>
        <time>2023-08-19T17:15:46.000Z</time>
        <extensions>
          <ns3:TrackPointExtension>
            <ns3:hr>156</ns3:hr>
            <ns3:cad>83</ns3:cad>
          </ns3:TrackPointExtension>
        </extensions>
      </trkpt>
      <trkpt lat="42.607300579547882080078125" lon="2.75694818235933780670166015625">
        <ele>150.8000030517578125</ele>
        <time>2023-08-19T17:15:47.000Z</time>
        <extensions>
          <ns3:TrackPointExtension>
            <ns3:hr>156</ns3:hr>
            <ns3:cad>83</ns3:cad>
          </ns3:TrackPointExtension>
        </extensions>
      </trkpt>
      <trkpt lat="42.60729647241532802581787109375" lon="2.75691398419439792633056640625">
        <ele>151</ele>
        <time>2023-08-19T17:15:48.000Z</time>
        <extensions>
          <ns3:TrackPointExtension>
            <ns3:hr>156</ns3:hr>
            <ns3:cad>83</ns3:cad>
          </ns3:TrackPointExtension>
        </extensions>
      </trkpt>
      <trkpt lat="42.60729077272117137908935546875" lon="2.75687576271593570709228515625">
        <ele>151</ele>
        <time>2023-08-19T17:15:49.000Z</time>
        <extensions>
          <ns3:TrackPointExtension>
            <ns3:hr>156</ns3:hr>
            <ns3:cad>83</ns3:cad>
          </ns3:TrackPointExtension>
        </extensions>
      </trkpt>
      <trkpt lat="42.60728373192250728607177734375" lon="2.7568423189222812652587890625">
        <ele>151</ele>
        <time>2023-08-19T17:15:50.000Z</time>
        <extensions>
          <ns3:TrackPointExtension>
            <ns3:hr>156</ns3:hr>
            <ns3:cad>83</ns3:cad>
          </ns3:TrackPointExtension>
        </extensions>
      </trkpt>
      <trkpt lat="42.60727954097092151641845703125" lon="2.756803929805755615234375">
        <ele>150.8000030517578125</ele>
        <time>2023-08-19T17:15:51.000Z</time>
        <extensions>
          <ns3:TrackPointExtension>
            <ns3:hr>156</ns3:hr>
            <ns3:cad>83</ns3:cad>
          </ns3:TrackPointExtension>
        </extensions>
      </trkpt>
      <trkpt lat="42.60727535001933574676513671875" lon="2.7567662112414836883544921875">
        <ele>150.8000030517578125</ele>
        <time>2023-08-19T17:15:52.000Z</time>
        <extensions>
          <ns3:TrackPointExtension>
            <ns3:hr>156</ns3:hr>
            <ns3:cad>83</ns3:cad>
          </ns3:TrackPointExtension>
        </extensions>
      </trkpt>
      <trkpt lat="42.60726847685873508453369140625" lon="2.75672681629657745361328125">
        <ele>150.8000030517578125</ele>
        <time>2023-08-19T17:15:53.000Z</time>
        <extensions>
          <ns3:TrackPointExtension>
            <ns3:hr>157</ns3:hr>
            <ns3:cad>83</ns3:cad>
          </ns3:TrackPointExtension>
        </extensions>
      </trkpt>
      <trkpt lat="42.60726445354521274566650390625" lon="2.7566887624561786651611328125">
        <ele>151</ele>
        <time>2023-08-19T17:15:54.000Z</time>
        <extensions>
          <ns3:TrackPointExtension>
            <ns3:hr>157</ns3:hr>
            <ns3:cad>83</ns3:cad>
          </ns3:TrackPointExtension>
        </extensions>
      </trkpt>
      <trkpt lat="42.60725875385105609893798828125" lon="2.756654061377048492431640625">
        <ele>151</ele>
        <time>2023-08-19T17:15:55.000Z</time>
        <extensions>
          <ns3:TrackPointExtension>
            <ns3:hr>156</ns3:hr>
            <ns3:cad>84</ns3:cad>
          </ns3:TrackPointExtension>
        </extensions>
      </trkpt>
      <trkpt lat="42.60725305415689945220947265625" lon="2.75661416351795196533203125">
        <ele>151</ele>
        <time>2023-08-19T17:15:56.000Z</time>
        <extensions>
          <ns3:TrackPointExtension>
            <ns3:hr>156</ns3:hr>
            <ns3:cad>83</ns3:cad>
          </ns3:TrackPointExtension>
        </extensions>
      </trkpt>
      <trkpt lat="42.60724961757659912109375" lon="2.75658038444817066192626953125">
        <ele>151</ele>
        <time>2023-08-19T17:15:57.000Z</time>
        <extensions>
          <ns3:TrackPointExtension>
            <ns3:hr>156</ns3:hr>
            <ns3:cad>83</ns3:cad>
          </ns3:TrackPointExtension>
        </extensions>
      </trkpt>
      <trkpt lat="42.60724316351115703582763671875" lon="2.75654417462646961212158203125">
        <ele>151</ele>
        <time>2023-08-19T17:15:58.000Z</time>
        <extensions>
          <ns3:TrackPointExtension>
            <ns3:hr>156</ns3:hr>
            <ns3:cad>83</ns3:cad>
          </ns3:TrackPointExtension>
        </extensions>
      </trkpt>
      <trkpt lat="42.607237882912158966064453125" lon="2.75650427676737308502197265625">
        <ele>151</ele>
        <time>2023-08-19T17:15:59.000Z</time>
        <extensions>
          <ns3:TrackPointExtension>
            <ns3:hr>156</ns3:hr>
            <ns3:cad>83</ns3:cad>
          </ns3:TrackPointExtension>
        </extensions>
      </trkpt>
      <trkpt lat="42.60723344050347805023193359375" lon="2.75646924041211605072021484375">
        <ele>151</ele>
        <time>2023-08-19T17:16:00.000Z</time>
        <extensions>
          <ns3:TrackPointExtension>
            <ns3:hr>156</ns3:hr>
            <ns3:cad>83</ns3:cad>
          </ns3:TrackPointExtension>
        </extensions>
      </trkpt>
      <trkpt lat="42.6072273217141628265380859375" lon="2.75642816908657550811767578125">
        <ele>151</ele>
        <time>2023-08-19T17:16:01.000Z</time>
        <extensions>
          <ns3:TrackPointExtension>
            <ns3:hr>156</ns3:hr>
            <ns3:cad>83</ns3:cad>
          </ns3:TrackPointExtension>
        </extensions>
      </trkpt>
      <trkpt lat="42.60722489096224308013916015625" lon="2.756389863789081573486328125">
        <ele>151</ele>
        <time>2023-08-19T17:16:02.000Z</time>
        <extensions>
          <ns3:TrackPointExtension>
            <ns3:hr>156</ns3:hr>
            <ns3:cad>83</ns3:cad>
          </ns3:TrackPointExtension>
        </extensions>
      </trkpt>
      <trkpt lat="42.6072165928781032562255859375" lon="2.756357006728649139404296875">
        <ele>151</ele>
        <time>2023-08-19T17:16:03.000Z</time>
        <extensions>
          <ns3:TrackPointExtension>
            <ns3:hr>156</ns3:hr>
            <ns3:cad>83</ns3:cad>
          </ns3:TrackPointExtension>
        </extensions>
      </trkpt>
      <trkpt lat="42.6072115637362003326416015625" lon="2.7563162706792354583740234375">
        <ele>151</ele>
        <time>2023-08-19T17:16:04.000Z</time>
        <extensions>
          <ns3:TrackPointExtension>
            <ns3:hr>156</ns3:hr>
            <ns3:cad>83</ns3:cad>
          </ns3:TrackPointExtension>
        </extensions>
      </trkpt>
      <trkpt lat="42.6072080433368682861328125" lon="2.75628014467656612396240234375">
        <ele>151</ele>
        <time>2023-08-19T17:16:05.000Z</time>
        <extensions>
          <ns3:TrackPointExtension>
            <ns3:hr>156</ns3:hr>
            <ns3:cad>83</ns3:cad>
          </ns3:TrackPointExtension>
        </extensions>
      </trkpt>
      <trkpt lat="42.60720309801399707794189453125" lon="2.7562461979687213897705078125">
        <ele>151</ele>
        <time>2023-08-19T17:16:06.000Z</time>
        <extensions>
          <ns3:TrackPointExtension>
            <ns3:hr>156</ns3:hr>
            <ns3:cad>83</ns3:cad>
          </ns3:TrackPointExtension>
        </extensions>
      </trkpt>
      <trkpt lat="42.607198990881443023681640625" lon="2.756206803023815155029296875">
        <ele>151</ele>
        <time>2023-08-19T17:16:07.000Z</time>
        <extensions>
          <ns3:TrackPointExtension>
            <ns3:hr>156</ns3:hr>
            <ns3:cad>83</ns3:cad>
          </ns3:TrackPointExtension>
        </extensions>
      </trkpt>
      <trkpt lat="42.607194967567920684814453125" lon="2.7561734430491924285888671875">
        <ele>151</ele>
        <time>2023-08-19T17:16:08.000Z</time>
        <extensions>
          <ns3:TrackPointExtension>
            <ns3:hr>156</ns3:hr>
            <ns3:cad>83</ns3:cad>
          </ns3:TrackPointExtension>
        </extensions>
      </trkpt>
      <trkpt lat="42.6071877591311931610107421875" lon="2.75613748468458652496337890625">
        <ele>150.8000030517578125</ele>
        <time>2023-08-19T17:16:09.000Z</time>
        <extensions>
          <ns3:TrackPointExtension>
            <ns3:hr>156</ns3:hr>
            <ns3:cad>82</ns3:cad>
          </ns3:TrackPointExtension>
        </extensions>
      </trkpt>
      <trkpt lat="42.60718331672251224517822265625" lon="2.75610211305320262908935546875">
        <ele>150.8000030517578125</ele>
        <time>2023-08-19T17:16:10.000Z</time>
        <extensions>
          <ns3:TrackPointExtension>
            <ns3:hr>156</ns3:hr>
            <ns3:cad>83</ns3:cad>
          </ns3:TrackPointExtension>
        </extensions>
      </trkpt>
      <trkpt lat="42.60717661119997501373291015625" lon="2.75605634786188602447509765625">
        <ele>150.8000030517578125</ele>
        <time>2023-08-19T17:16:11.000Z</time>
        <extensions>
          <ns3:TrackPointExtension>
            <ns3:hr>156</ns3:hr>
            <ns3:cad>83</ns3:cad>
          </ns3:TrackPointExtension>
        </extensions>
      </trkpt>
      <trkpt lat="42.6071753539144992828369140625" lon="2.75601980276405811309814453125">
        <ele>150.8000030517578125</ele>
        <time>2023-08-19T17:16:12.000Z</time>
        <extensions>
          <ns3:TrackPointExtension>
            <ns3:hr>156</ns3:hr>
            <ns3:cad>83</ns3:cad>
          </ns3:TrackPointExtension>
        </extensions>
      </trkpt>
      <trkpt lat="42.60717493481934070587158203125" lon="2.75598744861781597137451171875">
        <ele>150.8000030517578125</ele>
        <time>2023-08-19T17:16:13.000Z</time>
        <extensions>
          <ns3:TrackPointExtension>
            <ns3:hr>156</ns3:hr>
            <ns3:cad>83</ns3:cad>
          </ns3:TrackPointExtension>
        </extensions>
      </trkpt>
      <trkpt lat="42.60717275552451610565185546875" lon="2.75594989769160747528076171875">
        <ele>150.8000030517578125</ele>
        <time>2023-08-19T17:16:14.000Z</time>
        <extensions>
          <ns3:TrackPointExtension>
            <ns3:hr>156</ns3:hr>
            <ns3:cad>83</ns3:cad>
          </ns3:TrackPointExtension>
        </extensions>
      </trkpt>
      <trkpt lat="42.60717040859162807464599609375" lon="2.755907066166400909423828125">
        <ele>150.8000030517578125</ele>
        <time>2023-08-19T17:16:15.000Z</time>
        <extensions>
          <ns3:TrackPointExtension>
            <ns3:hr>156</ns3:hr>
            <ns3:cad>83</ns3:cad>
          </ns3:TrackPointExtension>
        </extensions>
      </trkpt>
      <trkpt lat="42.607165463268756866455078125" lon="2.755873203277587890625">
        <ele>150.8000030517578125</ele>
        <time>2023-08-19T17:16:16.000Z</time>
        <extensions>
          <ns3:TrackPointExtension>
            <ns3:hr>156</ns3:hr>
            <ns3:cad>83</ns3:cad>
          </ns3:TrackPointExtension>
        </extensions>
      </trkpt>
      <trkpt lat="42.6071575842797756195068359375" lon="2.75583657436072826385498046875">
        <ele>151</ele>
        <time>2023-08-19T17:16:17.000Z</time>
        <extensions>
          <ns3:TrackPointExtension>
            <ns3:hr>156</ns3:hr>
            <ns3:cad>83</ns3:cad>
          </ns3:TrackPointExtension>
        </extensions>
      </trkpt>
      <trkpt lat="42.60715238749980926513671875" lon="2.75580187328159809112548828125">
        <ele>151</ele>
        <time>2023-08-19T17:16:18.000Z</time>
        <extensions>
          <ns3:TrackPointExtension>
            <ns3:hr>156</ns3:hr>
            <ns3:cad>83</ns3:cad>
          </ns3:TrackPointExtension>
        </extensions>
      </trkpt>
      <trkpt lat="42.60714559815824031829833984375" lon="2.75576868094503879547119140625">
        <ele>151</ele>
        <time>2023-08-19T17:16:19.000Z</time>
        <extensions>
          <ns3:TrackPointExtension>
            <ns3:hr>156</ns3:hr>
            <ns3:cad>83</ns3:cad>
          </ns3:TrackPointExtension>
        </extensions>
      </trkpt>
      <trkpt lat="42.607140652835369110107421875" lon="2.7557298727333545684814453125">
        <ele>151</ele>
        <time>2023-08-19T17:16:20.000Z</time>
        <extensions>
          <ns3:TrackPointExtension>
            <ns3:hr>156</ns3:hr>
            <ns3:cad>83</ns3:cad>
          </ns3:TrackPointExtension>
        </extensions>
      </trkpt>
      <trkpt lat="42.607135958969593048095703125" lon="2.7556936629116535186767578125">
        <ele>151</ele>
        <time>2023-08-19T17:16:21.000Z</time>
        <extensions>
          <ns3:TrackPointExtension>
            <ns3:hr>156</ns3:hr>
            <ns3:cad>83</ns3:cad>
          </ns3:TrackPointExtension>
        </extensions>
      </trkpt>
      <trkpt lat="42.607135288417339324951171875" lon="2.75565921328961849212646484375">
        <ele>151</ele>
        <time>2023-08-19T17:16:22.000Z</time>
        <extensions>
          <ns3:TrackPointExtension>
            <ns3:hr>156</ns3:hr>
            <ns3:cad>83</ns3:cad>
          </ns3:TrackPointExtension>
        </extensions>
      </trkpt>
      <trkpt lat="42.607134282588958740234375" lon="2.75562149472534656524658203125">
        <ele>151</ele>
        <time>2023-08-19T17:16:23.000Z</time>
        <extensions>
          <ns3:TrackPointExtension>
            <ns3:hr>156</ns3:hr>
            <ns3:cad>83</ns3:cad>
          </ns3:TrackPointExtension>
        </extensions>
      </trkpt>
      <trkpt lat="42.60712967254221439361572265625" lon="2.75558746419847011566162109375">
        <ele>151</ele>
        <time>2023-08-19T17:16:24.000Z</time>
        <extensions>
          <ns3:TrackPointExtension>
            <ns3:hr>156</ns3:hr>
            <ns3:cad>84</ns3:cad>
          </ns3:TrackPointExtension>
        </extensions>
      </trkpt>
      <trkpt lat="42.60712548159062862396240234375" lon="2.75554706342518329620361328125">
        <ele>150.8000030517578125</ele>
        <time>2023-08-19T17:16:25.000Z</time>
        <extensions>
          <ns3:TrackPointExtension>
            <ns3:hr>156</ns3:hr>
            <ns3:cad>84</ns3:cad>
          </ns3:TrackPointExtension>
        </extensions>
      </trkpt>
      <trkpt lat="42.60711885988712310791015625" lon="2.75551118887960910797119140625">
        <ele>150.8000030517578125</ele>
        <time>2023-08-19T17:16:26.000Z</time>
        <extensions>
          <ns3:TrackPointExtension>
            <ns3:hr>156</ns3:hr>
            <ns3:cad>83</ns3:cad>
          </ns3:TrackPointExtension>
        </extensions>
      </trkpt>
      <trkpt lat="42.6071123220026493072509765625" lon="2.75547212921082973480224609375">
        <ele>150.8000030517578125</ele>
        <time>2023-08-19T17:16:27.000Z</time>
        <extensions>
          <ns3:TrackPointExtension>
            <ns3:hr>156</ns3:hr>
            <ns3:cad>84</ns3:cad>
          </ns3:TrackPointExtension>
        </extensions>
      </trkpt>
      <trkpt lat="42.6071059517562389373779296875" lon="2.75543424300849437713623046875">
        <ele>150.8000030517578125</ele>
        <time>2023-08-19T17:16:28.000Z</time>
        <extensions>
          <ns3:TrackPointExtension>
            <ns3:hr>156</ns3:hr>
            <ns3:cad>83</ns3:cad>
          </ns3:TrackPointExtension>
        </extensions>
      </trkpt>
      <trkpt lat="42.60709530673921108245849609375" lon="2.75539987720549106597900390625">
        <ele>150.8000030517578125</ele>
        <time>2023-08-19T17:16:29.000Z</time>
        <extensions>
          <ns3:TrackPointExtension>
            <ns3:hr>156</ns3:hr>
            <ns3:cad>83</ns3:cad>
          </ns3:TrackPointExtension>
        </extensions>
      </trkpt>
      <trkpt lat="42.60708533227443695068359375" lon="2.75535930879414081573486328125">
        <ele>151</ele>
        <time>2023-08-19T17:16:30.000Z</time>
        <extensions>
          <ns3:TrackPointExtension>
            <ns3:hr>156</ns3:hr>
            <ns3:cad>83</ns3:cad>
          </ns3:TrackPointExtension>
        </extensions>
      </trkpt>
      <trkpt lat="42.6070792973041534423828125" lon="2.75532494299113750457763671875">
        <ele>151</ele>
        <time>2023-08-19T17:16:31.000Z</time>
        <extensions>
          <ns3:TrackPointExtension>
            <ns3:hr>155</ns3:hr>
            <ns3:cad>83</ns3:cad>
          </ns3:TrackPointExtension>
        </extensions>
      </trkpt>
      <trkpt lat="42.6070717535912990570068359375" lon="2.75528638623654842376708984375">
        <ele>151</ele>
        <time>2023-08-19T17:16:32.000Z</time>
        <extensions>
          <ns3:TrackPointExtension>
            <ns3:hr>155</ns3:hr>
            <ns3:cad>83</ns3:cad>
          </ns3:TrackPointExtension>
        </extensions>
      </trkpt>
      <trkpt lat="42.60706613771617412567138671875" lon="2.755248248577117919921875">
        <ele>151</ele>
        <time>2023-08-19T17:16:33.000Z</time>
        <extensions>
          <ns3:TrackPointExtension>
            <ns3:hr>155</ns3:hr>
            <ns3:cad>83</ns3:cad>
          </ns3:TrackPointExtension>
        </extensions>
      </trkpt>
      <trkpt lat="42.60705859400331974029541015625" lon="2.755216397345066070556640625">
        <ele>151</ele>
        <time>2023-08-19T17:16:34.000Z</time>
        <extensions>
          <ns3:TrackPointExtension>
            <ns3:hr>155</ns3:hr>
            <ns3:cad>83</ns3:cad>
          </ns3:TrackPointExtension>
        </extensions>
      </trkpt>
      <trkpt lat="42.607051469385623931884765625" lon="2.7551739849150180816650390625">
        <ele>151</ele>
        <time>2023-08-19T17:16:35.000Z</time>
        <extensions>
          <ns3:TrackPointExtension>
            <ns3:hr>155</ns3:hr>
            <ns3:cad>83</ns3:cad>
          </ns3:TrackPointExtension>
        </extensions>
      </trkpt>
      <trkpt lat="42.60704719461500644683837890625" lon="2.7551364339888095855712890625">
        <ele>150.8000030517578125</ele>
        <time>2023-08-19T17:16:36.000Z</time>
        <extensions>
          <ns3:TrackPointExtension>
            <ns3:hr>155</ns3:hr>
            <ns3:cad>84</ns3:cad>
          </ns3:TrackPointExtension>
        </extensions>
      </trkpt>
      <trkpt lat="42.60704233311116695404052734375" lon="2.7551019005477428436279296875">
        <ele>150.8000030517578125</ele>
        <time>2023-08-19T17:16:37.000Z</time>
        <extensions>
          <ns3:TrackPointExtension>
            <ns3:hr>155</ns3:hr>
            <ns3:cad>84</ns3:cad>
          </ns3:TrackPointExtension>
        </extensions>
      </trkpt>
      <trkpt lat="42.6070390641689300537109375" lon="2.7550656907260417938232421875">
        <ele>150.8000030517578125</ele>
        <time>2023-08-19T17:16:38.000Z</time>
        <extensions>
          <ns3:TrackPointExtension>
            <ns3:hr>155</ns3:hr>
            <ns3:cad>84</ns3:cad>
          </ns3:TrackPointExtension>
        </extensions>
      </trkpt>
      <trkpt lat="42.60703168809413909912109375" lon="2.75503031909465789794921875">
        <ele>150.8000030517578125</ele>
        <time>2023-08-19T17:16:39.000Z</time>
        <extensions>
          <ns3:TrackPointExtension>
            <ns3:hr>155</ns3:hr>
            <ns3:cad>84</ns3:cad>
          </ns3:TrackPointExtension>
        </extensions>
      </trkpt>
      <trkpt lat="42.60702523402869701385498046875" lon="2.75499167852103710174560546875">
        <ele>150.8000030517578125</ele>
        <time>2023-08-19T17:16:40.000Z</time>
        <extensions>
          <ns3:TrackPointExtension>
            <ns3:hr>154</ns3:hr>
            <ns3:cad>84</ns3:cad>
          </ns3:TrackPointExtension>
        </extensions>
      </trkpt>
      <trkpt lat="42.607023306190967559814453125" lon="2.7549557201564311981201171875">
        <ele>150.8000030517578125</ele>
        <time>2023-08-19T17:16:41.000Z</time>
        <extensions>
          <ns3:TrackPointExtension>
            <ns3:hr>154</ns3:hr>
            <ns3:cad>84</ns3:cad>
          </ns3:TrackPointExtension>
        </extensions>
      </trkpt>
      <trkpt lat="42.60701986961066722869873046875" lon="2.754922024905681610107421875">
        <ele>150.8000030517578125</ele>
        <time>2023-08-19T17:16:42.000Z</time>
        <extensions>
          <ns3:TrackPointExtension>
            <ns3:hr>154</ns3:hr>
            <ns3:cad>84</ns3:cad>
          </ns3:TrackPointExtension>
        </extensions>
      </trkpt>
      <trkpt lat="42.60701450519263744354248046875" lon="2.7548822946846485137939453125">
        <ele>150.8000030517578125</ele>
        <time>2023-08-19T17:16:43.000Z</time>
        <extensions>
          <ns3:TrackPointExtension>
            <ns3:hr>154</ns3:hr>
            <ns3:cad>84</ns3:cad>
          </ns3:TrackPointExtension>
        </extensions>
      </trkpt>
      <trkpt lat="42.60700830258429050445556640625" lon="2.75484750978648662567138671875">
        <ele>150.8000030517578125</ele>
        <time>2023-08-19T17:16:44.000Z</time>
        <extensions>
          <ns3:TrackPointExtension>
            <ns3:hr>154</ns3:hr>
            <ns3:cad>84</ns3:cad>
          </ns3:TrackPointExtension>
        </extensions>
      </trkpt>
      <trkpt lat="42.60700712911784648895263671875" lon="2.7548055164515972137451171875">
        <ele>150.8000030517578125</ele>
        <time>2023-08-19T17:16:45.000Z</time>
        <extensions>
          <ns3:TrackPointExtension>
            <ns3:hr>154</ns3:hr>
            <ns3:cad>84</ns3:cad>
          </ns3:TrackPointExtension>
        </extensions>
      </trkpt>
      <trkpt lat="42.60700494982302188873291015625" lon="2.7547672949731349945068359375">
        <ele>150.8000030517578125</ele>
        <time>2023-08-19T17:16:46.000Z</time>
        <extensions>
          <ns3:TrackPointExtension>
            <ns3:hr>154</ns3:hr>
            <ns3:cad>84</ns3:cad>
          </ns3:TrackPointExtension>
        </extensions>
      </trkpt>
      <trkpt lat="42.6070016808807849884033203125" lon="2.754728905856609344482421875">
        <ele>150.8000030517578125</ele>
        <time>2023-08-19T17:16:47.000Z</time>
        <extensions>
          <ns3:TrackPointExtension>
            <ns3:hr>154</ns3:hr>
            <ns3:cad>84</ns3:cad>
          </ns3:TrackPointExtension>
        </extensions>
      </trkpt>
      <trkpt lat="42.60699824430048465728759765625" lon="2.75468825362622737884521484375">
        <ele>150.8000030517578125</ele>
        <time>2023-08-19T17:16:48.000Z</time>
        <extensions>
          <ns3:TrackPointExtension>
            <ns3:hr>154</ns3:hr>
            <ns3:cad>84</ns3:cad>
          </ns3:TrackPointExtension>
        </extensions>
      </trkpt>
      <trkpt lat="42.60699287988245487213134765625" lon="2.75465891696512699127197265625">
        <ele>150.8000030517578125</ele>
        <time>2023-08-19T17:16:49.000Z</time>
        <extensions>
          <ns3:TrackPointExtension>
            <ns3:hr>154</ns3:hr>
            <ns3:cad>84</ns3:cad>
          </ns3:TrackPointExtension>
        </extensions>
      </trkpt>
      <trkpt lat="42.6069906167685985565185546875" lon="2.75462069548666477203369140625">
        <ele>150.8000030517578125</ele>
        <time>2023-08-19T17:16:50.000Z</time>
        <extensions>
          <ns3:TrackPointExtension>
            <ns3:hr>154</ns3:hr>
            <ns3:cad>84</ns3:cad>
          </ns3:TrackPointExtension>
        </extensions>
      </trkpt>
      <trkpt lat="42.60698877274990081787109375" lon="2.75458641350269317626953125">
        <ele>150.8000030517578125</ele>
        <time>2023-08-19T17:16:51.000Z</time>
        <extensions>
          <ns3:TrackPointExtension>
            <ns3:hr>154</ns3:hr>
            <ns3:cad>84</ns3:cad>
          </ns3:TrackPointExtension>
        </extensions>
      </trkpt>
      <trkpt lat="42.6069839112460613250732421875" lon="2.75455330498516559600830078125">
        <ele>150.8000030517578125</ele>
        <time>2023-08-19T17:16:52.000Z</time>
        <extensions>
          <ns3:TrackPointExtension>
            <ns3:hr>153</ns3:hr>
            <ns3:cad>84</ns3:cad>
          </ns3:TrackPointExtension>
        </extensions>
      </trkpt>
      <trkpt lat="42.6069800555706024169921875" lon="2.7545158378779888153076171875">
        <ele>150.8000030517578125</ele>
        <time>2023-08-19T17:16:53.000Z</time>
        <extensions>
          <ns3:TrackPointExtension>
            <ns3:hr>153</ns3:hr>
            <ns3:cad>84</ns3:cad>
          </ns3:TrackPointExtension>
        </extensions>
      </trkpt>
      <trkpt lat="42.6069738529622554779052734375" lon="2.7544826455414295196533203125">
        <ele>151</ele>
        <time>2023-08-19T17:16:54.000Z</time>
        <extensions>
          <ns3:TrackPointExtension>
            <ns3:hr>153</ns3:hr>
            <ns3:cad>84</ns3:cad>
          </ns3:TrackPointExtension>
        </extensions>
      </trkpt>
      <trkpt lat="42.60697133839130401611328125" lon="2.7544462680816650390625">
        <ele>151</ele>
        <time>2023-08-19T17:16:55.000Z</time>
        <extensions>
          <ns3:TrackPointExtension>
            <ns3:hr>153</ns3:hr>
            <ns3:cad>84</ns3:cad>
          </ns3:TrackPointExtension>
        </extensions>
      </trkpt>
      <trkpt lat="42.60697125457227230072021484375" lon="2.75441282428801059722900390625">
        <ele>151</ele>
        <time>2023-08-19T17:16:56.000Z</time>
        <extensions>
          <ns3:TrackPointExtension>
            <ns3:hr>154</ns3:hr>
            <ns3:cad>84</ns3:cad>
          </ns3:TrackPointExtension>
        </extensions>
      </trkpt>
      <trkpt lat="42.60697041638195514678955078125" lon="2.754378207027912139892578125">
        <ele>151</ele>
        <time>2023-08-19T17:16:57.000Z</time>
        <extensions>
          <ns3:TrackPointExtension>
            <ns3:hr>153</ns3:hr>
            <ns3:cad>84</ns3:cad>
          </ns3:TrackPointExtension>
        </extensions>
      </trkpt>
      <trkpt lat="42.60697192512452602386474609375" lon="2.7543408237397670745849609375">
        <ele>151.1999969482421875</ele>
        <time>2023-08-19T17:16:58.000Z</time>
        <extensions>
          <ns3:TrackPointExtension>
            <ns3:hr>154</ns3:hr>
            <ns3:cad>84</ns3:cad>
          </ns3:TrackPointExtension>
        </extensions>
      </trkpt>
      <trkpt lat="42.60696999728679656982421875" lon="2.75430989451706409454345703125">
        <ele>151.1999969482421875</ele>
        <time>2023-08-19T17:16:59.000Z</time>
        <extensions>
          <ns3:TrackPointExtension>
            <ns3:hr>153</ns3:hr>
            <ns3:cad>84</ns3:cad>
          </ns3:TrackPointExtension>
        </extensions>
      </trkpt>
      <trkpt lat="42.60696773417294025421142578125" lon="2.75427452288568019866943359375">
        <ele>151.1999969482421875</ele>
        <time>2023-08-19T17:17:00.000Z</time>
        <extensions>
          <ns3:TrackPointExtension>
            <ns3:hr>154</ns3:hr>
            <ns3:cad>84</ns3:cad>
          </ns3:TrackPointExtension>
        </extensions>
      </trkpt>
      <trkpt lat="42.6069664768874645233154296875" lon="2.75423747487366199493408203125">
        <ele>151.399993896484375</ele>
        <time>2023-08-19T17:17:01.000Z</time>
        <extensions>
          <ns3:TrackPointExtension>
            <ns3:hr>153</ns3:hr>
            <ns3:cad>84</ns3:cad>
          </ns3:TrackPointExtension>
        </extensions>
      </trkpt>
      <trkpt lat="42.606962956488132476806640625" lon="2.75420419871807098388671875">
        <ele>151.399993896484375</ele>
        <time>2023-08-19T17:17:02.000Z</time>
        <extensions>
          <ns3:TrackPointExtension>
            <ns3:hr>153</ns3:hr>
            <ns3:cad>83</ns3:cad>
          </ns3:TrackPointExtension>
        </extensions>
      </trkpt>
      <trkpt lat="42.60696052573621273040771484375" lon="2.7541671507060527801513671875">
        <ele>151.399993896484375</ele>
        <time>2023-08-19T17:17:03.000Z</time>
        <extensions>
          <ns3:TrackPointExtension>
            <ns3:hr>154</ns3:hr>
            <ns3:cad>83</ns3:cad>
          </ns3:TrackPointExtension>
        </extensions>
      </trkpt>
      <trkpt lat="42.60695717297494411468505859375" lon="2.75413303636014461517333984375">
        <ele>151.399993896484375</ele>
        <time>2023-08-19T17:17:04.000Z</time>
        <extensions>
          <ns3:TrackPointExtension>
            <ns3:hr>154</ns3:hr>
            <ns3:cad>83</ns3:cad>
          </ns3:TrackPointExtension>
        </extensions>
      </trkpt>
      <trkpt lat="42.60695415548980236053466796875" lon="2.7540974132716655731201171875">
        <ele>151.399993896484375</ele>
        <time>2023-08-19T17:17:05.000Z</time>
        <extensions>
          <ns3:TrackPointExtension>
            <ns3:hr>154</ns3:hr>
            <ns3:cad>83</ns3:cad>
          </ns3:TrackPointExtension>
        </extensions>
      </trkpt>
      <trkpt lat="42.60694979690015316009521484375" lon="2.75406078435480594635009765625">
        <ele>151.600006103515625</ele>
        <time>2023-08-19T17:17:06.000Z</time>
        <extensions>
          <ns3:TrackPointExtension>
            <ns3:hr>153</ns3:hr>
            <ns3:cad>83</ns3:cad>
          </ns3:TrackPointExtension>
        </extensions>
      </trkpt>
      <trkpt lat="42.6069440133869647979736328125" lon="2.75403010658919811248779296875">
        <ele>151.600006103515625</ele>
        <time>2023-08-19T17:17:07.000Z</time>
        <extensions>
          <ns3:TrackPointExtension>
            <ns3:hr>153</ns3:hr>
            <ns3:cad>83</ns3:cad>
          </ns3:TrackPointExtension>
        </extensions>
      </trkpt>
      <trkpt lat="42.60694183409214019775390625" lon="2.7539918012917041778564453125">
        <ele>151.600006103515625</ele>
        <time>2023-08-19T17:17:08.000Z</time>
        <extensions>
          <ns3:TrackPointExtension>
            <ns3:hr>153</ns3:hr>
            <ns3:cad>83</ns3:cad>
          </ns3:TrackPointExtension>
        </extensions>
      </trkpt>
      <trkpt lat="42.6069386489689350128173828125" lon="2.753955088555812835693359375">
        <ele>151.8000030517578125</ele>
        <time>2023-08-19T17:17:09.000Z</time>
        <extensions>
          <ns3:TrackPointExtension>
            <ns3:hr>154</ns3:hr>
            <ns3:cad>83</ns3:cad>
          </ns3:TrackPointExtension>
        </extensions>
      </trkpt>
      <trkpt lat="42.606937475502490997314453125" lon="2.7539227344095706939697265625">
        <ele>151.8000030517578125</ele>
        <time>2023-08-19T17:17:10.000Z</time>
        <extensions>
          <ns3:TrackPointExtension>
            <ns3:hr>153</ns3:hr>
            <ns3:cad>83</ns3:cad>
          </ns3:TrackPointExtension>
        </extensions>
      </trkpt>
      <trkpt lat="42.60693437419831752777099609375" lon="2.75388526730239391326904296875">
        <ele>151.8000030517578125</ele>
        <time>2023-08-19T17:17:11.000Z</time>
        <extensions>
          <ns3:TrackPointExtension>
            <ns3:hr>153</ns3:hr>
            <ns3:cad>83</ns3:cad>
          </ns3:TrackPointExtension>
        </extensions>
      </trkpt>
      <trkpt lat="42.60693286545574665069580078125" lon="2.7538494765758514404296875">
        <ele>152</ele>
        <time>2023-08-19T17:17:12.000Z</time>
        <extensions>
          <ns3:TrackPointExtension>
            <ns3:hr>153</ns3:hr>
            <ns3:cad>83</ns3:cad>
          </ns3:TrackPointExtension>
        </extensions>
      </trkpt>
      <trkpt lat="42.6069317758083343505859375" lon="2.75380966253578662872314453125">
        <ele>152</ele>
        <time>2023-08-19T17:17:13.000Z</time>
        <extensions>
          <ns3:TrackPointExtension>
            <ns3:hr>153</ns3:hr>
            <ns3:cad>83</ns3:cad>
          </ns3:TrackPointExtension>
        </extensions>
      </trkpt>
      <trkpt lat="42.6069349609315395355224609375" lon="2.7537738718092441558837890625">
        <ele>152</ele>
        <time>2023-08-19T17:17:14.000Z</time>
        <extensions>
          <ns3:TrackPointExtension>
            <ns3:hr>153</ns3:hr>
            <ns3:cad>83</ns3:cad>
          </ns3:TrackPointExtension>
        </extensions>
      </trkpt>
      <trkpt lat="42.60693655349314212799072265625" lon="2.7537363208830356597900390625">
        <ele>152.1999969482421875</ele>
        <time>2023-08-19T17:17:15.000Z</time>
        <extensions>
          <ns3:TrackPointExtension>
            <ns3:hr>153</ns3:hr>
            <ns3:cad>83</ns3:cad>
          </ns3:TrackPointExtension>
        </extensions>
      </trkpt>
      <trkpt lat="42.60694585740566253662109375" lon="2.7536930702626705169677734375">
        <ele>152.399993896484375</ele>
        <time>2023-08-19T17:17:16.000Z</time>
        <extensions>
          <ns3:TrackPointExtension>
            <ns3:hr>154</ns3:hr>
            <ns3:cad>83</ns3:cad>
          </ns3:TrackPointExtension>
        </extensions>
      </trkpt>
      <trkpt lat="42.60696270503103733062744140625" lon="2.75366180576384067535400390625">
        <ele>152.600006103515625</ele>
        <time>2023-08-19T17:17:17.000Z</time>
        <extensions>
          <ns3:TrackPointExtension>
            <ns3:hr>154</ns3:hr>
            <ns3:cad>83</ns3:cad>
          </ns3:TrackPointExtension>
        </extensions>
      </trkpt>
      <trkpt lat="42.60697745718061923980712890625" lon="2.75362727232277393341064453125">
        <ele>152.600006103515625</ele>
        <time>2023-08-19T17:17:18.000Z</time>
        <extensions>
          <ns3:TrackPointExtension>
            <ns3:hr>154</ns3:hr>
            <ns3:cad>83</ns3:cad>
          </ns3:TrackPointExtension>
        </extensions>
      </trkpt>
      <trkpt lat="42.60699522681534290313720703125" lon="2.75360229425132274627685546875">
        <ele>152.8000030517578125</ele>
        <time>2023-08-19T17:17:19.000Z</time>
        <extensions>
          <ns3:TrackPointExtension>
            <ns3:hr>154</ns3:hr>
            <ns3:cad>83</ns3:cad>
          </ns3:TrackPointExtension>
        </extensions>
      </trkpt>
      <trkpt lat="42.6070130802690982818603515625" lon="2.7535817585885524749755859375">
        <ele>152.8000030517578125</ele>
        <time>2023-08-19T17:17:20.000Z</time>
        <extensions>
          <ns3:TrackPointExtension>
            <ns3:hr>154</ns3:hr>
            <ns3:cad>83</ns3:cad>
          </ns3:TrackPointExtension>
        </extensions>
      </trkpt>
      <trkpt lat="42.60703596286475658416748046875" lon="2.75355954654514789581298828125">
        <ele>153</ele>
        <time>2023-08-19T17:17:21.000Z</time>
        <extensions>
          <ns3:TrackPointExtension>
            <ns3:hr>154</ns3:hr>
            <ns3:cad>83</ns3:cad>
          </ns3:TrackPointExtension>
        </extensions>
      </trkpt>
      <trkpt lat="42.6070573367178440093994140625" lon="2.7535383403301239013671875">
        <ele>153.1999969482421875</ele>
        <time>2023-08-19T17:17:22.000Z</time>
        <extensions>
          <ns3:TrackPointExtension>
            <ns3:hr>154</ns3:hr>
            <ns3:cad>83</ns3:cad>
          </ns3:TrackPointExtension>
        </extensions>
      </trkpt>
      <trkpt lat="42.6070734299719333648681640625" lon="2.753517217934131622314453125">
        <ele>153.399993896484375</ele>
        <time>2023-08-19T17:17:23.000Z</time>
        <extensions>
          <ns3:TrackPointExtension>
            <ns3:hr>154</ns3:hr>
            <ns3:cad>83</ns3:cad>
          </ns3:TrackPointExtension>
        </extensions>
      </trkpt>
      <trkpt lat="42.60709329508244991302490234375" lon="2.753488719463348388671875">
        <ele>153.600006103515625</ele>
        <time>2023-08-19T17:17:24.000Z</time>
        <extensions>
          <ns3:TrackPointExtension>
            <ns3:hr>155</ns3:hr>
            <ns3:cad>83</ns3:cad>
          </ns3:TrackPointExtension>
        </extensions>
      </trkpt>
      <trkpt lat="42.60710838250815868377685546875" lon="2.7534627355635166168212890625">
        <ele>153.600006103515625</ele>
        <time>2023-08-19T17:17:25.000Z</time>
        <extensions>
          <ns3:TrackPointExtension>
            <ns3:hr>155</ns3:hr>
            <ns3:cad>83</ns3:cad>
          </ns3:TrackPointExtension>
        </extensions>
      </trkpt>
      <trkpt lat="42.60712556540966033935546875" lon="2.7534339018166065216064453125">
        <ele>153.600006103515625</ele>
        <time>2023-08-19T17:17:26.000Z</time>
        <extensions>
          <ns3:TrackPointExtension>
            <ns3:hr>155</ns3:hr>
            <ns3:cad>83</ns3:cad>
          </ns3:TrackPointExtension>
        </extensions>
      </trkpt>
      <trkpt lat="42.607139982283115386962890625" lon="2.75340330787003040313720703125">
        <ele>153.8000030517578125</ele>
        <time>2023-08-19T17:17:27.000Z</time>
        <extensions>
          <ns3:TrackPointExtension>
            <ns3:hr>155</ns3:hr>
            <ns3:cad>83</ns3:cad>
          </ns3:TrackPointExtension>
        </extensions>
      </trkpt>
      <trkpt lat="42.6071445085108280181884765625" lon="2.753371708095073699951171875">
        <ele>153.8000030517578125</ele>
        <time>2023-08-19T17:17:28.000Z</time>
        <extensions>
          <ns3:TrackPointExtension>
            <ns3:hr>155</ns3:hr>
            <ns3:cad>83</ns3:cad>
          </ns3:TrackPointExtension>
        </extensions>
      </trkpt>
      <trkpt lat="42.6071528904139995574951171875" lon="2.7533398568630218505859375">
        <ele>154</ele>
        <time>2023-08-19T17:17:29.000Z</time>
        <extensions>
          <ns3:TrackPointExtension>
            <ns3:hr>156</ns3:hr>
            <ns3:cad>82</ns3:cad>
          </ns3:TrackPointExtension>
        </extensions>
      </trkpt>
      <trkpt lat="42.6071589253842830657958984375" lon="2.7533085085451602935791015625">
        <ele>154</ele>
        <time>2023-08-19T17:17:30.000Z</time>
        <extensions>
          <ns3:TrackPointExtension>
            <ns3:hr>156</ns3:hr>
            <ns3:cad>82</ns3:cad>
          </ns3:TrackPointExtension>
        </extensions>
      </trkpt>
      <trkpt lat="42.6071584224700927734375" lon="2.75327405892312526702880859375">
        <ele>154</ele>
        <time>2023-08-19T17:17:31.000Z</time>
        <extensions>
          <ns3:TrackPointExtension>
            <ns3:hr>156</ns3:hr>
            <ns3:cad>82</ns3:cad>
          </ns3:TrackPointExtension>
        </extensions>
      </trkpt>
      <trkpt lat="42.60716068558394908905029296875" lon="2.7532344125211238861083984375">
        <ele>154</ele>
        <time>2023-08-19T17:17:32.000Z</time>
        <extensions>
          <ns3:TrackPointExtension>
            <ns3:hr>156</ns3:hr>
            <ns3:cad>82</ns3:cad>
          </ns3:TrackPointExtension>
        </extensions>
      </trkpt>
      <trkpt lat="42.60716085322201251983642578125" lon="2.75319895707070827484130859375">
        <ele>154</ele>
        <time>2023-08-19T17:17:33.000Z</time>
        <extensions>
          <ns3:TrackPointExtension>
            <ns3:hr>156</ns3:hr>
            <ns3:cad>82</ns3:cad>
          </ns3:TrackPointExtension>
        </extensions>
      </trkpt>
      <trkpt lat="42.60715766809880733489990234375" lon="2.75316123850643634796142578125">
        <ele>154.1999969482421875</ele>
        <time>2023-08-19T17:17:34.000Z</time>
        <extensions>
          <ns3:TrackPointExtension>
            <ns3:hr>157</ns3:hr>
            <ns3:cad>82</ns3:cad>
          </ns3:TrackPointExtension>
        </extensions>
      </trkpt>
      <trkpt lat="42.60715666227042675018310546875" lon="2.753122262656688690185546875">
        <ele>154.1999969482421875</ele>
        <time>2023-08-19T17:17:35.000Z</time>
        <extensions>
          <ns3:TrackPointExtension>
            <ns3:hr>157</ns3:hr>
            <ns3:cad>82</ns3:cad>
          </ns3:TrackPointExtension>
        </extensions>
      </trkpt>
      <trkpt lat="42.60715372860431671142578125" lon="2.75308932177722454071044921875">
        <ele>154.1999969482421875</ele>
        <time>2023-08-19T17:17:36.000Z</time>
        <extensions>
          <ns3:TrackPointExtension>
            <ns3:hr>157</ns3:hr>
            <ns3:cad>82</ns3:cad>
          </ns3:TrackPointExtension>
        </extensions>
      </trkpt>
      <trkpt lat="42.60715247131884098052978515625" lon="2.75305411778390407562255859375">
        <ele>154.1999969482421875</ele>
        <time>2023-08-19T17:17:37.000Z</time>
        <extensions>
          <ns3:TrackPointExtension>
            <ns3:hr>157</ns3:hr>
            <ns3:cad>82</ns3:cad>
          </ns3:TrackPointExtension>
        </extensions>
      </trkpt>
      <trkpt lat="42.60715129785239696502685546875" lon="2.75301908142864704132080078125">
        <ele>154.399993896484375</ele>
        <time>2023-08-19T17:17:38.000Z</time>
        <extensions>
          <ns3:TrackPointExtension>
            <ns3:hr>157</ns3:hr>
            <ns3:cad>82</ns3:cad>
          </ns3:TrackPointExtension>
        </extensions>
      </trkpt>
      <trkpt lat="42.60714878328144550323486328125" lon="2.75298639200627803802490234375">
        <ele>154.399993896484375</ele>
        <time>2023-08-19T17:17:39.000Z</time>
        <extensions>
          <ns3:TrackPointExtension>
            <ns3:hr>157</ns3:hr>
            <ns3:cad>82</ns3:cad>
          </ns3:TrackPointExtension>
        </extensions>
      </trkpt>
      <trkpt lat="42.60714828036725521087646484375" lon="2.75294884108006954193115234375">
        <ele>154.399993896484375</ele>
        <time>2023-08-19T17:17:40.000Z</time>
        <extensions>
          <ns3:TrackPointExtension>
            <ns3:hr>157</ns3:hr>
            <ns3:cad>82</ns3:cad>
          </ns3:TrackPointExtension>
        </extensions>
      </trkpt>
      <trkpt lat="42.60714878328144550323486328125" lon="2.75291346944868564605712890625">
        <ele>154.600006103515625</ele>
        <time>2023-08-19T17:17:41.000Z</time>
        <extensions>
          <ns3:TrackPointExtension>
            <ns3:hr>157</ns3:hr>
            <ns3:cad>82</ns3:cad>
          </ns3:TrackPointExtension>
        </extensions>
      </trkpt>
      <trkpt lat="42.6071451790630817413330078125" lon="2.7528770081698894500732421875">
        <ele>154.600006103515625</ele>
        <time>2023-08-19T17:17:42.000Z</time>
        <extensions>
          <ns3:TrackPointExtension>
            <ns3:hr>157</ns3:hr>
            <ns3:cad>82</ns3:cad>
          </ns3:TrackPointExtension>
        </extensions>
      </trkpt>
      <trkpt lat="42.60714123956859111785888671875" lon="2.75283819995820522308349609375">
        <ele>154.600006103515625</ele>
        <time>2023-08-19T17:17:43.000Z</time>
        <extensions>
          <ns3:TrackPointExtension>
            <ns3:hr>157</ns3:hr>
            <ns3:cad>82</ns3:cad>
          </ns3:TrackPointExtension>
        </extensions>
      </trkpt>
      <trkpt lat="42.6071401499211788177490234375" lon="2.752802409231662750244140625">
        <ele>154.600006103515625</ele>
        <time>2023-08-19T17:17:44.000Z</time>
        <extensions>
          <ns3:TrackPointExtension>
            <ns3:hr>157</ns3:hr>
            <ns3:cad>82</ns3:cad>
          </ns3:TrackPointExtension>
        </extensions>
      </trkpt>
      <trkpt lat="42.60713721625506877899169921875" lon="2.7527670376002788543701171875">
        <ele>154.600006103515625</ele>
        <time>2023-08-19T17:17:45.000Z</time>
        <extensions>
          <ns3:TrackPointExtension>
            <ns3:hr>157</ns3:hr>
            <ns3:cad>81</ns3:cad>
          </ns3:TrackPointExtension>
        </extensions>
      </trkpt>
      <trkpt lat="42.6071411557495594024658203125" lon="2.7527278102934360504150390625">
        <ele>154.600006103515625</ele>
        <time>2023-08-19T17:17:46.000Z</time>
        <extensions>
          <ns3:TrackPointExtension>
            <ns3:hr>157</ns3:hr>
            <ns3:cad>81</ns3:cad>
          </ns3:TrackPointExtension>
        </extensions>
      </trkpt>
      <trkpt lat="42.60714123956859111785888671875" lon="2.75269369594752788543701171875">
        <ele>154.600006103515625</ele>
        <time>2023-08-19T17:17:47.000Z</time>
        <extensions>
          <ns3:TrackPointExtension>
            <ns3:hr>157</ns3:hr>
            <ns3:cad>81</ns3:cad>
          </ns3:TrackPointExtension>
        </extensions>
      </trkpt>
      <trkpt lat="42.60714408941566944122314453125" lon="2.75265614502131938934326171875">
        <ele>154.600006103515625</ele>
        <time>2023-08-19T17:17:48.000Z</time>
        <extensions>
          <ns3:TrackPointExtension>
            <ns3:hr>157</ns3:hr>
            <ns3:cad>82</ns3:cad>
          </ns3:TrackPointExtension>
        </extensions>
      </trkpt>
      <trkpt lat="42.6071495376527309417724609375" lon="2.75262328796088695526123046875">
        <ele>154.600006103515625</ele>
        <time>2023-08-19T17:17:49.000Z</time>
        <extensions>
          <ns3:TrackPointExtension>
            <ns3:hr>157</ns3:hr>
            <ns3:cad>82</ns3:cad>
          </ns3:TrackPointExtension>
        </extensions>
      </trkpt>
      <trkpt lat="42.60715045966207981109619140625" lon="2.7525930292904376983642578125">
        <ele>154.8000030517578125</ele>
        <time>2023-08-19T17:17:50.000Z</time>
        <extensions>
          <ns3:TrackPointExtension>
            <ns3:hr>157</ns3:hr>
            <ns3:cad>82</ns3:cad>
          </ns3:TrackPointExtension>
        </extensions>
      </trkpt>
      <trkpt lat="42.60715414769947528839111328125" lon="2.7525579929351806640625">
        <ele>154.8000030517578125</ele>
        <time>2023-08-19T17:17:51.000Z</time>
        <extensions>
          <ns3:TrackPointExtension>
            <ns3:hr>157</ns3:hr>
            <ns3:cad>82</ns3:cad>
          </ns3:TrackPointExtension>
        </extensions>
      </trkpt>
      <trkpt lat="42.60715733282268047332763671875" lon="2.7525246329605579376220703125">
        <ele>155</ele>
        <time>2023-08-19T17:17:52.000Z</time>
        <extensions>
          <ns3:TrackPointExtension>
            <ns3:hr>157</ns3:hr>
            <ns3:cad>82</ns3:cad>
          </ns3:TrackPointExtension>
        </extensions>
      </trkpt>
      <trkpt lat="42.60716018266975879669189453125" lon="2.7524907700717449188232421875">
        <ele>155</ele>
        <time>2023-08-19T17:17:53.000Z</time>
        <extensions>
          <ns3:TrackPointExtension>
            <ns3:hr>157</ns3:hr>
            <ns3:cad>82</ns3:cad>
          </ns3:TrackPointExtension>
        </extensions>
      </trkpt>
      <trkpt lat="42.607167474925518035888671875" lon="2.75245246477425098419189453125">
        <ele>155</ele>
        <time>2023-08-19T17:17:54.000Z</time>
        <extensions>
          <ns3:TrackPointExtension>
            <ns3:hr>157</ns3:hr>
            <ns3:cad>82</ns3:cad>
          </ns3:TrackPointExtension>
        </extensions>
      </trkpt>
      <trkpt lat="42.607171498239040374755859375" lon="2.75242430157959461212158203125">
        <ele>155</ele>
        <time>2023-08-19T17:17:55.000Z</time>
        <extensions>
          <ns3:TrackPointExtension>
            <ns3:hr>157</ns3:hr>
            <ns3:cad>82</ns3:cad>
          </ns3:TrackPointExtension>
        </extensions>
      </trkpt>
      <trkpt lat="42.6071736775338649749755859375" lon="2.75239295326173305511474609375">
        <ele>155.1999969482421875</ele>
        <time>2023-08-19T17:17:56.000Z</time>
        <extensions>
          <ns3:TrackPointExtension>
            <ns3:hr>157</ns3:hr>
            <ns3:cad>82</ns3:cad>
          </ns3:TrackPointExtension>
        </extensions>
      </trkpt>
      <trkpt lat="42.60717459954321384429931640625" lon="2.75236026383936405181884765625">
        <ele>155.1999969482421875</ele>
        <time>2023-08-19T17:17:57.000Z</time>
        <extensions>
          <ns3:TrackPointExtension>
            <ns3:hr>157</ns3:hr>
            <ns3:cad>82</ns3:cad>
          </ns3:TrackPointExtension>
        </extensions>
      </trkpt>
      <trkpt lat="42.607171833515167236328125" lon="2.75232707150280475616455078125">
        <ele>155.1999969482421875</ele>
        <time>2023-08-19T17:17:58.000Z</time>
        <extensions>
          <ns3:TrackPointExtension>
            <ns3:hr>156</ns3:hr>
            <ns3:cad>83</ns3:cad>
          </ns3:TrackPointExtension>
        </extensions>
      </trkpt>
      <trkpt lat="42.60716889984905719757080078125" lon="2.75229136459529399871826171875">
        <ele>155.399993896484375</ele>
        <time>2023-08-19T17:17:59.000Z</time>
        <extensions>
          <ns3:TrackPointExtension>
            <ns3:hr>156</ns3:hr>
            <ns3:cad>82</ns3:cad>
          </ns3:TrackPointExtension>
        </extensions>
      </trkpt>
      <trkpt lat="42.60716638527810573577880859375" lon="2.75225817225873470306396484375">
        <ele>155.399993896484375</ele>
        <time>2023-08-19T17:18:00.000Z</time>
        <extensions>
          <ns3:TrackPointExtension>
            <ns3:hr>156</ns3:hr>
            <ns3:cad>82</ns3:cad>
          </ns3:TrackPointExtension>
        </extensions>
      </trkpt>
      <trkpt lat="42.60716068558394908905029296875" lon="2.752225399017333984375">
        <ele>155.399993896484375</ele>
        <time>2023-08-19T17:18:01.000Z</time>
        <extensions>
          <ns3:TrackPointExtension>
            <ns3:hr>156</ns3:hr>
            <ns3:cad>82</ns3:cad>
          </ns3:TrackPointExtension>
        </extensions>
      </trkpt>
      <trkpt lat="42.607155404984951019287109375" lon="2.7521863393485546112060546875">
        <ele>155.399993896484375</ele>
        <time>2023-08-19T17:18:02.000Z</time>
        <extensions>
          <ns3:TrackPointExtension>
            <ns3:hr>156</ns3:hr>
            <ns3:cad>82</ns3:cad>
          </ns3:TrackPointExtension>
        </extensions>
      </trkpt>
      <trkpt lat="42.60715196840465068817138671875" lon="2.75215088389813899993896484375">
        <ele>155.399993896484375</ele>
        <time>2023-08-19T17:18:03.000Z</time>
        <extensions>
          <ns3:TrackPointExtension>
            <ns3:hr>156</ns3:hr>
            <ns3:cad>82</ns3:cad>
          </ns3:TrackPointExtension>
        </extensions>
      </trkpt>
      <trkpt lat="42.60714593343436717987060546875" lon="2.75211735628545284271240234375">
        <ele>155.600006103515625</ele>
        <time>2023-08-19T17:18:04.000Z</time>
        <extensions>
          <ns3:TrackPointExtension>
            <ns3:hr>156</ns3:hr>
            <ns3:cad>82</ns3:cad>
          </ns3:TrackPointExtension>
        </extensions>
      </trkpt>
      <trkpt lat="42.60714224539697170257568359375" lon="2.7520830743014812469482421875">
        <ele>155.600006103515625</ele>
        <time>2023-08-19T17:18:05.000Z</time>
        <extensions>
          <ns3:TrackPointExtension>
            <ns3:hr>156</ns3:hr>
            <ns3:cad>82</ns3:cad>
          </ns3:TrackPointExtension>
        </extensions>
      </trkpt>
      <trkpt lat="42.60713973082602024078369140625" lon="2.75205306708812713623046875">
        <ele>155.600006103515625</ele>
        <time>2023-08-19T17:18:06.000Z</time>
        <extensions>
          <ns3:TrackPointExtension>
            <ns3:hr>156</ns3:hr>
            <ns3:cad>82</ns3:cad>
          </ns3:TrackPointExtension>
        </extensions>
      </trkpt>
      <trkpt lat="42.607137300074100494384765625" lon="2.7520146779716014862060546875">
        <ele>155.600006103515625</ele>
        <time>2023-08-19T17:18:07.000Z</time>
        <extensions>
          <ns3:TrackPointExtension>
            <ns3:hr>156</ns3:hr>
            <ns3:cad>82</ns3:cad>
          </ns3:TrackPointExtension>
        </extensions>
      </trkpt>
      <trkpt lat="42.60713654570281505584716796875" lon="2.75197737850248813629150390625">
        <ele>155.8000030517578125</ele>
        <time>2023-08-19T17:18:08.000Z</time>
        <extensions>
          <ns3:TrackPointExtension>
            <ns3:hr>155</ns3:hr>
            <ns3:cad>82</ns3:cad>
          </ns3:TrackPointExtension>
        </extensions>
      </trkpt>
      <trkpt lat="42.6071327738463878631591796875" lon="2.7519469521939754486083984375">
        <ele>155.8000030517578125</ele>
        <time>2023-08-19T17:18:09.000Z</time>
        <extensions>
          <ns3:TrackPointExtension>
            <ns3:hr>155</ns3:hr>
            <ns3:cad>82</ns3:cad>
          </ns3:TrackPointExtension>
        </extensions>
      </trkpt>
      <trkpt lat="42.60712950490415096282958984375" lon="2.7519060485064983367919921875">
        <ele>156</ele>
        <time>2023-08-19T17:18:10.000Z</time>
        <extensions>
          <ns3:TrackPointExtension>
            <ns3:hr>155</ns3:hr>
            <ns3:cad>82</ns3:cad>
          </ns3:TrackPointExtension>
        </extensions>
      </trkpt>
      <trkpt lat="42.60712682269513607025146484375" lon="2.75187059305608272552490234375">
        <ele>156</ele>
        <time>2023-08-19T17:18:11.000Z</time>
        <extensions>
          <ns3:TrackPointExtension>
            <ns3:hr>155</ns3:hr>
            <ns3:cad>82</ns3:cad>
          </ns3:TrackPointExtension>
        </extensions>
      </trkpt>
      <trkpt lat="42.60712011717259883880615234375" lon="2.7518420107662677764892578125">
        <ele>156</ele>
        <time>2023-08-19T17:18:12.000Z</time>
        <extensions>
          <ns3:TrackPointExtension>
            <ns3:hr>156</ns3:hr>
            <ns3:cad>82</ns3:cad>
          </ns3:TrackPointExtension>
        </extensions>
      </trkpt>
      <trkpt lat="42.60711810551583766937255859375" lon="2.75180202908813953399658203125">
        <ele>156</ele>
        <time>2023-08-19T17:18:13.000Z</time>
        <extensions>
          <ns3:TrackPointExtension>
            <ns3:hr>156</ns3:hr>
            <ns3:cad>82</ns3:cad>
          </ns3:TrackPointExtension>
        </extensions>
      </trkpt>
      <trkpt lat="42.60711357928812503814697265625" lon="2.75176472961902618408203125">
        <ele>156.1999969482421875</ele>
        <time>2023-08-19T17:18:14.000Z</time>
        <extensions>
          <ns3:TrackPointExtension>
            <ns3:hr>156</ns3:hr>
            <ns3:cad>82</ns3:cad>
          </ns3:TrackPointExtension>
        </extensions>
      </trkpt>
      <trkpt lat="42.6071082986891269683837890625" lon="2.7517283521592617034912109375">
        <ele>156.1999969482421875</ele>
        <time>2023-08-19T17:18:15.000Z</time>
        <extensions>
          <ns3:TrackPointExtension>
            <ns3:hr>156</ns3:hr>
            <ns3:cad>82</ns3:cad>
          </ns3:TrackPointExtension>
        </extensions>
      </trkpt>
      <trkpt lat="42.60710410773754119873046875" lon="2.751690633594989776611328125">
        <ele>156.1999969482421875</ele>
        <time>2023-08-19T17:18:16.000Z</time>
        <extensions>
          <ns3:TrackPointExtension>
            <ns3:hr>156</ns3:hr>
            <ns3:cad>82</ns3:cad>
          </ns3:TrackPointExtension>
        </extensions>
      </trkpt>
      <trkpt lat="42.6070995815098285675048828125" lon="2.7516602911055088043212890625">
        <ele>156.1999969482421875</ele>
        <time>2023-08-19T17:18:17.000Z</time>
        <extensions>
          <ns3:TrackPointExtension>
            <ns3:hr>156</ns3:hr>
            <ns3:cad>82</ns3:cad>
          </ns3:TrackPointExtension>
        </extensions>
      </trkpt>
      <trkpt lat="42.60709530673921108245849609375" lon="2.75162399746477603912353515625">
        <ele>156.399993896484375</ele>
        <time>2023-08-19T17:18:18.000Z</time>
        <extensions>
          <ns3:TrackPointExtension>
            <ns3:hr>156</ns3:hr>
            <ns3:cad>82</ns3:cad>
          </ns3:TrackPointExtension>
        </extensions>
      </trkpt>
      <trkpt lat="42.6070945523679256439208984375" lon="2.751589715480804443359375">
        <ele>156.399993896484375</ele>
        <time>2023-08-19T17:18:19.000Z</time>
        <extensions>
          <ns3:TrackPointExtension>
            <ns3:hr>156</ns3:hr>
            <ns3:cad>82</ns3:cad>
          </ns3:TrackPointExtension>
        </extensions>
      </trkpt>
      <trkpt lat="42.60709094814956188201904296875" lon="2.75155828334391117095947265625">
        <ele>156.600006103515625</ele>
        <time>2023-08-19T17:18:20.000Z</time>
        <extensions>
          <ns3:TrackPointExtension>
            <ns3:hr>156</ns3:hr>
            <ns3:cad>82</ns3:cad>
          </ns3:TrackPointExtension>
        </extensions>
      </trkpt>
      <trkpt lat="42.6070848293602466583251953125" lon="2.75151972658932209014892578125">
        <ele>156.600006103515625</ele>
        <time>2023-08-19T17:18:21.000Z</time>
        <extensions>
          <ns3:TrackPointExtension>
            <ns3:hr>156</ns3:hr>
            <ns3:cad>82</ns3:cad>
          </ns3:TrackPointExtension>
        </extensions>
      </trkpt>
      <trkpt lat="42.60708172805607318878173828125" lon="2.75148469023406505584716796875">
        <ele>156.8000030517578125</ele>
        <time>2023-08-19T17:18:22.000Z</time>
        <extensions>
          <ns3:TrackPointExtension>
            <ns3:hr>156</ns3:hr>
            <ns3:cad>82</ns3:cad>
          </ns3:TrackPointExtension>
        </extensions>
      </trkpt>
      <trkpt lat="42.6070761121809482574462890625" lon="2.75144797749817371368408203125">
        <ele>156.8000030517578125</ele>
        <time>2023-08-19T17:18:23.000Z</time>
        <extensions>
          <ns3:TrackPointExtension>
            <ns3:hr>156</ns3:hr>
            <ns3:cad>82</ns3:cad>
          </ns3:TrackPointExtension>
        </extensions>
      </trkpt>
      <trkpt lat="42.6070730946958065032958984375" lon="2.7514095045626163482666015625">
        <ele>156.8000030517578125</ele>
        <time>2023-08-19T17:18:24.000Z</time>
        <extensions>
          <ns3:TrackPointExtension>
            <ns3:hr>156</ns3:hr>
            <ns3:cad>82</ns3:cad>
          </ns3:TrackPointExtension>
        </extensions>
      </trkpt>
      <trkpt lat="42.607072927057743072509765625" lon="2.75138025172054767608642578125">
        <ele>156.8000030517578125</ele>
        <time>2023-08-19T17:18:25.000Z</time>
        <extensions>
          <ns3:TrackPointExtension>
            <ns3:hr>156</ns3:hr>
            <ns3:cad>82</ns3:cad>
          </ns3:TrackPointExtension>
        </extensions>
      </trkpt>
      <trkpt lat="42.60707401670515537261962890625" lon="2.75134135968983173370361328125">
        <ele>156.8000030517578125</ele>
        <time>2023-08-19T17:18:26.000Z</time>
        <extensions>
          <ns3:TrackPointExtension>
            <ns3:hr>156</ns3:hr>
            <ns3:cad>82</ns3:cad>
          </ns3:TrackPointExtension>
        </extensions>
      </trkpt>
      <trkpt lat="42.607076950371265411376953125" lon="2.75130070745944976806640625">
        <ele>157</ele>
        <time>2023-08-19T17:18:27.000Z</time>
        <extensions>
          <ns3:TrackPointExtension>
            <ns3:hr>156</ns3:hr>
            <ns3:cad>82</ns3:cad>
          </ns3:TrackPointExtension>
        </extensions>
      </trkpt>
      <trkpt lat="42.6070787943899631500244140625" lon="2.75126793421804904937744140625">
        <ele>157</ele>
        <time>2023-08-19T17:18:28.000Z</time>
        <extensions>
          <ns3:TrackPointExtension>
            <ns3:hr>156</ns3:hr>
            <ns3:cad>82</ns3:cad>
          </ns3:TrackPointExtension>
        </extensions>
      </trkpt>
      <trkpt lat="42.6070871762931346893310546875" lon="2.751231975853443145751953125">
        <ele>157.399993896484375</ele>
        <time>2023-08-19T17:18:29.000Z</time>
        <extensions>
          <ns3:TrackPointExtension>
            <ns3:hr>156</ns3:hr>
            <ns3:cad>82</ns3:cad>
          </ns3:TrackPointExtension>
        </extensions>
      </trkpt>
      <trkpt lat="42.60710008442401885986328125" lon="2.75120322592556476593017578125">
        <ele>157.600006103515625</ele>
        <time>2023-08-19T17:18:30.000Z</time>
        <extensions>
          <ns3:TrackPointExtension>
            <ns3:hr>156</ns3:hr>
            <ns3:cad>82</ns3:cad>
          </ns3:TrackPointExtension>
        </extensions>
      </trkpt>
      <trkpt lat="42.60711642913520336151123046875" lon="2.75117791257798671722412109375">
        <ele>157.600006103515625</ele>
        <time>2023-08-19T17:18:31.000Z</time>
        <extensions>
          <ns3:TrackPointExtension>
            <ns3:hr>157</ns3:hr>
            <ns3:cad>82</ns3:cad>
          </ns3:TrackPointExtension>
        </extensions>
      </trkpt>
      <trkpt lat="42.60714258067309856414794921875" lon="2.75115528143942356109619140625">
        <ele>157.8000030517578125</ele>
        <time>2023-08-19T17:18:32.000Z</time>
        <extensions>
          <ns3:TrackPointExtension>
            <ns3:hr>157</ns3:hr>
            <ns3:cad>82</ns3:cad>
          </ns3:TrackPointExtension>
        </extensions>
      </trkpt>
      <trkpt lat="42.60716789402067661285400390625" lon="2.751136757433414459228515625">
        <ele>157.8000030517578125</ele>
        <time>2023-08-19T17:18:33.000Z</time>
        <extensions>
          <ns3:TrackPointExtension>
            <ns3:hr>157</ns3:hr>
            <ns3:cad>82</ns3:cad>
          </ns3:TrackPointExtension>
        </extensions>
      </trkpt>
      <trkpt lat="42.60719756595790386199951171875" lon="2.751119323074817657470703125">
        <ele>157.8000030517578125</ele>
        <time>2023-08-19T17:18:34.000Z</time>
        <extensions>
          <ns3:TrackPointExtension>
            <ns3:hr>157</ns3:hr>
            <ns3:cad>82</ns3:cad>
          </ns3:TrackPointExtension>
        </extensions>
      </trkpt>
      <trkpt lat="42.60722874663770198822021484375" lon="2.751109600067138671875">
        <ele>157.8000030517578125</ele>
        <time>2023-08-19T17:18:35.000Z</time>
        <extensions>
          <ns3:TrackPointExtension>
            <ns3:hr>157</ns3:hr>
            <ns3:cad>82</ns3:cad>
          </ns3:TrackPointExtension>
        </extensions>
      </trkpt>
      <trkpt lat="42.6072524674236774444580078125" lon="2.75109778158366680145263671875">
        <ele>158</ele>
        <time>2023-08-19T17:18:36.000Z</time>
        <extensions>
          <ns3:TrackPointExtension>
            <ns3:hr>157</ns3:hr>
            <ns3:cad>82</ns3:cad>
          </ns3:TrackPointExtension>
        </extensions>
      </trkpt>
      <trkpt lat="42.6072802953422069549560546875" lon="2.75108939968049526214599609375">
        <ele>158</ele>
        <time>2023-08-19T17:18:37.000Z</time>
        <extensions>
          <ns3:TrackPointExtension>
            <ns3:hr>158</ns3:hr>
            <ns3:cad>82</ns3:cad>
          </ns3:TrackPointExtension>
        </extensions>
      </trkpt>
      <trkpt lat="42.60731021873652935028076171875" lon="2.75108034722506999969482421875">
        <ele>158</ele>
        <time>2023-08-19T17:18:38.000Z</time>
        <extensions>
          <ns3:TrackPointExtension>
            <ns3:hr>158</ns3:hr>
            <ns3:cad>82</ns3:cad>
          </ns3:TrackPointExtension>
        </extensions>
      </trkpt>
      <trkpt lat="42.60733469389379024505615234375" lon="2.751068361103534698486328125">
        <ele>158.1999969482421875</ele>
        <time>2023-08-19T17:18:39.000Z</time>
        <extensions>
          <ns3:TrackPointExtension>
            <ns3:hr>158</ns3:hr>
            <ns3:cad>82</ns3:cad>
          </ns3:TrackPointExtension>
        </extensions>
      </trkpt>
      <trkpt lat="42.6073637790977954864501953125" lon="2.75105436332523822784423828125">
        <ele>158.1999969482421875</ele>
        <time>2023-08-19T17:18:40.000Z</time>
        <extensions>
          <ns3:TrackPointExtension>
            <ns3:hr>158</ns3:hr>
            <ns3:cad>82</ns3:cad>
          </ns3:TrackPointExtension>
        </extensions>
      </trkpt>
      <trkpt lat="42.60739068500697612762451171875" lon="2.75104522705078125">
        <ele>158.1999969482421875</ele>
        <time>2023-08-19T17:18:41.000Z</time>
        <extensions>
          <ns3:TrackPointExtension>
            <ns3:hr>158</ns3:hr>
            <ns3:cad>82</ns3:cad>
          </ns3:TrackPointExtension>
        </extensions>
      </trkpt>
      <trkpt lat="42.60741700418293476104736328125" lon="2.751031480729579925537109375">
        <ele>158.1999969482421875</ele>
        <time>2023-08-19T17:18:42.000Z</time>
        <extensions>
          <ns3:TrackPointExtension>
            <ns3:hr>158</ns3:hr>
            <ns3:cad>82</ns3:cad>
          </ns3:TrackPointExtension>
        </extensions>
      </trkpt>
      <trkpt lat="42.60744600556790828704833984375" lon="2.75102217681705951690673828125">
        <ele>158.1999969482421875</ele>
        <time>2023-08-19T17:18:43.000Z</time>
        <extensions>
          <ns3:TrackPointExtension>
            <ns3:hr>157</ns3:hr>
            <ns3:cad>82</ns3:cad>
          </ns3:TrackPointExtension>
        </extensions>
      </trkpt>
      <trkpt lat="42.607469893991947174072265625" lon="2.751013375818729400634765625">
        <ele>158.1999969482421875</ele>
        <time>2023-08-19T17:18:44.000Z</time>
        <extensions>
          <ns3:TrackPointExtension>
            <ns3:hr>158</ns3:hr>
            <ns3:cad>82</ns3:cad>
          </ns3:TrackPointExtension>
        </extensions>
      </trkpt>
      <trkpt lat="42.60749638080596923828125" lon="2.75100591592490673065185546875">
        <ele>158.1999969482421875</ele>
        <time>2023-08-19T17:18:45.000Z</time>
        <extensions>
          <ns3:TrackPointExtension>
            <ns3:hr>157</ns3:hr>
            <ns3:cad>82</ns3:cad>
          </ns3:TrackPointExtension>
        </extensions>
      </trkpt>
      <trkpt lat="42.6075245440006256103515625" lon="2.7509956061840057373046875">
        <ele>158.1999969482421875</ele>
        <time>2023-08-19T17:18:46.000Z</time>
        <extensions>
          <ns3:TrackPointExtension>
            <ns3:hr>157</ns3:hr>
            <ns3:cad>82</ns3:cad>
          </ns3:TrackPointExtension>
        </extensions>
      </trkpt>
      <trkpt lat="42.6075433194637298583984375" lon="2.7509810216724872589111328125">
        <ele>158.1999969482421875</ele>
        <time>2023-08-19T17:18:47.000Z</time>
        <extensions>
          <ns3:TrackPointExtension>
            <ns3:hr>157</ns3:hr>
            <ns3:cad>83</ns3:cad>
          </ns3:TrackPointExtension>
        </extensions>
      </trkpt>
      <trkpt lat="42.6075676269829273223876953125" lon="2.75095629505813121795654296875">
        <ele>158.1999969482421875</ele>
        <time>2023-08-19T17:18:48.000Z</time>
        <extensions>
          <ns3:TrackPointExtension>
            <ns3:hr>157</ns3:hr>
            <ns3:cad>82</ns3:cad>
          </ns3:TrackPointExtension>
        </extensions>
      </trkpt>
      <trkpt lat="42.6075857318937778472900390625" lon="2.7509300597012042999267578125">
        <ele>158.1999969482421875</ele>
        <time>2023-08-19T17:18:49.000Z</time>
        <extensions>
          <ns3:TrackPointExtension>
            <ns3:hr>157</ns3:hr>
            <ns3:cad>82</ns3:cad>
          </ns3:TrackPointExtension>
        </extensions>
      </trkpt>
      <trkpt lat="42.60759587399661540985107421875" lon="2.75089946575462818145751953125">
        <ele>158.1999969482421875</ele>
        <time>2023-08-19T17:18:50.000Z</time>
        <extensions>
          <ns3:TrackPointExtension>
            <ns3:hr>157</ns3:hr>
            <ns3:cad>82</ns3:cad>
          </ns3:TrackPointExtension>
        </extensions>
      </trkpt>
      <trkpt lat="42.60759872384369373321533203125" lon="2.75086082518100738525390625">
        <ele>158</ele>
        <time>2023-08-19T17:18:51.000Z</time>
        <extensions>
          <ns3:TrackPointExtension>
            <ns3:hr>157</ns3:hr>
            <ns3:cad>82</ns3:cad>
          </ns3:TrackPointExtension>
        </extensions>
      </trkpt>
      <trkpt lat="42.60759687982499599456787109375" lon="2.75082503445446491241455078125">
        <ele>158</ele>
        <time>2023-08-19T17:18:52.000Z</time>
        <extensions>
          <ns3:TrackPointExtension>
            <ns3:hr>156</ns3:hr>
            <ns3:cad>82</ns3:cad>
          </ns3:TrackPointExtension>
        </extensions>
      </trkpt>
      <trkpt lat="42.6075862348079681396484375" lon="2.75078765116631984710693359375">
        <ele>158</ele>
        <time>2023-08-19T17:18:53.000Z</time>
        <extensions>
          <ns3:TrackPointExtension>
            <ns3:hr>156</ns3:hr>
            <ns3:cad>83</ns3:cad>
          </ns3:TrackPointExtension>
        </extensions>
      </trkpt>
      <trkpt lat="42.60757123120129108428955078125" lon="2.75075177662074565887451171875">
        <ele>158</ele>
        <time>2023-08-19T17:18:54.000Z</time>
        <extensions>
          <ns3:TrackPointExtension>
            <ns3:hr>156</ns3:hr>
            <ns3:cad>83</ns3:cad>
          </ns3:TrackPointExtension>
        </extensions>
      </trkpt>
      <trkpt lat="42.60755497030913829803466796875" lon="2.75072210468351840972900390625">
        <ele>158</ele>
        <time>2023-08-19T17:18:55.000Z</time>
        <extensions>
          <ns3:TrackPointExtension>
            <ns3:hr>156</ns3:hr>
            <ns3:cad>83</ns3:cad>
          </ns3:TrackPointExtension>
        </extensions>
      </trkpt>
      <trkpt lat="42.60753862559795379638671875" lon="2.7506839670240879058837890625">
        <ele>158</ele>
        <time>2023-08-19T17:18:56.000Z</time>
        <extensions>
          <ns3:TrackPointExtension>
            <ns3:hr>156</ns3:hr>
            <ns3:cad>82</ns3:cad>
          </ns3:TrackPointExtension>
        </extensions>
      </trkpt>
      <trkpt lat="42.60752680711448192596435546875" lon="2.75065136142075061798095703125">
        <ele>158</ele>
        <time>2023-08-19T17:18:57.000Z</time>
        <extensions>
          <ns3:TrackPointExtension>
            <ns3:hr>156</ns3:hr>
            <ns3:cad>82</ns3:cad>
          </ns3:TrackPointExtension>
        </extensions>
      </trkpt>
      <trkpt lat="42.6075139828026294708251953125" lon="2.7506182529032230377197265625">
        <ele>158</ele>
        <time>2023-08-19T17:18:58.000Z</time>
        <extensions>
          <ns3:TrackPointExtension>
            <ns3:hr>155</ns3:hr>
            <ns3:cad>82</ns3:cad>
          </ns3:TrackPointExtension>
        </extensions>
      </trkpt>
      <trkpt lat="42.6075035892426967620849609375" lon="2.7505823783576488494873046875">
        <ele>158</ele>
        <time>2023-08-19T17:18:59.000Z</time>
        <extensions>
          <ns3:TrackPointExtension>
            <ns3:hr>155</ns3:hr>
            <ns3:cad>83</ns3:cad>
          </ns3:TrackPointExtension>
        </extensions>
      </trkpt>
      <trkpt lat="42.60749244131147861480712890625" lon="2.75054926984012126922607421875">
        <ele>158</ele>
        <time>2023-08-19T17:19:00.000Z</time>
        <extensions>
          <ns3:TrackPointExtension>
            <ns3:hr>155</ns3:hr>
            <ns3:cad>83</ns3:cad>
          </ns3:TrackPointExtension>
        </extensions>
      </trkpt>
      <trkpt lat="42.607479952275753021240234375" lon="2.75051473639905452728271484375">
        <ele>158</ele>
        <time>2023-08-19T17:19:01.000Z</time>
        <extensions>
          <ns3:TrackPointExtension>
            <ns3:hr>155</ns3:hr>
            <ns3:cad>82</ns3:cad>
          </ns3:TrackPointExtension>
        </extensions>
      </trkpt>
      <trkpt lat="42.60746796615421772003173828125" lon="2.75048053823411464691162109375">
        <ele>158</ele>
        <time>2023-08-19T17:19:02.000Z</time>
        <extensions>
          <ns3:TrackPointExtension>
            <ns3:hr>155</ns3:hr>
            <ns3:cad>82</ns3:cad>
          </ns3:TrackPointExtension>
        </extensions>
      </trkpt>
      <trkpt lat="42.60745304636657238006591796875" lon="2.750450111925601959228515625">
        <ele>158</ele>
        <time>2023-08-19T17:19:03.000Z</time>
        <extensions>
          <ns3:TrackPointExtension>
            <ns3:hr>155</ns3:hr>
            <ns3:cad>82</ns3:cad>
          </ns3:TrackPointExtension>
        </extensions>
      </trkpt>
      <trkpt lat="42.6074385456740856170654296875" lon="2.75041365064680576324462890625">
        <ele>158</ele>
        <time>2023-08-19T17:19:04.000Z</time>
        <extensions>
          <ns3:TrackPointExtension>
            <ns3:hr>155</ns3:hr>
            <ns3:cad>82</ns3:cad>
          </ns3:TrackPointExtension>
        </extensions>
      </trkpt>
      <trkpt lat="42.60742756538093090057373046875" lon="2.75038146413862705230712890625">
        <ele>158</ele>
        <time>2023-08-19T17:19:05.000Z</time>
        <extensions>
          <ns3:TrackPointExtension>
            <ns3:hr>155</ns3:hr>
            <ns3:cad>82</ns3:cad>
          </ns3:TrackPointExtension>
        </extensions>
      </trkpt>
      <trkpt lat="42.6074117235839366912841796875" lon="2.75034894235432147979736328125">
        <ele>158</ele>
        <time>2023-08-19T17:19:06.000Z</time>
        <extensions>
          <ns3:TrackPointExtension>
            <ns3:hr>155</ns3:hr>
            <ns3:cad>82</ns3:cad>
          </ns3:TrackPointExtension>
        </extensions>
      </trkpt>
      <trkpt lat="42.6073976419866085052490234375" lon="2.75031642057001590728759765625">
        <ele>158</ele>
        <time>2023-08-19T17:19:07.000Z</time>
        <extensions>
          <ns3:TrackPointExtension>
            <ns3:hr>155</ns3:hr>
            <ns3:cad>82</ns3:cad>
          </ns3:TrackPointExtension>
        </extensions>
      </trkpt>
      <trkpt lat="42.60738515295088291168212890625" lon="2.7502863295376300811767578125">
        <ele>158</ele>
        <time>2023-08-19T17:19:08.000Z</time>
        <extensions>
          <ns3:TrackPointExtension>
            <ns3:hr>155</ns3:hr>
            <ns3:cad>82</ns3:cad>
          </ns3:TrackPointExtension>
        </extensions>
      </trkpt>
      <trkpt lat="42.6073721610009670257568359375" lon="2.7502517960965633392333984375">
        <ele>158</ele>
        <time>2023-08-19T17:19:09.000Z</time>
        <extensions>
          <ns3:TrackPointExtension>
            <ns3:hr>155</ns3:hr>
            <ns3:cad>82</ns3:cad>
          </ns3:TrackPointExtension>
        </extensions>
      </trkpt>
      <trkpt lat="42.60736000724136829376220703125" lon="2.75021919049322605133056640625">
        <ele>158</ele>
        <time>2023-08-19T17:19:10.000Z</time>
        <extensions>
          <ns3:TrackPointExtension>
            <ns3:hr>155</ns3:hr>
            <ns3:cad>82</ns3:cad>
          </ns3:TrackPointExtension>
        </extensions>
      </trkpt>
      <trkpt lat="42.60734709911048412322998046875" lon="2.75019404478371143341064453125">
        <ele>158</ele>
        <time>2023-08-19T17:19:11.000Z</time>
        <extensions>
          <ns3:TrackPointExtension>
            <ns3:hr>155</ns3:hr>
            <ns3:cad>82</ns3:cad>
          </ns3:TrackPointExtension>
        </extensions>
      </trkpt>
      <trkpt lat="42.60733184404671192169189453125" lon="2.75016135536134243011474609375">
        <ele>158.1999969482421875</ele>
        <time>2023-08-19T17:19:12.000Z</time>
        <extensions>
          <ns3:TrackPointExtension>
            <ns3:hr>155</ns3:hr>
            <ns3:cad>82</ns3:cad>
          </ns3:TrackPointExtension>
        </extensions>
      </trkpt>
      <trkpt lat="42.60731943883001804351806640625" lon="2.75013168342411518096923828125">
        <ele>158.399993896484375</ele>
        <time>2023-08-19T17:19:13.000Z</time>
        <extensions>
          <ns3:TrackPointExtension>
            <ns3:hr>155</ns3:hr>
            <ns3:cad>82</ns3:cad>
          </ns3:TrackPointExtension>
        </extensions>
      </trkpt>
      <trkpt lat="42.6073064468801021575927734375" lon="2.75010519661009311676025390625">
        <ele>158.399993896484375</ele>
        <time>2023-08-19T17:19:14.000Z</time>
        <extensions>
          <ns3:TrackPointExtension>
            <ns3:hr>154</ns3:hr>
            <ns3:cad>82</ns3:cad>
          </ns3:TrackPointExtension>
        </extensions>
      </trkpt>
      <trkpt lat="42.60729345493018627166748046875" lon="2.75007636286318302154541015625">
        <ele>158.399993896484375</ele>
        <time>2023-08-19T17:19:15.000Z</time>
        <extensions>
          <ns3:TrackPointExtension>
            <ns3:hr>155</ns3:hr>
            <ns3:cad>82</ns3:cad>
          </ns3:TrackPointExtension>
        </extensions>
      </trkpt>
      <trkpt lat="42.60727803222835063934326171875" lon="2.7500466071069240570068359375">
        <ele>158.399993896484375</ele>
        <time>2023-08-19T17:19:16.000Z</time>
        <extensions>
          <ns3:TrackPointExtension>
            <ns3:hr>155</ns3:hr>
            <ns3:cad>82</ns3:cad>
          </ns3:TrackPointExtension>
        </extensions>
      </trkpt>
      <trkpt lat="42.60726344771683216094970703125" lon="2.75001953355967998504638671875">
        <ele>158.399993896484375</ele>
        <time>2023-08-19T17:19:17.000Z</time>
        <extensions>
          <ns3:TrackPointExtension>
            <ns3:hr>155</ns3:hr>
            <ns3:cad>82</ns3:cad>
          </ns3:TrackPointExtension>
        </extensions>
      </trkpt>
      <trkpt lat="42.60724836029112339019775390625" lon="2.74998910725116729736328125">
        <ele>158.399993896484375</ele>
        <time>2023-08-19T17:19:18.000Z</time>
        <extensions>
          <ns3:TrackPointExtension>
            <ns3:hr>155</ns3:hr>
            <ns3:cad>82</ns3:cad>
          </ns3:TrackPointExtension>
        </extensions>
      </trkpt>
      <trkpt lat="42.6072360388934612274169921875" lon="2.749961279332637786865234375">
        <ele>158.399993896484375</ele>
        <time>2023-08-19T17:19:19.000Z</time>
        <extensions>
          <ns3:TrackPointExtension>
            <ns3:hr>155</ns3:hr>
            <ns3:cad>81</ns3:cad>
          </ns3:TrackPointExtension>
        </extensions>
      </trkpt>
      <trkpt lat="42.607223130762577056884765625" lon="2.7499302662909030914306640625">
        <ele>158.399993896484375</ele>
        <time>2023-08-19T17:19:20.000Z</time>
        <extensions>
          <ns3:TrackPointExtension>
            <ns3:hr>155</ns3:hr>
            <ns3:cad>81</ns3:cad>
          </ns3:TrackPointExtension>
        </extensions>
      </trkpt>
      <trkpt lat="42.60721315629780292510986328125" lon="2.74989866651594638824462890625">
        <ele>158.399993896484375</ele>
        <time>2023-08-19T17:19:21.000Z</time>
        <extensions>
          <ns3:TrackPointExtension>
            <ns3:hr>154</ns3:hr>
            <ns3:cad>82</ns3:cad>
          </ns3:TrackPointExtension>
        </extensions>
      </trkpt>
      <trkpt lat="42.60720108635723590850830078125" lon="2.74986974895000457763671875">
        <ele>158.399993896484375</ele>
        <time>2023-08-19T17:19:22.000Z</time>
        <extensions>
          <ns3:TrackPointExtension>
            <ns3:hr>154</ns3:hr>
            <ns3:cad>82</ns3:cad>
          </ns3:TrackPointExtension>
        </extensions>
      </trkpt>
      <trkpt lat="42.60718868114054203033447265625" lon="2.74983630515635013580322265625">
        <ele>158.399993896484375</ele>
        <time>2023-08-19T17:19:23.000Z</time>
        <extensions>
          <ns3:TrackPointExtension>
            <ns3:hr>154</ns3:hr>
            <ns3:cad>82</ns3:cad>
          </ns3:TrackPointExtension>
        </extensions>
      </trkpt>
      <trkpt lat="42.6071766950190067291259765625" lon="2.749803364276885986328125">
        <ele>158.600006103515625</ele>
        <time>2023-08-19T17:19:24.000Z</time>
        <extensions>
          <ns3:TrackPointExtension>
            <ns3:hr>154</ns3:hr>
            <ns3:cad>82</ns3:cad>
          </ns3:TrackPointExtension>
        </extensions>
      </trkpt>
      <trkpt lat="42.60716236196458339691162109375" lon="2.74977855384349822998046875">
        <ele>158.600006103515625</ele>
        <time>2023-08-19T17:19:25.000Z</time>
        <extensions>
          <ns3:TrackPointExtension>
            <ns3:hr>154</ns3:hr>
            <ns3:cad>82</ns3:cad>
          </ns3:TrackPointExtension>
        </extensions>
      </trkpt>
      <trkpt lat="42.6071438379585742950439453125" lon="2.74974494241178035736083984375">
        <ele>158.600006103515625</ele>
        <time>2023-08-19T17:19:26.000Z</time>
        <extensions>
          <ns3:TrackPointExtension>
            <ns3:hr>154</ns3:hr>
            <ns3:cad>82</ns3:cad>
          </ns3:TrackPointExtension>
        </extensions>
      </trkpt>
      <trkpt lat="42.60713017545640468597412109375" lon="2.7497146837413311004638671875">
        <ele>158.600006103515625</ele>
        <time>2023-08-19T17:19:27.000Z</time>
        <extensions>
          <ns3:TrackPointExtension>
            <ns3:hr>154</ns3:hr>
            <ns3:cad>82</ns3:cad>
          </ns3:TrackPointExtension>
        </extensions>
      </trkpt>
      <trkpt lat="42.607116512954235076904296875" lon="2.7496871910989284515380859375">
        <ele>158.600006103515625</ele>
        <time>2023-08-19T17:19:28.000Z</time>
        <extensions>
          <ns3:TrackPointExtension>
            <ns3:hr>154</ns3:hr>
            <ns3:cad>82</ns3:cad>
          </ns3:TrackPointExtension>
        </extensions>
      </trkpt>
      <trkpt lat="42.60710268281400203704833984375" lon="2.7496526576578617095947265625">
        <ele>158.600006103515625</ele>
        <time>2023-08-19T17:19:29.000Z</time>
        <extensions>
          <ns3:TrackPointExtension>
            <ns3:hr>154</ns3:hr>
            <ns3:cad>81</ns3:cad>
          </ns3:TrackPointExtension>
        </extensions>
      </trkpt>
      <trkpt lat="42.60708910413086414337158203125" lon="2.749620974063873291015625">
        <ele>158.600006103515625</ele>
        <time>2023-08-19T17:19:30.000Z</time>
        <extensions>
          <ns3:TrackPointExtension>
            <ns3:hr>154</ns3:hr>
            <ns3:cad>82</ns3:cad>
          </ns3:TrackPointExtension>
        </extensions>
      </trkpt>
      <trkpt lat="42.6070737652480602264404296875" lon="2.7495874464511871337890625">
        <ele>158.600006103515625</ele>
        <time>2023-08-19T17:19:31.000Z</time>
        <extensions>
          <ns3:TrackPointExtension>
            <ns3:hr>154</ns3:hr>
            <ns3:cad>82</ns3:cad>
          </ns3:TrackPointExtension>
        </extensions>
      </trkpt>
      <trkpt lat="42.60705959983170032501220703125" lon="2.749550901353359222412109375">
        <ele>158.600006103515625</ele>
        <time>2023-08-19T17:19:32.000Z</time>
        <extensions>
          <ns3:TrackPointExtension>
            <ns3:hr>154</ns3:hr>
            <ns3:cad>82</ns3:cad>
          </ns3:TrackPointExtension>
        </extensions>
      </trkpt>
      <trkpt lat="42.60704652406275272369384765625" lon="2.74951913394033908843994140625">
        <ele>158.600006103515625</ele>
        <time>2023-08-19T17:19:33.000Z</time>
        <extensions>
          <ns3:TrackPointExtension>
            <ns3:hr>154</ns3:hr>
            <ns3:cad>81</ns3:cad>
          </ns3:TrackPointExtension>
        </extensions>
      </trkpt>
      <trkpt lat="42.60703261010348796844482421875" lon="2.74948359467089176177978515625">
        <ele>158.8000030517578125</ele>
        <time>2023-08-19T17:19:34.000Z</time>
        <extensions>
          <ns3:TrackPointExtension>
            <ns3:hr>154</ns3:hr>
            <ns3:cad>81</ns3:cad>
          </ns3:TrackPointExtension>
        </extensions>
      </trkpt>
      <trkpt lat="42.60701953433454036712646484375" lon="2.74944939650595188140869140625">
        <ele>158.8000030517578125</ele>
        <time>2023-08-19T17:19:35.000Z</time>
        <extensions>
          <ns3:TrackPointExtension>
            <ns3:hr>154</ns3:hr>
            <ns3:cad>81</ns3:cad>
          </ns3:TrackPointExtension>
        </extensions>
      </trkpt>
      <trkpt lat="42.6070036925375461578369140625" lon="2.749420814216136932373046875">
        <ele>158.8000030517578125</ele>
        <time>2023-08-19T17:19:36.000Z</time>
        <extensions>
          <ns3:TrackPointExtension>
            <ns3:hr>154</ns3:hr>
            <ns3:cad>82</ns3:cad>
          </ns3:TrackPointExtension>
        </extensions>
      </trkpt>
      <trkpt lat="42.6069865934550762176513671875" lon="2.7493841014802455902099609375">
        <ele>158.8000030517578125</ele>
        <time>2023-08-19T17:19:37.000Z</time>
        <extensions>
          <ns3:TrackPointExtension>
            <ns3:hr>154</ns3:hr>
            <ns3:cad>82</ns3:cad>
          </ns3:TrackPointExtension>
        </extensions>
      </trkpt>
      <trkpt lat="42.60697376914322376251220703125" lon="2.74935166351497173309326171875">
        <ele>158.600006103515625</ele>
        <time>2023-08-19T17:19:38.000Z</time>
        <extensions>
          <ns3:TrackPointExtension>
            <ns3:hr>154</ns3:hr>
            <ns3:cad>82</ns3:cad>
          </ns3:TrackPointExtension>
        </extensions>
      </trkpt>
      <trkpt lat="42.60695985518395900726318359375" lon="2.74932031519711017608642578125">
        <ele>158.399993896484375</ele>
        <time>2023-08-19T17:19:39.000Z</time>
        <extensions>
          <ns3:TrackPointExtension>
            <ns3:hr>154</ns3:hr>
            <ns3:cad>82</ns3:cad>
          </ns3:TrackPointExtension>
        </extensions>
      </trkpt>
      <trkpt lat="42.6069438457489013671875" lon="2.7492855302989482879638671875">
        <ele>158.399993896484375</ele>
        <time>2023-08-19T17:19:40.000Z</time>
        <extensions>
          <ns3:TrackPointExtension>
            <ns3:hr>154</ns3:hr>
            <ns3:cad>83</ns3:cad>
          </ns3:TrackPointExtension>
        </extensions>
      </trkpt>
      <trkpt lat="42.60692867450416088104248046875" lon="2.749255858361721038818359375">
        <ele>158.399993896484375</ele>
        <time>2023-08-19T17:19:41.000Z</time>
        <extensions>
          <ns3:TrackPointExtension>
            <ns3:hr>155</ns3:hr>
            <ns3:cad>83</ns3:cad>
          </ns3:TrackPointExtension>
        </extensions>
      </trkpt>
      <trkpt lat="42.60691140778362751007080078125" lon="2.74921922944486141204833984375">
        <ele>158.399993896484375</ele>
        <time>2023-08-19T17:19:42.000Z</time>
        <extensions>
          <ns3:TrackPointExtension>
            <ns3:hr>155</ns3:hr>
            <ns3:cad>83</ns3:cad>
          </ns3:TrackPointExtension>
        </extensions>
      </trkpt>
      <trkpt lat="42.6068974100053310394287109375" lon="2.749183438718318939208984375">
        <ele>158.399993896484375</ele>
        <time>2023-08-19T17:19:43.000Z</time>
        <extensions>
          <ns3:TrackPointExtension>
            <ns3:hr>155</ns3:hr>
            <ns3:cad>83</ns3:cad>
          </ns3:TrackPointExtension>
        </extensions>
      </trkpt>
      <trkpt lat="42.60687737725675106048583984375" lon="2.749152593314647674560546875">
        <ele>158.399993896484375</ele>
        <time>2023-08-19T17:19:44.000Z</time>
        <extensions>
          <ns3:TrackPointExtension>
            <ns3:hr>155</ns3:hr>
            <ns3:cad>83</ns3:cad>
          </ns3:TrackPointExtension>
        </extensions>
      </trkpt>
      <trkpt lat="42.60685843415558338165283203125" lon="2.7491205744445323944091796875">
        <ele>158.1999969482421875</ele>
        <time>2023-08-19T17:19:45.000Z</time>
        <extensions>
          <ns3:TrackPointExtension>
            <ns3:hr>155</ns3:hr>
            <ns3:cad>83</ns3:cad>
          </ns3:TrackPointExtension>
        </extensions>
      </trkpt>
      <trkpt lat="42.60684317909181118011474609375" lon="2.7490907348692417144775390625">
        <ele>158.399993896484375</ele>
        <time>2023-08-19T17:19:46.000Z</time>
        <extensions>
          <ns3:TrackPointExtension>
            <ns3:hr>155</ns3:hr>
            <ns3:cad>83</ns3:cad>
          </ns3:TrackPointExtension>
        </extensions>
      </trkpt>
      <trkpt lat="42.60682658292353153228759765625" lon="2.7490551955997943878173828125">
        <ele>158.1999969482421875</ele>
        <time>2023-08-19T17:19:47.000Z</time>
        <extensions>
          <ns3:TrackPointExtension>
            <ns3:hr>155</ns3:hr>
            <ns3:cad>83</ns3:cad>
          </ns3:TrackPointExtension>
        </extensions>
      </trkpt>
      <trkpt lat="42.60681669227778911590576171875" lon="2.74901940487325191497802734375">
        <ele>158.1999969482421875</ele>
        <time>2023-08-19T17:19:48.000Z</time>
        <extensions>
          <ns3:TrackPointExtension>
            <ns3:hr>155</ns3:hr>
            <ns3:cad>84</ns3:cad>
          </ns3:TrackPointExtension>
        </extensions>
      </trkpt>
      <trkpt lat="42.60680445469915866851806640625" lon="2.74899090640246868133544921875">
        <ele>158.1999969482421875</ele>
        <time>2023-08-19T17:19:49.000Z</time>
        <extensions>
          <ns3:TrackPointExtension>
            <ns3:hr>155</ns3:hr>
            <ns3:cad>83</ns3:cad>
          </ns3:TrackPointExtension>
        </extensions>
      </trkpt>
      <trkpt lat="42.60679104365408420562744140625" lon="2.74895335547626018524169921875">
        <ele>158.1999969482421875</ele>
        <time>2023-08-19T17:19:50.000Z</time>
        <extensions>
          <ns3:TrackPointExtension>
            <ns3:hr>155</ns3:hr>
            <ns3:cad>83</ns3:cad>
          </ns3:TrackPointExtension>
        </extensions>
      </trkpt>
      <trkpt lat="42.60678148828446865081787109375" lon="2.74891714565455913543701171875">
        <ele>158.1999969482421875</ele>
        <time>2023-08-19T17:19:51.000Z</time>
        <extensions>
          <ns3:TrackPointExtension>
            <ns3:hr>155</ns3:hr>
            <ns3:cad>83</ns3:cad>
          </ns3:TrackPointExtension>
        </extensions>
      </trkpt>
      <trkpt lat="42.60676807723939418792724609375" lon="2.7488820254802703857421875">
        <ele>158.1999969482421875</ele>
        <time>2023-08-19T17:19:52.000Z</time>
        <extensions>
          <ns3:TrackPointExtension>
            <ns3:hr>155</ns3:hr>
            <ns3:cad>83</ns3:cad>
          </ns3:TrackPointExtension>
        </extensions>
      </trkpt>
      <trkpt lat="42.606755085289478302001953125" lon="2.7488433010876178741455078125">
        <ele>158.1999969482421875</ele>
        <time>2023-08-19T17:19:53.000Z</time>
        <extensions>
          <ns3:TrackPointExtension>
            <ns3:hr>155</ns3:hr>
            <ns3:cad>83</ns3:cad>
          </ns3:TrackPointExtension>
        </extensions>
      </trkpt>
      <trkpt lat="42.60674024932086467742919921875" lon="2.748811282217502593994140625">
        <ele>158.399993896484375</ele>
        <time>2023-08-19T17:19:54.000Z</time>
        <extensions>
          <ns3:TrackPointExtension>
            <ns3:hr>156</ns3:hr>
            <ns3:cad>83</ns3:cad>
          </ns3:TrackPointExtension>
        </extensions>
      </trkpt>
      <trkpt lat="42.60672457516193389892578125" lon="2.74877180345356464385986328125">
        <ele>158.399993896484375</ele>
        <time>2023-08-19T17:19:55.000Z</time>
        <extensions>
          <ns3:TrackPointExtension>
            <ns3:hr>156</ns3:hr>
            <ns3:cad>83</ns3:cad>
          </ns3:TrackPointExtension>
        </extensions>
      </trkpt>
      <trkpt lat="42.606714181602001190185546875" lon="2.74873408488929271697998046875">
        <ele>158.399993896484375</ele>
        <time>2023-08-19T17:19:56.000Z</time>
        <extensions>
          <ns3:TrackPointExtension>
            <ns3:hr>156</ns3:hr>
            <ns3:cad>83</ns3:cad>
          </ns3:TrackPointExtension>
        </extensions>
      </trkpt>
      <trkpt lat="42.606701441109180450439453125" lon="2.74870173074305057525634765625">
        <ele>158.399993896484375</ele>
        <time>2023-08-19T17:19:57.000Z</time>
        <extensions>
          <ns3:TrackPointExtension>
            <ns3:hr>156</ns3:hr>
            <ns3:cad>83</ns3:cad>
          </ns3:TrackPointExtension>
        </extensions>
      </trkpt>
      <trkpt lat="42.606692053377628326416015625" lon="2.74866409599781036376953125">
        <ele>158.399993896484375</ele>
        <time>2023-08-19T17:19:58.000Z</time>
        <extensions>
          <ns3:TrackPointExtension>
            <ns3:hr>156</ns3:hr>
            <ns3:cad>83</ns3:cad>
          </ns3:TrackPointExtension>
        </extensions>
      </trkpt>
      <trkpt lat="42.606678642332553863525390625" lon="2.74863149039447307586669921875">
        <ele>158.399993896484375</ele>
        <time>2023-08-19T17:19:59.000Z</time>
        <extensions>
          <ns3:TrackPointExtension>
            <ns3:hr>156</ns3:hr>
            <ns3:cad>83</ns3:cad>
          </ns3:TrackPointExtension>
        </extensions>
      </trkpt>
      <trkpt lat="42.606663219630718231201171875" lon="2.748593352735042572021484375">
        <ele>158.399993896484375</ele>
        <time>2023-08-19T17:20:00.000Z</time>
        <extensions>
          <ns3:TrackPointExtension>
            <ns3:hr>156</ns3:hr>
            <ns3:cad>83</ns3:cad>
          </ns3:TrackPointExtension>
        </extensions>
      </trkpt>
      <trkpt lat="42.60665006004273891448974609375" lon="2.7485593222081661224365234375">
        <ele>158.399993896484375</ele>
        <time>2023-08-19T17:20:01.000Z</time>
        <extensions>
          <ns3:TrackPointExtension>
            <ns3:hr>156</ns3:hr>
            <ns3:cad>83</ns3:cad>
          </ns3:TrackPointExtension>
        </extensions>
      </trkpt>
      <trkpt lat="42.6066340506076812744140625" lon="2.748530320823192596435546875">
        <ele>158.399993896484375</ele>
        <time>2023-08-19T17:20:02.000Z</time>
        <extensions>
          <ns3:TrackPointExtension>
            <ns3:hr>156</ns3:hr>
            <ns3:cad>83</ns3:cad>
          </ns3:TrackPointExtension>
        </extensions>
      </trkpt>
      <trkpt lat="42.60661862790584564208984375" lon="2.748496793210506439208984375">
        <ele>158.399993896484375</ele>
        <time>2023-08-19T17:20:03.000Z</time>
        <extensions>
          <ns3:TrackPointExtension>
            <ns3:hr>156</ns3:hr>
            <ns3:cad>83</ns3:cad>
          </ns3:TrackPointExtension>
        </extensions>
      </trkpt>
      <trkpt lat="42.60660848580300807952880859375" lon="2.7484634332358837127685546875">
        <ele>158.399993896484375</ele>
        <time>2023-08-19T17:20:04.000Z</time>
        <extensions>
          <ns3:TrackPointExtension>
            <ns3:hr>156</ns3:hr>
            <ns3:cad>83</ns3:cad>
          </ns3:TrackPointExtension>
        </extensions>
      </trkpt>
      <trkpt lat="42.60659457184374332427978515625" lon="2.748429737985134124755859375">
        <ele>158.399993896484375</ele>
        <time>2023-08-19T17:20:05.000Z</time>
        <extensions>
          <ns3:TrackPointExtension>
            <ns3:hr>156</ns3:hr>
            <ns3:cad>82</ns3:cad>
          </ns3:TrackPointExtension>
        </extensions>
      </trkpt>
      <trkpt lat="42.60658375918865203857421875" lon="2.74839528836309909820556640625">
        <ele>158.1999969482421875</ele>
        <time>2023-08-19T17:20:06.000Z</time>
        <extensions>
          <ns3:TrackPointExtension>
            <ns3:hr>156</ns3:hr>
            <ns3:cad>82</ns3:cad>
          </ns3:TrackPointExtension>
        </extensions>
      </trkpt>
      <trkpt lat="42.6065731979906558990478515625" lon="2.7483685500919818878173828125">
        <ele>158.399993896484375</ele>
        <time>2023-08-19T17:20:07.000Z</time>
        <extensions>
          <ns3:TrackPointExtension>
            <ns3:hr>156</ns3:hr>
            <ns3:cad>82</ns3:cad>
          </ns3:TrackPointExtension>
        </extensions>
      </trkpt>
      <trkpt lat="42.60656096041202545166015625" lon="2.748333178460597991943359375">
        <ele>158.399993896484375</ele>
        <time>2023-08-19T17:20:08.000Z</time>
        <extensions>
          <ns3:TrackPointExtension>
            <ns3:hr>155</ns3:hr>
            <ns3:cad>82</ns3:cad>
          </ns3:TrackPointExtension>
        </extensions>
      </trkpt>
      <trkpt lat="42.60654964484274387359619140625" lon="2.74829805828630924224853515625">
        <ele>158.399993896484375</ele>
        <time>2023-08-19T17:20:09.000Z</time>
        <extensions>
          <ns3:TrackPointExtension>
            <ns3:hr>155</ns3:hr>
            <ns3:cad>82</ns3:cad>
          </ns3:TrackPointExtension>
        </extensions>
      </trkpt>
      <trkpt lat="42.6065353117883205413818359375" lon="2.74826838634908199310302734375">
        <ele>158.399993896484375</ele>
        <time>2023-08-19T17:20:10.000Z</time>
        <extensions>
          <ns3:TrackPointExtension>
            <ns3:hr>155</ns3:hr>
            <ns3:cad>82</ns3:cad>
          </ns3:TrackPointExtension>
        </extensions>
      </trkpt>
      <trkpt lat="42.606523074209690093994140625" lon="2.7482284046709537506103515625">
        <ele>158.399993896484375</ele>
        <time>2023-08-19T17:20:11.000Z</time>
        <extensions>
          <ns3:TrackPointExtension>
            <ns3:hr>155</ns3:hr>
            <ns3:cad>82</ns3:cad>
          </ns3:TrackPointExtension>
        </extensions>
      </trkpt>
      <trkpt lat="42.606512010097503662109375" lon="2.7481972239911556243896484375">
        <ele>158.399993896484375</ele>
        <time>2023-08-19T17:20:12.000Z</time>
        <extensions>
          <ns3:TrackPointExtension>
            <ns3:hr>155</ns3:hr>
            <ns3:cad>82</ns3:cad>
          </ns3:TrackPointExtension>
        </extensions>
      </trkpt>
      <trkpt lat="42.60650069452822208404541015625" lon="2.74816830642521381378173828125">
        <ele>158.399993896484375</ele>
        <time>2023-08-19T17:20:13.000Z</time>
        <extensions>
          <ns3:TrackPointExtension>
            <ns3:hr>155</ns3:hr>
            <ns3:cad>82</ns3:cad>
          </ns3:TrackPointExtension>
        </extensions>
      </trkpt>
      <trkpt lat="42.6064892113208770751953125" lon="2.74813880212604999542236328125">
        <ele>158.399993896484375</ele>
        <time>2023-08-19T17:20:14.000Z</time>
        <extensions>
          <ns3:TrackPointExtension>
            <ns3:hr>155</ns3:hr>
            <ns3:cad>82</ns3:cad>
          </ns3:TrackPointExtension>
        </extensions>
      </trkpt>
      <trkpt lat="42.6064758002758026123046875" lon="2.748106531798839569091796875">
        <ele>158.399993896484375</ele>
        <time>2023-08-19T17:20:15.000Z</time>
        <extensions>
          <ns3:TrackPointExtension>
            <ns3:hr>154</ns3:hr>
            <ns3:cad>82</ns3:cad>
          </ns3:TrackPointExtension>
        </extensions>
      </trkpt>
      <trkpt lat="42.6064672507345676422119140625" lon="2.74807308800518512725830078125">
        <ele>158.399993896484375</ele>
        <time>2023-08-19T17:20:16.000Z</time>
        <extensions>
          <ns3:TrackPointExtension>
            <ns3:hr>154</ns3:hr>
            <ns3:cad>82</ns3:cad>
          </ns3:TrackPointExtension>
        </extensions>
      </trkpt>
      <trkpt lat="42.60645367205142974853515625" lon="2.74803805164992809295654296875">
        <ele>158.399993896484375</ele>
        <time>2023-08-19T17:20:17.000Z</time>
        <extensions>
          <ns3:TrackPointExtension>
            <ns3:hr>154</ns3:hr>
            <ns3:cad>82</ns3:cad>
          </ns3:TrackPointExtension>
        </extensions>
      </trkpt>
      <trkpt lat="42.6064414344727993011474609375" lon="2.74801055900752544403076171875">
        <ele>158.399993896484375</ele>
        <time>2023-08-19T17:20:18.000Z</time>
        <extensions>
          <ns3:TrackPointExtension>
            <ns3:hr>154</ns3:hr>
            <ns3:cad>82</ns3:cad>
          </ns3:TrackPointExtension>
        </extensions>
      </trkpt>
      <trkpt lat="42.60643263347446918487548828125" lon="2.7479752711951732635498046875">
        <ele>158.399993896484375</ele>
        <time>2023-08-19T17:20:19.000Z</time>
        <extensions>
          <ns3:TrackPointExtension>
            <ns3:hr>154</ns3:hr>
            <ns3:cad>82</ns3:cad>
          </ns3:TrackPointExtension>
        </extensions>
      </trkpt>
      <trkpt lat="42.60642349720001220703125" lon="2.747946940362453460693359375">
        <ele>158.399993896484375</ele>
        <time>2023-08-19T17:20:20.000Z</time>
        <extensions>
          <ns3:TrackPointExtension>
            <ns3:hr>154</ns3:hr>
            <ns3:cad>82</ns3:cad>
          </ns3:TrackPointExtension>
        </extensions>
      </trkpt>
      <trkpt lat="42.6064115948975086212158203125" lon="2.74791433475911617279052734375">
        <ele>158.399993896484375</ele>
        <time>2023-08-19T17:20:21.000Z</time>
        <extensions>
          <ns3:TrackPointExtension>
            <ns3:hr>154</ns3:hr>
            <ns3:cad>83</ns3:cad>
          </ns3:TrackPointExtension>
        </extensions>
      </trkpt>
      <trkpt lat="42.60640396736562252044677734375" lon="2.7478793822228908538818359375">
        <ele>158.399993896484375</ele>
        <time>2023-08-19T17:20:22.000Z</time>
        <extensions>
          <ns3:TrackPointExtension>
            <ns3:hr>154</ns3:hr>
            <ns3:cad>83</ns3:cad>
          </ns3:TrackPointExtension>
        </extensions>
      </trkpt>
      <trkpt lat="42.6063921488821506500244140625" lon="2.74784996174275875091552734375">
        <ele>158.399993896484375</ele>
        <time>2023-08-19T17:20:23.000Z</time>
        <extensions>
          <ns3:TrackPointExtension>
            <ns3:hr>154</ns3:hr>
            <ns3:cad>83</ns3:cad>
          </ns3:TrackPointExtension>
        </extensions>
      </trkpt>
      <trkpt lat="42.60637714527547359466552734375" lon="2.74781174026429653167724609375">
        <ele>158.399993896484375</ele>
        <time>2023-08-19T17:20:24.000Z</time>
        <extensions>
          <ns3:TrackPointExtension>
            <ns3:hr>154</ns3:hr>
            <ns3:cad>83</ns3:cad>
          </ns3:TrackPointExtension>
        </extensions>
      </trkpt>
      <trkpt lat="42.60636323131620883941650390625" lon="2.74777301587164402008056640625">
        <ele>158.399993896484375</ele>
        <time>2023-08-19T17:20:25.000Z</time>
        <extensions>
          <ns3:TrackPointExtension>
            <ns3:hr>154</ns3:hr>
            <ns3:cad>83</ns3:cad>
          </ns3:TrackPointExtension>
        </extensions>
      </trkpt>
      <trkpt lat="42.60634881444275379180908203125" lon="2.74773730896413326263427734375">
        <ele>158.399993896484375</ele>
        <time>2023-08-19T17:20:26.000Z</time>
        <extensions>
          <ns3:TrackPointExtension>
            <ns3:hr>154</ns3:hr>
            <ns3:cad>83</ns3:cad>
          </ns3:TrackPointExtension>
        </extensions>
      </trkpt>
      <trkpt lat="42.60633355937898159027099609375" lon="2.74770009331405162811279296875">
        <ele>158.399993896484375</ele>
        <time>2023-08-19T17:20:27.000Z</time>
        <extensions>
          <ns3:TrackPointExtension>
            <ns3:hr>154</ns3:hr>
            <ns3:cad>83</ns3:cad>
          </ns3:TrackPointExtension>
        </extensions>
      </trkpt>
      <trkpt lat="42.60631931014358997344970703125" lon="2.74766773916780948638916015625">
        <ele>158.600006103515625</ele>
        <time>2023-08-19T17:20:28.000Z</time>
        <extensions>
          <ns3:TrackPointExtension>
            <ns3:hr>155</ns3:hr>
            <ns3:cad>83</ns3:cad>
          </ns3:TrackPointExtension>
        </extensions>
      </trkpt>
      <trkpt lat="42.60630271397531032562255859375" lon="2.74762985296547412872314453125">
        <ele>158.600006103515625</ele>
        <time>2023-08-19T17:20:29.000Z</time>
        <extensions>
          <ns3:TrackPointExtension>
            <ns3:hr>155</ns3:hr>
            <ns3:cad>83</ns3:cad>
          </ns3:TrackPointExtension>
        </extensions>
      </trkpt>
      <trkpt lat="42.606289386749267578125" lon="2.747592888772487640380859375">
        <ele>158.600006103515625</ele>
        <time>2023-08-19T17:20:30.000Z</time>
        <extensions>
          <ns3:TrackPointExtension>
            <ns3:hr>155</ns3:hr>
            <ns3:cad>83</ns3:cad>
          </ns3:TrackPointExtension>
        </extensions>
      </trkpt>
      <trkpt lat="42.606276310980319976806640625" lon="2.74756179191172122955322265625">
        <ele>158.600006103515625</ele>
        <time>2023-08-19T17:20:31.000Z</time>
        <extensions>
          <ns3:TrackPointExtension>
            <ns3:hr>155</ns3:hr>
            <ns3:cad>83</ns3:cad>
          </ns3:TrackPointExtension>
        </extensions>
      </trkpt>
      <trkpt lat="42.60626214556396007537841796875" lon="2.7475246600806713104248046875">
        <ele>158.600006103515625</ele>
        <time>2023-08-19T17:20:32.000Z</time>
        <extensions>
          <ns3:TrackPointExtension>
            <ns3:hr>155</ns3:hr>
            <ns3:cad>83</ns3:cad>
          </ns3:TrackPointExtension>
        </extensions>
      </trkpt>
      <trkpt lat="42.6062504947185516357421875" lon="2.7474881149828433990478515625">
        <ele>158.600006103515625</ele>
        <time>2023-08-19T17:20:33.000Z</time>
        <extensions>
          <ns3:TrackPointExtension>
            <ns3:hr>155</ns3:hr>
            <ns3:cad>83</ns3:cad>
          </ns3:TrackPointExtension>
        </extensions>
      </trkpt>
      <trkpt lat="42.6062355749309062957763671875" lon="2.747458107769489288330078125">
        <ele>158.600006103515625</ele>
        <time>2023-08-19T17:20:34.000Z</time>
        <extensions>
          <ns3:TrackPointExtension>
            <ns3:hr>155</ns3:hr>
            <ns3:cad>82</ns3:cad>
          </ns3:TrackPointExtension>
        </extensions>
      </trkpt>
      <trkpt lat="42.606219984591007232666015625" lon="2.74741829372942447662353515625">
        <ele>158.600006103515625</ele>
        <time>2023-08-19T17:20:35.000Z</time>
        <extensions>
          <ns3:TrackPointExtension>
            <ns3:hr>156</ns3:hr>
            <ns3:cad>82</ns3:cad>
          </ns3:TrackPointExtension>
        </extensions>
      </trkpt>
      <trkpt lat="42.60620565153658390045166015625" lon="2.74738426320254802703857421875">
        <ele>158.399993896484375</ele>
        <time>2023-08-19T17:20:36.000Z</time>
        <extensions>
          <ns3:TrackPointExtension>
            <ns3:hr>156</ns3:hr>
            <ns3:cad>82</ns3:cad>
          </ns3:TrackPointExtension>
        </extensions>
      </trkpt>
      <trkpt lat="42.60619073174893856048583984375" lon="2.747349478304386138916015625">
        <ele>158.399993896484375</ele>
        <time>2023-08-19T17:20:37.000Z</time>
        <extensions>
          <ns3:TrackPointExtension>
            <ns3:hr>156</ns3:hr>
            <ns3:cad>82</ns3:cad>
          </ns3:TrackPointExtension>
        </extensions>
      </trkpt>
      <trkpt lat="42.60617832653224468231201171875" lon="2.74731419049203395843505859375">
        <ele>158.399993896484375</ele>
        <time>2023-08-19T17:20:38.000Z</time>
        <extensions>
          <ns3:TrackPointExtension>
            <ns3:hr>156</ns3:hr>
            <ns3:cad>82</ns3:cad>
          </ns3:TrackPointExtension>
        </extensions>
      </trkpt>
      <trkpt lat="42.60616558603942394256591796875" lon="2.74728585965931415557861328125">
        <ele>158.399993896484375</ele>
        <time>2023-08-19T17:20:39.000Z</time>
        <extensions>
          <ns3:TrackPointExtension>
            <ns3:hr>156</ns3:hr>
            <ns3:cad>82</ns3:cad>
          </ns3:TrackPointExtension>
        </extensions>
      </trkpt>
      <trkpt lat="42.60614563710987567901611328125" lon="2.7472483925521373748779296875">
        <ele>158.399993896484375</ele>
        <time>2023-08-19T17:20:40.000Z</time>
        <extensions>
          <ns3:TrackPointExtension>
            <ns3:hr>156</ns3:hr>
            <ns3:cad>82</ns3:cad>
          </ns3:TrackPointExtension>
        </extensions>
      </trkpt>
      <trkpt lat="42.606132812798023223876953125" lon="2.74721293710172176361083984375">
        <ele>158.399993896484375</ele>
        <time>2023-08-19T17:20:41.000Z</time>
        <extensions>
          <ns3:TrackPointExtension>
            <ns3:hr>156</ns3:hr>
            <ns3:cad>82</ns3:cad>
          </ns3:TrackPointExtension>
        </extensions>
      </trkpt>
      <trkpt lat="42.60611571371555328369140625" lon="2.74717907421290874481201171875">
        <ele>158.399993896484375</ele>
        <time>2023-08-19T17:20:42.000Z</time>
        <extensions>
          <ns3:TrackPointExtension>
            <ns3:hr>157</ns3:hr>
            <ns3:cad>82</ns3:cad>
          </ns3:TrackPointExtension>
        </extensions>
      </trkpt>
      <trkpt lat="42.60609786026179790496826171875" lon="2.74713791906833648681640625">
        <ele>158.1999969482421875</ele>
        <time>2023-08-19T17:20:43.000Z</time>
        <extensions>
          <ns3:TrackPointExtension>
            <ns3:hr>157</ns3:hr>
            <ns3:cad>82</ns3:cad>
          </ns3:TrackPointExtension>
        </extensions>
      </trkpt>
      <trkpt lat="42.606082521378993988037109375" lon="2.74710380472242832183837890625">
        <ele>158</ele>
        <time>2023-08-19T17:20:44.000Z</time>
        <extensions>
          <ns3:TrackPointExtension>
            <ns3:hr>157</ns3:hr>
            <ns3:cad>82</ns3:cad>
          </ns3:TrackPointExtension>
        </extensions>
      </trkpt>
      <trkpt lat="42.606063745915889739990234375" lon="2.74706575088202953338623046875">
        <ele>157.8000030517578125</ele>
        <time>2023-08-19T17:20:45.000Z</time>
        <extensions>
          <ns3:TrackPointExtension>
            <ns3:hr>157</ns3:hr>
            <ns3:cad>82</ns3:cad>
          </ns3:TrackPointExtension>
        </extensions>
      </trkpt>
      <trkpt lat="42.6060484908521175384521484375" lon="2.7470311336219310760498046875">
        <ele>157.8000030517578125</ele>
        <time>2023-08-19T17:20:46.000Z</time>
        <extensions>
          <ns3:TrackPointExtension>
            <ns3:hr>157</ns3:hr>
            <ns3:cad>82</ns3:cad>
          </ns3:TrackPointExtension>
        </extensions>
      </trkpt>
      <trkpt lat="42.606034576892852783203125" lon="2.74700439535081386566162109375">
        <ele>157.8000030517578125</ele>
        <time>2023-08-19T17:20:47.000Z</time>
        <extensions>
          <ns3:TrackPointExtension>
            <ns3:hr>157</ns3:hr>
            <ns3:cad>82</ns3:cad>
          </ns3:TrackPointExtension>
        </extensions>
      </trkpt>
      <trkpt lat="42.60602057911455631256103515625" lon="2.74697489105165004730224609375">
        <ele>157.8000030517578125</ele>
        <time>2023-08-19T17:20:48.000Z</time>
        <extensions>
          <ns3:TrackPointExtension>
            <ns3:hr>157</ns3:hr>
            <ns3:cad>82</ns3:cad>
          </ns3:TrackPointExtension>
        </extensions>
      </trkpt>
      <trkpt lat="42.60600750334560871124267578125" lon="2.74694337509572505950927734375">
        <ele>157.8000030517578125</ele>
        <time>2023-08-19T17:20:49.000Z</time>
        <extensions>
          <ns3:TrackPointExtension>
            <ns3:hr>156</ns3:hr>
            <ns3:cad>82</ns3:cad>
          </ns3:TrackPointExtension>
        </extensions>
      </trkpt>
      <trkpt lat="42.60599157772958278656005859375" lon="2.746916301548480987548828125">
        <ele>157.600006103515625</ele>
        <time>2023-08-19T17:20:50.000Z</time>
        <extensions>
          <ns3:TrackPointExtension>
            <ns3:hr>156</ns3:hr>
            <ns3:cad>82</ns3:cad>
          </ns3:TrackPointExtension>
        </extensions>
      </trkpt>
      <trkpt lat="42.60597196407616138458251953125" lon="2.74688017554581165313720703125">
        <ele>157.600006103515625</ele>
        <time>2023-08-19T17:20:51.000Z</time>
        <extensions>
          <ns3:TrackPointExtension>
            <ns3:hr>156</ns3:hr>
            <ns3:cad>82</ns3:cad>
          </ns3:TrackPointExtension>
        </extensions>
      </trkpt>
      <trkpt lat="42.6059586368501186370849609375" lon="2.74685268290340900421142578125">
        <ele>157.600006103515625</ele>
        <time>2023-08-19T17:20:52.000Z</time>
        <extensions>
          <ns3:TrackPointExtension>
            <ns3:hr>156</ns3:hr>
            <ns3:cad>82</ns3:cad>
          </ns3:TrackPointExtension>
        </extensions>
      </trkpt>
      <trkpt lat="42.60594111867249011993408203125" lon="2.7468158863484859466552734375">
        <ele>157.600006103515625</ele>
        <time>2023-08-19T17:20:53.000Z</time>
        <extensions>
          <ns3:TrackPointExtension>
            <ns3:hr>156</ns3:hr>
            <ns3:cad>82</ns3:cad>
          </ns3:TrackPointExtension>
        </extensions>
      </trkpt>
      <trkpt lat="42.60592888109385967254638671875" lon="2.7467780001461505889892578125">
        <ele>157.600006103515625</ele>
        <time>2023-08-19T17:20:54.000Z</time>
        <extensions>
          <ns3:TrackPointExtension>
            <ns3:hr>156</ns3:hr>
            <ns3:cad>82</ns3:cad>
          </ns3:TrackPointExtension>
        </extensions>
      </trkpt>
      <trkpt lat="42.6059187389910221099853515625" lon="2.7467496693134307861328125">
        <ele>157.600006103515625</ele>
        <time>2023-08-19T17:20:55.000Z</time>
        <extensions>
          <ns3:TrackPointExtension>
            <ns3:hr>156</ns3:hr>
            <ns3:cad>82</ns3:cad>
          </ns3:TrackPointExtension>
        </extensions>
      </trkpt>
      <trkpt lat="42.605909518897533416748046875" lon="2.74671538732945919036865234375">
        <ele>157.8000030517578125</ele>
        <time>2023-08-19T17:20:56.000Z</time>
        <extensions>
          <ns3:TrackPointExtension>
            <ns3:hr>156</ns3:hr>
            <ns3:cad>82</ns3:cad>
          </ns3:TrackPointExtension>
        </extensions>
      </trkpt>
      <trkpt lat="42.60590423829853534698486328125" lon="2.74667783640325069427490234375">
        <ele>157.8000030517578125</ele>
        <time>2023-08-19T17:20:57.000Z</time>
        <extensions>
          <ns3:TrackPointExtension>
            <ns3:hr>156</ns3:hr>
            <ns3:cad>82</ns3:cad>
          </ns3:TrackPointExtension>
        </extensions>
      </trkpt>
      <trkpt lat="42.60589837096631526947021484375" lon="2.74664347060024738311767578125">
        <ele>157.8000030517578125</ele>
        <time>2023-08-19T17:20:58.000Z</time>
        <extensions>
          <ns3:TrackPointExtension>
            <ns3:hr>156</ns3:hr>
            <ns3:cad>82</ns3:cad>
          </ns3:TrackPointExtension>
        </extensions>
      </trkpt>
      <trkpt lat="42.6058976165950298309326171875" lon="2.7466016449034214019775390625">
        <ele>157.8000030517578125</ele>
        <time>2023-08-19T17:20:59.000Z</time>
        <extensions>
          <ns3:TrackPointExtension>
            <ns3:hr>156</ns3:hr>
            <ns3:cad>82</ns3:cad>
          </ns3:TrackPointExtension>
        </extensions>
      </trkpt>
      <trkpt lat="42.605902813374996185302734375" lon="2.74656686000525951385498046875">
        <ele>157.8000030517578125</ele>
        <time>2023-08-19T17:21:00.000Z</time>
        <extensions>
          <ns3:TrackPointExtension>
            <ns3:hr>156</ns3:hr>
            <ns3:cad>82</ns3:cad>
          </ns3:TrackPointExtension>
        </extensions>
      </trkpt>
      <trkpt lat="42.60591052472591400146484375" lon="2.74652997963130474090576171875">
        <ele>157.600006103515625</ele>
        <time>2023-08-19T17:21:01.000Z</time>
        <extensions>
          <ns3:TrackPointExtension>
            <ns3:hr>156</ns3:hr>
            <ns3:cad>82</ns3:cad>
          </ns3:TrackPointExtension>
        </extensions>
      </trkpt>
      <trkpt lat="42.6059210859239101409912109375" lon="2.7464967034757137298583984375">
        <ele>157.600006103515625</ele>
        <time>2023-08-19T17:21:02.000Z</time>
        <extensions>
          <ns3:TrackPointExtension>
            <ns3:hr>156</ns3:hr>
            <ns3:cad>83</ns3:cad>
          </ns3:TrackPointExtension>
        </extensions>
      </trkpt>
      <trkpt lat="42.60592854581773281097412109375" lon="2.746463678777217864990234375">
        <ele>157.600006103515625</ele>
        <time>2023-08-19T17:21:03.000Z</time>
        <extensions>
          <ns3:TrackPointExtension>
            <ns3:hr>156</ns3:hr>
            <ns3:cad>83</ns3:cad>
          </ns3:TrackPointExtension>
        </extensions>
      </trkpt>
      <trkpt lat="42.60593793354928493499755859375" lon="2.7464189194142818450927734375">
        <ele>157.600006103515625</ele>
        <time>2023-08-19T17:21:04.000Z</time>
        <extensions>
          <ns3:TrackPointExtension>
            <ns3:hr>156</ns3:hr>
            <ns3:cad>83</ns3:cad>
          </ns3:TrackPointExtension>
        </extensions>
      </trkpt>
      <trkpt lat="42.60594497434794902801513671875" lon="2.74638346396386623382568359375">
        <ele>157.8000030517578125</ele>
        <time>2023-08-19T17:21:05.000Z</time>
        <extensions>
          <ns3:TrackPointExtension>
            <ns3:hr>156</ns3:hr>
            <ns3:cad>83</ns3:cad>
          </ns3:TrackPointExtension>
        </extensions>
      </trkpt>
      <trkpt lat="42.605951093137264251708984375" lon="2.74634272791445255279541015625">
        <ele>157.600006103515625</ele>
        <time>2023-08-19T17:21:06.000Z</time>
        <extensions>
          <ns3:TrackPointExtension>
            <ns3:hr>156</ns3:hr>
            <ns3:cad>83</ns3:cad>
          </ns3:TrackPointExtension>
        </extensions>
      </trkpt>
      <trkpt lat="42.605959475040435791015625" lon="2.7463032491505146026611328125">
        <ele>157.8000030517578125</ele>
        <time>2023-08-19T17:21:07.000Z</time>
        <extensions>
          <ns3:TrackPointExtension>
            <ns3:hr>156</ns3:hr>
            <ns3:cad>83</ns3:cad>
          </ns3:TrackPointExtension>
        </extensions>
      </trkpt>
      <trkpt lat="42.6059661805629730224609375" lon="2.74627114646136760711669921875">
        <ele>157.8000030517578125</ele>
        <time>2023-08-19T17:21:08.000Z</time>
        <extensions>
          <ns3:TrackPointExtension>
            <ns3:hr>156</ns3:hr>
            <ns3:cad>82</ns3:cad>
          </ns3:TrackPointExtension>
        </extensions>
      </trkpt>
      <trkpt lat="42.6059769093990325927734375" lon="2.74623476900160312652587890625">
        <ele>157.8000030517578125</ele>
        <time>2023-08-19T17:21:09.000Z</time>
        <extensions>
          <ns3:TrackPointExtension>
            <ns3:hr>156</ns3:hr>
            <ns3:cad>82</ns3:cad>
          </ns3:TrackPointExtension>
        </extensions>
      </trkpt>
      <trkpt lat="42.605992667376995086669921875" lon="2.74620040319859981536865234375">
        <ele>157.8000030517578125</ele>
        <time>2023-08-19T17:21:10.000Z</time>
        <extensions>
          <ns3:TrackPointExtension>
            <ns3:hr>156</ns3:hr>
            <ns3:cad>82</ns3:cad>
          </ns3:TrackPointExtension>
        </extensions>
      </trkpt>
      <trkpt lat="42.606001384556293487548828125" lon="2.746171653270721435546875">
        <ele>158</ele>
        <time>2023-08-19T17:21:11.000Z</time>
        <extensions>
          <ns3:TrackPointExtension>
            <ns3:hr>156</ns3:hr>
            <ns3:cad>82</ns3:cad>
          </ns3:TrackPointExtension>
        </extensions>
      </trkpt>
      <trkpt lat="42.6060122810304164886474609375" lon="2.74613519199192523956298828125">
        <ele>158</ele>
        <time>2023-08-19T17:21:12.000Z</time>
        <extensions>
          <ns3:TrackPointExtension>
            <ns3:hr>156</ns3:hr>
            <ns3:cad>82</ns3:cad>
          </ns3:TrackPointExtension>
        </extensions>
      </trkpt>
      <trkpt lat="42.606022171676158905029296875" lon="2.74610459804534912109375">
        <ele>158</ele>
        <time>2023-08-19T17:21:13.000Z</time>
        <extensions>
          <ns3:TrackPointExtension>
            <ns3:hr>156</ns3:hr>
            <ns3:cad>82</ns3:cad>
          </ns3:TrackPointExtension>
        </extensions>
      </trkpt>
      <trkpt lat="42.60602963156998157501220703125" lon="2.74606897495687007904052734375">
        <ele>158</ele>
        <time>2023-08-19T17:21:14.000Z</time>
        <extensions>
          <ns3:TrackPointExtension>
            <ns3:hr>156</ns3:hr>
            <ns3:cad>82</ns3:cad>
          </ns3:TrackPointExtension>
        </extensions>
      </trkpt>
      <trkpt lat="42.60603885166347026824951171875" lon="2.746032178401947021484375">
        <ele>158</ele>
        <time>2023-08-19T17:21:15.000Z</time>
        <extensions>
          <ns3:TrackPointExtension>
            <ns3:hr>155</ns3:hr>
            <ns3:cad>83</ns3:cad>
          </ns3:TrackPointExtension>
        </extensions>
      </trkpt>
      <trkpt lat="42.606040947139263153076171875" lon="2.74600124917924404144287109375">
        <ele>158.1999969482421875</ele>
        <time>2023-08-19T17:21:16.000Z</time>
        <extensions>
          <ns3:TrackPointExtension>
            <ns3:hr>155</ns3:hr>
            <ns3:cad>83</ns3:cad>
          </ns3:TrackPointExtension>
        </extensions>
      </trkpt>
      <trkpt lat="42.60604329407215118408203125" lon="2.74596537463366985321044921875">
        <ele>158.1999969482421875</ele>
        <time>2023-08-19T17:21:17.000Z</time>
        <extensions>
          <ns3:TrackPointExtension>
            <ns3:hr>155</ns3:hr>
            <ns3:cad>83</ns3:cad>
          </ns3:TrackPointExtension>
        </extensions>
      </trkpt>
      <trkpt lat="42.60604673065245151519775390625" lon="2.74592748843133449554443359375">
        <ele>158.1999969482421875</ele>
        <time>2023-08-19T17:21:18.000Z</time>
        <extensions>
          <ns3:TrackPointExtension>
            <ns3:hr>155</ns3:hr>
            <ns3:cad>83</ns3:cad>
          </ns3:TrackPointExtension>
        </extensions>
      </trkpt>
      <trkpt lat="42.60604689829051494598388671875" lon="2.7458945475518703460693359375">
        <ele>158.399993896484375</ele>
        <time>2023-08-19T17:21:19.000Z</time>
        <extensions>
          <ns3:TrackPointExtension>
            <ns3:hr>156</ns3:hr>
            <ns3:cad>83</ns3:cad>
          </ns3:TrackPointExtension>
        </extensions>
      </trkpt>
      <trkpt lat="42.60605536401271820068359375" lon="2.74585121311247348785400390625">
        <ele>158.399993896484375</ele>
        <time>2023-08-19T17:21:20.000Z</time>
        <extensions>
          <ns3:TrackPointExtension>
            <ns3:hr>155</ns3:hr>
            <ns3:cad>83</ns3:cad>
          </ns3:TrackPointExtension>
        </extensions>
      </trkpt>
      <trkpt lat="42.60606014169752597808837890625" lon="2.74581919424235820770263671875">
        <ele>158.600006103515625</ele>
        <time>2023-08-19T17:21:21.000Z</time>
        <extensions>
          <ns3:TrackPointExtension>
            <ns3:hr>155</ns3:hr>
            <ns3:cad>83</ns3:cad>
          </ns3:TrackPointExtension>
        </extensions>
      </trkpt>
      <trkpt lat="42.6060640811920166015625" lon="2.74577979929745197296142578125">
        <ele>158.600006103515625</ele>
        <time>2023-08-19T17:21:22.000Z</time>
        <extensions>
          <ns3:TrackPointExtension>
            <ns3:hr>155</ns3:hr>
            <ns3:cad>83</ns3:cad>
          </ns3:TrackPointExtension>
        </extensions>
      </trkpt>
      <trkpt lat="42.60607137344777584075927734375" lon="2.74574023671448230743408203125">
        <ele>158.600006103515625</ele>
        <time>2023-08-19T17:21:23.000Z</time>
        <extensions>
          <ns3:TrackPointExtension>
            <ns3:hr>155</ns3:hr>
            <ns3:cad>83</ns3:cad>
          </ns3:TrackPointExtension>
        </extensions>
      </trkpt>
      <trkpt lat="42.60607522912323474884033203125" lon="2.7457094751298427581787109375">
        <ele>158.8000030517578125</ele>
        <time>2023-08-19T17:21:24.000Z</time>
        <extensions>
          <ns3:TrackPointExtension>
            <ns3:hr>156</ns3:hr>
            <ns3:cad>82</ns3:cad>
          </ns3:TrackPointExtension>
        </extensions>
      </trkpt>
      <trkpt lat="42.606081180274486541748046875" lon="2.74567016400396823883056640625">
        <ele>158.8000030517578125</ele>
        <time>2023-08-19T17:21:25.000Z</time>
        <extensions>
          <ns3:TrackPointExtension>
            <ns3:hr>156</ns3:hr>
            <ns3:cad>82</ns3:cad>
          </ns3:TrackPointExtension>
        </extensions>
      </trkpt>
      <trkpt lat="42.6060895621776580810546875" lon="2.74563428945839405059814453125">
        <ele>158.8000030517578125</ele>
        <time>2023-08-19T17:21:26.000Z</time>
        <extensions>
          <ns3:TrackPointExtension>
            <ns3:hr>156</ns3:hr>
            <ns3:cad>82</ns3:cad>
          </ns3:TrackPointExtension>
        </extensions>
      </trkpt>
      <trkpt lat="42.60609283111989498138427734375" lon="2.74560126475989818572998046875">
        <ele>159</ele>
        <time>2023-08-19T17:21:27.000Z</time>
        <extensions>
          <ns3:TrackPointExtension>
            <ns3:hr>156</ns3:hr>
            <ns3:cad>83</ns3:cad>
          </ns3:TrackPointExtension>
        </extensions>
      </trkpt>
      <trkpt lat="42.606099955737590789794921875" lon="2.74556689895689487457275390625">
        <ele>159</ele>
        <time>2023-08-19T17:21:28.000Z</time>
        <extensions>
          <ns3:TrackPointExtension>
            <ns3:hr>156</ns3:hr>
            <ns3:cad>82</ns3:cad>
          </ns3:TrackPointExtension>
        </extensions>
      </trkpt>
      <trkpt lat="42.60610858909785747528076171875" lon="2.7455391548573970794677734375">
        <ele>159.1999969482421875</ele>
        <time>2023-08-19T17:21:29.000Z</time>
        <extensions>
          <ns3:TrackPointExtension>
            <ns3:hr>156</ns3:hr>
            <ns3:cad>82</ns3:cad>
          </ns3:TrackPointExtension>
        </extensions>
      </trkpt>
      <trkpt lat="42.6061142049729824066162109375" lon="2.74550336413085460662841796875">
        <ele>159.1999969482421875</ele>
        <time>2023-08-19T17:21:30.000Z</time>
        <extensions>
          <ns3:TrackPointExtension>
            <ns3:hr>156</ns3:hr>
            <ns3:cad>83</ns3:cad>
          </ns3:TrackPointExtension>
        </extensions>
      </trkpt>
      <trkpt lat="42.60611780919134616851806640625" lon="2.7454687468707561492919921875">
        <ele>159.1999969482421875</ele>
        <time>2023-08-19T17:21:31.000Z</time>
        <extensions>
          <ns3:TrackPointExtension>
            <ns3:hr>156</ns3:hr>
            <ns3:cad>83</ns3:cad>
          </ns3:TrackPointExtension>
        </extensions>
      </trkpt>
      <trkpt lat="42.60611915029585361480712890625" lon="2.7454355545341968536376953125">
        <ele>159.1999969482421875</ele>
        <time>2023-08-19T17:21:32.000Z</time>
        <extensions>
          <ns3:TrackPointExtension>
            <ns3:hr>156</ns3:hr>
            <ns3:cad>83</ns3:cad>
          </ns3:TrackPointExtension>
        </extensions>
      </trkpt>
      <trkpt lat="42.60612283833324909210205078125" lon="2.745392136275768280029296875">
        <ele>159.1999969482421875</ele>
        <time>2023-08-19T17:21:33.000Z</time>
        <extensions>
          <ns3:TrackPointExtension>
            <ns3:hr>157</ns3:hr>
            <ns3:cad>83</ns3:cad>
          </ns3:TrackPointExtension>
        </extensions>
      </trkpt>
      <trkpt lat="42.60612736456096172332763671875" lon="2.7453547529876232147216796875">
        <ele>159.399993896484375</ele>
        <time>2023-08-19T17:21:34.000Z</time>
        <extensions>
          <ns3:TrackPointExtension>
            <ns3:hr>157</ns3:hr>
            <ns3:cad>82</ns3:cad>
          </ns3:TrackPointExtension>
        </extensions>
      </trkpt>
      <trkpt lat="42.60612904094159603118896484375" lon="2.74532332085072994232177734375">
        <ele>159.399993896484375</ele>
        <time>2023-08-19T17:21:35.000Z</time>
        <extensions>
          <ns3:TrackPointExtension>
            <ns3:hr>157</ns3:hr>
            <ns3:cad>82</ns3:cad>
          </ns3:TrackPointExtension>
        </extensions>
      </trkpt>
      <trkpt lat="42.6061343215405941009521484375" lon="2.74529029615223407745361328125">
        <ele>159.600006103515625</ele>
        <time>2023-08-19T17:21:36.000Z</time>
        <extensions>
          <ns3:TrackPointExtension>
            <ns3:hr>157</ns3:hr>
            <ns3:cad>82</ns3:cad>
          </ns3:TrackPointExtension>
        </extensions>
      </trkpt>
      <trkpt lat="42.60614010505378246307373046875" lon="2.7452602051198482513427734375">
        <ele>159.8000030517578125</ele>
        <time>2023-08-19T17:21:37.000Z</time>
        <extensions>
          <ns3:TrackPointExtension>
            <ns3:hr>157</ns3:hr>
            <ns3:cad>82</ns3:cad>
          </ns3:TrackPointExtension>
        </extensions>
      </trkpt>
      <trkpt lat="42.60614111088216304779052734375" lon="2.74522558785974979400634765625">
        <ele>159.8000030517578125</ele>
        <time>2023-08-19T17:21:38.000Z</time>
        <extensions>
          <ns3:TrackPointExtension>
            <ns3:hr>157</ns3:hr>
            <ns3:cad>82</ns3:cad>
          </ns3:TrackPointExtension>
        </extensions>
      </trkpt>
      <trkpt lat="42.60614580474793910980224609375" lon="2.74518183432519435882568359375">
        <ele>159.8000030517578125</ele>
        <time>2023-08-19T17:21:39.000Z</time>
        <extensions>
          <ns3:TrackPointExtension>
            <ns3:hr>157</ns3:hr>
            <ns3:cad>82</ns3:cad>
          </ns3:TrackPointExtension>
        </extensions>
      </trkpt>
      <trkpt lat="42.6061480678617954254150390625" lon="2.74514310993254184722900390625">
        <ele>159.8000030517578125</ele>
        <time>2023-08-19T17:21:40.000Z</time>
        <extensions>
          <ns3:TrackPointExtension>
            <ns3:hr>157</ns3:hr>
            <ns3:cad>82</ns3:cad>
          </ns3:TrackPointExtension>
        </extensions>
      </trkpt>
      <trkpt lat="42.6061494089663028717041015625" lon="2.7451029606163501739501953125">
        <ele>159.8000030517578125</ele>
        <time>2023-08-19T17:21:41.000Z</time>
        <extensions>
          <ns3:TrackPointExtension>
            <ns3:hr>158</ns3:hr>
            <ns3:cad>82</ns3:cad>
          </ns3:TrackPointExtension>
        </extensions>
      </trkpt>
      <trkpt lat="42.60614261962473392486572265625" lon="2.7450654096901416778564453125">
        <ele>159.8000030517578125</ele>
        <time>2023-08-19T17:21:42.000Z</time>
        <extensions>
          <ns3:TrackPointExtension>
            <ns3:hr>158</ns3:hr>
            <ns3:cad>82</ns3:cad>
          </ns3:TrackPointExtension>
        </extensions>
      </trkpt>
      <trkpt lat="42.6061326451599597930908203125" lon="2.74503313936293125152587890625">
        <ele>159.8000030517578125</ele>
        <time>2023-08-19T17:21:43.000Z</time>
        <extensions>
          <ns3:TrackPointExtension>
            <ns3:hr>158</ns3:hr>
            <ns3:cad>82</ns3:cad>
          </ns3:TrackPointExtension>
        </extensions>
      </trkpt>
      <trkpt lat="42.60612149722874164581298828125" lon="2.74498888291418552398681640625">
        <ele>160</ele>
        <time>2023-08-19T17:21:44.000Z</time>
        <extensions>
          <ns3:TrackPointExtension>
            <ns3:hr>158</ns3:hr>
            <ns3:cad>83</ns3:cad>
          </ns3:TrackPointExtension>
        </extensions>
      </trkpt>
      <trkpt lat="42.60611227713525295257568359375" lon="2.74495937861502170562744140625">
        <ele>160</ele>
        <time>2023-08-19T17:21:45.000Z</time>
        <extensions>
          <ns3:TrackPointExtension>
            <ns3:hr>158</ns3:hr>
            <ns3:cad>83</ns3:cad>
          </ns3:TrackPointExtension>
        </extensions>
      </trkpt>
      <trkpt lat="42.60610238648951053619384765625" lon="2.744928114116191864013671875">
        <ele>160</ele>
        <time>2023-08-19T17:21:46.000Z</time>
        <extensions>
          <ns3:TrackPointExtension>
            <ns3:hr>158</ns3:hr>
            <ns3:cad>83</ns3:cad>
          </ns3:TrackPointExtension>
        </extensions>
      </trkpt>
      <trkpt lat="42.60609316639602184295654296875" lon="2.7448887191712856292724609375">
        <ele>160.1999969482421875</ele>
        <time>2023-08-19T17:21:47.000Z</time>
        <extensions>
          <ns3:TrackPointExtension>
            <ns3:hr>158</ns3:hr>
            <ns3:cad>83</ns3:cad>
          </ns3:TrackPointExtension>
        </extensions>
      </trkpt>
      <trkpt lat="42.60608159936964511871337890625" lon="2.74485376663506031036376953125">
        <ele>160.1999969482421875</ele>
        <time>2023-08-19T17:21:48.000Z</time>
        <extensions>
          <ns3:TrackPointExtension>
            <ns3:hr>158</ns3:hr>
            <ns3:cad>83</ns3:cad>
          </ns3:TrackPointExtension>
        </extensions>
      </trkpt>
      <trkpt lat="42.606072463095188140869140625" lon="2.74481319822371006011962890625">
        <ele>160.1999969482421875</ele>
        <time>2023-08-19T17:21:49.000Z</time>
        <extensions>
          <ns3:TrackPointExtension>
            <ns3:hr>158</ns3:hr>
            <ns3:cad>83</ns3:cad>
          </ns3:TrackPointExtension>
        </extensions>
      </trkpt>
      <trkpt lat="42.60607606731355190277099609375" lon="2.74477430619299411773681640625">
        <ele>160.399993896484375</ele>
        <time>2023-08-19T17:21:50.000Z</time>
        <extensions>
          <ns3:TrackPointExtension>
            <ns3:hr>158</ns3:hr>
            <ns3:cad>83</ns3:cad>
          </ns3:TrackPointExtension>
        </extensions>
      </trkpt>
      <trkpt lat="42.606072463095188140869140625" lon="2.74473943747580051422119140625">
        <ele>160.600006103515625</ele>
        <time>2023-08-19T17:21:51.000Z</time>
        <extensions>
          <ns3:TrackPointExtension>
            <ns3:hr>158</ns3:hr>
            <ns3:cad>82</ns3:cad>
          </ns3:TrackPointExtension>
        </extensions>
      </trkpt>
      <trkpt lat="42.60607673786580562591552734375" lon="2.7447009645402431488037109375">
        <ele>160.600006103515625</ele>
        <time>2023-08-19T17:21:52.000Z</time>
        <extensions>
          <ns3:TrackPointExtension>
            <ns3:hr>158</ns3:hr>
            <ns3:cad>82</ns3:cad>
          </ns3:TrackPointExtension>
        </extensions>
      </trkpt>
      <trkpt lat="42.60608620941638946533203125" lon="2.74467137642204761505126953125">
        <ele>160.600006103515625</ele>
        <time>2023-08-19T17:21:53.000Z</time>
        <extensions>
          <ns3:TrackPointExtension>
            <ns3:hr>158</ns3:hr>
            <ns3:cad>82</ns3:cad>
          </ns3:TrackPointExtension>
        </extensions>
      </trkpt>
      <trkpt lat="42.60609484277665615081787109375" lon="2.74464086629450321197509765625">
        <ele>160.8000030517578125</ele>
        <time>2023-08-19T17:21:54.000Z</time>
        <extensions>
          <ns3:TrackPointExtension>
            <ns3:hr>158</ns3:hr>
            <ns3:cad>82</ns3:cad>
          </ns3:TrackPointExtension>
        </extensions>
      </trkpt>
      <trkpt lat="42.60611076839268207550048828125" lon="2.7446094341576099395751953125">
        <ele>160.8000030517578125</ele>
        <time>2023-08-19T17:21:55.000Z</time>
        <extensions>
          <ns3:TrackPointExtension>
            <ns3:hr>158</ns3:hr>
            <ns3:cad>82</ns3:cad>
          </ns3:TrackPointExtension>
        </extensions>
      </trkpt>
      <trkpt lat="42.60613071732223033905029296875" lon="2.7445876412093639373779296875">
        <ele>160.8000030517578125</ele>
        <time>2023-08-19T17:21:56.000Z</time>
        <extensions>
          <ns3:TrackPointExtension>
            <ns3:hr>157</ns3:hr>
            <ns3:cad>82</ns3:cad>
          </ns3:TrackPointExtension>
        </extensions>
      </trkpt>
      <trkpt lat="42.60615200735628604888916015625" lon="2.74456174112856388092041015625">
        <ele>160.8000030517578125</ele>
        <time>2023-08-19T17:21:57.000Z</time>
        <extensions>
          <ns3:TrackPointExtension>
            <ns3:hr>157</ns3:hr>
            <ns3:cad>82</ns3:cad>
          </ns3:TrackPointExtension>
        </extensions>
      </trkpt>
      <trkpt lat="42.60617463849484920501708984375" lon="2.7445453964173793792724609375">
        <ele>161</ele>
        <time>2023-08-19T17:21:58.000Z</time>
        <extensions>
          <ns3:TrackPointExtension>
            <ns3:hr>158</ns3:hr>
            <ns3:cad>82</ns3:cad>
          </ns3:TrackPointExtension>
        </extensions>
      </trkpt>
      <trkpt lat="42.606193162500858306884765625" lon="2.74452838115394115447998046875">
        <ele>161.1999969482421875</ele>
        <time>2023-08-19T17:21:59.000Z</time>
        <extensions>
          <ns3:TrackPointExtension>
            <ns3:hr>158</ns3:hr>
            <ns3:cad>82</ns3:cad>
          </ns3:TrackPointExtension>
        </extensions>
      </trkpt>
      <trkpt lat="42.60620959103107452392578125" lon="2.7445054985582828521728515625">
        <ele>161.399993896484375</ele>
        <time>2023-08-19T17:22:00.000Z</time>
        <extensions>
          <ns3:TrackPointExtension>
            <ns3:hr>158</ns3:hr>
            <ns3:cad>82</ns3:cad>
          </ns3:TrackPointExtension>
        </extensions>
      </trkpt>
      <trkpt lat="42.606227695941925048828125" lon="2.7444826997816562652587890625">
        <ele>161.600006103515625</ele>
        <time>2023-08-19T17:22:01.000Z</time>
        <extensions>
          <ns3:TrackPointExtension>
            <ns3:hr>158</ns3:hr>
            <ns3:cad>82</ns3:cad>
          </ns3:TrackPointExtension>
        </extensions>
      </trkpt>
      <trkpt lat="42.606242783367633819580078125" lon="2.744460403919219970703125">
        <ele>161.8000030517578125</ele>
        <time>2023-08-19T17:22:02.000Z</time>
        <extensions>
          <ns3:TrackPointExtension>
            <ns3:hr>158</ns3:hr>
            <ns3:cad>82</ns3:cad>
          </ns3:TrackPointExtension>
        </extensions>
      </trkpt>
      <trkpt lat="42.60625728406012058258056640625" lon="2.7444322407245635986328125">
        <ele>162.1999969482421875</ele>
        <time>2023-08-19T17:22:03.000Z</time>
        <extensions>
          <ns3:TrackPointExtension>
            <ns3:hr>158</ns3:hr>
            <ns3:cad>82</ns3:cad>
          </ns3:TrackPointExtension>
        </extensions>
      </trkpt>
      <trkpt lat="42.606268264353275299072265625" lon="2.7444059215486049652099609375">
        <ele>162.399993896484375</ele>
        <time>2023-08-19T17:22:04.000Z</time>
        <extensions>
          <ns3:TrackPointExtension>
            <ns3:hr>158</ns3:hr>
            <ns3:cad>82</ns3:cad>
          </ns3:TrackPointExtension>
        </extensions>
      </trkpt>
      <trkpt lat="42.6062751375138759613037109375" lon="2.744378261268138885498046875">
        <ele>162.600006103515625</ele>
        <time>2023-08-19T17:22:05.000Z</time>
        <extensions>
          <ns3:TrackPointExtension>
            <ns3:hr>158</ns3:hr>
            <ns3:cad>82</ns3:cad>
          </ns3:TrackPointExtension>
        </extensions>
      </trkpt>
      <trkpt lat="42.6062815077602863311767578125" lon="2.7443464100360870361328125">
        <ele>162.600006103515625</ele>
        <time>2023-08-19T17:22:06.000Z</time>
        <extensions>
          <ns3:TrackPointExtension>
            <ns3:hr>158</ns3:hr>
            <ns3:cad>82</ns3:cad>
          </ns3:TrackPointExtension>
        </extensions>
      </trkpt>
      <trkpt lat="42.60628896765410900115966796875" lon="2.744317241013050079345703125">
        <ele>162.8000030517578125</ele>
        <time>2023-08-19T17:22:07.000Z</time>
        <extensions>
          <ns3:TrackPointExtension>
            <ns3:hr>158</ns3:hr>
            <ns3:cad>82</ns3:cad>
          </ns3:TrackPointExtension>
        </extensions>
      </trkpt>
      <trkpt lat="42.6062962599098682403564453125" lon="2.7442879043519496917724609375">
        <ele>163.1999969482421875</ele>
        <time>2023-08-19T17:22:08.000Z</time>
        <extensions>
          <ns3:TrackPointExtension>
            <ns3:hr>158</ns3:hr>
            <ns3:cad>82</ns3:cad>
          </ns3:TrackPointExtension>
        </extensions>
      </trkpt>
      <trkpt lat="42.60630757547914981842041015625" lon="2.74425630457699298858642578125">
        <ele>163.399993896484375</ele>
        <time>2023-08-19T17:22:09.000Z</time>
        <extensions>
          <ns3:TrackPointExtension>
            <ns3:hr>158</ns3:hr>
            <ns3:cad>81</ns3:cad>
          </ns3:TrackPointExtension>
        </extensions>
      </trkpt>
      <trkpt lat="42.6063183881342411041259765625" lon="2.74423350580036640167236328125">
        <ele>163.600006103515625</ele>
        <time>2023-08-19T17:22:10.000Z</time>
        <extensions>
          <ns3:TrackPointExtension>
            <ns3:hr>158</ns3:hr>
            <ns3:cad>81</ns3:cad>
          </ns3:TrackPointExtension>
        </extensions>
      </trkpt>
      <trkpt lat="42.60632953606545925140380859375" lon="2.7442091144621372222900390625">
        <ele>163.8000030517578125</ele>
        <time>2023-08-19T17:22:11.000Z</time>
        <extensions>
          <ns3:TrackPointExtension>
            <ns3:hr>158</ns3:hr>
            <ns3:cad>81</ns3:cad>
          </ns3:TrackPointExtension>
        </extensions>
      </trkpt>
      <trkpt lat="42.60634194128215312957763671875" lon="2.74418413639068603515625">
        <ele>164</ele>
        <time>2023-08-19T17:22:12.000Z</time>
        <extensions>
          <ns3:TrackPointExtension>
            <ns3:hr>159</ns3:hr>
            <ns3:cad>80</ns3:cad>
          </ns3:TrackPointExtension>
        </extensions>
      </trkpt>
      <trkpt lat="42.6063549332320690155029296875" lon="2.74416192434728145599365234375">
        <ele>164</ele>
        <time>2023-08-19T17:22:13.000Z</time>
        <extensions>
          <ns3:TrackPointExtension>
            <ns3:hr>158</ns3:hr>
            <ns3:cad>80</ns3:cad>
          </ns3:TrackPointExtension>
        </extensions>
      </trkpt>
      <trkpt lat="42.6063683442771434783935546875" lon="2.74413946084678173065185546875">
        <ele>164.1999969482421875</ele>
        <time>2023-08-19T17:22:14.000Z</time>
        <extensions>
          <ns3:TrackPointExtension>
            <ns3:hr>159</ns3:hr>
            <ns3:cad>80</ns3:cad>
          </ns3:TrackPointExtension>
        </extensions>
      </trkpt>
      <trkpt lat="42.6063871197402477264404296875" lon="2.7441202662885189056396484375">
        <ele>164.399993896484375</ele>
        <time>2023-08-19T17:22:15.000Z</time>
        <extensions>
          <ns3:TrackPointExtension>
            <ns3:hr>159</ns3:hr>
            <ns3:cad>81</ns3:cad>
          </ns3:TrackPointExtension>
        </extensions>
      </trkpt>
      <trkpt lat="42.606404386460781097412109375" lon="2.744099982082843780517578125">
        <ele>164.600006103515625</ele>
        <time>2023-08-19T17:22:16.000Z</time>
        <extensions>
          <ns3:TrackPointExtension>
            <ns3:hr>158</ns3:hr>
            <ns3:cad>81</ns3:cad>
          </ns3:TrackPointExtension>
        </extensions>
      </trkpt>
      <trkpt lat="42.606416456401348114013671875" lon="2.744077183306217193603515625">
        <ele>165.1999969482421875</ele>
        <time>2023-08-19T17:22:17.000Z</time>
        <extensions>
          <ns3:TrackPointExtension>
            <ns3:hr>159</ns3:hr>
            <ns3:cad>80</ns3:cad>
          </ns3:TrackPointExtension>
        </extensions>
      </trkpt>
      <trkpt lat="42.6064286939799785614013671875" lon="2.7440518699586391448974609375">
        <ele>165.399993896484375</ele>
        <time>2023-08-19T17:22:18.000Z</time>
        <extensions>
          <ns3:TrackPointExtension>
            <ns3:hr>159</ns3:hr>
            <ns3:cad>80</ns3:cad>
          </ns3:TrackPointExtension>
        </extensions>
      </trkpt>
      <trkpt lat="42.606438584625720977783203125" lon="2.74402647279202938079833984375">
        <ele>165.600006103515625</ele>
        <time>2023-08-19T17:22:19.000Z</time>
        <extensions>
          <ns3:TrackPointExtension>
            <ns3:hr>159</ns3:hr>
            <ns3:cad>80</ns3:cad>
          </ns3:TrackPointExtension>
        </extensions>
      </trkpt>
      <trkpt lat="42.60645023547112941741943359375" lon="2.743993364274501800537109375">
        <ele>165.8000030517578125</ele>
        <time>2023-08-19T17:22:20.000Z</time>
        <extensions>
          <ns3:TrackPointExtension>
            <ns3:hr>159</ns3:hr>
            <ns3:cad>80</ns3:cad>
          </ns3:TrackPointExtension>
        </extensions>
      </trkpt>
      <trkpt lat="42.60646297596395015716552734375" lon="2.74396511726081371307373046875">
        <ele>166</ele>
        <time>2023-08-19T17:22:21.000Z</time>
        <extensions>
          <ns3:TrackPointExtension>
            <ns3:hr>159</ns3:hr>
            <ns3:cad>80</ns3:cad>
          </ns3:TrackPointExtension>
        </extensions>
      </trkpt>
      <trkpt lat="42.6064732857048511505126953125" lon="2.7439418993890285491943359375">
        <ele>166.399993896484375</ele>
        <time>2023-08-19T17:22:22.000Z</time>
        <extensions>
          <ns3:TrackPointExtension>
            <ns3:hr>159</ns3:hr>
            <ns3:cad>81</ns3:cad>
          </ns3:TrackPointExtension>
        </extensions>
      </trkpt>
      <trkpt lat="42.606485523283481597900390625" lon="2.7439117245376110076904296875">
        <ele>166.8000030517578125</ele>
        <time>2023-08-19T17:22:23.000Z</time>
        <extensions>
          <ns3:TrackPointExtension>
            <ns3:hr>159</ns3:hr>
            <ns3:cad>81</ns3:cad>
          </ns3:TrackPointExtension>
        </extensions>
      </trkpt>
      <trkpt lat="42.60648929513990879058837890625" lon="2.7438758499920368194580078125">
        <ele>167</ele>
        <time>2023-08-19T17:22:24.000Z</time>
        <extensions>
          <ns3:TrackPointExtension>
            <ns3:hr>159</ns3:hr>
            <ns3:cad>81</ns3:cad>
          </ns3:TrackPointExtension>
        </extensions>
      </trkpt>
      <trkpt lat="42.6064927317202091217041015625" lon="2.7438490279018878936767578125">
        <ele>167.1999969482421875</ele>
        <time>2023-08-19T17:22:25.000Z</time>
        <extensions>
          <ns3:TrackPointExtension>
            <ns3:hr>159</ns3:hr>
            <ns3:cad>81</ns3:cad>
          </ns3:TrackPointExtension>
        </extensions>
      </trkpt>
      <trkpt lat="42.60649566538631916046142578125" lon="2.74381726048886775970458984375">
        <ele>167.399993896484375</ele>
        <time>2023-08-19T17:22:26.000Z</time>
        <extensions>
          <ns3:TrackPointExtension>
            <ns3:hr>159</ns3:hr>
            <ns3:cad>81</ns3:cad>
          </ns3:TrackPointExtension>
        </extensions>
      </trkpt>
      <trkpt lat="42.60649600066244602203369140625" lon="2.7437886781990528106689453125">
        <ele>167.399993896484375</ele>
        <time>2023-08-19T17:22:27.000Z</time>
        <extensions>
          <ns3:TrackPointExtension>
            <ns3:hr>159</ns3:hr>
            <ns3:cad>81</ns3:cad>
          </ns3:TrackPointExtension>
        </extensions>
      </trkpt>
      <trkpt lat="42.6064950786530971527099609375" lon="2.7437655441462993621826171875">
        <ele>167.600006103515625</ele>
        <time>2023-08-19T17:22:28.000Z</time>
        <extensions>
          <ns3:TrackPointExtension>
            <ns3:hr>159</ns3:hr>
            <ns3:cad>81</ns3:cad>
          </ns3:TrackPointExtension>
        </extensions>
      </trkpt>
      <trkpt lat="42.60649600066244602203369140625" lon="2.74373352527618408203125">
        <ele>167.600006103515625</ele>
        <time>2023-08-19T17:22:29.000Z</time>
        <extensions>
          <ns3:TrackPointExtension>
            <ns3:hr>159</ns3:hr>
            <ns3:cad>81</ns3:cad>
          </ns3:TrackPointExtension>
        </extensions>
      </trkpt>
      <trkpt lat="42.60650019161403179168701171875" lon="2.74370946921408176422119140625">
        <ele>167.600006103515625</ele>
        <time>2023-08-19T17:22:30.000Z</time>
        <extensions>
          <ns3:TrackPointExtension>
            <ns3:hr>159</ns3:hr>
            <ns3:cad>80</ns3:cad>
          </ns3:TrackPointExtension>
        </extensions>
      </trkpt>
      <trkpt lat="42.606500945985317230224609375" lon="2.7436904422938823699951171875">
        <ele>167.8000030517578125</ele>
        <time>2023-08-19T17:22:31.000Z</time>
        <extensions>
          <ns3:TrackPointExtension>
            <ns3:hr>159</ns3:hr>
            <ns3:cad>80</ns3:cad>
          </ns3:TrackPointExtension>
        </extensions>
      </trkpt>
      <trkpt lat="42.60650320909917354583740234375" lon="2.7436599321663379669189453125">
        <ele>168</ele>
        <time>2023-08-19T17:22:32.000Z</time>
        <extensions>
          <ns3:TrackPointExtension>
            <ns3:hr>159</ns3:hr>
            <ns3:cad>80</ns3:cad>
          </ns3:TrackPointExtension>
        </extensions>
      </trkpt>
      <trkpt lat="42.60650589130818843841552734375" lon="2.7436302602291107177734375">
        <ele>168.1999969482421875</ele>
        <time>2023-08-19T17:22:33.000Z</time>
        <extensions>
          <ns3:TrackPointExtension>
            <ns3:hr>159</ns3:hr>
            <ns3:cad>80</ns3:cad>
          </ns3:TrackPointExtension>
        </extensions>
      </trkpt>
      <trkpt lat="42.6065053045749664306640625" lon="2.7436034381389617919921875">
        <ele>168.1999969482421875</ele>
        <time>2023-08-19T17:22:34.000Z</time>
        <extensions>
          <ns3:TrackPointExtension>
            <ns3:hr>159</ns3:hr>
            <ns3:cad>80</ns3:cad>
          </ns3:TrackPointExtension>
        </extensions>
      </trkpt>
      <trkpt lat="42.60650672949850559234619140625" lon="2.7435643784701824188232421875">
        <ele>168.399993896484375</ele>
        <time>2023-08-19T17:22:35.000Z</time>
        <extensions>
          <ns3:TrackPointExtension>
            <ns3:hr>159</ns3:hr>
            <ns3:cad>80</ns3:cad>
          </ns3:TrackPointExtension>
        </extensions>
      </trkpt>
      <trkpt lat="42.606508322060108184814453125" lon="2.74353596381843090057373046875">
        <ele>168.600006103515625</ele>
        <time>2023-08-19T17:22:36.000Z</time>
        <extensions>
          <ns3:TrackPointExtension>
            <ns3:hr>159</ns3:hr>
            <ns3:cad>80</ns3:cad>
          </ns3:TrackPointExtension>
        </extensions>
      </trkpt>
      <trkpt lat="42.6065053045749664306640625" lon="2.74350696243345737457275390625">
        <ele>168.8000030517578125</ele>
        <time>2023-08-19T17:22:37.000Z</time>
        <extensions>
          <ns3:TrackPointExtension>
            <ns3:hr>159</ns3:hr>
            <ns3:cad>80</ns3:cad>
          </ns3:TrackPointExtension>
        </extensions>
      </trkpt>
      <trkpt lat="42.6065064780414104461669921875" lon="2.7434755302965641021728515625">
        <ele>169</ele>
        <time>2023-08-19T17:22:38.000Z</time>
        <extensions>
          <ns3:TrackPointExtension>
            <ns3:hr>159</ns3:hr>
            <ns3:cad>80</ns3:cad>
          </ns3:TrackPointExtension>
        </extensions>
      </trkpt>
      <trkpt lat="42.60650865733623504638671875" lon="2.74344384670257568359375">
        <ele>169.1999969482421875</ele>
        <time>2023-08-19T17:22:39.000Z</time>
        <extensions>
          <ns3:TrackPointExtension>
            <ns3:hr>159</ns3:hr>
            <ns3:cad>80</ns3:cad>
          </ns3:TrackPointExtension>
        </extensions>
      </trkpt>
      <trkpt lat="42.6065044663846492767333984375" lon="2.74341040290892124176025390625">
        <ele>169.399993896484375</ele>
        <time>2023-08-19T17:22:40.000Z</time>
        <extensions>
          <ns3:TrackPointExtension>
            <ns3:hr>159</ns3:hr>
            <ns3:cad>80</ns3:cad>
          </ns3:TrackPointExtension>
        </extensions>
      </trkpt>
      <trkpt lat="42.60650119744241237640380859375" lon="2.7433736063539981842041015625">
        <ele>169.600006103515625</ele>
        <time>2023-08-19T17:22:41.000Z</time>
        <extensions>
          <ns3:TrackPointExtension>
            <ns3:hr>159</ns3:hr>
            <ns3:cad>80</ns3:cad>
          </ns3:TrackPointExtension>
        </extensions>
      </trkpt>
      <trkpt lat="42.60649449191987514495849609375" lon="2.74333999492228031158447265625">
        <ele>169.600006103515625</ele>
        <time>2023-08-19T17:22:42.000Z</time>
        <extensions>
          <ns3:TrackPointExtension>
            <ns3:hr>159</ns3:hr>
            <ns3:cad>80</ns3:cad>
          </ns3:TrackPointExtension>
        </extensions>
      </trkpt>
      <trkpt lat="42.60648543946444988250732421875" lon="2.74331166408956050872802734375">
        <ele>169.8000030517578125</ele>
        <time>2023-08-19T17:22:43.000Z</time>
        <extensions>
          <ns3:TrackPointExtension>
            <ns3:hr>159</ns3:hr>
            <ns3:cad>80</ns3:cad>
          </ns3:TrackPointExtension>
        </extensions>
      </trkpt>
      <trkpt lat="42.60647303424775600433349609375" lon="2.74327612482011318206787109375">
        <ele>169.8000030517578125</ele>
        <time>2023-08-19T17:22:44.000Z</time>
        <extensions>
          <ns3:TrackPointExtension>
            <ns3:hr>160</ns3:hr>
            <ns3:cad>81</ns3:cad>
          </ns3:TrackPointExtension>
        </extensions>
      </trkpt>
      <trkpt lat="42.6064649038016796112060546875" lon="2.7432440221309661865234375">
        <ele>170</ele>
        <time>2023-08-19T17:22:45.000Z</time>
        <extensions>
          <ns3:TrackPointExtension>
            <ns3:hr>160</ns3:hr>
            <ns3:cad>81</ns3:cad>
          </ns3:TrackPointExtension>
        </extensions>
      </trkpt>
      <trkpt lat="42.60645844973623752593994140625" lon="2.74321384727954864501953125">
        <ele>170</ele>
        <time>2023-08-19T17:22:46.000Z</time>
        <extensions>
          <ns3:TrackPointExtension>
            <ns3:hr>160</ns3:hr>
            <ns3:cad>81</ns3:cad>
          </ns3:TrackPointExtension>
        </extensions>
      </trkpt>
      <trkpt lat="42.6064524985849857330322265625" lon="2.7431831695139408111572265625">
        <ele>170</ele>
        <time>2023-08-19T17:22:47.000Z</time>
        <extensions>
          <ns3:TrackPointExtension>
            <ns3:hr>160</ns3:hr>
            <ns3:cad>81</ns3:cad>
          </ns3:TrackPointExtension>
        </extensions>
      </trkpt>
      <trkpt lat="42.606445290148258209228515625" lon="2.74315374903380870819091796875">
        <ele>170.1999969482421875</ele>
        <time>2023-08-19T17:22:48.000Z</time>
        <extensions>
          <ns3:TrackPointExtension>
            <ns3:hr>160</ns3:hr>
            <ns3:cad>81</ns3:cad>
          </ns3:TrackPointExtension>
        </extensions>
      </trkpt>
      <trkpt lat="42.60644118301570415496826171875" lon="2.74312223307788372039794921875">
        <ele>170.399993896484375</ele>
        <time>2023-08-19T17:22:49.000Z</time>
        <extensions>
          <ns3:TrackPointExtension>
            <ns3:hr>160</ns3:hr>
            <ns3:cad>81</ns3:cad>
          </ns3:TrackPointExtension>
        </extensions>
      </trkpt>
      <trkpt lat="42.60644017718732357025146484375" lon="2.74308954365551471710205078125">
        <ele>170.399993896484375</ele>
        <time>2023-08-19T17:22:50.000Z</time>
        <extensions>
          <ns3:TrackPointExtension>
            <ns3:hr>160</ns3:hr>
            <ns3:cad>81</ns3:cad>
          </ns3:TrackPointExtension>
        </extensions>
      </trkpt>
      <trkpt lat="42.60643749497830867767333984375" lon="2.7430584467947483062744140625">
        <ele>170.600006103515625</ele>
        <time>2023-08-19T17:22:51.000Z</time>
        <extensions>
          <ns3:TrackPointExtension>
            <ns3:hr>160</ns3:hr>
            <ns3:cad>81</ns3:cad>
          </ns3:TrackPointExtension>
        </extensions>
      </trkpt>
      <trkpt lat="42.60643422603607177734375" lon="2.7430276013910770416259765625">
        <ele>170.600006103515625</ele>
        <time>2023-08-19T17:22:52.000Z</time>
        <extensions>
          <ns3:TrackPointExtension>
            <ns3:hr>160</ns3:hr>
            <ns3:cad>80</ns3:cad>
          </ns3:TrackPointExtension>
        </extensions>
      </trkpt>
      <trkpt lat="42.6064328849315643310546875" lon="2.74299524724483489990234375">
        <ele>170.600006103515625</ele>
        <time>2023-08-19T17:22:53.000Z</time>
        <extensions>
          <ns3:TrackPointExtension>
            <ns3:hr>160</ns3:hr>
            <ns3:cad>80</ns3:cad>
          </ns3:TrackPointExtension>
        </extensions>
      </trkpt>
      <trkpt lat="42.606429196894168853759765625" lon="2.74296549148857593536376953125">
        <ele>170.600006103515625</ele>
        <time>2023-08-19T17:22:54.000Z</time>
        <extensions>
          <ns3:TrackPointExtension>
            <ns3:hr>160</ns3:hr>
            <ns3:cad>80</ns3:cad>
          </ns3:TrackPointExtension>
        </extensions>
      </trkpt>
      <trkpt lat="42.606425844132900238037109375" lon="2.742933221161365509033203125">
        <ele>170.8000030517578125</ele>
        <time>2023-08-19T17:22:55.000Z</time>
        <extensions>
          <ns3:TrackPointExtension>
            <ns3:hr>160</ns3:hr>
            <ns3:cad>80</ns3:cad>
          </ns3:TrackPointExtension>
        </extensions>
      </trkpt>
      <trkpt lat="42.60642156936228275299072265625" lon="2.74290044791996479034423828125">
        <ele>170.8000030517578125</ele>
        <time>2023-08-19T17:22:56.000Z</time>
        <extensions>
          <ns3:TrackPointExtension>
            <ns3:hr>160</ns3:hr>
            <ns3:cad>80</ns3:cad>
          </ns3:TrackPointExtension>
        </extensions>
      </trkpt>
      <trkpt lat="42.60641586966812610626220703125" lon="2.74287127889692783355712890625">
        <ele>171</ele>
        <time>2023-08-19T17:22:57.000Z</time>
        <extensions>
          <ns3:TrackPointExtension>
            <ns3:hr>160</ns3:hr>
            <ns3:cad>80</ns3:cad>
          </ns3:TrackPointExtension>
        </extensions>
      </trkpt>
      <trkpt lat="42.60641075670719146728515625" lon="2.74283808656036853790283203125">
        <ele>171.1999969482421875</ele>
        <time>2023-08-19T17:22:58.000Z</time>
        <extensions>
          <ns3:TrackPointExtension>
            <ns3:hr>159</ns3:hr>
            <ns3:cad>80</ns3:cad>
          </ns3:TrackPointExtension>
        </extensions>
      </trkpt>
      <trkpt lat="42.60640581138432025909423828125" lon="2.7428041398525238037109375">
        <ele>171.1999969482421875</ele>
        <time>2023-08-19T17:22:59.000Z</time>
        <extensions>
          <ns3:TrackPointExtension>
            <ns3:hr>159</ns3:hr>
            <ns3:cad>80</ns3:cad>
          </ns3:TrackPointExtension>
        </extensions>
      </trkpt>
      <trkpt lat="42.60639960877597332000732421875" lon="2.74277555756270885467529296875">
        <ele>171.399993896484375</ele>
        <time>2023-08-19T17:23:00.000Z</time>
        <extensions>
          <ns3:TrackPointExtension>
            <ns3:hr>159</ns3:hr>
            <ns3:cad>80</ns3:cad>
          </ns3:TrackPointExtension>
        </extensions>
      </trkpt>
      <trkpt lat="42.606393992900848388671875" lon="2.74274052120745182037353515625">
        <ele>171.399993896484375</ele>
        <time>2023-08-19T17:23:01.000Z</time>
        <extensions>
          <ns3:TrackPointExtension>
            <ns3:hr>159</ns3:hr>
            <ns3:cad>80</ns3:cad>
          </ns3:TrackPointExtension>
        </extensions>
      </trkpt>
      <trkpt lat="42.60639055632054805755615234375" lon="2.74270615540444850921630859375">
        <ele>171.399993896484375</ele>
        <time>2023-08-19T17:23:02.000Z</time>
        <extensions>
          <ns3:TrackPointExtension>
            <ns3:hr>159</ns3:hr>
            <ns3:cad>80</ns3:cad>
          </ns3:TrackPointExtension>
        </extensions>
      </trkpt>
      <trkpt lat="42.6063851080834865570068359375" lon="2.7426795847713947296142578125">
        <ele>171.600006103515625</ele>
        <time>2023-08-19T17:23:03.000Z</time>
        <extensions>
          <ns3:TrackPointExtension>
            <ns3:hr>159</ns3:hr>
            <ns3:cad>80</ns3:cad>
          </ns3:TrackPointExtension>
        </extensions>
      </trkpt>
      <trkpt lat="42.60638033039867877960205078125" lon="2.7426485717296600341796875">
        <ele>171.600006103515625</ele>
        <time>2023-08-19T17:23:04.000Z</time>
        <extensions>
          <ns3:TrackPointExtension>
            <ns3:hr>159</ns3:hr>
            <ns3:cad>80</ns3:cad>
          </ns3:TrackPointExtension>
        </extensions>
      </trkpt>
      <trkpt lat="42.60637731291353702545166015625" lon="2.74261747486889362335205078125">
        <ele>171.8000030517578125</ele>
        <time>2023-08-19T17:23:05.000Z</time>
        <extensions>
          <ns3:TrackPointExtension>
            <ns3:hr>159</ns3:hr>
            <ns3:cad>80</ns3:cad>
          </ns3:TrackPointExtension>
        </extensions>
      </trkpt>
      <trkpt lat="42.6063706912100315093994140625" lon="2.74259165860712528228759765625">
        <ele>171.8000030517578125</ele>
        <time>2023-08-19T17:23:06.000Z</time>
        <extensions>
          <ns3:TrackPointExtension>
            <ns3:hr>158</ns3:hr>
            <ns3:cad>80</ns3:cad>
          </ns3:TrackPointExtension>
        </extensions>
      </trkpt>
      <trkpt lat="42.6063613034784793853759765625" lon="2.74255762808024883270263671875">
        <ele>172</ele>
        <time>2023-08-19T17:23:07.000Z</time>
        <extensions>
          <ns3:TrackPointExtension>
            <ns3:hr>158</ns3:hr>
            <ns3:cad>80</ns3:cad>
          </ns3:TrackPointExtension>
        </extensions>
      </trkpt>
      <trkpt lat="42.60635166428983211517333984375" lon="2.74252493865787982940673828125">
        <ele>172</ele>
        <time>2023-08-19T17:23:08.000Z</time>
        <extensions>
          <ns3:TrackPointExtension>
            <ns3:hr>158</ns3:hr>
            <ns3:cad>80</ns3:cad>
          </ns3:TrackPointExtension>
        </extensions>
      </trkpt>
      <trkpt lat="42.606341354548931121826171875" lon="2.7424958534538745880126953125">
        <ele>172</ele>
        <time>2023-08-19T17:23:09.000Z</time>
        <extensions>
          <ns3:TrackPointExtension>
            <ns3:hr>158</ns3:hr>
            <ns3:cad>80</ns3:cad>
          </ns3:TrackPointExtension>
        </extensions>
      </trkpt>
      <trkpt lat="42.6063307933509349822998046875" lon="2.74246140383183956146240234375">
        <ele>172.1999969482421875</ele>
        <time>2023-08-19T17:23:10.000Z</time>
        <extensions>
          <ns3:TrackPointExtension>
            <ns3:hr>158</ns3:hr>
            <ns3:cad>80</ns3:cad>
          </ns3:TrackPointExtension>
        </extensions>
      </trkpt>
      <trkpt lat="42.60632517747581005096435546875" lon="2.74242452345788478851318359375">
        <ele>172.1999969482421875</ele>
        <time>2023-08-19T17:23:11.000Z</time>
        <extensions>
          <ns3:TrackPointExtension>
            <ns3:hr>158</ns3:hr>
            <ns3:cad>79</ns3:cad>
          </ns3:TrackPointExtension>
        </extensions>
      </trkpt>
      <trkpt lat="42.6063183881342411041259765625" lon="2.742393426597118377685546875">
        <ele>172.399993896484375</ele>
        <time>2023-08-19T17:23:12.000Z</time>
        <extensions>
          <ns3:TrackPointExtension>
            <ns3:hr>158</ns3:hr>
            <ns3:cad>80</ns3:cad>
          </ns3:TrackPointExtension>
        </extensions>
      </trkpt>
      <trkpt lat="42.6063120178878307342529296875" lon="2.74236115626990795135498046875">
        <ele>172.399993896484375</ele>
        <time>2023-08-19T17:23:13.000Z</time>
        <extensions>
          <ns3:TrackPointExtension>
            <ns3:hr>158</ns3:hr>
            <ns3:cad>80</ns3:cad>
          </ns3:TrackPointExtension>
        </extensions>
      </trkpt>
      <trkpt lat="42.6063046418130397796630859375" lon="2.7423302270472049713134765625">
        <ele>172.600006103515625</ele>
        <time>2023-08-19T17:23:14.000Z</time>
        <extensions>
          <ns3:TrackPointExtension>
            <ns3:hr>158</ns3:hr>
            <ns3:cad>80</ns3:cad>
          </ns3:TrackPointExtension>
        </extensions>
      </trkpt>
      <trkpt lat="42.60629676282405853271484375" lon="2.74230332113802433013916015625">
        <ele>172.8000030517578125</ele>
        <time>2023-08-19T17:23:15.000Z</time>
        <extensions>
          <ns3:TrackPointExtension>
            <ns3:hr>158</ns3:hr>
            <ns3:cad>80</ns3:cad>
          </ns3:TrackPointExtension>
        </extensions>
      </trkpt>
      <trkpt lat="42.60629265569150447845458984375" lon="2.7422772534191608428955078125">
        <ele>172.8000030517578125</ele>
        <time>2023-08-19T17:23:16.000Z</time>
        <extensions>
          <ns3:TrackPointExtension>
            <ns3:hr>158</ns3:hr>
            <ns3:cad>80</ns3:cad>
          </ns3:TrackPointExtension>
        </extensions>
      </trkpt>
      <trkpt lat="42.60628745891153812408447265625" lon="2.74224699474871158599853515625">
        <ele>172.8000030517578125</ele>
        <time>2023-08-19T17:23:17.000Z</time>
        <extensions>
          <ns3:TrackPointExtension>
            <ns3:hr>158</ns3:hr>
            <ns3:cad>81</ns3:cad>
          </ns3:TrackPointExtension>
        </extensions>
      </trkpt>
      <trkpt lat="42.6062788255512714385986328125" lon="2.74221916683018207550048828125">
        <ele>172.8000030517578125</ele>
        <time>2023-08-19T17:23:18.000Z</time>
        <extensions>
          <ns3:TrackPointExtension>
            <ns3:hr>158</ns3:hr>
            <ns3:cad>81</ns3:cad>
          </ns3:TrackPointExtension>
        </extensions>
      </trkpt>
      <trkpt lat="42.60627052746713161468505859375" lon="2.7421873994171619415283203125">
        <ele>173</ele>
        <time>2023-08-19T17:23:19.000Z</time>
        <extensions>
          <ns3:TrackPointExtension>
            <ns3:hr>158</ns3:hr>
            <ns3:cad>80</ns3:cad>
          </ns3:TrackPointExtension>
        </extensions>
      </trkpt>
      <trkpt lat="42.60626281611621379852294921875" lon="2.74215479381382465362548828125">
        <ele>173</ele>
        <time>2023-08-19T17:23:20.000Z</time>
        <extensions>
          <ns3:TrackPointExtension>
            <ns3:hr>158</ns3:hr>
            <ns3:cad>81</ns3:cad>
          </ns3:TrackPointExtension>
        </extensions>
      </trkpt>
      <trkpt lat="42.6062516681849956512451171875" lon="2.74212621152400970458984375">
        <ele>173</ele>
        <time>2023-08-19T17:23:21.000Z</time>
        <extensions>
          <ns3:TrackPointExtension>
            <ns3:hr>158</ns3:hr>
            <ns3:cad>81</ns3:cad>
          </ns3:TrackPointExtension>
        </extensions>
      </trkpt>
      <trkpt lat="42.6062416099011898040771484375" lon="2.74208807386457920074462890625">
        <ele>173</ele>
        <time>2023-08-19T17:23:22.000Z</time>
        <extensions>
          <ns3:TrackPointExtension>
            <ns3:hr>158</ns3:hr>
            <ns3:cad>81</ns3:cad>
          </ns3:TrackPointExtension>
        </extensions>
      </trkpt>
      <trkpt lat="42.606233060359954833984375" lon="2.74205890484154224395751953125">
        <ele>173.1999969482421875</ele>
        <time>2023-08-19T17:23:23.000Z</time>
        <extensions>
          <ns3:TrackPointExtension>
            <ns3:hr>158</ns3:hr>
            <ns3:cad>81</ns3:cad>
          </ns3:TrackPointExtension>
        </extensions>
      </trkpt>
      <trkpt lat="42.60622694157063961029052734375" lon="2.742029987275600433349609375">
        <ele>173.1999969482421875</ele>
        <time>2023-08-19T17:23:24.000Z</time>
        <extensions>
          <ns3:TrackPointExtension>
            <ns3:hr>158</ns3:hr>
            <ns3:cad>81</ns3:cad>
          </ns3:TrackPointExtension>
        </extensions>
      </trkpt>
      <trkpt lat="42.60622031986713409423828125" lon="2.7419946156442165374755859375">
        <ele>173.399993896484375</ele>
        <time>2023-08-19T17:23:25.000Z</time>
        <extensions>
          <ns3:TrackPointExtension>
            <ns3:hr>158</ns3:hr>
            <ns3:cad>81</ns3:cad>
          </ns3:TrackPointExtension>
        </extensions>
      </trkpt>
      <trkpt lat="42.60621285997331142425537109375" lon="2.741964943706989288330078125">
        <ele>173.600006103515625</ele>
        <time>2023-08-19T17:23:26.000Z</time>
        <extensions>
          <ns3:TrackPointExtension>
            <ns3:hr>158</ns3:hr>
            <ns3:cad>81</ns3:cad>
          </ns3:TrackPointExtension>
        </extensions>
      </trkpt>
      <trkpt lat="42.6062084175646305084228515625" lon="2.74192546494305133819580078125">
        <ele>173.8000030517578125</ele>
        <time>2023-08-19T17:23:27.000Z</time>
        <extensions>
          <ns3:TrackPointExtension>
            <ns3:hr>158</ns3:hr>
            <ns3:cad>81</ns3:cad>
          </ns3:TrackPointExtension>
        </extensions>
      </trkpt>
      <trkpt lat="42.6062057353556156158447265625" lon="2.74189109914004802703857421875">
        <ele>173.8000030517578125</ele>
        <time>2023-08-19T17:23:28.000Z</time>
        <extensions>
          <ns3:TrackPointExtension>
            <ns3:hr>158</ns3:hr>
            <ns3:cad>81</ns3:cad>
          </ns3:TrackPointExtension>
        </extensions>
      </trkpt>
      <trkpt lat="42.606200538575649261474609375" lon="2.74186427704989910125732421875">
        <ele>174</ele>
        <time>2023-08-19T17:23:29.000Z</time>
        <extensions>
          <ns3:TrackPointExtension>
            <ns3:hr>158</ns3:hr>
            <ns3:cad>81</ns3:cad>
          </ns3:TrackPointExtension>
        </extensions>
      </trkpt>
      <trkpt lat="42.606192491948604583740234375" lon="2.741830833256244659423828125">
        <ele>174</ele>
        <time>2023-08-19T17:23:30.000Z</time>
        <extensions>
          <ns3:TrackPointExtension>
            <ns3:hr>158</ns3:hr>
            <ns3:cad>81</ns3:cad>
          </ns3:TrackPointExtension>
        </extensions>
      </trkpt>
      <trkpt lat="42.6061862893402576446533203125" lon="2.74179923348128795623779296875">
        <ele>174.1999969482421875</ele>
        <time>2023-08-19T17:23:31.000Z</time>
        <extensions>
          <ns3:TrackPointExtension>
            <ns3:hr>158</ns3:hr>
            <ns3:cad>81</ns3:cad>
          </ns3:TrackPointExtension>
        </extensions>
      </trkpt>
      <trkpt lat="42.60617698542773723602294921875" lon="2.74177123792469501495361328125">
        <ele>174.1999969482421875</ele>
        <time>2023-08-19T17:23:32.000Z</time>
        <extensions>
          <ns3:TrackPointExtension>
            <ns3:hr>158</ns3:hr>
            <ns3:cad>81</ns3:cad>
          </ns3:TrackPointExtension>
        </extensions>
      </trkpt>
      <trkpt lat="42.60616399347782135009765625" lon="2.74173636920750141143798828125">
        <ele>174.1999969482421875</ele>
        <time>2023-08-19T17:23:33.000Z</time>
        <extensions>
          <ns3:TrackPointExtension>
            <ns3:hr>158</ns3:hr>
            <ns3:cad>81</ns3:cad>
          </ns3:TrackPointExtension>
        </extensions>
      </trkpt>
      <trkpt lat="42.6061566174030303955078125" lon="2.741704769432544708251953125">
        <ele>174.1999969482421875</ele>
        <time>2023-08-19T17:23:34.000Z</time>
        <extensions>
          <ns3:TrackPointExtension>
            <ns3:hr>158</ns3:hr>
            <ns3:cad>81</ns3:cad>
          </ns3:TrackPointExtension>
        </extensions>
      </trkpt>
      <trkpt lat="42.6061480678617954254150390625" lon="2.7416774444282054901123046875">
        <ele>174.1999969482421875</ele>
        <time>2023-08-19T17:23:35.000Z</time>
        <extensions>
          <ns3:TrackPointExtension>
            <ns3:hr>158</ns3:hr>
            <ns3:cad>81</ns3:cad>
          </ns3:TrackPointExtension>
        </extensions>
      </trkpt>
      <trkpt lat="42.60613960213959217071533203125" lon="2.7416462637484073638916015625">
        <ele>174.399993896484375</ele>
        <time>2023-08-19T17:23:36.000Z</time>
        <extensions>
          <ns3:TrackPointExtension>
            <ns3:hr>157</ns3:hr>
            <ns3:cad>81</ns3:cad>
          </ns3:TrackPointExtension>
        </extensions>
      </trkpt>
      <trkpt lat="42.60613407008349895477294921875" lon="2.74162153713405132293701171875">
        <ele>174.399993896484375</ele>
        <time>2023-08-19T17:23:37.000Z</time>
        <extensions>
          <ns3:TrackPointExtension>
            <ns3:hr>158</ns3:hr>
            <ns3:cad>82</ns3:cad>
          </ns3:TrackPointExtension>
        </extensions>
      </trkpt>
      <trkpt lat="42.6061276160180568695068359375" lon="2.7415892668068408966064453125">
        <ele>174.399993896484375</ele>
        <time>2023-08-19T17:23:38.000Z</time>
        <extensions>
          <ns3:TrackPointExtension>
            <ns3:hr>158</ns3:hr>
            <ns3:cad>82</ns3:cad>
          </ns3:TrackPointExtension>
        </extensions>
      </trkpt>
      <trkpt lat="42.60612510144710540771484375" lon="2.74155431427061557769775390625">
        <ele>174.600006103515625</ele>
        <time>2023-08-19T17:23:39.000Z</time>
        <extensions>
          <ns3:TrackPointExtension>
            <ns3:hr>158</ns3:hr>
            <ns3:cad>81</ns3:cad>
          </ns3:TrackPointExtension>
        </extensions>
      </trkpt>
      <trkpt lat="42.60612065903842449188232421875" lon="2.74152564816176891326904296875">
        <ele>174.600006103515625</ele>
        <time>2023-08-19T17:23:40.000Z</time>
        <extensions>
          <ns3:TrackPointExtension>
            <ns3:hr>158</ns3:hr>
            <ns3:cad>81</ns3:cad>
          </ns3:TrackPointExtension>
        </extensions>
      </trkpt>
      <trkpt lat="42.6061162166297435760498046875" lon="2.74149295873939990997314453125">
        <ele>174.8000030517578125</ele>
        <time>2023-08-19T17:23:41.000Z</time>
        <extensions>
          <ns3:TrackPointExtension>
            <ns3:hr>158</ns3:hr>
            <ns3:cad>81</ns3:cad>
          </ns3:TrackPointExtension>
        </extensions>
      </trkpt>
      <trkpt lat="42.60611261241137981414794921875" lon="2.74145859293639659881591796875">
        <ele>174.8000030517578125</ele>
        <time>2023-08-19T17:23:42.000Z</time>
        <extensions>
          <ns3:TrackPointExtension>
            <ns3:hr>158</ns3:hr>
            <ns3:cad>81</ns3:cad>
          </ns3:TrackPointExtension>
        </extensions>
      </trkpt>
      <trkpt lat="42.60610808618366718292236328125" lon="2.74143110029399394989013671875">
        <ele>175</ele>
        <time>2023-08-19T17:23:43.000Z</time>
        <extensions>
          <ns3:TrackPointExtension>
            <ns3:hr>157</ns3:hr>
            <ns3:cad>81</ns3:cad>
          </ns3:TrackPointExtension>
        </extensions>
      </trkpt>
      <trkpt lat="42.6061034761369228363037109375" lon="2.74140008725225925445556640625">
        <ele>175</ele>
        <time>2023-08-19T17:23:44.000Z</time>
        <extensions>
          <ns3:TrackPointExtension>
            <ns3:hr>157</ns3:hr>
            <ns3:cad>81</ns3:cad>
          </ns3:TrackPointExtension>
        </extensions>
      </trkpt>
      <trkpt lat="42.60610096156597137451171875" lon="2.74136957712471485137939453125">
        <ele>175.399993896484375</ele>
        <time>2023-08-19T17:23:45.000Z</time>
        <extensions>
          <ns3:TrackPointExtension>
            <ns3:hr>157</ns3:hr>
            <ns3:cad>82</ns3:cad>
          </ns3:TrackPointExtension>
        </extensions>
      </trkpt>
      <trkpt lat="42.60609559714794158935546875" lon="2.74134107865393161773681640625">
        <ele>175.399993896484375</ele>
        <time>2023-08-19T17:23:46.000Z</time>
        <extensions>
          <ns3:TrackPointExtension>
            <ns3:hr>157</ns3:hr>
            <ns3:cad>81</ns3:cad>
          </ns3:TrackPointExtension>
        </extensions>
      </trkpt>
      <trkpt lat="42.6060887239873409271240234375" lon="2.74130620993673801422119140625">
        <ele>175.399993896484375</ele>
        <time>2023-08-19T17:23:47.000Z</time>
        <extensions>
          <ns3:TrackPointExtension>
            <ns3:hr>157</ns3:hr>
            <ns3:cad>81</ns3:cad>
          </ns3:TrackPointExtension>
        </extensions>
      </trkpt>
      <trkpt lat="42.60608193464577198028564453125" lon="2.74127461016178131103515625">
        <ele>175.399993896484375</ele>
        <time>2023-08-19T17:23:48.000Z</time>
        <extensions>
          <ns3:TrackPointExtension>
            <ns3:hr>157</ns3:hr>
            <ns3:cad>81</ns3:cad>
          </ns3:TrackPointExtension>
        </extensions>
      </trkpt>
      <trkpt lat="42.60607489384710788726806640625" lon="2.74124778807163238525390625">
        <ele>175.399993896484375</ele>
        <time>2023-08-19T17:23:49.000Z</time>
        <extensions>
          <ns3:TrackPointExtension>
            <ns3:hr>157</ns3:hr>
            <ns3:cad>81</ns3:cad>
          </ns3:TrackPointExtension>
        </extensions>
      </trkpt>
      <trkpt lat="42.606063745915889739990234375" lon="2.74121752940118312835693359375">
        <ele>175.600006103515625</ele>
        <time>2023-08-19T17:23:50.000Z</time>
        <extensions>
          <ns3:TrackPointExtension>
            <ns3:hr>157</ns3:hr>
            <ns3:cad>81</ns3:cad>
          </ns3:TrackPointExtension>
        </extensions>
      </trkpt>
      <trkpt lat="42.60605393908917903900146484375" lon="2.7411899529397487640380859375">
        <ele>175.600006103515625</ele>
        <time>2023-08-19T17:23:51.000Z</time>
        <extensions>
          <ns3:TrackPointExtension>
            <ns3:hr>157</ns3:hr>
            <ns3:cad>80</ns3:cad>
          </ns3:TrackPointExtension>
        </extensions>
      </trkpt>
      <trkpt lat="42.6060439646244049072265625" lon="2.7411658130586147308349609375">
        <ele>175.600006103515625</ele>
        <time>2023-08-19T17:23:52.000Z</time>
        <extensions>
          <ns3:TrackPointExtension>
            <ns3:hr>157</ns3:hr>
            <ns3:cad>80</ns3:cad>
          </ns3:TrackPointExtension>
        </extensions>
      </trkpt>
      <trkpt lat="42.60603885166347026824951171875" lon="2.7411331236362457275390625">
        <ele>175.600006103515625</ele>
        <time>2023-08-19T17:23:53.000Z</time>
        <extensions>
          <ns3:TrackPointExtension>
            <ns3:hr>157</ns3:hr>
            <ns3:cad>80</ns3:cad>
          </ns3:TrackPointExtension>
        </extensions>
      </trkpt>
      <trkpt lat="42.6060340739786624908447265625" lon="2.741102278232574462890625">
        <ele>175.600006103515625</ele>
        <time>2023-08-19T17:23:54.000Z</time>
        <extensions>
          <ns3:TrackPointExtension>
            <ns3:hr>156</ns3:hr>
            <ns3:cad>80</ns3:cad>
          </ns3:TrackPointExtension>
        </extensions>
      </trkpt>
      <trkpt lat="42.6060303859412670135498046875" lon="2.74107344448566436767578125">
        <ele>175.600006103515625</ele>
        <time>2023-08-19T17:23:55.000Z</time>
        <extensions>
          <ns3:TrackPointExtension>
            <ns3:hr>156</ns3:hr>
            <ns3:cad>80</ns3:cad>
          </ns3:TrackPointExtension>
        </extensions>
      </trkpt>
      <trkpt lat="42.60602661408483982086181640625" lon="2.74103631265461444854736328125">
        <ele>175.600006103515625</ele>
        <time>2023-08-19T17:23:56.000Z</time>
        <extensions>
          <ns3:TrackPointExtension>
            <ns3:hr>156</ns3:hr>
            <ns3:cad>80</ns3:cad>
          </ns3:TrackPointExtension>
        </extensions>
      </trkpt>
      <trkpt lat="42.6060260273516178131103515625" lon="2.74100345559418201446533203125">
        <ele>175.8000030517578125</ele>
        <time>2023-08-19T17:23:57.000Z</time>
        <extensions>
          <ns3:TrackPointExtension>
            <ns3:hr>155</ns3:hr>
            <ns3:cad>80</ns3:cad>
          </ns3:TrackPointExtension>
        </extensions>
      </trkpt>
      <trkpt lat="42.60602527298033237457275390625" lon="2.7409695088863372802734375">
        <ele>175.8000030517578125</ele>
        <time>2023-08-19T17:23:58.000Z</time>
        <extensions>
          <ns3:TrackPointExtension>
            <ns3:hr>155</ns3:hr>
            <ns3:cad>80</ns3:cad>
          </ns3:TrackPointExtension>
        </extensions>
      </trkpt>
      <trkpt lat="42.60603080503642559051513671875" lon="2.740936316549777984619140625">
        <ele>175.8000030517578125</ele>
        <time>2023-08-19T17:23:59.000Z</time>
        <extensions>
          <ns3:TrackPointExtension>
            <ns3:hr>155</ns3:hr>
            <ns3:cad>81</ns3:cad>
          </ns3:TrackPointExtension>
        </extensions>
      </trkpt>
      <trkpt lat="42.6060310564935207366943359375" lon="2.7409046329557895660400390625">
        <ele>176</ele>
        <time>2023-08-19T17:24:00.000Z</time>
        <extensions>
          <ns3:TrackPointExtension>
            <ns3:hr>155</ns3:hr>
            <ns3:cad>81</ns3:cad>
          </ns3:TrackPointExtension>
        </extensions>
      </trkpt>
      <trkpt lat="42.60602845810353755950927734375" lon="2.74086817167699337005615234375">
        <ele>176</ele>
        <time>2023-08-19T17:24:01.000Z</time>
        <extensions>
          <ns3:TrackPointExtension>
            <ns3:hr>155</ns3:hr>
            <ns3:cad>81</ns3:cad>
          </ns3:TrackPointExtension>
        </extensions>
      </trkpt>
      <trkpt lat="42.60602812282741069793701171875" lon="2.74083347059786319732666015625">
        <ele>176.1999969482421875</ele>
        <time>2023-08-19T17:24:02.000Z</time>
        <extensions>
          <ns3:TrackPointExtension>
            <ns3:hr>155</ns3:hr>
            <ns3:cad>82</ns3:cad>
          </ns3:TrackPointExtension>
        </extensions>
      </trkpt>
      <trkpt lat="42.6060256920754909515380859375" lon="2.7407978475093841552734375">
        <ele>176.399993896484375</ele>
        <time>2023-08-19T17:24:03.000Z</time>
        <extensions>
          <ns3:TrackPointExtension>
            <ns3:hr>154</ns3:hr>
            <ns3:cad>82</ns3:cad>
          </ns3:TrackPointExtension>
        </extensions>
      </trkpt>
      <trkpt lat="42.60602527298033237457275390625" lon="2.7407581172883510589599609375">
        <ele>176.399993896484375</ele>
        <time>2023-08-19T17:24:04.000Z</time>
        <extensions>
          <ns3:TrackPointExtension>
            <ns3:hr>154</ns3:hr>
            <ns3:cad>82</ns3:cad>
          </ns3:TrackPointExtension>
        </extensions>
      </trkpt>
      <trkpt lat="42.60602678172290325164794921875" lon="2.74072316475212574005126953125">
        <ele>176.399993896484375</ele>
        <time>2023-08-19T17:24:05.000Z</time>
        <extensions>
          <ns3:TrackPointExtension>
            <ns3:hr>154</ns3:hr>
            <ns3:cad>82</ns3:cad>
          </ns3:TrackPointExtension>
        </extensions>
      </trkpt>
      <trkpt lat="42.60602544061839580535888671875" lon="2.74068745784461498260498046875">
        <ele>176.399993896484375</ele>
        <time>2023-08-19T17:24:06.000Z</time>
        <extensions>
          <ns3:TrackPointExtension>
            <ns3:hr>154</ns3:hr>
            <ns3:cad>82</ns3:cad>
          </ns3:TrackPointExtension>
        </extensions>
      </trkpt>
      <trkpt lat="42.60602728463709354400634765625" lon="2.74064906872808933258056640625">
        <ele>176.399993896484375</ele>
        <time>2023-08-19T17:24:07.000Z</time>
        <extensions>
          <ns3:TrackPointExtension>
            <ns3:hr>154</ns3:hr>
            <ns3:cad>81</ns3:cad>
          </ns3:TrackPointExtension>
        </extensions>
      </trkpt>
      <trkpt lat="42.60602854192256927490234375" lon="2.740614451467990875244140625">
        <ele>176.399993896484375</ele>
        <time>2023-08-19T17:24:08.000Z</time>
        <extensions>
          <ns3:TrackPointExtension>
            <ns3:hr>154</ns3:hr>
            <ns3:cad>81</ns3:cad>
          </ns3:TrackPointExtension>
        </extensions>
      </trkpt>
      <trkpt lat="42.60602661408483982086181640625" lon="2.74058452807366847991943359375">
        <ele>176.399993896484375</ele>
        <time>2023-08-19T17:24:09.000Z</time>
        <extensions>
          <ns3:TrackPointExtension>
            <ns3:hr>154</ns3:hr>
            <ns3:cad>81</ns3:cad>
          </ns3:TrackPointExtension>
        </extensions>
      </trkpt>
      <trkpt lat="42.60602720081806182861328125" lon="2.7405452169477939605712890625">
        <ele>176.399993896484375</ele>
        <time>2023-08-19T17:24:10.000Z</time>
        <extensions>
          <ns3:TrackPointExtension>
            <ns3:hr>154</ns3:hr>
            <ns3:cad>81</ns3:cad>
          </ns3:TrackPointExtension>
        </extensions>
      </trkpt>
      <trkpt lat="42.606024183332920074462890625" lon="2.74051395244896411895751953125">
        <ele>176.399993896484375</ele>
        <time>2023-08-19T17:24:11.000Z</time>
        <extensions>
          <ns3:TrackPointExtension>
            <ns3:hr>154</ns3:hr>
            <ns3:cad>82</ns3:cad>
          </ns3:TrackPointExtension>
        </extensions>
      </trkpt>
      <trkpt lat="42.6060236804187297821044921875" lon="2.74047573097050189971923828125">
        <ele>176.399993896484375</ele>
        <time>2023-08-19T17:24:12.000Z</time>
        <extensions>
          <ns3:TrackPointExtension>
            <ns3:hr>154</ns3:hr>
            <ns3:cad>82</ns3:cad>
          </ns3:TrackPointExtension>
        </extensions>
      </trkpt>
      <trkpt lat="42.60602477006614208221435546875" lon="2.7404384315013885498046875">
        <ele>176.399993896484375</ele>
        <time>2023-08-19T17:24:13.000Z</time>
        <extensions>
          <ns3:TrackPointExtension>
            <ns3:hr>154</ns3:hr>
            <ns3:cad>82</ns3:cad>
          </ns3:TrackPointExtension>
        </extensions>
      </trkpt>
      <trkpt lat="42.60602091439068317413330078125" lon="2.74040498770773410797119140625">
        <ele>176.399993896484375</ele>
        <time>2023-08-19T17:24:14.000Z</time>
        <extensions>
          <ns3:TrackPointExtension>
            <ns3:hr>154</ns3:hr>
            <ns3:cad>82</ns3:cad>
          </ns3:TrackPointExtension>
        </extensions>
      </trkpt>
      <trkpt lat="42.60601907037198543548583984375" lon="2.7403645031154155731201171875">
        <ele>176.399993896484375</ele>
        <time>2023-08-19T17:24:15.000Z</time>
        <extensions>
          <ns3:TrackPointExtension>
            <ns3:hr>154</ns3:hr>
            <ns3:cad>82</ns3:cad>
          </ns3:TrackPointExtension>
        </extensions>
      </trkpt>
      <trkpt lat="42.60601806454360485076904296875" lon="2.7403257787227630615234375">
        <ele>176.399993896484375</ele>
        <time>2023-08-19T17:24:16.000Z</time>
        <extensions>
          <ns3:TrackPointExtension>
            <ns3:hr>154</ns3:hr>
            <ns3:cad>82</ns3:cad>
          </ns3:TrackPointExtension>
        </extensions>
      </trkpt>
      <trkpt lat="42.606014795601367950439453125" lon="2.740290574729442596435546875">
        <ele>176.399993896484375</ele>
        <time>2023-08-19T17:24:17.000Z</time>
        <extensions>
          <ns3:TrackPointExtension>
            <ns3:hr>154</ns3:hr>
            <ns3:cad>82</ns3:cad>
          </ns3:TrackPointExtension>
        </extensions>
      </trkpt>
      <trkpt lat="42.60601119138300418853759765625" lon="2.7402525208890438079833984375">
        <ele>176.399993896484375</ele>
        <time>2023-08-19T17:24:18.000Z</time>
        <extensions>
          <ns3:TrackPointExtension>
            <ns3:hr>155</ns3:hr>
            <ns3:cad>82</ns3:cad>
          </ns3:TrackPointExtension>
        </extensions>
      </trkpt>
      <trkpt lat="42.60600708425045013427734375" lon="2.74021723307669162750244140625">
        <ele>176.399993896484375</ele>
        <time>2023-08-19T17:24:19.000Z</time>
        <extensions>
          <ns3:TrackPointExtension>
            <ns3:hr>155</ns3:hr>
            <ns3:cad>83</ns3:cad>
          </ns3:TrackPointExtension>
        </extensions>
      </trkpt>
      <trkpt lat="42.606005407869815826416015625" lon="2.74017817340791225433349609375">
        <ele>176.399993896484375</ele>
        <time>2023-08-19T17:24:20.000Z</time>
        <extensions>
          <ns3:TrackPointExtension>
            <ns3:hr>155</ns3:hr>
            <ns3:cad>83</ns3:cad>
          </ns3:TrackPointExtension>
        </extensions>
      </trkpt>
      <trkpt lat="42.60600632987916469573974609375" lon="2.7401448972523212432861328125">
        <ele>176.399993896484375</ele>
        <time>2023-08-19T17:24:21.000Z</time>
        <extensions>
          <ns3:TrackPointExtension>
            <ns3:hr>155</ns3:hr>
            <ns3:cad>82</ns3:cad>
          </ns3:TrackPointExtension>
        </extensions>
      </trkpt>
      <trkpt lat="42.6060028932988643646240234375" lon="2.74011413566768169403076171875">
        <ele>176.600006103515625</ele>
        <time>2023-08-19T17:24:22.000Z</time>
        <extensions>
          <ns3:TrackPointExtension>
            <ns3:hr>156</ns3:hr>
            <ns3:cad>82</ns3:cad>
          </ns3:TrackPointExtension>
        </extensions>
      </trkpt>
      <trkpt lat="42.6060042344033718109130859375" lon="2.7400785125792026519775390625">
        <ele>176.600006103515625</ele>
        <time>2023-08-19T17:24:23.000Z</time>
        <extensions>
          <ns3:TrackPointExtension>
            <ns3:hr>156</ns3:hr>
            <ns3:cad>82</ns3:cad>
          </ns3:TrackPointExtension>
        </extensions>
      </trkpt>
      <trkpt lat="42.6060062460601329803466796875" lon="2.7400426380336284637451171875">
        <ele>176.600006103515625</ele>
        <time>2023-08-19T17:24:24.000Z</time>
        <extensions>
          <ns3:TrackPointExtension>
            <ns3:hr>156</ns3:hr>
            <ns3:cad>82</ns3:cad>
          </ns3:TrackPointExtension>
        </extensions>
      </trkpt>
      <trkpt lat="42.60600649751722812652587890625" lon="2.74001187644898891448974609375">
        <ele>176.600006103515625</ele>
        <time>2023-08-19T17:24:25.000Z</time>
        <extensions>
          <ns3:TrackPointExtension>
            <ns3:hr>156</ns3:hr>
            <ns3:cad>82</ns3:cad>
          </ns3:TrackPointExtension>
        </extensions>
      </trkpt>
      <trkpt lat="42.60600507259368896484375" lon="2.73996996693313121795654296875">
        <ele>176.600006103515625</ele>
        <time>2023-08-19T17:24:26.000Z</time>
        <extensions>
          <ns3:TrackPointExtension>
            <ns3:hr>156</ns3:hr>
            <ns3:cad>82</ns3:cad>
          </ns3:TrackPointExtension>
        </extensions>
      </trkpt>
      <trkpt lat="42.60600171983242034912109375" lon="2.7399343438446521759033203125">
        <ele>176.600006103515625</ele>
        <time>2023-08-19T17:24:27.000Z</time>
        <extensions>
          <ns3:TrackPointExtension>
            <ns3:hr>156</ns3:hr>
            <ns3:cad>82</ns3:cad>
          </ns3:TrackPointExtension>
        </extensions>
      </trkpt>
      <trkpt lat="42.60599727742373943328857421875" lon="2.73990073241293430328369140625">
        <ele>176.600006103515625</ele>
        <time>2023-08-19T17:24:28.000Z</time>
        <extensions>
          <ns3:TrackPointExtension>
            <ns3:hr>156</ns3:hr>
            <ns3:cad>82</ns3:cad>
          </ns3:TrackPointExtension>
        </extensions>
      </trkpt>
      <trkpt lat="42.6059941761195659637451171875" lon="2.7398656122386455535888671875">
        <ele>176.8000030517578125</ele>
        <time>2023-08-19T17:24:29.000Z</time>
        <extensions>
          <ns3:TrackPointExtension>
            <ns3:hr>157</ns3:hr>
            <ns3:cad>82</ns3:cad>
          </ns3:TrackPointExtension>
        </extensions>
      </trkpt>
      <trkpt lat="42.60598705150187015533447265625" lon="2.739836610853672027587890625">
        <ele>176.8000030517578125</ele>
        <time>2023-08-19T17:24:30.000Z</time>
        <extensions>
          <ns3:TrackPointExtension>
            <ns3:hr>157</ns3:hr>
            <ns3:cad>82</ns3:cad>
          </ns3:TrackPointExtension>
        </extensions>
      </trkpt>
      <trkpt lat="42.60598185472190380096435546875" lon="2.73980316706001758575439453125">
        <ele>176.8000030517578125</ele>
        <time>2023-08-19T17:24:31.000Z</time>
        <extensions>
          <ns3:TrackPointExtension>
            <ns3:hr>156</ns3:hr>
            <ns3:cad>82</ns3:cad>
          </ns3:TrackPointExtension>
        </extensions>
      </trkpt>
      <trkpt lat="42.60597632266581058502197265625" lon="2.739766873419284820556640625">
        <ele>177</ele>
        <time>2023-08-19T17:24:32.000Z</time>
        <extensions>
          <ns3:TrackPointExtension>
            <ns3:hr>156</ns3:hr>
            <ns3:cad>82</ns3:cad>
          </ns3:TrackPointExtension>
        </extensions>
      </trkpt>
      <trkpt lat="42.60597028769552707672119140625" lon="2.73973502218723297119140625">
        <ele>177</ele>
        <time>2023-08-19T17:24:33.000Z</time>
        <extensions>
          <ns3:TrackPointExtension>
            <ns3:hr>156</ns3:hr>
            <ns3:cad>82</ns3:cad>
          </ns3:TrackPointExtension>
        </extensions>
      </trkpt>
      <trkpt lat="42.6059634983539581298828125" lon="2.73969369940459728240966796875">
        <ele>177</ele>
        <time>2023-08-19T17:24:34.000Z</time>
        <extensions>
          <ns3:TrackPointExtension>
            <ns3:hr>156</ns3:hr>
            <ns3:cad>82</ns3:cad>
          </ns3:TrackPointExtension>
        </extensions>
      </trkpt>
      <trkpt lat="42.605960480868816375732421875" lon="2.73966000415384769439697265625">
        <ele>177</ele>
        <time>2023-08-19T17:24:35.000Z</time>
        <extensions>
          <ns3:TrackPointExtension>
            <ns3:hr>156</ns3:hr>
            <ns3:cad>82</ns3:cad>
          </ns3:TrackPointExtension>
        </extensions>
      </trkpt>
      <trkpt lat="42.60595637373626232147216796875" lon="2.7396252192556858062744140625">
        <ele>177.1999969482421875</ele>
        <time>2023-08-19T17:24:36.000Z</time>
        <extensions>
          <ns3:TrackPointExtension>
            <ns3:hr>156</ns3:hr>
            <ns3:cad>82</ns3:cad>
          </ns3:TrackPointExtension>
        </extensions>
      </trkpt>
      <trkpt lat="42.6059549488127231597900390625" lon="2.7395829744637012481689453125">
        <ele>177.399993896484375</ele>
        <time>2023-08-19T17:24:37.000Z</time>
        <extensions>
          <ns3:TrackPointExtension>
            <ns3:hr>156</ns3:hr>
            <ns3:cad>82</ns3:cad>
          </ns3:TrackPointExtension>
        </extensions>
      </trkpt>
      <trkpt lat="42.605954110622406005859375" lon="2.73955355398356914520263671875">
        <ele>177.399993896484375</ele>
        <time>2023-08-19T17:24:38.000Z</time>
        <extensions>
          <ns3:TrackPointExtension>
            <ns3:hr>156</ns3:hr>
            <ns3:cad>82</ns3:cad>
          </ns3:TrackPointExtension>
        </extensions>
      </trkpt>
      <trkpt lat="42.60595570318400859832763671875" lon="2.73952036164700984954833984375">
        <ele>177.399993896484375</ele>
        <time>2023-08-19T17:24:39.000Z</time>
        <extensions>
          <ns3:TrackPointExtension>
            <ns3:hr>156</ns3:hr>
            <ns3:cad>82</ns3:cad>
          </ns3:TrackPointExtension>
        </extensions>
      </trkpt>
      <trkpt lat="42.6059608161449432373046875" lon="2.7394874207675457000732421875">
        <ele>177.399993896484375</ele>
        <time>2023-08-19T17:24:40.000Z</time>
        <extensions>
          <ns3:TrackPointExtension>
            <ns3:hr>156</ns3:hr>
            <ns3:cad>82</ns3:cad>
          </ns3:TrackPointExtension>
        </extensions>
      </trkpt>
      <trkpt lat="42.60596307925879955291748046875" lon="2.739463113248348236083984375">
        <ele>177.8000030517578125</ele>
        <time>2023-08-19T17:24:41.000Z</time>
        <extensions>
          <ns3:TrackPointExtension>
            <ns3:hr>156</ns3:hr>
            <ns3:cad>81</ns3:cad>
          </ns3:TrackPointExtension>
        </extensions>
      </trkpt>
      <trkpt lat="42.60596911422908306121826171875" lon="2.739426903426647186279296875">
        <ele>177.8000030517578125</ele>
        <time>2023-08-19T17:24:42.000Z</time>
        <extensions>
          <ns3:TrackPointExtension>
            <ns3:hr>155</ns3:hr>
            <ns3:cad>81</ns3:cad>
          </ns3:TrackPointExtension>
        </extensions>
      </trkpt>
      <trkpt lat="42.6059800945222377777099609375" lon="2.73939865641295909881591796875">
        <ele>178</ele>
        <time>2023-08-19T17:24:43.000Z</time>
        <extensions>
          <ns3:TrackPointExtension>
            <ns3:hr>155</ns3:hr>
            <ns3:cad>81</ns3:cad>
          </ns3:TrackPointExtension>
        </extensions>
      </trkpt>
      <trkpt lat="42.60598906315863132476806640625" lon="2.73937267251312732696533203125">
        <ele>178.1999969482421875</ele>
        <time>2023-08-19T17:24:44.000Z</time>
        <extensions>
          <ns3:TrackPointExtension>
            <ns3:hr>155</ns3:hr>
            <ns3:cad>82</ns3:cad>
          </ns3:TrackPointExtension>
        </extensions>
      </trkpt>
      <trkpt lat="42.60600331239402294158935546875" lon="2.7393387258052825927734375">
        <ele>178.399993896484375</ele>
        <time>2023-08-19T17:24:45.000Z</time>
        <extensions>
          <ns3:TrackPointExtension>
            <ns3:hr>155</ns3:hr>
            <ns3:cad>82</ns3:cad>
          </ns3:TrackPointExtension>
        </extensions>
      </trkpt>
      <trkpt lat="42.6060132868587970733642578125" lon="2.739312238991260528564453125">
        <ele>178.399993896484375</ele>
        <time>2023-08-19T17:24:46.000Z</time>
        <extensions>
          <ns3:TrackPointExtension>
            <ns3:hr>155</ns3:hr>
            <ns3:cad>82</ns3:cad>
          </ns3:TrackPointExtension>
        </extensions>
      </trkpt>
      <trkpt lat="42.606020830571651458740234375" lon="2.73928483016788959503173828125">
        <ele>178.399993896484375</ele>
        <time>2023-08-19T17:24:47.000Z</time>
        <extensions>
          <ns3:TrackPointExtension>
            <ns3:hr>155</ns3:hr>
            <ns3:cad>82</ns3:cad>
          </ns3:TrackPointExtension>
        </extensions>
      </trkpt>
      <trkpt lat="42.60603298433125019073486328125" lon="2.739250548183917999267578125">
        <ele>178.600006103515625</ele>
        <time>2023-08-19T17:24:48.000Z</time>
        <extensions>
          <ns3:TrackPointExtension>
            <ns3:hr>155</ns3:hr>
            <ns3:cad>82</ns3:cad>
          </ns3:TrackPointExtension>
        </extensions>
      </trkpt>
      <trkpt lat="42.60604287497699260711669921875" lon="2.739223726093769073486328125">
        <ele>178.600006103515625</ele>
        <time>2023-08-19T17:24:49.000Z</time>
        <extensions>
          <ns3:TrackPointExtension>
            <ns3:hr>154</ns3:hr>
            <ns3:cad>81</ns3:cad>
          </ns3:TrackPointExtension>
        </extensions>
      </trkpt>
      <trkpt lat="42.60605175979435443878173828125" lon="2.73919346742331981658935546875">
        <ele>179</ele>
        <time>2023-08-19T17:24:50.000Z</time>
        <extensions>
          <ns3:TrackPointExtension>
            <ns3:hr>154</ns3:hr>
            <ns3:cad>81</ns3:cad>
          </ns3:TrackPointExtension>
        </extensions>
      </trkpt>
      <trkpt lat="42.60606399737298488616943359375" lon="2.73916178382933139801025390625">
        <ele>179.1999969482421875</ele>
        <time>2023-08-19T17:24:51.000Z</time>
        <extensions>
          <ns3:TrackPointExtension>
            <ns3:hr>154</ns3:hr>
            <ns3:cad>82</ns3:cad>
          </ns3:TrackPointExtension>
        </extensions>
      </trkpt>
      <trkpt lat="42.60607279837131500244140625" lon="2.7391348779201507568359375">
        <ele>179.399993896484375</ele>
        <time>2023-08-19T17:24:52.000Z</time>
        <extensions>
          <ns3:TrackPointExtension>
            <ns3:hr>154</ns3:hr>
            <ns3:cad>82</ns3:cad>
          </ns3:TrackPointExtension>
        </extensions>
      </trkpt>
      <trkpt lat="42.60608746670186519622802734375" lon="2.7391026914119720458984375">
        <ele>179.8000030517578125</ele>
        <time>2023-08-19T17:24:53.000Z</time>
        <extensions>
          <ns3:TrackPointExtension>
            <ns3:hr>154</ns3:hr>
            <ns3:cad>82</ns3:cad>
          </ns3:TrackPointExtension>
        </extensions>
      </trkpt>
      <trkpt lat="42.60609987191855907440185546875" lon="2.73907427676022052764892578125">
        <ele>180</ele>
        <time>2023-08-19T17:24:54.000Z</time>
        <extensions>
          <ns3:TrackPointExtension>
            <ns3:hr>154</ns3:hr>
            <ns3:cad>82</ns3:cad>
          </ns3:TrackPointExtension>
        </extensions>
      </trkpt>
      <trkpt lat="42.6061111874878406524658203125" lon="2.73904879577457904815673828125">
        <ele>180.1999969482421875</ele>
        <time>2023-08-19T17:24:55.000Z</time>
        <extensions>
          <ns3:TrackPointExtension>
            <ns3:hr>154</ns3:hr>
            <ns3:cad>81</ns3:cad>
          </ns3:TrackPointExtension>
        </extensions>
      </trkpt>
      <trkpt lat="42.60612518526613712310791015625" lon="2.739019207656383514404296875">
        <ele>180.1999969482421875</ele>
        <time>2023-08-19T17:24:56.000Z</time>
        <extensions>
          <ns3:TrackPointExtension>
            <ns3:hr>154</ns3:hr>
            <ns3:cad>81</ns3:cad>
          </ns3:TrackPointExtension>
        </extensions>
      </trkpt>
      <trkpt lat="42.606136500835418701171875" lon="2.7389925532042980194091796875">
        <ele>180.399993896484375</ele>
        <time>2023-08-19T17:24:57.000Z</time>
        <extensions>
          <ns3:TrackPointExtension>
            <ns3:hr>154</ns3:hr>
            <ns3:cad>81</ns3:cad>
          </ns3:TrackPointExtension>
        </extensions>
      </trkpt>
      <trkpt lat="42.6061450503766536712646484375" lon="2.738965563476085662841796875">
        <ele>180.399993896484375</ele>
        <time>2023-08-19T17:24:58.000Z</time>
        <extensions>
          <ns3:TrackPointExtension>
            <ns3:hr>154</ns3:hr>
            <ns3:cad>81</ns3:cad>
          </ns3:TrackPointExtension>
        </extensions>
      </trkpt>
      <trkpt lat="42.60615636594593524932861328125" lon="2.73893706500530242919921875">
        <ele>180.399993896484375</ele>
        <time>2023-08-19T17:24:59.000Z</time>
        <extensions>
          <ns3:TrackPointExtension>
            <ns3:hr>154</ns3:hr>
            <ns3:cad>82</ns3:cad>
          </ns3:TrackPointExtension>
        </extensions>
      </trkpt>
      <trkpt lat="42.60616390965878963470458984375" lon="2.73891158401966094970703125">
        <ele>180.399993896484375</ele>
        <time>2023-08-19T17:25:00.000Z</time>
        <extensions>
          <ns3:TrackPointExtension>
            <ns3:hr>154</ns3:hr>
            <ns3:cad>82</ns3:cad>
          </ns3:TrackPointExtension>
        </extensions>
      </trkpt>
      <trkpt lat="42.606173045933246612548828125" lon="2.73888451047241687774658203125">
        <ele>180.399993896484375</ele>
        <time>2023-08-19T17:25:01.000Z</time>
        <extensions>
          <ns3:TrackPointExtension>
            <ns3:hr>154</ns3:hr>
            <ns3:cad>82</ns3:cad>
          </ns3:TrackPointExtension>
        </extensions>
      </trkpt>
      <trkpt lat="42.6061889715492725372314453125" lon="2.7388500608503818511962890625">
        <ele>180.399993896484375</ele>
        <time>2023-08-19T17:25:02.000Z</time>
        <extensions>
          <ns3:TrackPointExtension>
            <ns3:hr>154</ns3:hr>
            <ns3:cad>82</ns3:cad>
          </ns3:TrackPointExtension>
        </extensions>
      </trkpt>
      <trkpt lat="42.60620062239468097686767578125" lon="2.7388249151408672332763671875">
        <ele>180.399993896484375</ele>
        <time>2023-08-19T17:25:03.000Z</time>
        <extensions>
          <ns3:TrackPointExtension>
            <ns3:hr>154</ns3:hr>
            <ns3:cad>82</ns3:cad>
          </ns3:TrackPointExtension>
        </extensions>
      </trkpt>
      <trkpt lat="42.60621269233524799346923828125" lon="2.73879700340330600738525390625">
        <ele>180.399993896484375</ele>
        <time>2023-08-19T17:25:04.000Z</time>
        <extensions>
          <ns3:TrackPointExtension>
            <ns3:hr>154</ns3:hr>
            <ns3:cad>82</ns3:cad>
          </ns3:TrackPointExtension>
        </extensions>
      </trkpt>
      <trkpt lat="42.6062241755425930023193359375" lon="2.7387652359902858734130859375">
        <ele>180.399993896484375</ele>
        <time>2023-08-19T17:25:05.000Z</time>
        <extensions>
          <ns3:TrackPointExtension>
            <ns3:hr>154</ns3:hr>
            <ns3:cad>83</ns3:cad>
          </ns3:TrackPointExtension>
        </extensions>
      </trkpt>
      <trkpt lat="42.606232054531574249267578125" lon="2.73872760124504566192626953125">
        <ele>180.399993896484375</ele>
        <time>2023-08-19T17:25:06.000Z</time>
        <extensions>
          <ns3:TrackPointExtension>
            <ns3:hr>154</ns3:hr>
            <ns3:cad>83</ns3:cad>
          </ns3:TrackPointExtension>
        </extensions>
      </trkpt>
      <trkpt lat="42.60624119080603122711181640625" lon="2.73869290016591548919677734375">
        <ele>180.600006103515625</ele>
        <time>2023-08-19T17:25:07.000Z</time>
        <extensions>
          <ns3:TrackPointExtension>
            <ns3:hr>154</ns3:hr>
            <ns3:cad>82</ns3:cad>
          </ns3:TrackPointExtension>
        </extensions>
      </trkpt>
      <trkpt lat="42.6062479801476001739501953125" lon="2.73866708390414714813232421875">
        <ele>180.600006103515625</ele>
        <time>2023-08-19T17:25:08.000Z</time>
        <extensions>
          <ns3:TrackPointExtension>
            <ns3:hr>154</ns3:hr>
            <ns3:cad>82</ns3:cad>
          </ns3:TrackPointExtension>
        </extensions>
      </trkpt>
      <trkpt lat="42.6062572002410888671875" lon="2.7386333048343658447265625">
        <ele>180.600006103515625</ele>
        <time>2023-08-19T17:25:09.000Z</time>
        <extensions>
          <ns3:TrackPointExtension>
            <ns3:hr>154</ns3:hr>
            <ns3:cad>82</ns3:cad>
          </ns3:TrackPointExtension>
        </extensions>
      </trkpt>
      <trkpt lat="42.606266923248767852783203125" lon="2.73860489018261432647705078125">
        <ele>180.8000030517578125</ele>
        <time>2023-08-19T17:25:10.000Z</time>
        <extensions>
          <ns3:TrackPointExtension>
            <ns3:hr>154</ns3:hr>
            <ns3:cad>82</ns3:cad>
          </ns3:TrackPointExtension>
        </extensions>
      </trkpt>
      <trkpt lat="42.60627471841871738433837890625" lon="2.7385771460831165313720703125">
        <ele>180.8000030517578125</ele>
        <time>2023-08-19T17:25:11.000Z</time>
        <extensions>
          <ns3:TrackPointExtension>
            <ns3:hr>154</ns3:hr>
            <ns3:cad>82</ns3:cad>
          </ns3:TrackPointExtension>
        </extensions>
      </trkpt>
      <trkpt lat="42.606285028159618377685546875" lon="2.7385422773659229278564453125">
        <ele>180.8000030517578125</ele>
        <time>2023-08-19T17:25:12.000Z</time>
        <extensions>
          <ns3:TrackPointExtension>
            <ns3:hr>155</ns3:hr>
            <ns3:cad>82</ns3:cad>
          </ns3:TrackPointExtension>
        </extensions>
      </trkpt>
      <trkpt lat="42.60629500262439250946044921875" lon="2.738510258495807647705078125">
        <ele>181</ele>
        <time>2023-08-19T17:25:13.000Z</time>
        <extensions>
          <ns3:TrackPointExtension>
            <ns3:hr>155</ns3:hr>
            <ns3:cad>82</ns3:cad>
          </ns3:TrackPointExtension>
        </extensions>
      </trkpt>
      <trkpt lat="42.60630405507981777191162109375" lon="2.7384805865585803985595703125">
        <ele>181.1999969482421875</ele>
        <time>2023-08-19T17:25:14.000Z</time>
        <extensions>
          <ns3:TrackPointExtension>
            <ns3:hr>155</ns3:hr>
            <ns3:cad>82</ns3:cad>
          </ns3:TrackPointExtension>
        </extensions>
      </trkpt>
      <trkpt lat="42.6063140295445919036865234375" lon="2.73844487965106964111328125">
        <ele>181.399993896484375</ele>
        <time>2023-08-19T17:25:15.000Z</time>
        <extensions>
          <ns3:TrackPointExtension>
            <ns3:hr>155</ns3:hr>
            <ns3:cad>82</ns3:cad>
          </ns3:TrackPointExtension>
        </extensions>
      </trkpt>
      <trkpt lat="42.6063215732574462890625" lon="2.7384175546467304229736328125">
        <ele>181.600006103515625</ele>
        <time>2023-08-19T17:25:16.000Z</time>
        <extensions>
          <ns3:TrackPointExtension>
            <ns3:hr>155</ns3:hr>
            <ns3:cad>82</ns3:cad>
          </ns3:TrackPointExtension>
        </extensions>
      </trkpt>
      <trkpt lat="42.60632819496095180511474609375" lon="2.73838427849113941192626953125">
        <ele>181.8000030517578125</ele>
        <time>2023-08-19T17:25:17.000Z</time>
        <extensions>
          <ns3:TrackPointExtension>
            <ns3:hr>155</ns3:hr>
            <ns3:cad>82</ns3:cad>
          </ns3:TrackPointExtension>
        </extensions>
      </trkpt>
      <trkpt lat="42.6063378341495990753173828125" lon="2.73834689520299434661865234375">
        <ele>181.8000030517578125</ele>
        <time>2023-08-19T17:25:18.000Z</time>
        <extensions>
          <ns3:TrackPointExtension>
            <ns3:hr>155</ns3:hr>
            <ns3:cad>82</ns3:cad>
          </ns3:TrackPointExtension>
        </extensions>
      </trkpt>
      <trkpt lat="42.60634445585310459136962890625" lon="2.73831755854189395904541015625">
        <ele>182</ele>
        <time>2023-08-19T17:25:19.000Z</time>
        <extensions>
          <ns3:TrackPointExtension>
            <ns3:hr>156</ns3:hr>
            <ns3:cad>82</ns3:cad>
          </ns3:TrackPointExtension>
        </extensions>
      </trkpt>
      <trkpt lat="42.606348060071468353271484375" lon="2.738284282386302947998046875">
        <ele>182</ele>
        <time>2023-08-19T17:25:20.000Z</time>
        <extensions>
          <ns3:TrackPointExtension>
            <ns3:hr>156</ns3:hr>
            <ns3:cad>82</ns3:cad>
          </ns3:TrackPointExtension>
        </extensions>
      </trkpt>
      <trkpt lat="42.60635065846145153045654296875" lon="2.73824363015592098236083984375">
        <ele>182.1999969482421875</ele>
        <time>2023-08-19T17:25:21.000Z</time>
        <extensions>
          <ns3:TrackPointExtension>
            <ns3:hr>156</ns3:hr>
            <ns3:cad>82</ns3:cad>
          </ns3:TrackPointExtension>
        </extensions>
      </trkpt>
      <trkpt lat="42.60634982027113437652587890625" lon="2.73820624686777591705322265625">
        <ele>182.1999969482421875</ele>
        <time>2023-08-19T17:25:22.000Z</time>
        <extensions>
          <ns3:TrackPointExtension>
            <ns3:hr>156</ns3:hr>
            <ns3:cad>81</ns3:cad>
          </ns3:TrackPointExtension>
        </extensions>
      </trkpt>
      <trkpt lat="42.60634328238666057586669921875" lon="2.738170959055423736572265625">
        <ele>182.1999969482421875</ele>
        <time>2023-08-19T17:25:23.000Z</time>
        <extensions>
          <ns3:TrackPointExtension>
            <ns3:hr>156</ns3:hr>
            <ns3:cad>81</ns3:cad>
          </ns3:TrackPointExtension>
        </extensions>
      </trkpt>
      <trkpt lat="42.60633775033056735992431640625" lon="2.73813910782337188720703125">
        <ele>182.1999969482421875</ele>
        <time>2023-08-19T17:25:24.000Z</time>
        <extensions>
          <ns3:TrackPointExtension>
            <ns3:hr>156</ns3:hr>
            <ns3:cad>81</ns3:cad>
          </ns3:TrackPointExtension>
        </extensions>
      </trkpt>
      <trkpt lat="42.60633406229317188262939453125" lon="2.738114632666110992431640625">
        <ele>182.1999969482421875</ele>
        <time>2023-08-19T17:25:25.000Z</time>
        <extensions>
          <ns3:TrackPointExtension>
            <ns3:hr>156</ns3:hr>
            <ns3:cad>82</ns3:cad>
          </ns3:TrackPointExtension>
        </extensions>
      </trkpt>
      <trkpt lat="42.6063334755599498748779296875" lon="2.73808219470083713531494140625">
        <ele>182.399993896484375</ele>
        <time>2023-08-19T17:25:26.000Z</time>
        <extensions>
          <ns3:TrackPointExtension>
            <ns3:hr>156</ns3:hr>
            <ns3:cad>82</ns3:cad>
          </ns3:TrackPointExtension>
        </extensions>
      </trkpt>
      <trkpt lat="42.60633255355060100555419921875" lon="2.73805185221135616302490234375">
        <ele>182.399993896484375</ele>
        <time>2023-08-19T17:25:27.000Z</time>
        <extensions>
          <ns3:TrackPointExtension>
            <ns3:hr>156</ns3:hr>
            <ns3:cad>82</ns3:cad>
          </ns3:TrackPointExtension>
        </extensions>
      </trkpt>
      <trkpt lat="42.60632635094225406646728515625" lon="2.73801832459867000579833984375">
        <ele>182.600006103515625</ele>
        <time>2023-08-19T17:25:28.000Z</time>
        <extensions>
          <ns3:TrackPointExtension>
            <ns3:hr>156</ns3:hr>
            <ns3:cad>82</ns3:cad>
          </ns3:TrackPointExtension>
        </extensions>
      </trkpt>
      <trkpt lat="42.60632333345711231231689453125" lon="2.73798127658665180206298828125">
        <ele>182.600006103515625</ele>
        <time>2023-08-19T17:25:29.000Z</time>
        <extensions>
          <ns3:TrackPointExtension>
            <ns3:hr>156</ns3:hr>
            <ns3:cad>82</ns3:cad>
          </ns3:TrackPointExtension>
        </extensions>
      </trkpt>
      <trkpt lat="42.6063203997910022735595703125" lon="2.73794892244040966033935546875">
        <ele>182.600006103515625</ele>
        <time>2023-08-19T17:25:30.000Z</time>
        <extensions>
          <ns3:TrackPointExtension>
            <ns3:hr>156</ns3:hr>
            <ns3:cad>82</ns3:cad>
          </ns3:TrackPointExtension>
        </extensions>
      </trkpt>
      <trkpt lat="42.606311850249767303466796875" lon="2.73791246116161346435546875">
        <ele>182.600006103515625</ele>
        <time>2023-08-19T17:25:31.000Z</time>
        <extensions>
          <ns3:TrackPointExtension>
            <ns3:hr>156</ns3:hr>
            <ns3:cad>82</ns3:cad>
          </ns3:TrackPointExtension>
        </extensions>
      </trkpt>
      <trkpt lat="42.6063100062310695648193359375" lon="2.7378750778734683990478515625">
        <ele>182.600006103515625</ele>
        <time>2023-08-19T17:25:32.000Z</time>
        <extensions>
          <ns3:TrackPointExtension>
            <ns3:hr>156</ns3:hr>
            <ns3:cad>82</ns3:cad>
          </ns3:TrackPointExtension>
        </extensions>
      </trkpt>
      <trkpt lat="42.60630615055561065673828125" lon="2.737842388451099395751953125">
        <ele>182.600006103515625</ele>
        <time>2023-08-19T17:25:33.000Z</time>
        <extensions>
          <ns3:TrackPointExtension>
            <ns3:hr>156</ns3:hr>
            <ns3:cad>82</ns3:cad>
          </ns3:TrackPointExtension>
        </extensions>
      </trkpt>
      <trkpt lat="42.60630355216562747955322265625" lon="2.7378039993345737457275390625">
        <ele>182.8000030517578125</ele>
        <time>2023-08-19T17:25:34.000Z</time>
        <extensions>
          <ns3:TrackPointExtension>
            <ns3:hr>156</ns3:hr>
            <ns3:cad>82</ns3:cad>
          </ns3:TrackPointExtension>
        </extensions>
      </trkpt>
      <trkpt lat="42.60630212724208831787109375" lon="2.7377724833786487579345703125">
        <ele>183</ele>
        <time>2023-08-19T17:25:35.000Z</time>
        <extensions>
          <ns3:TrackPointExtension>
            <ns3:hr>156</ns3:hr>
            <ns3:cad>82</ns3:cad>
          </ns3:TrackPointExtension>
        </extensions>
      </trkpt>
      <trkpt lat="42.6062952540814876556396484375" lon="2.7377399615943431854248046875">
        <ele>183</ele>
        <time>2023-08-19T17:25:36.000Z</time>
        <extensions>
          <ns3:TrackPointExtension>
            <ns3:hr>156</ns3:hr>
            <ns3:cad>82</ns3:cad>
          </ns3:TrackPointExtension>
        </extensions>
      </trkpt>
      <trkpt lat="42.60629466734826564788818359375" lon="2.73770391941070556640625">
        <ele>183</ele>
        <time>2023-08-19T17:25:37.000Z</time>
        <extensions>
          <ns3:TrackPointExtension>
            <ns3:hr>156</ns3:hr>
            <ns3:cad>82</ns3:cad>
          </ns3:TrackPointExtension>
        </extensions>
      </trkpt>
      <trkpt lat="42.606291733682155609130859375" lon="2.7376735769212245941162109375">
        <ele>183</ele>
        <time>2023-08-19T17:25:38.000Z</time>
        <extensions>
          <ns3:TrackPointExtension>
            <ns3:hr>157</ns3:hr>
            <ns3:cad>82</ns3:cad>
          </ns3:TrackPointExtension>
        </extensions>
      </trkpt>
      <trkpt lat="42.60628603398799896240234375" lon="2.73764080367982387542724609375">
        <ele>183</ele>
        <time>2023-08-19T17:25:39.000Z</time>
        <extensions>
          <ns3:TrackPointExtension>
            <ns3:hr>157</ns3:hr>
            <ns3:cad>82</ns3:cad>
          </ns3:TrackPointExtension>
        </extensions>
      </trkpt>
      <trkpt lat="42.6062841899693012237548828125" lon="2.73760425858199596405029296875">
        <ele>183.1999969482421875</ele>
        <time>2023-08-19T17:25:40.000Z</time>
        <extensions>
          <ns3:TrackPointExtension>
            <ns3:hr>157</ns3:hr>
            <ns3:cad>82</ns3:cad>
          </ns3:TrackPointExtension>
        </extensions>
      </trkpt>
      <trkpt lat="42.60627840645611286163330078125" lon="2.7375746704638004302978515625">
        <ele>183.1999969482421875</ele>
        <time>2023-08-19T17:25:41.000Z</time>
        <extensions>
          <ns3:TrackPointExtension>
            <ns3:hr>157</ns3:hr>
            <ns3:cad>82</ns3:cad>
          </ns3:TrackPointExtension>
        </extensions>
      </trkpt>
      <trkpt lat="42.60627220384776592254638671875" lon="2.73754809983074665069580078125">
        <ele>183.1999969482421875</ele>
        <time>2023-08-19T17:25:42.000Z</time>
        <extensions>
          <ns3:TrackPointExtension>
            <ns3:hr>157</ns3:hr>
            <ns3:cad>82</ns3:cad>
          </ns3:TrackPointExtension>
        </extensions>
      </trkpt>
      <trkpt lat="42.60626415722072124481201171875" lon="2.73751691915094852447509765625">
        <ele>183.1999969482421875</ele>
        <time>2023-08-19T17:25:43.000Z</time>
        <extensions>
          <ns3:TrackPointExtension>
            <ns3:hr>157</ns3:hr>
            <ns3:cad>81</ns3:cad>
          </ns3:TrackPointExtension>
        </extensions>
      </trkpt>
      <trkpt lat="42.6062530092895030975341796875" lon="2.73748733103275299072265625">
        <ele>183.399993896484375</ele>
        <time>2023-08-19T17:25:44.000Z</time>
        <extensions>
          <ns3:TrackPointExtension>
            <ns3:hr>157</ns3:hr>
            <ns3:cad>81</ns3:cad>
          </ns3:TrackPointExtension>
        </extensions>
      </trkpt>
      <trkpt lat="42.6062416099011898040771484375" lon="2.73745807819068431854248046875">
        <ele>183.600006103515625</ele>
        <time>2023-08-19T17:25:45.000Z</time>
        <extensions>
          <ns3:TrackPointExtension>
            <ns3:hr>157</ns3:hr>
            <ns3:cad>81</ns3:cad>
          </ns3:TrackPointExtension>
        </extensions>
      </trkpt>
      <trkpt lat="42.60623238980770111083984375" lon="2.73742522113025188446044921875">
        <ele>183.8000030517578125</ele>
        <time>2023-08-19T17:25:46.000Z</time>
        <extensions>
          <ns3:TrackPointExtension>
            <ns3:hr>157</ns3:hr>
            <ns3:cad>80</ns3:cad>
          </ns3:TrackPointExtension>
        </extensions>
      </trkpt>
      <trkpt lat="42.606222666800022125244140625" lon="2.737395130097866058349609375">
        <ele>183.8000030517578125</ele>
        <time>2023-08-19T17:25:47.000Z</time>
        <extensions>
          <ns3:TrackPointExtension>
            <ns3:hr>157</ns3:hr>
            <ns3:cad>80</ns3:cad>
          </ns3:TrackPointExtension>
        </extensions>
      </trkpt>
      <trkpt lat="42.606214620172977447509765625" lon="2.737367637455463409423828125">
        <ele>184</ele>
        <time>2023-08-19T17:25:48.000Z</time>
        <extensions>
          <ns3:TrackPointExtension>
            <ns3:hr>157</ns3:hr>
            <ns3:cad>80</ns3:cad>
          </ns3:TrackPointExtension>
        </extensions>
      </trkpt>
      <trkpt lat="42.6062067411839962005615234375" lon="2.73733503185212612152099609375">
        <ele>184.1999969482421875</ele>
        <time>2023-08-19T17:25:49.000Z</time>
        <extensions>
          <ns3:TrackPointExtension>
            <ns3:hr>157</ns3:hr>
            <ns3:cad>80</ns3:cad>
          </ns3:TrackPointExtension>
        </extensions>
      </trkpt>
      <trkpt lat="42.60619911365211009979248046875" lon="2.73730619810521602630615234375">
        <ele>184.600006103515625</ele>
        <time>2023-08-19T17:25:50.000Z</time>
        <extensions>
          <ns3:TrackPointExtension>
            <ns3:hr>157</ns3:hr>
            <ns3:cad>80</ns3:cad>
          </ns3:TrackPointExtension>
        </extensions>
      </trkpt>
      <trkpt lat="42.60619374923408031463623046875" lon="2.737277448177337646484375">
        <ele>184.8000030517578125</ele>
        <time>2023-08-19T17:25:51.000Z</time>
        <extensions>
          <ns3:TrackPointExtension>
            <ns3:hr>157</ns3:hr>
            <ns3:cad>81</ns3:cad>
          </ns3:TrackPointExtension>
        </extensions>
      </trkpt>
      <trkpt lat="42.60619358159601688385009765625" lon="2.7372467704117298126220703125">
        <ele>185</ele>
        <time>2023-08-19T17:25:52.000Z</time>
        <extensions>
          <ns3:TrackPointExtension>
            <ns3:hr>157</ns3:hr>
            <ns3:cad>81</ns3:cad>
          </ns3:TrackPointExtension>
        </extensions>
      </trkpt>
      <trkpt lat="42.6061906479299068450927734375" lon="2.73721869103610515594482421875">
        <ele>185.399993896484375</ele>
        <time>2023-08-19T17:25:53.000Z</time>
        <extensions>
          <ns3:TrackPointExtension>
            <ns3:hr>157</ns3:hr>
            <ns3:cad>81</ns3:cad>
          </ns3:TrackPointExtension>
        </extensions>
      </trkpt>
      <trkpt lat="42.60619207285344600677490234375" lon="2.737182565033435821533203125">
        <ele>185.399993896484375</ele>
        <time>2023-08-19T17:25:54.000Z</time>
        <extensions>
          <ns3:TrackPointExtension>
            <ns3:hr>157</ns3:hr>
            <ns3:cad>81</ns3:cad>
          </ns3:TrackPointExtension>
        </extensions>
      </trkpt>
      <trkpt lat="42.6061960123479366302490234375" lon="2.7371485345065593719482421875">
        <ele>185.8000030517578125</ele>
        <time>2023-08-19T17:25:55.000Z</time>
        <extensions>
          <ns3:TrackPointExtension>
            <ns3:hr>157</ns3:hr>
            <ns3:cad>81</ns3:cad>
          </ns3:TrackPointExtension>
        </extensions>
      </trkpt>
      <trkpt lat="42.606200873851776123046875" lon="2.73712146095931529998779296875">
        <ele>185.8000030517578125</ele>
        <time>2023-08-19T17:25:56.000Z</time>
        <extensions>
          <ns3:TrackPointExtension>
            <ns3:hr>157</ns3:hr>
            <ns3:cad>81</ns3:cad>
          </ns3:TrackPointExtension>
        </extensions>
      </trkpt>
      <trkpt lat="42.6062075793743133544921875" lon="2.73708709515631198883056640625">
        <ele>185.8000030517578125</ele>
        <time>2023-08-19T17:25:57.000Z</time>
        <extensions>
          <ns3:TrackPointExtension>
            <ns3:hr>157</ns3:hr>
            <ns3:cad>81</ns3:cad>
          </ns3:TrackPointExtension>
        </extensions>
      </trkpt>
      <trkpt lat="42.60621227324008941650390625" lon="2.73705608211457729339599609375">
        <ele>186</ele>
        <time>2023-08-19T17:25:58.000Z</time>
        <extensions>
          <ns3:TrackPointExtension>
            <ns3:hr>157</ns3:hr>
            <ns3:cad>81</ns3:cad>
          </ns3:TrackPointExtension>
        </extensions>
      </trkpt>
      <trkpt lat="42.606212608516216278076171875" lon="2.7370295114815235137939453125">
        <ele>186</ele>
        <time>2023-08-19T17:25:59.000Z</time>
        <extensions>
          <ns3:TrackPointExtension>
            <ns3:hr>157</ns3:hr>
            <ns3:cad>81</ns3:cad>
          </ns3:TrackPointExtension>
        </extensions>
      </trkpt>
      <trkpt lat="42.6062117703258991241455078125" lon="2.73699137382209300994873046875">
        <ele>186</ele>
        <time>2023-08-19T17:26:00.000Z</time>
        <extensions>
          <ns3:TrackPointExtension>
            <ns3:hr>157</ns3:hr>
            <ns3:cad>81</ns3:cad>
          </ns3:TrackPointExtension>
        </extensions>
      </trkpt>
      <trkpt lat="42.6062107644975185394287109375" lon="2.73696027696132659912109375">
        <ele>186</ele>
        <time>2023-08-19T17:26:01.000Z</time>
        <extensions>
          <ns3:TrackPointExtension>
            <ns3:hr>157</ns3:hr>
            <ns3:cad>82</ns3:cad>
          </ns3:TrackPointExtension>
        </extensions>
      </trkpt>
      <trkpt lat="42.6062047295272350311279296875" lon="2.7369306050240993499755859375">
        <ele>186</ele>
        <time>2023-08-19T17:26:02.000Z</time>
        <extensions>
          <ns3:TrackPointExtension>
            <ns3:hr>157</ns3:hr>
            <ns3:cad>81</ns3:cad>
          </ns3:TrackPointExtension>
        </extensions>
      </trkpt>
      <trkpt lat="42.6062048971652984619140625" lon="2.7368970774114131927490234375">
        <ele>186</ele>
        <time>2023-08-19T17:26:03.000Z</time>
        <extensions>
          <ns3:TrackPointExtension>
            <ns3:hr>157</ns3:hr>
            <ns3:cad>81</ns3:cad>
          </ns3:TrackPointExtension>
        </extensions>
      </trkpt>
      <trkpt lat="42.60620154440402984619140625" lon="2.736870758235454559326171875">
        <ele>186.1999969482421875</ele>
        <time>2023-08-19T17:26:04.000Z</time>
        <extensions>
          <ns3:TrackPointExtension>
            <ns3:hr>158</ns3:hr>
            <ns3:cad>81</ns3:cad>
          </ns3:TrackPointExtension>
        </extensions>
      </trkpt>
      <trkpt lat="42.60619743727147579193115234375" lon="2.73684133775532245635986328125">
        <ele>186.1999969482421875</ele>
        <time>2023-08-19T17:26:05.000Z</time>
        <extensions>
          <ns3:TrackPointExtension>
            <ns3:hr>158</ns3:hr>
            <ns3:cad>81</ns3:cad>
          </ns3:TrackPointExtension>
        </extensions>
      </trkpt>
      <trkpt lat="42.60619374923408031463623046875" lon="2.73680831305682659149169921875">
        <ele>186.600006103515625</ele>
        <time>2023-08-19T17:26:06.000Z</time>
        <extensions>
          <ns3:TrackPointExtension>
            <ns3:hr>158</ns3:hr>
            <ns3:cad>81</ns3:cad>
          </ns3:TrackPointExtension>
        </extensions>
      </trkpt>
      <trkpt lat="42.6061872951686382293701171875" lon="2.73677947930991649627685546875">
        <ele>186.600006103515625</ele>
        <time>2023-08-19T17:26:07.000Z</time>
        <extensions>
          <ns3:TrackPointExtension>
            <ns3:hr>158</ns3:hr>
            <ns3:cad>81</ns3:cad>
          </ns3:TrackPointExtension>
        </extensions>
      </trkpt>
      <trkpt lat="42.606178410351276397705078125" lon="2.736751735210418701171875">
        <ele>186.8000030517578125</ele>
        <time>2023-08-19T17:26:08.000Z</time>
        <extensions>
          <ns3:TrackPointExtension>
            <ns3:hr>158</ns3:hr>
            <ns3:cad>81</ns3:cad>
          </ns3:TrackPointExtension>
        </extensions>
      </trkpt>
      <trkpt lat="42.60617472231388092041015625" lon="2.73672114126384258270263671875">
        <ele>186.8000030517578125</ele>
        <time>2023-08-19T17:26:09.000Z</time>
        <extensions>
          <ns3:TrackPointExtension>
            <ns3:hr>158</ns3:hr>
            <ns3:cad>80</ns3:cad>
          </ns3:TrackPointExtension>
        </extensions>
      </trkpt>
      <trkpt lat="42.606169693171977996826171875" lon="2.73669281043112277984619140625">
        <ele>187</ele>
        <time>2023-08-19T17:26:10.000Z</time>
        <extensions>
          <ns3:TrackPointExtension>
            <ns3:hr>158</ns3:hr>
            <ns3:cad>80</ns3:cad>
          </ns3:TrackPointExtension>
        </extensions>
      </trkpt>
      <trkpt lat="42.60616675950586795806884765625" lon="2.73666330613195896148681640625">
        <ele>187.1999969482421875</ele>
        <time>2023-08-19T17:26:11.000Z</time>
        <extensions>
          <ns3:TrackPointExtension>
            <ns3:hr>158</ns3:hr>
            <ns3:cad>80</ns3:cad>
          </ns3:TrackPointExtension>
        </extensions>
      </trkpt>
      <trkpt lat="42.6061641611158847808837890625" lon="2.73662977851927280426025390625">
        <ele>187.399993896484375</ele>
        <time>2023-08-19T17:26:12.000Z</time>
        <extensions>
          <ns3:TrackPointExtension>
            <ns3:hr>158</ns3:hr>
            <ns3:cad>80</ns3:cad>
          </ns3:TrackPointExtension>
        </extensions>
      </trkpt>
      <trkpt lat="42.60616290383040904998779296875" lon="2.73660060949623584747314453125">
        <ele>187.600006103515625</ele>
        <time>2023-08-19T17:26:13.000Z</time>
        <extensions>
          <ns3:TrackPointExtension>
            <ns3:hr>158</ns3:hr>
            <ns3:cad>80</ns3:cad>
          </ns3:TrackPointExtension>
        </extensions>
      </trkpt>
      <trkpt lat="42.60615988634526729583740234375" lon="2.736566998064517974853515625">
        <ele>187.600006103515625</ele>
        <time>2023-08-19T17:26:14.000Z</time>
        <extensions>
          <ns3:TrackPointExtension>
            <ns3:hr>158</ns3:hr>
            <ns3:cad>81</ns3:cad>
          </ns3:TrackPointExtension>
        </extensions>
      </trkpt>
      <trkpt lat="42.6061581261456012725830078125" lon="2.73653221316635608673095703125">
        <ele>187.600006103515625</ele>
        <time>2023-08-19T17:26:15.000Z</time>
        <extensions>
          <ns3:TrackPointExtension>
            <ns3:hr>158</ns3:hr>
            <ns3:cad>81</ns3:cad>
          </ns3:TrackPointExtension>
        </extensions>
      </trkpt>
      <trkpt lat="42.60615720413625240325927734375" lon="2.7365044690668582916259765625">
        <ele>187.8000030517578125</ele>
        <time>2023-08-19T17:26:16.000Z</time>
        <extensions>
          <ns3:TrackPointExtension>
            <ns3:hr>158</ns3:hr>
            <ns3:cad>82</ns3:cad>
          </ns3:TrackPointExtension>
        </extensions>
      </trkpt>
      <trkpt lat="42.60616055689752101898193359375" lon="2.736475132405757904052734375">
        <ele>187.8000030517578125</ele>
        <time>2023-08-19T17:26:17.000Z</time>
        <extensions>
          <ns3:TrackPointExtension>
            <ns3:hr>159</ns3:hr>
            <ns3:cad>82</ns3:cad>
          </ns3:TrackPointExtension>
        </extensions>
      </trkpt>
      <trkpt lat="42.6061594672501087188720703125" lon="2.73644738830626010894775390625">
        <ele>188</ele>
        <time>2023-08-19T17:26:18.000Z</time>
        <extensions>
          <ns3:TrackPointExtension>
            <ns3:hr>159</ns3:hr>
            <ns3:cad>81</ns3:cad>
          </ns3:TrackPointExtension>
        </extensions>
      </trkpt>
      <trkpt lat="42.60615770705044269561767578125" lon="2.736418135464191436767578125">
        <ele>188.1999969482421875</ele>
        <time>2023-08-19T17:26:19.000Z</time>
        <extensions>
          <ns3:TrackPointExtension>
            <ns3:hr>159</ns3:hr>
            <ns3:cad>81</ns3:cad>
          </ns3:TrackPointExtension>
        </extensions>
      </trkpt>
      <trkpt lat="42.60615820996463298797607421875" lon="2.73638360202312469482421875">
        <ele>188.1999969482421875</ele>
        <time>2023-08-19T17:26:20.000Z</time>
        <extensions>
          <ns3:TrackPointExtension>
            <ns3:hr>159</ns3:hr>
            <ns3:cad>81</ns3:cad>
          </ns3:TrackPointExtension>
        </extensions>
      </trkpt>
      <trkpt lat="42.606163322925567626953125" lon="2.7363556064665317535400390625">
        <ele>188.399993896484375</ele>
        <time>2023-08-19T17:26:21.000Z</time>
        <extensions>
          <ns3:TrackPointExtension>
            <ns3:hr>159</ns3:hr>
            <ns3:cad>81</ns3:cad>
          </ns3:TrackPointExtension>
        </extensions>
      </trkpt>
      <trkpt lat="42.606161646544933319091796875" lon="2.73632568307220935821533203125">
        <ele>188.600006103515625</ele>
        <time>2023-08-19T17:26:22.000Z</time>
        <extensions>
          <ns3:TrackPointExtension>
            <ns3:hr>159</ns3:hr>
            <ns3:cad>81</ns3:cad>
          </ns3:TrackPointExtension>
        </extensions>
      </trkpt>
      <trkpt lat="42.60616759769618511199951171875" lon="2.73629232309758663177490234375">
        <ele>188.600006103515625</ele>
        <time>2023-08-19T17:26:23.000Z</time>
        <extensions>
          <ns3:TrackPointExtension>
            <ns3:hr>159</ns3:hr>
            <ns3:cad>81</ns3:cad>
          </ns3:TrackPointExtension>
        </extensions>
      </trkpt>
      <trkpt lat="42.60617178864777088165283203125" lon="2.73626022040843963623046875">
        <ele>188.8000030517578125</ele>
        <time>2023-08-19T17:26:24.000Z</time>
        <extensions>
          <ns3:TrackPointExtension>
            <ns3:hr>158</ns3:hr>
            <ns3:cad>80</ns3:cad>
          </ns3:TrackPointExtension>
        </extensions>
      </trkpt>
      <trkpt lat="42.60617673397064208984375" lon="2.73622593842446804046630859375">
        <ele>188.8000030517578125</ele>
        <time>2023-08-19T17:26:25.000Z</time>
        <extensions>
          <ns3:TrackPointExtension>
            <ns3:hr>158</ns3:hr>
            <ns3:cad>81</ns3:cad>
          </ns3:TrackPointExtension>
        </extensions>
      </trkpt>
      <trkpt lat="42.60618989355862140655517578125" lon="2.73619459010660648345947265625">
        <ele>188.8000030517578125</ele>
        <time>2023-08-19T17:26:26.000Z</time>
        <extensions>
          <ns3:TrackPointExtension>
            <ns3:hr>158</ns3:hr>
            <ns3:cad>81</ns3:cad>
          </ns3:TrackPointExtension>
        </extensions>
      </trkpt>
      <trkpt lat="42.60620179586112499237060546875" lon="2.736171372234821319580078125">
        <ele>189</ele>
        <time>2023-08-19T17:26:27.000Z</time>
        <extensions>
          <ns3:TrackPointExtension>
            <ns3:hr>158</ns3:hr>
            <ns3:cad>81</ns3:cad>
          </ns3:TrackPointExtension>
        </extensions>
      </trkpt>
      <trkpt lat="42.60622476227581501007080078125" lon="2.73615284822881221771240234375">
        <ele>189</ele>
        <time>2023-08-19T17:26:28.000Z</time>
        <extensions>
          <ns3:TrackPointExtension>
            <ns3:hr>158</ns3:hr>
            <ns3:cad>81</ns3:cad>
          </ns3:TrackPointExtension>
        </extensions>
      </trkpt>
      <trkpt lat="42.60624638758599758148193359375" lon="2.7361360006034374237060546875">
        <ele>189</ele>
        <time>2023-08-19T17:26:29.000Z</time>
        <extensions>
          <ns3:TrackPointExtension>
            <ns3:hr>158</ns3:hr>
            <ns3:cad>81</ns3:cad>
          </ns3:TrackPointExtension>
        </extensions>
      </trkpt>
      <trkpt lat="42.60626725852489471435546875" lon="2.73612267337739467620849609375">
        <ele>189.1999969482421875</ele>
        <time>2023-08-19T17:26:30.000Z</time>
        <extensions>
          <ns3:TrackPointExtension>
            <ns3:hr>158</ns3:hr>
            <ns3:cad>81</ns3:cad>
          </ns3:TrackPointExtension>
        </extensions>
      </trkpt>
      <trkpt lat="42.6062880456447601318359375" lon="2.7361173927783966064453125">
        <ele>189.1999969482421875</ele>
        <time>2023-08-19T17:26:31.000Z</time>
        <extensions>
          <ns3:TrackPointExtension>
            <ns3:hr>158</ns3:hr>
            <ns3:cad>81</ns3:cad>
          </ns3:TrackPointExtension>
        </extensions>
      </trkpt>
      <trkpt lat="42.6063053123652935028076171875" lon="2.73611714132130146026611328125">
        <ele>189.399993896484375</ele>
        <time>2023-08-19T17:26:32.000Z</time>
        <extensions>
          <ns3:TrackPointExtension>
            <ns3:hr>158</ns3:hr>
            <ns3:cad>81</ns3:cad>
          </ns3:TrackPointExtension>
        </extensions>
      </trkpt>
      <trkpt lat="42.606315873563289642333984375" lon="2.736119739711284637451171875">
        <ele>189.600006103515625</ele>
        <time>2023-08-19T17:26:33.000Z</time>
        <extensions>
          <ns3:TrackPointExtension>
            <ns3:hr>158</ns3:hr>
            <ns3:cad>81</ns3:cad>
          </ns3:TrackPointExtension>
        </extensions>
      </trkpt>
      <trkpt lat="42.6063224114477634429931640625" lon="2.73612183518707752227783203125">
        <ele>189.600006103515625</ele>
        <time>2023-08-19T17:26:34.000Z</time>
        <extensions>
          <ns3:TrackPointExtension>
            <ns3:hr>158</ns3:hr>
            <ns3:cad>81</ns3:cad>
          </ns3:TrackPointExtension>
        </extensions>
      </trkpt>
      <trkpt lat="42.6063153706490993499755859375" lon="2.73612082935869693756103515625">
        <ele>189.600006103515625</ele>
        <time>2023-08-19T17:26:35.000Z</time>
        <extensions>
          <ns3:TrackPointExtension>
            <ns3:hr>158</ns3:hr>
            <ns3:cad>80</ns3:cad>
          </ns3:TrackPointExtension>
        </extensions>
      </trkpt>
      <trkpt lat="42.606313526630401611328125" lon="2.7361165545880794525146484375">
        <ele>189.600006103515625</ele>
        <time>2023-08-19T17:26:36.000Z</time>
        <extensions>
          <ns3:TrackPointExtension>
            <ns3:hr>158</ns3:hr>
            <ns3:cad>79</ns3:cad>
          </ns3:TrackPointExtension>
        </extensions>
      </trkpt>
      <trkpt lat="42.60631084442138671875" lon="2.7361182309687137603759765625">
        <ele>189.600006103515625</ele>
        <time>2023-08-19T17:26:37.000Z</time>
        <extensions>
          <ns3:TrackPointExtension>
            <ns3:hr>158</ns3:hr>
            <ns3:cad>79</ns3:cad>
          </ns3:TrackPointExtension>
        </extensions>
      </trkpt>
      <trkpt lat="42.606308162212371826171875" lon="2.73612250573933124542236328125">
        <ele>189.600006103515625</ele>
        <time>2023-08-19T17:26:38.000Z</time>
        <extensions>
          <ns3:TrackPointExtension>
            <ns3:hr>157</ns3:hr>
            <ns3:cad>0</ns3:cad>
          </ns3:TrackPointExtension>
        </extensions>
      </trkpt>
      <trkpt lat="42.60630891658365726470947265625" lon="2.736124098300933837890625">
        <ele>189.600006103515625</ele>
        <time>2023-08-19T17:26:39.000Z</time>
        <extensions>
          <ns3:TrackPointExtension>
            <ns3:hr>156</ns3:hr>
            <ns3:cad>0</ns3:cad>
          </ns3:TrackPointExtension>
        </extensions>
      </trkpt>
      <trkpt lat="42.6063066534698009490966796875" lon="2.73612284101545810699462890625">
        <ele>189.600006103515625</ele>
        <time>2023-08-19T17:26:40.000Z</time>
        <extensions>
          <ns3:TrackPointExtension>
            <ns3:hr>156</ns3:hr>
            <ns3:cad>68</ns3:cad>
          </ns3:TrackPointExtension>
        </extensions>
      </trkpt>
      <trkpt lat="42.60630640201270580291748046875" lon="2.73612384684383869171142578125">
        <ele>189.600006103515625</ele>
        <time>2023-08-19T17:26:41.000Z</time>
        <extensions>
          <ns3:TrackPointExtension>
            <ns3:hr>155</ns3:hr>
            <ns3:cad>68</ns3:cad>
          </ns3:TrackPointExtension>
        </extensions>
      </trkpt>
      <trkpt lat="42.60630656965076923370361328125" lon="2.736123763024806976318359375">
        <ele>189.600006103515625</ele>
        <time>2023-08-19T17:26:42.000Z</time>
        <extensions>
          <ns3:TrackPointExtension>
            <ns3:hr>155</ns3:hr>
            <ns3:cad>0</ns3:cad>
          </ns3:TrackPointExtension>
        </extensions>
      </trkpt>
      <trkpt lat="42.60630640201270580291748046875" lon="2.7361229248344898223876953125">
        <ele>189.600006103515625</ele>
        <time>2023-08-19T17:26:43.000Z</time>
        <extensions>
          <ns3:TrackPointExtension>
            <ns3:hr>154</ns3:hr>
            <ns3:cad>0</ns3:cad>
          </ns3:TrackPointExtension>
        </extensions>
      </trkpt>
      <trkpt lat="42.60631126351654529571533203125" lon="2.73611563257873058319091796875">
        <ele>189.600006103515625</ele>
        <time>2023-08-19T17:26:44.000Z</time>
        <extensions>
          <ns3:TrackPointExtension>
            <ns3:hr>154</ns3:hr>
            <ns3:cad>25</ns3:cad>
          </ns3:TrackPointExtension>
        </extensions>
      </trkpt>
      <trkpt lat="42.60631260462105274200439453125" lon="2.73612367920577526092529296875">
        <ele>189.600006103515625</ele>
        <time>2023-08-19T17:26:45.000Z</time>
        <extensions>
          <ns3:TrackPointExtension>
            <ns3:hr>152</ns3:hr>
            <ns3:cad>25</ns3:cad>
          </ns3:TrackPointExtension>
        </extensions>
      </trkpt>
      <trkpt lat="42.6063093356788158416748046875" lon="2.736131139099597930908203125">
        <ele>189.8000030517578125</ele>
        <time>2023-08-19T17:26:46.000Z</time>
        <extensions>
          <ns3:TrackPointExtension>
            <ns3:hr>150</ns3:hr>
            <ns3:cad>29</ns3:cad>
          </ns3:TrackPointExtension>
        </extensions>
      </trkpt>
      <trkpt lat="42.6063170470297336578369140625" lon="2.7361490763723850250244140625">
        <ele>189.8000030517578125</ele>
        <time>2023-08-19T17:26:47.000Z</time>
        <extensions>
          <ns3:TrackPointExtension>
            <ns3:hr>151</ns3:hr>
            <ns3:cad>38</ns3:cad>
          </ns3:TrackPointExtension>
        </extensions>
      </trkpt>
      <trkpt lat="42.6063351519405841827392578125" lon="2.73618000559508800506591796875">
        <ele>189.8000030517578125</ele>
        <time>2023-08-19T17:26:48.000Z</time>
        <extensions>
          <ns3:TrackPointExtension>
            <ns3:hr>150</ns3:hr>
            <ns3:cad>45</ns3:cad>
          </ns3:TrackPointExtension>
        </extensions>
      </trkpt>
      <trkpt lat="42.60635686106979846954345703125" lon="2.736211605370044708251953125">
        <ele>189.8000030517578125</ele>
        <time>2023-08-19T17:26:49.000Z</time>
        <extensions>
          <ns3:TrackPointExtension>
            <ns3:hr>150</ns3:hr>
            <ns3:cad>67</ns3:cad>
          </ns3:TrackPointExtension>
        </extensions>
      </trkpt>
      <trkpt lat="42.6063770614564418792724609375" lon="2.73623063229024410247802734375">
        <ele>189.8000030517578125</ele>
        <time>2023-08-19T17:26:50.000Z</time>
        <extensions>
          <ns3:TrackPointExtension>
            <ns3:hr>152</ns3:hr>
            <ns3:cad>82</ns3:cad>
          </ns3:TrackPointExtension>
        </extensions>
      </trkpt>
      <trkpt lat="42.60640145279467105865478515625" lon="2.7362590469419956207275390625">
        <ele>190</ele>
        <time>2023-08-19T17:26:51.000Z</time>
        <extensions>
          <ns3:TrackPointExtension>
            <ns3:hr>152</ns3:hr>
            <ns3:cad>83</ns3:cad>
          </ns3:TrackPointExtension>
        </extensions>
      </trkpt>
      <trkpt lat="42.6064199768006801605224609375" lon="2.73628578521311283111572265625">
        <ele>190</ele>
        <time>2023-08-19T17:26:52.000Z</time>
        <extensions>
          <ns3:TrackPointExtension>
            <ns3:hr>153</ns3:hr>
            <ns3:cad>83</ns3:cad>
          </ns3:TrackPointExtension>
        </extensions>
      </trkpt>
      <trkpt lat="42.60644000954926013946533203125" lon="2.73631344549357891082763671875">
        <ele>190</ele>
        <time>2023-08-19T17:26:53.000Z</time>
        <extensions>
          <ns3:TrackPointExtension>
            <ns3:hr>153</ns3:hr>
            <ns3:cad>84</ns3:cad>
          </ns3:TrackPointExtension>
        </extensions>
      </trkpt>
      <trkpt lat="42.60645828209817409515380859375" lon="2.73634345270693302154541015625">
        <ele>190</ele>
        <time>2023-08-19T17:26:54.000Z</time>
        <extensions>
          <ns3:TrackPointExtension>
            <ns3:hr>153</ns3:hr>
            <ns3:cad>84</ns3:cad>
          </ns3:TrackPointExtension>
        </extensions>
      </trkpt>
      <trkpt lat="42.606476806104183197021484375" lon="2.73636692203581333160400390625">
        <ele>190.1999969482421875</ele>
        <time>2023-08-19T17:26:55.000Z</time>
        <extensions>
          <ns3:TrackPointExtension>
            <ns3:hr>153</ns3:hr>
            <ns3:cad>84</ns3:cad>
          </ns3:TrackPointExtension>
        </extensions>
      </trkpt>
      <trkpt lat="42.606494911015033721923828125" lon="2.736396007239818572998046875">
        <ele>190.1999969482421875</ele>
        <time>2023-08-19T17:26:56.000Z</time>
        <extensions>
          <ns3:TrackPointExtension>
            <ns3:hr>153</ns3:hr>
            <ns3:cad>83</ns3:cad>
          </ns3:TrackPointExtension>
        </extensions>
      </trkpt>
      <trkpt lat="42.60651343502104282379150390625" lon="2.7364250086247920989990234375">
        <ele>190.1999969482421875</ele>
        <time>2023-08-19T17:26:57.000Z</time>
        <extensions>
          <ns3:TrackPointExtension>
            <ns3:hr>153</ns3:hr>
            <ns3:cad>83</ns3:cad>
          </ns3:TrackPointExtension>
        </extensions>
      </trkpt>
      <trkpt lat="42.606532461941242218017578125" lon="2.7364504896104335784912109375">
        <ele>190.1999969482421875</ele>
        <time>2023-08-19T17:26:58.000Z</time>
        <extensions>
          <ns3:TrackPointExtension>
            <ns3:hr>153</ns3:hr>
            <ns3:cad>83</ns3:cad>
          </ns3:TrackPointExtension>
        </extensions>
      </trkpt>
      <trkpt lat="42.60655215941369533538818359375" lon="2.73647923953831195831298828125">
        <ele>190.1999969482421875</ele>
        <time>2023-08-19T17:26:59.000Z</time>
        <extensions>
          <ns3:TrackPointExtension>
            <ns3:hr>153</ns3:hr>
            <ns3:cad>83</ns3:cad>
          </ns3:TrackPointExtension>
        </extensions>
      </trkpt>
      <trkpt lat="42.6065715216100215911865234375" lon="2.73650505580008029937744140625">
        <ele>190.1999969482421875</ele>
        <time>2023-08-19T17:27:00.000Z</time>
        <extensions>
          <ns3:TrackPointExtension>
            <ns3:hr>153</ns3:hr>
            <ns3:cad>83</ns3:cad>
          </ns3:TrackPointExtension>
        </extensions>
      </trkpt>
      <trkpt lat="42.60659289546310901641845703125" lon="2.73653305135667324066162109375">
        <ele>190</ele>
        <time>2023-08-19T17:27:01.000Z</time>
        <extensions>
          <ns3:TrackPointExtension>
            <ns3:hr>153</ns3:hr>
            <ns3:cad>83</ns3:cad>
          </ns3:TrackPointExtension>
        </extensions>
      </trkpt>
      <trkpt lat="42.6066179573535919189453125" lon="2.73656372912228107452392578125">
        <ele>190</ele>
        <time>2023-08-19T17:27:02.000Z</time>
        <extensions>
          <ns3:TrackPointExtension>
            <ns3:hr>153</ns3:hr>
            <ns3:cad>83</ns3:cad>
          </ns3:TrackPointExtension>
        </extensions>
      </trkpt>
      <trkpt lat="42.60664184577763080596923828125" lon="2.73658351041376590728759765625">
        <ele>189.8000030517578125</ele>
        <time>2023-08-19T17:27:03.000Z</time>
        <extensions>
          <ns3:TrackPointExtension>
            <ns3:hr>153</ns3:hr>
            <ns3:cad>83</ns3:cad>
          </ns3:TrackPointExtension>
        </extensions>
      </trkpt>
      <trkpt lat="42.60667093098163604736328125" lon="2.736610583961009979248046875">
        <ele>189.600006103515625</ele>
        <time>2023-08-19T17:27:04.000Z</time>
        <extensions>
          <ns3:TrackPointExtension>
            <ns3:hr>152</ns3:hr>
            <ns3:cad>82</ns3:cad>
          </ns3:TrackPointExtension>
        </extensions>
      </trkpt>
      <trkpt lat="42.60669708251953125" lon="2.73663396947085857391357421875">
        <ele>189.600006103515625</ele>
        <time>2023-08-19T17:27:05.000Z</time>
        <extensions>
          <ns3:TrackPointExtension>
            <ns3:hr>152</ns3:hr>
            <ns3:cad>82</ns3:cad>
          </ns3:TrackPointExtension>
        </extensions>
      </trkpt>
      <trkpt lat="42.60672449134290218353271484375" lon="2.73665710352361202239990234375">
        <ele>189.600006103515625</ele>
        <time>2023-08-19T17:27:06.000Z</time>
        <extensions>
          <ns3:TrackPointExtension>
            <ns3:hr>152</ns3:hr>
            <ns3:cad>82</ns3:cad>
          </ns3:TrackPointExtension>
        </extensions>
      </trkpt>
      <trkpt lat="42.60675181634724140167236328125" lon="2.7366814948618412017822265625">
        <ele>189.600006103515625</ele>
        <time>2023-08-19T17:27:07.000Z</time>
        <extensions>
          <ns3:TrackPointExtension>
            <ns3:hr>152</ns3:hr>
            <ns3:cad>82</ns3:cad>
          </ns3:TrackPointExtension>
        </extensions>
      </trkpt>
      <trkpt lat="42.6067807339131832122802734375" lon="2.73670052178204059600830078125">
        <ele>189.399993896484375</ele>
        <time>2023-08-19T17:27:08.000Z</time>
        <extensions>
          <ns3:TrackPointExtension>
            <ns3:hr>152</ns3:hr>
            <ns3:cad>82</ns3:cad>
          </ns3:TrackPointExtension>
        </extensions>
      </trkpt>
      <trkpt lat="42.6068095676600933074951171875" lon="2.7367207221686840057373046875">
        <ele>189</ele>
        <time>2023-08-19T17:27:09.000Z</time>
        <extensions>
          <ns3:TrackPointExtension>
            <ns3:hr>152</ns3:hr>
            <ns3:cad>82</ns3:cad>
          </ns3:TrackPointExtension>
        </extensions>
      </trkpt>
      <trkpt lat="42.606839574873447418212890625" lon="2.73674343712627887725830078125">
        <ele>188.8000030517578125</ele>
        <time>2023-08-19T17:27:10.000Z</time>
        <extensions>
          <ns3:TrackPointExtension>
            <ns3:hr>152</ns3:hr>
            <ns3:cad>83</ns3:cad>
          </ns3:TrackPointExtension>
        </extensions>
      </trkpt>
      <trkpt lat="42.6068705879151821136474609375" lon="2.736760117113590240478515625">
        <ele>188.8000030517578125</ele>
        <time>2023-08-19T17:27:11.000Z</time>
        <extensions>
          <ns3:TrackPointExtension>
            <ns3:hr>152</ns3:hr>
            <ns3:cad>83</ns3:cad>
          </ns3:TrackPointExtension>
        </extensions>
      </trkpt>
      <trkpt lat="42.60690386407077312469482421875" lon="2.7367827482521533966064453125">
        <ele>188.600006103515625</ele>
        <time>2023-08-19T17:27:12.000Z</time>
        <extensions>
          <ns3:TrackPointExtension>
            <ns3:hr>152</ns3:hr>
            <ns3:cad>83</ns3:cad>
          </ns3:TrackPointExtension>
        </extensions>
      </trkpt>
      <trkpt lat="42.60693001560866832733154296875" lon="2.7367998473346233367919921875">
        <ele>188.600006103515625</ele>
        <time>2023-08-19T17:27:13.000Z</time>
        <extensions>
          <ns3:TrackPointExtension>
            <ns3:hr>152</ns3:hr>
            <ns3:cad>82</ns3:cad>
          </ns3:TrackPointExtension>
        </extensions>
      </trkpt>
      <trkpt lat="42.60695717297494411468505859375" lon="2.73681409657001495361328125">
        <ele>188.399993896484375</ele>
        <time>2023-08-19T17:27:14.000Z</time>
        <extensions>
          <ns3:TrackPointExtension>
            <ns3:hr>151</ns3:hr>
            <ns3:cad>82</ns3:cad>
          </ns3:TrackPointExtension>
        </extensions>
      </trkpt>
      <trkpt lat="42.6069842465221881866455078125" lon="2.7368389070034027099609375">
        <ele>188.1999969482421875</ele>
        <time>2023-08-19T17:27:15.000Z</time>
        <extensions>
          <ns3:TrackPointExtension>
            <ns3:hr>151</ns3:hr>
            <ns3:cad>82</ns3:cad>
          </ns3:TrackPointExtension>
        </extensions>
      </trkpt>
      <trkpt lat="42.60701023042201995849609375" lon="2.73686103522777557373046875">
        <ele>188</ele>
        <time>2023-08-19T17:27:16.000Z</time>
        <extensions>
          <ns3:TrackPointExtension>
            <ns3:hr>151</ns3:hr>
            <ns3:cad>82</ns3:cad>
          </ns3:TrackPointExtension>
        </extensions>
      </trkpt>
      <trkpt lat="42.60703973472118377685546875" lon="2.7368907071650028228759765625">
        <ele>187.8000030517578125</ele>
        <time>2023-08-19T17:27:17.000Z</time>
        <extensions>
          <ns3:TrackPointExtension>
            <ns3:hr>151</ns3:hr>
            <ns3:cad>83</ns3:cad>
          </ns3:TrackPointExtension>
        </extensions>
      </trkpt>
      <trkpt lat="42.60706881992518901824951171875" lon="2.73691996000707149505615234375">
        <ele>187.600006103515625</ele>
        <time>2023-08-19T17:27:18.000Z</time>
        <extensions>
          <ns3:TrackPointExtension>
            <ns3:hr>151</ns3:hr>
            <ns3:cad>83</ns3:cad>
          </ns3:TrackPointExtension>
        </extensions>
      </trkpt>
      <trkpt lat="42.6070915348827838897705078125" lon="2.7369493804872035980224609375">
        <ele>187.600006103515625</ele>
        <time>2023-08-19T17:27:19.000Z</time>
        <extensions>
          <ns3:TrackPointExtension>
            <ns3:hr>151</ns3:hr>
            <ns3:cad>84</ns3:cad>
          </ns3:TrackPointExtension>
        </extensions>
      </trkpt>
      <trkpt lat="42.60711693204939365386962890625" lon="2.73698869161307811737060546875">
        <ele>187.399993896484375</ele>
        <time>2023-08-19T17:27:20.000Z</time>
        <extensions>
          <ns3:TrackPointExtension>
            <ns3:hr>151</ns3:hr>
            <ns3:cad>84</ns3:cad>
          </ns3:TrackPointExtension>
        </extensions>
      </trkpt>
      <trkpt lat="42.60713470168411731719970703125" lon="2.73702607490122318267822265625">
        <ele>187.399993896484375</ele>
        <time>2023-08-19T17:27:21.000Z</time>
        <extensions>
          <ns3:TrackPointExtension>
            <ns3:hr>151</ns3:hr>
            <ns3:cad>83</ns3:cad>
          </ns3:TrackPointExtension>
        </extensions>
      </trkpt>
      <trkpt lat="42.60715641081333160400390625" lon="2.73706429637968540191650390625">
        <ele>187.1999969482421875</ele>
        <time>2023-08-19T17:27:22.000Z</time>
        <extensions>
          <ns3:TrackPointExtension>
            <ns3:hr>151</ns3:hr>
            <ns3:cad>84</ns3:cad>
          </ns3:TrackPointExtension>
        </extensions>
      </trkpt>
      <trkpt lat="42.60717661119997501373291015625" lon="2.73710603825747966766357421875">
        <ele>187.1999969482421875</ele>
        <time>2023-08-19T17:27:23.000Z</time>
        <extensions>
          <ns3:TrackPointExtension>
            <ns3:hr>151</ns3:hr>
            <ns3:cad>84</ns3:cad>
          </ns3:TrackPointExtension>
        </extensions>
      </trkpt>
      <trkpt lat="42.60719723068177700042724609375" lon="2.737136296927928924560546875">
        <ele>187</ele>
        <time>2023-08-19T17:27:24.000Z</time>
        <extensions>
          <ns3:TrackPointExtension>
            <ns3:hr>151</ns3:hr>
            <ns3:cad>84</ns3:cad>
          </ns3:TrackPointExtension>
        </extensions>
      </trkpt>
      <trkpt lat="42.60721818543970584869384765625" lon="2.7371720038354396820068359375">
        <ele>186.8000030517578125</ele>
        <time>2023-08-19T17:27:25.000Z</time>
        <extensions>
          <ns3:TrackPointExtension>
            <ns3:hr>151</ns3:hr>
            <ns3:cad>84</ns3:cad>
          </ns3:TrackPointExtension>
        </extensions>
      </trkpt>
      <trkpt lat="42.60723595507442951202392578125" lon="2.73720377124845981597900390625">
        <ele>186.8000030517578125</ele>
        <time>2023-08-19T17:27:26.000Z</time>
        <extensions>
          <ns3:TrackPointExtension>
            <ns3:hr>151</ns3:hr>
            <ns3:cad>84</ns3:cad>
          </ns3:TrackPointExtension>
        </extensions>
      </trkpt>
      <trkpt lat="42.6072561554610729217529296875" lon="2.7372333593666553497314453125">
        <ele>186.399993896484375</ele>
        <time>2023-08-19T17:27:27.000Z</time>
        <extensions>
          <ns3:TrackPointExtension>
            <ns3:hr>151</ns3:hr>
            <ns3:cad>84</ns3:cad>
          </ns3:TrackPointExtension>
        </extensions>
      </trkpt>
      <trkpt lat="42.6072772778570652008056640625" lon="2.73726546205580234527587890625">
        <ele>186.1999969482421875</ele>
        <time>2023-08-19T17:27:28.000Z</time>
        <extensions>
          <ns3:TrackPointExtension>
            <ns3:hr>152</ns3:hr>
            <ns3:cad>84</ns3:cad>
          </ns3:TrackPointExtension>
        </extensions>
      </trkpt>
      <trkpt lat="42.60730066336691379547119140625" lon="2.73729178123176097869873046875">
        <ele>186.1999969482421875</ele>
        <time>2023-08-19T17:27:29.000Z</time>
        <extensions>
          <ns3:TrackPointExtension>
            <ns3:hr>152</ns3:hr>
            <ns3:cad>84</ns3:cad>
          </ns3:TrackPointExtension>
        </extensions>
      </trkpt>
      <trkpt lat="42.6073287427425384521484375" lon="2.73732908070087432861328125">
        <ele>186</ele>
        <time>2023-08-19T17:27:30.000Z</time>
        <extensions>
          <ns3:TrackPointExtension>
            <ns3:hr>152</ns3:hr>
            <ns3:cad>84</ns3:cad>
          </ns3:TrackPointExtension>
        </extensions>
      </trkpt>
      <trkpt lat="42.60734952986240386962890625" lon="2.737354896962642669677734375">
        <ele>186</ele>
        <time>2023-08-19T17:27:31.000Z</time>
        <extensions>
          <ns3:TrackPointExtension>
            <ns3:hr>152</ns3:hr>
            <ns3:cad>84</ns3:cad>
          </ns3:TrackPointExtension>
        </extensions>
      </trkpt>
      <trkpt lat="42.60737123899161815643310546875" lon="2.73738029412925243377685546875">
        <ele>186</ele>
        <time>2023-08-19T17:27:32.000Z</time>
        <extensions>
          <ns3:TrackPointExtension>
            <ns3:hr>152</ns3:hr>
            <ns3:cad>84</ns3:cad>
          </ns3:TrackPointExtension>
        </extensions>
      </trkpt>
      <trkpt lat="42.607394792139530181884765625" lon="2.737411893904209136962890625">
        <ele>186</ele>
        <time>2023-08-19T17:27:33.000Z</time>
        <extensions>
          <ns3:TrackPointExtension>
            <ns3:hr>152</ns3:hr>
            <ns3:cad>83</ns3:cad>
          </ns3:TrackPointExtension>
        </extensions>
      </trkpt>
      <trkpt lat="42.60741733945906162261962890625" lon="2.73743645288050174713134765625">
        <ele>186.1999969482421875</ele>
        <time>2023-08-19T17:27:34.000Z</time>
        <extensions>
          <ns3:TrackPointExtension>
            <ns3:hr>152</ns3:hr>
            <ns3:cad>83</ns3:cad>
          </ns3:TrackPointExtension>
        </extensions>
      </trkpt>
      <trkpt lat="42.60744416154921054840087890625" lon="2.73747081868350505828857421875">
        <ele>186</ele>
        <time>2023-08-19T17:27:35.000Z</time>
        <extensions>
          <ns3:TrackPointExtension>
            <ns3:hr>153</ns3:hr>
            <ns3:cad>83</ns3:cad>
          </ns3:TrackPointExtension>
        </extensions>
      </trkpt>
      <trkpt lat="42.60746645741164684295654296875" lon="2.73750367574393749237060546875">
        <ele>186</ele>
        <time>2023-08-19T17:27:36.000Z</time>
        <extensions>
          <ns3:TrackPointExtension>
            <ns3:hr>153</ns3:hr>
            <ns3:cad>83</ns3:cad>
          </ns3:TrackPointExtension>
        </extensions>
      </trkpt>
      <trkpt lat="42.60748908855020999908447265625" lon="2.73752865381538867950439453125">
        <ele>186</ele>
        <time>2023-08-19T17:27:37.000Z</time>
        <extensions>
          <ns3:TrackPointExtension>
            <ns3:hr>153</ns3:hr>
            <ns3:cad>83</ns3:cad>
          </ns3:TrackPointExtension>
        </extensions>
      </trkpt>
      <trkpt lat="42.6075119711458683013916015625" lon="2.73756234906613826751708984375">
        <ele>185.8000030517578125</ele>
        <time>2023-08-19T17:27:38.000Z</time>
        <extensions>
          <ns3:TrackPointExtension>
            <ns3:hr>153</ns3:hr>
            <ns3:cad>83</ns3:cad>
          </ns3:TrackPointExtension>
        </extensions>
      </trkpt>
      <trkpt lat="42.60753116570413112640380859375" lon="2.73758389055728912353515625">
        <ele>185.600006103515625</ele>
        <time>2023-08-19T17:27:39.000Z</time>
        <extensions>
          <ns3:TrackPointExtension>
            <ns3:hr>153</ns3:hr>
            <ns3:cad>83</ns3:cad>
          </ns3:TrackPointExtension>
        </extensions>
      </trkpt>
      <trkpt lat="42.6075518690049648284912109375" lon="2.73760794661939144134521484375">
        <ele>185.600006103515625</ele>
        <time>2023-08-19T17:27:40.000Z</time>
        <extensions>
          <ns3:TrackPointExtension>
            <ns3:hr>153</ns3:hr>
            <ns3:cad>83</ns3:cad>
          </ns3:TrackPointExtension>
        </extensions>
      </trkpt>
      <trkpt lat="42.60757408104836940765380859375" lon="2.73763577453792095184326171875">
        <ele>185.600006103515625</ele>
        <time>2023-08-19T17:27:41.000Z</time>
        <extensions>
          <ns3:TrackPointExtension>
            <ns3:hr>153</ns3:hr>
            <ns3:cad>82</ns3:cad>
          </ns3:TrackPointExtension>
        </extensions>
      </trkpt>
      <trkpt lat="42.607596628367900848388671875" lon="2.73766041733324527740478515625">
        <ele>185.600006103515625</ele>
        <time>2023-08-19T17:27:42.000Z</time>
        <extensions>
          <ns3:TrackPointExtension>
            <ns3:hr>154</ns3:hr>
            <ns3:cad>82</ns3:cad>
          </ns3:TrackPointExtension>
        </extensions>
      </trkpt>
      <trkpt lat="42.6076185889542102813720703125" lon="2.737690173089504241943359375">
        <ele>185.600006103515625</ele>
        <time>2023-08-19T17:27:43.000Z</time>
        <extensions>
          <ns3:TrackPointExtension>
            <ns3:hr>154</ns3:hr>
            <ns3:cad>82</ns3:cad>
          </ns3:TrackPointExtension>
        </extensions>
      </trkpt>
      <trkpt lat="42.60763694532215595245361328125" lon="2.73771389387547969818115234375">
        <ele>185.600006103515625</ele>
        <time>2023-08-19T17:27:44.000Z</time>
        <extensions>
          <ns3:TrackPointExtension>
            <ns3:hr>154</ns3:hr>
            <ns3:cad>82</ns3:cad>
          </ns3:TrackPointExtension>
        </extensions>
      </trkpt>
      <trkpt lat="42.60766066610813140869140625" lon="2.73773836903274059295654296875">
        <ele>185.600006103515625</ele>
        <time>2023-08-19T17:27:45.000Z</time>
        <extensions>
          <ns3:TrackPointExtension>
            <ns3:hr>154</ns3:hr>
            <ns3:cad>82</ns3:cad>
          </ns3:TrackPointExtension>
        </extensions>
      </trkpt>
      <trkpt lat="42.60767835192382335662841796875" lon="2.7377642691135406494140625">
        <ele>185.399993896484375</ele>
        <time>2023-08-19T17:27:46.000Z</time>
        <extensions>
          <ns3:TrackPointExtension>
            <ns3:hr>154</ns3:hr>
            <ns3:cad>82</ns3:cad>
          </ns3:TrackPointExtension>
        </extensions>
      </trkpt>
      <trkpt lat="42.60769846849143505096435546875" lon="2.73779016919434070587158203125">
        <ele>185.1999969482421875</ele>
        <time>2023-08-19T17:27:47.000Z</time>
        <extensions>
          <ns3:TrackPointExtension>
            <ns3:hr>154</ns3:hr>
            <ns3:cad>82</ns3:cad>
          </ns3:TrackPointExtension>
        </extensions>
      </trkpt>
      <trkpt lat="42.607720680534839630126953125" lon="2.73781464435160160064697265625">
        <ele>185.1999969482421875</ele>
        <time>2023-08-19T17:27:48.000Z</time>
        <extensions>
          <ns3:TrackPointExtension>
            <ns3:hr>154</ns3:hr>
            <ns3:cad>82</ns3:cad>
          </ns3:TrackPointExtension>
        </extensions>
      </trkpt>
      <trkpt lat="42.60774238966405391693115234375" lon="2.737842388451099395751953125">
        <ele>185.1999969482421875</ele>
        <time>2023-08-19T17:27:49.000Z</time>
        <extensions>
          <ns3:TrackPointExtension>
            <ns3:hr>154</ns3:hr>
            <ns3:cad>82</ns3:cad>
          </ns3:TrackPointExtension>
        </extensions>
      </trkpt>
      <trkpt lat="42.607762925326824188232421875" lon="2.737865187227725982666015625">
        <ele>185.1999969482421875</ele>
        <time>2023-08-19T17:27:50.000Z</time>
        <extensions>
          <ns3:TrackPointExtension>
            <ns3:hr>154</ns3:hr>
            <ns3:cad>82</ns3:cad>
          </ns3:TrackPointExtension>
        </extensions>
      </trkpt>
      <trkpt lat="42.60778647847473621368408203125" lon="2.73789108730852603912353515625">
        <ele>185.1999969482421875</ele>
        <time>2023-08-19T17:27:51.000Z</time>
        <extensions>
          <ns3:TrackPointExtension>
            <ns3:hr>154</ns3:hr>
            <ns3:cad>82</ns3:cad>
          </ns3:TrackPointExtension>
        </extensions>
      </trkpt>
      <trkpt lat="42.607808522880077362060546875" lon="2.737921513617038726806640625">
        <ele>185.1999969482421875</ele>
        <time>2023-08-19T17:27:52.000Z</time>
        <extensions>
          <ns3:TrackPointExtension>
            <ns3:hr>154</ns3:hr>
            <ns3:cad>82</ns3:cad>
          </ns3:TrackPointExtension>
        </extensions>
      </trkpt>
      <trkpt lat="42.60782905854284763336181640625" lon="2.73794825188815593719482421875">
        <ele>185.1999969482421875</ele>
        <time>2023-08-19T17:27:53.000Z</time>
        <extensions>
          <ns3:TrackPointExtension>
            <ns3:hr>154</ns3:hr>
            <ns3:cad>82</ns3:cad>
          </ns3:TrackPointExtension>
        </extensions>
      </trkpt>
      <trkpt lat="42.60784967802464962005615234375" lon="2.73797842673957347869873046875">
        <ele>185.1999969482421875</ele>
        <time>2023-08-19T17:27:54.000Z</time>
        <extensions>
          <ns3:TrackPointExtension>
            <ns3:hr>154</ns3:hr>
            <ns3:cad>82</ns3:cad>
          </ns3:TrackPointExtension>
        </extensions>
      </trkpt>
      <trkpt lat="42.60786728002130985260009765625" lon="2.7380038239061832427978515625">
        <ele>185</ele>
        <time>2023-08-19T17:27:55.000Z</time>
        <extensions>
          <ns3:TrackPointExtension>
            <ns3:hr>154</ns3:hr>
            <ns3:cad>82</ns3:cad>
          </ns3:TrackPointExtension>
        </extensions>
      </trkpt>
      <trkpt lat="42.607884295284748077392578125" lon="2.7380249463021755218505859375">
        <ele>184.8000030517578125</ele>
        <time>2023-08-19T17:27:56.000Z</time>
        <extensions>
          <ns3:TrackPointExtension>
            <ns3:hr>154</ns3:hr>
            <ns3:cad>82</ns3:cad>
          </ns3:TrackPointExtension>
        </extensions>
      </trkpt>
      <trkpt lat="42.6079039089381694793701171875" lon="2.7380564622581005096435546875">
        <ele>184.8000030517578125</ele>
        <time>2023-08-19T17:27:57.000Z</time>
        <extensions>
          <ns3:TrackPointExtension>
            <ns3:hr>154</ns3:hr>
            <ns3:cad>82</ns3:cad>
          </ns3:TrackPointExtension>
        </extensions>
      </trkpt>
      <trkpt lat="42.60792343877255916595458984375" lon="2.7380809374153614044189453125">
        <ele>184.600006103515625</ele>
        <time>2023-08-19T17:27:58.000Z</time>
        <extensions>
          <ns3:TrackPointExtension>
            <ns3:hr>154</ns3:hr>
            <ns3:cad>82</ns3:cad>
          </ns3:TrackPointExtension>
        </extensions>
      </trkpt>
      <trkpt lat="42.60794221423566341400146484375" lon="2.7381040714681148529052734375">
        <ele>184.600006103515625</ele>
        <time>2023-08-19T17:27:59.000Z</time>
        <extensions>
          <ns3:TrackPointExtension>
            <ns3:hr>154</ns3:hr>
            <ns3:cad>82</ns3:cad>
          </ns3:TrackPointExtension>
        </extensions>
      </trkpt>
      <trkpt lat="42.6079605706036090850830078125" lon="2.73813097737729549407958984375">
        <ele>184.600006103515625</ele>
        <time>2023-08-19T17:28:00.000Z</time>
        <extensions>
          <ns3:TrackPointExtension>
            <ns3:hr>154</ns3:hr>
            <ns3:cad>82</ns3:cad>
          </ns3:TrackPointExtension>
        </extensions>
      </trkpt>
      <trkpt lat="42.607978172600269317626953125" lon="2.738152854144573211669921875">
        <ele>184.8000030517578125</ele>
        <time>2023-08-19T17:28:01.000Z</time>
        <extensions>
          <ns3:TrackPointExtension>
            <ns3:hr>154</ns3:hr>
            <ns3:cad>82</ns3:cad>
          </ns3:TrackPointExtension>
        </extensions>
      </trkpt>
      <trkpt lat="42.60799719952046871185302734375" lon="2.73817825131118297576904296875">
        <ele>184.8000030517578125</ele>
        <time>2023-08-19T17:28:02.000Z</time>
        <extensions>
          <ns3:TrackPointExtension>
            <ns3:hr>154</ns3:hr>
            <ns3:cad>81</ns3:cad>
          </ns3:TrackPointExtension>
        </extensions>
      </trkpt>
      <trkpt lat="42.6080182380974292755126953125" lon="2.7382080070674419403076171875">
        <ele>184.8000030517578125</ele>
        <time>2023-08-19T17:28:03.000Z</time>
        <extensions>
          <ns3:TrackPointExtension>
            <ns3:hr>154</ns3:hr>
            <ns3:cad>81</ns3:cad>
          </ns3:TrackPointExtension>
        </extensions>
      </trkpt>
      <trkpt lat="42.60803793556988239288330078125" lon="2.73822627961635589599609375">
        <ele>184.8000030517578125</ele>
        <time>2023-08-19T17:28:04.000Z</time>
        <extensions>
          <ns3:TrackPointExtension>
            <ns3:hr>154</ns3:hr>
            <ns3:cad>81</ns3:cad>
          </ns3:TrackPointExtension>
        </extensions>
      </trkpt>
      <trkpt lat="42.60805738158524036407470703125" lon="2.738249413669109344482421875">
        <ele>184.8000030517578125</ele>
        <time>2023-08-19T17:28:05.000Z</time>
        <extensions>
          <ns3:TrackPointExtension>
            <ns3:hr>154</ns3:hr>
            <ns3:cad>81</ns3:cad>
          </ns3:TrackPointExtension>
        </extensions>
      </trkpt>
      <trkpt lat="42.6080770790576934814453125" lon="2.73827455937862396240234375">
        <ele>184.8000030517578125</ele>
        <time>2023-08-19T17:28:06.000Z</time>
        <extensions>
          <ns3:TrackPointExtension>
            <ns3:hr>154</ns3:hr>
            <ns3:cad>81</ns3:cad>
          </ns3:TrackPointExtension>
        </extensions>
      </trkpt>
      <trkpt lat="42.60809652507305145263671875" lon="2.7382953464984893798828125">
        <ele>184.600006103515625</ele>
        <time>2023-08-19T17:28:07.000Z</time>
        <extensions>
          <ns3:TrackPointExtension>
            <ns3:hr>154</ns3:hr>
            <ns3:cad>81</ns3:cad>
          </ns3:TrackPointExtension>
        </extensions>
      </trkpt>
      <trkpt lat="42.6081173121929168701171875" lon="2.73832476697862148284912109375">
        <ele>184.399993896484375</ele>
        <time>2023-08-19T17:28:08.000Z</time>
        <extensions>
          <ns3:TrackPointExtension>
            <ns3:hr>154</ns3:hr>
            <ns3:cad>81</ns3:cad>
          </ns3:TrackPointExtension>
        </extensions>
      </trkpt>
      <trkpt lat="42.6081369258463382720947265625" lon="2.73835158906877040863037109375">
        <ele>184.399993896484375</ele>
        <time>2023-08-19T17:28:09.000Z</time>
        <extensions>
          <ns3:TrackPointExtension>
            <ns3:hr>154</ns3:hr>
            <ns3:cad>81</ns3:cad>
          </ns3:TrackPointExtension>
        </extensions>
      </trkpt>
      <trkpt lat="42.6081610657274723052978515625" lon="2.73837036453187465667724609375">
        <ele>184.1999969482421875</ele>
        <time>2023-08-19T17:28:10.000Z</time>
        <extensions>
          <ns3:TrackPointExtension>
            <ns3:hr>155</ns3:hr>
            <ns3:cad>81</ns3:cad>
          </ns3:TrackPointExtension>
        </extensions>
      </trkpt>
      <trkpt lat="42.60818243958055973052978515625" lon="2.73838997818529605865478515625">
        <ele>184.1999969482421875</ele>
        <time>2023-08-19T17:28:11.000Z</time>
        <extensions>
          <ns3:TrackPointExtension>
            <ns3:hr>155</ns3:hr>
            <ns3:cad>81</ns3:cad>
          </ns3:TrackPointExtension>
        </extensions>
      </trkpt>
      <trkpt lat="42.60820305906236171722412109375" lon="2.73841126821935176849365234375">
        <ele>184</ele>
        <time>2023-08-19T17:28:12.000Z</time>
        <extensions>
          <ns3:TrackPointExtension>
            <ns3:hr>155</ns3:hr>
            <ns3:cad>81</ns3:cad>
          </ns3:TrackPointExtension>
        </extensions>
      </trkpt>
      <trkpt lat="42.60822451673448085784912109375" lon="2.7384309656918048858642578125">
        <ele>184</ele>
        <time>2023-08-19T17:28:13.000Z</time>
        <extensions>
          <ns3:TrackPointExtension>
            <ns3:hr>155</ns3:hr>
            <ns3:cad>81</ns3:cad>
          </ns3:TrackPointExtension>
        </extensions>
      </trkpt>
      <trkpt lat="42.60825033299624919891357421875" lon="2.738456614315509796142578125">
        <ele>184</ele>
        <time>2023-08-19T17:28:14.000Z</time>
        <extensions>
          <ns3:TrackPointExtension>
            <ns3:hr>155</ns3:hr>
            <ns3:cad>81</ns3:cad>
          </ns3:TrackPointExtension>
        </extensions>
      </trkpt>
      <trkpt lat="42.6082720421254634857177734375" lon="2.738474719226360321044921875">
        <ele>184</ele>
        <time>2023-08-19T17:28:15.000Z</time>
        <extensions>
          <ns3:TrackPointExtension>
            <ns3:hr>155</ns3:hr>
            <ns3:cad>81</ns3:cad>
          </ns3:TrackPointExtension>
        </extensions>
      </trkpt>
      <trkpt lat="42.60829232633113861083984375" lon="2.7384936623275279998779296875">
        <ele>183.8000030517578125</ele>
        <time>2023-08-19T17:28:16.000Z</time>
        <extensions>
          <ns3:TrackPointExtension>
            <ns3:hr>155</ns3:hr>
            <ns3:cad>81</ns3:cad>
          </ns3:TrackPointExtension>
        </extensions>
      </trkpt>
      <trkpt lat="42.60831705294549465179443359375" lon="2.73851620964705944061279296875">
        <ele>183.600006103515625</ele>
        <time>2023-08-19T17:28:17.000Z</time>
        <extensions>
          <ns3:TrackPointExtension>
            <ns3:hr>155</ns3:hr>
            <ns3:cad>81</ns3:cad>
          </ns3:TrackPointExtension>
        </extensions>
      </trkpt>
      <trkpt lat="42.6083427853882312774658203125" lon="2.7385352365672588348388671875">
        <ele>183.600006103515625</ele>
        <time>2023-08-19T17:28:18.000Z</time>
        <extensions>
          <ns3:TrackPointExtension>
            <ns3:hr>155</ns3:hr>
            <ns3:cad>81</ns3:cad>
          </ns3:TrackPointExtension>
        </extensions>
      </trkpt>
      <trkpt lat="42.6083689369261264801025390625" lon="2.73855275474488735198974609375">
        <ele>183.399993896484375</ele>
        <time>2023-08-19T17:28:19.000Z</time>
        <extensions>
          <ns3:TrackPointExtension>
            <ns3:hr>155</ns3:hr>
            <ns3:cad>81</ns3:cad>
          </ns3:TrackPointExtension>
        </extensions>
      </trkpt>
      <trkpt lat="42.6083930768072605133056640625" lon="2.738574631512165069580078125">
        <ele>183.399993896484375</ele>
        <time>2023-08-19T17:28:20.000Z</time>
        <extensions>
          <ns3:TrackPointExtension>
            <ns3:hr>155</ns3:hr>
            <ns3:cad>81</ns3:cad>
          </ns3:TrackPointExtension>
        </extensions>
      </trkpt>
      <trkpt lat="42.60842107236385345458984375" lon="2.73859332315623760223388671875">
        <ele>183</ele>
        <time>2023-08-19T17:28:21.000Z</time>
        <extensions>
          <ns3:TrackPointExtension>
            <ns3:hr>155</ns3:hr>
            <ns3:cad>81</ns3:cad>
          </ns3:TrackPointExtension>
        </extensions>
      </trkpt>
      <trkpt lat="42.60844764299690723419189453125" lon="2.73861385881900787353515625">
        <ele>182.8000030517578125</ele>
        <time>2023-08-19T17:28:22.000Z</time>
        <extensions>
          <ns3:TrackPointExtension>
            <ns3:hr>155</ns3:hr>
            <ns3:cad>81</ns3:cad>
          </ns3:TrackPointExtension>
        </extensions>
      </trkpt>
      <trkpt lat="42.60846993885934352874755859375" lon="2.7386338077485561370849609375">
        <ele>182.600006103515625</ele>
        <time>2023-08-19T17:28:23.000Z</time>
        <extensions>
          <ns3:TrackPointExtension>
            <ns3:hr>155</ns3:hr>
            <ns3:cad>81</ns3:cad>
          </ns3:TrackPointExtension>
        </extensions>
      </trkpt>
      <trkpt lat="42.6084909774363040924072265625" lon="2.7386515773832798004150390625">
        <ele>182.399993896484375</ele>
        <time>2023-08-19T17:28:24.000Z</time>
        <extensions>
          <ns3:TrackPointExtension>
            <ns3:hr>154</ns3:hr>
            <ns3:cad>81</ns3:cad>
          </ns3:TrackPointExtension>
        </extensions>
      </trkpt>
      <trkpt lat="42.6085115969181060791015625" lon="2.73867077194154262542724609375">
        <ele>182.1999969482421875</ele>
        <time>2023-08-19T17:28:25.000Z</time>
        <extensions>
          <ns3:TrackPointExtension>
            <ns3:hr>154</ns3:hr>
            <ns3:cad>80</ns3:cad>
          </ns3:TrackPointExtension>
        </extensions>
      </trkpt>
      <trkpt lat="42.608534395694732666015625" lon="2.73869097232818603515625">
        <ele>182</ele>
        <time>2023-08-19T17:28:26.000Z</time>
        <extensions>
          <ns3:TrackPointExtension>
            <ns3:hr>154</ns3:hr>
            <ns3:cad>81</ns3:cad>
          </ns3:TrackPointExtension>
        </extensions>
      </trkpt>
      <trkpt lat="42.6085603795945644378662109375" lon="2.73870815522968769073486328125">
        <ele>182</ele>
        <time>2023-08-19T17:28:27.000Z</time>
        <extensions>
          <ns3:TrackPointExtension>
            <ns3:hr>154</ns3:hr>
            <ns3:cad>80</ns3:cad>
          </ns3:TrackPointExtension>
        </extensions>
      </trkpt>
      <trkpt lat="42.608584351837635040283203125" lon="2.73872517049312591552734375">
        <ele>181.8000030517578125</ele>
        <time>2023-08-19T17:28:28.000Z</time>
        <extensions>
          <ns3:TrackPointExtension>
            <ns3:hr>154</ns3:hr>
            <ns3:cad>80</ns3:cad>
          </ns3:TrackPointExtension>
        </extensions>
      </trkpt>
      <trkpt lat="42.6086063124239444732666015625" lon="2.73874260485172271728515625">
        <ele>181.399993896484375</ele>
        <time>2023-08-19T17:28:29.000Z</time>
        <extensions>
          <ns3:TrackPointExtension>
            <ns3:hr>154</ns3:hr>
            <ns3:cad>80</ns3:cad>
          </ns3:TrackPointExtension>
        </extensions>
      </trkpt>
      <trkpt lat="42.60862626135349273681640625" lon="2.73875945247709751129150390625">
        <ele>181.1999969482421875</ele>
        <time>2023-08-19T17:28:30.000Z</time>
        <extensions>
          <ns3:TrackPointExtension>
            <ns3:hr>154</ns3:hr>
            <ns3:cad>80</ns3:cad>
          </ns3:TrackPointExtension>
        </extensions>
      </trkpt>
      <trkpt lat="42.6086457073688507080078125" lon="2.73877873085439205169677734375">
        <ele>181</ele>
        <time>2023-08-19T17:28:31.000Z</time>
        <extensions>
          <ns3:TrackPointExtension>
            <ns3:hr>154</ns3:hr>
            <ns3:cad>80</ns3:cad>
          </ns3:TrackPointExtension>
        </extensions>
      </trkpt>
      <trkpt lat="42.60866506956517696380615234375" lon="2.73879884742200374603271484375">
        <ele>180.600006103515625</ele>
        <time>2023-08-19T17:28:32.000Z</time>
        <extensions>
          <ns3:TrackPointExtension>
            <ns3:hr>155</ns3:hr>
            <ns3:cad>80</ns3:cad>
          </ns3:TrackPointExtension>
        </extensions>
      </trkpt>
      <trkpt lat="42.60868451558053493499755859375" lon="2.73881544359028339385986328125">
        <ele>180.399993896484375</ele>
        <time>2023-08-19T17:28:33.000Z</time>
        <extensions>
          <ns3:TrackPointExtension>
            <ns3:hr>155</ns3:hr>
            <ns3:cad>80</ns3:cad>
          </ns3:TrackPointExtension>
        </extensions>
      </trkpt>
      <trkpt lat="42.60870513506233692169189453125" lon="2.73882918991148471832275390625">
        <ele>180.399993896484375</ele>
        <time>2023-08-19T17:28:34.000Z</time>
        <extensions>
          <ns3:TrackPointExtension>
            <ns3:hr>155</ns3:hr>
            <ns3:cad>80</ns3:cad>
          </ns3:TrackPointExtension>
        </extensions>
      </trkpt>
      <trkpt lat="42.6087250001728534698486328125" lon="2.7388457022607326507568359375">
        <ele>180</ele>
        <time>2023-08-19T17:28:35.000Z</time>
        <extensions>
          <ns3:TrackPointExtension>
            <ns3:hr>155</ns3:hr>
            <ns3:cad>80</ns3:cad>
          </ns3:TrackPointExtension>
        </extensions>
      </trkpt>
      <trkpt lat="42.60874654166400432586669921875" lon="2.7388621307909488677978515625">
        <ele>179.8000030517578125</ele>
        <time>2023-08-19T17:28:36.000Z</time>
        <extensions>
          <ns3:TrackPointExtension>
            <ns3:hr>154</ns3:hr>
            <ns3:cad>80</ns3:cad>
          </ns3:TrackPointExtension>
        </extensions>
      </trkpt>
      <trkpt lat="42.6087675802409648895263671875" lon="2.73887797258794307708740234375">
        <ele>179.399993896484375</ele>
        <time>2023-08-19T17:28:37.000Z</time>
        <extensions>
          <ns3:TrackPointExtension>
            <ns3:hr>154</ns3:hr>
            <ns3:cad>80</ns3:cad>
          </ns3:TrackPointExtension>
        </extensions>
      </trkpt>
      <trkpt lat="42.60878945700824260711669921875" lon="2.73889414966106414794921875">
        <ele>179</ele>
        <time>2023-08-19T17:28:38.000Z</time>
        <extensions>
          <ns3:TrackPointExtension>
            <ns3:hr>154</ns3:hr>
            <ns3:cad>80</ns3:cad>
          </ns3:TrackPointExtension>
        </extensions>
      </trkpt>
      <trkpt lat="42.60881292633712291717529296875" lon="2.73890915326774120330810546875">
        <ele>178.600006103515625</ele>
        <time>2023-08-19T17:28:39.000Z</time>
        <extensions>
          <ns3:TrackPointExtension>
            <ns3:hr>154</ns3:hr>
            <ns3:cad>81</ns3:cad>
          </ns3:TrackPointExtension>
        </extensions>
      </trkpt>
      <trkpt lat="42.608836479485034942626953125" lon="2.73892826400697231292724609375">
        <ele>178.1999969482421875</ele>
        <time>2023-08-19T17:28:40.000Z</time>
        <extensions>
          <ns3:TrackPointExtension>
            <ns3:hr>154</ns3:hr>
            <ns3:cad>81</ns3:cad>
          </ns3:TrackPointExtension>
        </extensions>
      </trkpt>
      <trkpt lat="42.60885818861424922943115234375" lon="2.738945782184600830078125">
        <ele>178</ele>
        <time>2023-08-19T17:28:41.000Z</time>
        <extensions>
          <ns3:TrackPointExtension>
            <ns3:hr>153</ns3:hr>
            <ns3:cad>81</ns3:cad>
          </ns3:TrackPointExtension>
        </extensions>
      </trkpt>
      <trkpt lat="42.60888333432376384735107421875" lon="2.73895986378192901611328125">
        <ele>177.399993896484375</ele>
        <time>2023-08-19T17:28:42.000Z</time>
        <extensions>
          <ns3:TrackPointExtension>
            <ns3:hr>154</ns3:hr>
            <ns3:cad>81</ns3:cad>
          </ns3:TrackPointExtension>
        </extensions>
      </trkpt>
      <trkpt lat="42.608906887471675872802734375" lon="2.7389761246740818023681640625">
        <ele>176.8000030517578125</ele>
        <time>2023-08-19T17:28:43.000Z</time>
        <extensions>
          <ns3:TrackPointExtension>
            <ns3:hr>153</ns3:hr>
            <ns3:cad>82</ns3:cad>
          </ns3:TrackPointExtension>
        </extensions>
      </trkpt>
      <trkpt lat="42.608931027352809906005859375" lon="2.7389900386333465576171875">
        <ele>176.1999969482421875</ele>
        <time>2023-08-19T17:28:44.000Z</time>
        <extensions>
          <ns3:TrackPointExtension>
            <ns3:hr>153</ns3:hr>
            <ns3:cad>82</ns3:cad>
          </ns3:TrackPointExtension>
        </extensions>
      </trkpt>
      <trkpt lat="42.60895424522459506988525390625" lon="2.73900487460196018218994140625">
        <ele>175.8000030517578125</ele>
        <time>2023-08-19T17:28:45.000Z</time>
        <extensions>
          <ns3:TrackPointExtension>
            <ns3:hr>153</ns3:hr>
            <ns3:cad>82</ns3:cad>
          </ns3:TrackPointExtension>
        </extensions>
      </trkpt>
      <trkpt lat="42.60897872038185596466064453125" lon="2.739021889865398406982421875">
        <ele>175.600006103515625</ele>
        <time>2023-08-19T17:28:46.000Z</time>
        <extensions>
          <ns3:TrackPointExtension>
            <ns3:hr>153</ns3:hr>
            <ns3:cad>82</ns3:cad>
          </ns3:TrackPointExtension>
        </extensions>
      </trkpt>
      <trkpt lat="42.60900453664362430572509765625" lon="2.739033289253711700439453125">
        <ele>175.399993896484375</ele>
        <time>2023-08-19T17:28:47.000Z</time>
        <extensions>
          <ns3:TrackPointExtension>
            <ns3:hr>152</ns3:hr>
            <ns3:cad>81</ns3:cad>
          </ns3:TrackPointExtension>
        </extensions>
      </trkpt>
      <trkpt lat="42.6090311072766780853271484375" lon="2.739047706127166748046875">
        <ele>175.1999969482421875</ele>
        <time>2023-08-19T17:28:48.000Z</time>
        <extensions>
          <ns3:TrackPointExtension>
            <ns3:hr>152</ns3:hr>
            <ns3:cad>81</ns3:cad>
          </ns3:TrackPointExtension>
        </extensions>
      </trkpt>
      <trkpt lat="42.60905566625297069549560546875" lon="2.739067487418651580810546875">
        <ele>175.1999969482421875</ele>
        <time>2023-08-19T17:28:49.000Z</time>
        <extensions>
          <ns3:TrackPointExtension>
            <ns3:hr>152</ns3:hr>
            <ns3:cad>81</ns3:cad>
          </ns3:TrackPointExtension>
        </extensions>
      </trkpt>
      <trkpt lat="42.60907645337283611297607421875" lon="2.73908198811113834381103515625">
        <ele>175</ele>
        <time>2023-08-19T17:28:50.000Z</time>
        <extensions>
          <ns3:TrackPointExtension>
            <ns3:hr>152</ns3:hr>
            <ns3:cad>81</ns3:cad>
          </ns3:TrackPointExtension>
        </extensions>
      </trkpt>
      <trkpt lat="42.6091041974723339080810546875" lon="2.739111073315143585205078125">
        <ele>174.600006103515625</ele>
        <time>2023-08-19T17:28:51.000Z</time>
        <extensions>
          <ns3:TrackPointExtension>
            <ns3:hr>152</ns3:hr>
            <ns3:cad>82</ns3:cad>
          </ns3:TrackPointExtension>
        </extensions>
      </trkpt>
      <trkpt lat="42.60913060046732425689697265625" lon="2.739139907062053680419921875">
        <ele>174.399993896484375</ele>
        <time>2023-08-19T17:28:52.000Z</time>
        <extensions>
          <ns3:TrackPointExtension>
            <ns3:hr>152</ns3:hr>
            <ns3:cad>82</ns3:cad>
          </ns3:TrackPointExtension>
        </extensions>
      </trkpt>
      <trkpt lat="42.6091548241674900054931640625" lon="2.73916748352348804473876953125">
        <ele>174.1999969482421875</ele>
        <time>2023-08-19T17:28:53.000Z</time>
        <extensions>
          <ns3:TrackPointExtension>
            <ns3:hr>152</ns3:hr>
            <ns3:cad>82</ns3:cad>
          </ns3:TrackPointExtension>
        </extensions>
      </trkpt>
      <trkpt lat="42.60917770676314830780029296875" lon="2.73919992148876190185546875">
        <ele>173.8000030517578125</ele>
        <time>2023-08-19T17:28:54.000Z</time>
        <extensions>
          <ns3:TrackPointExtension>
            <ns3:hr>152</ns3:hr>
            <ns3:cad>82</ns3:cad>
          </ns3:TrackPointExtension>
        </extensions>
      </trkpt>
      <trkpt lat="42.6091997511684894561767578125" lon="2.73923001252114772796630859375">
        <ele>173.399993896484375</ele>
        <time>2023-08-19T17:28:55.000Z</time>
        <extensions>
          <ns3:TrackPointExtension>
            <ns3:hr>152</ns3:hr>
            <ns3:cad>82</ns3:cad>
          </ns3:TrackPointExtension>
        </extensions>
      </trkpt>
      <trkpt lat="42.60922464542090892791748046875" lon="2.73926102556288242340087890625">
        <ele>173.1999969482421875</ele>
        <time>2023-08-19T17:28:56.000Z</time>
        <extensions>
          <ns3:TrackPointExtension>
            <ns3:hr>152</ns3:hr>
            <ns3:cad>82</ns3:cad>
          </ns3:TrackPointExtension>
        </extensions>
      </trkpt>
      <trkpt lat="42.609242498874664306640625" lon="2.7392899431288242340087890625">
        <ele>173.1999969482421875</ele>
        <time>2023-08-19T17:28:57.000Z</time>
        <extensions>
          <ns3:TrackPointExtension>
            <ns3:hr>152</ns3:hr>
            <ns3:cad>82</ns3:cad>
          </ns3:TrackPointExtension>
        </extensions>
      </trkpt>
      <trkpt lat="42.60926303453743457794189453125" lon="2.73931517265737056732177734375">
        <ele>173.1999969482421875</ele>
        <time>2023-08-19T17:28:58.000Z</time>
        <extensions>
          <ns3:TrackPointExtension>
            <ns3:hr>152</ns3:hr>
            <ns3:cad>81</ns3:cad>
          </ns3:TrackPointExtension>
        </extensions>
      </trkpt>
      <trkpt lat="42.60929136537015438079833984375" lon="2.73933746851980686187744140625">
        <ele>172.8000030517578125</ele>
        <time>2023-08-19T17:28:59.000Z</time>
        <extensions>
          <ns3:TrackPointExtension>
            <ns3:hr>152</ns3:hr>
            <ns3:cad>82</ns3:cad>
          </ns3:TrackPointExtension>
        </extensions>
      </trkpt>
      <trkpt lat="42.60931902565062046051025390625" lon="2.73934551514685153961181640625">
        <ele>172.600006103515625</ele>
        <time>2023-08-19T17:29:00.000Z</time>
        <extensions>
          <ns3:TrackPointExtension>
            <ns3:hr>152</ns3:hr>
            <ns3:cad>82</ns3:cad>
          </ns3:TrackPointExtension>
        </extensions>
      </trkpt>
      <trkpt lat="42.6093432493507862091064453125" lon="2.73933210410177707672119140625">
        <ele>172.600006103515625</ele>
        <time>2023-08-19T17:29:01.000Z</time>
        <extensions>
          <ns3:TrackPointExtension>
            <ns3:hr>152</ns3:hr>
            <ns3:cad>83</ns3:cad>
          </ns3:TrackPointExtension>
        </extensions>
      </trkpt>
      <trkpt lat="42.609361521899700164794921875" lon="2.739305533468723297119140625">
        <ele>172.600006103515625</ele>
        <time>2023-08-19T17:29:02.000Z</time>
        <extensions>
          <ns3:TrackPointExtension>
            <ns3:hr>152</ns3:hr>
            <ns3:cad>83</ns3:cad>
          </ns3:TrackPointExtension>
        </extensions>
      </trkpt>
      <trkpt lat="42.6093690656125545501708984375" lon="2.73927368223667144775390625">
        <ele>172.600006103515625</ele>
        <time>2023-08-19T17:29:03.000Z</time>
        <extensions>
          <ns3:TrackPointExtension>
            <ns3:hr>152</ns3:hr>
            <ns3:cad>83</ns3:cad>
          </ns3:TrackPointExtension>
        </extensions>
      </trkpt>
      <trkpt lat="42.6093779504299163818359375" lon="2.73923554457724094390869140625">
        <ele>172.600006103515625</ele>
        <time>2023-08-19T17:29:04.000Z</time>
        <extensions>
          <ns3:TrackPointExtension>
            <ns3:hr>152</ns3:hr>
            <ns3:cad>83</ns3:cad>
          </ns3:TrackPointExtension>
        </extensions>
      </trkpt>
      <trkpt lat="42.609387338161468505859375" lon="2.7392072975635528564453125">
        <ele>172.8000030517578125</ele>
        <time>2023-08-19T17:29:05.000Z</time>
        <extensions>
          <ns3:TrackPointExtension>
            <ns3:hr>152</ns3:hr>
            <ns3:cad>83</ns3:cad>
          </ns3:TrackPointExtension>
        </extensions>
      </trkpt>
      <trkpt lat="42.6093859970569610595703125" lon="2.7391739375889301300048828125">
        <ele>172.8000030517578125</ele>
        <time>2023-08-19T17:29:06.000Z</time>
        <extensions>
          <ns3:TrackPointExtension>
            <ns3:hr>152</ns3:hr>
            <ns3:cad>83</ns3:cad>
          </ns3:TrackPointExtension>
        </extensions>
      </trkpt>
      <trkpt lat="42.60938993655145168304443359375" lon="2.7391397394239902496337890625">
        <ele>173</ele>
        <time>2023-08-19T17:29:07.000Z</time>
        <extensions>
          <ns3:TrackPointExtension>
            <ns3:hr>152</ns3:hr>
            <ns3:cad>82</ns3:cad>
          </ns3:TrackPointExtension>
        </extensions>
      </trkpt>
      <trkpt lat="42.60939278639853000640869140625" lon="2.739109732210636138916015625">
        <ele>173</ele>
        <time>2023-08-19T17:29:08.000Z</time>
        <extensions>
          <ns3:TrackPointExtension>
            <ns3:hr>152</ns3:hr>
            <ns3:cad>82</ns3:cad>
          </ns3:TrackPointExtension>
        </extensions>
      </trkpt>
      <trkpt lat="42.60939630679786205291748046875" lon="2.73907762952148914337158203125">
        <ele>173.1999969482421875</ele>
        <time>2023-08-19T17:29:09.000Z</time>
        <extensions>
          <ns3:TrackPointExtension>
            <ns3:hr>151</ns3:hr>
            <ns3:cad>82</ns3:cad>
          </ns3:TrackPointExtension>
        </extensions>
      </trkpt>
      <trkpt lat="42.60940083302557468414306640625" lon="2.73904309608042240142822265625">
        <ele>173.399993896484375</ele>
        <time>2023-08-19T17:29:10.000Z</time>
        <extensions>
          <ns3:TrackPointExtension>
            <ns3:hr>151</ns3:hr>
            <ns3:cad>82</ns3:cad>
          </ns3:TrackPointExtension>
        </extensions>
      </trkpt>
      <trkpt lat="42.609405107796192169189453125" lon="2.73901292122900485992431640625">
        <ele>173.399993896484375</ele>
        <time>2023-08-19T17:29:11.000Z</time>
        <extensions>
          <ns3:TrackPointExtension>
            <ns3:hr>151</ns3:hr>
            <ns3:cad>82</ns3:cad>
          </ns3:TrackPointExtension>
        </extensions>
      </trkpt>
      <trkpt lat="42.60940904729068279266357421875" lon="2.73897989653050899505615234375">
        <ele>173.399993896484375</ele>
        <time>2023-08-19T17:29:12.000Z</time>
        <extensions>
          <ns3:TrackPointExtension>
            <ns3:hr>151</ns3:hr>
            <ns3:cad>81</ns3:cad>
          </ns3:TrackPointExtension>
        </extensions>
      </trkpt>
      <trkpt lat="42.60941240005195140838623046875" lon="2.73894469253718852996826171875">
        <ele>173.600006103515625</ele>
        <time>2023-08-19T17:29:13.000Z</time>
        <extensions>
          <ns3:TrackPointExtension>
            <ns3:hr>151</ns3:hr>
            <ns3:cad>81</ns3:cad>
          </ns3:TrackPointExtension>
        </extensions>
      </trkpt>
      <trkpt lat="42.60941256769001483917236328125" lon="2.7389149367809295654296875">
        <ele>173.8000030517578125</ele>
        <time>2023-08-19T17:29:14.000Z</time>
        <extensions>
          <ns3:TrackPointExtension>
            <ns3:hr>151</ns3:hr>
            <ns3:cad>81</ns3:cad>
          </ns3:TrackPointExtension>
        </extensions>
      </trkpt>
      <trkpt lat="42.609409801661968231201171875" lon="2.7388799004256725311279296875">
        <ele>173.8000030517578125</ele>
        <time>2023-08-19T17:29:15.000Z</time>
        <extensions>
          <ns3:TrackPointExtension>
            <ns3:hr>151</ns3:hr>
            <ns3:cad>81</ns3:cad>
          </ns3:TrackPointExtension>
        </extensions>
      </trkpt>
      <trkpt lat="42.60941005311906337738037109375" lon="2.7388463728129863739013671875">
        <ele>174</ele>
        <time>2023-08-19T17:29:16.000Z</time>
        <extensions>
          <ns3:TrackPointExtension>
            <ns3:hr>151</ns3:hr>
            <ns3:cad>81</ns3:cad>
          </ns3:TrackPointExtension>
        </extensions>
      </trkpt>
      <trkpt lat="42.60940619744360446929931640625" lon="2.73881577886641025543212890625">
        <ele>174.399993896484375</ele>
        <time>2023-08-19T17:29:17.000Z</time>
        <extensions>
          <ns3:TrackPointExtension>
            <ns3:hr>152</ns3:hr>
            <ns3:cad>82</ns3:cad>
          </ns3:TrackPointExtension>
        </extensions>
      </trkpt>
      <trkpt lat="42.60940317995846271514892578125" lon="2.738780491054058074951171875">
        <ele>174.600006103515625</ele>
        <time>2023-08-19T17:29:18.000Z</time>
        <extensions>
          <ns3:TrackPointExtension>
            <ns3:hr>152</ns3:hr>
            <ns3:cad>82</ns3:cad>
          </ns3:TrackPointExtension>
        </extensions>
      </trkpt>
      <trkpt lat="42.60939605534076690673828125" lon="2.73875324986875057220458984375">
        <ele>175</ele>
        <time>2023-08-19T17:29:19.000Z</time>
        <extensions>
          <ns3:TrackPointExtension>
            <ns3:hr>152</ns3:hr>
            <ns3:cad>82</ns3:cad>
          </ns3:TrackPointExtension>
        </extensions>
      </trkpt>
      <trkpt lat="42.6093858294188976287841796875" lon="2.73872374556958675384521484375">
        <ele>175.1999969482421875</ele>
        <time>2023-08-19T17:29:20.000Z</time>
        <extensions>
          <ns3:TrackPointExtension>
            <ns3:hr>152</ns3:hr>
            <ns3:cad>81</ns3:cad>
          </ns3:TrackPointExtension>
        </extensions>
      </trkpt>
      <trkpt lat="42.609374262392520904541015625" lon="2.7386971749365329742431640625">
        <ele>175.1999969482421875</ele>
        <time>2023-08-19T17:29:21.000Z</time>
        <extensions>
          <ns3:TrackPointExtension>
            <ns3:hr>152</ns3:hr>
            <ns3:cad>81</ns3:cad>
          </ns3:TrackPointExtension>
        </extensions>
      </trkpt>
      <trkpt lat="42.6093653775751590728759765625" lon="2.73867596872150897979736328125">
        <ele>175.399993896484375</ele>
        <time>2023-08-19T17:29:22.000Z</time>
        <extensions>
          <ns3:TrackPointExtension>
            <ns3:hr>152</ns3:hr>
            <ns3:cad>81</ns3:cad>
          </ns3:TrackPointExtension>
        </extensions>
      </trkpt>
      <trkpt lat="42.60935272090137004852294921875" lon="2.73865048773586750030517578125">
        <ele>175.600006103515625</ele>
        <time>2023-08-19T17:29:23.000Z</time>
        <extensions>
          <ns3:TrackPointExtension>
            <ns3:hr>153</ns3:hr>
            <ns3:cad>81</ns3:cad>
          </ns3:TrackPointExtension>
        </extensions>
      </trkpt>
      <trkpt lat="42.60933981277048587799072265625" lon="2.73862324655055999755859375">
        <ele>175.8000030517578125</ele>
        <time>2023-08-19T17:29:24.000Z</time>
        <extensions>
          <ns3:TrackPointExtension>
            <ns3:hr>153</ns3:hr>
            <ns3:cad>81</ns3:cad>
          </ns3:TrackPointExtension>
        </extensions>
      </trkpt>
      <trkpt lat="42.6093274913728237152099609375" lon="2.7386002801358699798583984375">
        <ele>176</ele>
        <time>2023-08-19T17:29:25.000Z</time>
        <extensions>
          <ns3:TrackPointExtension>
            <ns3:hr>153</ns3:hr>
            <ns3:cad>81</ns3:cad>
          </ns3:TrackPointExtension>
        </extensions>
      </trkpt>
      <trkpt lat="42.60931248776614665985107421875" lon="2.73856901563704013824462890625">
        <ele>176.1999969482421875</ele>
        <time>2023-08-19T17:29:26.000Z</time>
        <extensions>
          <ns3:TrackPointExtension>
            <ns3:hr>153</ns3:hr>
            <ns3:cad>81</ns3:cad>
          </ns3:TrackPointExtension>
        </extensions>
      </trkpt>
      <trkpt lat="42.6093001663684844970703125" lon="2.738540433347225189208984375">
        <ele>176.399993896484375</ele>
        <time>2023-08-19T17:29:27.000Z</time>
        <extensions>
          <ns3:TrackPointExtension>
            <ns3:hr>154</ns3:hr>
            <ns3:cad>81</ns3:cad>
          </ns3:TrackPointExtension>
        </extensions>
      </trkpt>
      <trkpt lat="42.60928985662758350372314453125" lon="2.73851788602769374847412109375">
        <ele>176.8000030517578125</ele>
        <time>2023-08-19T17:29:28.000Z</time>
        <extensions>
          <ns3:TrackPointExtension>
            <ns3:hr>154</ns3:hr>
            <ns3:cad>81</ns3:cad>
          </ns3:TrackPointExtension>
        </extensions>
      </trkpt>
      <trkpt lat="42.60927669703960418701171875" lon="2.7384857833385467529296875">
        <ele>177</ele>
        <time>2023-08-19T17:29:29.000Z</time>
        <extensions>
          <ns3:TrackPointExtension>
            <ns3:hr>154</ns3:hr>
            <ns3:cad>81</ns3:cad>
          </ns3:TrackPointExtension>
        </extensions>
      </trkpt>
      <trkpt lat="42.60926789604127407073974609375" lon="2.7384574525058269500732421875">
        <ele>177.399993896484375</ele>
        <time>2023-08-19T17:29:30.000Z</time>
        <extensions>
          <ns3:TrackPointExtension>
            <ns3:hr>154</ns3:hr>
            <ns3:cad>81</ns3:cad>
          </ns3:TrackPointExtension>
        </extensions>
      </trkpt>
      <trkpt lat="42.6092580892145633697509765625" lon="2.7384349890053272247314453125">
        <ele>177.600006103515625</ele>
        <time>2023-08-19T17:29:31.000Z</time>
        <extensions>
          <ns3:TrackPointExtension>
            <ns3:hr>154</ns3:hr>
            <ns3:cad>81</ns3:cad>
          </ns3:TrackPointExtension>
        </extensions>
      </trkpt>
      <trkpt lat="42.609247863292694091796875" lon="2.73840758018195629119873046875">
        <ele>177.8000030517578125</ele>
        <time>2023-08-19T17:29:32.000Z</time>
        <extensions>
          <ns3:TrackPointExtension>
            <ns3:hr>155</ns3:hr>
            <ns3:cad>81</ns3:cad>
          </ns3:TrackPointExtension>
        </extensions>
      </trkpt>
      <trkpt lat="42.60924241505563259124755859375" lon="2.738378159701824188232421875">
        <ele>178</ele>
        <time>2023-08-19T17:29:33.000Z</time>
        <extensions>
          <ns3:TrackPointExtension>
            <ns3:hr>155</ns3:hr>
            <ns3:cad>81</ns3:cad>
          </ns3:TrackPointExtension>
        </extensions>
      </trkpt>
      <trkpt lat="42.60923537425696849822998046875" lon="2.738351337611675262451171875">
        <ele>178.1999969482421875</ele>
        <time>2023-08-19T17:29:34.000Z</time>
        <extensions>
          <ns3:TrackPointExtension>
            <ns3:hr>155</ns3:hr>
            <ns3:cad>80</ns3:cad>
          </ns3:TrackPointExtension>
        </extensions>
      </trkpt>
      <trkpt lat="42.609228082001209259033203125" lon="2.73831789381802082061767578125">
        <ele>178.399993896484375</ele>
        <time>2023-08-19T17:29:35.000Z</time>
        <extensions>
          <ns3:TrackPointExtension>
            <ns3:hr>155</ns3:hr>
            <ns3:cad>80</ns3:cad>
          </ns3:TrackPointExtension>
        </extensions>
      </trkpt>
      <trkpt lat="42.60922246612608432769775390625" lon="2.738290317356586456298828125">
        <ele>178.8000030517578125</ele>
        <time>2023-08-19T17:29:36.000Z</time>
        <extensions>
          <ns3:TrackPointExtension>
            <ns3:hr>156</ns3:hr>
            <ns3:cad>80</ns3:cad>
          </ns3:TrackPointExtension>
        </extensions>
      </trkpt>
      <trkpt lat="42.60921609587967395782470703125" lon="2.73826089687645435333251953125">
        <ele>179.1999969482421875</ele>
        <time>2023-08-19T17:29:37.000Z</time>
        <extensions>
          <ns3:TrackPointExtension>
            <ns3:hr>156</ns3:hr>
            <ns3:cad>80</ns3:cad>
          </ns3:TrackPointExtension>
        </extensions>
      </trkpt>
      <trkpt lat="42.609214670956134796142578125" lon="2.7382242679595947265625">
        <ele>179.399993896484375</ele>
        <time>2023-08-19T17:29:38.000Z</time>
        <extensions>
          <ns3:TrackPointExtension>
            <ns3:hr>156</ns3:hr>
            <ns3:cad>80</ns3:cad>
          </ns3:TrackPointExtension>
        </extensions>
      </trkpt>
      <trkpt lat="42.609214000403881072998046875" lon="2.7381909079849720001220703125">
        <ele>179.8000030517578125</ele>
        <time>2023-08-19T17:29:39.000Z</time>
        <extensions>
          <ns3:TrackPointExtension>
            <ns3:hr>156</ns3:hr>
            <ns3:cad>80</ns3:cad>
          </ns3:TrackPointExtension>
        </extensions>
      </trkpt>
      <trkpt lat="42.60920905508100986480712890625" lon="2.73816416971385478973388671875">
        <ele>180</ele>
        <time>2023-08-19T17:29:40.000Z</time>
        <extensions>
          <ns3:TrackPointExtension>
            <ns3:hr>156</ns3:hr>
            <ns3:cad>80</ns3:cad>
          </ns3:TrackPointExtension>
        </extensions>
      </trkpt>
      <trkpt lat="42.6092081330716609954833984375" lon="2.73813131265342235565185546875">
        <ele>180</ele>
        <time>2023-08-19T17:29:41.000Z</time>
        <extensions>
          <ns3:TrackPointExtension>
            <ns3:hr>156</ns3:hr>
            <ns3:cad>80</ns3:cad>
          </ns3:TrackPointExtension>
        </extensions>
      </trkpt>
      <trkpt lat="42.609207965433597564697265625" lon="2.73809845559298992156982421875">
        <ele>180.1999969482421875</ele>
        <time>2023-08-19T17:29:42.000Z</time>
        <extensions>
          <ns3:TrackPointExtension>
            <ns3:hr>156</ns3:hr>
            <ns3:cad>80</ns3:cad>
          </ns3:TrackPointExtension>
        </extensions>
      </trkpt>
      <trkpt lat="42.6092020981013774871826171875" lon="2.73806710727512836456298828125">
        <ele>180.1999969482421875</ele>
        <time>2023-08-19T17:29:43.000Z</time>
        <extensions>
          <ns3:TrackPointExtension>
            <ns3:hr>157</ns3:hr>
            <ns3:cad>80</ns3:cad>
          </ns3:TrackPointExtension>
        </extensions>
      </trkpt>
      <trkpt lat="42.60919715277850627899169921875" lon="2.7380351722240447998046875">
        <ele>180.399993896484375</ele>
        <time>2023-08-19T17:29:44.000Z</time>
        <extensions>
          <ns3:TrackPointExtension>
            <ns3:hr>157</ns3:hr>
            <ns3:cad>80</ns3:cad>
          </ns3:TrackPointExtension>
        </extensions>
      </trkpt>
      <trkpt lat="42.609195895493030548095703125" lon="2.73800742812454700469970703125">
        <ele>180.399993896484375</ele>
        <time>2023-08-19T17:29:45.000Z</time>
        <extensions>
          <ns3:TrackPointExtension>
            <ns3:hr>158</ns3:hr>
            <ns3:cad>80</ns3:cad>
          </ns3:TrackPointExtension>
        </extensions>
      </trkpt>
      <trkpt lat="42.60919380001723766326904296875" lon="2.73797540925443172454833984375">
        <ele>180.600006103515625</ele>
        <time>2023-08-19T17:29:46.000Z</time>
        <extensions>
          <ns3:TrackPointExtension>
            <ns3:hr>158</ns3:hr>
            <ns3:cad>80</ns3:cad>
          </ns3:TrackPointExtension>
        </extensions>
      </trkpt>
      <trkpt lat="42.609199583530426025390625" lon="2.737943641841411590576171875">
        <ele>180.8000030517578125</ele>
        <time>2023-08-19T17:29:47.000Z</time>
        <extensions>
          <ns3:TrackPointExtension>
            <ns3:hr>158</ns3:hr>
            <ns3:cad>80</ns3:cad>
          </ns3:TrackPointExtension>
        </extensions>
      </trkpt>
      <trkpt lat="42.6092104800045490264892578125" lon="2.73792059160768985748291015625">
        <ele>181</ele>
        <time>2023-08-19T17:29:48.000Z</time>
        <extensions>
          <ns3:TrackPointExtension>
            <ns3:hr>158</ns3:hr>
            <ns3:cad>81</ns3:cad>
          </ns3:TrackPointExtension>
        </extensions>
      </trkpt>
      <trkpt lat="42.60921944864094257354736328125" lon="2.7378941886126995086669921875">
        <ele>181.1999969482421875</ele>
        <time>2023-08-19T17:29:49.000Z</time>
        <extensions>
          <ns3:TrackPointExtension>
            <ns3:hr>158</ns3:hr>
            <ns3:cad>81</ns3:cad>
          </ns3:TrackPointExtension>
        </extensions>
      </trkpt>
      <trkpt lat="42.60923604480922222137451171875" lon="2.737862169742584228515625">
        <ele>181.399993896484375</ele>
        <time>2023-08-19T17:29:50.000Z</time>
        <extensions>
          <ns3:TrackPointExtension>
            <ns3:hr>158</ns3:hr>
            <ns3:cad>81</ns3:cad>
          </ns3:TrackPointExtension>
        </extensions>
      </trkpt>
      <trkpt lat="42.60925096459686756134033203125" lon="2.7378366887569427490234375">
        <ele>181.399993896484375</ele>
        <time>2023-08-19T17:29:51.000Z</time>
        <extensions>
          <ns3:TrackPointExtension>
            <ns3:hr>158</ns3:hr>
            <ns3:cad>81</ns3:cad>
          </ns3:TrackPointExtension>
        </extensions>
      </trkpt>
      <trkpt lat="42.6092664711177349090576171875" lon="2.73780894465744495391845703125">
        <ele>181.600006103515625</ele>
        <time>2023-08-19T17:29:52.000Z</time>
        <extensions>
          <ns3:TrackPointExtension>
            <ns3:hr>158</ns3:hr>
            <ns3:cad>81</ns3:cad>
          </ns3:TrackPointExtension>
        </extensions>
      </trkpt>
      <trkpt lat="42.60928868316113948822021484375" lon="2.73778044618666172027587890625">
        <ele>181.600006103515625</ele>
        <time>2023-08-19T17:29:53.000Z</time>
        <extensions>
          <ns3:TrackPointExtension>
            <ns3:hr>158</ns3:hr>
            <ns3:cad>81</ns3:cad>
          </ns3:TrackPointExtension>
        </extensions>
      </trkpt>
      <trkpt lat="42.60930662043392658233642578125" lon="2.7377615869045257568359375">
        <ele>181.8000030517578125</ele>
        <time>2023-08-19T17:29:54.000Z</time>
        <extensions>
          <ns3:TrackPointExtension>
            <ns3:hr>158</ns3:hr>
            <ns3:cad>81</ns3:cad>
          </ns3:TrackPointExtension>
        </extensions>
      </trkpt>
      <trkpt lat="42.6093216240406036376953125" lon="2.73773811757564544677734375">
        <ele>181.8000030517578125</ele>
        <time>2023-08-19T17:29:55.000Z</time>
        <extensions>
          <ns3:TrackPointExtension>
            <ns3:hr>158</ns3:hr>
            <ns3:cad>81</ns3:cad>
          </ns3:TrackPointExtension>
        </extensions>
      </trkpt>
      <trkpt lat="42.6093382202088832855224609375" lon="2.7377134747803211212158203125">
        <ele>182</ele>
        <time>2023-08-19T17:29:56.000Z</time>
        <extensions>
          <ns3:TrackPointExtension>
            <ns3:hr>158</ns3:hr>
            <ns3:cad>81</ns3:cad>
          </ns3:TrackPointExtension>
        </extensions>
      </trkpt>
      <trkpt lat="42.609354145824909210205078125" lon="2.73769159801304340362548828125">
        <ele>182</ele>
        <time>2023-08-19T17:29:57.000Z</time>
        <extensions>
          <ns3:TrackPointExtension>
            <ns3:hr>158</ns3:hr>
            <ns3:cad>81</ns3:cad>
          </ns3:TrackPointExtension>
        </extensions>
      </trkpt>
      <trkpt lat="42.60937183164060115814208984375" lon="2.7376695536077022552490234375">
        <ele>182.1999969482421875</ele>
        <time>2023-08-19T17:29:58.000Z</time>
        <extensions>
          <ns3:TrackPointExtension>
            <ns3:hr>158</ns3:hr>
            <ns3:cad>81</ns3:cad>
          </ns3:TrackPointExtension>
        </extensions>
      </trkpt>
      <trkpt lat="42.60939245112240314483642578125" lon="2.7376464195549488067626953125">
        <ele>182.399993896484375</ele>
        <time>2023-08-19T17:29:59.000Z</time>
        <extensions>
          <ns3:TrackPointExtension>
            <ns3:hr>158</ns3:hr>
            <ns3:cad>80</ns3:cad>
          </ns3:TrackPointExtension>
        </extensions>
      </trkpt>
      <trkpt lat="42.60941080749034881591796875" lon="2.7376246266067028045654296875">
        <ele>182.600006103515625</ele>
        <time>2023-08-19T17:30:00.000Z</time>
        <extensions>
          <ns3:TrackPointExtension>
            <ns3:hr>158</ns3:hr>
            <ns3:cad>81</ns3:cad>
          </ns3:TrackPointExtension>
        </extensions>
      </trkpt>
      <trkpt lat="42.60942815802991390228271484375" lon="2.73760157637298107147216796875">
        <ele>182.600006103515625</ele>
        <time>2023-08-19T17:30:01.000Z</time>
        <extensions>
          <ns3:TrackPointExtension>
            <ns3:hr>158</ns3:hr>
            <ns3:cad>81</ns3:cad>
          </ns3:TrackPointExtension>
        </extensions>
      </trkpt>
      <trkpt lat="42.60944810695946216583251953125" lon="2.73758011870086193084716796875">
        <ele>182.8000030517578125</ele>
        <time>2023-08-19T17:30:02.000Z</time>
        <extensions>
          <ns3:TrackPointExtension>
            <ns3:hr>159</ns3:hr>
            <ns3:cad>80</ns3:cad>
          </ns3:TrackPointExtension>
        </extensions>
      </trkpt>
      <trkpt lat="42.60946369729936122894287109375" lon="2.73756151087582111358642578125">
        <ele>182.8000030517578125</ele>
        <time>2023-08-19T17:30:03.000Z</time>
        <extensions>
          <ns3:TrackPointExtension>
            <ns3:hr>160</ns3:hr>
            <ns3:cad>80</ns3:cad>
          </ns3:TrackPointExtension>
        </extensions>
      </trkpt>
      <trkpt lat="42.60947928763926029205322265625" lon="2.737542651593685150146484375">
        <ele>183</ele>
        <time>2023-08-19T17:30:04.000Z</time>
        <extensions>
          <ns3:TrackPointExtension>
            <ns3:hr>160</ns3:hr>
            <ns3:cad>80</ns3:cad>
          </ns3:TrackPointExtension>
        </extensions>
      </trkpt>
      <trkpt lat="42.6094986498355865478515625" lon="2.73752077482640743255615234375">
        <ele>183.1999969482421875</ele>
        <time>2023-08-19T17:30:05.000Z</time>
        <extensions>
          <ns3:TrackPointExtension>
            <ns3:hr>161</ns3:hr>
            <ns3:cad>80</ns3:cad>
          </ns3:TrackPointExtension>
        </extensions>
      </trkpt>
      <trkpt lat="42.60951398871839046478271484375" lon="2.7374987304210662841796875">
        <ele>183.1999969482421875</ele>
        <time>2023-08-19T17:30:06.000Z</time>
        <extensions>
          <ns3:TrackPointExtension>
            <ns3:hr>161</ns3:hr>
            <ns3:cad>80</ns3:cad>
          </ns3:TrackPointExtension>
        </extensions>
      </trkpt>
      <trkpt lat="42.60952974669635295867919921875" lon="2.73747718892991542816162109375">
        <ele>183.1999969482421875</ele>
        <time>2023-08-19T17:30:07.000Z</time>
        <extensions>
          <ns3:TrackPointExtension>
            <ns3:hr>161</ns3:hr>
            <ns3:cad>80</ns3:cad>
          </ns3:TrackPointExtension>
        </extensions>
      </trkpt>
      <trkpt lat="42.60954751633107662200927734375" lon="2.73745539598166942596435546875">
        <ele>183.399993896484375</ele>
        <time>2023-08-19T17:30:08.000Z</time>
        <extensions>
          <ns3:TrackPointExtension>
            <ns3:hr>160</ns3:hr>
            <ns3:cad>80</ns3:cad>
          </ns3:TrackPointExtension>
        </extensions>
      </trkpt>
      <trkpt lat="42.6095621846616268157958984375" lon="2.737435363233089447021484375">
        <ele>183.600006103515625</ele>
        <time>2023-08-19T17:30:09.000Z</time>
        <extensions>
          <ns3:TrackPointExtension>
            <ns3:hr>161</ns3:hr>
            <ns3:cad>80</ns3:cad>
          </ns3:TrackPointExtension>
        </extensions>
      </trkpt>
      <trkpt lat="42.60957702063024044036865234375" lon="2.73741357028484344482421875">
        <ele>183.8000030517578125</ele>
        <time>2023-08-19T17:30:10.000Z</time>
        <extensions>
          <ns3:TrackPointExtension>
            <ns3:hr>160</ns3:hr>
            <ns3:cad>80</ns3:cad>
          </ns3:TrackPointExtension>
        </extensions>
      </trkpt>
      <trkpt lat="42.60959831066429615020751953125" lon="2.7373986504971981048583984375">
        <ele>184</ele>
        <time>2023-08-19T17:30:11.000Z</time>
        <extensions>
          <ns3:TrackPointExtension>
            <ns3:hr>160</ns3:hr>
            <ns3:cad>80</ns3:cad>
          </ns3:TrackPointExtension>
        </extensions>
      </trkpt>
      <trkpt lat="42.60961591266095638275146484375" lon="2.7373835630714893341064453125">
        <ele>184.1999969482421875</ele>
        <time>2023-08-19T17:30:12.000Z</time>
        <extensions>
          <ns3:TrackPointExtension>
            <ns3:hr>161</ns3:hr>
            <ns3:cad>80</ns3:cad>
          </ns3:TrackPointExtension>
        </extensions>
      </trkpt>
      <trkpt lat="42.6096329279243946075439453125" lon="2.7373631112277507781982421875">
        <ele>184.1999969482421875</ele>
        <time>2023-08-19T17:30:13.000Z</time>
        <extensions>
          <ns3:TrackPointExtension>
            <ns3:hr>161</ns3:hr>
            <ns3:cad>80</ns3:cad>
          </ns3:TrackPointExtension>
        </extensions>
      </trkpt>
      <trkpt lat="42.609650194644927978515625" lon="2.737342156469821929931640625">
        <ele>184.399993896484375</ele>
        <time>2023-08-19T17:30:14.000Z</time>
        <extensions>
          <ns3:TrackPointExtension>
            <ns3:hr>160</ns3:hr>
            <ns3:cad>80</ns3:cad>
          </ns3:TrackPointExtension>
        </extensions>
      </trkpt>
      <trkpt lat="42.60966653935611248016357421875" lon="2.7373178489506244659423828125">
        <ele>184.399993896484375</ele>
        <time>2023-08-19T17:30:15.000Z</time>
        <extensions>
          <ns3:TrackPointExtension>
            <ns3:hr>160</ns3:hr>
            <ns3:cad>80</ns3:cad>
          </ns3:TrackPointExtension>
        </extensions>
      </trkpt>
      <trkpt lat="42.60967961512506008148193359375" lon="2.7372920326888561248779296875">
        <ele>184.399993896484375</ele>
        <time>2023-08-19T17:30:16.000Z</time>
        <extensions>
          <ns3:TrackPointExtension>
            <ns3:hr>160</ns3:hr>
            <ns3:cad>80</ns3:cad>
          </ns3:TrackPointExtension>
        </extensions>
      </trkpt>
      <trkpt lat="42.60969939641654491424560546875" lon="2.73727141320705413818359375">
        <ele>184.399993896484375</ele>
        <time>2023-08-19T17:30:17.000Z</time>
        <extensions>
          <ns3:TrackPointExtension>
            <ns3:hr>160</ns3:hr>
            <ns3:cad>80</ns3:cad>
          </ns3:TrackPointExtension>
        </extensions>
      </trkpt>
      <trkpt lat="42.6097144000232219696044921875" lon="2.737252302467823028564453125">
        <ele>184.600006103515625</ele>
        <time>2023-08-19T17:30:18.000Z</time>
        <extensions>
          <ns3:TrackPointExtension>
            <ns3:hr>160</ns3:hr>
            <ns3:cad>80</ns3:cad>
          </ns3:TrackPointExtension>
        </extensions>
      </trkpt>
      <trkpt lat="42.609726302325725555419921875" lon="2.7372313477098941802978515625">
        <ele>184.600006103515625</ele>
        <time>2023-08-19T17:30:19.000Z</time>
        <extensions>
          <ns3:TrackPointExtension>
            <ns3:hr>160</ns3:hr>
            <ns3:cad>79</ns3:cad>
          </ns3:TrackPointExtension>
        </extensions>
      </trkpt>
      <trkpt lat="42.6097432337701320648193359375" lon="2.7372105605900287628173828125">
        <ele>184.8000030517578125</ele>
        <time>2023-08-19T17:30:20.000Z</time>
        <extensions>
          <ns3:TrackPointExtension>
            <ns3:hr>160</ns3:hr>
            <ns3:cad>79</ns3:cad>
          </ns3:TrackPointExtension>
        </extensions>
      </trkpt>
      <trkpt lat="42.6097583211958408355712890625" lon="2.73719170130789279937744140625">
        <ele>184.8000030517578125</ele>
        <time>2023-08-19T17:30:21.000Z</time>
        <extensions>
          <ns3:TrackPointExtension>
            <ns3:hr>160</ns3:hr>
            <ns3:cad>79</ns3:cad>
          </ns3:TrackPointExtension>
        </extensions>
      </trkpt>
      <trkpt lat="42.609773240983486175537109375" lon="2.7371733449399471282958984375">
        <ele>185</ele>
        <time>2023-08-19T17:30:22.000Z</time>
        <extensions>
          <ns3:TrackPointExtension>
            <ns3:hr>160</ns3:hr>
            <ns3:cad>79</ns3:cad>
          </ns3:TrackPointExtension>
        </extensions>
      </trkpt>
      <trkpt lat="42.60979436337947845458984375" lon="2.73714995943009853363037109375">
        <ele>185.1999969482421875</ele>
        <time>2023-08-19T17:30:23.000Z</time>
        <extensions>
          <ns3:TrackPointExtension>
            <ns3:hr>160</ns3:hr>
            <ns3:cad>79</ns3:cad>
          </ns3:TrackPointExtension>
        </extensions>
      </trkpt>
      <trkpt lat="42.60981204919517040252685546875" lon="2.73712766356766223907470703125">
        <ele>185.1999969482421875</ele>
        <time>2023-08-19T17:30:24.000Z</time>
        <extensions>
          <ns3:TrackPointExtension>
            <ns3:hr>160</ns3:hr>
            <ns3:cad>79</ns3:cad>
          </ns3:TrackPointExtension>
        </extensions>
      </trkpt>
      <trkpt lat="42.6098247058689594268798828125" lon="2.73710603825747966766357421875">
        <ele>185.399993896484375</ele>
        <time>2023-08-19T17:30:25.000Z</time>
        <extensions>
          <ns3:TrackPointExtension>
            <ns3:hr>160</ns3:hr>
            <ns3:cad>80</ns3:cad>
          </ns3:TrackPointExtension>
        </extensions>
      </trkpt>
      <trkpt lat="42.60984574444591999053955078125" lon="2.7370844967663288116455078125">
        <ele>185.399993896484375</ele>
        <time>2023-08-19T17:30:26.000Z</time>
        <extensions>
          <ns3:TrackPointExtension>
            <ns3:hr>160</ns3:hr>
            <ns3:cad>80</ns3:cad>
          </ns3:TrackPointExtension>
        </extensions>
      </trkpt>
      <trkpt lat="42.60986275970935821533203125" lon="2.7370670624077320098876953125">
        <ele>185.600006103515625</ele>
        <time>2023-08-19T17:30:27.000Z</time>
        <extensions>
          <ns3:TrackPointExtension>
            <ns3:hr>160</ns3:hr>
            <ns3:cad>80</ns3:cad>
          </ns3:TrackPointExtension>
        </extensions>
      </trkpt>
      <trkpt lat="42.60987910442054271697998046875" lon="2.737047113478183746337890625">
        <ele>185.8000030517578125</ele>
        <time>2023-08-19T17:30:28.000Z</time>
        <extensions>
          <ns3:TrackPointExtension>
            <ns3:hr>160</ns3:hr>
            <ns3:cad>80</ns3:cad>
          </ns3:TrackPointExtension>
        </extensions>
      </trkpt>
      <trkpt lat="42.609896957874298095703125" lon="2.7370264939963817596435546875">
        <ele>186</ele>
        <time>2023-08-19T17:30:29.000Z</time>
        <extensions>
          <ns3:TrackPointExtension>
            <ns3:hr>160</ns3:hr>
            <ns3:cad>80</ns3:cad>
          </ns3:TrackPointExtension>
        </extensions>
      </trkpt>
      <trkpt lat="42.60991238057613372802734375" lon="2.7370077185332775115966796875">
        <ele>186.1999969482421875</ele>
        <time>2023-08-19T17:30:30.000Z</time>
        <extensions>
          <ns3:TrackPointExtension>
            <ns3:hr>160</ns3:hr>
            <ns3:cad>80</ns3:cad>
          </ns3:TrackPointExtension>
        </extensions>
      </trkpt>
      <trkpt lat="42.60993182659149169921875" lon="2.73698735050857067108154296875">
        <ele>186.399993896484375</ele>
        <time>2023-08-19T17:30:31.000Z</time>
        <extensions>
          <ns3:TrackPointExtension>
            <ns3:hr>160</ns3:hr>
            <ns3:cad>80</ns3:cad>
          </ns3:TrackPointExtension>
        </extensions>
      </trkpt>
      <trkpt lat="42.6099514402449131011962890625" lon="2.736966647207736968994140625">
        <ele>186.399993896484375</ele>
        <time>2023-08-19T17:30:32.000Z</time>
        <extensions>
          <ns3:TrackPointExtension>
            <ns3:hr>160</ns3:hr>
            <ns3:cad>80</ns3:cad>
          </ns3:TrackPointExtension>
        </extensions>
      </trkpt>
      <trkpt lat="42.60996996425092220306396484375" lon="2.73694912903010845184326171875">
        <ele>186.600006103515625</ele>
        <time>2023-08-19T17:30:33.000Z</time>
        <extensions>
          <ns3:TrackPointExtension>
            <ns3:hr>160</ns3:hr>
            <ns3:cad>80</ns3:cad>
          </ns3:TrackPointExtension>
        </extensions>
      </trkpt>
      <trkpt lat="42.60998806916177272796630859375" lon="2.73693521507084369659423828125">
        <ele>186.8000030517578125</ele>
        <time>2023-08-19T17:30:34.000Z</time>
        <extensions>
          <ns3:TrackPointExtension>
            <ns3:hr>160</ns3:hr>
            <ns3:cad>79</ns3:cad>
          </ns3:TrackPointExtension>
        </extensions>
      </trkpt>
      <trkpt lat="42.6100044138729572296142578125" lon="2.736917026340961456298828125">
        <ele>187</ele>
        <time>2023-08-19T17:30:35.000Z</time>
        <extensions>
          <ns3:TrackPointExtension>
            <ns3:hr>160</ns3:hr>
            <ns3:cad>79</ns3:cad>
          </ns3:TrackPointExtension>
        </extensions>
      </trkpt>
      <trkpt lat="42.6100228540599346160888671875" lon="2.73689833469688892364501953125">
        <ele>187.1999969482421875</ele>
        <time>2023-08-19T17:30:36.000Z</time>
        <extensions>
          <ns3:TrackPointExtension>
            <ns3:hr>160</ns3:hr>
            <ns3:cad>79</ns3:cad>
          </ns3:TrackPointExtension>
        </extensions>
      </trkpt>
      <trkpt lat="42.6100406236946582794189453125" lon="2.73687981069087982177734375">
        <ele>187.1999969482421875</ele>
        <time>2023-08-19T17:30:37.000Z</time>
        <extensions>
          <ns3:TrackPointExtension>
            <ns3:hr>160</ns3:hr>
            <ns3:cad>79</ns3:cad>
          </ns3:TrackPointExtension>
        </extensions>
      </trkpt>
      <trkpt lat="42.61005663312971591949462890625" lon="2.73686162196099758148193359375">
        <ele>187.399993896484375</ele>
        <time>2023-08-19T17:30:38.000Z</time>
        <extensions>
          <ns3:TrackPointExtension>
            <ns3:hr>160</ns3:hr>
            <ns3:cad>79</ns3:cad>
          </ns3:TrackPointExtension>
        </extensions>
      </trkpt>
      <trkpt lat="42.61007356457412242889404296875" lon="2.7368424274027347564697265625">
        <ele>187.600006103515625</ele>
        <time>2023-08-19T17:30:39.000Z</time>
        <extensions>
          <ns3:TrackPointExtension>
            <ns3:hr>160</ns3:hr>
            <ns3:cad>79</ns3:cad>
          </ns3:TrackPointExtension>
        </extensions>
      </trkpt>
      <trkpt lat="42.61008714325726032257080078125" lon="2.7368226461112499237060546875">
        <ele>187.8000030517578125</ele>
        <time>2023-08-19T17:30:40.000Z</time>
        <extensions>
          <ns3:TrackPointExtension>
            <ns3:hr>160</ns3:hr>
            <ns3:cad>79</ns3:cad>
          </ns3:TrackPointExtension>
        </extensions>
      </trkpt>
      <trkpt lat="42.61010122485458850860595703125" lon="2.7368040382862091064453125">
        <ele>187.8000030517578125</ele>
        <time>2023-08-19T17:30:41.000Z</time>
        <extensions>
          <ns3:TrackPointExtension>
            <ns3:hr>159</ns3:hr>
            <ns3:cad>79</ns3:cad>
          </ns3:TrackPointExtension>
        </extensions>
      </trkpt>
      <trkpt lat="42.61011530645191669464111328125" lon="2.73678735829889774322509765625">
        <ele>187.8000030517578125</ele>
        <time>2023-08-19T17:30:42.000Z</time>
        <extensions>
          <ns3:TrackPointExtension>
            <ns3:hr>159</ns3:hr>
            <ns3:cad>79</ns3:cad>
          </ns3:TrackPointExtension>
        </extensions>
      </trkpt>
      <trkpt lat="42.61012184433639049530029296875" lon="2.73676715791225433349609375">
        <ele>188</ele>
        <time>2023-08-19T17:30:43.000Z</time>
        <extensions>
          <ns3:TrackPointExtension>
            <ns3:hr>159</ns3:hr>
            <ns3:cad>79</ns3:cad>
          </ns3:TrackPointExtension>
        </extensions>
      </trkpt>
      <trkpt lat="42.61013458482921123504638671875" lon="2.73674645461142063140869140625">
        <ele>188.1999969482421875</ele>
        <time>2023-08-19T17:30:44.000Z</time>
        <extensions>
          <ns3:TrackPointExtension>
            <ns3:hr>159</ns3:hr>
            <ns3:cad>79</ns3:cad>
          </ns3:TrackPointExtension>
        </extensions>
      </trkpt>
      <trkpt lat="42.61014816351234912872314453125" lon="2.736727260053157806396484375">
        <ele>188.399993896484375</ele>
        <time>2023-08-19T17:30:45.000Z</time>
        <extensions>
          <ns3:TrackPointExtension>
            <ns3:hr>159</ns3:hr>
            <ns3:cad>79</ns3:cad>
          </ns3:TrackPointExtension>
        </extensions>
      </trkpt>
      <trkpt lat="42.61015822179615497589111328125" lon="2.73670907132327556610107421875">
        <ele>188.399993896484375</ele>
        <time>2023-08-19T17:30:46.000Z</time>
        <extensions>
          <ns3:TrackPointExtension>
            <ns3:hr>159</ns3:hr>
            <ns3:cad>79</ns3:cad>
          </ns3:TrackPointExtension>
        </extensions>
      </trkpt>
      <trkpt lat="42.6101717166602611541748046875" lon="2.73669029586017131805419921875">
        <ele>188.600006103515625</ele>
        <time>2023-08-19T17:30:47.000Z</time>
        <extensions>
          <ns3:TrackPointExtension>
            <ns3:hr>159</ns3:hr>
            <ns3:cad>79</ns3:cad>
          </ns3:TrackPointExtension>
        </extensions>
      </trkpt>
      <trkpt lat="42.6101898215711116790771484375" lon="2.73667135275900363922119140625">
        <ele>188.8000030517578125</ele>
        <time>2023-08-19T17:30:48.000Z</time>
        <extensions>
          <ns3:TrackPointExtension>
            <ns3:hr>159</ns3:hr>
            <ns3:cad>79</ns3:cad>
          </ns3:TrackPointExtension>
        </extensions>
      </trkpt>
      <trkpt lat="42.6102040708065032958984375" lon="2.7366523258388042449951171875">
        <ele>189</ele>
        <time>2023-08-19T17:30:49.000Z</time>
        <extensions>
          <ns3:TrackPointExtension>
            <ns3:hr>159</ns3:hr>
            <ns3:cad>80</ns3:cad>
          </ns3:TrackPointExtension>
        </extensions>
      </trkpt>
      <trkpt lat="42.6102226786315441131591796875" lon="2.73663011379539966583251953125">
        <ele>189.399993896484375</ele>
        <time>2023-08-19T17:30:50.000Z</time>
        <extensions>
          <ns3:TrackPointExtension>
            <ns3:hr>159</ns3:hr>
            <ns3:cad>80</ns3:cad>
          </ns3:TrackPointExtension>
        </extensions>
      </trkpt>
      <trkpt lat="42.61023952625691890716552734375" lon="2.73661301471292972564697265625">
        <ele>189.8000030517578125</ele>
        <time>2023-08-19T17:30:51.000Z</time>
        <extensions>
          <ns3:TrackPointExtension>
            <ns3:hr>159</ns3:hr>
            <ns3:cad>80</ns3:cad>
          </ns3:TrackPointExtension>
        </extensions>
      </trkpt>
      <trkpt lat="42.6102525182068347930908203125" lon="2.73659725673496723175048828125">
        <ele>190</ele>
        <time>2023-08-19T17:30:52.000Z</time>
        <extensions>
          <ns3:TrackPointExtension>
            <ns3:hr>159</ns3:hr>
            <ns3:cad>80</ns3:cad>
          </ns3:TrackPointExtension>
        </extensions>
      </trkpt>
      <trkpt lat="42.61026986874639987945556640625" lon="2.73657739162445068359375">
        <ele>190.1999969482421875</ele>
        <time>2023-08-19T17:30:53.000Z</time>
        <extensions>
          <ns3:TrackPointExtension>
            <ns3:hr>159</ns3:hr>
            <ns3:cad>80</ns3:cad>
          </ns3:TrackPointExtension>
        </extensions>
      </trkpt>
      <trkpt lat="42.6102867163717746734619140625" lon="2.736556939780712127685546875">
        <ele>190.399993896484375</ele>
        <time>2023-08-19T17:30:54.000Z</time>
        <extensions>
          <ns3:TrackPointExtension>
            <ns3:hr>158</ns3:hr>
            <ns3:cad>80</ns3:cad>
          </ns3:TrackPointExtension>
        </extensions>
      </trkpt>
      <trkpt lat="42.61030054651200771331787109375" lon="2.73653791286051273345947265625">
        <ele>190.600006103515625</ele>
        <time>2023-08-19T17:30:55.000Z</time>
        <extensions>
          <ns3:TrackPointExtension>
            <ns3:hr>158</ns3:hr>
            <ns3:cad>80</ns3:cad>
          </ns3:TrackPointExtension>
        </extensions>
      </trkpt>
      <trkpt lat="42.61031881906092166900634765625" lon="2.73651503026485443115234375">
        <ele>190.8000030517578125</ele>
        <time>2023-08-19T17:30:56.000Z</time>
        <extensions>
          <ns3:TrackPointExtension>
            <ns3:hr>159</ns3:hr>
            <ns3:cad>80</ns3:cad>
          </ns3:TrackPointExtension>
        </extensions>
      </trkpt>
      <trkpt lat="42.610336840152740478515625" lon="2.73649667389690876007080078125">
        <ele>191</ele>
        <time>2023-08-19T17:30:57.000Z</time>
        <extensions>
          <ns3:TrackPointExtension>
            <ns3:hr>159</ns3:hr>
            <ns3:cad>80</ns3:cad>
          </ns3:TrackPointExtension>
        </extensions>
      </trkpt>
      <trkpt lat="42.610349915921688079833984375" lon="2.736478485167026519775390625">
        <ele>191.1999969482421875</ele>
        <time>2023-08-19T17:30:58.000Z</time>
        <extensions>
          <ns3:TrackPointExtension>
            <ns3:hr>159</ns3:hr>
            <ns3:cad>80</ns3:cad>
          </ns3:TrackPointExtension>
        </extensions>
      </trkpt>
      <trkpt lat="42.610366679728031158447265625" lon="2.73645677603781223297119140625">
        <ele>191.399993896484375</ele>
        <time>2023-08-19T17:30:59.000Z</time>
        <extensions>
          <ns3:TrackPointExtension>
            <ns3:hr>159</ns3:hr>
            <ns3:cad>80</ns3:cad>
          </ns3:TrackPointExtension>
        </extensions>
      </trkpt>
      <trkpt lat="42.6103862933814525604248046875" lon="2.73643783293664455413818359375">
        <ele>191.8000030517578125</ele>
        <time>2023-08-19T17:31:00.000Z</time>
        <extensions>
          <ns3:TrackPointExtension>
            <ns3:hr>159</ns3:hr>
            <ns3:cad>80</ns3:cad>
          </ns3:TrackPointExtension>
        </extensions>
      </trkpt>
      <trkpt lat="42.6103997044265270233154296875" lon="2.73642006330192089080810546875">
        <ele>191.8000030517578125</ele>
        <time>2023-08-19T17:31:01.000Z</time>
        <extensions>
          <ns3:TrackPointExtension>
            <ns3:hr>159</ns3:hr>
            <ns3:cad>80</ns3:cad>
          </ns3:TrackPointExtension>
        </extensions>
      </trkpt>
      <trkpt lat="42.6104111038148403167724609375" lon="2.736403383314609527587890625">
        <ele>192</ele>
        <time>2023-08-19T17:31:02.000Z</time>
        <extensions>
          <ns3:TrackPointExtension>
            <ns3:hr>159</ns3:hr>
            <ns3:cad>79</ns3:cad>
          </ns3:TrackPointExtension>
        </extensions>
      </trkpt>
      <trkpt lat="42.610427699983119964599609375" lon="2.7363851107656955718994140625">
        <ele>192.1999969482421875</ele>
        <time>2023-08-19T17:31:03.000Z</time>
        <extensions>
          <ns3:TrackPointExtension>
            <ns3:hr>160</ns3:hr>
            <ns3:cad>79</ns3:cad>
          </ns3:TrackPointExtension>
        </extensions>
      </trkpt>
      <trkpt lat="42.61044345796108245849609375" lon="2.7363676764070987701416015625">
        <ele>192.399993896484375</ele>
        <time>2023-08-19T17:31:04.000Z</time>
        <extensions>
          <ns3:TrackPointExtension>
            <ns3:hr>160</ns3:hr>
            <ns3:cad>79</ns3:cad>
          </ns3:TrackPointExtension>
        </extensions>
      </trkpt>
      <trkpt lat="42.61045427061617374420166015625" lon="2.736351750791072845458984375">
        <ele>192.600006103515625</ele>
        <time>2023-08-19T17:31:05.000Z</time>
        <extensions>
          <ns3:TrackPointExtension>
            <ns3:hr>160</ns3:hr>
            <ns3:cad>79</ns3:cad>
          </ns3:TrackPointExtension>
        </extensions>
      </trkpt>
      <trkpt lat="42.61047153733670711517333984375" lon="2.7363318018615245819091796875">
        <ele>192.8000030517578125</ele>
        <time>2023-08-19T17:31:06.000Z</time>
        <extensions>
          <ns3:TrackPointExtension>
            <ns3:hr>160</ns3:hr>
            <ns3:cad>79</ns3:cad>
          </ns3:TrackPointExtension>
        </extensions>
      </trkpt>
      <trkpt lat="42.610482014715671539306640625" lon="2.736313529312610626220703125">
        <ele>193</ele>
        <time>2023-08-19T17:31:07.000Z</time>
        <extensions>
          <ns3:TrackPointExtension>
            <ns3:hr>160</ns3:hr>
            <ns3:cad>79</ns3:cad>
          </ns3:TrackPointExtension>
        </extensions>
      </trkpt>
      <trkpt lat="42.61049685068428516387939453125" lon="2.73629701696336269378662109375">
        <ele>193</ele>
        <time>2023-08-19T17:31:08.000Z</time>
        <extensions>
          <ns3:TrackPointExtension>
            <ns3:hr>160</ns3:hr>
            <ns3:cad>79</ns3:cad>
          </ns3:TrackPointExtension>
        </extensions>
      </trkpt>
      <trkpt lat="42.61051260866224765777587890625" lon="2.736281342804431915283203125">
        <ele>193.399993896484375</ele>
        <time>2023-08-19T17:31:09.000Z</time>
        <extensions>
          <ns3:TrackPointExtension>
            <ns3:hr>160</ns3:hr>
            <ns3:cad>79</ns3:cad>
          </ns3:TrackPointExtension>
        </extensions>
      </trkpt>
      <trkpt lat="42.610528282821178436279296875" lon="2.7362613938748836517333984375">
        <ele>193.600006103515625</ele>
        <time>2023-08-19T17:31:10.000Z</time>
        <extensions>
          <ns3:TrackPointExtension>
            <ns3:hr>160</ns3:hr>
            <ns3:cad>78</ns3:cad>
          </ns3:TrackPointExtension>
        </extensions>
      </trkpt>
      <trkpt lat="42.61053959839046001434326171875" lon="2.736244462430477142333984375">
        <ele>193.8000030517578125</ele>
        <time>2023-08-19T17:31:11.000Z</time>
        <extensions>
          <ns3:TrackPointExtension>
            <ns3:hr>160</ns3:hr>
            <ns3:cad>79</ns3:cad>
          </ns3:TrackPointExtension>
        </extensions>
      </trkpt>
      <trkpt lat="42.6105559431016445159912109375" lon="2.73622308857738971710205078125">
        <ele>193.8000030517578125</ele>
        <time>2023-08-19T17:31:12.000Z</time>
        <extensions>
          <ns3:TrackPointExtension>
            <ns3:hr>160</ns3:hr>
            <ns3:cad>79</ns3:cad>
          </ns3:TrackPointExtension>
        </extensions>
      </trkpt>
      <trkpt lat="42.61057262308895587921142578125" lon="2.736204564571380615234375">
        <ele>194</ele>
        <time>2023-08-19T17:31:13.000Z</time>
        <extensions>
          <ns3:TrackPointExtension>
            <ns3:hr>160</ns3:hr>
            <ns3:cad>79</ns3:cad>
          </ns3:TrackPointExtension>
        </extensions>
      </trkpt>
      <trkpt lat="42.6105854474008083343505859375" lon="2.73618687875568866729736328125">
        <ele>194.399993896484375</ele>
        <time>2023-08-19T17:31:14.000Z</time>
        <extensions>
          <ns3:TrackPointExtension>
            <ns3:hr>160</ns3:hr>
            <ns3:cad>79</ns3:cad>
          </ns3:TrackPointExtension>
        </extensions>
      </trkpt>
      <trkpt lat="42.61060237884521484375" lon="2.73616743274033069610595703125">
        <ele>194.8000030517578125</ele>
        <time>2023-08-19T17:31:15.000Z</time>
        <extensions>
          <ns3:TrackPointExtension>
            <ns3:hr>160</ns3:hr>
            <ns3:cad>80</ns3:cad>
          </ns3:TrackPointExtension>
        </extensions>
      </trkpt>
      <trkpt lat="42.6106193102896213531494140625" lon="2.73614823818206787109375">
        <ele>195</ele>
        <time>2023-08-19T17:31:16.000Z</time>
        <extensions>
          <ns3:TrackPointExtension>
            <ns3:hr>160</ns3:hr>
            <ns3:cad>79</ns3:cad>
          </ns3:TrackPointExtension>
        </extensions>
      </trkpt>
      <trkpt lat="42.61063129641115665435791015625" lon="2.73613038472831249237060546875">
        <ele>195.1999969482421875</ele>
        <time>2023-08-19T17:31:17.000Z</time>
        <extensions>
          <ns3:TrackPointExtension>
            <ns3:hr>160</ns3:hr>
            <ns3:cad>79</ns3:cad>
          </ns3:TrackPointExtension>
        </extensions>
      </trkpt>
      <trkpt lat="42.6106474734842777252197265625" lon="2.7361120283603668212890625">
        <ele>195.399993896484375</ele>
        <time>2023-08-19T17:31:18.000Z</time>
        <extensions>
          <ns3:TrackPointExtension>
            <ns3:hr>160</ns3:hr>
            <ns3:cad>79</ns3:cad>
          </ns3:TrackPointExtension>
        </extensions>
      </trkpt>
      <trkpt lat="42.610659711062908172607421875" lon="2.7360940910875797271728515625">
        <ele>195.8000030517578125</ele>
        <time>2023-08-19T17:31:19.000Z</time>
        <extensions>
          <ns3:TrackPointExtension>
            <ns3:hr>159</ns3:hr>
            <ns3:cad>79</ns3:cad>
          </ns3:TrackPointExtension>
        </extensions>
      </trkpt>
      <trkpt lat="42.61067270301282405853271484375" lon="2.7360744774341583251953125">
        <ele>196</ele>
        <time>2023-08-19T17:31:20.000Z</time>
        <extensions>
          <ns3:TrackPointExtension>
            <ns3:hr>159</ns3:hr>
            <ns3:cad>79</ns3:cad>
          </ns3:TrackPointExtension>
        </extensions>
      </trkpt>
      <trkpt lat="42.61068561114370822906494140625" lon="2.73605796508491039276123046875">
        <ele>196.399993896484375</ele>
        <time>2023-08-19T17:31:21.000Z</time>
        <extensions>
          <ns3:TrackPointExtension>
            <ns3:hr>159</ns3:hr>
            <ns3:cad>79</ns3:cad>
          </ns3:TrackPointExtension>
        </extensions>
      </trkpt>
      <trkpt lat="42.61070237495005130767822265625" lon="2.7360407821834087371826171875">
        <ele>196.600006103515625</ele>
        <time>2023-08-19T17:31:22.000Z</time>
        <extensions>
          <ns3:TrackPointExtension>
            <ns3:hr>158</ns3:hr>
            <ns3:cad>79</ns3:cad>
          </ns3:TrackPointExtension>
        </extensions>
      </trkpt>
      <trkpt lat="42.6107141934335231781005859375" lon="2.7360246889293193817138671875">
        <ele>196.8000030517578125</ele>
        <time>2023-08-19T17:31:23.000Z</time>
        <extensions>
          <ns3:TrackPointExtension>
            <ns3:hr>158</ns3:hr>
            <ns3:cad>79</ns3:cad>
          </ns3:TrackPointExtension>
        </extensions>
      </trkpt>
      <trkpt lat="42.61072869412600994110107421875" lon="2.73600666783750057220458984375">
        <ele>197</ele>
        <time>2023-08-19T17:31:24.000Z</time>
        <extensions>
          <ns3:TrackPointExtension>
            <ns3:hr>158</ns3:hr>
            <ns3:cad>79</ns3:cad>
          </ns3:TrackPointExtension>
        </extensions>
      </trkpt>
      <trkpt lat="42.61074612848460674285888671875" lon="2.735985629260540008544921875">
        <ele>197</ele>
        <time>2023-08-19T17:31:25.000Z</time>
        <extensions>
          <ns3:TrackPointExtension>
            <ns3:hr>158</ns3:hr>
            <ns3:cad>79</ns3:cad>
          </ns3:TrackPointExtension>
        </extensions>
      </trkpt>
      <trkpt lat="42.6107604615390300750732421875" lon="2.73597045801579952239990234375">
        <ele>197.1999969482421875</ele>
        <time>2023-08-19T17:31:26.000Z</time>
        <extensions>
          <ns3:TrackPointExtension>
            <ns3:hr>158</ns3:hr>
            <ns3:cad>79</ns3:cad>
          </ns3:TrackPointExtension>
        </extensions>
      </trkpt>
      <trkpt lat="42.61077496223151683807373046875" lon="2.7359515987336635589599609375">
        <ele>197.399993896484375</ele>
        <time>2023-08-19T17:31:27.000Z</time>
        <extensions>
          <ns3:TrackPointExtension>
            <ns3:hr>158</ns3:hr>
            <ns3:cad>79</ns3:cad>
          </ns3:TrackPointExtension>
        </extensions>
      </trkpt>
      <trkpt lat="42.61079088784754276275634765625" lon="2.7359311468899250030517578125">
        <ele>197.600006103515625</ele>
        <time>2023-08-19T17:31:28.000Z</time>
        <extensions>
          <ns3:TrackPointExtension>
            <ns3:hr>158</ns3:hr>
            <ns3:cad>79</ns3:cad>
          </ns3:TrackPointExtension>
        </extensions>
      </trkpt>
      <trkpt lat="42.6108062267303466796875" lon="2.735913880169391632080078125">
        <ele>197.8000030517578125</ele>
        <time>2023-08-19T17:31:29.000Z</time>
        <extensions>
          <ns3:TrackPointExtension>
            <ns3:hr>158</ns3:hr>
            <ns3:cad>79</ns3:cad>
          </ns3:TrackPointExtension>
        </extensions>
      </trkpt>
      <trkpt lat="42.61082106269896030426025390625" lon="2.73589418269693851470947265625">
        <ele>198</ele>
        <time>2023-08-19T17:31:30.000Z</time>
        <extensions>
          <ns3:TrackPointExtension>
            <ns3:hr>158</ns3:hr>
            <ns3:cad>79</ns3:cad>
          </ns3:TrackPointExtension>
        </extensions>
      </trkpt>
      <trkpt lat="42.610837407410144805908203125" lon="2.7358724735677242279052734375">
        <ele>198.1999969482421875</ele>
        <time>2023-08-19T17:31:31.000Z</time>
        <extensions>
          <ns3:TrackPointExtension>
            <ns3:hr>157</ns3:hr>
            <ns3:cad>79</ns3:cad>
          </ns3:TrackPointExtension>
        </extensions>
      </trkpt>
      <trkpt lat="42.6108543388545513153076171875" lon="2.735850848257541656494140625">
        <ele>198.1999969482421875</ele>
        <time>2023-08-19T17:31:32.000Z</time>
        <extensions>
          <ns3:TrackPointExtension>
            <ns3:hr>157</ns3:hr>
            <ns3:cad>79</ns3:cad>
          </ns3:TrackPointExtension>
        </extensions>
      </trkpt>
      <trkpt lat="42.61086565442383289337158203125" lon="2.7358303964138031005859375">
        <ele>198.600006103515625</ele>
        <time>2023-08-19T17:31:33.000Z</time>
        <extensions>
          <ns3:TrackPointExtension>
            <ns3:hr>158</ns3:hr>
            <ns3:cad>79</ns3:cad>
          </ns3:TrackPointExtension>
        </extensions>
      </trkpt>
      <trkpt lat="42.61088325642049312591552734375" lon="2.73581120185554027557373046875">
        <ele>198.600006103515625</ele>
        <time>2023-08-19T17:31:34.000Z</time>
        <extensions>
          <ns3:TrackPointExtension>
            <ns3:hr>158</ns3:hr>
            <ns3:cad>79</ns3:cad>
          </ns3:TrackPointExtension>
        </extensions>
      </trkpt>
      <trkpt lat="42.61090119369328022003173828125" lon="2.73579326458275318145751953125">
        <ele>198.8000030517578125</ele>
        <time>2023-08-19T17:31:35.000Z</time>
        <extensions>
          <ns3:TrackPointExtension>
            <ns3:hr>158</ns3:hr>
            <ns3:cad>79</ns3:cad>
          </ns3:TrackPointExtension>
        </extensions>
      </trkpt>
      <trkpt lat="42.61091426946222782135009765625" lon="2.73577608168125152587890625">
        <ele>199</ele>
        <time>2023-08-19T17:31:36.000Z</time>
        <extensions>
          <ns3:TrackPointExtension>
            <ns3:hr>158</ns3:hr>
            <ns3:cad>79</ns3:cad>
          </ns3:TrackPointExtension>
        </extensions>
      </trkpt>
      <trkpt lat="42.61092818342149257659912109375" lon="2.7357581444084644317626953125">
        <ele>199.1999969482421875</ele>
        <time>2023-08-19T17:31:37.000Z</time>
        <extensions>
          <ns3:TrackPointExtension>
            <ns3:hr>158</ns3:hr>
            <ns3:cad>79</ns3:cad>
          </ns3:TrackPointExtension>
        </extensions>
      </trkpt>
      <trkpt lat="42.61094377376139163970947265625" lon="2.735740877687931060791015625">
        <ele>199.399993896484375</ele>
        <time>2023-08-19T17:31:38.000Z</time>
        <extensions>
          <ns3:TrackPointExtension>
            <ns3:hr>159</ns3:hr>
            <ns3:cad>78</ns3:cad>
          </ns3:TrackPointExtension>
        </extensions>
      </trkpt>
      <trkpt lat="42.6109599508345127105712890625" lon="2.73572302423417568206787109375">
        <ele>199.600006103515625</ele>
        <time>2023-08-19T17:31:39.000Z</time>
        <extensions>
          <ns3:TrackPointExtension>
            <ns3:hr>159</ns3:hr>
            <ns3:cad>78</ns3:cad>
          </ns3:TrackPointExtension>
        </extensions>
      </trkpt>
      <trkpt lat="42.6109740324318408966064453125" lon="2.7357045002281665802001953125">
        <ele>199.8000030517578125</ele>
        <time>2023-08-19T17:31:40.000Z</time>
        <extensions>
          <ns3:TrackPointExtension>
            <ns3:hr>159</ns3:hr>
            <ns3:cad>79</ns3:cad>
          </ns3:TrackPointExtension>
        </extensions>
      </trkpt>
      <trkpt lat="42.610992304980754852294921875" lon="2.73568396456539630889892578125">
        <ele>199.8000030517578125</ele>
        <time>2023-08-19T17:31:41.000Z</time>
        <extensions>
          <ns3:TrackPointExtension>
            <ns3:hr>159</ns3:hr>
            <ns3:cad>79</ns3:cad>
          </ns3:TrackPointExtension>
        </extensions>
      </trkpt>
      <trkpt lat="42.611005045473575592041015625" lon="2.73566552437841892242431640625">
        <ele>200</ele>
        <time>2023-08-19T17:31:42.000Z</time>
        <extensions>
          <ns3:TrackPointExtension>
            <ns3:hr>159</ns3:hr>
            <ns3:cad>79</ns3:cad>
          </ns3:TrackPointExtension>
        </extensions>
      </trkpt>
      <trkpt lat="42.6110189594328403472900390625" lon="2.73564708419144153594970703125">
        <ele>200</ele>
        <time>2023-08-19T17:31:43.000Z</time>
        <extensions>
          <ns3:TrackPointExtension>
            <ns3:hr>159</ns3:hr>
            <ns3:cad>79</ns3:cad>
          </ns3:TrackPointExtension>
        </extensions>
      </trkpt>
      <trkpt lat="42.611036561429500579833984375" lon="2.73562587797641754150390625">
        <ele>200.1999969482421875</ele>
        <time>2023-08-19T17:31:44.000Z</time>
        <extensions>
          <ns3:TrackPointExtension>
            <ns3:hr>159</ns3:hr>
            <ns3:cad>79</ns3:cad>
          </ns3:TrackPointExtension>
        </extensions>
      </trkpt>
      <trkpt lat="42.6110487990081310272216796875" lon="2.73560517467558383941650390625">
        <ele>200.600006103515625</ele>
        <time>2023-08-19T17:31:45.000Z</time>
        <extensions>
          <ns3:TrackPointExtension>
            <ns3:hr>159</ns3:hr>
            <ns3:cad>79</ns3:cad>
          </ns3:TrackPointExtension>
        </extensions>
      </trkpt>
      <trkpt lat="42.61106195859611034393310546875" lon="2.7355838008224964141845703125">
        <ele>200.8000030517578125</ele>
        <time>2023-08-19T17:31:46.000Z</time>
        <extensions>
          <ns3:TrackPointExtension>
            <ns3:hr>159</ns3:hr>
            <ns3:cad>79</ns3:cad>
          </ns3:TrackPointExtension>
        </extensions>
      </trkpt>
      <trkpt lat="42.61107981204986572265625" lon="2.73556158877909183502197265625">
        <ele>201</ele>
        <time>2023-08-19T17:31:47.000Z</time>
        <extensions>
          <ns3:TrackPointExtension>
            <ns3:hr>159</ns3:hr>
            <ns3:cad>79</ns3:cad>
          </ns3:TrackPointExtension>
        </extensions>
      </trkpt>
      <trkpt lat="42.61109523475170135498046875" lon="2.73554407060146331787109375">
        <ele>201</ele>
        <time>2023-08-19T17:31:48.000Z</time>
        <extensions>
          <ns3:TrackPointExtension>
            <ns3:hr>159</ns3:hr>
            <ns3:cad>79</ns3:cad>
          </ns3:TrackPointExtension>
        </extensions>
      </trkpt>
      <trkpt lat="42.6111079752445220947265625" lon="2.73552588187158107757568359375">
        <ele>201.1999969482421875</ele>
        <time>2023-08-19T17:31:49.000Z</time>
        <extensions>
          <ns3:TrackPointExtension>
            <ns3:hr>159</ns3:hr>
            <ns3:cad>79</ns3:cad>
          </ns3:TrackPointExtension>
        </extensions>
      </trkpt>
      <trkpt lat="42.61112549342215061187744140625" lon="2.7355043403804302215576171875">
        <ele>201.399993896484375</ele>
        <time>2023-08-19T17:31:50.000Z</time>
        <extensions>
          <ns3:TrackPointExtension>
            <ns3:hr>159</ns3:hr>
            <ns3:cad>79</ns3:cad>
          </ns3:TrackPointExtension>
        </extensions>
      </trkpt>
      <trkpt lat="42.61114158667623996734619140625" lon="2.73548514582216739654541015625">
        <ele>201.600006103515625</ele>
        <time>2023-08-19T17:31:51.000Z</time>
        <extensions>
          <ns3:TrackPointExtension>
            <ns3:hr>159</ns3:hr>
            <ns3:cad>79</ns3:cad>
          </ns3:TrackPointExtension>
        </extensions>
      </trkpt>
      <trkpt lat="42.61115491390228271484375" lon="2.7354657836258411407470703125">
        <ele>201.8000030517578125</ele>
        <time>2023-08-19T17:31:52.000Z</time>
        <extensions>
          <ns3:TrackPointExtension>
            <ns3:hr>159</ns3:hr>
            <ns3:cad>79</ns3:cad>
          </ns3:TrackPointExtension>
        </extensions>
      </trkpt>
      <trkpt lat="42.61116857640445232391357421875" lon="2.73544256575405597686767578125">
        <ele>202.1999969482421875</ele>
        <time>2023-08-19T17:31:53.000Z</time>
        <extensions>
          <ns3:TrackPointExtension>
            <ns3:hr>159</ns3:hr>
            <ns3:cad>79</ns3:cad>
          </ns3:TrackPointExtension>
        </extensions>
      </trkpt>
      <trkpt lat="42.61117494665086269378662109375" lon="2.73541540838778018951416015625">
        <ele>202.399993896484375</ele>
        <time>2023-08-19T17:31:54.000Z</time>
        <extensions>
          <ns3:TrackPointExtension>
            <ns3:hr>160</ns3:hr>
            <ns3:cad>78</ns3:cad>
          </ns3:TrackPointExtension>
        </extensions>
      </trkpt>
      <trkpt lat="42.61117427609860897064208984375" lon="2.73539378307759761810302734375">
        <ele>202.600006103515625</ele>
        <time>2023-08-19T17:31:55.000Z</time>
        <extensions>
          <ns3:TrackPointExtension>
            <ns3:hr>160</ns3:hr>
            <ns3:cad>78</ns3:cad>
          </ns3:TrackPointExtension>
        </extensions>
      </trkpt>
      <trkpt lat="42.61116907931864261627197265625" lon="2.73536863736808300018310546875">
        <ele>203</ele>
        <time>2023-08-19T17:31:56.000Z</time>
        <extensions>
          <ns3:TrackPointExtension>
            <ns3:hr>160</ns3:hr>
            <ns3:cad>78</ns3:cad>
          </ns3:TrackPointExtension>
        </extensions>
      </trkpt>
      <trkpt lat="42.61115181259810924530029296875" lon="2.73534298874437808990478515625">
        <ele>203.399993896484375</ele>
        <time>2023-08-19T17:31:57.000Z</time>
        <extensions>
          <ns3:TrackPointExtension>
            <ns3:hr>160</ns3:hr>
            <ns3:cad>78</ns3:cad>
          </ns3:TrackPointExtension>
        </extensions>
      </trkpt>
      <trkpt lat="42.61113588698208332061767578125" lon="2.73532672785222530364990234375">
        <ele>203.600006103515625</ele>
        <time>2023-08-19T17:31:58.000Z</time>
        <extensions>
          <ns3:TrackPointExtension>
            <ns3:hr>159</ns3:hr>
            <ns3:cad>78</ns3:cad>
          </ns3:TrackPointExtension>
        </extensions>
      </trkpt>
      <trkpt lat="42.6111138425767421722412109375" lon="2.73531449027359485626220703125">
        <ele>204</ele>
        <time>2023-08-19T17:31:59.000Z</time>
        <extensions>
          <ns3:TrackPointExtension>
            <ns3:hr>159</ns3:hr>
            <ns3:cad>78</ns3:cad>
          </ns3:TrackPointExtension>
        </extensions>
      </trkpt>
      <trkpt lat="42.611089535057544708251953125" lon="2.73530694656074047088623046875">
        <ele>204.1999969482421875</ele>
        <time>2023-08-19T17:32:00.000Z</time>
        <extensions>
          <ns3:TrackPointExtension>
            <ns3:hr>159</ns3:hr>
            <ns3:cad>79</ns3:cad>
          </ns3:TrackPointExtension>
        </extensions>
      </trkpt>
      <trkpt lat="42.61106933467090129852294921875" lon="2.73530074395239353179931640625">
        <ele>204.1999969482421875</ele>
        <time>2023-08-19T17:32:01.000Z</time>
        <extensions>
          <ns3:TrackPointExtension>
            <ns3:hr>158</ns3:hr>
            <ns3:cad>79</ns3:cad>
          </ns3:TrackPointExtension>
        </extensions>
      </trkpt>
      <trkpt lat="42.611046619713306427001953125" lon="2.73529437370598316192626953125">
        <ele>204.1999969482421875</ele>
        <time>2023-08-19T17:32:02.000Z</time>
        <extensions>
          <ns3:TrackPointExtension>
            <ns3:hr>158</ns3:hr>
            <ns3:cad>79</ns3:cad>
          </ns3:TrackPointExtension>
        </extensions>
      </trkpt>
      <trkpt lat="42.61102071963250637054443359375" lon="2.73528247140347957611083984375">
        <ele>204.1999969482421875</ele>
        <time>2023-08-19T17:32:03.000Z</time>
        <extensions>
          <ns3:TrackPointExtension>
            <ns3:hr>158</ns3:hr>
            <ns3:cad>79</ns3:cad>
          </ns3:TrackPointExtension>
        </extensions>
      </trkpt>
      <trkpt lat="42.61100479401648044586181640625" lon="2.73526377975940704345703125">
        <ele>204.1999969482421875</ele>
        <time>2023-08-19T17:32:04.000Z</time>
        <extensions>
          <ns3:TrackPointExtension>
            <ns3:hr>158</ns3:hr>
            <ns3:cad>79</ns3:cad>
          </ns3:TrackPointExtension>
        </extensions>
      </trkpt>
      <trkpt lat="42.61098467744886875152587890625" lon="2.7352488599717617034912109375">
        <ele>204.399993896484375</ele>
        <time>2023-08-19T17:32:05.000Z</time>
        <extensions>
          <ns3:TrackPointExtension>
            <ns3:hr>159</ns3:hr>
            <ns3:cad>80</ns3:cad>
          </ns3:TrackPointExtension>
        </extensions>
      </trkpt>
      <trkpt lat="42.6109666563570499420166015625" lon="2.7352260611951351165771484375">
        <ele>204.399993896484375</ele>
        <time>2023-08-19T17:32:06.000Z</time>
        <extensions>
          <ns3:TrackPointExtension>
            <ns3:hr>158</ns3:hr>
            <ns3:cad>79</ns3:cad>
          </ns3:TrackPointExtension>
        </extensions>
      </trkpt>
      <trkpt lat="42.61095399968326091766357421875" lon="2.73520602844655513763427734375">
        <ele>204.600006103515625</ele>
        <time>2023-08-19T17:32:07.000Z</time>
        <extensions>
          <ns3:TrackPointExtension>
            <ns3:hr>158</ns3:hr>
            <ns3:cad>79</ns3:cad>
          </ns3:TrackPointExtension>
        </extensions>
      </trkpt>
      <trkpt lat="42.61094561778008937835693359375" lon="2.73518607951700687408447265625">
        <ele>204.8000030517578125</ele>
        <time>2023-08-19T17:32:08.000Z</time>
        <extensions>
          <ns3:TrackPointExtension>
            <ns3:hr>160</ns3:hr>
            <ns3:cad>79</ns3:cad>
          </ns3:TrackPointExtension>
        </extensions>
      </trkpt>
      <trkpt lat="42.61093623004853725433349609375" lon="2.7351616881787776947021484375">
        <ele>204.8000030517578125</ele>
        <time>2023-08-19T17:32:09.000Z</time>
        <extensions>
          <ns3:TrackPointExtension>
            <ns3:hr>160</ns3:hr>
            <ns3:cad>79</ns3:cad>
          </ns3:TrackPointExtension>
        </extensions>
      </trkpt>
      <trkpt lat="42.6109314523637294769287109375" lon="2.73513578809797763824462890625">
        <ele>205</ele>
        <time>2023-08-19T17:32:10.000Z</time>
        <extensions>
          <ns3:TrackPointExtension>
            <ns3:hr>158</ns3:hr>
            <ns3:cad>79</ns3:cad>
          </ns3:TrackPointExtension>
        </extensions>
      </trkpt>
      <trkpt lat="42.610927261412143707275390625" lon="2.735112570226192474365234375">
        <ele>205.1999969482421875</ele>
        <time>2023-08-19T17:32:11.000Z</time>
        <extensions>
          <ns3:TrackPointExtension>
            <ns3:hr>158</ns3:hr>
            <ns3:cad>79</ns3:cad>
          </ns3:TrackPointExtension>
        </extensions>
      </trkpt>
      <trkpt lat="42.6109282672405242919921875" lon="2.73508675396442413330078125">
        <ele>205.600006103515625</ele>
        <time>2023-08-19T17:32:12.000Z</time>
        <extensions>
          <ns3:TrackPointExtension>
            <ns3:hr>158</ns3:hr>
            <ns3:cad>79</ns3:cad>
          </ns3:TrackPointExtension>
        </extensions>
      </trkpt>
      <trkpt lat="42.61093430221080780029296875" lon="2.73506102152168750762939453125">
        <ele>205.8000030517578125</ele>
        <time>2023-08-19T17:32:13.000Z</time>
        <extensions>
          <ns3:TrackPointExtension>
            <ns3:hr>159</ns3:hr>
            <ns3:cad>79</ns3:cad>
          </ns3:TrackPointExtension>
        </extensions>
      </trkpt>
      <trkpt lat="42.610948383808135986328125" lon="2.7350409887731075286865234375">
        <ele>206.1999969482421875</ele>
        <time>2023-08-19T17:32:14.000Z</time>
        <extensions>
          <ns3:TrackPointExtension>
            <ns3:hr>159</ns3:hr>
            <ns3:cad>79</ns3:cad>
          </ns3:TrackPointExtension>
        </extensions>
      </trkpt>
      <trkpt lat="42.6109629683196544647216796875" lon="2.7350191958248615264892578125">
        <ele>206.399993896484375</ele>
        <time>2023-08-19T17:32:15.000Z</time>
        <extensions>
          <ns3:TrackPointExtension>
            <ns3:hr>159</ns3:hr>
            <ns3:cad>79</ns3:cad>
          </ns3:TrackPointExtension>
        </extensions>
      </trkpt>
      <trkpt lat="42.61098015122115612030029296875" lon="2.73499824106693267822265625">
        <ele>206.600006103515625</ele>
        <time>2023-08-19T17:32:16.000Z</time>
        <extensions>
          <ns3:TrackPointExtension>
            <ns3:hr>159</ns3:hr>
            <ns3:cad>79</ns3:cad>
          </ns3:TrackPointExtension>
        </extensions>
      </trkpt>
      <trkpt lat="42.61099540628492832183837890625" lon="2.73498055525124073028564453125">
        <ele>206.600006103515625</ele>
        <time>2023-08-19T17:32:17.000Z</time>
        <extensions>
          <ns3:TrackPointExtension>
            <ns3:hr>159</ns3:hr>
            <ns3:cad>79</ns3:cad>
          </ns3:TrackPointExtension>
        </extensions>
      </trkpt>
      <trkpt lat="42.6110099069774150848388671875" lon="2.7349635399878025054931640625">
        <ele>206.8000030517578125</ele>
        <time>2023-08-19T17:32:18.000Z</time>
        <extensions>
          <ns3:TrackPointExtension>
            <ns3:hr>159</ns3:hr>
            <ns3:cad>79</ns3:cad>
          </ns3:TrackPointExtension>
        </extensions>
      </trkpt>
      <trkpt lat="42.61102817952632904052734375" lon="2.73494753055274486541748046875">
        <ele>206.8000030517578125</ele>
        <time>2023-08-19T17:32:19.000Z</time>
        <extensions>
          <ns3:TrackPointExtension>
            <ns3:hr>159</ns3:hr>
            <ns3:cad>79</ns3:cad>
          </ns3:TrackPointExtension>
        </extensions>
      </trkpt>
      <trkpt lat="42.611045949161052703857421875" lon="2.7349326945841312408447265625">
        <ele>207</ele>
        <time>2023-08-19T17:32:20.000Z</time>
        <extensions>
          <ns3:TrackPointExtension>
            <ns3:hr>159</ns3:hr>
            <ns3:cad>79</ns3:cad>
          </ns3:TrackPointExtension>
        </extensions>
      </trkpt>
      <trkpt lat="42.61106162331998348236083984375" lon="2.73491785861551761627197265625">
        <ele>207.399993896484375</ele>
        <time>2023-08-19T17:32:21.000Z</time>
        <extensions>
          <ns3:TrackPointExtension>
            <ns3:hr>159</ns3:hr>
            <ns3:cad>79</ns3:cad>
          </ns3:TrackPointExtension>
        </extensions>
      </trkpt>
      <trkpt lat="42.6110816560685634613037109375" lon="2.7348995022475719451904296875">
        <ele>207.600006103515625</ele>
        <time>2023-08-19T17:32:22.000Z</time>
        <extensions>
          <ns3:TrackPointExtension>
            <ns3:hr>159</ns3:hr>
            <ns3:cad>79</ns3:cad>
          </ns3:TrackPointExtension>
        </extensions>
      </trkpt>
      <trkpt lat="42.61109867133200168609619140625" lon="2.734883911907672882080078125">
        <ele>207.600006103515625</ele>
        <time>2023-08-19T17:32:23.000Z</time>
        <extensions>
          <ns3:TrackPointExtension>
            <ns3:hr>159</ns3:hr>
            <ns3:cad>78</ns3:cad>
          </ns3:TrackPointExtension>
        </extensions>
      </trkpt>
      <trkpt lat="42.61111132800579071044921875" lon="2.734869159758090972900390625">
        <ele>207.8000030517578125</ele>
        <time>2023-08-19T17:32:24.000Z</time>
        <extensions>
          <ns3:TrackPointExtension>
            <ns3:hr>159</ns3:hr>
            <ns3:cad>78</ns3:cad>
          </ns3:TrackPointExtension>
        </extensions>
      </trkpt>
      <trkpt lat="42.61112800799310207366943359375" lon="2.73484979756176471710205078125">
        <ele>208</ele>
        <time>2023-08-19T17:32:25.000Z</time>
        <extensions>
          <ns3:TrackPointExtension>
            <ns3:hr>159</ns3:hr>
            <ns3:cad>78</ns3:cad>
          </ns3:TrackPointExtension>
        </extensions>
      </trkpt>
      <trkpt lat="42.6111490465700626373291015625" lon="2.73483328521251678466796875">
        <ele>208.1999969482421875</ele>
        <time>2023-08-19T17:32:26.000Z</time>
        <extensions>
          <ns3:TrackPointExtension>
            <ns3:hr>159</ns3:hr>
            <ns3:cad>78</ns3:cad>
          </ns3:TrackPointExtension>
        </extensions>
      </trkpt>
      <trkpt lat="42.6111637987196445465087890625" lon="2.73481811396777629852294921875">
        <ele>208.399993896484375</ele>
        <time>2023-08-19T17:32:27.000Z</time>
        <extensions>
          <ns3:TrackPointExtension>
            <ns3:hr>159</ns3:hr>
            <ns3:cad>78</ns3:cad>
          </ns3:TrackPointExtension>
        </extensions>
      </trkpt>
      <trkpt lat="42.61117813177406787872314453125" lon="2.7348012663424015045166015625">
        <ele>208.8000030517578125</ele>
        <time>2023-08-19T17:32:28.000Z</time>
        <extensions>
          <ns3:TrackPointExtension>
            <ns3:hr>159</ns3:hr>
            <ns3:cad>78</ns3:cad>
          </ns3:TrackPointExtension>
        </extensions>
      </trkpt>
      <trkpt lat="42.61119808070361614227294921875" lon="2.7347843348979949951171875">
        <ele>208.8000030517578125</ele>
        <time>2023-08-19T17:32:29.000Z</time>
        <extensions>
          <ns3:TrackPointExtension>
            <ns3:hr>159</ns3:hr>
            <ns3:cad>78</ns3:cad>
          </ns3:TrackPointExtension>
        </extensions>
      </trkpt>
      <trkpt lat="42.61121467687189579010009765625" lon="2.7347677387297153472900390625">
        <ele>209</ele>
        <time>2023-08-19T17:32:30.000Z</time>
        <extensions>
          <ns3:TrackPointExtension>
            <ns3:hr>159</ns3:hr>
            <ns3:cad>78</ns3:cad>
          </ns3:TrackPointExtension>
        </extensions>
      </trkpt>
      <trkpt lat="42.61122758500277996063232421875" lon="2.73475239984691143035888671875">
        <ele>209</ele>
        <time>2023-08-19T17:32:31.000Z</time>
        <extensions>
          <ns3:TrackPointExtension>
            <ns3:hr>159</ns3:hr>
            <ns3:cad>78</ns3:cad>
          </ns3:TrackPointExtension>
        </extensions>
      </trkpt>
      <trkpt lat="42.611243091523647308349609375" lon="2.73473613895475864410400390625">
        <ele>209</ele>
        <time>2023-08-19T17:32:32.000Z</time>
        <extensions>
          <ns3:TrackPointExtension>
            <ns3:hr>159</ns3:hr>
            <ns3:cad>78</ns3:cad>
          </ns3:TrackPointExtension>
        </extensions>
      </trkpt>
      <trkpt lat="42.61126019060611724853515625" lon="2.73471929132938385009765625">
        <ele>209.1999969482421875</ele>
        <time>2023-08-19T17:32:33.000Z</time>
        <extensions>
          <ns3:TrackPointExtension>
            <ns3:hr>158</ns3:hr>
            <ns3:cad>78</ns3:cad>
          </ns3:TrackPointExtension>
        </extensions>
      </trkpt>
      <trkpt lat="42.61127293109893798828125" lon="2.7347000129520893096923828125">
        <ele>209.1999969482421875</ele>
        <time>2023-08-19T17:32:34.000Z</time>
        <extensions>
          <ns3:TrackPointExtension>
            <ns3:hr>158</ns3:hr>
            <ns3:cad>78</ns3:cad>
          </ns3:TrackPointExtension>
        </extensions>
      </trkpt>
      <trkpt lat="42.6112885214388370513916015625" lon="2.734679393470287322998046875">
        <ele>209.600006103515625</ele>
        <time>2023-08-19T17:32:35.000Z</time>
        <extensions>
          <ns3:TrackPointExtension>
            <ns3:hr>158</ns3:hr>
            <ns3:cad>78</ns3:cad>
          </ns3:TrackPointExtension>
        </extensions>
      </trkpt>
      <trkpt lat="42.6113069616258144378662109375" lon="2.7346581034362316131591796875">
        <ele>209.8000030517578125</ele>
        <time>2023-08-19T17:32:36.000Z</time>
        <extensions>
          <ns3:TrackPointExtension>
            <ns3:hr>158</ns3:hr>
            <ns3:cad>78</ns3:cad>
          </ns3:TrackPointExtension>
        </extensions>
      </trkpt>
      <trkpt lat="42.61132230050861835479736328125" lon="2.7346353046596050262451171875">
        <ele>209.8000030517578125</ele>
        <time>2023-08-19T17:32:37.000Z</time>
        <extensions>
          <ns3:TrackPointExtension>
            <ns3:hr>158</ns3:hr>
            <ns3:cad>78</ns3:cad>
          </ns3:TrackPointExtension>
        </extensions>
      </trkpt>
      <trkpt lat="42.61133705265820026397705078125" lon="2.73461326025426387786865234375">
        <ele>210.1999969482421875</ele>
        <time>2023-08-19T17:32:38.000Z</time>
        <extensions>
          <ns3:TrackPointExtension>
            <ns3:hr>158</ns3:hr>
            <ns3:cad>78</ns3:cad>
          </ns3:TrackPointExtension>
        </extensions>
      </trkpt>
      <trkpt lat="42.61135515756905078887939453125" lon="2.7345923893153667449951171875">
        <ele>210.399993896484375</ele>
        <time>2023-08-19T17:32:39.000Z</time>
        <extensions>
          <ns3:TrackPointExtension>
            <ns3:hr>158</ns3:hr>
            <ns3:cad>79</ns3:cad>
          </ns3:TrackPointExtension>
        </extensions>
      </trkpt>
      <trkpt lat="42.61137150228023529052734375" lon="2.73457202129065990447998046875">
        <ele>210.600006103515625</ele>
        <time>2023-08-19T17:32:40.000Z</time>
        <extensions>
          <ns3:TrackPointExtension>
            <ns3:hr>158</ns3:hr>
            <ns3:cad>79</ns3:cad>
          </ns3:TrackPointExtension>
        </extensions>
      </trkpt>
      <trkpt lat="42.611384578049182891845703125" lon="2.73455156944692134857177734375">
        <ele>210.600006103515625</ele>
        <time>2023-08-19T17:32:41.000Z</time>
        <extensions>
          <ns3:TrackPointExtension>
            <ns3:hr>159</ns3:hr>
            <ns3:cad>78</ns3:cad>
          </ns3:TrackPointExtension>
        </extensions>
      </trkpt>
      <trkpt lat="42.61140092276036739349365234375" lon="2.734532542526721954345703125">
        <ele>210.8000030517578125</ele>
        <time>2023-08-19T17:32:42.000Z</time>
        <extensions>
          <ns3:TrackPointExtension>
            <ns3:hr>159</ns3:hr>
            <ns3:cad>78</ns3:cad>
          </ns3:TrackPointExtension>
        </extensions>
      </trkpt>
      <trkpt lat="42.6114145852625370025634765625" lon="2.7345125935971736907958984375">
        <ele>210.8000030517578125</ele>
        <time>2023-08-19T17:32:43.000Z</time>
        <extensions>
          <ns3:TrackPointExtension>
            <ns3:hr>159</ns3:hr>
            <ns3:cad>79</ns3:cad>
          </ns3:TrackPointExtension>
        </extensions>
      </trkpt>
      <trkpt lat="42.6114266552031040191650390625" lon="2.73449524305760860443115234375">
        <ele>210.8000030517578125</ele>
        <time>2023-08-19T17:32:44.000Z</time>
        <extensions>
          <ns3:TrackPointExtension>
            <ns3:hr>159</ns3:hr>
            <ns3:cad>79</ns3:cad>
          </ns3:TrackPointExtension>
        </extensions>
      </trkpt>
      <trkpt lat="42.6114444248378276824951171875" lon="2.7344750426709651947021484375">
        <ele>211</ele>
        <time>2023-08-19T17:32:45.000Z</time>
        <extensions>
          <ns3:TrackPointExtension>
            <ns3:hr>160</ns3:hr>
            <ns3:cad>79</ns3:cad>
          </ns3:TrackPointExtension>
        </extensions>
      </trkpt>
      <trkpt lat="42.61146194301545619964599609375" lon="2.73445568047463893890380859375">
        <ele>211</ele>
        <time>2023-08-19T17:32:46.000Z</time>
        <extensions>
          <ns3:TrackPointExtension>
            <ns3:hr>160</ns3:hr>
            <ns3:cad>79</ns3:cad>
          </ns3:TrackPointExtension>
        </extensions>
      </trkpt>
      <trkpt lat="42.6114759407937526702880859375" lon="2.73443589918315410614013671875">
        <ele>211.399993896484375</ele>
        <time>2023-08-19T17:32:47.000Z</time>
        <extensions>
          <ns3:TrackPointExtension>
            <ns3:hr>161</ns3:hr>
            <ns3:cad>79</ns3:cad>
          </ns3:TrackPointExtension>
        </extensions>
      </trkpt>
      <trkpt lat="42.61149295605719089508056640625" lon="2.7344123460352420806884765625">
        <ele>211.399993896484375</ele>
        <time>2023-08-19T17:32:48.000Z</time>
        <extensions>
          <ns3:TrackPointExtension>
            <ns3:hr>161</ns3:hr>
            <ns3:cad>79</ns3:cad>
          </ns3:TrackPointExtension>
        </extensions>
      </trkpt>
      <trkpt lat="42.611509300768375396728515625" lon="2.73438862524926662445068359375">
        <ele>211.8000030517578125</ele>
        <time>2023-08-19T17:32:49.000Z</time>
        <extensions>
          <ns3:TrackPointExtension>
            <ns3:hr>161</ns3:hr>
            <ns3:cad>79</ns3:cad>
          </ns3:TrackPointExtension>
        </extensions>
      </trkpt>
      <trkpt lat="42.611519359052181243896484375" lon="2.7343657426536083221435546875">
        <ele>211.8000030517578125</ele>
        <time>2023-08-19T17:32:50.000Z</time>
        <extensions>
          <ns3:TrackPointExtension>
            <ns3:hr>161</ns3:hr>
            <ns3:cad>79</ns3:cad>
          </ns3:TrackPointExtension>
        </extensions>
      </trkpt>
      <trkpt lat="42.61153453029692173004150390625" lon="2.734339423477649688720703125">
        <ele>212</ele>
        <time>2023-08-19T17:32:51.000Z</time>
        <extensions>
          <ns3:TrackPointExtension>
            <ns3:hr>162</ns3:hr>
            <ns3:cad>79</ns3:cad>
          </ns3:TrackPointExtension>
        </extensions>
      </trkpt>
      <trkpt lat="42.6115503720939159393310546875" lon="2.73431687615811824798583984375">
        <ele>212.1999969482421875</ele>
        <time>2023-08-19T17:32:52.000Z</time>
        <extensions>
          <ns3:TrackPointExtension>
            <ns3:hr>161</ns3:hr>
            <ns3:cad>79</ns3:cad>
          </ns3:TrackPointExtension>
        </extensions>
      </trkpt>
      <trkpt lat="42.61156369931995868682861328125" lon="2.73429550230503082275390625">
        <ele>212.399993896484375</ele>
        <time>2023-08-19T17:32:53.000Z</time>
        <extensions>
          <ns3:TrackPointExtension>
            <ns3:hr>161</ns3:hr>
            <ns3:cad>79</ns3:cad>
          </ns3:TrackPointExtension>
        </extensions>
      </trkpt>
      <trkpt lat="42.61157996021211147308349609375" lon="2.73427178151905536651611328125">
        <ele>212.399993896484375</ele>
        <time>2023-08-19T17:32:54.000Z</time>
        <extensions>
          <ns3:TrackPointExtension>
            <ns3:hr>161</ns3:hr>
            <ns3:cad>79</ns3:cad>
          </ns3:TrackPointExtension>
        </extensions>
      </trkpt>
      <trkpt lat="42.61159739457070827484130859375" lon="2.7342452108860015869140625">
        <ele>212.399993896484375</ele>
        <time>2023-08-19T17:32:55.000Z</time>
        <extensions>
          <ns3:TrackPointExtension>
            <ns3:hr>161</ns3:hr>
            <ns3:cad>79</ns3:cad>
          </ns3:TrackPointExtension>
        </extensions>
      </trkpt>
      <trkpt lat="42.61160862632095813751220703125" lon="2.73421931080520153045654296875">
        <ele>212.600006103515625</ele>
        <time>2023-08-19T17:32:56.000Z</time>
        <extensions>
          <ns3:TrackPointExtension>
            <ns3:hr>160</ns3:hr>
            <ns3:cad>80</ns3:cad>
          </ns3:TrackPointExtension>
        </extensions>
      </trkpt>
      <trkpt lat="42.61162304319441318511962890625" lon="2.73418997414410114288330078125">
        <ele>212.600006103515625</ele>
        <time>2023-08-19T17:32:57.000Z</time>
        <extensions>
          <ns3:TrackPointExtension>
            <ns3:hr>160</ns3:hr>
            <ns3:cad>80</ns3:cad>
          </ns3:TrackPointExtension>
        </extensions>
      </trkpt>
      <trkpt lat="42.61163427494466304779052734375" lon="2.73416533134877681732177734375">
        <ele>212.600006103515625</ele>
        <time>2023-08-19T17:32:58.000Z</time>
        <extensions>
          <ns3:TrackPointExtension>
            <ns3:hr>160</ns3:hr>
            <ns3:cad>80</ns3:cad>
          </ns3:TrackPointExtension>
        </extensions>
      </trkpt>
      <trkpt lat="42.61164433322846889495849609375" lon="2.73413750343024730682373046875">
        <ele>212.8000030517578125</ele>
        <time>2023-08-19T17:32:59.000Z</time>
        <extensions>
          <ns3:TrackPointExtension>
            <ns3:hr>158</ns3:hr>
            <ns3:cad>80</ns3:cad>
          </ns3:TrackPointExtension>
        </extensions>
      </trkpt>
      <trkpt lat="42.61165573261678218841552734375" lon="2.73410766385495662689208984375">
        <ele>213</ele>
        <time>2023-08-19T17:33:00.000Z</time>
        <extensions>
          <ns3:TrackPointExtension>
            <ns3:hr>157</ns3:hr>
            <ns3:cad>80</ns3:cad>
          </ns3:TrackPointExtension>
        </extensions>
      </trkpt>
      <trkpt lat="42.61166344396770000457763671875" lon="2.73408184759318828582763671875">
        <ele>213</ele>
        <time>2023-08-19T17:33:01.000Z</time>
        <extensions>
          <ns3:TrackPointExtension>
            <ns3:hr>157</ns3:hr>
            <ns3:cad>80</ns3:cad>
          </ns3:TrackPointExtension>
        </extensions>
      </trkpt>
      <trkpt lat="42.61166989803314208984375" lon="2.73405603133141994476318359375">
        <ele>213</ele>
        <time>2023-08-19T17:33:02.000Z</time>
        <extensions>
          <ns3:TrackPointExtension>
            <ns3:hr>159</ns3:hr>
            <ns3:cad>80</ns3:cad>
          </ns3:TrackPointExtension>
        </extensions>
      </trkpt>
      <trkpt lat="42.61167995631694793701171875" lon="2.73402585648000240325927734375">
        <ele>213.1999969482421875</ele>
        <time>2023-08-19T17:33:03.000Z</time>
        <extensions>
          <ns3:TrackPointExtension>
            <ns3:hr>159</ns3:hr>
            <ns3:cad>80</ns3:cad>
          </ns3:TrackPointExtension>
        </extensions>
      </trkpt>
      <trkpt lat="42.6116901822388172149658203125" lon="2.7339979447424411773681640625">
        <ele>213.1999969482421875</ele>
        <time>2023-08-19T17:33:04.000Z</time>
        <extensions>
          <ns3:TrackPointExtension>
            <ns3:hr>159</ns3:hr>
            <ns3:cad>80</ns3:cad>
          </ns3:TrackPointExtension>
        </extensions>
      </trkpt>
      <trkpt lat="42.6116992346942424774169921875" lon="2.73397137410938739776611328125">
        <ele>213.1999969482421875</ele>
        <time>2023-08-19T17:33:05.000Z</time>
        <extensions>
          <ns3:TrackPointExtension>
            <ns3:hr>159</ns3:hr>
            <ns3:cad>80</ns3:cad>
          </ns3:TrackPointExtension>
        </extensions>
      </trkpt>
      <trkpt lat="42.611710131168365478515625" lon="2.73394505493342876434326171875">
        <ele>213.399993896484375</ele>
        <time>2023-08-19T17:33:06.000Z</time>
        <extensions>
          <ns3:TrackPointExtension>
            <ns3:hr>159</ns3:hr>
            <ns3:cad>80</ns3:cad>
          </ns3:TrackPointExtension>
        </extensions>
      </trkpt>
      <trkpt lat="42.6117210276424884796142578125" lon="2.73392007686197757720947265625">
        <ele>213.600006103515625</ele>
        <time>2023-08-19T17:33:07.000Z</time>
        <extensions>
          <ns3:TrackPointExtension>
            <ns3:hr>159</ns3:hr>
            <ns3:cad>80</ns3:cad>
          </ns3:TrackPointExtension>
        </extensions>
      </trkpt>
      <trkpt lat="42.6117273978888988494873046875" lon="2.73389677517116069793701171875">
        <ele>213.600006103515625</ele>
        <time>2023-08-19T17:33:08.000Z</time>
        <extensions>
          <ns3:TrackPointExtension>
            <ns3:hr>159</ns3:hr>
            <ns3:cad>80</ns3:cad>
          </ns3:TrackPointExtension>
        </extensions>
      </trkpt>
      <trkpt lat="42.6117381267249584197998046875" lon="2.73387028835713863372802734375">
        <ele>213.600006103515625</ele>
        <time>2023-08-19T17:33:09.000Z</time>
        <extensions>
          <ns3:TrackPointExtension>
            <ns3:hr>159</ns3:hr>
            <ns3:cad>80</ns3:cad>
          </ns3:TrackPointExtension>
        </extensions>
      </trkpt>
      <trkpt lat="42.6117465086281299591064453125" lon="2.73384497500956058502197265625">
        <ele>213.600006103515625</ele>
        <time>2023-08-19T17:33:10.000Z</time>
        <extensions>
          <ns3:TrackPointExtension>
            <ns3:hr>158</ns3:hr>
            <ns3:cad>80</ns3:cad>
          </ns3:TrackPointExtension>
        </extensions>
      </trkpt>
      <trkpt lat="42.611753046512603759765625" lon="2.73381697945296764373779296875">
        <ele>213.600006103515625</ele>
        <time>2023-08-19T17:33:11.000Z</time>
        <extensions>
          <ns3:TrackPointExtension>
            <ns3:hr>158</ns3:hr>
            <ns3:cad>80</ns3:cad>
          </ns3:TrackPointExtension>
        </extensions>
      </trkpt>
      <trkpt lat="42.6117610931396484375" lon="2.73378789424896240234375">
        <ele>213.8000030517578125</ele>
        <time>2023-08-19T17:33:12.000Z</time>
        <extensions>
          <ns3:TrackPointExtension>
            <ns3:hr>158</ns3:hr>
            <ns3:cad>80</ns3:cad>
          </ns3:TrackPointExtension>
        </extensions>
      </trkpt>
      <trkpt lat="42.611763440072536468505859375" lon="2.73375981487333774566650390625">
        <ele>213.8000030517578125</ele>
        <time>2023-08-19T17:33:13.000Z</time>
        <extensions>
          <ns3:TrackPointExtension>
            <ns3:hr>158</ns3:hr>
            <ns3:cad>80</ns3:cad>
          </ns3:TrackPointExtension>
        </extensions>
      </trkpt>
      <trkpt lat="42.6117582432925701141357421875" lon="2.73373584263026714324951171875">
        <ele>213.8000030517578125</ele>
        <time>2023-08-19T17:33:14.000Z</time>
        <extensions>
          <ns3:TrackPointExtension>
            <ns3:hr>158</ns3:hr>
            <ns3:cad>80</ns3:cad>
          </ns3:TrackPointExtension>
        </extensions>
      </trkpt>
      <trkpt lat="42.61174642480909824371337890625" lon="2.733710110187530517578125">
        <ele>214</ele>
        <time>2023-08-19T17:33:15.000Z</time>
        <extensions>
          <ns3:TrackPointExtension>
            <ns3:hr>158</ns3:hr>
            <ns3:cad>80</ns3:cad>
          </ns3:TrackPointExtension>
        </extensions>
      </trkpt>
      <trkpt lat="42.61173049919307231903076171875" lon="2.73369343020021915435791015625">
        <ele>214.1999969482421875</ele>
        <time>2023-08-19T17:33:16.000Z</time>
        <extensions>
          <ns3:TrackPointExtension>
            <ns3:hr>158</ns3:hr>
            <ns3:cad>80</ns3:cad>
          </ns3:TrackPointExtension>
        </extensions>
      </trkpt>
      <trkpt lat="42.61171725578606128692626953125" lon="2.7336801029741764068603515625">
        <ele>214.399993896484375</ele>
        <time>2023-08-19T17:33:17.000Z</time>
        <extensions>
          <ns3:TrackPointExtension>
            <ns3:hr>158</ns3:hr>
            <ns3:cad>80</ns3:cad>
          </ns3:TrackPointExtension>
        </extensions>
      </trkpt>
      <trkpt lat="42.61170216836035251617431640625" lon="2.73366359062492847442626953125">
        <ele>214.8000030517578125</ele>
        <time>2023-08-19T17:33:18.000Z</time>
        <extensions>
          <ns3:TrackPointExtension>
            <ns3:hr>157</ns3:hr>
            <ns3:cad>80</ns3:cad>
          </ns3:TrackPointExtension>
        </extensions>
      </trkpt>
      <trkpt lat="42.61168808676302433013916015625" lon="2.7336482517421245574951171875">
        <ele>215</ele>
        <time>2023-08-19T17:33:19.000Z</time>
        <extensions>
          <ns3:TrackPointExtension>
            <ns3:hr>157</ns3:hr>
            <ns3:cad>80</ns3:cad>
          </ns3:TrackPointExtension>
        </extensions>
      </trkpt>
      <trkpt lat="42.61167232878506183624267578125" lon="2.73364699445664882659912109375">
        <ele>215.399993896484375</ele>
        <time>2023-08-19T17:33:20.000Z</time>
        <extensions>
          <ns3:TrackPointExtension>
            <ns3:hr>157</ns3:hr>
            <ns3:cad>80</ns3:cad>
          </ns3:TrackPointExtension>
        </extensions>
      </trkpt>
      <trkpt lat="42.61165556497871875762939453125" lon="2.7336365170776844024658203125">
        <ele>215.8000030517578125</ele>
        <time>2023-08-19T17:33:21.000Z</time>
        <extensions>
          <ns3:TrackPointExtension>
            <ns3:hr>157</ns3:hr>
            <ns3:cad>80</ns3:cad>
          </ns3:TrackPointExtension>
        </extensions>
      </trkpt>
      <trkpt lat="42.6116382144391536712646484375" lon="2.73362972773611545562744140625">
        <ele>216.399993896484375</ele>
        <time>2023-08-19T17:33:22.000Z</time>
        <extensions>
          <ns3:TrackPointExtension>
            <ns3:hr>157</ns3:hr>
            <ns3:cad>80</ns3:cad>
          </ns3:TrackPointExtension>
        </extensions>
      </trkpt>
      <trkpt lat="42.61162354610860347747802734375" lon="2.733632661402225494384765625">
        <ele>216.600006103515625</ele>
        <time>2023-08-19T17:33:23.000Z</time>
        <extensions>
          <ns3:TrackPointExtension>
            <ns3:hr>157</ns3:hr>
            <ns3:cad>80</ns3:cad>
          </ns3:TrackPointExtension>
        </extensions>
      </trkpt>
      <trkpt lat="42.61160829104483127593994140625" lon="2.73363743908703327178955078125">
        <ele>217</ele>
        <time>2023-08-19T17:33:24.000Z</time>
        <extensions>
          <ns3:TrackPointExtension>
            <ns3:hr>157</ns3:hr>
            <ns3:cad>79</ns3:cad>
          </ns3:TrackPointExtension>
        </extensions>
      </trkpt>
      <trkpt lat="42.61159203015267848968505859375" lon="2.7336311526596546173095703125">
        <ele>217.399993896484375</ele>
        <time>2023-08-19T17:33:25.000Z</time>
        <extensions>
          <ns3:TrackPointExtension>
            <ns3:hr>157</ns3:hr>
            <ns3:cad>79</ns3:cad>
          </ns3:TrackPointExtension>
        </extensions>
      </trkpt>
      <trkpt lat="42.61157945729792118072509765625" lon="2.7336257882416248321533203125">
        <ele>217.600006103515625</ele>
        <time>2023-08-19T17:33:26.000Z</time>
        <extensions>
          <ns3:TrackPointExtension>
            <ns3:hr>158</ns3:hr>
            <ns3:cad>79</ns3:cad>
          </ns3:TrackPointExtension>
        </extensions>
      </trkpt>
      <trkpt lat="42.61156453751027584075927734375" lon="2.73362302221357822418212890625">
        <ele>217.8000030517578125</ele>
        <time>2023-08-19T17:33:27.000Z</time>
        <extensions>
          <ns3:TrackPointExtension>
            <ns3:hr>158</ns3:hr>
            <ns3:cad>78</ns3:cad>
          </ns3:TrackPointExtension>
        </extensions>
      </trkpt>
      <trkpt lat="42.61155112646520137786865234375" lon="2.733621262013912200927734375">
        <ele>218</ele>
        <time>2023-08-19T17:33:28.000Z</time>
        <extensions>
          <ns3:TrackPointExtension>
            <ns3:hr>158</ns3:hr>
            <ns3:cad>78</ns3:cad>
          </ns3:TrackPointExtension>
        </extensions>
      </trkpt>
      <trkpt lat="42.6115396432578563690185546875" lon="2.73361631669104099273681640625">
        <ele>218.1999969482421875</ele>
        <time>2023-08-19T17:33:29.000Z</time>
        <extensions>
          <ns3:TrackPointExtension>
            <ns3:hr>158</ns3:hr>
            <ns3:cad>78</ns3:cad>
          </ns3:TrackPointExtension>
        </extensions>
      </trkpt>
      <trkpt lat="42.61152396909892559051513671875" lon="2.73361179046332836151123046875">
        <ele>218.399993896484375</ele>
        <time>2023-08-19T17:33:30.000Z</time>
        <extensions>
          <ns3:TrackPointExtension>
            <ns3:hr>158</ns3:hr>
            <ns3:cad>77</ns3:cad>
          </ns3:TrackPointExtension>
        </extensions>
      </trkpt>
      <trkpt lat="42.61150737293064594268798828125" lon="2.7336123771965503692626953125">
        <ele>219</ele>
        <time>2023-08-19T17:33:31.000Z</time>
        <extensions>
          <ns3:TrackPointExtension>
            <ns3:hr>158</ns3:hr>
            <ns3:cad>61</ns3:cad>
          </ns3:TrackPointExtension>
        </extensions>
      </trkpt>
      <trkpt lat="42.61149178259074687957763671875" lon="2.73360994644463062286376953125">
        <ele>219.1999969482421875</ele>
        <time>2023-08-19T17:33:32.000Z</time>
        <extensions>
          <ns3:TrackPointExtension>
            <ns3:hr>158</ns3:hr>
            <ns3:cad>59</ns3:cad>
          </ns3:TrackPointExtension>
        </extensions>
      </trkpt>
      <trkpt lat="42.611480467021465301513671875" lon="2.7336029894649982452392578125">
        <ele>219.399993896484375</ele>
        <time>2023-08-19T17:33:33.000Z</time>
        <extensions>
          <ns3:TrackPointExtension>
            <ns3:hr>158</ns3:hr>
            <ns3:cad>61</ns3:cad>
          </ns3:TrackPointExtension>
        </extensions>
      </trkpt>
      <trkpt lat="42.6114712469279766082763671875" lon="2.7335987985134124755859375">
        <ele>219.399993896484375</ele>
        <time>2023-08-19T17:33:34.000Z</time>
        <extensions>
          <ns3:TrackPointExtension>
            <ns3:hr>158</ns3:hr>
            <ns3:cad>61</ns3:cad>
          </ns3:TrackPointExtension>
        </extensions>
      </trkpt>
      <trkpt lat="42.611459679901599884033203125" lon="2.733590416610240936279296875">
        <ele>219.600006103515625</ele>
        <time>2023-08-19T17:33:35.000Z</time>
        <extensions>
          <ns3:TrackPointExtension>
            <ns3:hr>158</ns3:hr>
            <ns3:cad>61</ns3:cad>
          </ns3:TrackPointExtension>
        </extensions>
      </trkpt>
      <trkpt lat="42.61145121417939662933349609375" lon="2.73357608355581760406494140625">
        <ele>220</ele>
        <time>2023-08-19T17:33:36.000Z</time>
        <extensions>
          <ns3:TrackPointExtension>
            <ns3:hr>158</ns3:hr>
            <ns3:cad>59</ns3:cad>
          </ns3:TrackPointExtension>
        </extensions>
      </trkpt>
      <trkpt lat="42.61144333519041538238525390625" lon="2.7335590682923793792724609375">
        <ele>220</ele>
        <time>2023-08-19T17:33:37.000Z</time>
        <extensions>
          <ns3:TrackPointExtension>
            <ns3:hr>158</ns3:hr>
            <ns3:cad>57</ns3:cad>
          </ns3:TrackPointExtension>
        </extensions>
      </trkpt>
      <trkpt lat="42.6114377193152904510498046875" lon="2.73354037664830684661865234375">
        <ele>220.399993896484375</ele>
        <time>2023-08-19T17:33:38.000Z</time>
        <extensions>
          <ns3:TrackPointExtension>
            <ns3:hr>158</ns3:hr>
            <ns3:cad>57</ns3:cad>
          </ns3:TrackPointExtension>
        </extensions>
      </trkpt>
      <trkpt lat="42.61142841540277004241943359375" lon="2.7335211820900440216064453125">
        <ele>220.600006103515625</ele>
        <time>2023-08-19T17:33:39.000Z</time>
        <extensions>
          <ns3:TrackPointExtension>
            <ns3:hr>158</ns3:hr>
            <ns3:cad>58</ns3:cad>
          </ns3:TrackPointExtension>
        </extensions>
      </trkpt>
      <trkpt lat="42.61142087168991565704345703125" lon="2.7335067652165889739990234375">
        <ele>220.8000030517578125</ele>
        <time>2023-08-19T17:33:40.000Z</time>
        <extensions>
          <ns3:TrackPointExtension>
            <ns3:hr>158</ns3:hr>
            <ns3:cad>59</ns3:cad>
          </ns3:TrackPointExtension>
        </extensions>
      </trkpt>
      <trkpt lat="42.6114145852625370025634765625" lon="2.73349285125732421875">
        <ele>221</ele>
        <time>2023-08-19T17:33:41.000Z</time>
        <extensions>
          <ns3:TrackPointExtension>
            <ns3:hr>158</ns3:hr>
            <ns3:cad>59</ns3:cad>
          </ns3:TrackPointExtension>
        </extensions>
      </trkpt>
      <trkpt lat="42.61140905320644378662109375" lon="2.73347600363194942474365234375">
        <ele>221.1999969482421875</ele>
        <time>2023-08-19T17:33:42.000Z</time>
        <extensions>
          <ns3:TrackPointExtension>
            <ns3:hr>158</ns3:hr>
            <ns3:cad>58</ns3:cad>
          </ns3:TrackPointExtension>
        </extensions>
      </trkpt>
      <trkpt lat="42.6114045269787311553955078125" lon="2.7334527857601642608642578125">
        <ele>221.600006103515625</ele>
        <time>2023-08-19T17:33:43.000Z</time>
        <extensions>
          <ns3:TrackPointExtension>
            <ns3:hr>158</ns3:hr>
            <ns3:cad>54</ns3:cad>
          </ns3:TrackPointExtension>
        </extensions>
      </trkpt>
      <trkpt lat="42.6113988272845745086669921875" lon="2.73343442939221858978271484375">
        <ele>221.8000030517578125</ele>
        <time>2023-08-19T17:33:44.000Z</time>
        <extensions>
          <ns3:TrackPointExtension>
            <ns3:hr>158</ns3:hr>
            <ns3:cad>51</ns3:cad>
          </ns3:TrackPointExtension>
        </extensions>
      </trkpt>
      <trkpt lat="42.61139203794300556182861328125" lon="2.73342152126133441925048828125">
        <ele>222</ele>
        <time>2023-08-19T17:33:45.000Z</time>
        <extensions>
          <ns3:TrackPointExtension>
            <ns3:hr>158</ns3:hr>
            <ns3:cad>51</ns3:cad>
          </ns3:TrackPointExtension>
        </extensions>
      </trkpt>
      <trkpt lat="42.61138600297272205352783203125" lon="2.733417414128780364990234375">
        <ele>222.1999969482421875</ele>
        <time>2023-08-19T17:33:46.000Z</time>
        <extensions>
          <ns3:TrackPointExtension>
            <ns3:hr>159</ns3:hr>
            <ns3:cad>51</ns3:cad>
          </ns3:TrackPointExtension>
        </extensions>
      </trkpt>
      <trkpt lat="42.61137778870761394500732421875" lon="2.73340995423495769500732421875">
        <ele>222.600006103515625</ele>
        <time>2023-08-19T17:33:47.000Z</time>
        <extensions>
          <ns3:TrackPointExtension>
            <ns3:hr>159</ns3:hr>
            <ns3:cad>53</ns3:cad>
          </ns3:TrackPointExtension>
        </extensions>
      </trkpt>
      <trkpt lat="42.6113676466047763824462890625" lon="2.733395285904407501220703125">
        <ele>222.8000030517578125</ele>
        <time>2023-08-19T17:33:48.000Z</time>
        <extensions>
          <ns3:TrackPointExtension>
            <ns3:hr>159</ns3:hr>
            <ns3:cad>53</ns3:cad>
          </ns3:TrackPointExtension>
        </extensions>
      </trkpt>
      <trkpt lat="42.61136488057672977447509765625" lon="2.73338531143963336944580078125">
        <ele>223</ele>
        <time>2023-08-19T17:33:49.000Z</time>
        <extensions>
          <ns3:TrackPointExtension>
            <ns3:hr>159</ns3:hr>
            <ns3:cad>53</ns3:cad>
          </ns3:TrackPointExtension>
        </extensions>
      </trkpt>
      <trkpt lat="42.6113574206829071044921875" lon="2.73337659426033496856689453125">
        <ele>223.1999969482421875</ele>
        <time>2023-08-19T17:33:50.000Z</time>
        <extensions>
          <ns3:TrackPointExtension>
            <ns3:hr>159</ns3:hr>
            <ns3:cad>52</ns3:cad>
          </ns3:TrackPointExtension>
        </extensions>
      </trkpt>
      <trkpt lat="42.611345015466213226318359375" lon="2.73336133919656276702880859375">
        <ele>223.399993896484375</ele>
        <time>2023-08-19T17:33:51.000Z</time>
        <extensions>
          <ns3:TrackPointExtension>
            <ns3:hr>159</ns3:hr>
            <ns3:cad>52</ns3:cad>
          </ns3:TrackPointExtension>
        </extensions>
      </trkpt>
      <trkpt lat="42.61133336462080478668212890625" lon="2.73334977217018604278564453125">
        <ele>223.8000030517578125</ele>
        <time>2023-08-19T17:33:52.000Z</time>
        <extensions>
          <ns3:TrackPointExtension>
            <ns3:hr>159</ns3:hr>
            <ns3:cad>52</ns3:cad>
          </ns3:TrackPointExtension>
        </extensions>
      </trkpt>
      <trkpt lat="42.61132297106087207794189453125" lon="2.73333795368671417236328125">
        <ele>223.8000030517578125</ele>
        <time>2023-08-19T17:33:53.000Z</time>
        <extensions>
          <ns3:TrackPointExtension>
            <ns3:hr>159</ns3:hr>
            <ns3:cad>52</ns3:cad>
          </ns3:TrackPointExtension>
        </extensions>
      </trkpt>
      <trkpt lat="42.61130721308290958404541015625" lon="2.73332797922194004058837890625">
        <ele>224</ele>
        <time>2023-08-19T17:33:54.000Z</time>
        <extensions>
          <ns3:TrackPointExtension>
            <ns3:hr>159</ns3:hr>
            <ns3:cad>52</ns3:cad>
          </ns3:TrackPointExtension>
        </extensions>
      </trkpt>
      <trkpt lat="42.6112895272672176361083984375" lon="2.73331959731876850128173828125">
        <ele>224.399993896484375</ele>
        <time>2023-08-19T17:33:55.000Z</time>
        <extensions>
          <ns3:TrackPointExtension>
            <ns3:hr>159</ns3:hr>
            <ns3:cad>54</ns3:cad>
          </ns3:TrackPointExtension>
        </extensions>
      </trkpt>
      <trkpt lat="42.61127904988825321197509765625" lon="2.73331054486334323883056640625">
        <ele>224.600006103515625</ele>
        <time>2023-08-19T17:33:56.000Z</time>
        <extensions>
          <ns3:TrackPointExtension>
            <ns3:hr>159</ns3:hr>
            <ns3:cad>55</ns3:cad>
          </ns3:TrackPointExtension>
        </extensions>
      </trkpt>
      <trkpt lat="42.6112757809460163116455078125" lon="2.7333096228539943695068359375">
        <ele>224.8000030517578125</ele>
        <time>2023-08-19T17:33:57.000Z</time>
        <extensions>
          <ns3:TrackPointExtension>
            <ns3:hr>159</ns3:hr>
            <ns3:cad>55</ns3:cad>
          </ns3:TrackPointExtension>
        </extensions>
      </trkpt>
      <trkpt lat="42.61126748286187648773193359375" lon="2.7332935295999050140380859375">
        <ele>225</ele>
        <time>2023-08-19T17:33:58.000Z</time>
        <extensions>
          <ns3:TrackPointExtension>
            <ns3:hr>159</ns3:hr>
            <ns3:cad>55</ns3:cad>
          </ns3:TrackPointExtension>
        </extensions>
      </trkpt>
      <trkpt lat="42.611259855329990386962890625" lon="2.7332796156406402587890625">
        <ele>225.1999969482421875</ele>
        <time>2023-08-19T17:33:59.000Z</time>
        <extensions>
          <ns3:TrackPointExtension>
            <ns3:hr>159</ns3:hr>
            <ns3:cad>54</ns3:cad>
          </ns3:TrackPointExtension>
        </extensions>
      </trkpt>
      <trkpt lat="42.611253820359706878662109375" lon="2.7332586608827114105224609375">
        <ele>225.600006103515625</ele>
        <time>2023-08-19T17:34:00.000Z</time>
        <extensions>
          <ns3:TrackPointExtension>
            <ns3:hr>160</ns3:hr>
            <ns3:cad>54</ns3:cad>
          </ns3:TrackPointExtension>
        </extensions>
      </trkpt>
      <trkpt lat="42.61124535463750362396240234375" lon="2.73324013687670230865478515625">
        <ele>225.600006103515625</ele>
        <time>2023-08-19T17:34:01.000Z</time>
        <extensions>
          <ns3:TrackPointExtension>
            <ns3:hr>160</ns3:hr>
            <ns3:cad>54</ns3:cad>
          </ns3:TrackPointExtension>
        </extensions>
      </trkpt>
      <trkpt lat="42.61124116368591785430908203125" lon="2.73322119377553462982177734375">
        <ele>225.600006103515625</ele>
        <time>2023-08-19T17:34:02.000Z</time>
        <extensions>
          <ns3:TrackPointExtension>
            <ns3:hr>160</ns3:hr>
            <ns3:cad>54</ns3:cad>
          </ns3:TrackPointExtension>
        </extensions>
      </trkpt>
      <trkpt lat="42.6112340390682220458984375" lon="2.7332050167024135589599609375">
        <ele>225.8000030517578125</ele>
        <time>2023-08-19T17:34:03.000Z</time>
        <extensions>
          <ns3:TrackPointExtension>
            <ns3:hr>159</ns3:hr>
            <ns3:cad>53</ns3:cad>
          </ns3:TrackPointExtension>
        </extensions>
      </trkpt>
      <trkpt lat="42.61122507043182849884033203125" lon="2.7331911027431488037109375">
        <ele>226</ele>
        <time>2023-08-19T17:34:04.000Z</time>
        <extensions>
          <ns3:TrackPointExtension>
            <ns3:hr>159</ns3:hr>
            <ns3:cad>54</ns3:cad>
          </ns3:TrackPointExtension>
        </extensions>
      </trkpt>
      <trkpt lat="42.611216604709625244140625" lon="2.7331723272800445556640625">
        <ele>226.1999969482421875</ele>
        <time>2023-08-19T17:34:05.000Z</time>
        <extensions>
          <ns3:TrackPointExtension>
            <ns3:hr>159</ns3:hr>
            <ns3:cad>54</ns3:cad>
          </ns3:TrackPointExtension>
        </extensions>
      </trkpt>
      <trkpt lat="42.61121015064418315887451171875" lon="2.73315363563597202301025390625">
        <ele>226.600006103515625</ele>
        <time>2023-08-19T17:34:06.000Z</time>
        <extensions>
          <ns3:TrackPointExtension>
            <ns3:hr>158</ns3:hr>
            <ns3:cad>55</ns3:cad>
          </ns3:TrackPointExtension>
        </extensions>
      </trkpt>
      <trkpt lat="42.6112036965787410736083984375" lon="2.733141146600246429443359375">
        <ele>226.8000030517578125</ele>
        <time>2023-08-19T17:34:07.000Z</time>
        <extensions>
          <ns3:TrackPointExtension>
            <ns3:hr>158</ns3:hr>
            <ns3:cad>55</ns3:cad>
          </ns3:TrackPointExtension>
        </extensions>
      </trkpt>
      <trkpt lat="42.61119472794234752655029296875" lon="2.73311960510909557342529296875">
        <ele>227</ele>
        <time>2023-08-19T17:34:08.000Z</time>
        <extensions>
          <ns3:TrackPointExtension>
            <ns3:hr>158</ns3:hr>
            <ns3:cad>56</ns3:cad>
          </ns3:TrackPointExtension>
        </extensions>
      </trkpt>
      <trkpt lat="42.611187435686588287353515625" lon="2.7331007458269596099853515625">
        <ele>227.1999969482421875</ele>
        <time>2023-08-19T17:34:09.000Z</time>
        <extensions>
          <ns3:TrackPointExtension>
            <ns3:hr>158</ns3:hr>
            <ns3:cad>64</ns3:cad>
          </ns3:TrackPointExtension>
        </extensions>
      </trkpt>
      <trkpt lat="42.61118148453533649444580078125" lon="2.7330846525728702545166015625">
        <ele>227.1999969482421875</ele>
        <time>2023-08-19T17:34:10.000Z</time>
        <extensions>
          <ns3:TrackPointExtension>
            <ns3:hr>158</ns3:hr>
            <ns3:cad>66</ns3:cad>
          </ns3:TrackPointExtension>
        </extensions>
      </trkpt>
      <trkpt lat="42.61117838323116302490234375" lon="2.733072750270366668701171875">
        <ele>227.399993896484375</ele>
        <time>2023-08-19T17:34:11.000Z</time>
        <extensions>
          <ns3:TrackPointExtension>
            <ns3:hr>158</ns3:hr>
            <ns3:cad>64</ns3:cad>
          </ns3:TrackPointExtension>
        </extensions>
      </trkpt>
      <trkpt lat="42.61117427609860897064208984375" lon="2.73306126706302165985107421875">
        <ele>227.600006103515625</ele>
        <time>2023-08-19T17:34:12.000Z</time>
        <extensions>
          <ns3:TrackPointExtension>
            <ns3:hr>159</ns3:hr>
            <ns3:cad>62</ns3:cad>
          </ns3:TrackPointExtension>
        </extensions>
      </trkpt>
      <trkpt lat="42.61116572655737400054931640625" lon="2.7330516278743743896484375">
        <ele>227.8000030517578125</ele>
        <time>2023-08-19T17:34:13.000Z</time>
        <extensions>
          <ns3:TrackPointExtension>
            <ns3:hr>158</ns3:hr>
            <ns3:cad>61</ns3:cad>
          </ns3:TrackPointExtension>
        </extensions>
      </trkpt>
      <trkpt lat="42.6111602783203125" lon="2.7330444194376468658447265625">
        <ele>227.8000030517578125</ele>
        <time>2023-08-19T17:34:14.000Z</time>
        <extensions>
          <ns3:TrackPointExtension>
            <ns3:hr>159</ns3:hr>
            <ns3:cad>61</ns3:cad>
          </ns3:TrackPointExtension>
        </extensions>
      </trkpt>
      <trkpt lat="42.6111497171223163604736328125" lon="2.733033187687397003173828125">
        <ele>228</ele>
        <time>2023-08-19T17:34:15.000Z</time>
        <extensions>
          <ns3:TrackPointExtension>
            <ns3:hr>157</ns3:hr>
            <ns3:cad>62</ns3:cad>
          </ns3:TrackPointExtension>
        </extensions>
      </trkpt>
      <trkpt lat="42.61113890446722507476806640625" lon="2.7330248057842254638671875">
        <ele>228.1999969482421875</ele>
        <time>2023-08-19T17:34:16.000Z</time>
        <extensions>
          <ns3:TrackPointExtension>
            <ns3:hr>158</ns3:hr>
            <ns3:cad>62</ns3:cad>
          </ns3:TrackPointExtension>
        </extensions>
      </trkpt>
      <trkpt lat="42.6111282594501972198486328125" lon="2.73301969282329082489013671875">
        <ele>228.399993896484375</ele>
        <time>2023-08-19T17:34:17.000Z</time>
        <extensions>
          <ns3:TrackPointExtension>
            <ns3:hr>157</ns3:hr>
            <ns3:cad>61</ns3:cad>
          </ns3:TrackPointExtension>
        </extensions>
      </trkpt>
      <trkpt lat="42.611110992729663848876953125" lon="2.733019776642322540283203125">
        <ele>228.600006103515625</ele>
        <time>2023-08-19T17:34:18.000Z</time>
        <extensions>
          <ns3:TrackPointExtension>
            <ns3:hr>157</ns3:hr>
            <ns3:cad>53</ns3:cad>
          </ns3:TrackPointExtension>
        </extensions>
      </trkpt>
      <trkpt lat="42.61108660139143466949462890625" lon="2.733014412224292755126953125">
        <ele>228.600006103515625</ele>
        <time>2023-08-19T17:34:19.000Z</time>
        <extensions>
          <ns3:TrackPointExtension>
            <ns3:hr>156</ns3:hr>
            <ns3:cad>58</ns3:cad>
          </ns3:TrackPointExtension>
        </extensions>
      </trkpt>
      <trkpt lat="42.6110658980906009674072265625" lon="2.73301541805267333984375">
        <ele>229</ele>
        <time>2023-08-19T17:34:20.000Z</time>
        <extensions>
          <ns3:TrackPointExtension>
            <ns3:hr>157</ns3:hr>
            <ns3:cad>83</ns3:cad>
          </ns3:TrackPointExtension>
        </extensions>
      </trkpt>
      <trkpt lat="42.61104553006589412689208984375" lon="2.73301667533814907073974609375">
        <ele>229</ele>
        <time>2023-08-19T17:34:21.000Z</time>
        <extensions>
          <ns3:TrackPointExtension>
            <ns3:hr>157</ns3:hr>
            <ns3:cad>82</ns3:cad>
          </ns3:TrackPointExtension>
        </extensions>
      </trkpt>
      <trkpt lat="42.61102725751698017120361328125" lon="2.73301214911043643951416015625">
        <ele>229.1999969482421875</ele>
        <time>2023-08-19T17:34:22.000Z</time>
        <extensions>
          <ns3:TrackPointExtension>
            <ns3:hr>157</ns3:hr>
            <ns3:cad>80</ns3:cad>
          </ns3:TrackPointExtension>
        </extensions>
      </trkpt>
      <trkpt lat="42.6110075600445270538330078125" lon="2.7330102212727069854736328125">
        <ele>229.399993896484375</ele>
        <time>2023-08-19T17:34:23.000Z</time>
        <extensions>
          <ns3:TrackPointExtension>
            <ns3:hr>157</ns3:hr>
            <ns3:cad>80</ns3:cad>
          </ns3:TrackPointExtension>
        </extensions>
      </trkpt>
      <trkpt lat="42.610985599458217620849609375" lon="2.732996307313442230224609375">
        <ele>229.600006103515625</ele>
        <time>2023-08-19T17:34:24.000Z</time>
        <extensions>
          <ns3:TrackPointExtension>
            <ns3:hr>157</ns3:hr>
            <ns3:cad>80</ns3:cad>
          </ns3:TrackPointExtension>
        </extensions>
      </trkpt>
      <trkpt lat="42.610968165099620819091796875" lon="2.732983566820621490478515625">
        <ele>229.8000030517578125</ele>
        <time>2023-08-19T17:34:25.000Z</time>
        <extensions>
          <ns3:TrackPointExtension>
            <ns3:hr>157</ns3:hr>
            <ns3:cad>81</ns3:cad>
          </ns3:TrackPointExtension>
        </extensions>
      </trkpt>
      <trkpt lat="42.6109498925507068634033203125" lon="2.73297023959457874298095703125">
        <ele>230</ele>
        <time>2023-08-19T17:34:26.000Z</time>
        <extensions>
          <ns3:TrackPointExtension>
            <ns3:hr>157</ns3:hr>
            <ns3:cad>81</ns3:cad>
          </ns3:TrackPointExtension>
        </extensions>
      </trkpt>
      <trkpt lat="42.61093405075371265411376953125" lon="2.73294760845601558685302734375">
        <ele>230.399993896484375</ele>
        <time>2023-08-19T17:34:27.000Z</time>
        <extensions>
          <ns3:TrackPointExtension>
            <ns3:hr>157</ns3:hr>
            <ns3:cad>81</ns3:cad>
          </ns3:TrackPointExtension>
        </extensions>
      </trkpt>
      <trkpt lat="42.61092332191765308380126953125" lon="2.73292799480259418487548828125">
        <ele>230.399993896484375</ele>
        <time>2023-08-19T17:34:28.000Z</time>
        <extensions>
          <ns3:TrackPointExtension>
            <ns3:hr>157</ns3:hr>
            <ns3:cad>81</ns3:cad>
          </ns3:TrackPointExtension>
        </extensions>
      </trkpt>
      <trkpt lat="42.6109126769006252288818359375" lon="2.732910476624965667724609375">
        <ele>230.600006103515625</ele>
        <time>2023-08-19T17:34:29.000Z</time>
        <extensions>
          <ns3:TrackPointExtension>
            <ns3:hr>158</ns3:hr>
            <ns3:cad>80</ns3:cad>
          </ns3:TrackPointExtension>
        </extensions>
      </trkpt>
      <trkpt lat="42.6108992658555507659912109375" lon="2.732892371714115142822265625">
        <ele>230.8000030517578125</ele>
        <time>2023-08-19T17:34:30.000Z</time>
        <extensions>
          <ns3:TrackPointExtension>
            <ns3:hr>158</ns3:hr>
            <ns3:cad>80</ns3:cad>
          </ns3:TrackPointExtension>
        </extensions>
      </trkpt>
      <trkpt lat="42.610888369381427764892578125" lon="2.73287284187972545623779296875">
        <ele>230.8000030517578125</ele>
        <time>2023-08-19T17:34:31.000Z</time>
        <extensions>
          <ns3:TrackPointExtension>
            <ns3:hr>158</ns3:hr>
            <ns3:cad>80</ns3:cad>
          </ns3:TrackPointExtension>
        </extensions>
      </trkpt>
      <trkpt lat="42.61087596416473388671875" lon="2.73285783827304840087890625">
        <ele>231.1999969482421875</ele>
        <time>2023-08-19T17:34:32.000Z</time>
        <extensions>
          <ns3:TrackPointExtension>
            <ns3:hr>158</ns3:hr>
            <ns3:cad>79</ns3:cad>
          </ns3:TrackPointExtension>
        </extensions>
      </trkpt>
      <trkpt lat="42.61086146347224712371826171875" lon="2.7328395657241344451904296875">
        <ele>231.1999969482421875</ele>
        <time>2023-08-19T17:34:33.000Z</time>
        <extensions>
          <ns3:TrackPointExtension>
            <ns3:hr>158</ns3:hr>
            <ns3:cad>79</ns3:cad>
          </ns3:TrackPointExtension>
        </extensions>
      </trkpt>
      <trkpt lat="42.6108432747423648834228515625" lon="2.73281936533749103546142578125">
        <ele>231.600006103515625</ele>
        <time>2023-08-19T17:34:34.000Z</time>
        <extensions>
          <ns3:TrackPointExtension>
            <ns3:hr>158</ns3:hr>
            <ns3:cad>79</ns3:cad>
          </ns3:TrackPointExtension>
        </extensions>
      </trkpt>
      <trkpt lat="42.610828019678592681884765625" lon="2.73280930705368518829345703125">
        <ele>231.8000030517578125</ele>
        <time>2023-08-19T17:34:35.000Z</time>
        <extensions>
          <ns3:TrackPointExtension>
            <ns3:hr>158</ns3:hr>
            <ns3:cad>80</ns3:cad>
          </ns3:TrackPointExtension>
        </extensions>
      </trkpt>
      <trkpt lat="42.61081066913902759552001953125" lon="2.73280084133148193359375">
        <ele>232</ele>
        <time>2023-08-19T17:34:36.000Z</time>
        <extensions>
          <ns3:TrackPointExtension>
            <ns3:hr>158</ns3:hr>
            <ns3:cad>80</ns3:cad>
          </ns3:TrackPointExtension>
        </extensions>
      </trkpt>
      <trkpt lat="42.61078988201916217803955078125" lon="2.73278784938156604766845703125">
        <ele>232.1999969482421875</ele>
        <time>2023-08-19T17:34:37.000Z</time>
        <extensions>
          <ns3:TrackPointExtension>
            <ns3:hr>158</ns3:hr>
            <ns3:cad>79</ns3:cad>
          </ns3:TrackPointExtension>
        </extensions>
      </trkpt>
      <trkpt lat="42.61077739298343658447265625" lon="2.7327758632600307464599609375">
        <ele>232.399993896484375</ele>
        <time>2023-08-19T17:34:38.000Z</time>
        <extensions>
          <ns3:TrackPointExtension>
            <ns3:hr>158</ns3:hr>
            <ns3:cad>79</ns3:cad>
          </ns3:TrackPointExtension>
        </extensions>
      </trkpt>
      <trkpt lat="42.61076021008193492889404296875" lon="2.73276790045201778411865234375">
        <ele>232.399993896484375</ele>
        <time>2023-08-19T17:34:39.000Z</time>
        <extensions>
          <ns3:TrackPointExtension>
            <ns3:hr>158</ns3:hr>
            <ns3:cad>79</ns3:cad>
          </ns3:TrackPointExtension>
        </extensions>
      </trkpt>
      <trkpt lat="42.61074529029428958892822265625" lon="2.732763625681400299072265625">
        <ele>232.8000030517578125</ele>
        <time>2023-08-19T17:34:40.000Z</time>
        <extensions>
          <ns3:TrackPointExtension>
            <ns3:hr>158</ns3:hr>
            <ns3:cad>78</ns3:cad>
          </ns3:TrackPointExtension>
        </extensions>
      </trkpt>
      <trkpt lat="42.61072819121181964874267578125" lon="2.732755243778228759765625">
        <ele>232.8000030517578125</ele>
        <time>2023-08-19T17:34:41.000Z</time>
        <extensions>
          <ns3:TrackPointExtension>
            <ns3:hr>158</ns3:hr>
            <ns3:cad>77</ns3:cad>
          </ns3:TrackPointExtension>
        </extensions>
      </trkpt>
      <trkpt lat="42.61071301996707916259765625" lon="2.73274719715118408203125">
        <ele>233</ele>
        <time>2023-08-19T17:34:42.000Z</time>
        <extensions>
          <ns3:TrackPointExtension>
            <ns3:hr>158</ns3:hr>
            <ns3:cad>77</ns3:cad>
          </ns3:TrackPointExtension>
        </extensions>
      </trkpt>
      <trkpt lat="42.61069969274103641510009765625" lon="2.7327403239905834197998046875">
        <ele>233.1999969482421875</ele>
        <time>2023-08-19T17:34:43.000Z</time>
        <extensions>
          <ns3:TrackPointExtension>
            <ns3:hr>158</ns3:hr>
            <ns3:cad>77</ns3:cad>
          </ns3:TrackPointExtension>
        </extensions>
      </trkpt>
      <trkpt lat="42.61067907325923442840576171875" lon="2.7327326126396656036376953125">
        <ele>233.600006103515625</ele>
        <time>2023-08-19T17:34:44.000Z</time>
        <extensions>
          <ns3:TrackPointExtension>
            <ns3:hr>158</ns3:hr>
            <ns3:cad>76</ns3:cad>
          </ns3:TrackPointExtension>
        </extensions>
      </trkpt>
      <trkpt lat="42.61066415347158908843994140625" lon="2.7327235601842403411865234375">
        <ele>234</ele>
        <time>2023-08-19T17:34:45.000Z</time>
        <extensions>
          <ns3:TrackPointExtension>
            <ns3:hr>158</ns3:hr>
            <ns3:cad>77</ns3:cad>
          </ns3:TrackPointExtension>
        </extensions>
      </trkpt>
      <trkpt lat="42.61064722202718257904052734375" lon="2.73271542973816394805908203125">
        <ele>234</ele>
        <time>2023-08-19T17:34:46.000Z</time>
        <extensions>
          <ns3:TrackPointExtension>
            <ns3:hr>158</ns3:hr>
            <ns3:cad>77</ns3:cad>
          </ns3:TrackPointExtension>
        </extensions>
      </trkpt>
      <trkpt lat="42.610630877315998077392578125" lon="2.7327078022062778472900390625">
        <ele>234.1999969482421875</ele>
        <time>2023-08-19T17:34:47.000Z</time>
        <extensions>
          <ns3:TrackPointExtension>
            <ns3:hr>158</ns3:hr>
            <ns3:cad>77</ns3:cad>
          </ns3:TrackPointExtension>
        </extensions>
      </trkpt>
      <trkpt lat="42.6106152869760990142822265625" lon="2.7326930500566959381103515625">
        <ele>234.1999969482421875</ele>
        <time>2023-08-19T17:34:48.000Z</time>
        <extensions>
          <ns3:TrackPointExtension>
            <ns3:hr>158</ns3:hr>
            <ns3:cad>77</ns3:cad>
          </ns3:TrackPointExtension>
        </extensions>
      </trkpt>
      <trkpt lat="42.6106028817594051361083984375" lon="2.7326739393174648284912109375">
        <ele>234.399993896484375</ele>
        <time>2023-08-19T17:34:49.000Z</time>
        <extensions>
          <ns3:TrackPointExtension>
            <ns3:hr>158</ns3:hr>
            <ns3:cad>77</ns3:cad>
          </ns3:TrackPointExtension>
        </extensions>
      </trkpt>
      <trkpt lat="42.6105944998562335968017578125" lon="2.73266027681529521942138671875">
        <ele>234.8000030517578125</ele>
        <time>2023-08-19T17:34:50.000Z</time>
        <extensions>
          <ns3:TrackPointExtension>
            <ns3:hr>159</ns3:hr>
            <ns3:cad>77</ns3:cad>
          </ns3:TrackPointExtension>
        </extensions>
      </trkpt>
      <trkpt lat="42.6105851121246814727783203125" lon="2.73264200426638126373291015625">
        <ele>235.1999969482421875</ele>
        <time>2023-08-19T17:34:51.000Z</time>
        <extensions>
          <ns3:TrackPointExtension>
            <ns3:hr>159</ns3:hr>
            <ns3:cad>78</ns3:cad>
          </ns3:TrackPointExtension>
        </extensions>
      </trkpt>
      <trkpt lat="42.6105757243931293487548828125" lon="2.73262104950845241546630859375">
        <ele>235.399993896484375</ele>
        <time>2023-08-19T17:34:52.000Z</time>
        <extensions>
          <ns3:TrackPointExtension>
            <ns3:hr>159</ns3:hr>
            <ns3:cad>78</ns3:cad>
          </ns3:TrackPointExtension>
        </extensions>
      </trkpt>
      <trkpt lat="42.61056407354772090911865234375" lon="2.7326095663011074066162109375">
        <ele>235.600006103515625</ele>
        <time>2023-08-19T17:34:53.000Z</time>
        <extensions>
          <ns3:TrackPointExtension>
            <ns3:hr>159</ns3:hr>
            <ns3:cad>77</ns3:cad>
          </ns3:TrackPointExtension>
        </extensions>
      </trkpt>
      <trkpt lat="42.61055384762585163116455078125" lon="2.7325941435992717742919921875">
        <ele>235.8000030517578125</ele>
        <time>2023-08-19T17:34:54.000Z</time>
        <extensions>
          <ns3:TrackPointExtension>
            <ns3:hr>159</ns3:hr>
            <ns3:cad>77</ns3:cad>
          </ns3:TrackPointExtension>
        </extensions>
      </trkpt>
      <trkpt lat="42.610542364418506622314453125" lon="2.7325768768787384033203125">
        <ele>235.8000030517578125</ele>
        <time>2023-08-19T17:34:55.000Z</time>
        <extensions>
          <ns3:TrackPointExtension>
            <ns3:hr>160</ns3:hr>
            <ns3:cad>77</ns3:cad>
          </ns3:TrackPointExtension>
        </extensions>
      </trkpt>
      <trkpt lat="42.61053423397243022918701171875" lon="2.7325649745762348175048828125">
        <ele>235.8000030517578125</ele>
        <time>2023-08-19T17:34:56.000Z</time>
        <extensions>
          <ns3:TrackPointExtension>
            <ns3:hr>160</ns3:hr>
            <ns3:cad>77</ns3:cad>
          </ns3:TrackPointExtension>
        </extensions>
      </trkpt>
      <trkpt lat="42.6105230860412120819091796875" lon="2.7325508929789066314697265625">
        <ele>236</ele>
        <time>2023-08-19T17:34:57.000Z</time>
        <extensions>
          <ns3:TrackPointExtension>
            <ns3:hr>160</ns3:hr>
            <ns3:cad>76</ns3:cad>
          </ns3:TrackPointExtension>
        </extensions>
      </trkpt>
      <trkpt lat="42.61050590313971042633056640625" lon="2.73253890685737133026123046875">
        <ele>236.1999969482421875</ele>
        <time>2023-08-19T17:34:58.000Z</time>
        <extensions>
          <ns3:TrackPointExtension>
            <ns3:hr>160</ns3:hr>
            <ns3:cad>76</ns3:cad>
          </ns3:TrackPointExtension>
        </extensions>
      </trkpt>
      <trkpt lat="42.6104905642569065093994140625" lon="2.732530944049358367919921875">
        <ele>236.399993896484375</ele>
        <time>2023-08-19T17:34:59.000Z</time>
        <extensions>
          <ns3:TrackPointExtension>
            <ns3:hr>160</ns3:hr>
            <ns3:cad>76</ns3:cad>
          </ns3:TrackPointExtension>
        </extensions>
      </trkpt>
      <trkpt lat="42.6104744710028171539306640625" lon="2.73252465762197971343994140625">
        <ele>236.600006103515625</ele>
        <time>2023-08-19T17:35:00.000Z</time>
        <extensions>
          <ns3:TrackPointExtension>
            <ns3:hr>160</ns3:hr>
            <ns3:cad>76</ns3:cad>
          </ns3:TrackPointExtension>
        </extensions>
      </trkpt>
      <trkpt lat="42.61045929975807666778564453125" lon="2.7325183711946010589599609375">
        <ele>236.600006103515625</ele>
        <time>2023-08-19T17:35:01.000Z</time>
        <extensions>
          <ns3:TrackPointExtension>
            <ns3:hr>160</ns3:hr>
            <ns3:cad>75</ns3:cad>
          </ns3:TrackPointExtension>
        </extensions>
      </trkpt>
      <trkpt lat="42.610447145998477935791015625" lon="2.7325133420526981353759765625">
        <ele>236.8000030517578125</ele>
        <time>2023-08-19T17:35:02.000Z</time>
        <extensions>
          <ns3:TrackPointExtension>
            <ns3:hr>160</ns3:hr>
            <ns3:cad>76</ns3:cad>
          </ns3:TrackPointExtension>
        </extensions>
      </trkpt>
      <trkpt lat="42.6104349084198474884033203125" lon="2.732492052018642425537109375">
        <ele>237.1999969482421875</ele>
        <time>2023-08-19T17:35:03.000Z</time>
        <extensions>
          <ns3:TrackPointExtension>
            <ns3:hr>160</ns3:hr>
            <ns3:cad>76</ns3:cad>
          </ns3:TrackPointExtension>
        </extensions>
      </trkpt>
      <trkpt lat="42.610423676669597625732421875" lon="2.732473947107791900634765625">
        <ele>237.399993896484375</ele>
        <time>2023-08-19T17:35:04.000Z</time>
        <extensions>
          <ns3:TrackPointExtension>
            <ns3:hr>160</ns3:hr>
            <ns3:cad>76</ns3:cad>
          </ns3:TrackPointExtension>
        </extensions>
      </trkpt>
      <trkpt lat="42.61041739024221897125244140625" lon="2.73245173506438732147216796875">
        <ele>237.600006103515625</ele>
        <time>2023-08-19T17:35:05.000Z</time>
        <extensions>
          <ns3:TrackPointExtension>
            <ns3:hr>160</ns3:hr>
            <ns3:cad>76</ns3:cad>
          </ns3:TrackPointExtension>
        </extensions>
      </trkpt>
      <trkpt lat="42.61041487567126750946044921875" lon="2.73243228904902935028076171875">
        <ele>237.8000030517578125</ele>
        <time>2023-08-19T17:35:06.000Z</time>
        <extensions>
          <ns3:TrackPointExtension>
            <ns3:hr>160</ns3:hr>
            <ns3:cad>76</ns3:cad>
          </ns3:TrackPointExtension>
        </extensions>
      </trkpt>
      <trkpt lat="42.610413618385791778564453125" lon="2.7324167825281620025634765625">
        <ele>238.1999969482421875</ele>
        <time>2023-08-19T17:35:07.000Z</time>
        <extensions>
          <ns3:TrackPointExtension>
            <ns3:hr>160</ns3:hr>
            <ns3:cad>76</ns3:cad>
          </ns3:TrackPointExtension>
        </extensions>
      </trkpt>
      <trkpt lat="42.61041269637644290924072265625" lon="2.7323966659605503082275390625">
        <ele>238.399993896484375</ele>
        <time>2023-08-19T17:35:08.000Z</time>
        <extensions>
          <ns3:TrackPointExtension>
            <ns3:hr>160</ns3:hr>
            <ns3:cad>76</ns3:cad>
          </ns3:TrackPointExtension>
        </extensions>
      </trkpt>
      <trkpt lat="42.61040967889130115509033203125" lon="2.732380740344524383544921875">
        <ele>238.600006103515625</ele>
        <time>2023-08-19T17:35:09.000Z</time>
        <extensions>
          <ns3:TrackPointExtension>
            <ns3:hr>160</ns3:hr>
            <ns3:cad>76</ns3:cad>
          </ns3:TrackPointExtension>
        </extensions>
      </trkpt>
      <trkpt lat="42.61040666140615940093994140625" lon="2.732360623776912689208984375">
        <ele>239</ele>
        <time>2023-08-19T17:35:10.000Z</time>
        <extensions>
          <ns3:TrackPointExtension>
            <ns3:hr>160</ns3:hr>
            <ns3:cad>73</ns3:cad>
          </ns3:TrackPointExtension>
        </extensions>
      </trkpt>
      <trkpt lat="42.6104025542736053466796875" lon="2.73233857937157154083251953125">
        <ele>239.1999969482421875</ele>
        <time>2023-08-19T17:35:11.000Z</time>
        <extensions>
          <ns3:TrackPointExtension>
            <ns3:hr>160</ns3:hr>
            <ns3:cad>45</ns3:cad>
          </ns3:TrackPointExtension>
        </extensions>
      </trkpt>
      <trkpt lat="42.61039744131267070770263671875" lon="2.7323247492313385009765625">
        <ele>239.399993896484375</ele>
        <time>2023-08-19T17:35:12.000Z</time>
        <extensions>
          <ns3:TrackPointExtension>
            <ns3:hr>160</ns3:hr>
            <ns3:cad>58</ns3:cad>
          </ns3:TrackPointExtension>
        </extensions>
      </trkpt>
      <trkpt lat="42.6103913225233554840087890625" lon="2.73231494240462779998779296875">
        <ele>239.399993896484375</ele>
        <time>2023-08-19T17:35:13.000Z</time>
        <extensions>
          <ns3:TrackPointExtension>
            <ns3:hr>160</ns3:hr>
            <ns3:cad>62</ns3:cad>
          </ns3:TrackPointExtension>
        </extensions>
      </trkpt>
      <trkpt lat="42.61038537137210369110107421875" lon="2.73230203427374362945556640625">
        <ele>239.8000030517578125</ele>
        <time>2023-08-19T17:35:14.000Z</time>
        <extensions>
          <ns3:TrackPointExtension>
            <ns3:hr>160</ns3:hr>
            <ns3:cad>59</ns3:cad>
          </ns3:TrackPointExtension>
        </extensions>
      </trkpt>
      <trkpt lat="42.6103799231350421905517578125" lon="2.7322877012193202972412109375">
        <ele>240</ele>
        <time>2023-08-19T17:35:15.000Z</time>
        <extensions>
          <ns3:TrackPointExtension>
            <ns3:hr>160</ns3:hr>
            <ns3:cad>57</ns3:cad>
          </ns3:TrackPointExtension>
        </extensions>
      </trkpt>
      <trkpt lat="42.61037103831768035888671875" lon="2.732276804745197296142578125">
        <ele>240</ele>
        <time>2023-08-19T17:35:16.000Z</time>
        <extensions>
          <ns3:TrackPointExtension>
            <ns3:hr>160</ns3:hr>
            <ns3:cad>57</ns3:cad>
          </ns3:TrackPointExtension>
        </extensions>
      </trkpt>
      <trkpt lat="42.61036491952836513519287109375" lon="2.73226364515721797943115234375">
        <ele>240.1999969482421875</ele>
        <time>2023-08-19T17:35:17.000Z</time>
        <extensions>
          <ns3:TrackPointExtension>
            <ns3:hr>160</ns3:hr>
            <ns3:cad>57</ns3:cad>
          </ns3:TrackPointExtension>
        </extensions>
      </trkpt>
      <trkpt lat="42.6103598065674304962158203125" lon="2.73225274868309497833251953125">
        <ele>240.399993896484375</ele>
        <time>2023-08-19T17:35:18.000Z</time>
        <extensions>
          <ns3:TrackPointExtension>
            <ns3:hr>160</ns3:hr>
            <ns3:cad>56</ns3:cad>
          </ns3:TrackPointExtension>
        </extensions>
      </trkpt>
      <trkpt lat="42.61035268194973468780517578125" lon="2.73224218748509883880615234375">
        <ele>240.600006103515625</ele>
        <time>2023-08-19T17:35:19.000Z</time>
        <extensions>
          <ns3:TrackPointExtension>
            <ns3:hr>160</ns3:hr>
            <ns3:cad>56</ns3:cad>
          </ns3:TrackPointExtension>
        </extensions>
      </trkpt>
      <trkpt lat="42.61034614406526088714599609375" lon="2.73223028518259525299072265625">
        <ele>240.600006103515625</ele>
        <time>2023-08-19T17:35:20.000Z</time>
        <extensions>
          <ns3:TrackPointExtension>
            <ns3:hr>160</ns3:hr>
            <ns3:cad>56</ns3:cad>
          </ns3:TrackPointExtension>
        </extensions>
      </trkpt>
      <trkpt lat="42.6103360019624233245849609375" lon="2.7322129346430301666259765625">
        <ele>240.8000030517578125</ele>
        <time>2023-08-19T17:35:21.000Z</time>
        <extensions>
          <ns3:TrackPointExtension>
            <ns3:hr>160</ns3:hr>
            <ns3:cad>56</ns3:cad>
          </ns3:TrackPointExtension>
        </extensions>
      </trkpt>
      <trkpt lat="42.61032678186893463134765625" lon="2.732199691236019134521484375">
        <ele>241</ele>
        <time>2023-08-19T17:35:22.000Z</time>
        <extensions>
          <ns3:TrackPointExtension>
            <ns3:hr>160</ns3:hr>
            <ns3:cad>54</ns3:cad>
          </ns3:TrackPointExtension>
        </extensions>
      </trkpt>
      <trkpt lat="42.61031982488930225372314453125" lon="2.73218594491481781005859375">
        <ele>241.1999969482421875</ele>
        <time>2023-08-19T17:35:23.000Z</time>
        <extensions>
          <ns3:TrackPointExtension>
            <ns3:hr>160</ns3:hr>
            <ns3:cad>54</ns3:cad>
          </ns3:TrackPointExtension>
        </extensions>
      </trkpt>
      <trkpt lat="42.61031680740416049957275390625" lon="2.732175551354885101318359375">
        <ele>241.399993896484375</ele>
        <time>2023-08-19T17:35:24.000Z</time>
        <extensions>
          <ns3:TrackPointExtension>
            <ns3:hr>160</ns3:hr>
            <ns3:cad>55</ns3:cad>
          </ns3:TrackPointExtension>
        </extensions>
      </trkpt>
      <trkpt lat="42.6103132031857967376708984375" lon="2.73215719498693943023681640625">
        <ele>241.600006103515625</ele>
        <time>2023-08-19T17:35:25.000Z</time>
        <extensions>
          <ns3:TrackPointExtension>
            <ns3:hr>160</ns3:hr>
            <ns3:cad>54</ns3:cad>
          </ns3:TrackPointExtension>
        </extensions>
      </trkpt>
      <trkpt lat="42.61031261645257472991943359375" lon="2.73214043118059635162353515625">
        <ele>241.8000030517578125</ele>
        <time>2023-08-19T17:35:26.000Z</time>
        <extensions>
          <ns3:TrackPointExtension>
            <ns3:hr>160</ns3:hr>
            <ns3:cad>55</ns3:cad>
          </ns3:TrackPointExtension>
        </extensions>
      </trkpt>
      <trkpt lat="42.610307671129703521728515625" lon="2.7321240864694118499755859375">
        <ele>242</ele>
        <time>2023-08-19T17:35:27.000Z</time>
        <extensions>
          <ns3:TrackPointExtension>
            <ns3:hr>159</ns3:hr>
            <ns3:cad>56</ns3:cad>
          </ns3:TrackPointExtension>
        </extensions>
      </trkpt>
      <trkpt lat="42.61029970832169055938720703125" lon="2.73210807703435420989990234375">
        <ele>242.1999969482421875</ele>
        <time>2023-08-19T17:35:28.000Z</time>
        <extensions>
          <ns3:TrackPointExtension>
            <ns3:hr>159</ns3:hr>
            <ns3:cad>57</ns3:cad>
          </ns3:TrackPointExtension>
        </extensions>
      </trkpt>
      <trkpt lat="42.61028680019080638885498046875" lon="2.732095085084438323974609375">
        <ele>242.399993896484375</ele>
        <time>2023-08-19T17:35:29.000Z</time>
        <extensions>
          <ns3:TrackPointExtension>
            <ns3:hr>159</ns3:hr>
            <ns3:cad>59</ns3:cad>
          </ns3:TrackPointExtension>
        </extensions>
      </trkpt>
      <trkpt lat="42.61027623899281024932861328125" lon="2.73208628408610820770263671875">
        <ele>242.600006103515625</ele>
        <time>2023-08-19T17:35:30.000Z</time>
        <extensions>
          <ns3:TrackPointExtension>
            <ns3:hr>159</ns3:hr>
            <ns3:cad>58</ns3:cad>
          </ns3:TrackPointExtension>
        </extensions>
      </trkpt>
      <trkpt lat="42.61026500724256038665771484375" lon="2.73207220248878002166748046875">
        <ele>242.8000030517578125</ele>
        <time>2023-08-19T17:35:31.000Z</time>
        <extensions>
          <ns3:TrackPointExtension>
            <ns3:hr>159</ns3:hr>
            <ns3:cad>58</ns3:cad>
          </ns3:TrackPointExtension>
        </extensions>
      </trkpt>
      <trkpt lat="42.61025243438780307769775390625" lon="2.73206030018627643585205078125">
        <ele>243</ele>
        <time>2023-08-19T17:35:32.000Z</time>
        <extensions>
          <ns3:TrackPointExtension>
            <ns3:hr>159</ns3:hr>
            <ns3:cad>58</ns3:cad>
          </ns3:TrackPointExtension>
        </extensions>
      </trkpt>
      <trkpt lat="42.6102427951991558074951171875" lon="2.7320484817028045654296875">
        <ele>243.1999969482421875</ele>
        <time>2023-08-19T17:35:33.000Z</time>
        <extensions>
          <ns3:TrackPointExtension>
            <ns3:hr>159</ns3:hr>
            <ns3:cad>57</ns3:cad>
          </ns3:TrackPointExtension>
        </extensions>
      </trkpt>
      <trkpt lat="42.610233239829540252685546875" lon="2.73203414864838123321533203125">
        <ele>243.399993896484375</ele>
        <time>2023-08-19T17:35:34.000Z</time>
        <extensions>
          <ns3:TrackPointExtension>
            <ns3:hr>159</ns3:hr>
            <ns3:cad>57</ns3:cad>
          </ns3:TrackPointExtension>
        </extensions>
      </trkpt>
      <trkpt lat="42.61022443883121013641357421875" lon="2.73201788775622844696044921875">
        <ele>243.600006103515625</ele>
        <time>2023-08-19T17:35:35.000Z</time>
        <extensions>
          <ns3:TrackPointExtension>
            <ns3:hr>159</ns3:hr>
            <ns3:cad>58</ns3:cad>
          </ns3:TrackPointExtension>
        </extensions>
      </trkpt>
      <trkpt lat="42.610217817127704620361328125" lon="2.7320015430450439453125">
        <ele>244</ele>
        <time>2023-08-19T17:35:36.000Z</time>
        <extensions>
          <ns3:TrackPointExtension>
            <ns3:hr>159</ns3:hr>
            <ns3:cad>58</ns3:cad>
          </ns3:TrackPointExtension>
        </extensions>
      </trkpt>
      <trkpt lat="42.61021069251000881195068359375" lon="2.7319829352200031280517578125">
        <ele>244</ele>
        <time>2023-08-19T17:35:37.000Z</time>
        <extensions>
          <ns3:TrackPointExtension>
            <ns3:hr>159</ns3:hr>
            <ns3:cad>58</ns3:cad>
          </ns3:TrackPointExtension>
        </extensions>
      </trkpt>
      <trkpt lat="42.61020683683454990386962890625" lon="2.7319733798503875732421875">
        <ele>244.1999969482421875</ele>
        <time>2023-08-19T17:35:38.000Z</time>
        <extensions>
          <ns3:TrackPointExtension>
            <ns3:hr>159</ns3:hr>
            <ns3:cad>58</ns3:cad>
          </ns3:TrackPointExtension>
        </extensions>
      </trkpt>
      <trkpt lat="42.61020130477845668792724609375" lon="2.73195904679596424102783203125">
        <ele>244.600006103515625</ele>
        <time>2023-08-19T17:35:39.000Z</time>
        <extensions>
          <ns3:TrackPointExtension>
            <ns3:hr>159</ns3:hr>
            <ns3:cad>58</ns3:cad>
          </ns3:TrackPointExtension>
        </extensions>
      </trkpt>
      <trkpt lat="42.61019627563655376434326171875" lon="2.73194588720798492431640625">
        <ele>244.600006103515625</ele>
        <time>2023-08-19T17:35:40.000Z</time>
        <extensions>
          <ns3:TrackPointExtension>
            <ns3:hr>159</ns3:hr>
            <ns3:cad>58</ns3:cad>
          </ns3:TrackPointExtension>
        </extensions>
      </trkpt>
      <trkpt lat="42.6101894862949848175048828125" lon="2.73192987777292728424072265625">
        <ele>244.8000030517578125</ele>
        <time>2023-08-19T17:35:41.000Z</time>
        <extensions>
          <ns3:TrackPointExtension>
            <ns3:hr>159</ns3:hr>
            <ns3:cad>57</ns3:cad>
          </ns3:TrackPointExtension>
        </extensions>
      </trkpt>
      <trkpt lat="42.61018596589565277099609375" lon="2.73191395215690135955810546875">
        <ele>245.1999969482421875</ele>
        <time>2023-08-19T17:35:42.000Z</time>
        <extensions>
          <ns3:TrackPointExtension>
            <ns3:hr>159</ns3:hr>
            <ns3:cad>58</ns3:cad>
          </ns3:TrackPointExtension>
        </extensions>
      </trkpt>
      <trkpt lat="42.6101800985634326934814453125" lon="2.731901966035366058349609375">
        <ele>245.399993896484375</ele>
        <time>2023-08-19T17:35:43.000Z</time>
        <extensions>
          <ns3:TrackPointExtension>
            <ns3:hr>158</ns3:hr>
            <ns3:cad>58</ns3:cad>
          </ns3:TrackPointExtension>
        </extensions>
      </trkpt>
      <trkpt lat="42.61016987264156341552734375" lon="2.73188310675323009490966796875">
        <ele>245.600006103515625</ele>
        <time>2023-08-19T17:35:44.000Z</time>
        <extensions>
          <ns3:TrackPointExtension>
            <ns3:hr>158</ns3:hr>
            <ns3:cad>58</ns3:cad>
          </ns3:TrackPointExtension>
        </extensions>
      </trkpt>
      <trkpt lat="42.61016023345291614532470703125" lon="2.73186801932752132415771484375">
        <ele>245.600006103515625</ele>
        <time>2023-08-19T17:35:45.000Z</time>
        <extensions>
          <ns3:TrackPointExtension>
            <ns3:hr>158</ns3:hr>
            <ns3:cad>57</ns3:cad>
          </ns3:TrackPointExtension>
        </extensions>
      </trkpt>
      <trkpt lat="42.61015403084456920623779296875" lon="2.73185175843536853790283203125">
        <ele>246</ele>
        <time>2023-08-19T17:35:46.000Z</time>
        <extensions>
          <ns3:TrackPointExtension>
            <ns3:hr>158</ns3:hr>
            <ns3:cad>57</ns3:cad>
          </ns3:TrackPointExtension>
        </extensions>
      </trkpt>
      <trkpt lat="42.610143385827541351318359375" lon="2.7318347431719303131103515625">
        <ele>246</ele>
        <time>2023-08-19T17:35:47.000Z</time>
        <extensions>
          <ns3:TrackPointExtension>
            <ns3:hr>158</ns3:hr>
            <ns3:cad>57</ns3:cad>
          </ns3:TrackPointExtension>
        </extensions>
      </trkpt>
      <trkpt lat="42.61013458482921123504638671875" lon="2.73182208649814128875732421875">
        <ele>246.1999969482421875</ele>
        <time>2023-08-19T17:35:48.000Z</time>
        <extensions>
          <ns3:TrackPointExtension>
            <ns3:hr>158</ns3:hr>
            <ns3:cad>57</ns3:cad>
          </ns3:TrackPointExtension>
        </extensions>
      </trkpt>
      <trkpt lat="42.61012804694473743438720703125" lon="2.73180012591183185577392578125">
        <ele>246.600006103515625</ele>
        <time>2023-08-19T17:35:49.000Z</time>
        <extensions>
          <ns3:TrackPointExtension>
            <ns3:hr>158</ns3:hr>
            <ns3:cad>57</ns3:cad>
          </ns3:TrackPointExtension>
        </extensions>
      </trkpt>
      <trkpt lat="42.61012134142220020294189453125" lon="2.7317831106483936309814453125">
        <ele>246.8000030517578125</ele>
        <time>2023-08-19T17:35:50.000Z</time>
        <extensions>
          <ns3:TrackPointExtension>
            <ns3:hr>158</ns3:hr>
            <ns3:cad>57</ns3:cad>
          </ns3:TrackPointExtension>
        </extensions>
      </trkpt>
      <trkpt lat="42.610113881528377532958984375" lon="2.7317700348794460296630859375">
        <ele>247</ele>
        <time>2023-08-19T17:35:51.000Z</time>
        <extensions>
          <ns3:TrackPointExtension>
            <ns3:hr>158</ns3:hr>
            <ns3:cad>58</ns3:cad>
          </ns3:TrackPointExtension>
        </extensions>
      </trkpt>
      <trkpt lat="42.610108517110347747802734375" lon="2.73175955750048160552978515625">
        <ele>247.1999969482421875</ele>
        <time>2023-08-19T17:35:52.000Z</time>
        <extensions>
          <ns3:TrackPointExtension>
            <ns3:hr>158</ns3:hr>
            <ns3:cad>58</ns3:cad>
          </ns3:TrackPointExtension>
        </extensions>
      </trkpt>
      <trkpt lat="42.61010692454874515533447265625" lon="2.73174782283604145050048828125">
        <ele>247.399993896484375</ele>
        <time>2023-08-19T17:35:53.000Z</time>
        <extensions>
          <ns3:TrackPointExtension>
            <ns3:hr>158</ns3:hr>
            <ns3:cad>59</ns3:cad>
          </ns3:TrackPointExtension>
        </extensions>
      </trkpt>
      <trkpt lat="42.61010340414941310882568359375" lon="2.73172871209681034088134765625">
        <ele>247.8000030517578125</ele>
        <time>2023-08-19T17:35:54.000Z</time>
        <extensions>
          <ns3:TrackPointExtension>
            <ns3:hr>158</ns3:hr>
            <ns3:cad>60</ns3:cad>
          </ns3:TrackPointExtension>
        </extensions>
      </trkpt>
      <trkpt lat="42.6101009733974933624267578125" lon="2.7317080087959766387939453125">
        <ele>248</ele>
        <time>2023-08-19T17:35:55.000Z</time>
        <extensions>
          <ns3:TrackPointExtension>
            <ns3:hr>158</ns3:hr>
            <ns3:cad>60</ns3:cad>
          </ns3:TrackPointExtension>
        </extensions>
      </trkpt>
      <trkpt lat="42.61010684072971343994140625" lon="2.73169468156993389129638671875">
        <ele>248</ele>
        <time>2023-08-19T17:35:56.000Z</time>
        <extensions>
          <ns3:TrackPointExtension>
            <ns3:hr>158</ns3:hr>
            <ns3:cad>60</ns3:cad>
          </ns3:TrackPointExtension>
        </extensions>
      </trkpt>
      <trkpt lat="42.61011346243321895599365234375" lon="2.73167498409748077392578125">
        <ele>248.1999969482421875</ele>
        <time>2023-08-19T17:35:57.000Z</time>
        <extensions>
          <ns3:TrackPointExtension>
            <ns3:hr>159</ns3:hr>
            <ns3:cad>57</ns3:cad>
          </ns3:TrackPointExtension>
        </extensions>
      </trkpt>
      <trkpt lat="42.61011731810867786407470703125" lon="2.73165327496826648712158203125">
        <ele>248.399993896484375</ele>
        <time>2023-08-19T17:35:58.000Z</time>
        <extensions>
          <ns3:TrackPointExtension>
            <ns3:hr>156</ns3:hr>
            <ns3:cad>52</ns3:cad>
          </ns3:TrackPointExtension>
        </extensions>
      </trkpt>
      <trkpt lat="42.61011547408998012542724609375" lon="2.73163349367678165435791015625">
        <ele>248.399993896484375</ele>
        <time>2023-08-19T17:35:59.000Z</time>
        <extensions>
          <ns3:TrackPointExtension>
            <ns3:hr>156</ns3:hr>
            <ns3:cad>53</ns3:cad>
          </ns3:TrackPointExtension>
        </extensions>
      </trkpt>
      <trkpt lat="42.6101113669574260711669921875" lon="2.73161455057561397552490234375">
        <ele>248.399993896484375</ele>
        <time>2023-08-19T17:36:00.000Z</time>
        <extensions>
          <ns3:TrackPointExtension>
            <ns3:hr>156</ns3:hr>
            <ns3:cad>55</ns3:cad>
          </ns3:TrackPointExtension>
        </extensions>
      </trkpt>
      <trkpt lat="42.61010642163455486297607421875" lon="2.73159862495958805084228515625">
        <ele>248.600006103515625</ele>
        <time>2023-08-19T17:36:01.000Z</time>
        <extensions>
          <ns3:TrackPointExtension>
            <ns3:hr>155</ns3:hr>
            <ns3:cad>55</ns3:cad>
          </ns3:TrackPointExtension>
        </extensions>
      </trkpt>
      <trkpt lat="42.6100992970168590545654296875" lon="2.73158152587711811065673828125">
        <ele>249</ele>
        <time>2023-08-19T17:36:02.000Z</time>
        <extensions>
          <ns3:TrackPointExtension>
            <ns3:hr>155</ns3:hr>
            <ns3:cad>57</ns3:cad>
          </ns3:TrackPointExtension>
        </extensions>
      </trkpt>
      <trkpt lat="42.61009334586560726165771484375" lon="2.73156828247010707855224609375">
        <ele>249</ele>
        <time>2023-08-19T17:36:03.000Z</time>
        <extensions>
          <ns3:TrackPointExtension>
            <ns3:hr>156</ns3:hr>
            <ns3:cad>57</ns3:cad>
          </ns3:TrackPointExtension>
        </extensions>
      </trkpt>
      <trkpt lat="42.6100887358188629150390625" lon="2.731560654938220977783203125">
        <ele>249.1999969482421875</ele>
        <time>2023-08-19T17:36:04.000Z</time>
        <extensions>
          <ns3:TrackPointExtension>
            <ns3:hr>156</ns3:hr>
            <ns3:cad>58</ns3:cad>
          </ns3:TrackPointExtension>
        </extensions>
      </trkpt>
      <trkpt lat="42.61007674969732761383056640625" lon="2.73155118338763713836669921875">
        <ele>249.399993896484375</ele>
        <time>2023-08-19T17:36:05.000Z</time>
        <extensions>
          <ns3:TrackPointExtension>
            <ns3:hr>155</ns3:hr>
            <ns3:cad>58</ns3:cad>
          </ns3:TrackPointExtension>
        </extensions>
      </trkpt>
      <trkpt lat="42.61006702668964862823486328125" lon="2.731547914445400238037109375">
        <ele>249.600006103515625</ele>
        <time>2023-08-19T17:36:06.000Z</time>
        <extensions>
          <ns3:TrackPointExtension>
            <ns3:hr>155</ns3:hr>
            <ns3:cad>58</ns3:cad>
          </ns3:TrackPointExtension>
        </extensions>
      </trkpt>
      <trkpt lat="42.6100513525307178497314453125" lon="2.7315420471131801605224609375">
        <ele>249.8000030517578125</ele>
        <time>2023-08-19T17:36:07.000Z</time>
        <extensions>
          <ns3:TrackPointExtension>
            <ns3:hr>155</ns3:hr>
            <ns3:cad>58</ns3:cad>
          </ns3:TrackPointExtension>
        </extensions>
      </trkpt>
      <trkpt lat="42.6100379414856433868408203125" lon="2.73153483867645263671875">
        <ele>250</ele>
        <time>2023-08-19T17:36:08.000Z</time>
        <extensions>
          <ns3:TrackPointExtension>
            <ns3:hr>155</ns3:hr>
            <ns3:cad>59</ns3:cad>
          </ns3:TrackPointExtension>
        </extensions>
      </trkpt>
      <trkpt lat="42.61002880521118640899658203125" lon="2.73152570240199565887451171875">
        <ele>250.1999969482421875</ele>
        <time>2023-08-19T17:36:09.000Z</time>
        <extensions>
          <ns3:TrackPointExtension>
            <ns3:hr>155</ns3:hr>
            <ns3:cad>58</ns3:cad>
          </ns3:TrackPointExtension>
        </extensions>
      </trkpt>
      <trkpt lat="42.6100191660225391387939453125" lon="2.73151128552854061126708984375">
        <ele>250.399993896484375</ele>
        <time>2023-08-19T17:36:10.000Z</time>
        <extensions>
          <ns3:TrackPointExtension>
            <ns3:hr>154</ns3:hr>
            <ns3:cad>58</ns3:cad>
          </ns3:TrackPointExtension>
        </extensions>
      </trkpt>
      <trkpt lat="42.61000852100551128387451171875" lon="2.7314959466457366943359375">
        <ele>250.600006103515625</ele>
        <time>2023-08-19T17:36:11.000Z</time>
        <extensions>
          <ns3:TrackPointExtension>
            <ns3:hr>153</ns3:hr>
            <ns3:cad>56</ns3:cad>
          </ns3:TrackPointExtension>
        </extensions>
      </trkpt>
      <trkpt lat="42.6100029051303863525390625" lon="2.731481529772281646728515625">
        <ele>250.8000030517578125</ele>
        <time>2023-08-19T17:36:12.000Z</time>
        <extensions>
          <ns3:TrackPointExtension>
            <ns3:hr>155</ns3:hr>
            <ns3:cad>55</ns3:cad>
          </ns3:TrackPointExtension>
        </extensions>
      </trkpt>
      <trkpt lat="42.60999779216945171356201171875" lon="2.73146216757595539093017578125">
        <ele>250.8000030517578125</ele>
        <time>2023-08-19T17:36:13.000Z</time>
        <extensions>
          <ns3:TrackPointExtension>
            <ns3:hr>155</ns3:hr>
            <ns3:cad>55</ns3:cad>
          </ns3:TrackPointExtension>
        </extensions>
      </trkpt>
      <trkpt lat="42.60999611578881740570068359375" lon="2.731444649398326873779296875">
        <ele>251</ele>
        <time>2023-08-19T17:36:14.000Z</time>
        <extensions>
          <ns3:TrackPointExtension>
            <ns3:hr>154</ns3:hr>
            <ns3:cad>56</ns3:cad>
          </ns3:TrackPointExtension>
        </extensions>
      </trkpt>
      <trkpt lat="42.60999242775142192840576171875" lon="2.731429226696491241455078125">
        <ele>251.1999969482421875</ele>
        <time>2023-08-19T17:36:15.000Z</time>
        <extensions>
          <ns3:TrackPointExtension>
            <ns3:hr>154</ns3:hr>
            <ns3:cad>56</ns3:cad>
          </ns3:TrackPointExtension>
        </extensions>
      </trkpt>
      <trkpt lat="42.609989829361438751220703125" lon="2.73140936158597469329833984375">
        <ele>251.399993896484375</ele>
        <time>2023-08-19T17:36:16.000Z</time>
        <extensions>
          <ns3:TrackPointExtension>
            <ns3:hr>154</ns3:hr>
            <ns3:cad>56</ns3:cad>
          </ns3:TrackPointExtension>
        </extensions>
      </trkpt>
      <trkpt lat="42.60999008081853389739990234375" lon="2.73139796219766139984130859375">
        <ele>251.8000030517578125</ele>
        <time>2023-08-19T17:36:17.000Z</time>
        <extensions>
          <ns3:TrackPointExtension>
            <ns3:hr>154</ns3:hr>
            <ns3:cad>56</ns3:cad>
          </ns3:TrackPointExtension>
        </extensions>
      </trkpt>
      <trkpt lat="42.609988152980804443359375" lon="2.73137650452554225921630859375">
        <ele>252</ele>
        <time>2023-08-19T17:36:18.000Z</time>
        <extensions>
          <ns3:TrackPointExtension>
            <ns3:hr>154</ns3:hr>
            <ns3:cad>57</ns3:cad>
          </ns3:TrackPointExtension>
        </extensions>
      </trkpt>
      <trkpt lat="42.60998438112437725067138671875" lon="2.7313578128814697265625">
        <ele>252.1999969482421875</ele>
        <time>2023-08-19T17:36:19.000Z</time>
        <extensions>
          <ns3:TrackPointExtension>
            <ns3:hr>154</ns3:hr>
            <ns3:cad>58</ns3:cad>
          </ns3:TrackPointExtension>
        </extensions>
      </trkpt>
      <trkpt lat="42.6099802739918231964111328125" lon="2.73133895359933376312255859375">
        <ele>252.1999969482421875</ele>
        <time>2023-08-19T17:36:20.000Z</time>
        <extensions>
          <ns3:TrackPointExtension>
            <ns3:hr>154</ns3:hr>
            <ns3:cad>58</ns3:cad>
          </ns3:TrackPointExtension>
        </extensions>
      </trkpt>
      <trkpt lat="42.6099749095737934112548828125" lon="2.7313207648694515228271484375">
        <ele>252.1999969482421875</ele>
        <time>2023-08-19T17:36:21.000Z</time>
        <extensions>
          <ns3:TrackPointExtension>
            <ns3:hr>154</ns3:hr>
            <ns3:cad>58</ns3:cad>
          </ns3:TrackPointExtension>
        </extensions>
      </trkpt>
      <trkpt lat="42.60997298173606395721435546875" lon="2.73130592890083789825439453125">
        <ele>252.399993896484375</ele>
        <time>2023-08-19T17:36:22.000Z</time>
        <extensions>
          <ns3:TrackPointExtension>
            <ns3:hr>154</ns3:hr>
            <ns3:cad>58</ns3:cad>
          </ns3:TrackPointExtension>
        </extensions>
      </trkpt>
      <trkpt lat="42.609969712793827056884765625" lon="2.73129654116928577423095703125">
        <ele>252.8000030517578125</ele>
        <time>2023-08-19T17:36:23.000Z</time>
        <extensions>
          <ns3:TrackPointExtension>
            <ns3:hr>154</ns3:hr>
            <ns3:cad>59</ns3:cad>
          </ns3:TrackPointExtension>
        </extensions>
      </trkpt>
      <trkpt lat="42.609959654510021209716796875" lon="2.731277681887149810791015625">
        <ele>253.1999969482421875</ele>
        <time>2023-08-19T17:36:24.000Z</time>
        <extensions>
          <ns3:TrackPointExtension>
            <ns3:hr>155</ns3:hr>
            <ns3:cad>58</ns3:cad>
          </ns3:TrackPointExtension>
        </extensions>
      </trkpt>
      <trkpt lat="42.60995127260684967041015625" lon="2.73126385174691677093505859375">
        <ele>253.1999969482421875</ele>
        <time>2023-08-19T17:36:25.000Z</time>
        <extensions>
          <ns3:TrackPointExtension>
            <ns3:hr>154</ns3:hr>
            <ns3:cad>58</ns3:cad>
          </ns3:TrackPointExtension>
        </extensions>
      </trkpt>
      <trkpt lat="42.60993920266628265380859375" lon="2.73124876432120800018310546875">
        <ele>253.399993896484375</ele>
        <time>2023-08-19T17:36:26.000Z</time>
        <extensions>
          <ns3:TrackPointExtension>
            <ns3:hr>154</ns3:hr>
            <ns3:cad>58</ns3:cad>
          </ns3:TrackPointExtension>
        </extensions>
      </trkpt>
      <trkpt lat="42.6099289767444133758544921875" lon="2.73124071769416332244873046875">
        <ele>253.600006103515625</ele>
        <time>2023-08-19T17:36:27.000Z</time>
        <extensions>
          <ns3:TrackPointExtension>
            <ns3:hr>154</ns3:hr>
            <ns3:cad>58</ns3:cad>
          </ns3:TrackPointExtension>
        </extensions>
      </trkpt>
      <trkpt lat="42.60992017574608325958251953125" lon="2.73122998885810375213623046875">
        <ele>253.8000030517578125</ele>
        <time>2023-08-19T17:36:28.000Z</time>
        <extensions>
          <ns3:TrackPointExtension>
            <ns3:hr>155</ns3:hr>
            <ns3:cad>58</ns3:cad>
          </ns3:TrackPointExtension>
        </extensions>
      </trkpt>
      <trkpt lat="42.60991380549967288970947265625" lon="2.7312201820313930511474609375">
        <ele>254.1999969482421875</ele>
        <time>2023-08-19T17:36:29.000Z</time>
        <extensions>
          <ns3:TrackPointExtension>
            <ns3:hr>155</ns3:hr>
            <ns3:cad>58</ns3:cad>
          </ns3:TrackPointExtension>
        </extensions>
      </trkpt>
      <trkpt lat="42.6099021546542644500732421875" lon="2.7311970479786396026611328125">
        <ele>254.1999969482421875</ele>
        <time>2023-08-19T17:36:30.000Z</time>
        <extensions>
          <ns3:TrackPointExtension>
            <ns3:hr>155</ns3:hr>
            <ns3:cad>56</ns3:cad>
          </ns3:TrackPointExtension>
        </extensions>
      </trkpt>
      <trkpt lat="42.609894610941410064697265625" lon="2.7311755903065204620361328125">
        <ele>254.399993896484375</ele>
        <time>2023-08-19T17:36:31.000Z</time>
        <extensions>
          <ns3:TrackPointExtension>
            <ns3:hr>155</ns3:hr>
            <ns3:cad>55</ns3:cad>
          </ns3:TrackPointExtension>
        </extensions>
      </trkpt>
      <trkpt lat="42.60988463647663593292236328125" lon="2.73115321062505245208740234375">
        <ele>254.600006103515625</ele>
        <time>2023-08-19T17:36:32.000Z</time>
        <extensions>
          <ns3:TrackPointExtension>
            <ns3:hr>155</ns3:hr>
            <ns3:cad>57</ns3:cad>
          </ns3:TrackPointExtension>
        </extensions>
      </trkpt>
      <trkpt lat="42.609877847135066986083984375" lon="2.73113057948648929595947265625">
        <ele>255</ele>
        <time>2023-08-19T17:36:33.000Z</time>
        <extensions>
          <ns3:TrackPointExtension>
            <ns3:hr>155</ns3:hr>
            <ns3:cad>76</ns3:cad>
          </ns3:TrackPointExtension>
        </extensions>
      </trkpt>
      <trkpt lat="42.60987390764057636260986328125" lon="2.7311021648347377777099609375">
        <ele>255.1999969482421875</ele>
        <time>2023-08-19T17:36:34.000Z</time>
        <extensions>
          <ns3:TrackPointExtension>
            <ns3:hr>155</ns3:hr>
            <ns3:cad>76</ns3:cad>
          </ns3:TrackPointExtension>
        </extensions>
      </trkpt>
      <trkpt lat="42.60986812412738800048828125" lon="2.73108221590518951416015625">
        <ele>255.399993896484375</ele>
        <time>2023-08-19T17:36:35.000Z</time>
        <extensions>
          <ns3:TrackPointExtension>
            <ns3:hr>155</ns3:hr>
            <ns3:cad>78</ns3:cad>
          </ns3:TrackPointExtension>
        </extensions>
      </trkpt>
      <trkpt lat="42.60985831730067729949951171875" lon="2.73106453008949756622314453125">
        <ele>255.8000030517578125</ele>
        <time>2023-08-19T17:36:36.000Z</time>
        <extensions>
          <ns3:TrackPointExtension>
            <ns3:hr>154</ns3:hr>
            <ns3:cad>78</ns3:cad>
          </ns3:TrackPointExtension>
        </extensions>
      </trkpt>
      <trkpt lat="42.6098464988172054290771484375" lon="2.73104407824575901031494140625">
        <ele>256</ele>
        <time>2023-08-19T17:36:37.000Z</time>
        <extensions>
          <ns3:TrackPointExtension>
            <ns3:hr>154</ns3:hr>
            <ns3:cad>79</ns3:cad>
          </ns3:TrackPointExtension>
        </extensions>
      </trkpt>
      <trkpt lat="42.60983551852405071258544921875" lon="2.7310287393629550933837890625">
        <ele>256.20001220703125</ele>
        <time>2023-08-19T17:36:38.000Z</time>
        <extensions>
          <ns3:TrackPointExtension>
            <ns3:hr>154</ns3:hr>
            <ns3:cad>78</ns3:cad>
          </ns3:TrackPointExtension>
        </extensions>
      </trkpt>
      <trkpt lat="42.60982386767864227294921875" lon="2.7310166694223880767822265625">
        <ele>256.600006103515625</ele>
        <time>2023-08-19T17:36:39.000Z</time>
        <extensions>
          <ns3:TrackPointExtension>
            <ns3:hr>154</ns3:hr>
            <ns3:cad>78</ns3:cad>
          </ns3:TrackPointExtension>
        </extensions>
      </trkpt>
      <trkpt lat="42.60980970226228237152099609375" lon="2.73100300692021846771240234375">
        <ele>256.79998779296875</ele>
        <time>2023-08-19T17:36:40.000Z</time>
        <extensions>
          <ns3:TrackPointExtension>
            <ns3:hr>154</ns3:hr>
            <ns3:cad>78</ns3:cad>
          </ns3:TrackPointExtension>
        </extensions>
      </trkpt>
      <trkpt lat="42.60979612357914447784423828125" lon="2.7309875003993511199951171875">
        <ele>257</ele>
        <time>2023-08-19T17:36:41.000Z</time>
        <extensions>
          <ns3:TrackPointExtension>
            <ns3:hr>155</ns3:hr>
            <ns3:cad>78</ns3:cad>
          </ns3:TrackPointExtension>
        </extensions>
      </trkpt>
      <trkpt lat="42.60978363454341888427734375" lon="2.7309729158878326416015625">
        <ele>257.20001220703125</ele>
        <time>2023-08-19T17:36:42.000Z</time>
        <extensions>
          <ns3:TrackPointExtension>
            <ns3:hr>155</ns3:hr>
            <ns3:cad>78</ns3:cad>
          </ns3:TrackPointExtension>
        </extensions>
      </trkpt>
      <trkpt lat="42.60976896621286869049072265625" lon="2.73096243850886821746826171875">
        <ele>257.399993896484375</ele>
        <time>2023-08-19T17:36:43.000Z</time>
        <extensions>
          <ns3:TrackPointExtension>
            <ns3:hr>155</ns3:hr>
            <ns3:cad>76</ns3:cad>
          </ns3:TrackPointExtension>
        </extensions>
      </trkpt>
      <trkpt lat="42.609758488833904266357421875" lon="2.7309408970177173614501953125">
        <ele>257.79998779296875</ele>
        <time>2023-08-19T17:36:44.000Z</time>
        <extensions>
          <ns3:TrackPointExtension>
            <ns3:hr>156</ns3:hr>
            <ns3:cad>76</ns3:cad>
          </ns3:TrackPointExtension>
        </extensions>
      </trkpt>
      <trkpt lat="42.6097465865314006805419921875" lon="2.73091801442205905914306640625">
        <ele>258</ele>
        <time>2023-08-19T17:36:45.000Z</time>
        <extensions>
          <ns3:TrackPointExtension>
            <ns3:hr>156</ns3:hr>
            <ns3:cad>76</ns3:cad>
          </ns3:TrackPointExtension>
        </extensions>
      </trkpt>
      <trkpt lat="42.6097358576953411102294921875" lon="2.73090074770152568817138671875">
        <ele>258.20001220703125</ele>
        <time>2023-08-19T17:36:46.000Z</time>
        <extensions>
          <ns3:TrackPointExtension>
            <ns3:hr>156</ns3:hr>
            <ns3:cad>76</ns3:cad>
          </ns3:TrackPointExtension>
        </extensions>
      </trkpt>
      <trkpt lat="42.609724290668964385986328125" lon="2.730882726609706878662109375">
        <ele>258.600006103515625</ele>
        <time>2023-08-19T17:36:47.000Z</time>
        <extensions>
          <ns3:TrackPointExtension>
            <ns3:hr>156</ns3:hr>
            <ns3:cad>76</ns3:cad>
          </ns3:TrackPointExtension>
        </extensions>
      </trkpt>
      <trkpt lat="42.60971146635711193084716796875" lon="2.73085917346179485321044921875">
        <ele>258.79998779296875</ele>
        <time>2023-08-19T17:36:48.000Z</time>
        <extensions>
          <ns3:TrackPointExtension>
            <ns3:hr>156</ns3:hr>
            <ns3:cad>77</ns3:cad>
          </ns3:TrackPointExtension>
        </extensions>
      </trkpt>
      <trkpt lat="42.6097073592245578765869140625" lon="2.7308305911719799041748046875">
        <ele>259.20001220703125</ele>
        <time>2023-08-19T17:36:49.000Z</time>
        <extensions>
          <ns3:TrackPointExtension>
            <ns3:hr>156</ns3:hr>
            <ns3:cad>77</ns3:cad>
          </ns3:TrackPointExtension>
        </extensions>
      </trkpt>
      <trkpt lat="42.609702162444591522216796875" lon="2.73080938495695590972900390625">
        <ele>259.399993896484375</ele>
        <time>2023-08-19T17:36:50.000Z</time>
        <extensions>
          <ns3:TrackPointExtension>
            <ns3:hr>156</ns3:hr>
            <ns3:cad>77</ns3:cad>
          </ns3:TrackPointExtension>
        </extensions>
      </trkpt>
      <trkpt lat="42.6096966303884983062744140625" lon="2.73078960366547107696533203125">
        <ele>259.600006103515625</ele>
        <time>2023-08-19T17:36:51.000Z</time>
        <extensions>
          <ns3:TrackPointExtension>
            <ns3:hr>157</ns3:hr>
            <ns3:cad>77</ns3:cad>
          </ns3:TrackPointExtension>
        </extensions>
      </trkpt>
      <trkpt lat="42.609693109989166259765625" lon="2.7307729236781597137451171875">
        <ele>259.79998779296875</ele>
        <time>2023-08-19T17:36:52.000Z</time>
        <extensions>
          <ns3:TrackPointExtension>
            <ns3:hr>157</ns3:hr>
            <ns3:cad>78</ns3:cad>
          </ns3:TrackPointExtension>
        </extensions>
      </trkpt>
      <trkpt lat="42.60968883521854877471923828125" lon="2.73075959645211696624755859375">
        <ele>260.20001220703125</ele>
        <time>2023-08-19T17:36:53.000Z</time>
        <extensions>
          <ns3:TrackPointExtension>
            <ns3:hr>157</ns3:hr>
            <ns3:cad>76</ns3:cad>
          </ns3:TrackPointExtension>
        </extensions>
      </trkpt>
      <trkpt lat="42.609683386981487274169921875" lon="2.73074517957866191864013671875">
        <ele>260.600006103515625</ele>
        <time>2023-08-19T17:36:54.000Z</time>
        <extensions>
          <ns3:TrackPointExtension>
            <ns3:hr>158</ns3:hr>
            <ns3:cad>71</ns3:cad>
          </ns3:TrackPointExtension>
        </extensions>
      </trkpt>
      <trkpt lat="42.609675340354442596435546875" lon="2.73073210380971431732177734375">
        <ele>260.79998779296875</ele>
        <time>2023-08-19T17:36:55.000Z</time>
        <extensions>
          <ns3:TrackPointExtension>
            <ns3:hr>158</ns3:hr>
            <ns3:cad>68</ns3:cad>
          </ns3:TrackPointExtension>
        </extensions>
      </trkpt>
      <trkpt lat="42.6096684671938419342041015625" lon="2.73071567527949810028076171875">
        <ele>260.79998779296875</ele>
        <time>2023-08-19T17:36:56.000Z</time>
        <extensions>
          <ns3:TrackPointExtension>
            <ns3:hr>158</ns3:hr>
            <ns3:cad>58</ns3:cad>
          </ns3:TrackPointExtension>
        </extensions>
      </trkpt>
      <trkpt lat="42.6096594147384166717529296875" lon="2.7306981571018695831298828125">
        <ele>261</ele>
        <time>2023-08-19T17:36:57.000Z</time>
        <extensions>
          <ns3:TrackPointExtension>
            <ns3:hr>158</ns3:hr>
            <ns3:cad>56</ns3:cad>
          </ns3:TrackPointExtension>
        </extensions>
      </trkpt>
      <trkpt lat="42.60965597815811634063720703125" lon="2.73067845962941646575927734375">
        <ele>261.20001220703125</ele>
        <time>2023-08-19T17:36:58.000Z</time>
        <extensions>
          <ns3:TrackPointExtension>
            <ns3:hr>158</ns3:hr>
            <ns3:cad>56</ns3:cad>
          </ns3:TrackPointExtension>
        </extensions>
      </trkpt>
      <trkpt lat="42.6096574030816555023193359375" lon="2.7306617796421051025390625">
        <ele>261.399993896484375</ele>
        <time>2023-08-19T17:36:59.000Z</time>
        <extensions>
          <ns3:TrackPointExtension>
            <ns3:hr>158</ns3:hr>
            <ns3:cad>55</ns3:cad>
          </ns3:TrackPointExtension>
        </extensions>
      </trkpt>
      <trkpt lat="42.609657235443592071533203125" lon="2.7306483685970306396484375">
        <ele>261.79998779296875</ele>
        <time>2023-08-19T17:37:00.000Z</time>
        <extensions>
          <ns3:TrackPointExtension>
            <ns3:hr>158</ns3:hr>
            <ns3:cad>55</ns3:cad>
          </ns3:TrackPointExtension>
        </extensions>
      </trkpt>
      <trkpt lat="42.60965899564325809478759765625" lon="2.73063185624778270721435546875">
        <ele>261.79998779296875</ele>
        <time>2023-08-19T17:37:01.000Z</time>
        <extensions>
          <ns3:TrackPointExtension>
            <ns3:hr>158</ns3:hr>
            <ns3:cad>55</ns3:cad>
          </ns3:TrackPointExtension>
        </extensions>
      </trkpt>
      <trkpt lat="42.6096684671938419342041015625" lon="2.73061341606080532073974609375">
        <ele>262.20001220703125</ele>
        <time>2023-08-19T17:37:02.000Z</time>
        <extensions>
          <ns3:TrackPointExtension>
            <ns3:hr>158</ns3:hr>
            <ns3:cad>55</ns3:cad>
          </ns3:TrackPointExtension>
        </extensions>
      </trkpt>
      <trkpt lat="42.60967056266963481903076171875" lon="2.73059581406414508819580078125">
        <ele>262.399993896484375</ele>
        <time>2023-08-19T17:37:03.000Z</time>
        <extensions>
          <ns3:TrackPointExtension>
            <ns3:hr>158</ns3:hr>
            <ns3:cad>56</ns3:cad>
          </ns3:TrackPointExtension>
        </extensions>
      </trkpt>
      <trkpt lat="42.6096703112125396728515625" lon="2.73057661950588226318359375">
        <ele>262.600006103515625</ele>
        <time>2023-08-19T17:37:04.000Z</time>
        <extensions>
          <ns3:TrackPointExtension>
            <ns3:hr>158</ns3:hr>
            <ns3:cad>57</ns3:cad>
          </ns3:TrackPointExtension>
        </extensions>
      </trkpt>
      <trkpt lat="42.60967039503157138824462890625" lon="2.73056262172758579254150390625">
        <ele>262.600006103515625</ele>
        <time>2023-08-19T17:37:05.000Z</time>
        <extensions>
          <ns3:TrackPointExtension>
            <ns3:hr>158</ns3:hr>
            <ns3:cad>58</ns3:cad>
          </ns3:TrackPointExtension>
        </extensions>
      </trkpt>
      <trkpt lat="42.60967022739350795745849609375" lon="2.7305402420461177825927734375">
        <ele>262.600006103515625</ele>
        <time>2023-08-19T17:37:06.000Z</time>
        <extensions>
          <ns3:TrackPointExtension>
            <ns3:hr>158</ns3:hr>
            <ns3:cad>58</ns3:cad>
          </ns3:TrackPointExtension>
        </extensions>
      </trkpt>
      <trkpt lat="42.60966964066028594970703125" lon="2.730529010295867919921875">
        <ele>262.79998779296875</ele>
        <time>2023-08-19T17:37:07.000Z</time>
        <extensions>
          <ns3:TrackPointExtension>
            <ns3:hr>158</ns3:hr>
            <ns3:cad>59</ns3:cad>
          </ns3:TrackPointExtension>
        </extensions>
      </trkpt>
      <trkpt lat="42.6096688024699687957763671875" lon="2.73051501251757144927978515625">
        <ele>263</ele>
        <time>2023-08-19T17:37:08.000Z</time>
        <extensions>
          <ns3:TrackPointExtension>
            <ns3:hr>158</ns3:hr>
            <ns3:cad>58</ns3:cad>
          </ns3:TrackPointExtension>
        </extensions>
      </trkpt>
      <trkpt lat="42.609669305384159088134765625" lon="2.73049908690154552459716796875">
        <ele>263.20001220703125</ele>
        <time>2023-08-19T17:37:09.000Z</time>
        <extensions>
          <ns3:TrackPointExtension>
            <ns3:hr>158</ns3:hr>
            <ns3:cad>58</ns3:cad>
          </ns3:TrackPointExtension>
        </extensions>
      </trkpt>
      <trkpt lat="42.60967106558382511138916015625" lon="2.7304795570671558380126953125">
        <ele>263.399993896484375</ele>
        <time>2023-08-19T17:37:10.000Z</time>
        <extensions>
          <ns3:TrackPointExtension>
            <ns3:hr>158</ns3:hr>
            <ns3:cad>56</ns3:cad>
          </ns3:TrackPointExtension>
        </extensions>
      </trkpt>
      <trkpt lat="42.6096745021641254425048828125" lon="2.730459272861480712890625">
        <ele>263.600006103515625</ele>
        <time>2023-08-19T17:37:11.000Z</time>
        <extensions>
          <ns3:TrackPointExtension>
            <ns3:hr>158</ns3:hr>
            <ns3:cad>55</ns3:cad>
          </ns3:TrackPointExtension>
        </extensions>
      </trkpt>
      <trkpt lat="42.60967768728733062744140625" lon="2.7304393239319324493408203125">
        <ele>263.79998779296875</ele>
        <time>2023-08-19T17:37:12.000Z</time>
        <extensions>
          <ns3:TrackPointExtension>
            <ns3:hr>158</ns3:hr>
            <ns3:cad>54</ns3:cad>
          </ns3:TrackPointExtension>
        </extensions>
      </trkpt>
      <trkpt lat="42.60968095622956752777099609375" lon="2.7304215542972087860107421875">
        <ele>263.79998779296875</ele>
        <time>2023-08-19T17:37:13.000Z</time>
        <extensions>
          <ns3:TrackPointExtension>
            <ns3:hr>158</ns3:hr>
            <ns3:cad>54</ns3:cad>
          </ns3:TrackPointExtension>
        </extensions>
      </trkpt>
      <trkpt lat="42.60968263261020183563232421875" lon="2.73040621541440486907958984375">
        <ele>264.20001220703125</ele>
        <time>2023-08-19T17:37:14.000Z</time>
        <extensions>
          <ns3:TrackPointExtension>
            <ns3:hr>158</ns3:hr>
            <ns3:cad>55</ns3:cad>
          </ns3:TrackPointExtension>
        </extensions>
      </trkpt>
      <trkpt lat="42.609688080847263336181640625" lon="2.73039213381707668304443359375">
        <ele>264.20001220703125</ele>
        <time>2023-08-19T17:37:15.000Z</time>
        <extensions>
          <ns3:TrackPointExtension>
            <ns3:hr>157</ns3:hr>
            <ns3:cad>55</ns3:cad>
          </ns3:TrackPointExtension>
        </extensions>
      </trkpt>
      <trkpt lat="42.6096917688846588134765625" lon="2.73037302307784557342529296875">
        <ele>264.600006103515625</ele>
        <time>2023-08-19T17:37:16.000Z</time>
        <extensions>
          <ns3:TrackPointExtension>
            <ns3:hr>157</ns3:hr>
            <ns3:cad>55</ns3:cad>
          </ns3:TrackPointExtension>
        </extensions>
      </trkpt>
      <trkpt lat="42.609694115817546844482421875" lon="2.73035391233861446380615234375">
        <ele>264.79998779296875</ele>
        <time>2023-08-19T17:37:17.000Z</time>
        <extensions>
          <ns3:TrackPointExtension>
            <ns3:hr>157</ns3:hr>
            <ns3:cad>57</ns3:cad>
          </ns3:TrackPointExtension>
        </extensions>
      </trkpt>
      <trkpt lat="42.60969336144626140594482421875" lon="2.730340249836444854736328125">
        <ele>264.79998779296875</ele>
        <time>2023-08-19T17:37:18.000Z</time>
        <extensions>
          <ns3:TrackPointExtension>
            <ns3:hr>157</ns3:hr>
            <ns3:cad>58</ns3:cad>
          </ns3:TrackPointExtension>
        </extensions>
      </trkpt>
      <trkpt lat="42.6096939481794834136962890625" lon="2.73032625205814838409423828125">
        <ele>265</ele>
        <time>2023-08-19T17:37:19.000Z</time>
        <extensions>
          <ns3:TrackPointExtension>
            <ns3:hr>157</ns3:hr>
            <ns3:cad>58</ns3:cad>
          </ns3:TrackPointExtension>
        </extensions>
      </trkpt>
      <trkpt lat="42.60969520546495914459228515625" lon="2.73030663840472698211669921875">
        <ele>265</ele>
        <time>2023-08-19T17:37:20.000Z</time>
        <extensions>
          <ns3:TrackPointExtension>
            <ns3:hr>157</ns3:hr>
            <ns3:cad>57</ns3:cad>
          </ns3:TrackPointExtension>
        </extensions>
      </trkpt>
      <trkpt lat="42.60969134978950023651123046875" lon="2.73029222153127193450927734375">
        <ele>265.20001220703125</ele>
        <time>2023-08-19T17:37:21.000Z</time>
        <extensions>
          <ns3:TrackPointExtension>
            <ns3:hr>157</ns3:hr>
            <ns3:cad>57</ns3:cad>
          </ns3:TrackPointExtension>
        </extensions>
      </trkpt>
      <trkpt lat="42.60968573391437530517578125" lon="2.7302743680775165557861328125">
        <ele>265.399993896484375</ele>
        <time>2023-08-19T17:37:22.000Z</time>
        <extensions>
          <ns3:TrackPointExtension>
            <ns3:hr>156</ns3:hr>
            <ns3:cad>58</ns3:cad>
          </ns3:TrackPointExtension>
        </extensions>
      </trkpt>
      <trkpt lat="42.60968397371470928192138671875" lon="2.7302636392414569854736328125">
        <ele>265.399993896484375</ele>
        <time>2023-08-19T17:37:23.000Z</time>
        <extensions>
          <ns3:TrackPointExtension>
            <ns3:hr>156</ns3:hr>
            <ns3:cad>58</ns3:cad>
          </ns3:TrackPointExtension>
        </extensions>
      </trkpt>
      <trkpt lat="42.609684728085994720458984375" lon="2.73024561814963817596435546875">
        <ele>265.600006103515625</ele>
        <time>2023-08-19T17:37:24.000Z</time>
        <extensions>
          <ns3:TrackPointExtension>
            <ns3:hr>156</ns3:hr>
            <ns3:cad>57</ns3:cad>
          </ns3:TrackPointExtension>
        </extensions>
      </trkpt>
      <trkpt lat="42.6096864044666290283203125" lon="2.73022432811558246612548828125">
        <ele>265.79998779296875</ele>
        <time>2023-08-19T17:37:25.000Z</time>
        <extensions>
          <ns3:TrackPointExtension>
            <ns3:hr>156</ns3:hr>
            <ns3:cad>57</ns3:cad>
          </ns3:TrackPointExtension>
        </extensions>
      </trkpt>
      <trkpt lat="42.60968950577080249786376953125" lon="2.73019968532025814056396484375">
        <ele>266</ele>
        <time>2023-08-19T17:37:26.000Z</time>
        <extensions>
          <ns3:TrackPointExtension>
            <ns3:hr>156</ns3:hr>
            <ns3:cad>56</ns3:cad>
          </ns3:TrackPointExtension>
        </extensions>
      </trkpt>
      <trkpt lat="42.60969269089400768280029296875" lon="2.73018241859972476959228515625">
        <ele>266.20001220703125</ele>
        <time>2023-08-19T17:37:27.000Z</time>
        <extensions>
          <ns3:TrackPointExtension>
            <ns3:hr>156</ns3:hr>
            <ns3:cad>56</ns3:cad>
          </ns3:TrackPointExtension>
        </extensions>
      </trkpt>
      <trkpt lat="42.60969386436045169830322265625" lon="2.73016548715531826019287109375">
        <ele>266.20001220703125</ele>
        <time>2023-08-19T17:37:28.000Z</time>
        <extensions>
          <ns3:TrackPointExtension>
            <ns3:hr>156</ns3:hr>
            <ns3:cad>57</ns3:cad>
          </ns3:TrackPointExtension>
        </extensions>
      </trkpt>
      <trkpt lat="42.6096973009407520294189453125" lon="2.730147801339626312255859375">
        <ele>266.600006103515625</ele>
        <time>2023-08-19T17:37:29.000Z</time>
        <extensions>
          <ns3:TrackPointExtension>
            <ns3:hr>156</ns3:hr>
            <ns3:cad>57</ns3:cad>
          </ns3:TrackPointExtension>
        </extensions>
      </trkpt>
      <trkpt lat="42.60969989933073520660400390625" lon="2.7301278524100780487060546875">
        <ele>266.79998779296875</ele>
        <time>2023-08-19T17:37:30.000Z</time>
        <extensions>
          <ns3:TrackPointExtension>
            <ns3:hr>156</ns3:hr>
            <ns3:cad>57</ns3:cad>
          </ns3:TrackPointExtension>
        </extensions>
      </trkpt>
      <trkpt lat="42.60970325209200382232666015625" lon="2.73010966368019580841064453125">
        <ele>267</ele>
        <time>2023-08-19T17:37:31.000Z</time>
        <extensions>
          <ns3:TrackPointExtension>
            <ns3:hr>156</ns3:hr>
            <ns3:cad>57</ns3:cad>
          </ns3:TrackPointExtension>
        </extensions>
      </trkpt>
      <trkpt lat="42.60970559902489185333251953125" lon="2.73008577525615692138671875">
        <ele>267</ele>
        <time>2023-08-19T17:37:32.000Z</time>
        <extensions>
          <ns3:TrackPointExtension>
            <ns3:hr>156</ns3:hr>
            <ns3:cad>57</ns3:cad>
          </ns3:TrackPointExtension>
        </extensions>
      </trkpt>
      <trkpt lat="42.6097056828439235687255859375" lon="2.7300661616027355194091796875">
        <ele>267.20001220703125</ele>
        <time>2023-08-19T17:37:33.000Z</time>
        <extensions>
          <ns3:TrackPointExtension>
            <ns3:hr>156</ns3:hr>
            <ns3:cad>57</ns3:cad>
          </ns3:TrackPointExtension>
        </extensions>
      </trkpt>
      <trkpt lat="42.6097083650529384613037109375" lon="2.7300480566918849945068359375">
        <ele>267.399993896484375</ele>
        <time>2023-08-19T17:37:34.000Z</time>
        <extensions>
          <ns3:TrackPointExtension>
            <ns3:hr>155</ns3:hr>
            <ns3:cad>57</ns3:cad>
          </ns3:TrackPointExtension>
        </extensions>
      </trkpt>
      <trkpt lat="42.60971180163323879241943359375" lon="2.7300289459526538848876953125">
        <ele>267.600006103515625</ele>
        <time>2023-08-19T17:37:35.000Z</time>
        <extensions>
          <ns3:TrackPointExtension>
            <ns3:hr>155</ns3:hr>
            <ns3:cad>57</ns3:cad>
          </ns3:TrackPointExtension>
        </extensions>
      </trkpt>
      <trkpt lat="42.60971515439450740814208984375" lon="2.73000924848020076751708984375">
        <ele>268</ele>
        <time>2023-08-19T17:37:36.000Z</time>
        <extensions>
          <ns3:TrackPointExtension>
            <ns3:hr>155</ns3:hr>
            <ns3:cad>57</ns3:cad>
          </ns3:TrackPointExtension>
        </extensions>
      </trkpt>
      <trkpt lat="42.60971724987030029296875" lon="2.72999231703579425811767578125">
        <ele>268</ele>
        <time>2023-08-19T17:37:37.000Z</time>
        <extensions>
          <ns3:TrackPointExtension>
            <ns3:hr>155</ns3:hr>
            <ns3:cad>57</ns3:cad>
          </ns3:TrackPointExtension>
        </extensions>
      </trkpt>
      <trkpt lat="42.6097147352993488311767578125" lon="2.72997907362878322601318359375">
        <ele>268.20001220703125</ele>
        <time>2023-08-19T17:37:38.000Z</time>
        <extensions>
          <ns3:TrackPointExtension>
            <ns3:hr>155</ns3:hr>
            <ns3:cad>58</ns3:cad>
          </ns3:TrackPointExtension>
        </extensions>
      </trkpt>
      <trkpt lat="42.609716244041919708251953125" lon="2.729960717260837554931640625">
        <ele>268.20001220703125</ele>
        <time>2023-08-19T17:37:39.000Z</time>
        <extensions>
          <ns3:TrackPointExtension>
            <ns3:hr>155</ns3:hr>
            <ns3:cad>58</ns3:cad>
          </ns3:TrackPointExtension>
        </extensions>
      </trkpt>
      <trkpt lat="42.60971666313707828521728515625" lon="2.7299434505403041839599609375">
        <ele>268.20001220703125</ele>
        <time>2023-08-19T17:37:40.000Z</time>
        <extensions>
          <ns3:TrackPointExtension>
            <ns3:hr>155</ns3:hr>
            <ns3:cad>55</ns3:cad>
          </ns3:TrackPointExtension>
        </extensions>
      </trkpt>
      <trkpt lat="42.60971481911838054656982421875" lon="2.72992760874330997467041015625">
        <ele>268.20001220703125</ele>
        <time>2023-08-19T17:37:41.000Z</time>
        <extensions>
          <ns3:TrackPointExtension>
            <ns3:hr>155</ns3:hr>
            <ns3:cad>51</ns3:cad>
          </ns3:TrackPointExtension>
        </extensions>
      </trkpt>
      <trkpt lat="42.609714567661285400390625" lon="2.729909755289554595947265625">
        <ele>268.600006103515625</ele>
        <time>2023-08-19T17:37:42.000Z</time>
        <extensions>
          <ns3:TrackPointExtension>
            <ns3:hr>155</ns3:hr>
            <ns3:cad>54</ns3:cad>
          </ns3:TrackPointExtension>
        </extensions>
      </trkpt>
      <trkpt lat="42.6097137294709682464599609375" lon="2.72988670505583286285400390625">
        <ele>268.79998779296875</ele>
        <time>2023-08-19T17:37:43.000Z</time>
        <extensions>
          <ns3:TrackPointExtension>
            <ns3:hr>155</ns3:hr>
            <ns3:cad>55</ns3:cad>
          </ns3:TrackPointExtension>
        </extensions>
      </trkpt>
      <trkpt lat="42.60971431620419025421142578125" lon="2.72987111471593379974365234375">
        <ele>269</ele>
        <time>2023-08-19T17:37:44.000Z</time>
        <extensions>
          <ns3:TrackPointExtension>
            <ns3:hr>155</ns3:hr>
            <ns3:cad>56</ns3:cad>
          </ns3:TrackPointExtension>
        </extensions>
      </trkpt>
      <trkpt lat="42.60971414856612682342529296875" lon="2.72984932176768779754638671875">
        <ele>269.20001220703125</ele>
        <time>2023-08-19T17:37:45.000Z</time>
        <extensions>
          <ns3:TrackPointExtension>
            <ns3:hr>155</ns3:hr>
            <ns3:cad>56</ns3:cad>
          </ns3:TrackPointExtension>
        </extensions>
      </trkpt>
      <trkpt lat="42.60971683077514171600341796875" lon="2.72981629706919193267822265625">
        <ele>269.20001220703125</ele>
        <time>2023-08-19T17:37:46.000Z</time>
        <extensions>
          <ns3:TrackPointExtension>
            <ns3:hr>155</ns3:hr>
            <ns3:cad>56</ns3:cad>
          </ns3:TrackPointExtension>
        </extensions>
      </trkpt>
      <trkpt lat="42.60971431620419025421142578125" lon="2.72978964261710643768310546875">
        <ele>269.20001220703125</ele>
        <time>2023-08-19T17:37:47.000Z</time>
        <extensions>
          <ns3:TrackPointExtension>
            <ns3:hr>155</ns3:hr>
            <ns3:cad>81</ns3:cad>
          </ns3:TrackPointExtension>
        </extensions>
      </trkpt>
      <trkpt lat="42.60971465148031711578369140625" lon="2.72976164706051349639892578125">
        <ele>269.600006103515625</ele>
        <time>2023-08-19T17:37:48.000Z</time>
        <extensions>
          <ns3:TrackPointExtension>
            <ns3:hr>155</ns3:hr>
            <ns3:cad>82</ns3:cad>
          </ns3:TrackPointExtension>
        </extensions>
      </trkpt>
      <trkpt lat="42.60971616022288799285888671875" lon="2.72972904145717620849609375">
        <ele>269.600006103515625</ele>
        <time>2023-08-19T17:37:49.000Z</time>
        <extensions>
          <ns3:TrackPointExtension>
            <ns3:hr>155</ns3:hr>
            <ns3:cad>81</ns3:cad>
          </ns3:TrackPointExtension>
        </extensions>
      </trkpt>
      <trkpt lat="42.60971867479383945465087890625" lon="2.72970615886151790618896484375">
        <ele>270</ele>
        <time>2023-08-19T17:37:50.000Z</time>
        <extensions>
          <ns3:TrackPointExtension>
            <ns3:hr>155</ns3:hr>
            <ns3:cad>81</ns3:cad>
          </ns3:TrackPointExtension>
        </extensions>
      </trkpt>
      <trkpt lat="42.60972001589834690093994140625" lon="2.7296859584748744964599609375">
        <ele>270.399993896484375</ele>
        <time>2023-08-19T17:37:51.000Z</time>
        <extensions>
          <ns3:TrackPointExtension>
            <ns3:hr>155</ns3:hr>
            <ns3:cad>81</ns3:cad>
          </ns3:TrackPointExtension>
        </extensions>
      </trkpt>
      <trkpt lat="42.6097247935831546783447265625" lon="2.729669027030467987060546875">
        <ele>270.600006103515625</ele>
        <time>2023-08-19T17:37:52.000Z</time>
        <extensions>
          <ns3:TrackPointExtension>
            <ns3:hr>155</ns3:hr>
            <ns3:cad>80</ns3:cad>
          </ns3:TrackPointExtension>
        </extensions>
      </trkpt>
      <trkpt lat="42.60972864925861358642578125" lon="2.72964882664382457733154296875">
        <ele>270.79998779296875</ele>
        <time>2023-08-19T17:37:53.000Z</time>
        <extensions>
          <ns3:TrackPointExtension>
            <ns3:hr>155</ns3:hr>
            <ns3:cad>80</ns3:cad>
          </ns3:TrackPointExtension>
        </extensions>
      </trkpt>
      <trkpt lat="42.6097293198108673095703125" lon="2.72962971590459346771240234375">
        <ele>270.79998779296875</ele>
        <time>2023-08-19T17:37:54.000Z</time>
        <extensions>
          <ns3:TrackPointExtension>
            <ns3:hr>156</ns3:hr>
            <ns3:cad>79</ns3:cad>
          </ns3:TrackPointExtension>
        </extensions>
      </trkpt>
      <trkpt lat="42.6097278110682964324951171875" lon="2.72960389964282512664794921875">
        <ele>271</ele>
        <time>2023-08-19T17:37:55.000Z</time>
        <extensions>
          <ns3:TrackPointExtension>
            <ns3:hr>156</ns3:hr>
            <ns3:cad>62</ns3:cad>
          </ns3:TrackPointExtension>
        </extensions>
      </trkpt>
      <trkpt lat="42.6097244583070278167724609375" lon="2.7295808494091033935546875">
        <ele>271.20001220703125</ele>
        <time>2023-08-19T17:37:56.000Z</time>
        <extensions>
          <ns3:TrackPointExtension>
            <ns3:hr>156</ns3:hr>
            <ns3:cad>66</ns3:cad>
          </ns3:TrackPointExtension>
        </extensions>
      </trkpt>
      <trkpt lat="42.60972286574542522430419921875" lon="2.7295620739459991455078125">
        <ele>271.600006103515625</ele>
        <time>2023-08-19T17:37:57.000Z</time>
        <extensions>
          <ns3:TrackPointExtension>
            <ns3:hr>156</ns3:hr>
            <ns3:cad>70</ns3:cad>
          </ns3:TrackPointExtension>
        </extensions>
      </trkpt>
      <trkpt lat="42.609719596803188323974609375" lon="2.7295474894344806671142578125">
        <ele>271.600006103515625</ele>
        <time>2023-08-19T17:37:58.000Z</time>
        <extensions>
          <ns3:TrackPointExtension>
            <ns3:hr>156</ns3:hr>
            <ns3:cad>70</ns3:cad>
          </ns3:TrackPointExtension>
        </extensions>
      </trkpt>
      <trkpt lat="42.60971683077514171600341796875" lon="2.729525864124298095703125">
        <ele>271.79998779296875</ele>
        <time>2023-08-19T17:37:59.000Z</time>
        <extensions>
          <ns3:TrackPointExtension>
            <ns3:hr>156</ns3:hr>
            <ns3:cad>70</ns3:cad>
          </ns3:TrackPointExtension>
        </extensions>
      </trkpt>
      <trkpt lat="42.6097154058516025543212890625" lon="2.72950616665184497833251953125">
        <ele>272</ele>
        <time>2023-08-19T17:38:00.000Z</time>
        <extensions>
          <ns3:TrackPointExtension>
            <ns3:hr>156</ns3:hr>
            <ns3:cad>70</ns3:cad>
          </ns3:TrackPointExtension>
        </extensions>
      </trkpt>
      <trkpt lat="42.60971565730869770050048828125" lon="2.72948822937905788421630859375">
        <ele>272.20001220703125</ele>
        <time>2023-08-19T17:38:01.000Z</time>
        <extensions>
          <ns3:TrackPointExtension>
            <ns3:hr>156</ns3:hr>
            <ns3:cad>69</ns3:cad>
          </ns3:TrackPointExtension>
        </extensions>
      </trkpt>
      <trkpt lat="42.60971817187964916229248046875" lon="2.72947297431528568267822265625">
        <ele>272.399993896484375</ele>
        <time>2023-08-19T17:38:02.000Z</time>
        <extensions>
          <ns3:TrackPointExtension>
            <ns3:hr>156</ns3:hr>
            <ns3:cad>67</ns3:cad>
          </ns3:TrackPointExtension>
        </extensions>
      </trkpt>
      <trkpt lat="42.6097214408218860626220703125" lon="2.7294576354324817657470703125">
        <ele>272.600006103515625</ele>
        <time>2023-08-19T17:38:03.000Z</time>
        <extensions>
          <ns3:TrackPointExtension>
            <ns3:hr>156</ns3:hr>
            <ns3:cad>57</ns3:cad>
          </ns3:TrackPointExtension>
        </extensions>
      </trkpt>
      <trkpt lat="42.60972672142088413238525390625" lon="2.7294365130364894866943359375">
        <ele>272.79998779296875</ele>
        <time>2023-08-19T17:38:04.000Z</time>
        <extensions>
          <ns3:TrackPointExtension>
            <ns3:hr>155</ns3:hr>
            <ns3:cad>57</ns3:cad>
          </ns3:TrackPointExtension>
        </extensions>
      </trkpt>
      <trkpt lat="42.609730325639247894287109375" lon="2.72941899485886096954345703125">
        <ele>273</ele>
        <time>2023-08-19T17:38:05.000Z</time>
        <extensions>
          <ns3:TrackPointExtension>
            <ns3:hr>155</ns3:hr>
            <ns3:cad>57</ns3:cad>
          </ns3:TrackPointExtension>
        </extensions>
      </trkpt>
      <trkpt lat="42.60973325930535793304443359375" lon="2.72939519025385379791259765625">
        <ele>273</ele>
        <time>2023-08-19T17:38:06.000Z</time>
        <extensions>
          <ns3:TrackPointExtension>
            <ns3:hr>155</ns3:hr>
            <ns3:cad>57</ns3:cad>
          </ns3:TrackPointExtension>
        </extensions>
      </trkpt>
      <trkpt lat="42.60973275639116764068603515625" lon="2.729380019009113311767578125">
        <ele>273</ele>
        <time>2023-08-19T17:38:07.000Z</time>
        <extensions>
          <ns3:TrackPointExtension>
            <ns3:hr>155</ns3:hr>
            <ns3:cad>57</ns3:cad>
          </ns3:TrackPointExtension>
        </extensions>
      </trkpt>
      <trkpt lat="42.60972923599183559417724609375" lon="2.72935663349926471710205078125">
        <ele>273.20001220703125</ele>
        <time>2023-08-19T17:38:08.000Z</time>
        <extensions>
          <ns3:TrackPointExtension>
            <ns3:hr>155</ns3:hr>
            <ns3:cad>58</ns3:cad>
          </ns3:TrackPointExtension>
        </extensions>
      </trkpt>
      <trkpt lat="42.60972328484058380126953125" lon="2.729339785873889923095703125">
        <ele>273.20001220703125</ele>
        <time>2023-08-19T17:38:09.000Z</time>
        <extensions>
          <ns3:TrackPointExtension>
            <ns3:hr>155</ns3:hr>
            <ns3:cad>58</ns3:cad>
          </ns3:TrackPointExtension>
        </extensions>
      </trkpt>
      <trkpt lat="42.60971431620419025421142578125" lon="2.7293258719146251678466796875">
        <ele>273.399993896484375</ele>
        <time>2023-08-19T17:38:10.000Z</time>
        <extensions>
          <ns3:TrackPointExtension>
            <ns3:hr>155</ns3:hr>
            <ns3:cad>58</ns3:cad>
          </ns3:TrackPointExtension>
        </extensions>
      </trkpt>
      <trkpt lat="42.60970559902489185333251953125" lon="2.7293124608695507049560546875">
        <ele>273.600006103515625</ele>
        <time>2023-08-19T17:38:11.000Z</time>
        <extensions>
          <ns3:TrackPointExtension>
            <ns3:hr>155</ns3:hr>
            <ns3:cad>58</ns3:cad>
          </ns3:TrackPointExtension>
        </extensions>
      </trkpt>
      <trkpt lat="42.6097078621387481689453125" lon="2.72929611615836620330810546875">
        <ele>273.79998779296875</ele>
        <time>2023-08-19T17:38:12.000Z</time>
        <extensions>
          <ns3:TrackPointExtension>
            <ns3:hr>155</ns3:hr>
            <ns3:cad>58</ns3:cad>
          </ns3:TrackPointExtension>
        </extensions>
      </trkpt>
      <trkpt lat="42.60970978997647762298583984375" lon="2.72928656078875064849853515625">
        <ele>273.79998779296875</ele>
        <time>2023-08-19T17:38:13.000Z</time>
        <extensions>
          <ns3:TrackPointExtension>
            <ns3:hr>155</ns3:hr>
            <ns3:cad>58</ns3:cad>
          </ns3:TrackPointExtension>
        </extensions>
      </trkpt>
      <trkpt lat="42.60971498675644397735595703125" lon="2.7292697131633758544921875">
        <ele>274</ele>
        <time>2023-08-19T17:38:14.000Z</time>
        <extensions>
          <ns3:TrackPointExtension>
            <ns3:hr>155</ns3:hr>
            <ns3:cad>56</ns3:cad>
          </ns3:TrackPointExtension>
        </extensions>
      </trkpt>
      <trkpt lat="42.6097187586128711700439453125" lon="2.72924934513866901397705078125">
        <ele>274.20001220703125</ele>
        <time>2023-08-19T17:38:15.000Z</time>
        <extensions>
          <ns3:TrackPointExtension>
            <ns3:hr>155</ns3:hr>
            <ns3:cad>56</ns3:cad>
          </ns3:TrackPointExtension>
        </extensions>
      </trkpt>
      <trkpt lat="42.6097251288592815399169921875" lon="2.7292155660688877105712890625">
        <ele>274.399993896484375</ele>
        <time>2023-08-19T17:38:16.000Z</time>
        <extensions>
          <ns3:TrackPointExtension>
            <ns3:hr>155</ns3:hr>
            <ns3:cad>47</ns3:cad>
          </ns3:TrackPointExtension>
        </extensions>
      </trkpt>
      <trkpt lat="42.60972940362989902496337890625" lon="2.7291812002658843994140625">
        <ele>274.600006103515625</ele>
        <time>2023-08-19T17:38:17.000Z</time>
        <extensions>
          <ns3:TrackPointExtension>
            <ns3:hr>155</ns3:hr>
            <ns3:cad>52</ns3:cad>
          </ns3:TrackPointExtension>
        </extensions>
      </trkpt>
      <trkpt lat="42.6097341813147068023681640625" lon="2.72914574481546878814697265625">
        <ele>274.79998779296875</ele>
        <time>2023-08-19T17:38:18.000Z</time>
        <extensions>
          <ns3:TrackPointExtension>
            <ns3:hr>155</ns3:hr>
            <ns3:cad>83</ns3:cad>
          </ns3:TrackPointExtension>
        </extensions>
      </trkpt>
      <trkpt lat="42.6097408868372440338134765625" lon="2.72911204956471920013427734375">
        <ele>275</ele>
        <time>2023-08-19T17:38:19.000Z</time>
        <extensions>
          <ns3:TrackPointExtension>
            <ns3:hr>155</ns3:hr>
            <ns3:cad>81</ns3:cad>
          </ns3:TrackPointExtension>
        </extensions>
      </trkpt>
      <trkpt lat="42.60974382050335407257080078125" lon="2.72908824495971202850341796875">
        <ele>275.20001220703125</ele>
        <time>2023-08-19T17:38:20.000Z</time>
        <extensions>
          <ns3:TrackPointExtension>
            <ns3:hr>155</ns3:hr>
            <ns3:cad>82</ns3:cad>
          </ns3:TrackPointExtension>
        </extensions>
      </trkpt>
      <trkpt lat="42.60974667035043239593505859375" lon="2.72905957885086536407470703125">
        <ele>275.399993896484375</ele>
        <time>2023-08-19T17:38:21.000Z</time>
        <extensions>
          <ns3:TrackPointExtension>
            <ns3:hr>155</ns3:hr>
            <ns3:cad>83</ns3:cad>
          </ns3:TrackPointExtension>
        </extensions>
      </trkpt>
      <trkpt lat="42.6097549684345722198486328125" lon="2.72903527133166790008544921875">
        <ele>275.600006103515625</ele>
        <time>2023-08-19T17:38:22.000Z</time>
        <extensions>
          <ns3:TrackPointExtension>
            <ns3:hr>156</ns3:hr>
            <ns3:cad>83</ns3:cad>
          </ns3:TrackPointExtension>
        </extensions>
      </trkpt>
      <trkpt lat="42.60975538752973079681396484375" lon="2.72901163436472415924072265625">
        <ele>275.79998779296875</ele>
        <time>2023-08-19T17:38:23.000Z</time>
        <extensions>
          <ns3:TrackPointExtension>
            <ns3:hr>156</ns3:hr>
            <ns3:cad>83</ns3:cad>
          </ns3:TrackPointExtension>
        </extensions>
      </trkpt>
      <trkpt lat="42.60975555516779422760009765625" lon="2.72898472845554351806640625">
        <ele>276</ele>
        <time>2023-08-19T17:38:24.000Z</time>
        <extensions>
          <ns3:TrackPointExtension>
            <ns3:hr>156</ns3:hr>
            <ns3:cad>82</ns3:cad>
          </ns3:TrackPointExtension>
        </extensions>
      </trkpt>
      <trkpt lat="42.60975605808198451995849609375" lon="2.72895597852766513824462890625">
        <ele>276.20001220703125</ele>
        <time>2023-08-19T17:38:25.000Z</time>
        <extensions>
          <ns3:TrackPointExtension>
            <ns3:hr>156</ns3:hr>
            <ns3:cad>81</ns3:cad>
          </ns3:TrackPointExtension>
        </extensions>
      </trkpt>
      <trkpt lat="42.60975547134876251220703125" lon="2.72893510758876800537109375">
        <ele>276.399993896484375</ele>
        <time>2023-08-19T17:38:26.000Z</time>
        <extensions>
          <ns3:TrackPointExtension>
            <ns3:hr>156</ns3:hr>
            <ns3:cad>81</ns3:cad>
          </ns3:TrackPointExtension>
        </extensions>
      </trkpt>
      <trkpt lat="42.60975010693073272705078125" lon="2.7289148233830928802490234375">
        <ele>276.600006103515625</ele>
        <time>2023-08-19T17:38:27.000Z</time>
        <extensions>
          <ns3:TrackPointExtension>
            <ns3:hr>156</ns3:hr>
            <ns3:cad>80</ns3:cad>
          </ns3:TrackPointExtension>
        </extensions>
      </trkpt>
      <trkpt lat="42.60974616743624210357666015625" lon="2.72889646701514720916748046875">
        <ele>276.79998779296875</ele>
        <time>2023-08-19T17:38:28.000Z</time>
        <extensions>
          <ns3:TrackPointExtension>
            <ns3:hr>157</ns3:hr>
            <ns3:cad>79</ns3:cad>
          </ns3:TrackPointExtension>
        </extensions>
      </trkpt>
      <trkpt lat="42.6097442395985126495361328125" lon="2.7288759313523769378662109375">
        <ele>277</ele>
        <time>2023-08-19T17:38:29.000Z</time>
        <extensions>
          <ns3:TrackPointExtension>
            <ns3:hr>157</ns3:hr>
            <ns3:cad>76</ns3:cad>
          </ns3:TrackPointExtension>
        </extensions>
      </trkpt>
      <trkpt lat="42.609743736684322357177734375" lon="2.72885841317474842071533203125">
        <ele>277.20001220703125</ele>
        <time>2023-08-19T17:38:30.000Z</time>
        <extensions>
          <ns3:TrackPointExtension>
            <ns3:hr>157</ns3:hr>
            <ns3:cad>76</ns3:cad>
          </ns3:TrackPointExtension>
        </extensions>
      </trkpt>
      <trkpt lat="42.60974365286529064178466796875" lon="2.728838883340358734130859375">
        <ele>277.399993896484375</ele>
        <time>2023-08-19T17:38:31.000Z</time>
        <extensions>
          <ns3:TrackPointExtension>
            <ns3:hr>157</ns3:hr>
            <ns3:cad>75</ns3:cad>
          </ns3:TrackPointExtension>
        </extensions>
      </trkpt>
      <trkpt lat="42.6097445748746395111083984375" lon="2.728823460638523101806640625">
        <ele>277.600006103515625</ele>
        <time>2023-08-19T17:38:32.000Z</time>
        <extensions>
          <ns3:TrackPointExtension>
            <ns3:hr>157</ns3:hr>
            <ns3:cad>72</ns3:cad>
          </ns3:TrackPointExtension>
        </extensions>
      </trkpt>
      <trkpt lat="42.60974474251270294189453125" lon="2.72880979813635349273681640625">
        <ele>277.79998779296875</ele>
        <time>2023-08-19T17:38:33.000Z</time>
        <extensions>
          <ns3:TrackPointExtension>
            <ns3:hr>157</ns3:hr>
            <ns3:cad>68</ns3:cad>
          </ns3:TrackPointExtension>
        </extensions>
      </trkpt>
      <trkpt lat="42.6097432337701320648193359375" lon="2.7287964709103107452392578125">
        <ele>278</ele>
        <time>2023-08-19T17:38:34.000Z</time>
        <extensions>
          <ns3:TrackPointExtension>
            <ns3:hr>157</ns3:hr>
            <ns3:cad>66</ns3:cad>
          </ns3:TrackPointExtension>
        </extensions>
      </trkpt>
      <trkpt lat="42.6097472570836544036865234375" lon="2.72877258248627185821533203125">
        <ele>278.20001220703125</ele>
        <time>2023-08-19T17:38:35.000Z</time>
        <extensions>
          <ns3:TrackPointExtension>
            <ns3:hr>157</ns3:hr>
            <ns3:cad>58</ns3:cad>
          </ns3:TrackPointExtension>
        </extensions>
      </trkpt>
      <trkpt lat="42.6097519509494304656982421875" lon="2.7287502028048038482666015625">
        <ele>278.399993896484375</ele>
        <time>2023-08-19T17:38:36.000Z</time>
        <extensions>
          <ns3:TrackPointExtension>
            <ns3:hr>157</ns3:hr>
            <ns3:cad>56</ns3:cad>
          </ns3:TrackPointExtension>
        </extensions>
      </trkpt>
      <trkpt lat="42.60975815355777740478515625" lon="2.72872748784720897674560546875">
        <ele>278.600006103515625</ele>
        <time>2023-08-19T17:38:37.000Z</time>
        <extensions>
          <ns3:TrackPointExtension>
            <ns3:hr>157</ns3:hr>
            <ns3:cad>58</ns3:cad>
          </ns3:TrackPointExtension>
        </extensions>
      </trkpt>
      <trkpt lat="42.6097603328526020050048828125" lon="2.72871055640280246734619140625">
        <ele>278.79998779296875</ele>
        <time>2023-08-19T17:38:38.000Z</time>
        <extensions>
          <ns3:TrackPointExtension>
            <ns3:hr>157</ns3:hr>
            <ns3:cad>59</ns3:cad>
          </ns3:TrackPointExtension>
        </extensions>
      </trkpt>
      <trkpt lat="42.60976075194776058197021484375" lon="2.7286930382251739501953125">
        <ele>279</ele>
        <time>2023-08-19T17:38:39.000Z</time>
        <extensions>
          <ns3:TrackPointExtension>
            <ns3:hr>157</ns3:hr>
            <ns3:cad>59</ns3:cad>
          </ns3:TrackPointExtension>
        </extensions>
      </trkpt>
      <trkpt lat="42.6097606681287288665771484375" lon="2.72867384366691112518310546875">
        <ele>279</ele>
        <time>2023-08-19T17:38:40.000Z</time>
        <extensions>
          <ns3:TrackPointExtension>
            <ns3:hr>157</ns3:hr>
            <ns3:cad>59</ns3:cad>
          </ns3:TrackPointExtension>
        </extensions>
      </trkpt>
      <trkpt lat="42.609761171042919158935546875" lon="2.72865540347993373870849609375">
        <ele>279</ele>
        <time>2023-08-19T17:38:41.000Z</time>
        <extensions>
          <ns3:TrackPointExtension>
            <ns3:hr>157</ns3:hr>
            <ns3:cad>59</ns3:cad>
          </ns3:TrackPointExtension>
        </extensions>
      </trkpt>
      <trkpt lat="42.60976242832839488983154296875" lon="2.72863780148327350616455078125">
        <ele>279</ele>
        <time>2023-08-19T17:38:42.000Z</time>
        <extensions>
          <ns3:TrackPointExtension>
            <ns3:hr>157</ns3:hr>
            <ns3:cad>58</ns3:cad>
          </ns3:TrackPointExtension>
        </extensions>
      </trkpt>
      <trkpt lat="42.6097636856138706207275390625" lon="2.72862103767693042755126953125">
        <ele>279.20001220703125</ele>
        <time>2023-08-19T17:38:43.000Z</time>
        <extensions>
          <ns3:TrackPointExtension>
            <ns3:hr>157</ns3:hr>
            <ns3:cad>57</ns3:cad>
          </ns3:TrackPointExtension>
        </extensions>
      </trkpt>
      <trkpt lat="42.6097636856138706207275390625" lon="2.728605531156063079833984375">
        <ele>279.399993896484375</ele>
        <time>2023-08-19T17:38:44.000Z</time>
        <extensions>
          <ns3:TrackPointExtension>
            <ns3:hr>157</ns3:hr>
            <ns3:cad>56</ns3:cad>
          </ns3:TrackPointExtension>
        </extensions>
      </trkpt>
      <trkpt lat="42.6097650267183780670166015625" lon="2.7285842411220073699951171875">
        <ele>279.600006103515625</ele>
        <time>2023-08-19T17:38:45.000Z</time>
        <extensions>
          <ns3:TrackPointExtension>
            <ns3:hr>157</ns3:hr>
            <ns3:cad>56</ns3:cad>
          </ns3:TrackPointExtension>
        </extensions>
      </trkpt>
      <trkpt lat="42.609765529632568359375" lon="2.72856756113469600677490234375">
        <ele>279.79998779296875</ele>
        <time>2023-08-19T17:38:46.000Z</time>
        <extensions>
          <ns3:TrackPointExtension>
            <ns3:hr>157</ns3:hr>
            <ns3:cad>56</ns3:cad>
          </ns3:TrackPointExtension>
        </extensions>
      </trkpt>
      <trkpt lat="42.6097660325467586517333984375" lon="2.7285510487854480743408203125">
        <ele>280</ele>
        <time>2023-08-19T17:38:47.000Z</time>
        <extensions>
          <ns3:TrackPointExtension>
            <ns3:hr>157</ns3:hr>
            <ns3:cad>56</ns3:cad>
          </ns3:TrackPointExtension>
        </extensions>
      </trkpt>
      <trkpt lat="42.60976661927998065948486328125" lon="2.72853185422718524932861328125">
        <ele>280.20001220703125</ele>
        <time>2023-08-19T17:38:48.000Z</time>
        <extensions>
          <ns3:TrackPointExtension>
            <ns3:hr>156</ns3:hr>
            <ns3:cad>58</ns3:cad>
          </ns3:TrackPointExtension>
        </extensions>
      </trkpt>
      <trkpt lat="42.60976896621286869049072265625" lon="2.72851458750665187835693359375">
        <ele>280.399993896484375</ele>
        <time>2023-08-19T17:38:49.000Z</time>
        <extensions>
          <ns3:TrackPointExtension>
            <ns3:hr>156</ns3:hr>
            <ns3:cad>59</ns3:cad>
          </ns3:TrackPointExtension>
        </extensions>
      </trkpt>
      <trkpt lat="42.6097687147557735443115234375" lon="2.72850084118545055389404296875">
        <ele>280.399993896484375</ele>
        <time>2023-08-19T17:38:50.000Z</time>
        <extensions>
          <ns3:TrackPointExtension>
            <ns3:hr>156</ns3:hr>
            <ns3:cad>57</ns3:cad>
          </ns3:TrackPointExtension>
        </extensions>
      </trkpt>
      <trkpt lat="42.6097710616886615753173828125" lon="2.72848675958812236785888671875">
        <ele>280.600006103515625</ele>
        <time>2023-08-19T17:38:51.000Z</time>
        <extensions>
          <ns3:TrackPointExtension>
            <ns3:hr>156</ns3:hr>
            <ns3:cad>57</ns3:cad>
          </ns3:TrackPointExtension>
        </extensions>
      </trkpt>
      <trkpt lat="42.609771899878978729248046875" lon="2.72846898995339870452880859375">
        <ele>280.79998779296875</ele>
        <time>2023-08-19T17:38:52.000Z</time>
        <extensions>
          <ns3:TrackPointExtension>
            <ns3:hr>156</ns3:hr>
            <ns3:cad>57</ns3:cad>
          </ns3:TrackPointExtension>
        </extensions>
      </trkpt>
      <trkpt lat="42.609771899878978729248046875" lon="2.72845574654638767242431640625">
        <ele>281</ele>
        <time>2023-08-19T17:38:53.000Z</time>
        <extensions>
          <ns3:TrackPointExtension>
            <ns3:hr>156</ns3:hr>
            <ns3:cad>57</ns3:cad>
          </ns3:TrackPointExtension>
        </extensions>
      </trkpt>
      <trkpt lat="42.609771899878978729248046875" lon="2.72844317369163036346435546875">
        <ele>281.20001220703125</ele>
        <time>2023-08-19T17:38:54.000Z</time>
        <extensions>
          <ns3:TrackPointExtension>
            <ns3:hr>156</ns3:hr>
            <ns3:cad>58</ns3:cad>
          </ns3:TrackPointExtension>
        </extensions>
      </trkpt>
      <trkpt lat="42.60977282188832759857177734375" lon="2.72842817008495330810546875">
        <ele>281.20001220703125</ele>
        <time>2023-08-19T17:38:55.000Z</time>
        <extensions>
          <ns3:TrackPointExtension>
            <ns3:hr>156</ns3:hr>
            <ns3:cad>59</ns3:cad>
          </ns3:TrackPointExtension>
        </extensions>
      </trkpt>
      <trkpt lat="42.6097770966589450836181640625" lon="2.72841031663119792938232421875">
        <ele>281.399993896484375</ele>
        <time>2023-08-19T17:38:56.000Z</time>
        <extensions>
          <ns3:TrackPointExtension>
            <ns3:hr>156</ns3:hr>
            <ns3:cad>58</ns3:cad>
          </ns3:TrackPointExtension>
        </extensions>
      </trkpt>
      <trkpt lat="42.60977751575410366058349609375" lon="2.72838885895907878875732421875">
        <ele>281.79998779296875</ele>
        <time>2023-08-19T17:38:57.000Z</time>
        <extensions>
          <ns3:TrackPointExtension>
            <ns3:hr>156</ns3:hr>
            <ns3:cad>57</ns3:cad>
          </ns3:TrackPointExtension>
        </extensions>
      </trkpt>
      <trkpt lat="42.6097750850021839141845703125" lon="2.7283582650125026702880859375">
        <ele>282</ele>
        <time>2023-08-19T17:38:58.000Z</time>
        <extensions>
          <ns3:TrackPointExtension>
            <ns3:hr>156</ns3:hr>
            <ns3:cad>57</ns3:cad>
          </ns3:TrackPointExtension>
        </extensions>
      </trkpt>
      <trkpt lat="42.6097750850021839141845703125" lon="2.72833404131233692169189453125">
        <ele>282</ele>
        <time>2023-08-19T17:38:59.000Z</time>
        <extensions>
          <ns3:TrackPointExtension>
            <ns3:hr>156</ns3:hr>
            <ns3:cad>57</ns3:cad>
          </ns3:TrackPointExtension>
        </extensions>
      </trkpt>
      <trkpt lat="42.6097757555544376373291015625" lon="2.72830889560282230377197265625">
        <ele>282.20001220703125</ele>
        <time>2023-08-19T17:39:00.000Z</time>
        <extensions>
          <ns3:TrackPointExtension>
            <ns3:hr>156</ns3:hr>
            <ns3:cad>57</ns3:cad>
          </ns3:TrackPointExtension>
        </extensions>
      </trkpt>
      <trkpt lat="42.60978162288665771484375" lon="2.72828961722552776336669921875">
        <ele>282.399993896484375</ele>
        <time>2023-08-19T17:39:01.000Z</time>
        <extensions>
          <ns3:TrackPointExtension>
            <ns3:hr>156</ns3:hr>
            <ns3:cad>56</ns3:cad>
          </ns3:TrackPointExtension>
        </extensions>
      </trkpt>
      <trkpt lat="42.60978790931403636932373046875" lon="2.72827737964689731597900390625">
        <ele>282.600006103515625</ele>
        <time>2023-08-19T17:39:02.000Z</time>
        <extensions>
          <ns3:TrackPointExtension>
            <ns3:hr>156</ns3:hr>
            <ns3:cad>57</ns3:cad>
          </ns3:TrackPointExtension>
        </extensions>
      </trkpt>
      <trkpt lat="42.60979478247463703155517578125" lon="2.72825558669865131378173828125">
        <ele>282.79998779296875</ele>
        <time>2023-08-19T17:39:03.000Z</time>
        <extensions>
          <ns3:TrackPointExtension>
            <ns3:hr>156</ns3:hr>
            <ns3:cad>58</ns3:cad>
          </ns3:TrackPointExtension>
        </extensions>
      </trkpt>
      <trkpt lat="42.60979863815009593963623046875" lon="2.72823647595942020416259765625">
        <ele>283.20001220703125</ele>
        <time>2023-08-19T17:39:04.000Z</time>
        <extensions>
          <ns3:TrackPointExtension>
            <ns3:hr>155</ns3:hr>
            <ns3:cad>58</ns3:cad>
          </ns3:TrackPointExtension>
        </extensions>
      </trkpt>
      <trkpt lat="42.6098045893013477325439453125" lon="2.72822105325758457183837890625">
        <ele>283.20001220703125</ele>
        <time>2023-08-19T17:39:05.000Z</time>
        <extensions>
          <ns3:TrackPointExtension>
            <ns3:hr>155</ns3:hr>
            <ns3:cad>57</ns3:cad>
          </ns3:TrackPointExtension>
        </extensions>
      </trkpt>
      <trkpt lat="42.60981238447129726409912109375" lon="2.728201188147068023681640625">
        <ele>283.399993896484375</ele>
        <time>2023-08-19T17:39:06.000Z</time>
        <extensions>
          <ns3:TrackPointExtension>
            <ns3:hr>155</ns3:hr>
            <ns3:cad>57</ns3:cad>
          </ns3:TrackPointExtension>
        </extensions>
      </trkpt>
      <trkpt lat="42.6098143123090267181396484375" lon="2.72818534635007381439208984375">
        <ele>283.600006103515625</ele>
        <time>2023-08-19T17:39:07.000Z</time>
        <extensions>
          <ns3:TrackPointExtension>
            <ns3:hr>155</ns3:hr>
            <ns3:cad>56</ns3:cad>
          </ns3:TrackPointExtension>
        </extensions>
      </trkpt>
      <trkpt lat="42.60982043109834194183349609375" lon="2.728169001638889312744140625">
        <ele>283.79998779296875</ele>
        <time>2023-08-19T17:39:08.000Z</time>
        <extensions>
          <ns3:TrackPointExtension>
            <ns3:hr>155</ns3:hr>
            <ns3:cad>56</ns3:cad>
          </ns3:TrackPointExtension>
        </extensions>
      </trkpt>
      <trkpt lat="42.609826214611530303955078125" lon="2.72815383039414882659912109375">
        <ele>283.79998779296875</ele>
        <time>2023-08-19T17:39:09.000Z</time>
        <extensions>
          <ns3:TrackPointExtension>
            <ns3:hr>155</ns3:hr>
            <ns3:cad>54</ns3:cad>
          </ns3:TrackPointExtension>
        </extensions>
      </trkpt>
      <trkpt lat="42.60983115993440151214599609375" lon="2.7281363122165203094482421875">
        <ele>284</ele>
        <time>2023-08-19T17:39:10.000Z</time>
        <extensions>
          <ns3:TrackPointExtension>
            <ns3:hr>155</ns3:hr>
            <ns3:cad>54</ns3:cad>
          </ns3:TrackPointExtension>
        </extensions>
      </trkpt>
      <trkpt lat="42.6098350994288921356201171875" lon="2.72812130860984325408935546875">
        <ele>284</ele>
        <time>2023-08-19T17:39:11.000Z</time>
        <extensions>
          <ns3:TrackPointExtension>
            <ns3:hr>155</ns3:hr>
            <ns3:cad>55</ns3:cad>
          </ns3:TrackPointExtension>
        </extensions>
      </trkpt>
      <trkpt lat="42.6098421402275562286376953125" lon="2.72810152731835842132568359375">
        <ele>284.20001220703125</ele>
        <time>2023-08-19T17:39:12.000Z</time>
        <extensions>
          <ns3:TrackPointExtension>
            <ns3:hr>155</ns3:hr>
            <ns3:cad>56</ns3:cad>
          </ns3:TrackPointExtension>
        </extensions>
      </trkpt>
      <trkpt lat="42.609847001731395721435546875" lon="2.72808459587395191192626953125">
        <ele>284.600006103515625</ele>
        <time>2023-08-19T17:39:13.000Z</time>
        <extensions>
          <ns3:TrackPointExtension>
            <ns3:hr>154</ns3:hr>
            <ns3:cad>55</ns3:cad>
          </ns3:TrackPointExtension>
        </extensions>
      </trkpt>
      <trkpt lat="42.6098501868546009063720703125" lon="2.728070430457592010498046875">
        <ele>284.600006103515625</ele>
        <time>2023-08-19T17:39:14.000Z</time>
        <extensions>
          <ns3:TrackPointExtension>
            <ns3:hr>154</ns3:hr>
            <ns3:cad>55</ns3:cad>
          </ns3:TrackPointExtension>
        </extensions>
      </trkpt>
      <trkpt lat="42.60985462926328182220458984375" lon="2.72805408574640750885009765625">
        <ele>284.600006103515625</ele>
        <time>2023-08-19T17:39:15.000Z</time>
        <extensions>
          <ns3:TrackPointExtension>
            <ns3:hr>154</ns3:hr>
            <ns3:cad>54</ns3:cad>
          </ns3:TrackPointExtension>
        </extensions>
      </trkpt>
      <trkpt lat="42.60985613800585269927978515625" lon="2.7280384115874767303466796875">
        <ele>284.79998779296875</ele>
        <time>2023-08-19T17:39:16.000Z</time>
        <extensions>
          <ns3:TrackPointExtension>
            <ns3:hr>154</ns3:hr>
            <ns3:cad>54</ns3:cad>
          </ns3:TrackPointExtension>
        </extensions>
      </trkpt>
      <trkpt lat="42.6098585687577724456787109375" lon="2.72801854647696018218994140625">
        <ele>285</ele>
        <time>2023-08-19T17:39:17.000Z</time>
        <extensions>
          <ns3:TrackPointExtension>
            <ns3:hr>155</ns3:hr>
            <ns3:cad>54</ns3:cad>
          </ns3:TrackPointExtension>
        </extensions>
      </trkpt>
      <trkpt lat="42.60986141860485076904296875" lon="2.727998010814189910888671875">
        <ele>285</ele>
        <time>2023-08-19T17:39:18.000Z</time>
        <extensions>
          <ns3:TrackPointExtension>
            <ns3:hr>155</ns3:hr>
            <ns3:cad>54</ns3:cad>
          </ns3:TrackPointExtension>
        </extensions>
      </trkpt>
      <trkpt lat="42.6098646037280559539794921875" lon="2.727983258664608001708984375">
        <ele>285.20001220703125</ele>
        <time>2023-08-19T17:39:19.000Z</time>
        <extensions>
          <ns3:TrackPointExtension>
            <ns3:hr>155</ns3:hr>
            <ns3:cad>55</ns3:cad>
          </ns3:TrackPointExtension>
        </extensions>
      </trkpt>
      <trkpt lat="42.6098679564893245697021484375" lon="2.72796356119215488433837890625">
        <ele>285.20001220703125</ele>
        <time>2023-08-19T17:39:20.000Z</time>
        <extensions>
          <ns3:TrackPointExtension>
            <ns3:hr>155</ns3:hr>
            <ns3:cad>55</ns3:cad>
          </ns3:TrackPointExtension>
        </extensions>
      </trkpt>
      <trkpt lat="42.60987256653606891632080078125" lon="2.7279468812048435211181640625">
        <ele>285.600006103515625</ele>
        <time>2023-08-19T17:39:21.000Z</time>
        <extensions>
          <ns3:TrackPointExtension>
            <ns3:hr>155</ns3:hr>
            <ns3:cad>56</ns3:cad>
          </ns3:TrackPointExtension>
        </extensions>
      </trkpt>
      <trkpt lat="42.60987793095409870147705078125" lon="2.727929614484310150146484375">
        <ele>285.79998779296875</ele>
        <time>2023-08-19T17:39:22.000Z</time>
        <extensions>
          <ns3:TrackPointExtension>
            <ns3:hr>155</ns3:hr>
            <ns3:cad>56</ns3:cad>
          </ns3:TrackPointExtension>
        </extensions>
      </trkpt>
      <trkpt lat="42.6098823733627796173095703125" lon="2.7279125154018402099609375">
        <ele>285.79998779296875</ele>
        <time>2023-08-19T17:39:23.000Z</time>
        <extensions>
          <ns3:TrackPointExtension>
            <ns3:hr>155</ns3:hr>
            <ns3:cad>56</ns3:cad>
          </ns3:TrackPointExtension>
        </extensions>
      </trkpt>
      <trkpt lat="42.60988832451403141021728515625" lon="2.7278972603380680084228515625">
        <ele>286</ele>
        <time>2023-08-19T17:39:24.000Z</time>
        <extensions>
          <ns3:TrackPointExtension>
            <ns3:hr>155</ns3:hr>
            <ns3:cad>56</ns3:cad>
          </ns3:TrackPointExtension>
        </extensions>
      </trkpt>
      <trkpt lat="42.60989586822688579559326171875" lon="2.727879993617534637451171875">
        <ele>286</ele>
        <time>2023-08-19T17:39:25.000Z</time>
        <extensions>
          <ns3:TrackPointExtension>
            <ns3:hr>155</ns3:hr>
            <ns3:cad>56</ns3:cad>
          </ns3:TrackPointExtension>
        </extensions>
      </trkpt>
      <trkpt lat="42.60990341193974018096923828125" lon="2.7278566919267177581787109375">
        <ele>286.20001220703125</ele>
        <time>2023-08-19T17:39:26.000Z</time>
        <extensions>
          <ns3:TrackPointExtension>
            <ns3:hr>155</ns3:hr>
            <ns3:cad>57</ns3:cad>
          </ns3:TrackPointExtension>
        </extensions>
      </trkpt>
      <trkpt lat="42.609907351434230804443359375" lon="2.727835066616535186767578125">
        <ele>286.399993896484375</ele>
        <time>2023-08-19T17:39:27.000Z</time>
        <extensions>
          <ns3:TrackPointExtension>
            <ns3:hr>156</ns3:hr>
            <ns3:cad>56</ns3:cad>
          </ns3:TrackPointExtension>
        </extensions>
      </trkpt>
      <trkpt lat="42.609913051128387451171875" lon="2.72781386040151119232177734375">
        <ele>286.600006103515625</ele>
        <time>2023-08-19T17:39:28.000Z</time>
        <extensions>
          <ns3:TrackPointExtension>
            <ns3:hr>155</ns3:hr>
            <ns3:cad>58</ns3:cad>
          </ns3:TrackPointExtension>
        </extensions>
      </trkpt>
      <trkpt lat="42.609923779964447021484375" lon="2.72779357619583606719970703125">
        <ele>286.600006103515625</ele>
        <time>2023-08-19T17:39:29.000Z</time>
        <extensions>
          <ns3:TrackPointExtension>
            <ns3:hr>156</ns3:hr>
            <ns3:cad>59</ns3:cad>
          </ns3:TrackPointExtension>
        </extensions>
      </trkpt>
      <trkpt lat="42.6099326647818088531494140625" lon="2.7277784049510955810546875">
        <ele>286.79998779296875</ele>
        <time>2023-08-19T17:39:30.000Z</time>
        <extensions>
          <ns3:TrackPointExtension>
            <ns3:hr>156</ns3:hr>
            <ns3:cad>59</ns3:cad>
          </ns3:TrackPointExtension>
        </extensions>
      </trkpt>
      <trkpt lat="42.60993811301887035369873046875" lon="2.727763317525386810302734375">
        <ele>287</ele>
        <time>2023-08-19T17:39:31.000Z</time>
        <extensions>
          <ns3:TrackPointExtension>
            <ns3:hr>156</ns3:hr>
            <ns3:cad>57</ns3:cad>
          </ns3:TrackPointExtension>
        </extensions>
      </trkpt>
      <trkpt lat="42.60994045995175838470458984375" lon="2.72775669582188129425048828125">
        <ele>287</ele>
        <time>2023-08-19T17:39:32.000Z</time>
        <extensions>
          <ns3:TrackPointExtension>
            <ns3:hr>155</ns3:hr>
            <ns3:cad>57</ns3:cad>
          </ns3:TrackPointExtension>
        </extensions>
      </trkpt>
      <trkpt lat="42.609948255121707916259765625" lon="2.7277381718158721923828125">
        <ele>287.20001220703125</ele>
        <time>2023-08-19T17:39:33.000Z</time>
        <extensions>
          <ns3:TrackPointExtension>
            <ns3:hr>156</ns3:hr>
            <ns3:cad>58</ns3:cad>
          </ns3:TrackPointExtension>
        </extensions>
      </trkpt>
      <trkpt lat="42.60995663702487945556640625" lon="2.72772300057113170623779296875">
        <ele>287.399993896484375</ele>
        <time>2023-08-19T17:39:34.000Z</time>
        <extensions>
          <ns3:TrackPointExtension>
            <ns3:hr>155</ns3:hr>
            <ns3:cad>59</ns3:cad>
          </ns3:TrackPointExtension>
        </extensions>
      </trkpt>
      <trkpt lat="42.609963007271289825439453125" lon="2.727704308927059173583984375">
        <ele>287.600006103515625</ele>
        <time>2023-08-19T17:39:35.000Z</time>
        <extensions>
          <ns3:TrackPointExtension>
            <ns3:hr>155</ns3:hr>
            <ns3:cad>59</ns3:cad>
          </ns3:TrackPointExtension>
        </extensions>
      </trkpt>
      <trkpt lat="42.60996879078447818756103515625" lon="2.72769064642488956451416015625">
        <ele>287.79998779296875</ele>
        <time>2023-08-19T17:39:36.000Z</time>
        <extensions>
          <ns3:TrackPointExtension>
            <ns3:hr>155</ns3:hr>
            <ns3:cad>59</ns3:cad>
          </ns3:TrackPointExtension>
        </extensions>
      </trkpt>
      <trkpt lat="42.60997331701219081878662109375" lon="2.72767421789467334747314453125">
        <ele>287.79998779296875</ele>
        <time>2023-08-19T17:39:37.000Z</time>
        <extensions>
          <ns3:TrackPointExtension>
            <ns3:hr>155</ns3:hr>
            <ns3:cad>59</ns3:cad>
          </ns3:TrackPointExtension>
        </extensions>
      </trkpt>
      <trkpt lat="42.60997633449733257293701171875" lon="2.7276615612208843231201171875">
        <ele>288</ele>
        <time>2023-08-19T17:39:38.000Z</time>
        <extensions>
          <ns3:TrackPointExtension>
            <ns3:hr>154</ns3:hr>
            <ns3:cad>59</ns3:cad>
          </ns3:TrackPointExtension>
        </extensions>
      </trkpt>
      <trkpt lat="42.60997918434441089630126953125" lon="2.72764923982322216033935546875">
        <ele>288</ele>
        <time>2023-08-19T17:39:39.000Z</time>
        <extensions>
          <ns3:TrackPointExtension>
            <ns3:hr>154</ns3:hr>
            <ns3:cad>59</ns3:cad>
          </ns3:TrackPointExtension>
        </extensions>
      </trkpt>
      <trkpt lat="42.60999418795108795166015625" lon="2.72763415239751338958740234375">
        <ele>288.20001220703125</ele>
        <time>2023-08-19T17:39:40.000Z</time>
        <extensions>
          <ns3:TrackPointExtension>
            <ns3:hr>154</ns3:hr>
            <ns3:cad>59</ns3:cad>
          </ns3:TrackPointExtension>
        </extensions>
      </trkpt>
      <trkpt lat="42.6100070960819721221923828125" lon="2.72761269472539424896240234375">
        <ele>288.399993896484375</ele>
        <time>2023-08-19T17:39:41.000Z</time>
        <extensions>
          <ns3:TrackPointExtension>
            <ns3:hr>154</ns3:hr>
            <ns3:cad>59</ns3:cad>
          </ns3:TrackPointExtension>
        </extensions>
      </trkpt>
      <trkpt lat="42.61001857928931713104248046875" lon="2.7275961823761463165283203125">
        <ele>288.399993896484375</ele>
        <time>2023-08-19T17:39:42.000Z</time>
        <extensions>
          <ns3:TrackPointExtension>
            <ns3:hr>153</ns3:hr>
            <ns3:cad>59</ns3:cad>
          </ns3:TrackPointExtension>
        </extensions>
      </trkpt>
      <trkpt lat="42.61003148742020130157470703125" lon="2.72757313214242458343505859375">
        <ele>288.600006103515625</ele>
        <time>2023-08-19T17:39:43.000Z</time>
        <extensions>
          <ns3:TrackPointExtension>
            <ns3:hr>153</ns3:hr>
            <ns3:cad>58</ns3:cad>
          </ns3:TrackPointExtension>
        </extensions>
      </trkpt>
      <trkpt lat="42.61004305444657802581787109375" lon="2.727545388042926788330078125">
        <ele>288.79998779296875</ele>
        <time>2023-08-19T17:39:44.000Z</time>
        <extensions>
          <ns3:TrackPointExtension>
            <ns3:hr>153</ns3:hr>
            <ns3:cad>58</ns3:cad>
          </ns3:TrackPointExtension>
        </extensions>
      </trkpt>
      <trkpt lat="42.6100530289113521575927734375" lon="2.7275207452476024627685546875">
        <ele>289</ele>
        <time>2023-08-19T17:39:45.000Z</time>
        <extensions>
          <ns3:TrackPointExtension>
            <ns3:hr>154</ns3:hr>
            <ns3:cad>75</ns3:cad>
          </ns3:TrackPointExtension>
        </extensions>
      </trkpt>
      <trkpt lat="42.61005998589098453521728515625" lon="2.72749878466129302978515625">
        <ele>289</ele>
        <time>2023-08-19T17:39:46.000Z</time>
        <extensions>
          <ns3:TrackPointExtension>
            <ns3:hr>154</ns3:hr>
            <ns3:cad>79</ns3:cad>
          </ns3:TrackPointExtension>
        </extensions>
      </trkpt>
      <trkpt lat="42.6100630871951580047607421875" lon="2.72747808136045932769775390625">
        <ele>289.20001220703125</ele>
        <time>2023-08-19T17:39:47.000Z</time>
        <extensions>
          <ns3:TrackPointExtension>
            <ns3:hr>154</ns3:hr>
            <ns3:cad>80</ns3:cad>
          </ns3:TrackPointExtension>
        </extensions>
      </trkpt>
      <trkpt lat="42.610066272318363189697265625" lon="2.72746114991605281829833984375">
        <ele>289.399993896484375</ele>
        <time>2023-08-19T17:39:48.000Z</time>
        <extensions>
          <ns3:TrackPointExtension>
            <ns3:hr>153</ns3:hr>
            <ns3:cad>77</ns3:cad>
          </ns3:TrackPointExtension>
        </extensions>
      </trkpt>
      <trkpt lat="42.61006853543221950531005859375" lon="2.72744371555745601654052734375">
        <ele>289.79998779296875</ele>
        <time>2023-08-19T17:39:49.000Z</time>
        <extensions>
          <ns3:TrackPointExtension>
            <ns3:hr>153</ns3:hr>
            <ns3:cad>77</ns3:cad>
          </ns3:TrackPointExtension>
        </extensions>
      </trkpt>
      <trkpt lat="42.61007423512637615203857421875" lon="2.72742510773241519927978515625">
        <ele>290</ele>
        <time>2023-08-19T17:39:50.000Z</time>
        <extensions>
          <ns3:TrackPointExtension>
            <ns3:hr>152</ns3:hr>
            <ns3:cad>75</ns3:cad>
          </ns3:TrackPointExtension>
        </extensions>
      </trkpt>
      <trkpt lat="42.6100785098969936370849609375" lon="2.72741018794476985931396484375">
        <ele>290</ele>
        <time>2023-08-19T17:39:51.000Z</time>
        <extensions>
          <ns3:TrackPointExtension>
            <ns3:hr>151</ns3:hr>
            <ns3:cad>61</ns3:cad>
          </ns3:TrackPointExtension>
        </extensions>
      </trkpt>
      <trkpt lat="42.6100795157253742218017578125" lon="2.727396525442600250244140625">
        <ele>290.20001220703125</ele>
        <time>2023-08-19T17:39:52.000Z</time>
        <extensions>
          <ns3:TrackPointExtension>
            <ns3:hr>151</ns3:hr>
            <ns3:cad>70</ns3:cad>
          </ns3:TrackPointExtension>
        </extensions>
      </trkpt>
      <trkpt lat="42.61008127592504024505615234375" lon="2.72738202475011348724365234375">
        <ele>290.399993896484375</ele>
        <time>2023-08-19T17:39:53.000Z</time>
        <extensions>
          <ns3:TrackPointExtension>
            <ns3:hr>151</ns3:hr>
            <ns3:cad>68</ns3:cad>
          </ns3:TrackPointExtension>
        </extensions>
      </trkpt>
      <trkpt lat="42.6100811921060085296630859375" lon="2.727367691695690155029296875">
        <ele>290.600006103515625</ele>
        <time>2023-08-19T17:39:54.000Z</time>
        <extensions>
          <ns3:TrackPointExtension>
            <ns3:hr>152</ns3:hr>
            <ns3:cad>66</ns3:cad>
          </ns3:TrackPointExtension>
        </extensions>
      </trkpt>
      <trkpt lat="42.610081695020198822021484375" lon="2.72734397090971469879150390625">
        <ele>290.79998779296875</ele>
        <time>2023-08-19T17:39:55.000Z</time>
        <extensions>
          <ns3:TrackPointExtension>
            <ns3:hr>152</ns3:hr>
            <ns3:cad>66</ns3:cad>
          </ns3:TrackPointExtension>
        </extensions>
      </trkpt>
      <trkpt lat="42.61008060537278652191162109375" lon="2.7273182384669780731201171875">
        <ele>291</ele>
        <time>2023-08-19T17:39:56.000Z</time>
        <extensions>
          <ns3:TrackPointExtension>
            <ns3:hr>152</ns3:hr>
            <ns3:cad>66</ns3:cad>
          </ns3:TrackPointExtension>
        </extensions>
      </trkpt>
      <trkpt lat="42.61007557623088359832763671875" lon="2.72730072028934955596923828125">
        <ele>291.20001220703125</ele>
        <time>2023-08-19T17:39:57.000Z</time>
        <extensions>
          <ns3:TrackPointExtension>
            <ns3:hr>152</ns3:hr>
            <ns3:cad>69</ns3:cad>
          </ns3:TrackPointExtension>
        </extensions>
      </trkpt>
      <trkpt lat="42.610071636736392974853515625" lon="2.72728077135980129241943359375">
        <ele>291.399993896484375</ele>
        <time>2023-08-19T17:39:58.000Z</time>
        <extensions>
          <ns3:TrackPointExtension>
            <ns3:hr>153</ns3:hr>
            <ns3:cad>83</ns3:cad>
          </ns3:TrackPointExtension>
        </extensions>
      </trkpt>
      <trkpt lat="42.6100758276879787445068359375" lon="2.727253697812557220458984375">
        <ele>291.399993896484375</ele>
        <time>2023-08-19T17:39:59.000Z</time>
        <extensions>
          <ns3:TrackPointExtension>
            <ns3:hr>153</ns3:hr>
            <ns3:cad>80</ns3:cad>
          </ns3:TrackPointExtension>
        </extensions>
      </trkpt>
      <trkpt lat="42.6100838743150234222412109375" lon="2.7272314019501209259033203125">
        <ele>291.79998779296875</ele>
        <time>2023-08-19T17:40:00.000Z</time>
        <extensions>
          <ns3:TrackPointExtension>
            <ns3:hr>153</ns3:hr>
            <ns3:cad>76</ns3:cad>
          </ns3:TrackPointExtension>
        </extensions>
      </trkpt>
      <trkpt lat="42.610091753304004669189453125" lon="2.727208770811557769775390625">
        <ele>292</ele>
        <time>2023-08-19T17:40:01.000Z</time>
        <extensions>
          <ns3:TrackPointExtension>
            <ns3:hr>154</ns3:hr>
            <ns3:cad>75</ns3:cad>
          </ns3:TrackPointExtension>
        </extensions>
      </trkpt>
      <trkpt lat="42.61010415852069854736328125" lon="2.72717985324561595916748046875">
        <ele>292.399993896484375</ele>
        <time>2023-08-19T17:40:02.000Z</time>
        <extensions>
          <ns3:TrackPointExtension>
            <ns3:hr>155</ns3:hr>
            <ns3:cad>76</ns3:cad>
          </ns3:TrackPointExtension>
        </extensions>
      </trkpt>
      <trkpt lat="42.61011681519448757171630859375" lon="2.7271614968776702880859375">
        <ele>292.399993896484375</ele>
        <time>2023-08-19T17:40:03.000Z</time>
        <extensions>
          <ns3:TrackPointExtension>
            <ns3:hr>154</ns3:hr>
            <ns3:cad>79</ns3:cad>
          </ns3:TrackPointExtension>
        </extensions>
      </trkpt>
      <trkpt lat="42.610127627849578857421875" lon="2.72714666090905666351318359375">
        <ele>292.600006103515625</ele>
        <time>2023-08-19T17:40:04.000Z</time>
        <extensions>
          <ns3:TrackPointExtension>
            <ns3:hr>154</ns3:hr>
            <ns3:cad>79</ns3:cad>
          </ns3:TrackPointExtension>
        </extensions>
      </trkpt>
      <trkpt lat="42.61014179326593875885009765625" lon="2.72712972946465015411376953125">
        <ele>292.79998779296875</ele>
        <time>2023-08-19T17:40:05.000Z</time>
        <extensions>
          <ns3:TrackPointExtension>
            <ns3:hr>154</ns3:hr>
            <ns3:cad>77</ns3:cad>
          </ns3:TrackPointExtension>
        </extensions>
      </trkpt>
      <trkpt lat="42.6101596467196941375732421875" lon="2.72710994817316532135009765625">
        <ele>292.79998779296875</ele>
        <time>2023-08-19T17:40:06.000Z</time>
        <extensions>
          <ns3:TrackPointExtension>
            <ns3:hr>154</ns3:hr>
            <ns3:cad>77</ns3:cad>
          </ns3:TrackPointExtension>
        </extensions>
      </trkpt>
      <trkpt lat="42.61017347685992717742919921875" lon="2.72709385491907596588134765625">
        <ele>292.79998779296875</ele>
        <time>2023-08-19T17:40:07.000Z</time>
        <extensions>
          <ns3:TrackPointExtension>
            <ns3:hr>154</ns3:hr>
            <ns3:cad>78</ns3:cad>
          </ns3:TrackPointExtension>
        </extensions>
      </trkpt>
      <trkpt lat="42.61017783544957637786865234375" lon="2.7270694635808467864990234375">
        <ele>293.20001220703125</ele>
        <time>2023-08-19T17:40:08.000Z</time>
        <extensions>
          <ns3:TrackPointExtension>
            <ns3:hr>154</ns3:hr>
            <ns3:cad>78</ns3:cad>
          </ns3:TrackPointExtension>
        </extensions>
      </trkpt>
      <trkpt lat="42.61019124649465084075927734375" lon="2.72703744471073150634765625">
        <ele>293.399993896484375</ele>
        <time>2023-08-19T17:40:09.000Z</time>
        <extensions>
          <ns3:TrackPointExtension>
            <ns3:hr>154</ns3:hr>
            <ns3:cad>78</ns3:cad>
          </ns3:TrackPointExtension>
        </extensions>
      </trkpt>
      <trkpt lat="42.61020096950232982635498046875" lon="2.7270168252289295196533203125">
        <ele>293.600006103515625</ele>
        <time>2023-08-19T17:40:10.000Z</time>
        <extensions>
          <ns3:TrackPointExtension>
            <ns3:hr>154</ns3:hr>
            <ns3:cad>78</ns3:cad>
          </ns3:TrackPointExtension>
        </extensions>
      </trkpt>
      <trkpt lat="42.610214464366436004638671875" lon="2.72699343971908092498779296875">
        <ele>293.79998779296875</ele>
        <time>2023-08-19T17:40:11.000Z</time>
        <extensions>
          <ns3:TrackPointExtension>
            <ns3:hr>154</ns3:hr>
            <ns3:cad>79</ns3:cad>
          </ns3:TrackPointExtension>
        </extensions>
      </trkpt>
      <trkpt lat="42.61023290455341339111328125" lon="2.72696846164762973785400390625">
        <ele>293.79998779296875</ele>
        <time>2023-08-19T17:40:12.000Z</time>
        <extensions>
          <ns3:TrackPointExtension>
            <ns3:hr>155</ns3:hr>
            <ns3:cad>80</ns3:cad>
          </ns3:TrackPointExtension>
        </extensions>
      </trkpt>
      <trkpt lat="42.61024790816009044647216796875" lon="2.72694650106132030487060546875">
        <ele>293.79998779296875</ele>
        <time>2023-08-19T17:40:13.000Z</time>
        <extensions>
          <ns3:TrackPointExtension>
            <ns3:hr>155</ns3:hr>
            <ns3:cad>81</ns3:cad>
          </ns3:TrackPointExtension>
        </extensions>
      </trkpt>
      <trkpt lat="42.61026651598513126373291015625" lon="2.72692018188536167144775390625">
        <ele>294</ele>
        <time>2023-08-19T17:40:14.000Z</time>
        <extensions>
          <ns3:TrackPointExtension>
            <ns3:hr>155</ns3:hr>
            <ns3:cad>81</ns3:cad>
          </ns3:TrackPointExtension>
        </extensions>
      </trkpt>
      <trkpt lat="42.61028227396309375762939453125" lon="2.72689788602292537689208984375">
        <ele>294</ele>
        <time>2023-08-19T17:40:15.000Z</time>
        <extensions>
          <ns3:TrackPointExtension>
            <ns3:hr>155</ns3:hr>
            <ns3:cad>81</ns3:cad>
          </ns3:TrackPointExtension>
        </extensions>
      </trkpt>
      <trkpt lat="42.6102907396852970123291015625" lon="2.72687877528369426727294921875">
        <ele>294.399993896484375</ele>
        <time>2023-08-19T17:40:16.000Z</time>
        <extensions>
          <ns3:TrackPointExtension>
            <ns3:hr>155</ns3:hr>
            <ns3:cad>81</ns3:cad>
          </ns3:TrackPointExtension>
        </extensions>
      </trkpt>
      <trkpt lat="42.6103007979691028594970703125" lon="2.7268525399267673492431640625">
        <ele>294.600006103515625</ele>
        <time>2023-08-19T17:40:17.000Z</time>
        <extensions>
          <ns3:TrackPointExtension>
            <ns3:hr>155</ns3:hr>
            <ns3:cad>81</ns3:cad>
          </ns3:TrackPointExtension>
        </extensions>
      </trkpt>
      <trkpt lat="42.6103098504245281219482421875" lon="2.7268377877771854400634765625">
        <ele>294.600006103515625</ele>
        <time>2023-08-19T17:40:18.000Z</time>
        <extensions>
          <ns3:TrackPointExtension>
            <ns3:hr>155</ns3:hr>
            <ns3:cad>82</ns3:cad>
          </ns3:TrackPointExtension>
        </extensions>
      </trkpt>
      <trkpt lat="42.61031881906092166900634765625" lon="2.7268216945230960845947265625">
        <ele>294.79998779296875</ele>
        <time>2023-08-19T17:40:19.000Z</time>
        <extensions>
          <ns3:TrackPointExtension>
            <ns3:hr>155</ns3:hr>
            <ns3:cad>82</ns3:cad>
          </ns3:TrackPointExtension>
        </extensions>
      </trkpt>
      <trkpt lat="42.61033625341951847076416015625" lon="2.7268149890005588531494140625">
        <ele>294.79998779296875</ele>
        <time>2023-08-19T17:40:20.000Z</time>
        <extensions>
          <ns3:TrackPointExtension>
            <ns3:hr>156</ns3:hr>
            <ns3:cad>81</ns3:cad>
          </ns3:TrackPointExtension>
        </extensions>
      </trkpt>
      <trkpt lat="42.61036072857677936553955078125" lon="2.7268102951347827911376953125">
        <ele>295</ele>
        <time>2023-08-19T17:40:21.000Z</time>
        <extensions>
          <ns3:TrackPointExtension>
            <ns3:hr>156</ns3:hr>
            <ns3:cad>79</ns3:cad>
          </ns3:TrackPointExtension>
        </extensions>
      </trkpt>
      <trkpt lat="42.61037749238312244415283203125" lon="2.72679830901324748992919921875">
        <ele>295</ele>
        <time>2023-08-19T17:40:22.000Z</time>
        <extensions>
          <ns3:TrackPointExtension>
            <ns3:hr>156</ns3:hr>
            <ns3:cad>80</ns3:cad>
          </ns3:TrackPointExtension>
        </extensions>
      </trkpt>
      <trkpt lat="42.61039727367460727691650390625" lon="2.7267771027982234954833984375">
        <ele>295.20001220703125</ele>
        <time>2023-08-19T17:40:23.000Z</time>
        <extensions>
          <ns3:TrackPointExtension>
            <ns3:hr>156</ns3:hr>
            <ns3:cad>80</ns3:cad>
          </ns3:TrackPointExtension>
        </extensions>
      </trkpt>
      <trkpt lat="42.61041319929063320159912109375" lon="2.72675422020256519317626953125">
        <ele>295.20001220703125</ele>
        <time>2023-08-19T17:40:24.000Z</time>
        <extensions>
          <ns3:TrackPointExtension>
            <ns3:hr>156</ns3:hr>
            <ns3:cad>81</ns3:cad>
          </ns3:TrackPointExtension>
        </extensions>
      </trkpt>
      <trkpt lat="42.6104266941547393798828125" lon="2.72672756575047969818115234375">
        <ele>295.20001220703125</ele>
        <time>2023-08-19T17:40:25.000Z</time>
        <extensions>
          <ns3:TrackPointExtension>
            <ns3:hr>156</ns3:hr>
            <ns3:cad>82</ns3:cad>
          </ns3:TrackPointExtension>
        </extensions>
      </trkpt>
      <trkpt lat="42.61043029837310314178466796875" lon="2.72669546306133270263671875">
        <ele>295.399993896484375</ele>
        <time>2023-08-19T17:40:26.000Z</time>
        <extensions>
          <ns3:TrackPointExtension>
            <ns3:hr>156</ns3:hr>
            <ns3:cad>82</ns3:cad>
          </ns3:TrackPointExtension>
        </extensions>
      </trkpt>
      <trkpt lat="42.61043448932468891143798828125" lon="2.72667157463729381561279296875">
        <ele>295.399993896484375</ele>
        <time>2023-08-19T17:40:27.000Z</time>
        <extensions>
          <ns3:TrackPointExtension>
            <ns3:hr>156</ns3:hr>
            <ns3:cad>82</ns3:cad>
          </ns3:TrackPointExtension>
        </extensions>
      </trkpt>
      <trkpt lat="42.6104389317333698272705078125" lon="2.72664341144263744354248046875">
        <ele>295.399993896484375</ele>
        <time>2023-08-19T17:40:28.000Z</time>
        <extensions>
          <ns3:TrackPointExtension>
            <ns3:hr>156</ns3:hr>
            <ns3:cad>82</ns3:cad>
          </ns3:TrackPointExtension>
        </extensions>
      </trkpt>
      <trkpt lat="42.61044169776141643524169921875" lon="2.72661767899990081787109375">
        <ele>295.600006103515625</ele>
        <time>2023-08-19T17:40:29.000Z</time>
        <extensions>
          <ns3:TrackPointExtension>
            <ns3:hr>156</ns3:hr>
            <ns3:cad>81</ns3:cad>
          </ns3:TrackPointExtension>
        </extensions>
      </trkpt>
      <trkpt lat="42.6104402728378772735595703125" lon="2.7265942096710205078125">
        <ele>296</ele>
        <time>2023-08-19T17:40:30.000Z</time>
        <extensions>
          <ns3:TrackPointExtension>
            <ns3:hr>156</ns3:hr>
            <ns3:cad>80</ns3:cad>
          </ns3:TrackPointExtension>
        </extensions>
      </trkpt>
      <trkpt lat="42.6104382611811161041259765625" lon="2.72657417692244052886962890625">
        <ele>296.20001220703125</ele>
        <time>2023-08-19T17:40:31.000Z</time>
        <extensions>
          <ns3:TrackPointExtension>
            <ns3:hr>156</ns3:hr>
            <ns3:cad>78</ns3:cad>
          </ns3:TrackPointExtension>
        </extensions>
      </trkpt>
      <trkpt lat="42.6104406081140041351318359375" lon="2.72654349915683269500732421875">
        <ele>296.399993896484375</ele>
        <time>2023-08-19T17:40:32.000Z</time>
        <extensions>
          <ns3:TrackPointExtension>
            <ns3:hr>156</ns3:hr>
            <ns3:cad>77</ns3:cad>
          </ns3:TrackPointExtension>
        </extensions>
      </trkpt>
      <trkpt lat="42.6104496605694293975830078125" lon="2.7265169285237789154052734375">
        <ele>296.600006103515625</ele>
        <time>2023-08-19T17:40:33.000Z</time>
        <extensions>
          <ns3:TrackPointExtension>
            <ns3:hr>156</ns3:hr>
            <ns3:cad>77</ns3:cad>
          </ns3:TrackPointExtension>
        </extensions>
      </trkpt>
      <trkpt lat="42.610457204282283782958984375" lon="2.726494967937469482421875">
        <ele>296.600006103515625</ele>
        <time>2023-08-19T17:40:34.000Z</time>
        <extensions>
          <ns3:TrackPointExtension>
            <ns3:hr>156</ns3:hr>
            <ns3:cad>78</ns3:cad>
          </ns3:TrackPointExtension>
        </extensions>
      </trkpt>
      <trkpt lat="42.61047053150832653045654296875" lon="2.726473845541477203369140625">
        <ele>297</ele>
        <time>2023-08-19T17:40:35.000Z</time>
        <extensions>
          <ns3:TrackPointExtension>
            <ns3:hr>156</ns3:hr>
            <ns3:cad>79</ns3:cad>
          </ns3:TrackPointExtension>
        </extensions>
      </trkpt>
      <trkpt lat="42.61048947460949420928955078125" lon="2.726459763944149017333984375">
        <ele>297.20001220703125</ele>
        <time>2023-08-19T17:40:36.000Z</time>
        <extensions>
          <ns3:TrackPointExtension>
            <ns3:hr>156</ns3:hr>
            <ns3:cad>78</ns3:cad>
          </ns3:TrackPointExtension>
        </extensions>
      </trkpt>
      <trkpt lat="42.610507495701313018798828125" lon="2.72644291631877422332763671875">
        <ele>297.399993896484375</ele>
        <time>2023-08-19T17:40:37.000Z</time>
        <extensions>
          <ns3:TrackPointExtension>
            <ns3:hr>156</ns3:hr>
            <ns3:cad>79</ns3:cad>
          </ns3:TrackPointExtension>
        </extensions>
      </trkpt>
      <trkpt lat="42.61052652262151241302490234375" lon="2.7264284156262874603271484375">
        <ele>297.600006103515625</ele>
        <time>2023-08-19T17:40:38.000Z</time>
        <extensions>
          <ns3:TrackPointExtension>
            <ns3:hr>156</ns3:hr>
            <ns3:cad>79</ns3:cad>
          </ns3:TrackPointExtension>
        </extensions>
      </trkpt>
      <trkpt lat="42.61054982431232929229736328125" lon="2.726415507495403289794921875">
        <ele>297.79998779296875</ele>
        <time>2023-08-19T17:40:39.000Z</time>
        <extensions>
          <ns3:TrackPointExtension>
            <ns3:hr>156</ns3:hr>
            <ns3:cad>79</ns3:cad>
          </ns3:TrackPointExtension>
        </extensions>
      </trkpt>
      <trkpt lat="42.6105663366615772247314453125" lon="2.72640452720224857330322265625">
        <ele>297.79998779296875</ele>
        <time>2023-08-19T17:40:40.000Z</time>
        <extensions>
          <ns3:TrackPointExtension>
            <ns3:hr>156</ns3:hr>
            <ns3:cad>79</ns3:cad>
          </ns3:TrackPointExtension>
        </extensions>
      </trkpt>
      <trkpt lat="42.61058502830564975738525390625" lon="2.72639111615717411041259765625">
        <ele>297.79998779296875</ele>
        <time>2023-08-19T17:40:41.000Z</time>
        <extensions>
          <ns3:TrackPointExtension>
            <ns3:hr>156</ns3:hr>
            <ns3:cad>80</ns3:cad>
          </ns3:TrackPointExtension>
        </extensions>
      </trkpt>
      <trkpt lat="42.61060179211199283599853515625" lon="2.72637502290308475494384765625">
        <ele>297.79998779296875</ele>
        <time>2023-08-19T17:40:42.000Z</time>
        <extensions>
          <ns3:TrackPointExtension>
            <ns3:hr>157</ns3:hr>
            <ns3:cad>80</ns3:cad>
          </ns3:TrackPointExtension>
        </extensions>
      </trkpt>
      <trkpt lat="42.61061386205255985260009765625" lon="2.726355828344821929931640625">
        <ele>298</ele>
        <time>2023-08-19T17:40:43.000Z</time>
        <extensions>
          <ns3:TrackPointExtension>
            <ns3:hr>157</ns3:hr>
            <ns3:cad>80</ns3:cad>
          </ns3:TrackPointExtension>
        </extensions>
      </trkpt>
      <trkpt lat="42.61063196696341037750244140625" lon="2.726333029568195343017578125">
        <ele>298</ele>
        <time>2023-08-19T17:40:44.000Z</time>
        <extensions>
          <ns3:TrackPointExtension>
            <ns3:hr>157</ns3:hr>
            <ns3:cad>81</ns3:cad>
          </ns3:TrackPointExtension>
        </extensions>
      </trkpt>
      <trkpt lat="42.6106447912752628326416015625" lon="2.7263127453625202178955078125">
        <ele>298</ele>
        <time>2023-08-19T17:40:45.000Z</time>
        <extensions>
          <ns3:TrackPointExtension>
            <ns3:hr>157</ns3:hr>
            <ns3:cad>81</ns3:cad>
          </ns3:TrackPointExtension>
        </extensions>
      </trkpt>
      <trkpt lat="42.61065359227359294891357421875" lon="2.72629640065133571624755859375">
        <ele>298.20001220703125</ele>
        <time>2023-08-19T17:40:46.000Z</time>
        <extensions>
          <ns3:TrackPointExtension>
            <ns3:hr>157</ns3:hr>
            <ns3:cad>80</ns3:cad>
          </ns3:TrackPointExtension>
        </extensions>
      </trkpt>
      <trkpt lat="42.61066935025155544281005859375" lon="2.72627628408372402191162109375">
        <ele>298.20001220703125</ele>
        <time>2023-08-19T17:40:47.000Z</time>
        <extensions>
          <ns3:TrackPointExtension>
            <ns3:hr>157</ns3:hr>
            <ns3:cad>80</ns3:cad>
          </ns3:TrackPointExtension>
        </extensions>
      </trkpt>
      <trkpt lat="42.61068351566791534423828125" lon="2.72625968791544437408447265625">
        <ele>298.20001220703125</ele>
        <time>2023-08-19T17:40:48.000Z</time>
        <extensions>
          <ns3:TrackPointExtension>
            <ns3:hr>157</ns3:hr>
            <ns3:cad>80</ns3:cad>
          </ns3:TrackPointExtension>
        </extensions>
      </trkpt>
      <trkpt lat="42.6106954179704189300537109375" lon="2.72623923607170581817626953125">
        <ele>298.399993896484375</ele>
        <time>2023-08-19T17:40:49.000Z</time>
        <extensions>
          <ns3:TrackPointExtension>
            <ns3:hr>157</ns3:hr>
            <ns3:cad>80</ns3:cad>
          </ns3:TrackPointExtension>
        </extensions>
      </trkpt>
      <trkpt lat="42.610710673034191131591796875" lon="2.726216018199920654296875">
        <ele>298.600006103515625</ele>
        <time>2023-08-19T17:40:50.000Z</time>
        <extensions>
          <ns3:TrackPointExtension>
            <ns3:hr>157</ns3:hr>
            <ns3:cad>79</ns3:cad>
          </ns3:TrackPointExtension>
        </extensions>
      </trkpt>
      <trkpt lat="42.6107265986502170562744140625" lon="2.7261967398226261138916015625">
        <ele>298.79998779296875</ele>
        <time>2023-08-19T17:40:51.000Z</time>
        <extensions>
          <ns3:TrackPointExtension>
            <ns3:hr>157</ns3:hr>
            <ns3:cad>79</ns3:cad>
          </ns3:TrackPointExtension>
        </extensions>
      </trkpt>
      <trkpt lat="42.6107378304004669189453125" lon="2.72618290968239307403564453125">
        <ele>299</ele>
        <time>2023-08-19T17:40:52.000Z</time>
        <extensions>
          <ns3:TrackPointExtension>
            <ns3:hr>157</ns3:hr>
            <ns3:cad>80</ns3:cad>
          </ns3:TrackPointExtension>
        </extensions>
      </trkpt>
      <trkpt lat="42.6107524149119853973388671875" lon="2.72616866044700145721435546875">
        <ele>299.20001220703125</ele>
        <time>2023-08-19T17:40:53.000Z</time>
        <extensions>
          <ns3:TrackPointExtension>
            <ns3:hr>157</ns3:hr>
            <ns3:cad>81</ns3:cad>
          </ns3:TrackPointExtension>
        </extensions>
      </trkpt>
      <trkpt lat="42.610766999423503875732421875" lon="2.72615156136453151702880859375">
        <ele>299.20001220703125</ele>
        <time>2023-08-19T17:40:54.000Z</time>
        <extensions>
          <ns3:TrackPointExtension>
            <ns3:hr>157</ns3:hr>
            <ns3:cad>81</ns3:cad>
          </ns3:TrackPointExtension>
        </extensions>
      </trkpt>
      <trkpt lat="42.61077596805989742279052734375" lon="2.72613747976720333099365234375">
        <ele>299.20001220703125</ele>
        <time>2023-08-19T17:40:55.000Z</time>
        <extensions>
          <ns3:TrackPointExtension>
            <ns3:hr>157</ns3:hr>
            <ns3:cad>81</ns3:cad>
          </ns3:TrackPointExtension>
        </extensions>
      </trkpt>
      <trkpt lat="42.61079440824687480926513671875" lon="2.7261172793805599212646484375">
        <ele>299.20001220703125</ele>
        <time>2023-08-19T17:40:56.000Z</time>
        <extensions>
          <ns3:TrackPointExtension>
            <ns3:hr>157</ns3:hr>
            <ns3:cad>80</ns3:cad>
          </ns3:TrackPointExtension>
        </extensions>
      </trkpt>
      <trkpt lat="42.6108104176819324493408203125" lon="2.72610495798289775848388671875">
        <ele>299.399993896484375</ele>
        <time>2023-08-19T17:40:57.000Z</time>
        <extensions>
          <ns3:TrackPointExtension>
            <ns3:hr>157</ns3:hr>
            <ns3:cad>79</ns3:cad>
          </ns3:TrackPointExtension>
        </extensions>
      </trkpt>
      <trkpt lat="42.61082240380346775054931640625" lon="2.72609540261328220367431640625">
        <ele>299.399993896484375</ele>
        <time>2023-08-19T17:40:58.000Z</time>
        <extensions>
          <ns3:TrackPointExtension>
            <ns3:hr>157</ns3:hr>
            <ns3:cad>80</ns3:cad>
          </ns3:TrackPointExtension>
        </extensions>
      </trkpt>
      <trkpt lat="42.6108399219810962677001953125" lon="2.726083584129810333251953125">
        <ele>299.600006103515625</ele>
        <time>2023-08-19T17:40:59.000Z</time>
        <extensions>
          <ns3:TrackPointExtension>
            <ns3:hr>157</ns3:hr>
            <ns3:cad>80</ns3:cad>
          </ns3:TrackPointExtension>
        </extensions>
      </trkpt>
      <trkpt lat="42.61085878126323223114013671875" lon="2.7260726876556873321533203125">
        <ele>299.600006103515625</ele>
        <time>2023-08-19T17:41:00.000Z</time>
        <extensions>
          <ns3:TrackPointExtension>
            <ns3:hr>157</ns3:hr>
            <ns3:cad>79</ns3:cad>
          </ns3:TrackPointExtension>
        </extensions>
      </trkpt>
      <trkpt lat="42.6108744554221630096435546875" lon="2.72605952806770801544189453125">
        <ele>299.79998779296875</ele>
        <time>2023-08-19T17:41:01.000Z</time>
        <extensions>
          <ns3:TrackPointExtension>
            <ns3:hr>157</ns3:hr>
            <ns3:cad>79</ns3:cad>
          </ns3:TrackPointExtension>
        </extensions>
      </trkpt>
      <trkpt lat="42.6108939014375209808349609375" lon="2.72604695521295070648193359375">
        <ele>299.79998779296875</ele>
        <time>2023-08-19T17:41:02.000Z</time>
        <extensions>
          <ns3:TrackPointExtension>
            <ns3:hr>157</ns3:hr>
            <ns3:cad>79</ns3:cad>
          </ns3:TrackPointExtension>
        </extensions>
      </trkpt>
      <trkpt lat="42.61091527529060840606689453125" lon="2.72603161633014678955078125">
        <ele>300</ele>
        <time>2023-08-19T17:41:03.000Z</time>
        <extensions>
          <ns3:TrackPointExtension>
            <ns3:hr>156</ns3:hr>
            <ns3:cad>79</ns3:cad>
          </ns3:TrackPointExtension>
        </extensions>
      </trkpt>
      <trkpt lat="42.6109327934682369232177734375" lon="2.726017870008945465087890625">
        <ele>300.20001220703125</ele>
        <time>2023-08-19T17:41:04.000Z</time>
        <extensions>
          <ns3:TrackPointExtension>
            <ns3:hr>156</ns3:hr>
            <ns3:cad>79</ns3:cad>
          </ns3:TrackPointExtension>
        </extensions>
      </trkpt>
      <trkpt lat="42.61095081456005573272705078125" lon="2.72599968127906322479248046875">
        <ele>300.20001220703125</ele>
        <time>2023-08-19T17:41:05.000Z</time>
        <extensions>
          <ns3:TrackPointExtension>
            <ns3:hr>157</ns3:hr>
            <ns3:cad>80</ns3:cad>
          </ns3:TrackPointExtension>
        </extensions>
      </trkpt>
      <trkpt lat="42.61096489615738391876220703125" lon="2.7259811572730541229248046875">
        <ele>300.20001220703125</ele>
        <time>2023-08-19T17:41:06.000Z</time>
        <extensions>
          <ns3:TrackPointExtension>
            <ns3:hr>157</ns3:hr>
            <ns3:cad>80</ns3:cad>
          </ns3:TrackPointExtension>
        </extensions>
      </trkpt>
      <trkpt lat="42.61097847484052181243896484375" lon="2.72596263326704502105712890625">
        <ele>300.20001220703125</ele>
        <time>2023-08-19T17:41:07.000Z</time>
        <extensions>
          <ns3:TrackPointExtension>
            <ns3:hr>158</ns3:hr>
            <ns3:cad>81</ns3:cad>
          </ns3:TrackPointExtension>
        </extensions>
      </trkpt>
      <trkpt lat="42.61099775321781635284423828125" lon="2.725940085947513580322265625">
        <ele>300.20001220703125</ele>
        <time>2023-08-19T17:41:08.000Z</time>
        <extensions>
          <ns3:TrackPointExtension>
            <ns3:hr>157</ns3:hr>
            <ns3:cad>81</ns3:cad>
          </ns3:TrackPointExtension>
        </extensions>
      </trkpt>
      <trkpt lat="42.61101636104285717010498046875" lon="2.72592365741729736328125">
        <ele>300.399993896484375</ele>
        <time>2023-08-19T17:41:09.000Z</time>
        <extensions>
          <ns3:TrackPointExtension>
            <ns3:hr>157</ns3:hr>
            <ns3:cad>81</ns3:cad>
          </ns3:TrackPointExtension>
        </extensions>
      </trkpt>
      <trkpt lat="42.61102926917374134063720703125" lon="2.725905887782573699951171875">
        <ele>300.399993896484375</ele>
        <time>2023-08-19T17:41:10.000Z</time>
        <extensions>
          <ns3:TrackPointExtension>
            <ns3:hr>157</ns3:hr>
            <ns3:cad>81</ns3:cad>
          </ns3:TrackPointExtension>
        </extensions>
      </trkpt>
      <trkpt lat="42.6110481284558773040771484375" lon="2.72588367573916912078857421875">
        <ele>300.399993896484375</ele>
        <time>2023-08-19T17:41:11.000Z</time>
        <extensions>
          <ns3:TrackPointExtension>
            <ns3:hr>157</ns3:hr>
            <ns3:cad>80</ns3:cad>
          </ns3:TrackPointExtension>
        </extensions>
      </trkpt>
      <trkpt lat="42.61106531135737895965576171875" lon="2.72586129605770111083984375">
        <ele>300.399993896484375</ele>
        <time>2023-08-19T17:41:12.000Z</time>
        <extensions>
          <ns3:TrackPointExtension>
            <ns3:hr>157</ns3:hr>
            <ns3:cad>80</ns3:cad>
          </ns3:TrackPointExtension>
        </extensions>
      </trkpt>
      <trkpt lat="42.611072771251201629638671875" lon="2.725834809243679046630859375">
        <ele>300.600006103515625</ele>
        <time>2023-08-19T17:41:13.000Z</time>
        <extensions>
          <ns3:TrackPointExtension>
            <ns3:hr>157</ns3:hr>
            <ns3:cad>80</ns3:cad>
          </ns3:TrackPointExtension>
        </extensions>
      </trkpt>
      <trkpt lat="42.61108207516372203826904296875" lon="2.725808322429656982421875">
        <ele>300.600006103515625</ele>
        <time>2023-08-19T17:41:14.000Z</time>
        <extensions>
          <ns3:TrackPointExtension>
            <ns3:hr>157</ns3:hr>
            <ns3:cad>80</ns3:cad>
          </ns3:TrackPointExtension>
        </extensions>
      </trkpt>
      <trkpt lat="42.6110907085239887237548828125" lon="2.725781835615634918212890625">
        <ele>300.600006103515625</ele>
        <time>2023-08-19T17:41:15.000Z</time>
        <extensions>
          <ns3:TrackPointExtension>
            <ns3:hr>157</ns3:hr>
            <ns3:cad>79</ns3:cad>
          </ns3:TrackPointExtension>
        </extensions>
      </trkpt>
      <trkpt lat="42.6110980845987796783447265625" lon="2.72576071321964263916015625">
        <ele>300.600006103515625</ele>
        <time>2023-08-19T17:41:16.000Z</time>
        <extensions>
          <ns3:TrackPointExtension>
            <ns3:hr>157</ns3:hr>
            <ns3:cad>80</ns3:cad>
          </ns3:TrackPointExtension>
        </extensions>
      </trkpt>
      <trkpt lat="42.61110730469226837158203125" lon="2.72573380731046199798583984375">
        <ele>300.79998779296875</ele>
        <time>2023-08-19T17:41:17.000Z</time>
        <extensions>
          <ns3:TrackPointExtension>
            <ns3:hr>157</ns3:hr>
            <ns3:cad>81</ns3:cad>
          </ns3:TrackPointExtension>
        </extensions>
      </trkpt>
      <trkpt lat="42.6111185364425182342529296875" lon="2.72571084089577198028564453125">
        <ele>300.79998779296875</ele>
        <time>2023-08-19T17:41:18.000Z</time>
        <extensions>
          <ns3:TrackPointExtension>
            <ns3:hr>157</ns3:hr>
            <ns3:cad>80</ns3:cad>
          </ns3:TrackPointExtension>
        </extensions>
      </trkpt>
      <trkpt lat="42.61112884618341922760009765625" lon="2.72569005377590656280517578125">
        <ele>300.79998779296875</ele>
        <time>2023-08-19T17:41:19.000Z</time>
        <extensions>
          <ns3:TrackPointExtension>
            <ns3:hr>157</ns3:hr>
            <ns3:cad>80</ns3:cad>
          </ns3:TrackPointExtension>
        </extensions>
      </trkpt>
      <trkpt lat="42.61114443652331829071044921875" lon="2.725667171180248260498046875">
        <ele>301</ele>
        <time>2023-08-19T17:41:20.000Z</time>
        <extensions>
          <ns3:TrackPointExtension>
            <ns3:hr>157</ns3:hr>
            <ns3:cad>79</ns3:cad>
          </ns3:TrackPointExtension>
        </extensions>
      </trkpt>
      <trkpt lat="42.6111611165106296539306640625" lon="2.72564462386071681976318359375">
        <ele>301</ele>
        <time>2023-08-19T17:41:21.000Z</time>
        <extensions>
          <ns3:TrackPointExtension>
            <ns3:hr>157</ns3:hr>
            <ns3:cad>79</ns3:cad>
          </ns3:TrackPointExtension>
        </extensions>
      </trkpt>
      <trkpt lat="42.61117595247924327850341796875" lon="2.72561964578926563262939453125">
        <ele>301.20001220703125</ele>
        <time>2023-08-19T17:41:22.000Z</time>
        <extensions>
          <ns3:TrackPointExtension>
            <ns3:hr>157</ns3:hr>
            <ns3:cad>80</ns3:cad>
          </ns3:TrackPointExtension>
        </extensions>
      </trkpt>
      <trkpt lat="42.611195147037506103515625" lon="2.72559802047908306121826171875">
        <ele>301.20001220703125</ele>
        <time>2023-08-19T17:41:23.000Z</time>
        <extensions>
          <ns3:TrackPointExtension>
            <ns3:hr>157</ns3:hr>
            <ns3:cad>81</ns3:cad>
          </ns3:TrackPointExtension>
        </extensions>
      </trkpt>
      <trkpt lat="42.6112139225006103515625" lon="2.725578658282756805419921875">
        <ele>301.20001220703125</ele>
        <time>2023-08-19T17:41:24.000Z</time>
        <extensions>
          <ns3:TrackPointExtension>
            <ns3:hr>157</ns3:hr>
            <ns3:cad>82</ns3:cad>
          </ns3:TrackPointExtension>
        </extensions>
      </trkpt>
      <trkpt lat="42.61122976429760456085205078125" lon="2.72555644623935222625732421875">
        <ele>301.399993896484375</ele>
        <time>2023-08-19T17:41:25.000Z</time>
        <extensions>
          <ns3:TrackPointExtension>
            <ns3:hr>157</ns3:hr>
            <ns3:cad>82</ns3:cad>
          </ns3:TrackPointExtension>
        </extensions>
      </trkpt>
      <trkpt lat="42.61124384589493274688720703125" lon="2.72553272545337677001953125">
        <ele>301.399993896484375</ele>
        <time>2023-08-19T17:41:26.000Z</time>
        <extensions>
          <ns3:TrackPointExtension>
            <ns3:hr>157</ns3:hr>
            <ns3:cad>82</ns3:cad>
          </ns3:TrackPointExtension>
        </extensions>
      </trkpt>
      <trkpt lat="42.61125080287456512451171875" lon="2.72551218979060649871826171875">
        <ele>301.399993896484375</ele>
        <time>2023-08-19T17:41:27.000Z</time>
        <extensions>
          <ns3:TrackPointExtension>
            <ns3:hr>157</ns3:hr>
            <ns3:cad>82</ns3:cad>
          </ns3:TrackPointExtension>
        </extensions>
      </trkpt>
      <trkpt lat="42.61126966215670108795166015625" lon="2.7254876308143138885498046875">
        <ele>301.399993896484375</ele>
        <time>2023-08-19T17:41:28.000Z</time>
        <extensions>
          <ns3:TrackPointExtension>
            <ns3:hr>156</ns3:hr>
            <ns3:cad>83</ns3:cad>
          </ns3:TrackPointExtension>
        </extensions>
      </trkpt>
      <trkpt lat="42.6112905330955982208251953125" lon="2.72547899745404720306396484375">
        <ele>301.399993896484375</ele>
        <time>2023-08-19T17:41:29.000Z</time>
        <extensions>
          <ns3:TrackPointExtension>
            <ns3:hr>156</ns3:hr>
            <ns3:cad>82</ns3:cad>
          </ns3:TrackPointExtension>
        </extensions>
      </trkpt>
      <trkpt lat="42.61131115257740020751953125" lon="2.7254691906273365020751953125">
        <ele>301.399993896484375</ele>
        <time>2023-08-19T17:41:30.000Z</time>
        <extensions>
          <ns3:TrackPointExtension>
            <ns3:hr>156</ns3:hr>
            <ns3:cad>82</ns3:cad>
          </ns3:TrackPointExtension>
        </extensions>
      </trkpt>
      <trkpt lat="42.6113327778875827789306640625" lon="2.72545770741999149322509765625">
        <ele>301.399993896484375</ele>
        <time>2023-08-19T17:41:31.000Z</time>
        <extensions>
          <ns3:TrackPointExtension>
            <ns3:hr>156</ns3:hr>
            <ns3:cad>82</ns3:cad>
          </ns3:TrackPointExtension>
        </extensions>
      </trkpt>
      <trkpt lat="42.61134694330394268035888671875" lon="2.72543675266206264495849609375">
        <ele>301.399993896484375</ele>
        <time>2023-08-19T17:41:32.000Z</time>
        <extensions>
          <ns3:TrackPointExtension>
            <ns3:hr>156</ns3:hr>
            <ns3:cad>83</ns3:cad>
          </ns3:TrackPointExtension>
        </extensions>
      </trkpt>
      <trkpt lat="42.6113612763583660125732421875" lon="2.7254081703722476959228515625">
        <ele>301.600006103515625</ele>
        <time>2023-08-19T17:41:33.000Z</time>
        <extensions>
          <ns3:TrackPointExtension>
            <ns3:hr>156</ns3:hr>
            <ns3:cad>84</ns3:cad>
          </ns3:TrackPointExtension>
        </extensions>
      </trkpt>
      <trkpt lat="42.61137091554701328277587890625" lon="2.72538520395755767822265625">
        <ele>301.600006103515625</ele>
        <time>2023-08-19T17:41:34.000Z</time>
        <extensions>
          <ns3:TrackPointExtension>
            <ns3:hr>156</ns3:hr>
            <ns3:cad>83</ns3:cad>
          </ns3:TrackPointExtension>
        </extensions>
      </trkpt>
      <trkpt lat="42.6113686524331569671630859375" lon="2.7253555320203304290771484375">
        <ele>301.600006103515625</ele>
        <time>2023-08-19T17:41:35.000Z</time>
        <extensions>
          <ns3:TrackPointExtension>
            <ns3:hr>156</ns3:hr>
            <ns3:cad>84</ns3:cad>
          </ns3:TrackPointExtension>
        </extensions>
      </trkpt>
      <trkpt lat="42.61136756278574466705322265625" lon="2.72532510571181774139404296875">
        <ele>301.600006103515625</ele>
        <time>2023-08-19T17:41:36.000Z</time>
        <extensions>
          <ns3:TrackPointExtension>
            <ns3:hr>156</ns3:hr>
            <ns3:cad>84</ns3:cad>
          </ns3:TrackPointExtension>
        </extensions>
      </trkpt>
      <trkpt lat="42.611368484795093536376953125" lon="2.72529878653585910797119140625">
        <ele>301.600006103515625</ele>
        <time>2023-08-19T17:41:37.000Z</time>
        <extensions>
          <ns3:TrackPointExtension>
            <ns3:hr>156</ns3:hr>
            <ns3:cad>85</ns3:cad>
          </ns3:TrackPointExtension>
        </extensions>
      </trkpt>
      <trkpt lat="42.6113750226795673370361328125" lon="2.7252651751041412353515625">
        <ele>301.600006103515625</ele>
        <time>2023-08-19T17:41:38.000Z</time>
        <extensions>
          <ns3:TrackPointExtension>
            <ns3:hr>156</ns3:hr>
            <ns3:cad>84</ns3:cad>
          </ns3:TrackPointExtension>
        </extensions>
      </trkpt>
      <trkpt lat="42.61138717643916606903076171875" lon="2.72524966858327388763427734375">
        <ele>301.79998779296875</ele>
        <time>2023-08-19T17:41:39.000Z</time>
        <extensions>
          <ns3:TrackPointExtension>
            <ns3:hr>156</ns3:hr>
            <ns3:cad>84</ns3:cad>
          </ns3:TrackPointExtension>
        </extensions>
      </trkpt>
      <trkpt lat="42.61140360496938228607177734375" lon="2.72523500025272369384765625">
        <ele>302</ele>
        <time>2023-08-19T17:41:40.000Z</time>
        <extensions>
          <ns3:TrackPointExtension>
            <ns3:hr>156</ns3:hr>
            <ns3:cad>84</ns3:cad>
          </ns3:TrackPointExtension>
        </extensions>
      </trkpt>
      <trkpt lat="42.611422128975391387939453125" lon="2.72521798498928546905517578125">
        <ele>302.20001220703125</ele>
        <time>2023-08-19T17:41:41.000Z</time>
        <extensions>
          <ns3:TrackPointExtension>
            <ns3:hr>156</ns3:hr>
            <ns3:cad>84</ns3:cad>
          </ns3:TrackPointExtension>
        </extensions>
      </trkpt>
      <trkpt lat="42.61143453419208526611328125" lon="2.72519887425005435943603515625">
        <ele>302.20001220703125</ele>
        <time>2023-08-19T17:41:42.000Z</time>
        <extensions>
          <ns3:TrackPointExtension>
            <ns3:hr>156</ns3:hr>
            <ns3:cad>85</ns3:cad>
          </ns3:TrackPointExtension>
        </extensions>
      </trkpt>
      <trkpt lat="42.6114538125693798065185546875" lon="2.72517590783536434173583984375">
        <ele>302.20001220703125</ele>
        <time>2023-08-19T17:41:43.000Z</time>
        <extensions>
          <ns3:TrackPointExtension>
            <ns3:hr>156</ns3:hr>
            <ns3:cad>84</ns3:cad>
          </ns3:TrackPointExtension>
        </extensions>
      </trkpt>
      <trkpt lat="42.6114782877266407012939453125" lon="2.72516484372317790985107421875">
        <ele>302.20001220703125</ele>
        <time>2023-08-19T17:41:44.000Z</time>
        <extensions>
          <ns3:TrackPointExtension>
            <ns3:hr>156</ns3:hr>
            <ns3:cad>82</ns3:cad>
          </ns3:TrackPointExtension>
        </extensions>
      </trkpt>
      <trkpt lat="42.611496560275554656982421875" lon="2.72515662945806980133056640625">
        <ele>302.20001220703125</ele>
        <time>2023-08-19T17:41:45.000Z</time>
        <extensions>
          <ns3:TrackPointExtension>
            <ns3:hr>156</ns3:hr>
            <ns3:cad>82</ns3:cad>
          </ns3:TrackPointExtension>
        </extensions>
      </trkpt>
      <trkpt lat="42.6115191914141178131103515625" lon="2.7251369319856166839599609375">
        <ele>302.20001220703125</ele>
        <time>2023-08-19T17:41:46.000Z</time>
        <extensions>
          <ns3:TrackPointExtension>
            <ns3:hr>156</ns3:hr>
            <ns3:cad>82</ns3:cad>
          </ns3:TrackPointExtension>
        </extensions>
      </trkpt>
      <trkpt lat="42.61153017170727252960205078125" lon="2.72511698305606842041015625">
        <ele>302.20001220703125</ele>
        <time>2023-08-19T17:41:47.000Z</time>
        <extensions>
          <ns3:TrackPointExtension>
            <ns3:hr>156</ns3:hr>
            <ns3:cad>82</ns3:cad>
          </ns3:TrackPointExtension>
        </extensions>
      </trkpt>
      <trkpt lat="42.61154022999107837677001953125" lon="2.72508940659463405609130859375">
        <ele>302.20001220703125</ele>
        <time>2023-08-19T17:41:48.000Z</time>
        <extensions>
          <ns3:TrackPointExtension>
            <ns3:hr>156</ns3:hr>
            <ns3:cad>83</ns3:cad>
          </ns3:TrackPointExtension>
        </extensions>
      </trkpt>
      <trkpt lat="42.61154693551361560821533203125" lon="2.72506191395223140716552734375">
        <ele>302.20001220703125</ele>
        <time>2023-08-19T17:41:49.000Z</time>
        <extensions>
          <ns3:TrackPointExtension>
            <ns3:hr>156</ns3:hr>
            <ns3:cad>84</ns3:cad>
          </ns3:TrackPointExtension>
        </extensions>
      </trkpt>
      <trkpt lat="42.6115567423403263092041015625" lon="2.72504246793687343597412109375">
        <ele>302.20001220703125</ele>
        <time>2023-08-19T17:41:50.000Z</time>
        <extensions>
          <ns3:TrackPointExtension>
            <ns3:hr>156</ns3:hr>
            <ns3:cad>83</ns3:cad>
          </ns3:TrackPointExtension>
        </extensions>
      </trkpt>
      <trkpt lat="42.61157224886119365692138671875" lon="2.72501380182802677154541015625">
        <ele>302.399993896484375</ele>
        <time>2023-08-19T17:41:51.000Z</time>
        <extensions>
          <ns3:TrackPointExtension>
            <ns3:hr>156</ns3:hr>
            <ns3:cad>83</ns3:cad>
          </ns3:TrackPointExtension>
        </extensions>
      </trkpt>
      <trkpt lat="42.6115892641246318817138671875" lon="2.72499150596559047698974609375">
        <ele>302.399993896484375</ele>
        <time>2023-08-19T17:41:52.000Z</time>
        <extensions>
          <ns3:TrackPointExtension>
            <ns3:hr>156</ns3:hr>
            <ns3:cad>82</ns3:cad>
          </ns3:TrackPointExtension>
        </extensions>
      </trkpt>
      <trkpt lat="42.61160661466419696807861328125" lon="2.72496954537928104400634765625">
        <ele>302.600006103515625</ele>
        <time>2023-08-19T17:41:53.000Z</time>
        <extensions>
          <ns3:TrackPointExtension>
            <ns3:hr>156</ns3:hr>
            <ns3:cad>82</ns3:cad>
          </ns3:TrackPointExtension>
        </extensions>
      </trkpt>
      <trkpt lat="42.61162756942212581634521484375" lon="2.72494674660265445709228515625">
        <ele>302.600006103515625</ele>
        <time>2023-08-19T17:41:54.000Z</time>
        <extensions>
          <ns3:TrackPointExtension>
            <ns3:hr>156</ns3:hr>
            <ns3:cad>82</ns3:cad>
          </ns3:TrackPointExtension>
        </extensions>
      </trkpt>
      <trkpt lat="42.61164466850459575653076171875" lon="2.7249298989772796630859375">
        <ele>302.600006103515625</ele>
        <time>2023-08-19T17:41:55.000Z</time>
        <extensions>
          <ns3:TrackPointExtension>
            <ns3:hr>156</ns3:hr>
            <ns3:cad>82</ns3:cad>
          </ns3:TrackPointExtension>
        </extensions>
      </trkpt>
      <trkpt lat="42.61166076175868511199951171875" lon="2.72490953095257282257080078125">
        <ele>302.600006103515625</ele>
        <time>2023-08-19T17:41:56.000Z</time>
        <extensions>
          <ns3:TrackPointExtension>
            <ns3:hr>156</ns3:hr>
            <ns3:cad>82</ns3:cad>
          </ns3:TrackPointExtension>
        </extensions>
      </trkpt>
      <trkpt lat="42.61167149059474468231201171875" lon="2.7248821221292018890380859375">
        <ele>302.600006103515625</ele>
        <time>2023-08-19T17:41:57.000Z</time>
        <extensions>
          <ns3:TrackPointExtension>
            <ns3:hr>156</ns3:hr>
            <ns3:cad>82</ns3:cad>
          </ns3:TrackPointExtension>
        </extensions>
      </trkpt>
      <trkpt lat="42.61167434044182300567626953125" lon="2.7248573116958141326904296875">
        <ele>302.600006103515625</ele>
        <time>2023-08-19T17:41:58.000Z</time>
        <extensions>
          <ns3:TrackPointExtension>
            <ns3:hr>157</ns3:hr>
            <ns3:cad>81</ns3:cad>
          </ns3:TrackPointExtension>
        </extensions>
      </trkpt>
      <trkpt lat="42.61168389581143856048583984375" lon="2.72483023814857006072998046875">
        <ele>302.600006103515625</ele>
        <time>2023-08-19T17:41:59.000Z</time>
        <extensions>
          <ns3:TrackPointExtension>
            <ns3:hr>157</ns3:hr>
            <ns3:cad>81</ns3:cad>
          </ns3:TrackPointExtension>
        </extensions>
      </trkpt>
      <trkpt lat="42.6117062754929065704345703125" lon="2.7248217724263668060302734375">
        <ele>302.79998779296875</ele>
        <time>2023-08-19T17:42:00.000Z</time>
        <extensions>
          <ns3:TrackPointExtension>
            <ns3:hr>157</ns3:hr>
            <ns3:cad>83</ns3:cad>
          </ns3:TrackPointExtension>
        </extensions>
      </trkpt>
      <trkpt lat="42.611724548041820526123046875" lon="2.724807523190975189208984375">
        <ele>302.79998779296875</ele>
        <time>2023-08-19T17:42:01.000Z</time>
        <extensions>
          <ns3:TrackPointExtension>
            <ns3:hr>157</ns3:hr>
            <ns3:cad>83</ns3:cad>
          </ns3:TrackPointExtension>
        </extensions>
      </trkpt>
      <trkpt lat="42.61174759827554225921630859375" lon="2.72479914128780364990234375">
        <ele>302.79998779296875</ele>
        <time>2023-08-19T17:42:02.000Z</time>
        <extensions>
          <ns3:TrackPointExtension>
            <ns3:hr>156</ns3:hr>
            <ns3:cad>83</ns3:cad>
          </ns3:TrackPointExtension>
        </extensions>
      </trkpt>
      <trkpt lat="42.611770816147327423095703125" lon="2.72478715516626834869384765625">
        <ele>302.79998779296875</ele>
        <time>2023-08-19T17:42:03.000Z</time>
        <extensions>
          <ns3:TrackPointExtension>
            <ns3:hr>156</ns3:hr>
            <ns3:cad>82</ns3:cad>
          </ns3:TrackPointExtension>
        </extensions>
      </trkpt>
      <trkpt lat="42.61179068125784397125244140625" lon="2.7247704751789569854736328125">
        <ele>302.79998779296875</ele>
        <time>2023-08-19T17:42:04.000Z</time>
        <extensions>
          <ns3:TrackPointExtension>
            <ns3:hr>156</ns3:hr>
            <ns3:cad>82</ns3:cad>
          </ns3:TrackPointExtension>
        </extensions>
      </trkpt>
      <trkpt lat="42.611812390387058258056640625" lon="2.724743150174617767333984375">
        <ele>302.79998779296875</ele>
        <time>2023-08-19T17:42:05.000Z</time>
        <extensions>
          <ns3:TrackPointExtension>
            <ns3:hr>156</ns3:hr>
            <ns3:cad>82</ns3:cad>
          </ns3:TrackPointExtension>
        </extensions>
      </trkpt>
      <trkpt lat="42.61182303540408611297607421875" lon="2.7247205190360546112060546875">
        <ele>302.79998779296875</ele>
        <time>2023-08-19T17:42:06.000Z</time>
        <extensions>
          <ns3:TrackPointExtension>
            <ns3:hr>156</ns3:hr>
            <ns3:cad>82</ns3:cad>
          </ns3:TrackPointExtension>
        </extensions>
      </trkpt>
      <trkpt lat="42.6118296571075916290283203125" lon="2.72468925453722476959228515625">
        <ele>302.79998779296875</ele>
        <time>2023-08-19T17:42:07.000Z</time>
        <extensions>
          <ns3:TrackPointExtension>
            <ns3:hr>156</ns3:hr>
            <ns3:cad>82</ns3:cad>
          </ns3:TrackPointExtension>
        </extensions>
      </trkpt>
      <trkpt lat="42.61184097267687320709228515625" lon="2.724659331142902374267578125">
        <ele>302.79998779296875</ele>
        <time>2023-08-19T17:42:08.000Z</time>
        <extensions>
          <ns3:TrackPointExtension>
            <ns3:hr>156</ns3:hr>
            <ns3:cad>82</ns3:cad>
          </ns3:TrackPointExtension>
        </extensions>
      </trkpt>
      <trkpt lat="42.61184968985617160797119140625" lon="2.72463393397629261016845703125">
        <ele>303</ele>
        <time>2023-08-19T17:42:09.000Z</time>
        <extensions>
          <ns3:TrackPointExtension>
            <ns3:hr>156</ns3:hr>
            <ns3:cad>82</ns3:cad>
          </ns3:TrackPointExtension>
        </extensions>
      </trkpt>
      <trkpt lat="42.6118598319590091705322265625" lon="2.72460174746811389923095703125">
        <ele>303</ele>
        <time>2023-08-19T17:42:10.000Z</time>
        <extensions>
          <ns3:TrackPointExtension>
            <ns3:hr>156</ns3:hr>
            <ns3:cad>81</ns3:cad>
          </ns3:TrackPointExtension>
        </extensions>
      </trkpt>
      <trkpt lat="42.61187148280441761016845703125" lon="2.7245726622641086578369140625">
        <ele>303</ele>
        <time>2023-08-19T17:42:11.000Z</time>
        <extensions>
          <ns3:TrackPointExtension>
            <ns3:hr>155</ns3:hr>
            <ns3:cad>81</ns3:cad>
          </ns3:TrackPointExtension>
        </extensions>
      </trkpt>
      <trkpt lat="42.61187885887920856475830078125" lon="2.72455112077295780181884765625">
        <ele>303.20001220703125</ele>
        <time>2023-08-19T17:42:12.000Z</time>
        <extensions>
          <ns3:TrackPointExtension>
            <ns3:hr>155</ns3:hr>
            <ns3:cad>81</ns3:cad>
          </ns3:TrackPointExtension>
        </extensions>
      </trkpt>
      <trkpt lat="42.61189009062945842742919921875" lon="2.72452413104474544525146484375">
        <ele>303.399993896484375</ele>
        <time>2023-08-19T17:42:13.000Z</time>
        <extensions>
          <ns3:TrackPointExtension>
            <ns3:hr>155</ns3:hr>
            <ns3:cad>81</ns3:cad>
          </ns3:TrackPointExtension>
        </extensions>
      </trkpt>
      <trkpt lat="42.61189855635166168212890625" lon="2.7244995720684528350830078125">
        <ele>303.399993896484375</ele>
        <time>2023-08-19T17:42:14.000Z</time>
        <extensions>
          <ns3:TrackPointExtension>
            <ns3:hr>155</ns3:hr>
            <ns3:cad>81</ns3:cad>
          </ns3:TrackPointExtension>
        </extensions>
      </trkpt>
      <trkpt lat="42.61190718971192836761474609375" lon="2.724477946758270263671875">
        <ele>303.600006103515625</ele>
        <time>2023-08-19T17:42:15.000Z</time>
        <extensions>
          <ns3:TrackPointExtension>
            <ns3:hr>155</ns3:hr>
            <ns3:cad>82</ns3:cad>
          </ns3:TrackPointExtension>
        </extensions>
      </trkpt>
      <trkpt lat="42.61192160658538341522216796875" lon="2.724453471601009368896484375">
        <ele>303.600006103515625</ele>
        <time>2023-08-19T17:42:16.000Z</time>
        <extensions>
          <ns3:TrackPointExtension>
            <ns3:hr>155</ns3:hr>
            <ns3:cad>82</ns3:cad>
          </ns3:TrackPointExtension>
        </extensions>
      </trkpt>
      <trkpt lat="42.61193468235433101654052734375" lon="2.7244325168430805206298828125">
        <ele>303.79998779296875</ele>
        <time>2023-08-19T17:42:17.000Z</time>
        <extensions>
          <ns3:TrackPointExtension>
            <ns3:hr>155</ns3:hr>
            <ns3:cad>81</ns3:cad>
          </ns3:TrackPointExtension>
        </extensions>
      </trkpt>
      <trkpt lat="42.6119429804384708404541015625" lon="2.724407874047756195068359375">
        <ele>303.79998779296875</ele>
        <time>2023-08-19T17:42:18.000Z</time>
        <extensions>
          <ns3:TrackPointExtension>
            <ns3:hr>155</ns3:hr>
            <ns3:cad>81</ns3:cad>
          </ns3:TrackPointExtension>
        </extensions>
      </trkpt>
      <trkpt lat="42.61195295490324497222900390625" lon="2.724376022815704345703125">
        <ele>303.79998779296875</ele>
        <time>2023-08-19T17:42:19.000Z</time>
        <extensions>
          <ns3:TrackPointExtension>
            <ns3:hr>154</ns3:hr>
            <ns3:cad>81</ns3:cad>
          </ns3:TrackPointExtension>
        </extensions>
      </trkpt>
      <trkpt lat="42.611951529979705810546875" lon="2.72435196675360202789306640625">
        <ele>304</ele>
        <time>2023-08-19T17:42:20.000Z</time>
        <extensions>
          <ns3:TrackPointExtension>
            <ns3:hr>154</ns3:hr>
            <ns3:cad>81</ns3:cad>
          </ns3:TrackPointExtension>
        </extensions>
      </trkpt>
      <trkpt lat="42.6119493506848812103271484375" lon="2.7243208698928356170654296875">
        <ele>304</ele>
        <time>2023-08-19T17:42:21.000Z</time>
        <extensions>
          <ns3:TrackPointExtension>
            <ns3:hr>154</ns3:hr>
            <ns3:cad>81</ns3:cad>
          </ns3:TrackPointExtension>
        </extensions>
      </trkpt>
      <trkpt lat="42.6119480095803737640380859375" lon="2.7242927066981792449951171875">
        <ele>304.20001220703125</ele>
        <time>2023-08-19T17:42:22.000Z</time>
        <extensions>
          <ns3:TrackPointExtension>
            <ns3:hr>154</ns3:hr>
            <ns3:cad>82</ns3:cad>
          </ns3:TrackPointExtension>
        </extensions>
      </trkpt>
      <trkpt lat="42.61194608174264430999755859375" lon="2.724264375865459442138671875">
        <ele>304.20001220703125</ele>
        <time>2023-08-19T17:42:23.000Z</time>
        <extensions>
          <ns3:TrackPointExtension>
            <ns3:hr>154</ns3:hr>
            <ns3:cad>82</ns3:cad>
          </ns3:TrackPointExtension>
        </extensions>
      </trkpt>
      <trkpt lat="42.6119416393339633941650390625" lon="2.72423612885177135467529296875">
        <ele>304.399993896484375</ele>
        <time>2023-08-19T17:42:24.000Z</time>
        <extensions>
          <ns3:TrackPointExtension>
            <ns3:hr>155</ns3:hr>
            <ns3:cad>82</ns3:cad>
          </ns3:TrackPointExtension>
        </extensions>
      </trkpt>
      <trkpt lat="42.611939795315265655517578125" lon="2.724204026162624359130859375">
        <ele>304.399993896484375</ele>
        <time>2023-08-19T17:42:25.000Z</time>
        <extensions>
          <ns3:TrackPointExtension>
            <ns3:hr>155</ns3:hr>
            <ns3:cad>81</ns3:cad>
          </ns3:TrackPointExtension>
        </extensions>
      </trkpt>
      <trkpt lat="42.61193602345883846282958984375" lon="2.7241777069866657257080078125">
        <ele>304.600006103515625</ele>
        <time>2023-08-19T17:42:26.000Z</time>
        <extensions>
          <ns3:TrackPointExtension>
            <ns3:hr>155</ns3:hr>
            <ns3:cad>81</ns3:cad>
          </ns3:TrackPointExtension>
        </extensions>
      </trkpt>
      <trkpt lat="42.6119314134120941162109375" lon="2.724148370325565338134765625">
        <ele>304.79998779296875</ele>
        <time>2023-08-19T17:42:27.000Z</time>
        <extensions>
          <ns3:TrackPointExtension>
            <ns3:hr>155</ns3:hr>
            <ns3:cad>80</ns3:cad>
          </ns3:TrackPointExtension>
        </extensions>
      </trkpt>
      <trkpt lat="42.6119315810501575469970703125" lon="2.72411593236029148101806640625">
        <ele>305</ele>
        <time>2023-08-19T17:42:28.000Z</time>
        <extensions>
          <ns3:TrackPointExtension>
            <ns3:hr>155</ns3:hr>
            <ns3:cad>80</ns3:cad>
          </ns3:TrackPointExtension>
        </extensions>
      </trkpt>
      <trkpt lat="42.61193216778337955474853515625" lon="2.72409128956496715545654296875">
        <ele>305.20001220703125</ele>
        <time>2023-08-19T17:42:29.000Z</time>
        <extensions>
          <ns3:TrackPointExtension>
            <ns3:hr>155</ns3:hr>
            <ns3:cad>80</ns3:cad>
          </ns3:TrackPointExtension>
        </extensions>
      </trkpt>
      <trkpt lat="42.611930407583713531494140625" lon="2.72406161762773990631103515625">
        <ele>305.20001220703125</ele>
        <time>2023-08-19T17:42:30.000Z</time>
        <extensions>
          <ns3:TrackPointExtension>
            <ns3:hr>155</ns3:hr>
            <ns3:cad>80</ns3:cad>
          </ns3:TrackPointExtension>
        </extensions>
      </trkpt>
      <trkpt lat="42.61193811893463134765625" lon="2.72403244860470294952392578125">
        <ele>305.399993896484375</ele>
        <time>2023-08-19T17:42:31.000Z</time>
        <extensions>
          <ns3:TrackPointExtension>
            <ns3:hr>155</ns3:hr>
            <ns3:cad>80</ns3:cad>
          </ns3:TrackPointExtension>
        </extensions>
      </trkpt>
      <trkpt lat="42.6119433157145977020263671875" lon="2.72400881163775920867919921875">
        <ele>305.600006103515625</ele>
        <time>2023-08-19T17:42:32.000Z</time>
        <extensions>
          <ns3:TrackPointExtension>
            <ns3:hr>155</ns3:hr>
            <ns3:cad>80</ns3:cad>
          </ns3:TrackPointExtension>
        </extensions>
      </trkpt>
      <trkpt lat="42.61194960214197635650634765625" lon="2.72398299537599086761474609375">
        <ele>305.600006103515625</ele>
        <time>2023-08-19T17:42:33.000Z</time>
        <extensions>
          <ns3:TrackPointExtension>
            <ns3:hr>156</ns3:hr>
            <ns3:cad>80</ns3:cad>
          </ns3:TrackPointExtension>
        </extensions>
      </trkpt>
      <trkpt lat="42.61195647530257701873779296875" lon="2.7239557541906833648681640625">
        <ele>305.79998779296875</ele>
        <time>2023-08-19T17:42:34.000Z</time>
        <extensions>
          <ns3:TrackPointExtension>
            <ns3:hr>156</ns3:hr>
            <ns3:cad>80</ns3:cad>
          </ns3:TrackPointExtension>
        </extensions>
      </trkpt>
      <trkpt lat="42.611962594091892242431640625" lon="2.72393119521439075469970703125">
        <ele>305.79998779296875</ele>
        <time>2023-08-19T17:42:35.000Z</time>
        <extensions>
          <ns3:TrackPointExtension>
            <ns3:hr>156</ns3:hr>
            <ns3:cad>80</ns3:cad>
          </ns3:TrackPointExtension>
        </extensions>
      </trkpt>
      <trkpt lat="42.61197173036634922027587890625" lon="2.72390604950487613677978515625">
        <ele>306</ele>
        <time>2023-08-19T17:42:36.000Z</time>
        <extensions>
          <ns3:TrackPointExtension>
            <ns3:hr>156</ns3:hr>
            <ns3:cad>80</ns3:cad>
          </ns3:TrackPointExtension>
        </extensions>
      </trkpt>
      <trkpt lat="42.6119877398014068603515625" lon="2.72387855686247348785400390625">
        <ele>306.20001220703125</ele>
        <time>2023-08-19T17:42:37.000Z</time>
        <extensions>
          <ns3:TrackPointExtension>
            <ns3:hr>157</ns3:hr>
            <ns3:cad>80</ns3:cad>
          </ns3:TrackPointExtension>
        </extensions>
      </trkpt>
      <trkpt lat="42.61200542561709880828857421875" lon="2.723861373960971832275390625">
        <ele>306.20001220703125</ele>
        <time>2023-08-19T17:42:38.000Z</time>
        <extensions>
          <ns3:TrackPointExtension>
            <ns3:hr>157</ns3:hr>
            <ns3:cad>79</ns3:cad>
          </ns3:TrackPointExtension>
        </extensions>
      </trkpt>
      <trkpt lat="42.61201799847185611724853515625" lon="2.72384469397366046905517578125">
        <ele>306.399993896484375</ele>
        <time>2023-08-19T17:42:39.000Z</time>
        <extensions>
          <ns3:TrackPointExtension>
            <ns3:hr>157</ns3:hr>
            <ns3:cad>79</ns3:cad>
          </ns3:TrackPointExtension>
        </extensions>
      </trkpt>
      <trkpt lat="42.612033002078533172607421875" lon="2.723825164139270782470703125">
        <ele>306.399993896484375</ele>
        <time>2023-08-19T17:42:40.000Z</time>
        <extensions>
          <ns3:TrackPointExtension>
            <ns3:hr>157</ns3:hr>
            <ns3:cad>78</ns3:cad>
          </ns3:TrackPointExtension>
        </extensions>
      </trkpt>
      <trkpt lat="42.6120469160377979278564453125" lon="2.7238129265606403350830078125">
        <ele>306.600006103515625</ele>
        <time>2023-08-19T17:42:41.000Z</time>
        <extensions>
          <ns3:TrackPointExtension>
            <ns3:hr>157</ns3:hr>
            <ns3:cad>79</ns3:cad>
          </ns3:TrackPointExtension>
        </extensions>
      </trkpt>
      <trkpt lat="42.612060494720935821533203125" lon="2.72379959933459758758544921875">
        <ele>306.600006103515625</ele>
        <time>2023-08-19T17:42:42.000Z</time>
        <extensions>
          <ns3:TrackPointExtension>
            <ns3:hr>156</ns3:hr>
            <ns3:cad>79</ns3:cad>
          </ns3:TrackPointExtension>
        </extensions>
      </trkpt>
      <trkpt lat="42.61207935400307178497314453125" lon="2.72378333844244480133056640625">
        <ele>306.79998779296875</ele>
        <time>2023-08-19T17:42:43.000Z</time>
        <extensions>
          <ns3:TrackPointExtension>
            <ns3:hr>156</ns3:hr>
            <ns3:cad>79</ns3:cad>
          </ns3:TrackPointExtension>
        </extensions>
      </trkpt>
      <trkpt lat="42.61209712363779544830322265625" lon="2.7237711846828460693359375">
        <ele>307</ele>
        <time>2023-08-19T17:42:44.000Z</time>
        <extensions>
          <ns3:TrackPointExtension>
            <ns3:hr>156</ns3:hr>
            <ns3:cad>80</ns3:cad>
          </ns3:TrackPointExtension>
        </extensions>
      </trkpt>
      <trkpt lat="42.61211053468286991119384765625" lon="2.723753750324249267578125">
        <ele>307.20001220703125</ele>
        <time>2023-08-19T17:42:45.000Z</time>
        <extensions>
          <ns3:TrackPointExtension>
            <ns3:hr>156</ns3:hr>
            <ns3:cad>79</ns3:cad>
          </ns3:TrackPointExtension>
        </extensions>
      </trkpt>
      <trkpt lat="42.612126879394054412841796875" lon="2.72373438812792301177978515625">
        <ele>307.20001220703125</ele>
        <time>2023-08-19T17:42:46.000Z</time>
        <extensions>
          <ns3:TrackPointExtension>
            <ns3:hr>156</ns3:hr>
            <ns3:cad>80</ns3:cad>
          </ns3:TrackPointExtension>
        </extensions>
      </trkpt>
      <trkpt lat="42.612136267125606536865234375" lon="2.72371427156031131744384765625">
        <ele>307.20001220703125</ele>
        <time>2023-08-19T17:42:47.000Z</time>
        <extensions>
          <ns3:TrackPointExtension>
            <ns3:hr>156</ns3:hr>
            <ns3:cad>80</ns3:cad>
          </ns3:TrackPointExtension>
        </extensions>
      </trkpt>
      <trkpt lat="42.61214406229555606842041015625" lon="2.7236949093639850616455078125">
        <ele>307.20001220703125</ele>
        <time>2023-08-19T17:42:48.000Z</time>
        <extensions>
          <ns3:TrackPointExtension>
            <ns3:hr>156</ns3:hr>
            <ns3:cad>81</ns3:cad>
          </ns3:TrackPointExtension>
        </extensions>
      </trkpt>
      <trkpt lat="42.61215378530323505401611328125" lon="2.7236690931022167205810546875">
        <ele>307.399993896484375</ele>
        <time>2023-08-19T17:42:49.000Z</time>
        <extensions>
          <ns3:TrackPointExtension>
            <ns3:hr>156</ns3:hr>
            <ns3:cad>81</ns3:cad>
          </ns3:TrackPointExtension>
        </extensions>
      </trkpt>
      <trkpt lat="42.61216518469154834747314453125" lon="2.72365191020071506500244140625">
        <ele>307.399993896484375</ele>
        <time>2023-08-19T17:42:50.000Z</time>
        <extensions>
          <ns3:TrackPointExtension>
            <ns3:hr>156</ns3:hr>
            <ns3:cad>81</ns3:cad>
          </ns3:TrackPointExtension>
        </extensions>
      </trkpt>
      <trkpt lat="42.6121776737272739410400390625" lon="2.72363229654729366302490234375">
        <ele>307.600006103515625</ele>
        <time>2023-08-19T17:42:51.000Z</time>
        <extensions>
          <ns3:TrackPointExtension>
            <ns3:hr>156</ns3:hr>
            <ns3:cad>81</ns3:cad>
          </ns3:TrackPointExtension>
        </extensions>
      </trkpt>
      <trkpt lat="42.6121954433619976043701171875" lon="2.72361033596098423004150390625">
        <ele>307.600006103515625</ele>
        <time>2023-08-19T17:42:52.000Z</time>
        <extensions>
          <ns3:TrackPointExtension>
            <ns3:hr>156</ns3:hr>
            <ns3:cad>81</ns3:cad>
          </ns3:TrackPointExtension>
        </extensions>
      </trkpt>
      <trkpt lat="42.61220977641642093658447265625" lon="2.72359273396432399749755859375">
        <ele>307.79998779296875</ele>
        <time>2023-08-19T17:42:53.000Z</time>
        <extensions>
          <ns3:TrackPointExtension>
            <ns3:hr>156</ns3:hr>
            <ns3:cad>80</ns3:cad>
          </ns3:TrackPointExtension>
        </extensions>
      </trkpt>
      <trkpt lat="42.61222134344279766082763671875" lon="2.723571360111236572265625">
        <ele>308</ele>
        <time>2023-08-19T17:42:54.000Z</time>
        <extensions>
          <ns3:TrackPointExtension>
            <ns3:hr>156</ns3:hr>
            <ns3:cad>80</ns3:cad>
          </ns3:TrackPointExtension>
        </extensions>
      </trkpt>
      <trkpt lat="42.61223408393561840057373046875" lon="2.72354881279170513153076171875">
        <ele>308</ele>
        <time>2023-08-19T17:42:55.000Z</time>
        <extensions>
          <ns3:TrackPointExtension>
            <ns3:hr>156</ns3:hr>
            <ns3:cad>80</ns3:cad>
          </ns3:TrackPointExtension>
        </extensions>
      </trkpt>
      <trkpt lat="42.6122433878481388092041015625" lon="2.723523080348968505859375">
        <ele>308.20001220703125</ele>
        <time>2023-08-19T17:42:56.000Z</time>
        <extensions>
          <ns3:TrackPointExtension>
            <ns3:hr>156</ns3:hr>
            <ns3:cad>80</ns3:cad>
          </ns3:TrackPointExtension>
        </extensions>
      </trkpt>
      <trkpt lat="42.612254954874515533447265625" lon="2.72349768318235874176025390625">
        <ele>308.20001220703125</ele>
        <time>2023-08-19T17:42:57.000Z</time>
        <extensions>
          <ns3:TrackPointExtension>
            <ns3:hr>156</ns3:hr>
            <ns3:cad>80</ns3:cad>
          </ns3:TrackPointExtension>
        </extensions>
      </trkpt>
      <trkpt lat="42.612268365919589996337890625" lon="2.72347337566316127777099609375">
        <ele>308.20001220703125</ele>
        <time>2023-08-19T17:42:58.000Z</time>
        <extensions>
          <ns3:TrackPointExtension>
            <ns3:hr>156</ns3:hr>
            <ns3:cad>81</ns3:cad>
          </ns3:TrackPointExtension>
        </extensions>
      </trkpt>
      <trkpt lat="42.6122755743563175201416015625" lon="2.72345225326716899871826171875">
        <ele>308.20001220703125</ele>
        <time>2023-08-19T17:42:59.000Z</time>
        <extensions>
          <ns3:TrackPointExtension>
            <ns3:hr>156</ns3:hr>
            <ns3:cad>81</ns3:cad>
          </ns3:TrackPointExtension>
        </extensions>
      </trkpt>
      <trkpt lat="42.61229217052459716796875" lon="2.7234327234327793121337890625">
        <ele>308.399993896484375</ele>
        <time>2023-08-19T17:43:00.000Z</time>
        <extensions>
          <ns3:TrackPointExtension>
            <ns3:hr>156</ns3:hr>
            <ns3:cad>81</ns3:cad>
          </ns3:TrackPointExtension>
        </extensions>
      </trkpt>
      <trkpt lat="42.61230801232159137725830078125" lon="2.72341118194162845611572265625">
        <ele>308.600006103515625</ele>
        <time>2023-08-19T17:43:01.000Z</time>
        <extensions>
          <ns3:TrackPointExtension>
            <ns3:hr>156</ns3:hr>
            <ns3:cad>82</ns3:cad>
          </ns3:TrackPointExtension>
        </extensions>
      </trkpt>
      <trkpt lat="42.61232192628085613250732421875" lon="2.72338888607919216156005859375">
        <ele>308.600006103515625</ele>
        <time>2023-08-19T17:43:02.000Z</time>
        <extensions>
          <ns3:TrackPointExtension>
            <ns3:hr>156</ns3:hr>
            <ns3:cad>82</ns3:cad>
          </ns3:TrackPointExtension>
        </extensions>
      </trkpt>
      <trkpt lat="42.61233843863010406494140625" lon="2.7233646623790264129638671875">
        <ele>308.79998779296875</ele>
        <time>2023-08-19T17:43:03.000Z</time>
        <extensions>
          <ns3:TrackPointExtension>
            <ns3:hr>156</ns3:hr>
            <ns3:cad>82</ns3:cad>
          </ns3:TrackPointExtension>
        </extensions>
      </trkpt>
      <trkpt lat="42.61235478334128856658935546875" lon="2.72334328852593898773193359375">
        <ele>308.79998779296875</ele>
        <time>2023-08-19T17:43:04.000Z</time>
        <extensions>
          <ns3:TrackPointExtension>
            <ns3:hr>156</ns3:hr>
            <ns3:cad>81</ns3:cad>
          </ns3:TrackPointExtension>
        </extensions>
      </trkpt>
      <trkpt lat="42.6123674400150775909423828125" lon="2.723324596881866455078125">
        <ele>308.79998779296875</ele>
        <time>2023-08-19T17:43:05.000Z</time>
        <extensions>
          <ns3:TrackPointExtension>
            <ns3:hr>155</ns3:hr>
            <ns3:cad>81</ns3:cad>
          </ns3:TrackPointExtension>
        </extensions>
      </trkpt>
      <trkpt lat="42.612383700907230377197265625" lon="2.72329869680106639862060546875">
        <ele>308.79998779296875</ele>
        <time>2023-08-19T17:43:06.000Z</time>
        <extensions>
          <ns3:TrackPointExtension>
            <ns3:hr>155</ns3:hr>
            <ns3:cad>81</ns3:cad>
          </ns3:TrackPointExtension>
        </extensions>
      </trkpt>
      <trkpt lat="42.612394429743289947509765625" lon="2.72327891550958156585693359375">
        <ele>308.79998779296875</ele>
        <time>2023-08-19T17:43:07.000Z</time>
        <extensions>
          <ns3:TrackPointExtension>
            <ns3:hr>155</ns3:hr>
            <ns3:cad>81</ns3:cad>
          </ns3:TrackPointExtension>
        </extensions>
      </trkpt>
      <trkpt lat="42.61240658350288867950439453125" lon="2.72325494326651096343994140625">
        <ele>308.79998779296875</ele>
        <time>2023-08-19T17:43:08.000Z</time>
        <extensions>
          <ns3:TrackPointExtension>
            <ns3:hr>155</ns3:hr>
            <ns3:cad>81</ns3:cad>
          </ns3:TrackPointExtension>
        </extensions>
      </trkpt>
      <trkpt lat="42.6124207489192485809326171875" lon="2.72323164157569408416748046875">
        <ele>308.79998779296875</ele>
        <time>2023-08-19T17:43:09.000Z</time>
        <extensions>
          <ns3:TrackPointExtension>
            <ns3:hr>155</ns3:hr>
            <ns3:cad>81</ns3:cad>
          </ns3:TrackPointExtension>
        </extensions>
      </trkpt>
      <trkpt lat="42.61243323795497417449951171875" lon="2.7232137881219387054443359375">
        <ele>309</ele>
        <time>2023-08-19T17:43:10.000Z</time>
        <extensions>
          <ns3:TrackPointExtension>
            <ns3:hr>155</ns3:hr>
            <ns3:cad>80</ns3:cad>
          </ns3:TrackPointExtension>
        </extensions>
      </trkpt>
      <trkpt lat="42.61244614608585834503173828125" lon="2.72319392301142215728759765625">
        <ele>309</ele>
        <time>2023-08-19T17:43:11.000Z</time>
        <extensions>
          <ns3:TrackPointExtension>
            <ns3:hr>155</ns3:hr>
            <ns3:cad>80</ns3:cad>
          </ns3:TrackPointExtension>
        </extensions>
      </trkpt>
      <trkpt lat="42.61246257461607456207275390625" lon="2.72317011840641498565673828125">
        <ele>309</ele>
        <time>2023-08-19T17:43:12.000Z</time>
        <extensions>
          <ns3:TrackPointExtension>
            <ns3:hr>155</ns3:hr>
            <ns3:cad>80</ns3:cad>
          </ns3:TrackPointExtension>
        </extensions>
      </trkpt>
      <trkpt lat="42.61247657239437103271484375" lon="2.72315352223813533782958984375">
        <ele>309</ele>
        <time>2023-08-19T17:43:13.000Z</time>
        <extensions>
          <ns3:TrackPointExtension>
            <ns3:hr>155</ns3:hr>
            <ns3:cad>80</ns3:cad>
          </ns3:TrackPointExtension>
        </extensions>
      </trkpt>
      <trkpt lat="42.61249124072492122650146484375" lon="2.7231366746127605438232421875">
        <ele>309</ele>
        <time>2023-08-19T17:43:14.000Z</time>
        <extensions>
          <ns3:TrackPointExtension>
            <ns3:hr>155</ns3:hr>
            <ns3:cad>80</ns3:cad>
          </ns3:TrackPointExtension>
        </extensions>
      </trkpt>
      <trkpt lat="42.6125092618167400360107421875" lon="2.72311739623546600341796875">
        <ele>309</ele>
        <time>2023-08-19T17:43:15.000Z</time>
        <extensions>
          <ns3:TrackPointExtension>
            <ns3:hr>155</ns3:hr>
            <ns3:cad>81</ns3:cad>
          </ns3:TrackPointExtension>
        </extensions>
      </trkpt>
      <trkpt lat="42.61252108030021190643310546875" lon="2.72309971041977405548095703125">
        <ele>309</ele>
        <time>2023-08-19T17:43:16.000Z</time>
        <extensions>
          <ns3:TrackPointExtension>
            <ns3:hr>155</ns3:hr>
            <ns3:cad>81</ns3:cad>
          </ns3:TrackPointExtension>
        </extensions>
      </trkpt>
      <trkpt lat="42.61253298260271549224853515625" lon="2.72307842038571834564208984375">
        <ele>309.20001220703125</ele>
        <time>2023-08-19T17:43:17.000Z</time>
        <extensions>
          <ns3:TrackPointExtension>
            <ns3:hr>155</ns3:hr>
            <ns3:cad>81</ns3:cad>
          </ns3:TrackPointExtension>
        </extensions>
      </trkpt>
      <trkpt lat="42.61255033314228057861328125" lon="2.72305310703814029693603515625">
        <ele>309.20001220703125</ele>
        <time>2023-08-19T17:43:18.000Z</time>
        <extensions>
          <ns3:TrackPointExtension>
            <ns3:hr>155</ns3:hr>
            <ns3:cad>80</ns3:cad>
          </ns3:TrackPointExtension>
        </extensions>
      </trkpt>
      <trkpt lat="42.61256298981606960296630859375" lon="2.7230310626327991485595703125">
        <ele>309.20001220703125</ele>
        <time>2023-08-19T17:43:19.000Z</time>
        <extensions>
          <ns3:TrackPointExtension>
            <ns3:hr>155</ns3:hr>
            <ns3:cad>80</ns3:cad>
          </ns3:TrackPointExtension>
        </extensions>
      </trkpt>
      <trkpt lat="42.6125805079936981201171875" lon="2.72300784476101398468017578125">
        <ele>309.20001220703125</ele>
        <time>2023-08-19T17:43:20.000Z</time>
        <extensions>
          <ns3:TrackPointExtension>
            <ns3:hr>155</ns3:hr>
            <ns3:cad>81</ns3:cad>
          </ns3:TrackPointExtension>
        </extensions>
      </trkpt>
      <trkpt lat="42.61259752325713634490966796875" lon="2.7229868061840534210205078125">
        <ele>309.20001220703125</ele>
        <time>2023-08-19T17:43:21.000Z</time>
        <extensions>
          <ns3:TrackPointExtension>
            <ns3:hr>155</ns3:hr>
            <ns3:cad>81</ns3:cad>
          </ns3:TrackPointExtension>
        </extensions>
      </trkpt>
      <trkpt lat="42.6126095093786716461181640625" lon="2.72296945564448833465576171875">
        <ele>309.20001220703125</ele>
        <time>2023-08-19T17:43:22.000Z</time>
        <extensions>
          <ns3:TrackPointExtension>
            <ns3:hr>154</ns3:hr>
            <ns3:cad>81</ns3:cad>
          </ns3:TrackPointExtension>
        </extensions>
      </trkpt>
      <trkpt lat="42.61262853629887104034423828125" lon="2.7229492552578449249267578125">
        <ele>309.399993896484375</ele>
        <time>2023-08-19T17:43:23.000Z</time>
        <extensions>
          <ns3:TrackPointExtension>
            <ns3:hr>154</ns3:hr>
            <ns3:cad>81</ns3:cad>
          </ns3:TrackPointExtension>
        </extensions>
      </trkpt>
      <trkpt lat="42.6126480661332607269287109375" lon="2.7229308150708675384521484375">
        <ele>309.399993896484375</ele>
        <time>2023-08-19T17:43:24.000Z</time>
        <extensions>
          <ns3:TrackPointExtension>
            <ns3:hr>154</ns3:hr>
            <ns3:cad>81</ns3:cad>
          </ns3:TrackPointExtension>
        </extensions>
      </trkpt>
      <trkpt lat="42.6126648299396038055419921875" lon="2.7229100279510021209716796875">
        <ele>309.399993896484375</ele>
        <time>2023-08-19T17:43:25.000Z</time>
        <extensions>
          <ns3:TrackPointExtension>
            <ns3:hr>154</ns3:hr>
            <ns3:cad>82</ns3:cad>
          </ns3:TrackPointExtension>
        </extensions>
      </trkpt>
      <trkpt lat="42.61268704198300838470458984375" lon="2.72288697771728038787841796875">
        <ele>309.399993896484375</ele>
        <time>2023-08-19T17:43:26.000Z</time>
        <extensions>
          <ns3:TrackPointExtension>
            <ns3:hr>153</ns3:hr>
            <ns3:cad>82</ns3:cad>
          </ns3:TrackPointExtension>
        </extensions>
      </trkpt>
      <trkpt lat="42.6127064041793346405029296875" lon="2.72286853753030300140380859375">
        <ele>309.20001220703125</ele>
        <time>2023-08-19T17:43:27.000Z</time>
        <extensions>
          <ns3:TrackPointExtension>
            <ns3:hr>153</ns3:hr>
            <ns3:cad>82</ns3:cad>
          </ns3:TrackPointExtension>
        </extensions>
      </trkpt>
      <trkpt lat="42.612723670899868011474609375" lon="2.7228466607630252838134765625">
        <ele>309</ele>
        <time>2023-08-19T17:43:28.000Z</time>
        <extensions>
          <ns3:TrackPointExtension>
            <ns3:hr>153</ns3:hr>
            <ns3:cad>82</ns3:cad>
          </ns3:TrackPointExtension>
        </extensions>
      </trkpt>
      <trkpt lat="42.6127476431429386138916015625" lon="2.72282193414866924285888671875">
        <ele>309</ele>
        <time>2023-08-19T17:43:29.000Z</time>
        <extensions>
          <ns3:TrackPointExtension>
            <ns3:hr>153</ns3:hr>
            <ns3:cad>82</ns3:cad>
          </ns3:TrackPointExtension>
        </extensions>
      </trkpt>
      <trkpt lat="42.61276549659669399261474609375" lon="2.72279930301010608673095703125">
        <ele>309</ele>
        <time>2023-08-19T17:43:30.000Z</time>
        <extensions>
          <ns3:TrackPointExtension>
            <ns3:hr>153</ns3:hr>
            <ns3:cad>82</ns3:cad>
          </ns3:TrackPointExtension>
        </extensions>
      </trkpt>
      <trkpt lat="42.6127895526587963104248046875" lon="2.722771055996417999267578125">
        <ele>309</ele>
        <time>2023-08-19T17:43:31.000Z</time>
        <extensions>
          <ns3:TrackPointExtension>
            <ns3:hr>153</ns3:hr>
            <ns3:cad>82</ns3:cad>
          </ns3:TrackPointExtension>
        </extensions>
      </trkpt>
      <trkpt lat="42.61280925013124942779541015625" lon="2.72274599410593509674072265625">
        <ele>309</ele>
        <time>2023-08-19T17:43:32.000Z</time>
        <extensions>
          <ns3:TrackPointExtension>
            <ns3:hr>153</ns3:hr>
            <ns3:cad>82</ns3:cad>
          </ns3:TrackPointExtension>
        </extensions>
      </trkpt>
      <trkpt lat="42.61282299645245075225830078125" lon="2.72272202186286449432373046875">
        <ele>309</ele>
        <time>2023-08-19T17:43:33.000Z</time>
        <extensions>
          <ns3:TrackPointExtension>
            <ns3:hr>153</ns3:hr>
            <ns3:cad>82</ns3:cad>
          </ns3:TrackPointExtension>
        </extensions>
      </trkpt>
      <trkpt lat="42.61284311302006244659423828125" lon="2.72269486449658870697021484375">
        <ele>309</ele>
        <time>2023-08-19T17:43:34.000Z</time>
        <extensions>
          <ns3:TrackPointExtension>
            <ns3:hr>153</ns3:hr>
            <ns3:cad>82</ns3:cad>
          </ns3:TrackPointExtension>
        </extensions>
      </trkpt>
      <trkpt lat="42.61286021210253238677978515625" lon="2.722673825919628143310546875">
        <ele>309</ele>
        <time>2023-08-19T17:43:35.000Z</time>
        <extensions>
          <ns3:TrackPointExtension>
            <ns3:hr>153</ns3:hr>
            <ns3:cad>82</ns3:cad>
          </ns3:TrackPointExtension>
        </extensions>
      </trkpt>
      <trkpt lat="42.6128790713846683502197265625" lon="2.72264725528657436370849609375">
        <ele>309</ele>
        <time>2023-08-19T17:43:36.000Z</time>
        <extensions>
          <ns3:TrackPointExtension>
            <ns3:hr>154</ns3:hr>
            <ns3:cad>83</ns3:cad>
          </ns3:TrackPointExtension>
        </extensions>
      </trkpt>
      <trkpt lat="42.61289860121905803680419921875" lon="2.72262521088123321533203125">
        <ele>309</ele>
        <time>2023-08-19T17:43:37.000Z</time>
        <extensions>
          <ns3:TrackPointExtension>
            <ns3:hr>153</ns3:hr>
            <ns3:cad>83</ns3:cad>
          </ns3:TrackPointExtension>
        </extensions>
      </trkpt>
      <trkpt lat="42.61291787959635257720947265625" lon="2.72260065190494060516357421875">
        <ele>309</ele>
        <time>2023-08-19T17:43:38.000Z</time>
        <extensions>
          <ns3:TrackPointExtension>
            <ns3:hr>153</ns3:hr>
            <ns3:cad>83</ns3:cad>
          </ns3:TrackPointExtension>
        </extensions>
      </trkpt>
      <trkpt lat="42.6129374094307422637939453125" lon="2.72257634438574314117431640625">
        <ele>309</ele>
        <time>2023-08-19T17:43:39.000Z</time>
        <extensions>
          <ns3:TrackPointExtension>
            <ns3:hr>154</ns3:hr>
            <ns3:cad>83</ns3:cad>
          </ns3:TrackPointExtension>
        </extensions>
      </trkpt>
      <trkpt lat="42.6129541732370853424072265625" lon="2.72255773656070232391357421875">
        <ele>309</ele>
        <time>2023-08-19T17:43:40.000Z</time>
        <extensions>
          <ns3:TrackPointExtension>
            <ns3:hr>154</ns3:hr>
            <ns3:cad>83</ns3:cad>
          </ns3:TrackPointExtension>
        </extensions>
      </trkpt>
      <trkpt lat="42.61297219432890415191650390625" lon="2.72253527306020259857177734375">
        <ele>309.20001220703125</ele>
        <time>2023-08-19T17:43:41.000Z</time>
        <extensions>
          <ns3:TrackPointExtension>
            <ns3:hr>154</ns3:hr>
            <ns3:cad>83</ns3:cad>
          </ns3:TrackPointExtension>
        </extensions>
      </trkpt>
      <trkpt lat="42.61299231089651584625244140625" lon="2.7225113846361637115478515625">
        <ele>309.20001220703125</ele>
        <time>2023-08-19T17:43:42.000Z</time>
        <extensions>
          <ns3:TrackPointExtension>
            <ns3:hr>154</ns3:hr>
            <ns3:cad>83</ns3:cad>
          </ns3:TrackPointExtension>
        </extensions>
      </trkpt>
      <trkpt lat="42.61300572194159030914306640625" lon="2.72249353118240833282470703125">
        <ele>309.399993896484375</ele>
        <time>2023-08-19T17:43:43.000Z</time>
        <extensions>
          <ns3:TrackPointExtension>
            <ns3:hr>154</ns3:hr>
            <ns3:cad>83</ns3:cad>
          </ns3:TrackPointExtension>
        </extensions>
      </trkpt>
      <trkpt lat="42.61302684433758258819580078125" lon="2.7224703133106231689453125">
        <ele>309.600006103515625</ele>
        <time>2023-08-19T17:43:44.000Z</time>
        <extensions>
          <ns3:TrackPointExtension>
            <ns3:hr>154</ns3:hr>
            <ns3:cad>83</ns3:cad>
          </ns3:TrackPointExtension>
        </extensions>
      </trkpt>
      <trkpt lat="42.613045535981655120849609375" lon="2.7224506996572017669677734375">
        <ele>309.600006103515625</ele>
        <time>2023-08-19T17:43:45.000Z</time>
        <extensions>
          <ns3:TrackPointExtension>
            <ns3:hr>154</ns3:hr>
            <ns3:cad>83</ns3:cad>
          </ns3:TrackPointExtension>
        </extensions>
      </trkpt>
      <trkpt lat="42.6130624674260616302490234375" lon="2.72243167273700237274169921875">
        <ele>310</ele>
        <time>2023-08-19T17:43:46.000Z</time>
        <extensions>
          <ns3:TrackPointExtension>
            <ns3:hr>154</ns3:hr>
            <ns3:cad>83</ns3:cad>
          </ns3:TrackPointExtension>
        </extensions>
      </trkpt>
      <trkpt lat="42.6130820810794830322265625" lon="2.72240904159843921661376953125">
        <ele>310.20001220703125</ele>
        <time>2023-08-19T17:43:47.000Z</time>
        <extensions>
          <ns3:TrackPointExtension>
            <ns3:hr>154</ns3:hr>
            <ns3:cad>84</ns3:cad>
          </ns3:TrackPointExtension>
        </extensions>
      </trkpt>
      <trkpt lat="42.6130954921245574951171875" lon="2.72239051759243011474609375">
        <ele>310.20001220703125</ele>
        <time>2023-08-19T17:43:48.000Z</time>
        <extensions>
          <ns3:TrackPointExtension>
            <ns3:hr>154</ns3:hr>
            <ns3:cad>84</ns3:cad>
          </ns3:TrackPointExtension>
        </extensions>
      </trkpt>
      <trkpt lat="42.6131147705018520355224609375" lon="2.72236696444451808929443359375">
        <ele>310.20001220703125</ele>
        <time>2023-08-19T17:43:49.000Z</time>
        <extensions>
          <ns3:TrackPointExtension>
            <ns3:hr>154</ns3:hr>
            <ns3:cad>84</ns3:cad>
          </ns3:TrackPointExtension>
        </extensions>
      </trkpt>
      <trkpt lat="42.6131330430507659912109375" lon="2.72234785370528697967529296875">
        <ele>310.399993896484375</ele>
        <time>2023-08-19T17:43:50.000Z</time>
        <extensions>
          <ns3:TrackPointExtension>
            <ns3:hr>154</ns3:hr>
            <ns3:cad>83</ns3:cad>
          </ns3:TrackPointExtension>
        </extensions>
      </trkpt>
      <trkpt lat="42.613148801028728485107421875" lon="2.72232572548091411590576171875">
        <ele>310.399993896484375</ele>
        <time>2023-08-19T17:43:51.000Z</time>
        <extensions>
          <ns3:TrackPointExtension>
            <ns3:hr>154</ns3:hr>
            <ns3:cad>83</ns3:cad>
          </ns3:TrackPointExtension>
        </extensions>
      </trkpt>
      <trkpt lat="42.61316724121570587158203125" lon="2.722302339971065521240234375">
        <ele>310.399993896484375</ele>
        <time>2023-08-19T17:43:52.000Z</time>
        <extensions>
          <ns3:TrackPointExtension>
            <ns3:hr>154</ns3:hr>
            <ns3:cad>83</ns3:cad>
          </ns3:TrackPointExtension>
        </extensions>
      </trkpt>
      <trkpt lat="42.6131821610033512115478515625" lon="2.7222833968698978424072265625">
        <ele>310.399993896484375</ele>
        <time>2023-08-19T17:43:53.000Z</time>
        <extensions>
          <ns3:TrackPointExtension>
            <ns3:hr>155</ns3:hr>
            <ns3:cad>83</ns3:cad>
          </ns3:TrackPointExtension>
        </extensions>
      </trkpt>
      <trkpt lat="42.61319674551486968994140625" lon="2.7222662977874279022216796875">
        <ele>310.600006103515625</ele>
        <time>2023-08-19T17:43:54.000Z</time>
        <extensions>
          <ns3:TrackPointExtension>
            <ns3:hr>155</ns3:hr>
            <ns3:cad>83</ns3:cad>
          </ns3:TrackPointExtension>
        </extensions>
      </trkpt>
      <trkpt lat="42.6132163591682910919189453125" lon="2.72224710322916507720947265625">
        <ele>310.600006103515625</ele>
        <time>2023-08-19T17:43:55.000Z</time>
        <extensions>
          <ns3:TrackPointExtension>
            <ns3:hr>155</ns3:hr>
            <ns3:cad>83</ns3:cad>
          </ns3:TrackPointExtension>
        </extensions>
      </trkpt>
      <trkpt lat="42.6132322847843170166015625" lon="2.722235620021820068359375">
        <ele>310.600006103515625</ele>
        <time>2023-08-19T17:43:56.000Z</time>
        <extensions>
          <ns3:TrackPointExtension>
            <ns3:hr>155</ns3:hr>
            <ns3:cad>82</ns3:cad>
          </ns3:TrackPointExtension>
        </extensions>
      </trkpt>
      <trkpt lat="42.61324946768581867218017578125" lon="2.72221994586288928985595703125">
        <ele>310.79998779296875</ele>
        <time>2023-08-19T17:43:57.000Z</time>
        <extensions>
          <ns3:TrackPointExtension>
            <ns3:hr>156</ns3:hr>
            <ns3:cad>82</ns3:cad>
          </ns3:TrackPointExtension>
        </extensions>
      </trkpt>
      <trkpt lat="42.61326924897730350494384765625" lon="2.7222076244652271270751953125">
        <ele>311</ele>
        <time>2023-08-19T17:43:58.000Z</time>
        <extensions>
          <ns3:TrackPointExtension>
            <ns3:hr>156</ns3:hr>
            <ns3:cad>82</ns3:cad>
          </ns3:TrackPointExtension>
        </extensions>
      </trkpt>
      <trkpt lat="42.6132867671549320220947265625" lon="2.7221922017633914947509765625">
        <ele>311.20001220703125</ele>
        <time>2023-08-19T17:43:59.000Z</time>
        <extensions>
          <ns3:TrackPointExtension>
            <ns3:hr>156</ns3:hr>
            <ns3:cad>81</ns3:cad>
          </ns3:TrackPointExtension>
        </extensions>
      </trkpt>
      <trkpt lat="42.61330269277095794677734375" lon="2.72217635996639728546142578125">
        <ele>311.399993896484375</ele>
        <time>2023-08-19T17:44:00.000Z</time>
        <extensions>
          <ns3:TrackPointExtension>
            <ns3:hr>156</ns3:hr>
            <ns3:cad>81</ns3:cad>
          </ns3:TrackPointExtension>
        </extensions>
      </trkpt>
      <trkpt lat="42.6133207976818084716796875" lon="2.72216110490262508392333984375">
        <ele>311.600006103515625</ele>
        <time>2023-08-19T17:44:01.000Z</time>
        <extensions>
          <ns3:TrackPointExtension>
            <ns3:hr>156</ns3:hr>
            <ns3:cad>81</ns3:cad>
          </ns3:TrackPointExtension>
        </extensions>
      </trkpt>
      <trkpt lat="42.6133343763649463653564453125" lon="2.72214769385755062103271484375">
        <ele>311.79998779296875</ele>
        <time>2023-08-19T17:44:02.000Z</time>
        <extensions>
          <ns3:TrackPointExtension>
            <ns3:hr>156</ns3:hr>
            <ns3:cad>81</ns3:cad>
          </ns3:TrackPointExtension>
        </extensions>
      </trkpt>
      <trkpt lat="42.6133531518280506134033203125" lon="2.722135372459888458251953125">
        <ele>312</ele>
        <time>2023-08-19T17:44:03.000Z</time>
        <extensions>
          <ns3:TrackPointExtension>
            <ns3:hr>156</ns3:hr>
            <ns3:cad>81</ns3:cad>
          </ns3:TrackPointExtension>
        </extensions>
      </trkpt>
      <trkpt lat="42.613373100757598876953125" lon="2.72212523035705089569091796875">
        <ele>312.20001220703125</ele>
        <time>2023-08-19T17:44:04.000Z</time>
        <extensions>
          <ns3:TrackPointExtension>
            <ns3:hr>155</ns3:hr>
            <ns3:cad>81</ns3:cad>
          </ns3:TrackPointExtension>
        </extensions>
      </trkpt>
      <trkpt lat="42.61338860727846622467041015625" lon="2.72211416624486446380615234375">
        <ele>312.399993896484375</ele>
        <time>2023-08-19T17:44:05.000Z</time>
        <extensions>
          <ns3:TrackPointExtension>
            <ns3:hr>155</ns3:hr>
            <ns3:cad>81</ns3:cad>
          </ns3:TrackPointExtension>
        </extensions>
      </trkpt>
      <trkpt lat="42.61340755037963390350341796875" lon="2.7221040241420269012451171875">
        <ele>312.600006103515625</ele>
        <time>2023-08-19T17:44:06.000Z</time>
        <extensions>
          <ns3:TrackPointExtension>
            <ns3:hr>155</ns3:hr>
            <ns3:cad>81</ns3:cad>
          </ns3:TrackPointExtension>
        </extensions>
      </trkpt>
      <trkpt lat="42.61342951096594333648681640625" lon="2.72209723480045795440673828125">
        <ele>312.79998779296875</ele>
        <time>2023-08-19T17:44:07.000Z</time>
        <extensions>
          <ns3:TrackPointExtension>
            <ns3:hr>156</ns3:hr>
            <ns3:cad>80</ns3:cad>
          </ns3:TrackPointExtension>
        </extensions>
      </trkpt>
      <trkpt lat="42.61344543658196926116943359375" lon="2.72208348847925662994384765625">
        <ele>313</ele>
        <time>2023-08-19T17:44:08.000Z</time>
        <extensions>
          <ns3:TrackPointExtension>
            <ns3:hr>156</ns3:hr>
            <ns3:cad>80</ns3:cad>
          </ns3:TrackPointExtension>
        </extensions>
      </trkpt>
      <trkpt lat="42.61346236802637577056884765625" lon="2.7220658026635646820068359375">
        <ele>313.20001220703125</ele>
        <time>2023-08-19T17:44:09.000Z</time>
        <extensions>
          <ns3:TrackPointExtension>
            <ns3:hr>156</ns3:hr>
            <ns3:cad>80</ns3:cad>
          </ns3:TrackPointExtension>
        </extensions>
      </trkpt>
      <trkpt lat="42.61347611434757709503173828125" lon="2.7220466919243335723876953125">
        <ele>313.399993896484375</ele>
        <time>2023-08-19T17:44:10.000Z</time>
        <extensions>
          <ns3:TrackPointExtension>
            <ns3:hr>156</ns3:hr>
            <ns3:cad>80</ns3:cad>
          </ns3:TrackPointExtension>
        </extensions>
      </trkpt>
      <trkpt lat="42.6134884357452392578125" lon="2.72203135304152965545654296875">
        <ele>313.600006103515625</ele>
        <time>2023-08-19T17:44:11.000Z</time>
        <extensions>
          <ns3:TrackPointExtension>
            <ns3:hr>156</ns3:hr>
            <ns3:cad>80</ns3:cad>
          </ns3:TrackPointExtension>
        </extensions>
      </trkpt>
      <trkpt lat="42.61350377462804317474365234375" lon="2.72201693616807460784912109375">
        <ele>313.600006103515625</ele>
        <time>2023-08-19T17:44:12.000Z</time>
        <extensions>
          <ns3:TrackPointExtension>
            <ns3:hr>156</ns3:hr>
            <ns3:cad>80</ns3:cad>
          </ns3:TrackPointExtension>
        </extensions>
      </trkpt>
      <trkpt lat="42.613526321947574615478515625" lon="2.72201576270163059234619140625">
        <ele>313.79998779296875</ele>
        <time>2023-08-19T17:44:13.000Z</time>
        <extensions>
          <ns3:TrackPointExtension>
            <ns3:hr>156</ns3:hr>
            <ns3:cad>80</ns3:cad>
          </ns3:TrackPointExtension>
        </extensions>
      </trkpt>
      <trkpt lat="42.61354518122971057891845703125" lon="2.7220089733600616455078125">
        <ele>313.79998779296875</ele>
        <time>2023-08-19T17:44:14.000Z</time>
        <extensions>
          <ns3:TrackPointExtension>
            <ns3:hr>156</ns3:hr>
            <ns3:cad>80</ns3:cad>
          </ns3:TrackPointExtension>
        </extensions>
      </trkpt>
      <trkpt lat="42.61356462724506855010986328125" lon="2.7220000885426998138427734375">
        <ele>314</ele>
        <time>2023-08-19T17:44:15.000Z</time>
        <extensions>
          <ns3:TrackPointExtension>
            <ns3:hr>156</ns3:hr>
            <ns3:cad>80</ns3:cad>
          </ns3:TrackPointExtension>
        </extensions>
      </trkpt>
      <trkpt lat="42.6135801337659358978271484375" lon="2.72198659367859363555908203125">
        <ele>314.20001220703125</ele>
        <time>2023-08-19T17:44:16.000Z</time>
        <extensions>
          <ns3:TrackPointExtension>
            <ns3:hr>156</ns3:hr>
            <ns3:cad>80</ns3:cad>
          </ns3:TrackPointExtension>
        </extensions>
      </trkpt>
      <trkpt lat="42.6135975681245326995849609375" lon="2.72197251208126544952392578125">
        <ele>314.399993896484375</ele>
        <time>2023-08-19T17:44:17.000Z</time>
        <extensions>
          <ns3:TrackPointExtension>
            <ns3:hr>156</ns3:hr>
            <ns3:cad>80</ns3:cad>
          </ns3:TrackPointExtension>
        </extensions>
      </trkpt>
      <trkpt lat="42.61361894197762012481689453125" lon="2.7219660580158233642578125">
        <ele>314.399993896484375</ele>
        <time>2023-08-19T17:44:18.000Z</time>
        <extensions>
          <ns3:TrackPointExtension>
            <ns3:hr>156</ns3:hr>
            <ns3:cad>80</ns3:cad>
          </ns3:TrackPointExtension>
        </extensions>
      </trkpt>
      <trkpt lat="42.6136418245732784271240234375" lon="2.72196513600647449493408203125">
        <ele>314.600006103515625</ele>
        <time>2023-08-19T17:44:19.000Z</time>
        <extensions>
          <ns3:TrackPointExtension>
            <ns3:hr>156</ns3:hr>
            <ns3:cad>80</ns3:cad>
          </ns3:TrackPointExtension>
        </extensions>
      </trkpt>
      <trkpt lat="42.61365942656993865966796875" lon="2.72196128033101558685302734375">
        <ele>314.79998779296875</ele>
        <time>2023-08-19T17:44:20.000Z</time>
        <extensions>
          <ns3:TrackPointExtension>
            <ns3:hr>156</ns3:hr>
            <ns3:cad>81</ns3:cad>
          </ns3:TrackPointExtension>
        </extensions>
      </trkpt>
      <trkpt lat="42.61368365027010440826416015625" lon="2.721959017217159271240234375">
        <ele>315</ele>
        <time>2023-08-19T17:44:21.000Z</time>
        <extensions>
          <ns3:TrackPointExtension>
            <ns3:hr>156</ns3:hr>
            <ns3:cad>81</ns3:cad>
          </ns3:TrackPointExtension>
        </extensions>
      </trkpt>
      <trkpt lat="42.61370259337127208709716796875" lon="2.721957676112651824951171875">
        <ele>315.20001220703125</ele>
        <time>2023-08-19T17:44:22.000Z</time>
        <extensions>
          <ns3:TrackPointExtension>
            <ns3:hr>156</ns3:hr>
            <ns3:cad>81</ns3:cad>
          </ns3:TrackPointExtension>
        </extensions>
      </trkpt>
      <trkpt lat="42.61372019536793231964111328125" lon="2.72195105440914630889892578125">
        <ele>315.20001220703125</ele>
        <time>2023-08-19T17:44:23.000Z</time>
        <extensions>
          <ns3:TrackPointExtension>
            <ns3:hr>156</ns3:hr>
            <ns3:cad>81</ns3:cad>
          </ns3:TrackPointExtension>
        </extensions>
      </trkpt>
      <trkpt lat="42.61374316178262233734130859375" lon="2.72194133140146732330322265625">
        <ele>315.399993896484375</ele>
        <time>2023-08-19T17:44:24.000Z</time>
        <extensions>
          <ns3:TrackPointExtension>
            <ns3:hr>156</ns3:hr>
            <ns3:cad>81</ns3:cad>
          </ns3:TrackPointExtension>
        </extensions>
      </trkpt>
      <trkpt lat="42.6137631945312023162841796875" lon="2.72193227894604206085205078125">
        <ele>315.399993896484375</ele>
        <time>2023-08-19T17:44:25.000Z</time>
        <extensions>
          <ns3:TrackPointExtension>
            <ns3:hr>156</ns3:hr>
            <ns3:cad>82</ns3:cad>
          </ns3:TrackPointExtension>
        </extensions>
      </trkpt>
      <trkpt lat="42.6137802936136722564697265625" lon="2.72192037664353847503662109375">
        <ele>315.399993896484375</ele>
        <time>2023-08-19T17:44:26.000Z</time>
        <extensions>
          <ns3:TrackPointExtension>
            <ns3:hr>155</ns3:hr>
            <ns3:cad>81</ns3:cad>
          </ns3:TrackPointExtension>
        </extensions>
      </trkpt>
      <trkpt lat="42.61379864998161792755126953125" lon="2.72190545685589313507080078125">
        <ele>315.600006103515625</ele>
        <time>2023-08-19T17:44:27.000Z</time>
        <extensions>
          <ns3:TrackPointExtension>
            <ns3:hr>155</ns3:hr>
            <ns3:cad>81</ns3:cad>
          </ns3:TrackPointExtension>
        </extensions>
      </trkpt>
      <trkpt lat="42.6138114742934703826904296875" lon="2.7218904532492160797119140625">
        <ele>315.600006103515625</ele>
        <time>2023-08-19T17:44:28.000Z</time>
        <extensions>
          <ns3:TrackPointExtension>
            <ns3:hr>156</ns3:hr>
            <ns3:cad>81</ns3:cad>
          </ns3:TrackPointExtension>
        </extensions>
      </trkpt>
      <trkpt lat="42.6138215325772762298583984375" lon="2.721870839595794677734375">
        <ele>315.600006103515625</ele>
        <time>2023-08-19T17:44:29.000Z</time>
        <extensions>
          <ns3:TrackPointExtension>
            <ns3:hr>156</ns3:hr>
            <ns3:cad>81</ns3:cad>
          </ns3:TrackPointExtension>
        </extensions>
      </trkpt>
      <trkpt lat="42.61384039185941219329833984375" lon="2.72185365669429302215576171875">
        <ele>315.79998779296875</ele>
        <time>2023-08-19T17:44:30.000Z</time>
        <extensions>
          <ns3:TrackPointExtension>
            <ns3:hr>156</ns3:hr>
            <ns3:cad>81</ns3:cad>
          </ns3:TrackPointExtension>
        </extensions>
      </trkpt>
      <trkpt lat="42.61385631747543811798095703125" lon="2.72183932363986968994140625">
        <ele>316</ele>
        <time>2023-08-19T17:44:31.000Z</time>
        <extensions>
          <ns3:TrackPointExtension>
            <ns3:hr>156</ns3:hr>
            <ns3:cad>82</ns3:cad>
          </ns3:TrackPointExtension>
        </extensions>
      </trkpt>
      <trkpt lat="42.613877356052398681640625" lon="2.72182281129062175750732421875">
        <ele>316.20001220703125</ele>
        <time>2023-08-19T17:44:32.000Z</time>
        <extensions>
          <ns3:TrackPointExtension>
            <ns3:hr>156</ns3:hr>
            <ns3:cad>83</ns3:cad>
          </ns3:TrackPointExtension>
        </extensions>
      </trkpt>
      <trkpt lat="42.613896466791629791259765625" lon="2.721807472407817840576171875">
        <ele>316.399993896484375</ele>
        <time>2023-08-19T17:44:33.000Z</time>
        <extensions>
          <ns3:TrackPointExtension>
            <ns3:hr>156</ns3:hr>
            <ns3:cad>82</ns3:cad>
          </ns3:TrackPointExtension>
        </extensions>
      </trkpt>
      <trkpt lat="42.6139130629599094390869140625" lon="2.72178844548761844635009765625">
        <ele>316.600006103515625</ele>
        <time>2023-08-19T17:44:34.000Z</time>
        <extensions>
          <ns3:TrackPointExtension>
            <ns3:hr>157</ns3:hr>
            <ns3:cad>82</ns3:cad>
          </ns3:TrackPointExtension>
        </extensions>
      </trkpt>
      <trkpt lat="42.61393393389880657196044921875" lon="2.72177134640514850616455078125">
        <ele>316.79998779296875</ele>
        <time>2023-08-19T17:44:35.000Z</time>
        <extensions>
          <ns3:TrackPointExtension>
            <ns3:hr>157</ns3:hr>
            <ns3:cad>81</ns3:cad>
          </ns3:TrackPointExtension>
        </extensions>
      </trkpt>
      <trkpt lat="42.613952793180942535400390625" lon="2.72176648490130901336669921875">
        <ele>317</ele>
        <time>2023-08-19T17:44:36.000Z</time>
        <extensions>
          <ns3:TrackPointExtension>
            <ns3:hr>157</ns3:hr>
            <ns3:cad>80</ns3:cad>
          </ns3:TrackPointExtension>
        </extensions>
      </trkpt>
      <trkpt lat="42.61397148482501506805419921875" lon="2.72176044993102550506591796875">
        <ele>317</ele>
        <time>2023-08-19T17:44:37.000Z</time>
        <extensions>
          <ns3:TrackPointExtension>
            <ns3:hr>157</ns3:hr>
            <ns3:cad>80</ns3:cad>
          </ns3:TrackPointExtension>
        </extensions>
      </trkpt>
      <trkpt lat="42.61398724280297756195068359375" lon="2.72175324149429798126220703125">
        <ele>317.20001220703125</ele>
        <time>2023-08-19T17:44:38.000Z</time>
        <extensions>
          <ns3:TrackPointExtension>
            <ns3:hr>157</ns3:hr>
            <ns3:cad>80</ns3:cad>
          </ns3:TrackPointExtension>
        </extensions>
      </trkpt>
      <trkpt lat="42.61400274932384490966796875" lon="2.72174854762852191925048828125">
        <ele>317.399993896484375</ele>
        <time>2023-08-19T17:44:39.000Z</time>
        <extensions>
          <ns3:TrackPointExtension>
            <ns3:hr>157</ns3:hr>
            <ns3:cad>81</ns3:cad>
          </ns3:TrackPointExtension>
        </extensions>
      </trkpt>
      <trkpt lat="42.61401657946407794952392578125" lon="2.7217385731637477874755859375">
        <ele>317.399993896484375</ele>
        <time>2023-08-19T17:44:40.000Z</time>
        <extensions>
          <ns3:TrackPointExtension>
            <ns3:hr>158</ns3:hr>
            <ns3:cad>80</ns3:cad>
          </ns3:TrackPointExtension>
        </extensions>
      </trkpt>
      <trkpt lat="42.61402931995689868927001953125" lon="2.72172608412802219390869140625">
        <ele>317.399993896484375</ele>
        <time>2023-08-19T17:44:41.000Z</time>
        <extensions>
          <ns3:TrackPointExtension>
            <ns3:hr>158</ns3:hr>
            <ns3:cad>80</ns3:cad>
          </ns3:TrackPointExtension>
        </extensions>
      </trkpt>
      <trkpt lat="42.61404742486774921417236328125" lon="2.72171451710164546966552734375">
        <ele>317.600006103515625</ele>
        <time>2023-08-19T17:44:42.000Z</time>
        <extensions>
          <ns3:TrackPointExtension>
            <ns3:hr>158</ns3:hr>
            <ns3:cad>80</ns3:cad>
          </ns3:TrackPointExtension>
        </extensions>
      </trkpt>
      <trkpt lat="42.61406309902667999267578125" lon="2.72170261479914188385009765625">
        <ele>317.600006103515625</ele>
        <time>2023-08-19T17:44:43.000Z</time>
        <extensions>
          <ns3:TrackPointExtension>
            <ns3:hr>158</ns3:hr>
            <ns3:cad>79</ns3:cad>
          </ns3:TrackPointExtension>
        </extensions>
      </trkpt>
      <trkpt lat="42.6140733249485492706298828125" lon="2.72169037722051143646240234375">
        <ele>317.600006103515625</ele>
        <time>2023-08-19T17:44:44.000Z</time>
        <extensions>
          <ns3:TrackPointExtension>
            <ns3:hr>158</ns3:hr>
            <ns3:cad>79</ns3:cad>
          </ns3:TrackPointExtension>
        </extensions>
      </trkpt>
      <trkpt lat="42.61408899910748004913330078125" lon="2.721675373613834381103515625">
        <ele>317.79998779296875</ele>
        <time>2023-08-19T17:44:45.000Z</time>
        <extensions>
          <ns3:TrackPointExtension>
            <ns3:hr>158</ns3:hr>
            <ns3:cad>78</ns3:cad>
          </ns3:TrackPointExtension>
        </extensions>
      </trkpt>
      <trkpt lat="42.6141040027141571044921875" lon="2.72166254930198192596435546875">
        <ele>318.20001220703125</ele>
        <time>2023-08-19T17:44:46.000Z</time>
        <extensions>
          <ns3:TrackPointExtension>
            <ns3:hr>158</ns3:hr>
            <ns3:cad>76</ns3:cad>
          </ns3:TrackPointExtension>
        </extensions>
      </trkpt>
      <trkpt lat="42.6141179166734218597412109375" lon="2.72165366448462009429931640625">
        <ele>318.20001220703125</ele>
        <time>2023-08-19T17:44:47.000Z</time>
        <extensions>
          <ns3:TrackPointExtension>
            <ns3:hr>158</ns3:hr>
            <ns3:cad>63</ns3:cad>
          </ns3:TrackPointExtension>
        </extensions>
      </trkpt>
      <trkpt lat="42.61412747204303741455078125" lon="2.721645534038543701171875">
        <ele>318.399993896484375</ele>
        <time>2023-08-19T17:44:48.000Z</time>
        <extensions>
          <ns3:TrackPointExtension>
            <ns3:hr>158</ns3:hr>
            <ns3:cad>60</ns3:cad>
          </ns3:TrackPointExtension>
        </extensions>
      </trkpt>
      <trkpt lat="42.6141417212784290313720703125" lon="2.72163824178278446197509765625">
        <ele>318.600006103515625</ele>
        <time>2023-08-19T17:44:49.000Z</time>
        <extensions>
          <ns3:TrackPointExtension>
            <ns3:hr>158</ns3:hr>
            <ns3:cad>58</ns3:cad>
          </ns3:TrackPointExtension>
        </extensions>
      </trkpt>
      <trkpt lat="42.61415236629545688629150390625" lon="2.72163371555507183074951171875">
        <ele>318.79998779296875</ele>
        <time>2023-08-19T17:44:50.000Z</time>
        <extensions>
          <ns3:TrackPointExtension>
            <ns3:hr>157</ns3:hr>
            <ns3:cad>57</ns3:cad>
          </ns3:TrackPointExtension>
        </extensions>
      </trkpt>
      <trkpt lat="42.61416309513151645660400390625" lon="2.72162499837577342987060546875">
        <ele>318.79998779296875</ele>
        <time>2023-08-19T17:44:51.000Z</time>
        <extensions>
          <ns3:TrackPointExtension>
            <ns3:hr>157</ns3:hr>
            <ns3:cad>57</ns3:cad>
          </ns3:TrackPointExtension>
        </extensions>
      </trkpt>
      <trkpt lat="42.61417147703468799591064453125" lon="2.72161594592034816741943359375">
        <ele>319</ele>
        <time>2023-08-19T17:44:52.000Z</time>
        <extensions>
          <ns3:TrackPointExtension>
            <ns3:hr>157</ns3:hr>
            <ns3:cad>57</ns3:cad>
          </ns3:TrackPointExtension>
        </extensions>
      </trkpt>
      <trkpt lat="42.61418103240430355072021484375" lon="2.7216044627130031585693359375">
        <ele>319</ele>
        <time>2023-08-19T17:44:53.000Z</time>
        <extensions>
          <ns3:TrackPointExtension>
            <ns3:hr>157</ns3:hr>
            <ns3:cad>57</ns3:cad>
          </ns3:TrackPointExtension>
        </extensions>
      </trkpt>
      <trkpt lat="42.6141936890780925750732421875" lon="2.72158979438245296478271484375">
        <ele>319</ele>
        <time>2023-08-19T17:44:54.000Z</time>
        <extensions>
          <ns3:TrackPointExtension>
            <ns3:hr>157</ns3:hr>
            <ns3:cad>57</ns3:cad>
          </ns3:TrackPointExtension>
        </extensions>
      </trkpt>
      <trkpt lat="42.6142005622386932373046875" lon="2.72157956846058368682861328125">
        <ele>319.20001220703125</ele>
        <time>2023-08-19T17:44:55.000Z</time>
        <extensions>
          <ns3:TrackPointExtension>
            <ns3:hr>157</ns3:hr>
            <ns3:cad>57</ns3:cad>
          </ns3:TrackPointExtension>
        </extensions>
      </trkpt>
      <trkpt lat="42.61421472765505313873291015625" lon="2.721564732491970062255859375">
        <ele>319.20001220703125</ele>
        <time>2023-08-19T17:44:56.000Z</time>
        <extensions>
          <ns3:TrackPointExtension>
            <ns3:hr>157</ns3:hr>
            <ns3:cad>56</ns3:cad>
          </ns3:TrackPointExtension>
        </extensions>
      </trkpt>
      <trkpt lat="42.614227719604969024658203125" lon="2.7215464599430561065673828125">
        <ele>319.399993896484375</ele>
        <time>2023-08-19T17:44:57.000Z</time>
        <extensions>
          <ns3:TrackPointExtension>
            <ns3:hr>157</ns3:hr>
            <ns3:cad>57</ns3:cad>
          </ns3:TrackPointExtension>
        </extensions>
      </trkpt>
      <trkpt lat="42.61424657888710498809814453125" lon="2.7215270139276981353759765625">
        <ele>319.399993896484375</ele>
        <time>2023-08-19T17:44:58.000Z</time>
        <extensions>
          <ns3:TrackPointExtension>
            <ns3:hr>157</ns3:hr>
            <ns3:cad>81</ns3:cad>
          </ns3:TrackPointExtension>
        </extensions>
      </trkpt>
      <trkpt lat="42.61426317505538463592529296875" lon="2.721513099968433380126953125">
        <ele>319.399993896484375</ele>
        <time>2023-08-19T17:44:59.000Z</time>
        <extensions>
          <ns3:TrackPointExtension>
            <ns3:hr>156</ns3:hr>
            <ns3:cad>80</ns3:cad>
          </ns3:TrackPointExtension>
        </extensions>
      </trkpt>
      <trkpt lat="42.61427574791014194488525390625" lon="2.721501030027866363525390625">
        <ele>319.79998779296875</ele>
        <time>2023-08-19T17:45:00.000Z</time>
        <extensions>
          <ns3:TrackPointExtension>
            <ns3:hr>156</ns3:hr>
            <ns3:cad>81</ns3:cad>
          </ns3:TrackPointExtension>
        </extensions>
      </trkpt>
      <trkpt lat="42.61429385282099246978759765625" lon="2.72148988209664821624755859375">
        <ele>319.79998779296875</ele>
        <time>2023-08-19T17:45:01.000Z</time>
        <extensions>
          <ns3:TrackPointExtension>
            <ns3:hr>156</ns3:hr>
            <ns3:cad>80</ns3:cad>
          </ns3:TrackPointExtension>
        </extensions>
      </trkpt>
      <trkpt lat="42.61431598104536533355712890625" lon="2.72147814743220806121826171875">
        <ele>320</ele>
        <time>2023-08-19T17:45:02.000Z</time>
        <extensions>
          <ns3:TrackPointExtension>
            <ns3:hr>156</ns3:hr>
            <ns3:cad>80</ns3:cad>
          </ns3:TrackPointExtension>
        </extensions>
      </trkpt>
      <trkpt lat="42.61433375068008899688720703125" lon="2.72146741859614849090576171875">
        <ele>320.20001220703125</ele>
        <time>2023-08-19T17:45:03.000Z</time>
        <extensions>
          <ns3:TrackPointExtension>
            <ns3:hr>156</ns3:hr>
            <ns3:cad>79</ns3:cad>
          </ns3:TrackPointExtension>
        </extensions>
      </trkpt>
      <trkpt lat="42.61434900574386119842529296875" lon="2.72145769558846950531005859375">
        <ele>320.20001220703125</ele>
        <time>2023-08-19T17:45:04.000Z</time>
        <extensions>
          <ns3:TrackPointExtension>
            <ns3:hr>156</ns3:hr>
            <ns3:cad>77</ns3:cad>
          </ns3:TrackPointExtension>
        </extensions>
      </trkpt>
      <trkpt lat="42.61436861939728260040283203125" lon="2.72145576775074005126953125">
        <ele>320.399993896484375</ele>
        <time>2023-08-19T17:45:05.000Z</time>
        <extensions>
          <ns3:TrackPointExtension>
            <ns3:hr>156</ns3:hr>
            <ns3:cad>77</ns3:cad>
          </ns3:TrackPointExtension>
        </extensions>
      </trkpt>
      <trkpt lat="42.61438722722232341766357421875" lon="2.72145451046526432037353515625">
        <ele>320.399993896484375</ele>
        <time>2023-08-19T17:45:06.000Z</time>
        <extensions>
          <ns3:TrackPointExtension>
            <ns3:hr>156</ns3:hr>
            <ns3:cad>77</ns3:cad>
          </ns3:TrackPointExtension>
        </extensions>
      </trkpt>
      <trkpt lat="42.614406086504459381103515625" lon="2.72145065478980541229248046875">
        <ele>320.399993896484375</ele>
        <time>2023-08-19T17:45:07.000Z</time>
        <extensions>
          <ns3:TrackPointExtension>
            <ns3:hr>156</ns3:hr>
            <ns3:cad>78</ns3:cad>
          </ns3:TrackPointExtension>
        </extensions>
      </trkpt>
      <trkpt lat="42.61443165130913257598876953125" lon="2.7214569412171840667724609375">
        <ele>320.600006103515625</ele>
        <time>2023-08-19T17:45:08.000Z</time>
        <extensions>
          <ns3:TrackPointExtension>
            <ns3:hr>156</ns3:hr>
            <ns3:cad>79</ns3:cad>
          </ns3:TrackPointExtension>
        </extensions>
      </trkpt>
      <trkpt lat="42.61445344425737857818603515625" lon="2.72145920433104038238525390625">
        <ele>320.600006103515625</ele>
        <time>2023-08-19T17:45:09.000Z</time>
        <extensions>
          <ns3:TrackPointExtension>
            <ns3:hr>156</ns3:hr>
            <ns3:cad>79</ns3:cad>
          </ns3:TrackPointExtension>
        </extensions>
      </trkpt>
      <trkpt lat="42.6144712977111339569091796875" lon="2.7214599587023258209228515625">
        <ele>320.79998779296875</ele>
        <time>2023-08-19T17:45:10.000Z</time>
        <extensions>
          <ns3:TrackPointExtension>
            <ns3:hr>156</ns3:hr>
            <ns3:cad>79</ns3:cad>
          </ns3:TrackPointExtension>
        </extensions>
      </trkpt>
      <trkpt lat="42.614491917192935943603515625" lon="2.7214618027210235595703125">
        <ele>320.79998779296875</ele>
        <time>2023-08-19T17:45:11.000Z</time>
        <extensions>
          <ns3:TrackPointExtension>
            <ns3:hr>156</ns3:hr>
            <ns3:cad>80</ns3:cad>
          </ns3:TrackPointExtension>
        </extensions>
      </trkpt>
      <trkpt lat="42.61450993828475475311279296875" lon="2.72145551629364490509033203125">
        <ele>320.79998779296875</ele>
        <time>2023-08-19T17:45:12.000Z</time>
        <extensions>
          <ns3:TrackPointExtension>
            <ns3:hr>156</ns3:hr>
            <ns3:cad>80</ns3:cad>
          </ns3:TrackPointExtension>
        </extensions>
      </trkpt>
      <trkpt lat="42.61453256942331790924072265625" lon="2.72144973278045654296875">
        <ele>320.79998779296875</ele>
        <time>2023-08-19T17:45:13.000Z</time>
        <extensions>
          <ns3:TrackPointExtension>
            <ns3:hr>156</ns3:hr>
            <ns3:cad>82</ns3:cad>
          </ns3:TrackPointExtension>
        </extensions>
      </trkpt>
      <trkpt lat="42.6145520992577075958251953125" lon="2.72144772112369537353515625">
        <ele>321</ele>
        <time>2023-08-19T17:45:14.000Z</time>
        <extensions>
          <ns3:TrackPointExtension>
            <ns3:hr>156</ns3:hr>
            <ns3:cad>82</ns3:cad>
          </ns3:TrackPointExtension>
        </extensions>
      </trkpt>
      <trkpt lat="42.614569701254367828369140625" lon="2.7214443683624267578125">
        <ele>321</ele>
        <time>2023-08-19T17:45:15.000Z</time>
        <extensions>
          <ns3:TrackPointExtension>
            <ns3:hr>156</ns3:hr>
            <ns3:cad>82</ns3:cad>
          </ns3:TrackPointExtension>
        </extensions>
      </trkpt>
      <trkpt lat="42.61459224857389926910400390625" lon="2.7214376628398895263671875">
        <ele>321.20001220703125</ele>
        <time>2023-08-19T17:45:16.000Z</time>
        <extensions>
          <ns3:TrackPointExtension>
            <ns3:hr>156</ns3:hr>
            <ns3:cad>81</ns3:cad>
          </ns3:TrackPointExtension>
        </extensions>
      </trkpt>
      <trkpt lat="42.6146136224269866943359375" lon="2.7214287780225276947021484375">
        <ele>321.399993896484375</ele>
        <time>2023-08-19T17:45:17.000Z</time>
        <extensions>
          <ns3:TrackPointExtension>
            <ns3:hr>156</ns3:hr>
            <ns3:cad>81</ns3:cad>
          </ns3:TrackPointExtension>
        </extensions>
      </trkpt>
      <trkpt lat="42.61463047005236148834228515625" lon="2.72141226567327976226806640625">
        <ele>321.600006103515625</ele>
        <time>2023-08-19T17:45:18.000Z</time>
        <extensions>
          <ns3:TrackPointExtension>
            <ns3:hr>156</ns3:hr>
            <ns3:cad>81</ns3:cad>
          </ns3:TrackPointExtension>
        </extensions>
      </trkpt>
      <trkpt lat="42.61465075425803661346435546875" lon="2.7213962562382221221923828125">
        <ele>321.79998779296875</ele>
        <time>2023-08-19T17:45:19.000Z</time>
        <extensions>
          <ns3:TrackPointExtension>
            <ns3:hr>156</ns3:hr>
            <ns3:cad>81</ns3:cad>
          </ns3:TrackPointExtension>
        </extensions>
      </trkpt>
      <trkpt lat="42.61467305012047290802001953125" lon="2.721388041973114013671875">
        <ele>321.79998779296875</ele>
        <time>2023-08-19T17:45:20.000Z</time>
        <extensions>
          <ns3:TrackPointExtension>
            <ns3:hr>156</ns3:hr>
            <ns3:cad>80</ns3:cad>
          </ns3:TrackPointExtension>
        </extensions>
      </trkpt>
      <trkpt lat="42.61468981392681598663330078125" lon="2.72137463092803955078125">
        <ele>322</ele>
        <time>2023-08-19T17:45:21.000Z</time>
        <extensions>
          <ns3:TrackPointExtension>
            <ns3:hr>156</ns3:hr>
            <ns3:cad>80</ns3:cad>
          </ns3:TrackPointExtension>
        </extensions>
      </trkpt>
      <trkpt lat="42.61470573954284191131591796875" lon="2.7213647402822971343994140625">
        <ele>322</ele>
        <time>2023-08-19T17:45:22.000Z</time>
        <extensions>
          <ns3:TrackPointExtension>
            <ns3:hr>156</ns3:hr>
            <ns3:cad>80</ns3:cad>
          </ns3:TrackPointExtension>
        </extensions>
      </trkpt>
      <trkpt lat="42.614722587168216705322265625" lon="2.7213509939610958099365234375">
        <ele>322.20001220703125</ele>
        <time>2023-08-19T17:45:23.000Z</time>
        <extensions>
          <ns3:TrackPointExtension>
            <ns3:hr>156</ns3:hr>
            <ns3:cad>80</ns3:cad>
          </ns3:TrackPointExtension>
        </extensions>
      </trkpt>
      <trkpt lat="42.61473541148006916046142578125" lon="2.72133666090667247772216796875">
        <ele>322.399993896484375</ele>
        <time>2023-08-19T17:45:24.000Z</time>
        <extensions>
          <ns3:TrackPointExtension>
            <ns3:hr>155</ns3:hr>
            <ns3:cad>80</ns3:cad>
          </ns3:TrackPointExtension>
        </extensions>
      </trkpt>
      <trkpt lat="42.6147502474486827850341796875" lon="2.72132241167128086090087890625">
        <ele>322.399993896484375</ele>
        <time>2023-08-19T17:45:25.000Z</time>
        <extensions>
          <ns3:TrackPointExtension>
            <ns3:hr>155</ns3:hr>
            <ns3:cad>79</ns3:cad>
          </ns3:TrackPointExtension>
        </extensions>
      </trkpt>
      <trkpt lat="42.61477245949208736419677734375" lon="2.72131637670099735260009765625">
        <ele>322.600006103515625</ele>
        <time>2023-08-19T17:45:26.000Z</time>
        <extensions>
          <ns3:TrackPointExtension>
            <ns3:hr>155</ns3:hr>
            <ns3:cad>79</ns3:cad>
          </ns3:TrackPointExtension>
        </extensions>
      </trkpt>
      <trkpt lat="42.61478670872747898101806640625" lon="2.72130715660750865936279296875">
        <ele>322.79998779296875</ele>
        <time>2023-08-19T17:45:27.000Z</time>
        <extensions>
          <ns3:TrackPointExtension>
            <ns3:hr>156</ns3:hr>
            <ns3:cad>79</ns3:cad>
          </ns3:TrackPointExtension>
        </extensions>
      </trkpt>
      <trkpt lat="42.614800035953521728515625" lon="2.72129206918179988861083984375">
        <ele>323</ele>
        <time>2023-08-19T17:45:28.000Z</time>
        <extensions>
          <ns3:TrackPointExtension>
            <ns3:hr>157</ns3:hr>
            <ns3:cad>79</ns3:cad>
          </ns3:TrackPointExtension>
        </extensions>
      </trkpt>
      <trkpt lat="42.61481319554150104522705078125" lon="2.72127740085124969482421875">
        <ele>323</ele>
        <time>2023-08-19T17:45:29.000Z</time>
        <extensions>
          <ns3:TrackPointExtension>
            <ns3:hr>156</ns3:hr>
            <ns3:cad>79</ns3:cad>
          </ns3:TrackPointExtension>
        </extensions>
      </trkpt>
      <trkpt lat="42.6148253493010997772216796875" lon="2.72126709111034870147705078125">
        <ele>323</ele>
        <time>2023-08-19T17:45:30.000Z</time>
        <extensions>
          <ns3:TrackPointExtension>
            <ns3:hr>156</ns3:hr>
            <ns3:cad>80</ns3:cad>
          </ns3:TrackPointExtension>
        </extensions>
      </trkpt>
      <trkpt lat="42.61483834125101566314697265625" lon="2.7212547697126865386962890625">
        <ele>323.20001220703125</ele>
        <time>2023-08-19T17:45:31.000Z</time>
        <extensions>
          <ns3:TrackPointExtension>
            <ns3:hr>155</ns3:hr>
            <ns3:cad>80</ns3:cad>
          </ns3:TrackPointExtension>
        </extensions>
      </trkpt>
      <trkpt lat="42.6148568652570247650146484375" lon="2.7212343178689479827880859375">
        <ele>323.20001220703125</ele>
        <time>2023-08-19T17:45:32.000Z</time>
        <extensions>
          <ns3:TrackPointExtension>
            <ns3:hr>155</ns3:hr>
            <ns3:cad>79</ns3:cad>
          </ns3:TrackPointExtension>
        </extensions>
      </trkpt>
      <trkpt lat="42.61487455107271671295166015625" lon="2.7212148718535900115966796875">
        <ele>323.20001220703125</ele>
        <time>2023-08-19T17:45:33.000Z</time>
        <extensions>
          <ns3:TrackPointExtension>
            <ns3:hr>155</ns3:hr>
            <ns3:cad>79</ns3:cad>
          </ns3:TrackPointExtension>
        </extensions>
      </trkpt>
      <trkpt lat="42.61488653719425201416015625" lon="2.7211974374949932098388671875">
        <ele>323.399993896484375</ele>
        <time>2023-08-19T17:45:34.000Z</time>
        <extensions>
          <ns3:TrackPointExtension>
            <ns3:hr>154</ns3:hr>
            <ns3:cad>79</ns3:cad>
          </ns3:TrackPointExtension>
        </extensions>
      </trkpt>
      <trkpt lat="42.6149007864296436309814453125" lon="2.72117053158581256866455078125">
        <ele>323.79998779296875</ele>
        <time>2023-08-19T17:45:35.000Z</time>
        <extensions>
          <ns3:TrackPointExtension>
            <ns3:hr>154</ns3:hr>
            <ns3:cad>78</ns3:cad>
          </ns3:TrackPointExtension>
        </extensions>
      </trkpt>
      <trkpt lat="42.61491294018924236297607421875" lon="2.72114471532404422760009765625">
        <ele>323.79998779296875</ele>
        <time>2023-08-19T17:45:36.000Z</time>
        <extensions>
          <ns3:TrackPointExtension>
            <ns3:hr>155</ns3:hr>
            <ns3:cad>78</ns3:cad>
          </ns3:TrackPointExtension>
        </extensions>
      </trkpt>
      <trkpt lat="42.61491796933114528656005859375" lon="2.72112158127129077911376953125">
        <ele>324</ele>
        <time>2023-08-19T17:45:37.000Z</time>
        <extensions>
          <ns3:TrackPointExtension>
            <ns3:hr>155</ns3:hr>
            <ns3:cad>78</ns3:cad>
          </ns3:TrackPointExtension>
        </extensions>
      </trkpt>
      <trkpt lat="42.61492685414850711822509765625" lon="2.7210948430001735687255859375">
        <ele>324.20001220703125</ele>
        <time>2023-08-19T17:45:38.000Z</time>
        <extensions>
          <ns3:TrackPointExtension>
            <ns3:hr>154</ns3:hr>
            <ns3:cad>79</ns3:cad>
          </ns3:TrackPointExtension>
        </extensions>
      </trkpt>
      <trkpt lat="42.6149349845945835113525390625" lon="2.72106894291937351226806640625">
        <ele>324.20001220703125</ele>
        <time>2023-08-19T17:45:39.000Z</time>
        <extensions>
          <ns3:TrackPointExtension>
            <ns3:hr>154</ns3:hr>
            <ns3:cad>79</ns3:cad>
          </ns3:TrackPointExtension>
        </extensions>
      </trkpt>
      <trkpt lat="42.614937163889408111572265625" lon="2.72104497067630290985107421875">
        <ele>324.399993896484375</ele>
        <time>2023-08-19T17:45:40.000Z</time>
        <extensions>
          <ns3:TrackPointExtension>
            <ns3:hr>154</ns3:hr>
            <ns3:cad>79</ns3:cad>
          </ns3:TrackPointExtension>
        </extensions>
      </trkpt>
      <trkpt lat="42.6149400137364864349365234375" lon="2.72100985050201416015625">
        <ele>324.399993896484375</ele>
        <time>2023-08-19T17:45:41.000Z</time>
        <extensions>
          <ns3:TrackPointExtension>
            <ns3:hr>154</ns3:hr>
            <ns3:cad>80</ns3:cad>
          </ns3:TrackPointExtension>
        </extensions>
      </trkpt>
      <trkpt lat="42.61494227685034275054931640625" lon="2.7209785021841526031494140625">
        <ele>324.600006103515625</ele>
        <time>2023-08-19T17:45:42.000Z</time>
        <extensions>
          <ns3:TrackPointExtension>
            <ns3:hr>154</ns3:hr>
            <ns3:cad>80</ns3:cad>
          </ns3:TrackPointExtension>
        </extensions>
      </trkpt>
      <trkpt lat="42.61494143866002559661865234375" lon="2.72095008753240108489990234375">
        <ele>324.600006103515625</ele>
        <time>2023-08-19T17:45:43.000Z</time>
        <extensions>
          <ns3:TrackPointExtension>
            <ns3:hr>154</ns3:hr>
            <ns3:cad>80</ns3:cad>
          </ns3:TrackPointExtension>
        </extensions>
      </trkpt>
      <trkpt lat="42.614945210516452789306640625" lon="2.7209168113768100738525390625">
        <ele>324.600006103515625</ele>
        <time>2023-08-19T17:45:44.000Z</time>
        <extensions>
          <ns3:TrackPointExtension>
            <ns3:hr>154</ns3:hr>
            <ns3:cad>80</ns3:cad>
          </ns3:TrackPointExtension>
        </extensions>
      </trkpt>
      <trkpt lat="42.614943869411945343017578125" lon="2.7208909951150417327880859375">
        <ele>324.600006103515625</ele>
        <time>2023-08-19T17:45:45.000Z</time>
        <extensions>
          <ns3:TrackPointExtension>
            <ns3:hr>154</ns3:hr>
            <ns3:cad>81</ns3:cad>
          </ns3:TrackPointExtension>
        </extensions>
      </trkpt>
      <trkpt lat="42.6149477250874042510986328125" lon="2.72086031734943389892578125">
        <ele>324.600006103515625</ele>
        <time>2023-08-19T17:45:46.000Z</time>
        <extensions>
          <ns3:TrackPointExtension>
            <ns3:hr>154</ns3:hr>
            <ns3:cad>81</ns3:cad>
          </ns3:TrackPointExtension>
        </extensions>
      </trkpt>
      <trkpt lat="42.61495635844767093658447265625" lon="2.72082553245127201080322265625">
        <ele>324.600006103515625</ele>
        <time>2023-08-19T17:45:47.000Z</time>
        <extensions>
          <ns3:TrackPointExtension>
            <ns3:hr>153</ns3:hr>
            <ns3:cad>82</ns3:cad>
          </ns3:TrackPointExtension>
        </extensions>
      </trkpt>
      <trkpt lat="42.61496172286570072174072265625" lon="2.7207984589040279388427734375">
        <ele>324.600006103515625</ele>
        <time>2023-08-19T17:45:48.000Z</time>
        <extensions>
          <ns3:TrackPointExtension>
            <ns3:hr>153</ns3:hr>
            <ns3:cad>82</ns3:cad>
          </ns3:TrackPointExtension>
        </extensions>
      </trkpt>
      <trkpt lat="42.6149631477892398834228515625" lon="2.720764763653278350830078125">
        <ele>324.600006103515625</ele>
        <time>2023-08-19T17:45:49.000Z</time>
        <extensions>
          <ns3:TrackPointExtension>
            <ns3:hr>154</ns3:hr>
            <ns3:cad>82</ns3:cad>
          </ns3:TrackPointExtension>
        </extensions>
      </trkpt>
      <trkpt lat="42.61495920829474925994873046875" lon="2.7207324095070362091064453125">
        <ele>324.79998779296875</ele>
        <time>2023-08-19T17:45:50.000Z</time>
        <extensions>
          <ns3:TrackPointExtension>
            <ns3:hr>154</ns3:hr>
            <ns3:cad>81</ns3:cad>
          </ns3:TrackPointExtension>
        </extensions>
      </trkpt>
      <trkpt lat="42.61495384387671947479248046875" lon="2.72070365957915782928466796875">
        <ele>324.79998779296875</ele>
        <time>2023-08-19T17:45:51.000Z</time>
        <extensions>
          <ns3:TrackPointExtension>
            <ns3:hr>154</ns3:hr>
            <ns3:cad>81</ns3:cad>
          </ns3:TrackPointExtension>
        </extensions>
      </trkpt>
      <trkpt lat="42.6149477250874042510986328125" lon="2.72067231126129627227783203125">
        <ele>324.79998779296875</ele>
        <time>2023-08-19T17:45:52.000Z</time>
        <extensions>
          <ns3:TrackPointExtension>
            <ns3:hr>154</ns3:hr>
            <ns3:cad>81</ns3:cad>
          </ns3:TrackPointExtension>
        </extensions>
      </trkpt>
      <trkpt lat="42.61494043283164501190185546875" lon="2.72063828073441982269287109375">
        <ele>325</ele>
        <time>2023-08-19T17:45:53.000Z</time>
        <extensions>
          <ns3:TrackPointExtension>
            <ns3:hr>154</ns3:hr>
            <ns3:cad>81</ns3:cad>
          </ns3:TrackPointExtension>
        </extensions>
      </trkpt>
      <trkpt lat="42.61493221856653690338134765625" lon="2.7206123806536197662353515625">
        <ele>325</ele>
        <time>2023-08-19T17:45:54.000Z</time>
        <extensions>
          <ns3:TrackPointExtension>
            <ns3:hr>154</ns3:hr>
            <ns3:cad>81</ns3:cad>
          </ns3:TrackPointExtension>
        </extensions>
      </trkpt>
      <trkpt lat="42.6149259321391582489013671875" lon="2.720572650432586669921875">
        <ele>325</ele>
        <time>2023-08-19T17:45:55.000Z</time>
        <extensions>
          <ns3:TrackPointExtension>
            <ns3:hr>154</ns3:hr>
            <ns3:cad>81</ns3:cad>
          </ns3:TrackPointExtension>
        </extensions>
      </trkpt>
      <trkpt lat="42.61492811143398284912109375" lon="2.72054507397115230560302734375">
        <ele>325</ele>
        <time>2023-08-19T17:45:56.000Z</time>
        <extensions>
          <ns3:TrackPointExtension>
            <ns3:hr>154</ns3:hr>
            <ns3:cad>81</ns3:cad>
          </ns3:TrackPointExtension>
        </extensions>
      </trkpt>
      <trkpt lat="42.61493925936520099639892578125" lon="2.72052026353776454925537109375">
        <ele>325</ele>
        <time>2023-08-19T17:45:57.000Z</time>
        <extensions>
          <ns3:TrackPointExtension>
            <ns3:hr>154</ns3:hr>
            <ns3:cad>82</ns3:cad>
          </ns3:TrackPointExtension>
        </extensions>
      </trkpt>
      <trkpt lat="42.61495233513414859771728515625" lon="2.7204906754195690155029296875">
        <ele>325.20001220703125</ele>
        <time>2023-08-19T17:45:58.000Z</time>
        <extensions>
          <ns3:TrackPointExtension>
            <ns3:hr>154</ns3:hr>
            <ns3:cad>82</ns3:cad>
          </ns3:TrackPointExtension>
        </extensions>
      </trkpt>
      <trkpt lat="42.61496968567371368408203125" lon="2.720463015139102935791015625">
        <ele>325.20001220703125</ele>
        <time>2023-08-19T17:45:59.000Z</time>
        <extensions>
          <ns3:TrackPointExtension>
            <ns3:hr>154</ns3:hr>
            <ns3:cad>82</ns3:cad>
          </ns3:TrackPointExtension>
        </extensions>
      </trkpt>
      <trkpt lat="42.61498938314616680145263671875" lon="2.72044231183826923370361328125">
        <ele>325.20001220703125</ele>
        <time>2023-08-19T17:46:00.000Z</time>
        <extensions>
          <ns3:TrackPointExtension>
            <ns3:hr>154</ns3:hr>
            <ns3:cad>82</ns3:cad>
          </ns3:TrackPointExtension>
        </extensions>
      </trkpt>
      <trkpt lat="42.61500916443765163421630859375" lon="2.720427811145782470703125">
        <ele>325.20001220703125</ele>
        <time>2023-08-19T17:46:01.000Z</time>
        <extensions>
          <ns3:TrackPointExtension>
            <ns3:hr>154</ns3:hr>
            <ns3:cad>83</ns3:cad>
          </ns3:TrackPointExtension>
        </extensions>
      </trkpt>
      <trkpt lat="42.61503162793815135955810546875" lon="2.72041934542357921600341796875">
        <ele>325</ele>
        <time>2023-08-19T17:46:02.000Z</time>
        <extensions>
          <ns3:TrackPointExtension>
            <ns3:hr>154</ns3:hr>
            <ns3:cad>83</ns3:cad>
          </ns3:TrackPointExtension>
        </extensions>
      </trkpt>
      <trkpt lat="42.61504369787871837615966796875" lon="2.72041783668100833892822265625">
        <ele>324.79998779296875</ele>
        <time>2023-08-19T17:46:03.000Z</time>
        <extensions>
          <ns3:TrackPointExtension>
            <ns3:hr>155</ns3:hr>
            <ns3:cad>83</ns3:cad>
          </ns3:TrackPointExtension>
        </extensions>
      </trkpt>
      <trkpt lat="42.61505342088639736175537109375" lon="2.720416747033596038818359375">
        <ele>324.600006103515625</ele>
        <time>2023-08-19T17:46:04.000Z</time>
        <extensions>
          <ns3:TrackPointExtension>
            <ns3:hr>155</ns3:hr>
            <ns3:cad>83</ns3:cad>
          </ns3:TrackPointExtension>
        </extensions>
      </trkpt>
      <trkpt lat="42.61505191214382648468017578125" lon="2.72041683085262775421142578125">
        <ele>324.20001220703125</ele>
        <time>2023-08-19T17:46:05.000Z</time>
        <extensions>
          <ns3:TrackPointExtension>
            <ns3:hr>155</ns3:hr>
            <ns3:cad>83</ns3:cad>
          </ns3:TrackPointExtension>
        </extensions>
      </trkpt>
      <trkpt lat="42.6150508224964141845703125" lon="2.72042135708034038543701171875">
        <ele>324</ele>
        <time>2023-08-19T17:46:06.000Z</time>
        <extensions>
          <ns3:TrackPointExtension>
            <ns3:hr>154</ns3:hr>
            <ns3:cad>83</ns3:cad>
          </ns3:TrackPointExtension>
        </extensions>
      </trkpt>
      <trkpt lat="42.61505459435284137725830078125" lon="2.7204266376793384552001953125">
        <ele>324</ele>
        <time>2023-08-19T17:46:07.000Z</time>
        <extensions>
          <ns3:TrackPointExtension>
            <ns3:hr>154</ns3:hr>
            <ns3:cad>83</ns3:cad>
          </ns3:TrackPointExtension>
        </extensions>
      </trkpt>
      <trkpt lat="42.61505610309541225433349609375" lon="2.720432169735431671142578125">
        <ele>323.79998779296875</ele>
        <time>2023-08-19T17:46:08.000Z</time>
        <extensions>
          <ns3:TrackPointExtension>
            <ns3:hr>154</ns3:hr>
            <ns3:cad>44</ns3:cad>
          </ns3:TrackPointExtension>
        </extensions>
      </trkpt>
      <trkpt lat="42.615057192742824554443359375" lon="2.7204345166683197021484375">
        <ele>323.79998779296875</ele>
        <time>2023-08-19T17:46:09.000Z</time>
        <extensions>
          <ns3:TrackPointExtension>
            <ns3:hr>154</ns3:hr>
            <ns3:cad>62</ns3:cad>
          </ns3:TrackPointExtension>
        </extensions>
      </trkpt>
      <trkpt lat="42.61505727656185626983642578125" lon="2.72043309174478054046630859375">
        <ele>323.79998779296875</ele>
        <time>2023-08-19T17:46:10.000Z</time>
        <extensions>
          <ns3:TrackPointExtension>
            <ns3:hr>154</ns3:hr>
            <ns3:cad>62</ns3:cad>
          </ns3:TrackPointExtension>
        </extensions>
      </trkpt>
      <trkpt lat="42.6150566898286342620849609375" lon="2.72043292410671710968017578125">
        <ele>323.79998779296875</ele>
        <time>2023-08-19T17:46:11.000Z</time>
        <extensions>
          <ns3:TrackPointExtension>
            <ns3:hr>153</ns3:hr>
            <ns3:cad>0</ns3:cad>
          </ns3:TrackPointExtension>
        </extensions>
      </trkpt>
      <trkpt lat="42.615057192742824554443359375" lon="2.72043250501155853271484375">
        <ele>323.79998779296875</ele>
        <time>2023-08-19T17:46:12.000Z</time>
        <extensions>
          <ns3:TrackPointExtension>
            <ns3:hr>153</ns3:hr>
            <ns3:cad>0</ns3:cad>
          </ns3:TrackPointExtension>
        </extensions>
      </trkpt>
      <trkpt lat="42.61505727656185626983642578125" lon="2.7204318344593048095703125">
        <ele>323.79998779296875</ele>
        <time>2023-08-19T17:46:13.000Z</time>
        <extensions>
          <ns3:TrackPointExtension>
            <ns3:hr>153</ns3:hr>
            <ns3:cad>0</ns3:cad>
          </ns3:TrackPointExtension>
        </extensions>
      </trkpt>
      <trkpt lat="42.61506482027471065521240234375" lon="2.7204289846122264862060546875">
        <ele>323.79998779296875</ele>
        <time>2023-08-19T17:46:14.000Z</time>
        <extensions>
          <ns3:TrackPointExtension>
            <ns3:hr>152</ns3:hr>
            <ns3:cad>67</ns3:cad>
          </ns3:TrackPointExtension>
        </extensions>
      </trkpt>
      <trkpt lat="42.615073956549167633056640625" lon="2.72042873315513134002685546875">
        <ele>323.79998779296875</ele>
        <time>2023-08-19T17:46:15.000Z</time>
        <extensions>
          <ns3:TrackPointExtension>
            <ns3:hr>152</ns3:hr>
            <ns3:cad>63</ns3:cad>
          </ns3:TrackPointExtension>
        </extensions>
      </trkpt>
      <trkpt lat="42.61509533040225505828857421875" lon="2.72043292410671710968017578125">
        <ele>323.79998779296875</ele>
        <time>2023-08-19T17:46:16.000Z</time>
        <extensions>
          <ns3:TrackPointExtension>
            <ns3:hr>152</ns3:hr>
            <ns3:cad>61</ns3:cad>
          </ns3:TrackPointExtension>
        </extensions>
      </trkpt>
      <trkpt lat="42.61511586606502532958984375" lon="2.720454633235931396484375">
        <ele>323.600006103515625</ele>
        <time>2023-08-19T17:46:17.000Z</time>
        <extensions>
          <ns3:TrackPointExtension>
            <ns3:hr>153</ns3:hr>
            <ns3:cad>74</ns3:cad>
          </ns3:TrackPointExtension>
        </extensions>
      </trkpt>
      <trkpt lat="42.6151314564049243927001953125" lon="2.72048120386898517608642578125">
        <ele>323.600006103515625</ele>
        <time>2023-08-19T17:46:18.000Z</time>
        <extensions>
          <ns3:TrackPointExtension>
            <ns3:hr>153</ns3:hr>
            <ns3:cad>80</ns3:cad>
          </ns3:TrackPointExtension>
        </extensions>
      </trkpt>
      <trkpt lat="42.6151455380022525787353515625" lon="2.72052411921322345733642578125">
        <ele>323.399993896484375</ele>
        <time>2023-08-19T17:46:19.000Z</time>
        <extensions>
          <ns3:TrackPointExtension>
            <ns3:hr>154</ns3:hr>
            <ns3:cad>80</ns3:cad>
          </ns3:TrackPointExtension>
        </extensions>
      </trkpt>
      <trkpt lat="42.615159787237644195556640625" lon="2.72055580280721187591552734375">
        <ele>323</ele>
        <time>2023-08-19T17:46:20.000Z</time>
        <extensions>
          <ns3:TrackPointExtension>
            <ns3:hr>153</ns3:hr>
            <ns3:cad>81</ns3:cad>
          </ns3:TrackPointExtension>
        </extensions>
      </trkpt>
      <trkpt lat="42.6151773892343044281005859375" lon="2.72059385664761066436767578125">
        <ele>322.79998779296875</ele>
        <time>2023-08-19T17:46:21.000Z</time>
        <extensions>
          <ns3:TrackPointExtension>
            <ns3:hr>153</ns3:hr>
            <ns3:cad>82</ns3:cad>
          </ns3:TrackPointExtension>
        </extensions>
      </trkpt>
      <trkpt lat="42.61519096791744232177734375" lon="2.7206335030496120452880859375">
        <ele>322.79998779296875</ele>
        <time>2023-08-19T17:46:22.000Z</time>
        <extensions>
          <ns3:TrackPointExtension>
            <ns3:hr>154</ns3:hr>
            <ns3:cad>83</ns3:cad>
          </ns3:TrackPointExtension>
        </extensions>
      </trkpt>
      <trkpt lat="42.61520479805767536163330078125" lon="2.7206680364906787872314453125">
        <ele>322.600006103515625</ele>
        <time>2023-08-19T17:46:23.000Z</time>
        <extensions>
          <ns3:TrackPointExtension>
            <ns3:hr>153</ns3:hr>
            <ns3:cad>83</ns3:cad>
          </ns3:TrackPointExtension>
        </extensions>
      </trkpt>
      <trkpt lat="42.61521779000759124755859375" lon="2.72070634178817272186279296875">
        <ele>322.600006103515625</ele>
        <time>2023-08-19T17:46:24.000Z</time>
        <extensions>
          <ns3:TrackPointExtension>
            <ns3:hr>151</ns3:hr>
            <ns3:cad>83</ns3:cad>
          </ns3:TrackPointExtension>
        </extensions>
      </trkpt>
      <trkpt lat="42.61522843502461910247802734375" lon="2.7207374386489391326904296875">
        <ele>322.399993896484375</ele>
        <time>2023-08-19T17:46:25.000Z</time>
        <extensions>
          <ns3:TrackPointExtension>
            <ns3:hr>152</ns3:hr>
            <ns3:cad>84</ns3:cad>
          </ns3:TrackPointExtension>
        </extensions>
      </trkpt>
      <trkpt lat="42.61523882858455181121826171875" lon="2.7207813598215579986572265625">
        <ele>322.399993896484375</ele>
        <time>2023-08-19T17:46:26.000Z</time>
        <extensions>
          <ns3:TrackPointExtension>
            <ns3:hr>151</ns3:hr>
            <ns3:cad>84</ns3:cad>
          </ns3:TrackPointExtension>
        </extensions>
      </trkpt>
      <trkpt lat="42.6152474619448184967041015625" lon="2.72082100622355937957763671875">
        <ele>322.20001220703125</ele>
        <time>2023-08-19T17:46:27.000Z</time>
        <extensions>
          <ns3:TrackPointExtension>
            <ns3:hr>151</ns3:hr>
            <ns3:cad>84</ns3:cad>
          </ns3:TrackPointExtension>
        </extensions>
      </trkpt>
      <trkpt lat="42.61525668203830718994140625" lon="2.72085570730268955230712890625">
        <ele>322.20001220703125</ele>
        <time>2023-08-19T17:46:28.000Z</time>
        <extensions>
          <ns3:TrackPointExtension>
            <ns3:hr>151</ns3:hr>
            <ns3:cad>83</ns3:cad>
          </ns3:TrackPointExtension>
        </extensions>
      </trkpt>
      <trkpt lat="42.61526414193212985992431640625" lon="2.72089694626629352569580078125">
        <ele>322.20001220703125</ele>
        <time>2023-08-19T17:46:29.000Z</time>
        <extensions>
          <ns3:TrackPointExtension>
            <ns3:hr>151</ns3:hr>
            <ns3:cad>84</ns3:cad>
          </ns3:TrackPointExtension>
        </extensions>
      </trkpt>
      <trkpt lat="42.61527604423463344573974609375" lon="2.72092896513640880584716796875">
        <ele>321.79998779296875</ele>
        <time>2023-08-19T17:46:30.000Z</time>
        <extensions>
          <ns3:TrackPointExtension>
            <ns3:hr>151</ns3:hr>
            <ns3:cad>85</ns3:cad>
          </ns3:TrackPointExtension>
        </extensions>
      </trkpt>
      <trkpt lat="42.615281157195568084716796875" lon="2.720974646508693695068359375">
        <ele>321.79998779296875</ele>
        <time>2023-08-19T17:46:31.000Z</time>
        <extensions>
          <ns3:TrackPointExtension>
            <ns3:hr>151</ns3:hr>
            <ns3:cad>86</ns3:cad>
          </ns3:TrackPointExtension>
        </extensions>
      </trkpt>
      <trkpt lat="42.6152880303561687469482421875" lon="2.72101094014942646026611328125">
        <ele>321.79998779296875</ele>
        <time>2023-08-19T17:46:32.000Z</time>
        <extensions>
          <ns3:TrackPointExtension>
            <ns3:hr>151</ns3:hr>
            <ns3:cad>86</ns3:cad>
          </ns3:TrackPointExtension>
        </extensions>
      </trkpt>
      <trkpt lat="42.61529666371643543243408203125" lon="2.72104673087596893310546875">
        <ele>321.600006103515625</ele>
        <time>2023-08-19T17:46:33.000Z</time>
        <extensions>
          <ns3:TrackPointExtension>
            <ns3:hr>151</ns3:hr>
            <ns3:cad>85</ns3:cad>
          </ns3:TrackPointExtension>
        </extensions>
      </trkpt>
      <trkpt lat="42.615302614867687225341796875" lon="2.72108486853539943695068359375">
        <ele>321.399993896484375</ele>
        <time>2023-08-19T17:46:34.000Z</time>
        <extensions>
          <ns3:TrackPointExtension>
            <ns3:hr>151</ns3:hr>
            <ns3:cad>85</ns3:cad>
          </ns3:TrackPointExtension>
        </extensions>
      </trkpt>
      <trkpt lat="42.6153161935508251190185546875" lon="2.72111521102488040924072265625">
        <ele>321.399993896484375</ele>
        <time>2023-08-19T17:46:35.000Z</time>
        <extensions>
          <ns3:TrackPointExtension>
            <ns3:hr>151</ns3:hr>
            <ns3:cad>85</ns3:cad>
          </ns3:TrackPointExtension>
        </extensions>
      </trkpt>
      <trkpt lat="42.6153316162526607513427734375" lon="2.721153683960437774658203125">
        <ele>321.20001220703125</ele>
        <time>2023-08-19T17:46:36.000Z</time>
        <extensions>
          <ns3:TrackPointExtension>
            <ns3:hr>151</ns3:hr>
            <ns3:cad>85</ns3:cad>
          </ns3:TrackPointExtension>
        </extensions>
      </trkpt>
      <trkpt lat="42.6153470389544963836669921875" lon="2.7211823500692844390869140625">
        <ele>321</ele>
        <time>2023-08-19T17:46:37.000Z</time>
        <extensions>
          <ns3:TrackPointExtension>
            <ns3:hr>151</ns3:hr>
            <ns3:cad>85</ns3:cad>
          </ns3:TrackPointExtension>
        </extensions>
      </trkpt>
      <trkpt lat="42.6153624616563320159912109375" lon="2.721220068633556365966796875">
        <ele>321</ele>
        <time>2023-08-19T17:46:38.000Z</time>
        <extensions>
          <ns3:TrackPointExtension>
            <ns3:hr>151</ns3:hr>
            <ns3:cad>85</ns3:cad>
          </ns3:TrackPointExtension>
        </extensions>
      </trkpt>
      <trkpt lat="42.615372352302074432373046875" lon="2.721250914037227630615234375">
        <ele>321</ele>
        <time>2023-08-19T17:46:39.000Z</time>
        <extensions>
          <ns3:TrackPointExtension>
            <ns3:hr>151</ns3:hr>
            <ns3:cad>85</ns3:cad>
          </ns3:TrackPointExtension>
        </extensions>
      </trkpt>
      <trkpt lat="42.61538567952811717987060546875" lon="2.72128938697278499603271484375">
        <ele>320.79998779296875</ele>
        <time>2023-08-19T17:46:40.000Z</time>
        <extensions>
          <ns3:TrackPointExtension>
            <ns3:hr>151</ns3:hr>
            <ns3:cad>86</ns3:cad>
          </ns3:TrackPointExtension>
        </extensions>
      </trkpt>
      <trkpt lat="42.6153963245451450347900390625" lon="2.72132693789899349212646484375">
        <ele>320.600006103515625</ele>
        <time>2023-08-19T17:46:41.000Z</time>
        <extensions>
          <ns3:TrackPointExtension>
            <ns3:hr>151</ns3:hr>
            <ns3:cad>86</ns3:cad>
          </ns3:TrackPointExtension>
        </extensions>
      </trkpt>
      <trkpt lat="42.6154060475528240203857421875" lon="2.721358202397823333740234375">
        <ele>320.600006103515625</ele>
        <time>2023-08-19T17:46:42.000Z</time>
        <extensions>
          <ns3:TrackPointExtension>
            <ns3:hr>151</ns3:hr>
            <ns3:cad>86</ns3:cad>
          </ns3:TrackPointExtension>
        </extensions>
      </trkpt>
      <trkpt lat="42.61541266925632953643798828125" lon="2.7214006148278713226318359375">
        <ele>320.399993896484375</ele>
        <time>2023-08-19T17:46:43.000Z</time>
        <extensions>
          <ns3:TrackPointExtension>
            <ns3:hr>151</ns3:hr>
            <ns3:cad>86</ns3:cad>
          </ns3:TrackPointExtension>
        </extensions>
      </trkpt>
      <trkpt lat="42.6154214702546596527099609375" lon="2.72143523208796977996826171875">
        <ele>320.20001220703125</ele>
        <time>2023-08-19T17:46:44.000Z</time>
        <extensions>
          <ns3:TrackPointExtension>
            <ns3:hr>151</ns3:hr>
            <ns3:cad>86</ns3:cad>
          </ns3:TrackPointExtension>
        </extensions>
      </trkpt>
      <trkpt lat="42.615431360900402069091796875" lon="2.72147865034639835357666015625">
        <ele>320</ele>
        <time>2023-08-19T17:46:45.000Z</time>
        <extensions>
          <ns3:TrackPointExtension>
            <ns3:hr>151</ns3:hr>
            <ns3:cad>86</ns3:cad>
          </ns3:TrackPointExtension>
        </extensions>
      </trkpt>
      <trkpt lat="42.6154402457177639007568359375" lon="2.7215146087110042572021484375">
        <ele>320</ele>
        <time>2023-08-19T17:46:46.000Z</time>
        <extensions>
          <ns3:TrackPointExtension>
            <ns3:hr>151</ns3:hr>
            <ns3:cad>85</ns3:cad>
          </ns3:TrackPointExtension>
        </extensions>
      </trkpt>
      <trkpt lat="42.61544921435415744781494140625" lon="2.72155140526592731475830078125">
        <ele>319.79998779296875</ele>
        <time>2023-08-19T17:46:47.000Z</time>
        <extensions>
          <ns3:TrackPointExtension>
            <ns3:hr>151</ns3:hr>
            <ns3:cad>85</ns3:cad>
          </ns3:TrackPointExtension>
        </extensions>
      </trkpt>
      <trkpt lat="42.61545608751475811004638671875" lon="2.72158929146826267242431640625">
        <ele>319.79998779296875</ele>
        <time>2023-08-19T17:46:48.000Z</time>
        <extensions>
          <ns3:TrackPointExtension>
            <ns3:hr>151</ns3:hr>
            <ns3:cad>85</ns3:cad>
          </ns3:TrackPointExtension>
        </extensions>
      </trkpt>
      <trkpt lat="42.61546614579856395721435546875" lon="2.7216222323477268218994140625">
        <ele>319.600006103515625</ele>
        <time>2023-08-19T17:46:49.000Z</time>
        <extensions>
          <ns3:TrackPointExtension>
            <ns3:hr>151</ns3:hr>
            <ns3:cad>85</ns3:cad>
          </ns3:TrackPointExtension>
        </extensions>
      </trkpt>
      <trkpt lat="42.615472935140132904052734375" lon="2.72166070528328418731689453125">
        <ele>319.600006103515625</ele>
        <time>2023-08-19T17:46:50.000Z</time>
        <extensions>
          <ns3:TrackPointExtension>
            <ns3:hr>151</ns3:hr>
            <ns3:cad>84</ns3:cad>
          </ns3:TrackPointExtension>
        </extensions>
      </trkpt>
      <trkpt lat="42.6154814846813678741455078125" lon="2.7216986753046512603759765625">
        <ele>319.399993896484375</ele>
        <time>2023-08-19T17:46:51.000Z</time>
        <extensions>
          <ns3:TrackPointExtension>
            <ns3:hr>151</ns3:hr>
            <ns3:cad>84</ns3:cad>
          </ns3:TrackPointExtension>
        </extensions>
      </trkpt>
      <trkpt lat="42.6154880225658416748046875" lon="2.72173480130732059478759765625">
        <ele>319.399993896484375</ele>
        <time>2023-08-19T17:46:52.000Z</time>
        <extensions>
          <ns3:TrackPointExtension>
            <ns3:hr>151</ns3:hr>
            <ns3:cad>84</ns3:cad>
          </ns3:TrackPointExtension>
        </extensions>
      </trkpt>
      <trkpt lat="42.6154905371367931365966796875" lon="2.7217697538435459136962890625">
        <ele>319</ele>
        <time>2023-08-19T17:46:53.000Z</time>
        <extensions>
          <ns3:TrackPointExtension>
            <ns3:hr>151</ns3:hr>
            <ns3:cad>84</ns3:cad>
          </ns3:TrackPointExtension>
        </extensions>
      </trkpt>
      <trkpt lat="42.6154989190399646759033203125" lon="2.72180118598043918609619140625">
        <ele>318.79998779296875</ele>
        <time>2023-08-19T17:46:54.000Z</time>
        <extensions>
          <ns3:TrackPointExtension>
            <ns3:hr>151</ns3:hr>
            <ns3:cad>84</ns3:cad>
          </ns3:TrackPointExtension>
        </extensions>
      </trkpt>
      <trkpt lat="42.6155099831521511077880859375" lon="2.7218404971063137054443359375">
        <ele>318.600006103515625</ele>
        <time>2023-08-19T17:46:55.000Z</time>
        <extensions>
          <ns3:TrackPointExtension>
            <ns3:hr>151</ns3:hr>
            <ns3:cad>84</ns3:cad>
          </ns3:TrackPointExtension>
        </extensions>
      </trkpt>
      <trkpt lat="42.6155217178165912628173828125" lon="2.72187410853803157806396484375">
        <ele>318.600006103515625</ele>
        <time>2023-08-19T17:46:56.000Z</time>
        <extensions>
          <ns3:TrackPointExtension>
            <ns3:hr>151</ns3:hr>
            <ns3:cad>85</ns3:cad>
          </ns3:TrackPointExtension>
        </extensions>
      </trkpt>
      <trkpt lat="42.61553538031876087188720703125" lon="2.72191308438777923583984375">
        <ele>318.600006103515625</ele>
        <time>2023-08-19T17:46:57.000Z</time>
        <extensions>
          <ns3:TrackPointExtension>
            <ns3:hr>151</ns3:hr>
            <ns3:cad>85</ns3:cad>
          </ns3:TrackPointExtension>
        </extensions>
      </trkpt>
      <trkpt lat="42.6155470311641693115234375" lon="2.7219427563250064849853515625">
        <ele>318.600006103515625</ele>
        <time>2023-08-19T17:46:58.000Z</time>
        <extensions>
          <ns3:TrackPointExtension>
            <ns3:hr>152</ns3:hr>
            <ns3:cad>85</ns3:cad>
          </ns3:TrackPointExtension>
        </extensions>
      </trkpt>
      <trkpt lat="42.61556245386600494384765625" lon="2.72197477519512176513671875">
        <ele>318.399993896484375</ele>
        <time>2023-08-19T17:46:59.000Z</time>
        <extensions>
          <ns3:TrackPointExtension>
            <ns3:hr>152</ns3:hr>
            <ns3:cad>85</ns3:cad>
          </ns3:TrackPointExtension>
        </extensions>
      </trkpt>
      <trkpt lat="42.615579552948474884033203125" lon="2.72201106883585453033447265625">
        <ele>318.399993896484375</ele>
        <time>2023-08-19T17:47:00.000Z</time>
        <extensions>
          <ns3:TrackPointExtension>
            <ns3:hr>152</ns3:hr>
            <ns3:cad>85</ns3:cad>
          </ns3:TrackPointExtension>
        </extensions>
      </trkpt>
      <trkpt lat="42.61559774167835712432861328125" lon="2.722037471830844879150390625">
        <ele>318.399993896484375</ele>
        <time>2023-08-19T17:47:01.000Z</time>
        <extensions>
          <ns3:TrackPointExtension>
            <ns3:hr>152</ns3:hr>
            <ns3:cad>85</ns3:cad>
          </ns3:TrackPointExtension>
        </extensions>
      </trkpt>
      <trkpt lat="42.615619786083698272705078125" lon="2.72206856869161128997802734375">
        <ele>318.399993896484375</ele>
        <time>2023-08-19T17:47:02.000Z</time>
        <extensions>
          <ns3:TrackPointExtension>
            <ns3:hr>152</ns3:hr>
            <ns3:cad>85</ns3:cad>
          </ns3:TrackPointExtension>
        </extensions>
      </trkpt>
      <trkpt lat="42.61563948355615139007568359375" lon="2.72209337912499904632568359375">
        <ele>318.20001220703125</ele>
        <time>2023-08-19T17:47:03.000Z</time>
        <extensions>
          <ns3:TrackPointExtension>
            <ns3:hr>152</ns3:hr>
            <ns3:cad>85</ns3:cad>
          </ns3:TrackPointExtension>
        </extensions>
      </trkpt>
      <trkpt lat="42.61566077359020709991455078125" lon="2.72211718373000621795654296875">
        <ele>318.20001220703125</ele>
        <time>2023-08-19T17:47:04.000Z</time>
        <extensions>
          <ns3:TrackPointExtension>
            <ns3:hr>152</ns3:hr>
            <ns3:cad>85</ns3:cad>
          </ns3:TrackPointExtension>
        </extensions>
      </trkpt>
      <trkpt lat="42.6156826503574848175048828125" lon="2.72214987315237522125244140625">
        <ele>318.20001220703125</ele>
        <time>2023-08-19T17:47:05.000Z</time>
        <extensions>
          <ns3:TrackPointExtension>
            <ns3:hr>152</ns3:hr>
            <ns3:cad>85</ns3:cad>
          </ns3:TrackPointExtension>
        </extensions>
      </trkpt>
      <trkpt lat="42.6157020963728427886962890625" lon="2.72217200137674808502197265625">
        <ele>318.20001220703125</ele>
        <time>2023-08-19T17:47:06.000Z</time>
        <extensions>
          <ns3:TrackPointExtension>
            <ns3:hr>152</ns3:hr>
            <ns3:cad>85</ns3:cad>
          </ns3:TrackPointExtension>
        </extensions>
      </trkpt>
      <trkpt lat="42.61573143303394317626953125" lon="2.72219798527657985687255859375">
        <ele>318</ele>
        <time>2023-08-19T17:47:07.000Z</time>
        <extensions>
          <ns3:TrackPointExtension>
            <ns3:hr>152</ns3:hr>
            <ns3:cad>85</ns3:cad>
          </ns3:TrackPointExtension>
        </extensions>
      </trkpt>
      <trkpt lat="42.61575364507734775543212890625" lon="2.7222155034542083740234375">
        <ele>318</ele>
        <time>2023-08-19T17:47:08.000Z</time>
        <extensions>
          <ns3:TrackPointExtension>
            <ns3:hr>152</ns3:hr>
            <ns3:cad>85</ns3:cad>
          </ns3:TrackPointExtension>
        </extensions>
      </trkpt>
      <trkpt lat="42.61578373610973358154296875" lon="2.72224844433367252349853515625">
        <ele>317.79998779296875</ele>
        <time>2023-08-19T17:47:09.000Z</time>
        <extensions>
          <ns3:TrackPointExtension>
            <ns3:hr>152</ns3:hr>
            <ns3:cad>86</ns3:cad>
          </ns3:TrackPointExtension>
        </extensions>
      </trkpt>
      <trkpt lat="42.61580326594412326812744140625" lon="2.72227694280445575714111328125">
        <ele>317.600006103515625</ele>
        <time>2023-08-19T17:47:10.000Z</time>
        <extensions>
          <ns3:TrackPointExtension>
            <ns3:hr>152</ns3:hr>
            <ns3:cad>86</ns3:cad>
          </ns3:TrackPointExtension>
        </extensions>
      </trkpt>
      <trkpt lat="42.61582396924495697021484375" lon="2.72230862639844417572021484375">
        <ele>317.600006103515625</ele>
        <time>2023-08-19T17:47:11.000Z</time>
        <extensions>
          <ns3:TrackPointExtension>
            <ns3:hr>152</ns3:hr>
            <ns3:cad>86</ns3:cad>
          </ns3:TrackPointExtension>
        </extensions>
      </trkpt>
      <trkpt lat="42.61584400199353694915771484375" lon="2.72234466858208179473876953125">
        <ele>317.600006103515625</ele>
        <time>2023-08-19T17:47:12.000Z</time>
        <extensions>
          <ns3:TrackPointExtension>
            <ns3:hr>152</ns3:hr>
            <ns3:cad>85</ns3:cad>
          </ns3:TrackPointExtension>
        </extensions>
      </trkpt>
      <trkpt lat="42.615863867104053497314453125" lon="2.72237836383283138275146484375">
        <ele>317.399993896484375</ele>
        <time>2023-08-19T17:47:13.000Z</time>
        <extensions>
          <ns3:TrackPointExtension>
            <ns3:hr>153</ns3:hr>
            <ns3:cad>85</ns3:cad>
          </ns3:TrackPointExtension>
        </extensions>
      </trkpt>
      <trkpt lat="42.61587786488234996795654296875" lon="2.72241423837840557098388671875">
        <ele>317.399993896484375</ele>
        <time>2023-08-19T17:47:14.000Z</time>
        <extensions>
          <ns3:TrackPointExtension>
            <ns3:hr>152</ns3:hr>
            <ns3:cad>85</ns3:cad>
          </ns3:TrackPointExtension>
        </extensions>
      </trkpt>
      <trkpt lat="42.61589027009904384613037109375" lon="2.722441814839839935302734375">
        <ele>317.20001220703125</ele>
        <time>2023-08-19T17:47:15.000Z</time>
        <extensions>
          <ns3:TrackPointExtension>
            <ns3:hr>153</ns3:hr>
            <ns3:cad>85</ns3:cad>
          </ns3:TrackPointExtension>
        </extensions>
      </trkpt>
      <trkpt lat="42.615904100239276885986328125" lon="2.722475342452526092529296875">
        <ele>317</ele>
        <time>2023-08-19T17:47:16.000Z</time>
        <extensions>
          <ns3:TrackPointExtension>
            <ns3:hr>153</ns3:hr>
            <ns3:cad>85</ns3:cad>
          </ns3:TrackPointExtension>
        </extensions>
      </trkpt>
      <trkpt lat="42.61591541580855846405029296875" lon="2.72251314483582973480224609375">
        <ele>316.79998779296875</ele>
        <time>2023-08-19T17:47:17.000Z</time>
        <extensions>
          <ns3:TrackPointExtension>
            <ns3:hr>153</ns3:hr>
            <ns3:cad>85</ns3:cad>
          </ns3:TrackPointExtension>
        </extensions>
      </trkpt>
      <trkpt lat="42.61592924594879150390625" lon="2.72254717536270618438720703125">
        <ele>316.79998779296875</ele>
        <time>2023-08-19T17:47:18.000Z</time>
        <extensions>
          <ns3:TrackPointExtension>
            <ns3:hr>153</ns3:hr>
            <ns3:cad>85</ns3:cad>
          </ns3:TrackPointExtension>
        </extensions>
      </trkpt>
      <trkpt lat="42.6159445010125637054443359375" lon="2.72258791141211986541748046875">
        <ele>316.600006103515625</ele>
        <time>2023-08-19T17:47:19.000Z</time>
        <extensions>
          <ns3:TrackPointExtension>
            <ns3:hr>153</ns3:hr>
            <ns3:cad>85</ns3:cad>
          </ns3:TrackPointExtension>
        </extensions>
      </trkpt>
      <trkpt lat="42.61596101336181163787841796875" lon="2.722615487873554229736328125">
        <ele>316.600006103515625</ele>
        <time>2023-08-19T17:47:20.000Z</time>
        <extensions>
          <ns3:TrackPointExtension>
            <ns3:hr>153</ns3:hr>
            <ns3:cad>85</ns3:cad>
          </ns3:TrackPointExtension>
        </extensions>
      </trkpt>
      <trkpt lat="42.6159820519387722015380859375" lon="2.72264541126787662506103515625">
        <ele>316.600006103515625</ele>
        <time>2023-08-19T17:47:21.000Z</time>
        <extensions>
          <ns3:TrackPointExtension>
            <ns3:hr>154</ns3:hr>
            <ns3:cad>85</ns3:cad>
          </ns3:TrackPointExtension>
        </extensions>
      </trkpt>
      <trkpt lat="42.61599906720221042633056640625" lon="2.72267206571996212005615234375">
        <ele>316.600006103515625</ele>
        <time>2023-08-19T17:47:22.000Z</time>
        <extensions>
          <ns3:TrackPointExtension>
            <ns3:hr>154</ns3:hr>
            <ns3:cad>85</ns3:cad>
          </ns3:TrackPointExtension>
        </extensions>
      </trkpt>
      <trkpt lat="42.61602220125496387481689453125" lon="2.72270567715167999267578125">
        <ele>316.600006103515625</ele>
        <time>2023-08-19T17:47:23.000Z</time>
        <extensions>
          <ns3:TrackPointExtension>
            <ns3:hr>154</ns3:hr>
            <ns3:cad>85</ns3:cad>
          </ns3:TrackPointExtension>
        </extensions>
      </trkpt>
      <trkpt lat="42.6160397194325923919677734375" lon="2.72273610346019268035888671875">
        <ele>316.600006103515625</ele>
        <time>2023-08-19T17:47:24.000Z</time>
        <extensions>
          <ns3:TrackPointExtension>
            <ns3:hr>154</ns3:hr>
            <ns3:cad>86</ns3:cad>
          </ns3:TrackPointExtension>
        </extensions>
      </trkpt>
      <trkpt lat="42.61605774052441120147705078125" lon="2.72276359610259532928466796875">
        <ele>316.600006103515625</ele>
        <time>2023-08-19T17:47:25.000Z</time>
        <extensions>
          <ns3:TrackPointExtension>
            <ns3:hr>154</ns3:hr>
            <ns3:cad>86</ns3:cad>
          </ns3:TrackPointExtension>
        </extensions>
      </trkpt>
      <trkpt lat="42.6160752587020397186279296875" lon="2.7228007279336452484130859375">
        <ele>316.399993896484375</ele>
        <time>2023-08-19T17:47:26.000Z</time>
        <extensions>
          <ns3:TrackPointExtension>
            <ns3:hr>154</ns3:hr>
            <ns3:cad>86</ns3:cad>
          </ns3:TrackPointExtension>
        </extensions>
      </trkpt>
      <trkpt lat="42.61609462089836597442626953125" lon="2.7228350937366485595703125">
        <ele>316.399993896484375</ele>
        <time>2023-08-19T17:47:27.000Z</time>
        <extensions>
          <ns3:TrackPointExtension>
            <ns3:hr>154</ns3:hr>
            <ns3:cad>86</ns3:cad>
          </ns3:TrackPointExtension>
        </extensions>
      </trkpt>
      <trkpt lat="42.61611557565629482269287109375" lon="2.72287323139607906341552734375">
        <ele>316.20001220703125</ele>
        <time>2023-08-19T17:47:28.000Z</time>
        <extensions>
          <ns3:TrackPointExtension>
            <ns3:hr>154</ns3:hr>
            <ns3:cad>86</ns3:cad>
          </ns3:TrackPointExtension>
        </extensions>
      </trkpt>
      <trkpt lat="42.6161325909197330474853515625" lon="2.72290307097136974334716796875">
        <ele>316.20001220703125</ele>
        <time>2023-08-19T17:47:29.000Z</time>
        <extensions>
          <ns3:TrackPointExtension>
            <ns3:hr>155</ns3:hr>
            <ns3:cad>86</ns3:cad>
          </ns3:TrackPointExtension>
        </extensions>
      </trkpt>
      <trkpt lat="42.616151869297027587890625" lon="2.7229345031082630157470703125">
        <ele>316</ele>
        <time>2023-08-19T17:47:30.000Z</time>
        <extensions>
          <ns3:TrackPointExtension>
            <ns3:hr>155</ns3:hr>
            <ns3:cad>86</ns3:cad>
          </ns3:TrackPointExtension>
        </extensions>
      </trkpt>
      <trkpt lat="42.61616821400821208953857421875" lon="2.7229676954448223114013671875">
        <ele>315.79998779296875</ele>
        <time>2023-08-19T17:47:31.000Z</time>
        <extensions>
          <ns3:TrackPointExtension>
            <ns3:hr>155</ns3:hr>
            <ns3:cad>86</ns3:cad>
          </ns3:TrackPointExtension>
        </extensions>
      </trkpt>
      <trkpt lat="42.61618514545261859893798828125" lon="2.72300046868622303009033203125">
        <ele>315.600006103515625</ele>
        <time>2023-08-19T17:47:32.000Z</time>
        <extensions>
          <ns3:TrackPointExtension>
            <ns3:hr>155</ns3:hr>
            <ns3:cad>85</ns3:cad>
          </ns3:TrackPointExtension>
        </extensions>
      </trkpt>
      <trkpt lat="42.6162033341825008392333984375" lon="2.723033241927623748779296875">
        <ele>315.600006103515625</ele>
        <time>2023-08-19T17:47:33.000Z</time>
        <extensions>
          <ns3:TrackPointExtension>
            <ns3:hr>155</ns3:hr>
            <ns3:cad>86</ns3:cad>
          </ns3:TrackPointExtension>
        </extensions>
      </trkpt>
      <trkpt lat="42.61622018180787563323974609375" lon="2.7230588905513286590576171875">
        <ele>315.399993896484375</ele>
        <time>2023-08-19T17:47:34.000Z</time>
        <extensions>
          <ns3:TrackPointExtension>
            <ns3:hr>156</ns3:hr>
            <ns3:cad>87</ns3:cad>
          </ns3:TrackPointExtension>
        </extensions>
      </trkpt>
      <trkpt lat="42.616239376366138458251953125" lon="2.7230967767536640167236328125">
        <ele>315.20001220703125</ele>
        <time>2023-08-19T17:47:35.000Z</time>
        <extensions>
          <ns3:TrackPointExtension>
            <ns3:hr>156</ns3:hr>
            <ns3:cad>86</ns3:cad>
          </ns3:TrackPointExtension>
        </extensions>
      </trkpt>
      <trkpt lat="42.61625421233475208282470703125" lon="2.72312586195766925811767578125">
        <ele>315</ele>
        <time>2023-08-19T17:47:36.000Z</time>
        <extensions>
          <ns3:TrackPointExtension>
            <ns3:hr>156</ns3:hr>
            <ns3:cad>86</ns3:cad>
          </ns3:TrackPointExtension>
        </extensions>
      </trkpt>
      <trkpt lat="42.6162683777511119842529296875" lon="2.72316433489322662353515625">
        <ele>315</ele>
        <time>2023-08-19T17:47:37.000Z</time>
        <extensions>
          <ns3:TrackPointExtension>
            <ns3:hr>156</ns3:hr>
            <ns3:cad>86</ns3:cad>
          </ns3:TrackPointExtension>
        </extensions>
      </trkpt>
      <trkpt lat="42.61627751402556896209716796875" lon="2.7231987006962299346923828125">
        <ele>314.79998779296875</ele>
        <time>2023-08-19T17:47:38.000Z</time>
        <extensions>
          <ns3:TrackPointExtension>
            <ns3:hr>157</ns3:hr>
            <ns3:cad>86</ns3:cad>
          </ns3:TrackPointExtension>
        </extensions>
      </trkpt>
      <trkpt lat="42.6162854768335819244384765625" lon="2.7232352457940578460693359375">
        <ele>314.600006103515625</ele>
        <time>2023-08-19T17:47:39.000Z</time>
        <extensions>
          <ns3:TrackPointExtension>
            <ns3:hr>157</ns3:hr>
            <ns3:cad>86</ns3:cad>
          </ns3:TrackPointExtension>
        </extensions>
      </trkpt>
      <trkpt lat="42.61628623120486736297607421875" lon="2.7232778258621692657470703125">
        <ele>314.600006103515625</ele>
        <time>2023-08-19T17:47:40.000Z</time>
        <extensions>
          <ns3:TrackPointExtension>
            <ns3:hr>157</ns3:hr>
            <ns3:cad>86</ns3:cad>
          </ns3:TrackPointExtension>
        </extensions>
      </trkpt>
      <trkpt lat="42.61628505773842334747314453125" lon="2.72331696934998035430908203125">
        <ele>314.399993896484375</ele>
        <time>2023-08-19T17:47:41.000Z</time>
        <extensions>
          <ns3:TrackPointExtension>
            <ns3:hr>157</ns3:hr>
            <ns3:cad>86</ns3:cad>
          </ns3:TrackPointExtension>
        </extensions>
      </trkpt>
      <trkpt lat="42.61628103442490100860595703125" lon="2.7233535982668399810791015625">
        <ele>314.399993896484375</ele>
        <time>2023-08-19T17:47:42.000Z</time>
        <extensions>
          <ns3:TrackPointExtension>
            <ns3:hr>157</ns3:hr>
            <ns3:cad>86</ns3:cad>
          </ns3:TrackPointExtension>
        </extensions>
      </trkpt>
      <trkpt lat="42.61627768166363239288330078125" lon="2.7233908139169216156005859375">
        <ele>314.399993896484375</ele>
        <time>2023-08-19T17:47:43.000Z</time>
        <extensions>
          <ns3:TrackPointExtension>
            <ns3:hr>157</ns3:hr>
            <ns3:cad>85</ns3:cad>
          </ns3:TrackPointExtension>
        </extensions>
      </trkpt>
      <trkpt lat="42.61627365835011005401611328125" lon="2.7234317176043987274169921875">
        <ele>314.399993896484375</ele>
        <time>2023-08-19T17:47:44.000Z</time>
        <extensions>
          <ns3:TrackPointExtension>
            <ns3:hr>157</ns3:hr>
            <ns3:cad>85</ns3:cad>
          </ns3:TrackPointExtension>
        </extensions>
      </trkpt>
      <trkpt lat="42.61626997031271457672119140625" lon="2.72347287274897098541259765625">
        <ele>314.399993896484375</ele>
        <time>2023-08-19T17:47:45.000Z</time>
        <extensions>
          <ns3:TrackPointExtension>
            <ns3:hr>157</ns3:hr>
            <ns3:cad>85</ns3:cad>
          </ns3:TrackPointExtension>
        </extensions>
      </trkpt>
      <trkpt lat="42.61626779101788997650146484375" lon="2.72350891493260860443115234375">
        <ele>314.20001220703125</ele>
        <time>2023-08-19T17:47:46.000Z</time>
        <extensions>
          <ns3:TrackPointExtension>
            <ns3:hr>157</ns3:hr>
            <ns3:cad>85</ns3:cad>
          </ns3:TrackPointExtension>
        </extensions>
      </trkpt>
      <trkpt lat="42.616263516247272491455078125" lon="2.72355593740940093994140625">
        <ele>314.20001220703125</ele>
        <time>2023-08-19T17:47:47.000Z</time>
        <extensions>
          <ns3:TrackPointExtension>
            <ns3:hr>157</ns3:hr>
            <ns3:cad>85</ns3:cad>
          </ns3:TrackPointExtension>
        </extensions>
      </trkpt>
      <trkpt lat="42.61626292951405048370361328125" lon="2.72359256632626056671142578125">
        <ele>314.20001220703125</ele>
        <time>2023-08-19T17:47:48.000Z</time>
        <extensions>
          <ns3:TrackPointExtension>
            <ns3:hr>157</ns3:hr>
            <ns3:cad>85</ns3:cad>
          </ns3:TrackPointExtension>
        </extensions>
      </trkpt>
      <trkpt lat="42.61626519262790679931640625" lon="2.72363430820405483245849609375">
        <ele>314.20001220703125</ele>
        <time>2023-08-19T17:47:49.000Z</time>
        <extensions>
          <ns3:TrackPointExtension>
            <ns3:hr>157</ns3:hr>
            <ns3:cad>85</ns3:cad>
          </ns3:TrackPointExtension>
        </extensions>
      </trkpt>
      <trkpt lat="42.61626762337982654571533203125" lon="2.723678313195705413818359375">
        <ele>314</ele>
        <time>2023-08-19T17:47:50.000Z</time>
        <extensions>
          <ns3:TrackPointExtension>
            <ns3:hr>157</ns3:hr>
            <ns3:cad>85</ns3:cad>
          </ns3:TrackPointExtension>
        </extensions>
      </trkpt>
      <trkpt lat="42.61627349071204662322998046875" lon="2.7237197197973728179931640625">
        <ele>314</ele>
        <time>2023-08-19T17:47:51.000Z</time>
        <extensions>
          <ns3:TrackPointExtension>
            <ns3:hr>157</ns3:hr>
            <ns3:cad>85</ns3:cad>
          </ns3:TrackPointExtension>
        </extensions>
      </trkpt>
      <trkpt lat="42.6162779331207275390625" lon="2.72376640699803829193115234375">
        <ele>314</ele>
        <time>2023-08-19T17:47:52.000Z</time>
        <extensions>
          <ns3:TrackPointExtension>
            <ns3:hr>157</ns3:hr>
            <ns3:cad>85</ns3:cad>
          </ns3:TrackPointExtension>
        </extensions>
      </trkpt>
      <trkpt lat="42.61628338135778903961181640625" lon="2.72379976697266101837158203125">
        <ele>313.79998779296875</ele>
        <time>2023-08-19T17:47:53.000Z</time>
        <extensions>
          <ns3:TrackPointExtension>
            <ns3:hr>158</ns3:hr>
            <ns3:cad>85</ns3:cad>
          </ns3:TrackPointExtension>
        </extensions>
      </trkpt>
      <trkpt lat="42.6162895001471042633056640625" lon="2.723846621811389923095703125">
        <ele>313.79998779296875</ele>
        <time>2023-08-19T17:47:54.000Z</time>
        <extensions>
          <ns3:TrackPointExtension>
            <ns3:hr>158</ns3:hr>
            <ns3:cad>85</ns3:cad>
          </ns3:TrackPointExtension>
        </extensions>
      </trkpt>
      <trkpt lat="42.61629729531705379486083984375" lon="2.7238840050995349884033203125">
        <ele>313.600006103515625</ele>
        <time>2023-08-19T17:47:55.000Z</time>
        <extensions>
          <ns3:TrackPointExtension>
            <ns3:hr>158</ns3:hr>
            <ns3:cad>85</ns3:cad>
          </ns3:TrackPointExtension>
        </extensions>
      </trkpt>
      <trkpt lat="42.6163092814385890960693359375" lon="2.7239242382347583770751953125">
        <ele>313.600006103515625</ele>
        <time>2023-08-19T17:47:56.000Z</time>
        <extensions>
          <ns3:TrackPointExtension>
            <ns3:hr>158</ns3:hr>
            <ns3:cad>85</ns3:cad>
          </ns3:TrackPointExtension>
        </extensions>
      </trkpt>
      <trkpt lat="42.61632210575044155120849609375" lon="2.723969332873821258544921875">
        <ele>313.399993896484375</ele>
        <time>2023-08-19T17:47:57.000Z</time>
        <extensions>
          <ns3:TrackPointExtension>
            <ns3:hr>158</ns3:hr>
            <ns3:cad>85</ns3:cad>
          </ns3:TrackPointExtension>
        </extensions>
      </trkpt>
      <trkpt lat="42.6163387857377529144287109375" lon="2.72399757988750934600830078125">
        <ele>313.20001220703125</ele>
        <time>2023-08-19T17:47:58.000Z</time>
        <extensions>
          <ns3:TrackPointExtension>
            <ns3:hr>158</ns3:hr>
            <ns3:cad>85</ns3:cad>
          </ns3:TrackPointExtension>
        </extensions>
      </trkpt>
      <trkpt lat="42.61635345406830310821533203125" lon="2.724037729203701019287109375">
        <ele>313.20001220703125</ele>
        <time>2023-08-19T17:47:59.000Z</time>
        <extensions>
          <ns3:TrackPointExtension>
            <ns3:hr>159</ns3:hr>
            <ns3:cad>85</ns3:cad>
          </ns3:TrackPointExtension>
        </extensions>
      </trkpt>
      <trkpt lat="42.6163659431040287017822265625" lon="2.72407067008316516876220703125">
        <ele>313</ele>
        <time>2023-08-19T17:48:00.000Z</time>
        <extensions>
          <ns3:TrackPointExtension>
            <ns3:hr>158</ns3:hr>
            <ns3:cad>84</ns3:cad>
          </ns3:TrackPointExtension>
        </extensions>
      </trkpt>
      <trkpt lat="42.61637943796813488006591796875" lon="2.7241103164851665496826171875">
        <ele>312.600006103515625</ele>
        <time>2023-08-19T17:48:01.000Z</time>
        <extensions>
          <ns3:TrackPointExtension>
            <ns3:hr>159</ns3:hr>
            <ns3:cad>84</ns3:cad>
          </ns3:TrackPointExtension>
        </extensions>
      </trkpt>
      <trkpt lat="42.6163894124329090118408203125" lon="2.72415063343942165374755859375">
        <ele>312.399993896484375</ele>
        <time>2023-08-19T17:48:02.000Z</time>
        <extensions>
          <ns3:TrackPointExtension>
            <ns3:hr>159</ns3:hr>
            <ns3:cad>85</ns3:cad>
          </ns3:TrackPointExtension>
        </extensions>
      </trkpt>
      <trkpt lat="42.6164034940302371978759765625" lon="2.72418684326112270355224609375">
        <ele>312.399993896484375</ele>
        <time>2023-08-19T17:48:03.000Z</time>
        <extensions>
          <ns3:TrackPointExtension>
            <ns3:hr>159</ns3:hr>
            <ns3:cad>85</ns3:cad>
          </ns3:TrackPointExtension>
        </extensions>
      </trkpt>
      <trkpt lat="42.61641941964626312255859375" lon="2.724225819110870361328125">
        <ele>312.20001220703125</ele>
        <time>2023-08-19T17:48:04.000Z</time>
        <extensions>
          <ns3:TrackPointExtension>
            <ns3:hr>159</ns3:hr>
            <ns3:cad>85</ns3:cad>
          </ns3:TrackPointExtension>
        </extensions>
      </trkpt>
      <trkpt lat="42.6164360158145427703857421875" lon="2.724253647029399871826171875">
        <ele>312.20001220703125</ele>
        <time>2023-08-19T17:48:05.000Z</time>
        <extensions>
          <ns3:TrackPointExtension>
            <ns3:hr>159</ns3:hr>
            <ns3:cad>85</ns3:cad>
          </ns3:TrackPointExtension>
        </extensions>
      </trkpt>
      <trkpt lat="42.6164568029344081878662109375" lon="2.724287509918212890625">
        <ele>311.79998779296875</ele>
        <time>2023-08-19T17:48:06.000Z</time>
        <extensions>
          <ns3:TrackPointExtension>
            <ns3:hr>159</ns3:hr>
            <ns3:cad>85</ns3:cad>
          </ns3:TrackPointExtension>
        </extensions>
      </trkpt>
      <trkpt lat="42.616475410759449005126953125" lon="2.7243195287883281707763671875">
        <ele>311.399993896484375</ele>
        <time>2023-08-19T17:48:07.000Z</time>
        <extensions>
          <ns3:TrackPointExtension>
            <ns3:hr>159</ns3:hr>
            <ns3:cad>85</ns3:cad>
          </ns3:TrackPointExtension>
        </extensions>
      </trkpt>
      <trkpt lat="42.61649292893707752227783203125" lon="2.72434651851654052734375">
        <ele>311.20001220703125</ele>
        <time>2023-08-19T17:48:08.000Z</time>
        <extensions>
          <ns3:TrackPointExtension>
            <ns3:hr>159</ns3:hr>
            <ns3:cad>85</ns3:cad>
          </ns3:TrackPointExtension>
        </extensions>
      </trkpt>
      <trkpt lat="42.61650835163891315460205078125" lon="2.72437811829149723052978515625">
        <ele>311.20001220703125</ele>
        <time>2023-08-19T17:48:09.000Z</time>
        <extensions>
          <ns3:TrackPointExtension>
            <ns3:hr>159</ns3:hr>
            <ns3:cad>84</ns3:cad>
          </ns3:TrackPointExtension>
        </extensions>
      </trkpt>
      <trkpt lat="42.6165233552455902099609375" lon="2.7243993245065212249755859375">
        <ele>311</ele>
        <time>2023-08-19T17:48:10.000Z</time>
        <extensions>
          <ns3:TrackPointExtension>
            <ns3:hr>159</ns3:hr>
            <ns3:cad>81</ns3:cad>
          </ns3:TrackPointExtension>
        </extensions>
      </trkpt>
      <trkpt lat="42.61654120869934558868408203125" lon="2.72443226538598537445068359375">
        <ele>310.79998779296875</ele>
        <time>2023-08-19T17:48:11.000Z</time>
        <extensions>
          <ns3:TrackPointExtension>
            <ns3:hr>159</ns3:hr>
            <ns3:cad>81</ns3:cad>
          </ns3:TrackPointExtension>
        </extensions>
      </trkpt>
      <trkpt lat="42.6165563799440860748291015625" lon="2.72446386516094207763671875">
        <ele>310.600006103515625</ele>
        <time>2023-08-19T17:48:12.000Z</time>
        <extensions>
          <ns3:TrackPointExtension>
            <ns3:hr>159</ns3:hr>
            <ns3:cad>82</ns3:cad>
          </ns3:TrackPointExtension>
        </extensions>
      </trkpt>
      <trkpt lat="42.6165738143026828765869140625" lon="2.7244891785085201263427734375">
        <ele>310.399993896484375</ele>
        <time>2023-08-19T17:48:13.000Z</time>
        <extensions>
          <ns3:TrackPointExtension>
            <ns3:hr>159</ns3:hr>
            <ns3:cad>82</ns3:cad>
          </ns3:TrackPointExtension>
        </extensions>
      </trkpt>
      <trkpt lat="42.6165922544896602630615234375" lon="2.72452094592154026031494140625">
        <ele>310.20001220703125</ele>
        <time>2023-08-19T17:48:14.000Z</time>
        <extensions>
          <ns3:TrackPointExtension>
            <ns3:hr>159</ns3:hr>
            <ns3:cad>82</ns3:cad>
          </ns3:TrackPointExtension>
        </extensions>
      </trkpt>
      <trkpt lat="42.6166110299527645111083984375" lon="2.72454433143138885498046875">
        <ele>310</ele>
        <time>2023-08-19T17:48:15.000Z</time>
        <extensions>
          <ns3:TrackPointExtension>
            <ns3:hr>159</ns3:hr>
            <ns3:cad>83</ns3:cad>
          </ns3:TrackPointExtension>
        </extensions>
      </trkpt>
      <trkpt lat="42.61662402190268039703369140625" lon="2.72457794286310672760009765625">
        <ele>309.79998779296875</ele>
        <time>2023-08-19T17:48:16.000Z</time>
        <extensions>
          <ns3:TrackPointExtension>
            <ns3:hr>159</ns3:hr>
            <ns3:cad>85</ns3:cad>
          </ns3:TrackPointExtension>
        </extensions>
      </trkpt>
      <trkpt lat="42.61663441546261310577392578125" lon="2.7246088720858097076416015625">
        <ele>309.79998779296875</ele>
        <time>2023-08-19T17:48:17.000Z</time>
        <extensions>
          <ns3:TrackPointExtension>
            <ns3:hr>159</ns3:hr>
            <ns3:cad>85</ns3:cad>
          </ns3:TrackPointExtension>
        </extensions>
      </trkpt>
      <trkpt lat="42.6166425459086894989013671875" lon="2.72464692592620849609375">
        <ele>309.600006103515625</ele>
        <time>2023-08-19T17:48:18.000Z</time>
        <extensions>
          <ns3:TrackPointExtension>
            <ns3:hr>159</ns3:hr>
            <ns3:cad>85</ns3:cad>
          </ns3:TrackPointExtension>
        </extensions>
      </trkpt>
      <trkpt lat="42.61664514429867267608642578125" lon="2.7246843092143535614013671875">
        <ele>309.20001220703125</ele>
        <time>2023-08-19T17:48:19.000Z</time>
        <extensions>
          <ns3:TrackPointExtension>
            <ns3:hr>159</ns3:hr>
            <ns3:cad>85</ns3:cad>
          </ns3:TrackPointExtension>
        </extensions>
      </trkpt>
      <trkpt lat="42.61665277183055877685546875" lon="2.7247208543121814727783203125">
        <ele>309.20001220703125</ele>
        <time>2023-08-19T17:48:20.000Z</time>
        <extensions>
          <ns3:TrackPointExtension>
            <ns3:hr>159</ns3:hr>
            <ns3:cad>86</ns3:cad>
          </ns3:TrackPointExtension>
        </extensions>
      </trkpt>
      <trkpt lat="42.616661489009857177734375" lon="2.72475949488580226898193359375">
        <ele>309</ele>
        <time>2023-08-19T17:48:21.000Z</time>
        <extensions>
          <ns3:TrackPointExtension>
            <ns3:hr>159</ns3:hr>
            <ns3:cad>86</ns3:cad>
          </ns3:TrackPointExtension>
        </extensions>
      </trkpt>
      <trkpt lat="42.6166743971407413482666015625" lon="2.7247882448136806488037109375">
        <ele>308.600006103515625</ele>
        <time>2023-08-19T17:48:22.000Z</time>
        <extensions>
          <ns3:TrackPointExtension>
            <ns3:hr>158</ns3:hr>
            <ns3:cad>85</ns3:cad>
          </ns3:TrackPointExtension>
        </extensions>
      </trkpt>
      <trkpt lat="42.61668889783322811126708984375" lon="2.7248180843889713287353515625">
        <ele>308.399993896484375</ele>
        <time>2023-08-19T17:48:23.000Z</time>
        <extensions>
          <ns3:TrackPointExtension>
            <ns3:hr>158</ns3:hr>
            <ns3:cad>86</ns3:cad>
          </ns3:TrackPointExtension>
        </extensions>
      </trkpt>
      <trkpt lat="42.61670297943055629730224609375" lon="2.72484415210783481597900390625">
        <ele>308.20001220703125</ele>
        <time>2023-08-19T17:48:24.000Z</time>
        <extensions>
          <ns3:TrackPointExtension>
            <ns3:hr>158</ns3:hr>
            <ns3:cad>86</ns3:cad>
          </ns3:TrackPointExtension>
        </extensions>
      </trkpt>
      <trkpt lat="42.6167136244475841522216796875" lon="2.72487801499664783477783203125">
        <ele>308.20001220703125</ele>
        <time>2023-08-19T17:48:25.000Z</time>
        <extensions>
          <ns3:TrackPointExtension>
            <ns3:hr>158</ns3:hr>
            <ns3:cad>88</ns3:cad>
          </ns3:TrackPointExtension>
        </extensions>
      </trkpt>
      <trkpt lat="42.616720832884311676025390625" lon="2.7249102853238582611083984375">
        <ele>308</ele>
        <time>2023-08-19T17:48:26.000Z</time>
        <extensions>
          <ns3:TrackPointExtension>
            <ns3:hr>158</ns3:hr>
            <ns3:cad>88</ns3:cad>
          </ns3:TrackPointExtension>
        </extensions>
      </trkpt>
      <trkpt lat="42.61672494001686573028564453125" lon="2.72494574077427387237548828125">
        <ele>307.79998779296875</ele>
        <time>2023-08-19T17:48:27.000Z</time>
        <extensions>
          <ns3:TrackPointExtension>
            <ns3:hr>157</ns3:hr>
            <ns3:cad>86</ns3:cad>
          </ns3:TrackPointExtension>
        </extensions>
      </trkpt>
      <trkpt lat="42.6167277060449123382568359375" lon="2.7249808609485626220703125">
        <ele>307.20001220703125</ele>
        <time>2023-08-19T17:48:28.000Z</time>
        <extensions>
          <ns3:TrackPointExtension>
            <ns3:hr>157</ns3:hr>
            <ns3:cad>86</ns3:cad>
          </ns3:TrackPointExtension>
        </extensions>
      </trkpt>
      <trkpt lat="42.6167290471494197845458984375" lon="2.7250145561993122100830078125">
        <ele>307.20001220703125</ele>
        <time>2023-08-19T17:48:29.000Z</time>
        <extensions>
          <ns3:TrackPointExtension>
            <ns3:hr>157</ns3:hr>
            <ns3:cad>85</ns3:cad>
          </ns3:TrackPointExtension>
        </extensions>
      </trkpt>
      <trkpt lat="42.61673047207295894622802734375" lon="2.7250500954687595367431640625">
        <ele>306.79998779296875</ele>
        <time>2023-08-19T17:48:30.000Z</time>
        <extensions>
          <ns3:TrackPointExtension>
            <ns3:hr>157</ns3:hr>
            <ns3:cad>85</ns3:cad>
          </ns3:TrackPointExtension>
        </extensions>
      </trkpt>
      <trkpt lat="42.6167303882539272308349609375" lon="2.72508521564304828643798828125">
        <ele>306.399993896484375</ele>
        <time>2023-08-19T17:48:31.000Z</time>
        <extensions>
          <ns3:TrackPointExtension>
            <ns3:hr>157</ns3:hr>
            <ns3:cad>88</ns3:cad>
          </ns3:TrackPointExtension>
        </extensions>
      </trkpt>
      <trkpt lat="42.61673147790133953094482421875" lon="2.725116312503814697265625">
        <ele>306.20001220703125</ele>
        <time>2023-08-19T17:48:32.000Z</time>
        <extensions>
          <ns3:TrackPointExtension>
            <ns3:hr>157</ns3:hr>
            <ns3:cad>89</ns3:cad>
          </ns3:TrackPointExtension>
        </extensions>
      </trkpt>
      <trkpt lat="42.6167323999106884002685546875" lon="2.72515176795423030853271484375">
        <ele>306</ele>
        <time>2023-08-19T17:48:33.000Z</time>
        <extensions>
          <ns3:TrackPointExtension>
            <ns3:hr>157</ns3:hr>
            <ns3:cad>90</ns3:cad>
          </ns3:TrackPointExtension>
        </extensions>
      </trkpt>
      <trkpt lat="42.616732232272624969482421875" lon="2.7251865528523921966552734375">
        <ele>305.600006103515625</ele>
        <time>2023-08-19T17:48:34.000Z</time>
        <extensions>
          <ns3:TrackPointExtension>
            <ns3:hr>157</ns3:hr>
            <ns3:cad>90</ns3:cad>
          </ns3:TrackPointExtension>
        </extensions>
      </trkpt>
      <trkpt lat="42.6167374290525913238525390625" lon="2.725221253931522369384765625">
        <ele>305.20001220703125</ele>
        <time>2023-08-19T17:48:35.000Z</time>
        <extensions>
          <ns3:TrackPointExtension>
            <ns3:hr>157</ns3:hr>
            <ns3:cad>89</ns3:cad>
          </ns3:TrackPointExtension>
        </extensions>
      </trkpt>
      <trkpt lat="42.61673617176711559295654296875" lon="2.7252619899809360504150390625">
        <ele>305</ele>
        <time>2023-08-19T17:48:36.000Z</time>
        <extensions>
          <ns3:TrackPointExtension>
            <ns3:hr>157</ns3:hr>
            <ns3:cad>87</ns3:cad>
          </ns3:TrackPointExtension>
        </extensions>
      </trkpt>
      <trkpt lat="42.61673583649098873138427734375" lon="2.72529358975589275360107421875">
        <ele>304.79998779296875</ele>
        <time>2023-08-19T17:48:37.000Z</time>
        <extensions>
          <ns3:TrackPointExtension>
            <ns3:hr>156</ns3:hr>
            <ns3:cad>87</ns3:cad>
          </ns3:TrackPointExtension>
        </extensions>
      </trkpt>
      <trkpt lat="42.6167327351868152618408203125" lon="2.72533516399562358856201171875">
        <ele>304.600006103515625</ele>
        <time>2023-08-19T17:48:38.000Z</time>
        <extensions>
          <ns3:TrackPointExtension>
            <ns3:hr>156</ns3:hr>
            <ns3:cad>88</ns3:cad>
          </ns3:TrackPointExtension>
        </extensions>
      </trkpt>
      <trkpt lat="42.616732232272624969482421875" lon="2.72536852397024631500244140625">
        <ele>304</ele>
        <time>2023-08-19T17:48:39.000Z</time>
        <extensions>
          <ns3:TrackPointExtension>
            <ns3:hr>156</ns3:hr>
            <ns3:cad>87</ns3:cad>
          </ns3:TrackPointExtension>
        </extensions>
      </trkpt>
      <trkpt lat="42.61672519147396087646484375" lon="2.72540641017258167266845703125">
        <ele>303.79998779296875</ele>
        <time>2023-08-19T17:48:40.000Z</time>
        <extensions>
          <ns3:TrackPointExtension>
            <ns3:hr>156</ns3:hr>
            <ns3:cad>87</ns3:cad>
          </ns3:TrackPointExtension>
        </extensions>
      </trkpt>
      <trkpt lat="42.61672074906527996063232421875" lon="2.72543675266206264495849609375">
        <ele>303.399993896484375</ele>
        <time>2023-08-19T17:48:41.000Z</time>
        <extensions>
          <ns3:TrackPointExtension>
            <ns3:hr>156</ns3:hr>
            <ns3:cad>91</ns3:cad>
          </ns3:TrackPointExtension>
        </extensions>
      </trkpt>
      <trkpt lat="42.616716139018535614013671875" lon="2.72547715343534946441650390625">
        <ele>303</ele>
        <time>2023-08-19T17:48:42.000Z</time>
        <extensions>
          <ns3:TrackPointExtension>
            <ns3:hr>156</ns3:hr>
            <ns3:cad>92</ns3:cad>
          </ns3:TrackPointExtension>
        </extensions>
      </trkpt>
      <trkpt lat="42.61671555228531360626220703125" lon="2.725507915019989013671875">
        <ele>302.600006103515625</ele>
        <time>2023-08-19T17:48:43.000Z</time>
        <extensions>
          <ns3:TrackPointExtension>
            <ns3:hr>156</ns3:hr>
            <ns3:cad>91</ns3:cad>
          </ns3:TrackPointExtension>
        </extensions>
      </trkpt>
      <trkpt lat="42.61671580374240875244140625" lon="2.72554420866072177886962890625">
        <ele>302.20001220703125</ele>
        <time>2023-08-19T17:48:44.000Z</time>
        <extensions>
          <ns3:TrackPointExtension>
            <ns3:hr>156</ns3:hr>
            <ns3:cad>90</ns3:cad>
          </ns3:TrackPointExtension>
        </extensions>
      </trkpt>
      <trkpt lat="42.616718821227550506591796875" lon="2.72557438351213932037353515625">
        <ele>302</ele>
        <time>2023-08-19T17:48:45.000Z</time>
        <extensions>
          <ns3:TrackPointExtension>
            <ns3:hr>156</ns3:hr>
            <ns3:cad>89</ns3:cad>
          </ns3:TrackPointExtension>
        </extensions>
      </trkpt>
      <trkpt lat="42.61671806685626506805419921875" lon="2.725616209208965301513671875">
        <ele>301.79998779296875</ele>
        <time>2023-08-19T17:48:46.000Z</time>
        <extensions>
          <ns3:TrackPointExtension>
            <ns3:hr>156</ns3:hr>
            <ns3:cad>89</ns3:cad>
          </ns3:TrackPointExtension>
        </extensions>
      </trkpt>
      <trkpt lat="42.6167146302759647369384765625" lon="2.72565334104001522064208984375">
        <ele>301.600006103515625</ele>
        <time>2023-08-19T17:48:47.000Z</time>
        <extensions>
          <ns3:TrackPointExtension>
            <ns3:hr>156</ns3:hr>
            <ns3:cad>88</ns3:cad>
          </ns3:TrackPointExtension>
        </extensions>
      </trkpt>
      <trkpt lat="42.6167096011340618133544921875" lon="2.7256958372890949249267578125">
        <ele>301.399993896484375</ele>
        <time>2023-08-19T17:48:48.000Z</time>
        <extensions>
          <ns3:TrackPointExtension>
            <ns3:hr>156</ns3:hr>
            <ns3:cad>88</ns3:cad>
          </ns3:TrackPointExtension>
        </extensions>
      </trkpt>
      <trkpt lat="42.61670968495309352874755859375" lon="2.72572525776922702789306640625">
        <ele>301</ele>
        <time>2023-08-19T17:48:49.000Z</time>
        <extensions>
          <ns3:TrackPointExtension>
            <ns3:hr>156</ns3:hr>
            <ns3:cad>88</ns3:cad>
          </ns3:TrackPointExtension>
        </extensions>
      </trkpt>
      <trkpt lat="42.6167045719921588897705078125" lon="2.7257649041712284088134765625">
        <ele>300.600006103515625</ele>
        <time>2023-08-19T17:48:50.000Z</time>
        <extensions>
          <ns3:TrackPointExtension>
            <ns3:hr>156</ns3:hr>
            <ns3:cad>90</ns3:cad>
          </ns3:TrackPointExtension>
        </extensions>
      </trkpt>
      <trkpt lat="42.61670281179249286651611328125" lon="2.725795917212963104248046875">
        <ele>300.20001220703125</ele>
        <time>2023-08-19T17:48:51.000Z</time>
        <extensions>
          <ns3:TrackPointExtension>
            <ns3:hr>156</ns3:hr>
            <ns3:cad>90</ns3:cad>
          </ns3:TrackPointExtension>
        </extensions>
      </trkpt>
      <trkpt lat="42.61669912375509738922119140625" lon="2.72583715617656707763671875">
        <ele>299.79998779296875</ele>
        <time>2023-08-19T17:48:52.000Z</time>
        <extensions>
          <ns3:TrackPointExtension>
            <ns3:hr>156</ns3:hr>
            <ns3:cad>92</ns3:cad>
          </ns3:TrackPointExtension>
        </extensions>
      </trkpt>
      <trkpt lat="42.61670012958347797393798828125" lon="2.725871689617633819580078125">
        <ele>299.600006103515625</ele>
        <time>2023-08-19T17:48:53.000Z</time>
        <extensions>
          <ns3:TrackPointExtension>
            <ns3:hr>156</ns3:hr>
            <ns3:cad>92</ns3:cad>
          </ns3:TrackPointExtension>
        </extensions>
      </trkpt>
      <trkpt lat="42.6166975311934947967529296875" lon="2.725913263857364654541015625">
        <ele>299</ele>
        <time>2023-08-19T17:48:54.000Z</time>
        <extensions>
          <ns3:TrackPointExtension>
            <ns3:hr>155</ns3:hr>
            <ns3:cad>92</ns3:cad>
          </ns3:TrackPointExtension>
        </extensions>
      </trkpt>
      <trkpt lat="42.616699039936065673828125" lon="2.7259489707648754119873046875">
        <ele>298.79998779296875</ele>
        <time>2023-08-19T17:48:55.000Z</time>
        <extensions>
          <ns3:TrackPointExtension>
            <ns3:hr>155</ns3:hr>
            <ns3:cad>92</ns3:cad>
          </ns3:TrackPointExtension>
        </extensions>
      </trkpt>
      <trkpt lat="42.616697363555431365966796875" lon="2.72598861716687679290771484375">
        <ele>298.399993896484375</ele>
        <time>2023-08-19T17:48:56.000Z</time>
        <extensions>
          <ns3:TrackPointExtension>
            <ns3:hr>155</ns3:hr>
            <ns3:cad>90</ns3:cad>
          </ns3:TrackPointExtension>
        </extensions>
      </trkpt>
      <trkpt lat="42.61669308878481388092041015625" lon="2.72601728327572345733642578125">
        <ele>298</ele>
        <time>2023-08-19T17:48:57.000Z</time>
        <extensions>
          <ns3:TrackPointExtension>
            <ns3:hr>155</ns3:hr>
            <ns3:cad>90</ns3:cad>
          </ns3:TrackPointExtension>
        </extensions>
      </trkpt>
      <trkpt lat="42.61668898165225982666015625" lon="2.72605349309742450714111328125">
        <ele>297.79998779296875</ele>
        <time>2023-08-19T17:48:58.000Z</time>
        <extensions>
          <ns3:TrackPointExtension>
            <ns3:hr>156</ns3:hr>
            <ns3:cad>91</ns3:cad>
          </ns3:TrackPointExtension>
        </extensions>
      </trkpt>
      <trkpt lat="42.6166908256709575653076171875" lon="2.7260854281485080718994140625">
        <ele>297.600006103515625</ele>
        <time>2023-08-19T17:48:59.000Z</time>
        <extensions>
          <ns3:TrackPointExtension>
            <ns3:hr>156</ns3:hr>
            <ns3:cad>92</ns3:cad>
          </ns3:TrackPointExtension>
        </extensions>
      </trkpt>
      <trkpt lat="42.6166878081858158111572265625" lon="2.7261221408843994140625">
        <ele>297.399993896484375</ele>
        <time>2023-08-19T17:49:00.000Z</time>
        <extensions>
          <ns3:TrackPointExtension>
            <ns3:hr>156</ns3:hr>
            <ns3:cad>89</ns3:cad>
          </ns3:TrackPointExtension>
        </extensions>
      </trkpt>
      <trkpt lat="42.61668856255710124969482421875" lon="2.7261524833738803863525390625">
        <ele>297</ele>
        <time>2023-08-19T17:49:01.000Z</time>
        <extensions>
          <ns3:TrackPointExtension>
            <ns3:hr>156</ns3:hr>
            <ns3:cad>90</ns3:cad>
          </ns3:TrackPointExtension>
        </extensions>
      </trkpt>
      <trkpt lat="42.6166869699954986572265625" lon="2.72619112394750118255615234375">
        <ele>296.79998779296875</ele>
        <time>2023-08-19T17:49:02.000Z</time>
        <extensions>
          <ns3:TrackPointExtension>
            <ns3:hr>156</ns3:hr>
            <ns3:cad>90</ns3:cad>
          </ns3:TrackPointExtension>
        </extensions>
      </trkpt>
      <trkpt lat="42.61668353341519832611083984375" lon="2.72622247226536273956298828125">
        <ele>296</ele>
        <time>2023-08-19T17:49:03.000Z</time>
        <extensions>
          <ns3:TrackPointExtension>
            <ns3:hr>156</ns3:hr>
            <ns3:cad>88</ns3:cad>
          </ns3:TrackPointExtension>
        </extensions>
      </trkpt>
      <trkpt lat="42.616682611405849456787109375" lon="2.72626052610576152801513671875">
        <ele>295.600006103515625</ele>
        <time>2023-08-19T17:49:04.000Z</time>
        <extensions>
          <ns3:TrackPointExtension>
            <ns3:hr>156</ns3:hr>
            <ns3:cad>89</ns3:cad>
          </ns3:TrackPointExtension>
        </extensions>
      </trkpt>
      <trkpt lat="42.61668688617646694183349609375" lon="2.72629103623330593109130859375">
        <ele>295.399993896484375</ele>
        <time>2023-08-19T17:49:05.000Z</time>
        <extensions>
          <ns3:TrackPointExtension>
            <ns3:hr>156</ns3:hr>
            <ns3:cad>90</ns3:cad>
          </ns3:TrackPointExtension>
        </extensions>
      </trkpt>
      <trkpt lat="42.6166891492903232574462890625" lon="2.72632841952145099639892578125">
        <ele>295.399993896484375</ele>
        <time>2023-08-19T17:49:06.000Z</time>
        <extensions>
          <ns3:TrackPointExtension>
            <ns3:hr>156</ns3:hr>
            <ns3:cad>89</ns3:cad>
          </ns3:TrackPointExtension>
        </extensions>
      </trkpt>
      <trkpt lat="42.6166854612529277801513671875" lon="2.72636245004832744598388671875">
        <ele>295</ele>
        <time>2023-08-19T17:49:07.000Z</time>
        <extensions>
          <ns3:TrackPointExtension>
            <ns3:hr>156</ns3:hr>
            <ns3:cad>90</ns3:cad>
          </ns3:TrackPointExtension>
        </extensions>
      </trkpt>
      <trkpt lat="42.6166824437677860260009765625" lon="2.7263975702226161956787109375">
        <ele>294.600006103515625</ele>
        <time>2023-08-19T17:49:08.000Z</time>
        <extensions>
          <ns3:TrackPointExtension>
            <ns3:hr>156</ns3:hr>
            <ns3:cad>92</ns3:cad>
          </ns3:TrackPointExtension>
        </extensions>
      </trkpt>
      <trkpt lat="42.616675905883312225341796875" lon="2.72643386386334896087646484375">
        <ele>293.79998779296875</ele>
        <time>2023-08-19T17:49:09.000Z</time>
        <extensions>
          <ns3:TrackPointExtension>
            <ns3:hr>156</ns3:hr>
            <ns3:cad>94</ns3:cad>
          </ns3:TrackPointExtension>
        </extensions>
      </trkpt>
      <trkpt lat="42.61667347513139247894287109375" lon="2.72646571509540081024169921875">
        <ele>293.399993896484375</ele>
        <time>2023-08-19T17:49:10.000Z</time>
        <extensions>
          <ns3:TrackPointExtension>
            <ns3:hr>156</ns3:hr>
            <ns3:cad>94</ns3:cad>
          </ns3:TrackPointExtension>
        </extensions>
      </trkpt>
      <trkpt lat="42.61666945181787014007568359375" lon="2.7265031822025775909423828125">
        <ele>293</ele>
        <time>2023-08-19T17:49:11.000Z</time>
        <extensions>
          <ns3:TrackPointExtension>
            <ns3:hr>156</ns3:hr>
            <ns3:cad>95</ns3:cad>
          </ns3:TrackPointExtension>
        </extensions>
      </trkpt>
      <trkpt lat="42.6166686974465847015380859375" lon="2.726534195244312286376953125">
        <ele>292.79998779296875</ele>
        <time>2023-08-19T17:49:12.000Z</time>
        <extensions>
          <ns3:TrackPointExtension>
            <ns3:hr>156</ns3:hr>
            <ns3:cad>95</ns3:cad>
          </ns3:TrackPointExtension>
        </extensions>
      </trkpt>
      <trkpt lat="42.61667062528431415557861328125" lon="2.7265702374279499053955078125">
        <ele>292.399993896484375</ele>
        <time>2023-08-19T17:49:13.000Z</time>
        <extensions>
          <ns3:TrackPointExtension>
            <ns3:hr>156</ns3:hr>
            <ns3:cad>94</ns3:cad>
          </ns3:TrackPointExtension>
        </extensions>
      </trkpt>
      <trkpt lat="42.6166767440736293792724609375" lon="2.7266074530780315399169921875">
        <ele>292</ele>
        <time>2023-08-19T17:49:14.000Z</time>
        <extensions>
          <ns3:TrackPointExtension>
            <ns3:hr>156</ns3:hr>
            <ns3:cad>95</ns3:cad>
          </ns3:TrackPointExtension>
        </extensions>
      </trkpt>
      <trkpt lat="42.616682946681976318359375" lon="2.72663972340524196624755859375">
        <ele>291.600006103515625</ele>
        <time>2023-08-19T17:49:15.000Z</time>
        <extensions>
          <ns3:TrackPointExtension>
            <ns3:hr>155</ns3:hr>
            <ns3:cad>95</ns3:cad>
          </ns3:TrackPointExtension>
        </extensions>
      </trkpt>
      <trkpt lat="42.616695351898670196533203125" lon="2.726672329008579254150390625">
        <ele>291.399993896484375</ele>
        <time>2023-08-19T17:49:16.000Z</time>
        <extensions>
          <ns3:TrackPointExtension>
            <ns3:hr>155</ns3:hr>
            <ns3:cad>94</ns3:cad>
          </ns3:TrackPointExtension>
        </extensions>
      </trkpt>
      <trkpt lat="42.616704739630222320556640625" lon="2.726703174412250518798828125">
        <ele>291</ele>
        <time>2023-08-19T17:49:17.000Z</time>
        <extensions>
          <ns3:TrackPointExtension>
            <ns3:hr>155</ns3:hr>
            <ns3:cad>94</ns3:cad>
          </ns3:TrackPointExtension>
        </extensions>
      </trkpt>
      <trkpt lat="42.6167136244475841522216796875" lon="2.726743407547473907470703125">
        <ele>290.600006103515625</ele>
        <time>2023-08-19T17:49:18.000Z</time>
        <extensions>
          <ns3:TrackPointExtension>
            <ns3:hr>155</ns3:hr>
            <ns3:cad>92</ns3:cad>
          </ns3:TrackPointExtension>
        </extensions>
      </trkpt>
      <trkpt lat="42.61672317981719970703125" lon="2.72677802480757236480712890625">
        <ele>290.20001220703125</ele>
        <time>2023-08-19T17:49:19.000Z</time>
        <extensions>
          <ns3:TrackPointExtension>
            <ns3:hr>155</ns3:hr>
            <ns3:cad>93</ns3:cad>
          </ns3:TrackPointExtension>
        </extensions>
      </trkpt>
      <trkpt lat="42.6167334057390689849853515625" lon="2.726816497743129730224609375">
        <ele>289.600006103515625</ele>
        <time>2023-08-19T17:49:20.000Z</time>
        <extensions>
          <ns3:TrackPointExtension>
            <ns3:hr>155</ns3:hr>
            <ns3:cad>93</ns3:cad>
          </ns3:TrackPointExtension>
        </extensions>
      </trkpt>
      <trkpt lat="42.6167444698512554168701171875" lon="2.72684843279421329498291015625">
        <ele>289</ele>
        <time>2023-08-19T17:49:21.000Z</time>
        <extensions>
          <ns3:TrackPointExtension>
            <ns3:hr>155</ns3:hr>
            <ns3:cad>93</ns3:cad>
          </ns3:TrackPointExtension>
        </extensions>
      </trkpt>
      <trkpt lat="42.61675997637212276458740234375" lon="2.7268864028155803680419921875">
        <ele>288.600006103515625</ele>
        <time>2023-08-19T17:49:22.000Z</time>
        <extensions>
          <ns3:TrackPointExtension>
            <ns3:hr>155</ns3:hr>
            <ns3:cad>92</ns3:cad>
          </ns3:TrackPointExtension>
        </extensions>
      </trkpt>
      <trkpt lat="42.61677539907395839691162109375" lon="2.7269159071147441864013671875">
        <ele>288.20001220703125</ele>
        <time>2023-08-19T17:49:23.000Z</time>
        <extensions>
          <ns3:TrackPointExtension>
            <ns3:hr>155</ns3:hr>
            <ns3:cad>91</ns3:cad>
          </ns3:TrackPointExtension>
        </extensions>
      </trkpt>
      <trkpt lat="42.61679618619382381439208984375" lon="2.72694834508001804351806640625">
        <ele>288</ele>
        <time>2023-08-19T17:49:24.000Z</time>
        <extensions>
          <ns3:TrackPointExtension>
            <ns3:hr>155</ns3:hr>
            <ns3:cad>89</ns3:cad>
          </ns3:TrackPointExtension>
        </extensions>
      </trkpt>
      <trkpt lat="42.61682133190333843231201171875" lon="2.72696460597217082977294921875">
        <ele>287.600006103515625</ele>
        <time>2023-08-19T17:49:25.000Z</time>
        <extensions>
          <ns3:TrackPointExtension>
            <ns3:hr>155</ns3:hr>
            <ns3:cad>89</ns3:cad>
          </ns3:TrackPointExtension>
        </extensions>
      </trkpt>
      <trkpt lat="42.61684580706059932708740234375" lon="2.72699478082358837127685546875">
        <ele>287.20001220703125</ele>
        <time>2023-08-19T17:49:26.000Z</time>
        <extensions>
          <ns3:TrackPointExtension>
            <ns3:hr>155</ns3:hr>
            <ns3:cad>91</ns3:cad>
          </ns3:TrackPointExtension>
        </extensions>
      </trkpt>
      <trkpt lat="42.61686994694173336029052734375" lon="2.72701070643961429595947265625">
        <ele>286.79998779296875</ele>
        <time>2023-08-19T17:49:27.000Z</time>
        <extensions>
          <ns3:TrackPointExtension>
            <ns3:hr>155</ns3:hr>
            <ns3:cad>90</ns3:cad>
          </ns3:TrackPointExtension>
        </extensions>
      </trkpt>
      <trkpt lat="42.616892158985137939453125" lon="2.72703350521624088287353515625">
        <ele>286.399993896484375</ele>
        <time>2023-08-19T17:49:28.000Z</time>
        <extensions>
          <ns3:TrackPointExtension>
            <ns3:hr>155</ns3:hr>
            <ns3:cad>89</ns3:cad>
          </ns3:TrackPointExtension>
        </extensions>
      </trkpt>
      <trkpt lat="42.6169117726385593414306640625" lon="2.727055214345455169677734375">
        <ele>285.79998779296875</ele>
        <time>2023-08-19T17:49:29.000Z</time>
        <extensions>
          <ns3:TrackPointExtension>
            <ns3:hr>155</ns3:hr>
            <ns3:cad>89</ns3:cad>
          </ns3:TrackPointExtension>
        </extensions>
      </trkpt>
      <trkpt lat="42.6169359125196933746337890625" lon="2.72708647884428501129150390625">
        <ele>285.20001220703125</ele>
        <time>2023-08-19T17:49:30.000Z</time>
        <extensions>
          <ns3:TrackPointExtension>
            <ns3:hr>155</ns3:hr>
            <ns3:cad>89</ns3:cad>
          </ns3:TrackPointExtension>
        </extensions>
      </trkpt>
      <trkpt lat="42.61695426888763904571533203125" lon="2.72711732424795627593994140625">
        <ele>284.600006103515625</ele>
        <time>2023-08-19T17:49:31.000Z</time>
        <extensions>
          <ns3:TrackPointExtension>
            <ns3:hr>156</ns3:hr>
            <ns3:cad>88</ns3:cad>
          </ns3:TrackPointExtension>
        </extensions>
      </trkpt>
      <trkpt lat="42.6169748045504093170166015625" lon="2.72714607417583465576171875">
        <ele>284.399993896484375</ele>
        <time>2023-08-19T17:49:32.000Z</time>
        <extensions>
          <ns3:TrackPointExtension>
            <ns3:hr>156</ns3:hr>
            <ns3:cad>89</ns3:cad>
          </ns3:TrackPointExtension>
        </extensions>
      </trkpt>
      <trkpt lat="42.61699332855641841888427734375" lon="2.7271740697324275970458984375">
        <ele>284.20001220703125</ele>
        <time>2023-08-19T17:49:33.000Z</time>
        <extensions>
          <ns3:TrackPointExtension>
            <ns3:hr>156</ns3:hr>
            <ns3:cad>88</ns3:cad>
          </ns3:TrackPointExtension>
        </extensions>
      </trkpt>
      <trkpt lat="42.61701210401952266693115234375" lon="2.72720281966030597686767578125">
        <ele>284.20001220703125</ele>
        <time>2023-08-19T17:49:34.000Z</time>
        <extensions>
          <ns3:TrackPointExtension>
            <ns3:hr>156</ns3:hr>
            <ns3:cad>90</ns3:cad>
          </ns3:TrackPointExtension>
        </extensions>
      </trkpt>
      <trkpt lat="42.61702937074005603790283203125" lon="2.72723232395946979522705078125">
        <ele>283.600006103515625</ele>
        <time>2023-08-19T17:49:35.000Z</time>
        <extensions>
          <ns3:TrackPointExtension>
            <ns3:hr>156</ns3:hr>
            <ns3:cad>90</ns3:cad>
          </ns3:TrackPointExtension>
        </extensions>
      </trkpt>
      <trkpt lat="42.6170475594699382781982421875" lon="2.7272572182118892669677734375">
        <ele>283.20001220703125</ele>
        <time>2023-08-19T17:49:36.000Z</time>
        <extensions>
          <ns3:TrackPointExtension>
            <ns3:hr>156</ns3:hr>
            <ns3:cad>88</ns3:cad>
          </ns3:TrackPointExtension>
        </extensions>
      </trkpt>
      <trkpt lat="42.61706717312335968017578125" lon="2.72728865034878253936767578125">
        <ele>283</ele>
        <time>2023-08-19T17:49:37.000Z</time>
        <extensions>
          <ns3:TrackPointExtension>
            <ns3:hr>156</ns3:hr>
            <ns3:cad>88</ns3:cad>
          </ns3:TrackPointExtension>
        </extensions>
      </trkpt>
      <trkpt lat="42.61708955280482769012451171875" lon="2.72731530480086803436279296875">
        <ele>282.600006103515625</ele>
        <time>2023-08-19T17:49:38.000Z</time>
        <extensions>
          <ns3:TrackPointExtension>
            <ns3:hr>156</ns3:hr>
            <ns3:cad>88</ns3:cad>
          </ns3:TrackPointExtension>
        </extensions>
      </trkpt>
      <trkpt lat="42.61711142957210540771484375" lon="2.72734330035746097564697265625">
        <ele>281.79998779296875</ele>
        <time>2023-08-19T17:49:39.000Z</time>
        <extensions>
          <ns3:TrackPointExtension>
            <ns3:hr>156</ns3:hr>
            <ns3:cad>88</ns3:cad>
          </ns3:TrackPointExtension>
        </extensions>
      </trkpt>
      <trkpt lat="42.61713028885424137115478515625" lon="2.727371044456958770751953125">
        <ele>281.600006103515625</ele>
        <time>2023-08-19T17:49:40.000Z</time>
        <extensions>
          <ns3:TrackPointExtension>
            <ns3:hr>156</ns3:hr>
            <ns3:cad>89</ns3:cad>
          </ns3:TrackPointExtension>
        </extensions>
      </trkpt>
      <trkpt lat="42.6171464659273624420166015625" lon="2.727401219308376312255859375">
        <ele>281</ele>
        <time>2023-08-19T17:49:41.000Z</time>
        <extensions>
          <ns3:TrackPointExtension>
            <ns3:hr>156</ns3:hr>
            <ns3:cad>90</ns3:cad>
          </ns3:TrackPointExtension>
        </extensions>
      </trkpt>
      <trkpt lat="42.6171669177711009979248046875" lon="2.7274305559694766998291015625">
        <ele>280.399993896484375</ele>
        <time>2023-08-19T17:49:42.000Z</time>
        <extensions>
          <ns3:TrackPointExtension>
            <ns3:hr>156</ns3:hr>
            <ns3:cad>90</ns3:cad>
          </ns3:TrackPointExtension>
        </extensions>
      </trkpt>
      <trkpt lat="42.61718477122485637664794921875" lon="2.7274546958506107330322265625">
        <ele>280</ele>
        <time>2023-08-19T17:49:43.000Z</time>
        <extensions>
          <ns3:TrackPointExtension>
            <ns3:hr>156</ns3:hr>
            <ns3:cad>91</ns3:cad>
          </ns3:TrackPointExtension>
        </extensions>
      </trkpt>
      <trkpt lat="42.61720790527760982513427734375" lon="2.72748344577848911285400390625">
        <ele>279.600006103515625</ele>
        <time>2023-08-19T17:49:44.000Z</time>
        <extensions>
          <ns3:TrackPointExtension>
            <ns3:hr>156</ns3:hr>
            <ns3:cad>90</ns3:cad>
          </ns3:TrackPointExtension>
        </extensions>
      </trkpt>
      <trkpt lat="42.6172289438545703887939453125" lon="2.72750540636479854583740234375">
        <ele>279</ele>
        <time>2023-08-19T17:49:45.000Z</time>
        <extensions>
          <ns3:TrackPointExtension>
            <ns3:hr>156</ns3:hr>
            <ns3:cad>91</ns3:cad>
          </ns3:TrackPointExtension>
        </extensions>
      </trkpt>
      <trkpt lat="42.61725065298378467559814453125" lon="2.7275338210165500640869140625">
        <ele>278.600006103515625</ele>
        <time>2023-08-19T17:49:46.000Z</time>
        <extensions>
          <ns3:TrackPointExtension>
            <ns3:hr>156</ns3:hr>
            <ns3:cad>92</ns3:cad>
          </ns3:TrackPointExtension>
        </extensions>
      </trkpt>
      <trkpt lat="42.61727160774171352386474609375" lon="2.72756181657314300537109375">
        <ele>278.20001220703125</ele>
        <time>2023-08-19T17:49:47.000Z</time>
        <extensions>
          <ns3:TrackPointExtension>
            <ns3:hr>156</ns3:hr>
            <ns3:cad>91</ns3:cad>
          </ns3:TrackPointExtension>
        </extensions>
      </trkpt>
      <trkpt lat="42.61729457415640354156494140625" lon="2.7275904826819896697998046875">
        <ele>277.79998779296875</ele>
        <time>2023-08-19T17:49:48.000Z</time>
        <extensions>
          <ns3:TrackPointExtension>
            <ns3:hr>156</ns3:hr>
            <ns3:cad>91</ns3:cad>
          </ns3:TrackPointExtension>
        </extensions>
      </trkpt>
      <trkpt lat="42.61731536127626895904541015625" lon="2.7276196517050266265869140625">
        <ele>277.20001220703125</ele>
        <time>2023-08-19T17:49:49.000Z</time>
        <extensions>
          <ns3:TrackPointExtension>
            <ns3:hr>157</ns3:hr>
            <ns3:cad>90</ns3:cad>
          </ns3:TrackPointExtension>
        </extensions>
      </trkpt>
      <trkpt lat="42.6173335500061511993408203125" lon="2.72764404304325580596923828125">
        <ele>276.600006103515625</ele>
        <time>2023-08-19T17:49:50.000Z</time>
        <extensions>
          <ns3:TrackPointExtension>
            <ns3:hr>157</ns3:hr>
            <ns3:cad>89</ns3:cad>
          </ns3:TrackPointExtension>
        </extensions>
      </trkpt>
      <trkpt lat="42.617352493107318878173828125" lon="2.72767287679016590118408203125">
        <ele>276.399993896484375</ele>
        <time>2023-08-19T17:49:51.000Z</time>
        <extensions>
          <ns3:TrackPointExtension>
            <ns3:hr>157</ns3:hr>
            <ns3:cad>88</ns3:cad>
          </ns3:TrackPointExtension>
        </extensions>
      </trkpt>
      <trkpt lat="42.61737152002751827239990234375" lon="2.727695591747760772705078125">
        <ele>275.79998779296875</ele>
        <time>2023-08-19T17:49:52.000Z</time>
        <extensions>
          <ns3:TrackPointExtension>
            <ns3:hr>157</ns3:hr>
            <ns3:cad>88</ns3:cad>
          </ns3:TrackPointExtension>
        </extensions>
      </trkpt>
      <trkpt lat="42.6173942349851131439208984375" lon="2.7277239225804805755615234375">
        <ele>275.399993896484375</ele>
        <time>2023-08-19T17:49:53.000Z</time>
        <extensions>
          <ns3:TrackPointExtension>
            <ns3:hr>156</ns3:hr>
            <ns3:cad>89</ns3:cad>
          </ns3:TrackPointExtension>
        </extensions>
      </trkpt>
      <trkpt lat="42.61741493828594684600830078125" lon="2.72774814628064632415771484375">
        <ele>275.20001220703125</ele>
        <time>2023-08-19T17:49:54.000Z</time>
        <extensions>
          <ns3:TrackPointExtension>
            <ns3:hr>156</ns3:hr>
            <ns3:cad>88</ns3:cad>
          </ns3:TrackPointExtension>
        </extensions>
      </trkpt>
      <trkpt lat="42.617433965206146240234375" lon="2.7277792431414127349853515625">
        <ele>274.79998779296875</ele>
        <time>2023-08-19T17:49:55.000Z</time>
        <extensions>
          <ns3:TrackPointExtension>
            <ns3:hr>156</ns3:hr>
            <ns3:cad>87</ns3:cad>
          </ns3:TrackPointExtension>
        </extensions>
      </trkpt>
      <trkpt lat="42.61745131574571132659912109375" lon="2.7278033830225467681884765625">
        <ele>274.20001220703125</ele>
        <time>2023-08-19T17:49:56.000Z</time>
        <extensions>
          <ns3:TrackPointExtension>
            <ns3:hr>156</ns3:hr>
            <ns3:cad>87</ns3:cad>
          </ns3:TrackPointExtension>
        </extensions>
      </trkpt>
      <trkpt lat="42.617471516132354736328125" lon="2.72782878018915653228759765625">
        <ele>274</ele>
        <time>2023-08-19T17:49:57.000Z</time>
        <extensions>
          <ns3:TrackPointExtension>
            <ns3:hr>156</ns3:hr>
            <ns3:cad>89</ns3:cad>
          </ns3:TrackPointExtension>
        </extensions>
      </trkpt>
      <trkpt lat="42.61748903430998325347900390625" lon="2.72785015404224395751953125">
        <ele>273.20001220703125</ele>
        <time>2023-08-19T17:49:58.000Z</time>
        <extensions>
          <ns3:TrackPointExtension>
            <ns3:hr>156</ns3:hr>
            <ns3:cad>91</ns3:cad>
          </ns3:TrackPointExtension>
        </extensions>
      </trkpt>
      <trkpt lat="42.6175125874578952789306640625" lon="2.7278784848749637603759765625">
        <ele>273</ele>
        <time>2023-08-19T17:49:59.000Z</time>
        <extensions>
          <ns3:TrackPointExtension>
            <ns3:hr>157</ns3:hr>
            <ns3:cad>90</ns3:cad>
          </ns3:TrackPointExtension>
        </extensions>
      </trkpt>
      <trkpt lat="42.617532871663570404052734375" lon="2.72789843380451202392578125">
        <ele>273</ele>
        <time>2023-08-19T17:50:00.000Z</time>
        <extensions>
          <ns3:TrackPointExtension>
            <ns3:hr>156</ns3:hr>
            <ns3:cad>89</ns3:cad>
          </ns3:TrackPointExtension>
        </extensions>
      </trkpt>
      <trkpt lat="42.617551647126674652099609375" lon="2.72793372161686420440673828125">
        <ele>272.600006103515625</ele>
        <time>2023-08-19T17:50:01.000Z</time>
        <extensions>
          <ns3:TrackPointExtension>
            <ns3:hr>156</ns3:hr>
            <ns3:cad>88</ns3:cad>
          </ns3:TrackPointExtension>
        </extensions>
      </trkpt>
      <trkpt lat="42.61757000349462032318115234375" lon="2.72795652039349079132080078125">
        <ele>272.20001220703125</ele>
        <time>2023-08-19T17:50:02.000Z</time>
        <extensions>
          <ns3:TrackPointExtension>
            <ns3:hr>156</ns3:hr>
            <ns3:cad>89</ns3:cad>
          </ns3:TrackPointExtension>
        </extensions>
      </trkpt>
      <trkpt lat="42.61758911423385143280029296875" lon="2.7279822528362274169921875">
        <ele>271.600006103515625</ele>
        <time>2023-08-19T17:50:03.000Z</time>
        <extensions>
          <ns3:TrackPointExtension>
            <ns3:hr>156</ns3:hr>
            <ns3:cad>90</ns3:cad>
          </ns3:TrackPointExtension>
        </extensions>
      </trkpt>
      <trkpt lat="42.6176084764301776885986328125" lon="2.72800882346928119659423828125">
        <ele>271.399993896484375</ele>
        <time>2023-08-19T17:50:04.000Z</time>
        <extensions>
          <ns3:TrackPointExtension>
            <ns3:hr>156</ns3:hr>
            <ns3:cad>90</ns3:cad>
          </ns3:TrackPointExtension>
        </extensions>
      </trkpt>
      <trkpt lat="42.617627084255218505859375" lon="2.7280410937964916229248046875">
        <ele>271.20001220703125</ele>
        <time>2023-08-19T17:50:05.000Z</time>
        <extensions>
          <ns3:TrackPointExtension>
            <ns3:hr>156</ns3:hr>
            <ns3:cad>89</ns3:cad>
          </ns3:TrackPointExtension>
        </extensions>
      </trkpt>
      <trkpt lat="42.6176420040428638458251953125" lon="2.72807252593338489532470703125">
        <ele>271</ele>
        <time>2023-08-19T17:50:06.000Z</time>
        <extensions>
          <ns3:TrackPointExtension>
            <ns3:hr>156</ns3:hr>
            <ns3:cad>88</ns3:cad>
          </ns3:TrackPointExtension>
        </extensions>
      </trkpt>
      <trkpt lat="42.6176607795059680938720703125" lon="2.7280997671186923980712890625">
        <ele>270.600006103515625</ele>
        <time>2023-08-19T17:50:07.000Z</time>
        <extensions>
          <ns3:TrackPointExtension>
            <ns3:hr>156</ns3:hr>
            <ns3:cad>88</ns3:cad>
          </ns3:TrackPointExtension>
        </extensions>
      </trkpt>
      <trkpt lat="42.61767947115004062652587890625" lon="2.7281322889029979705810546875">
        <ele>270.600006103515625</ele>
        <time>2023-08-19T17:50:08.000Z</time>
        <extensions>
          <ns3:TrackPointExtension>
            <ns3:hr>156</ns3:hr>
            <ns3:cad>88</ns3:cad>
          </ns3:TrackPointExtension>
        </extensions>
      </trkpt>
      <trkpt lat="42.61770042590796947479248046875" lon="2.7281584404408931732177734375">
        <ele>270.20001220703125</ele>
        <time>2023-08-19T17:50:09.000Z</time>
        <extensions>
          <ns3:TrackPointExtension>
            <ns3:hr>156</ns3:hr>
            <ns3:cad>88</ns3:cad>
          </ns3:TrackPointExtension>
        </extensions>
      </trkpt>
      <trkpt lat="42.6177248172461986541748046875" lon="2.7281859330832958221435546875">
        <ele>270</ele>
        <time>2023-08-19T17:50:10.000Z</time>
        <extensions>
          <ns3:TrackPointExtension>
            <ns3:hr>156</ns3:hr>
            <ns3:cad>87</ns3:cad>
          </ns3:TrackPointExtension>
        </extensions>
      </trkpt>
      <trkpt lat="42.6177456043660640716552734375" lon="2.728200852870941162109375">
        <ele>269.79998779296875</ele>
        <time>2023-08-19T17:50:11.000Z</time>
        <extensions>
          <ns3:TrackPointExtension>
            <ns3:hr>156</ns3:hr>
            <ns3:cad>87</ns3:cad>
          </ns3:TrackPointExtension>
        </extensions>
      </trkpt>
      <trkpt lat="42.61776614002883434295654296875" lon="2.728228010237216949462890625">
        <ele>269.399993896484375</ele>
        <time>2023-08-19T17:50:12.000Z</time>
        <extensions>
          <ns3:TrackPointExtension>
            <ns3:hr>155</ns3:hr>
            <ns3:cad>87</ns3:cad>
          </ns3:TrackPointExtension>
        </extensions>
      </trkpt>
      <trkpt lat="42.6177813112735748291015625" lon="2.72825340740382671356201171875">
        <ele>268.79998779296875</ele>
        <time>2023-08-19T17:50:13.000Z</time>
        <extensions>
          <ns3:TrackPointExtension>
            <ns3:hr>155</ns3:hr>
            <ns3:cad>87</ns3:cad>
          </ns3:TrackPointExtension>
        </extensions>
      </trkpt>
      <trkpt lat="42.6177952252328395843505859375" lon="2.72829548455774784088134765625">
        <ele>268.399993896484375</ele>
        <time>2023-08-19T17:50:14.000Z</time>
        <extensions>
          <ns3:TrackPointExtension>
            <ns3:hr>155</ns3:hr>
            <ns3:cad>86</ns3:cad>
          </ns3:TrackPointExtension>
        </extensions>
      </trkpt>
      <trkpt lat="42.61779681779444217681884765625" lon="2.72833387367427349090576171875">
        <ele>268.20001220703125</ele>
        <time>2023-08-19T17:50:15.000Z</time>
        <extensions>
          <ns3:TrackPointExtension>
            <ns3:hr>155</ns3:hr>
            <ns3:cad>87</ns3:cad>
          </ns3:TrackPointExtension>
        </extensions>
      </trkpt>
      <trkpt lat="42.617795728147029876708984375" lon="2.72838148288428783416748046875">
        <ele>268</ele>
        <time>2023-08-19T17:50:16.000Z</time>
        <extensions>
          <ns3:TrackPointExtension>
            <ns3:hr>155</ns3:hr>
            <ns3:cad>87</ns3:cad>
          </ns3:TrackPointExtension>
        </extensions>
      </trkpt>
      <trkpt lat="42.61778709478676319122314453125" lon="2.72841601632535457611083984375">
        <ele>267.79998779296875</ele>
        <time>2023-08-19T17:50:17.000Z</time>
        <extensions>
          <ns3:TrackPointExtension>
            <ns3:hr>155</ns3:hr>
            <ns3:cad>88</ns3:cad>
          </ns3:TrackPointExtension>
        </extensions>
      </trkpt>
      <trkpt lat="42.6177679002285003662109375" lon="2.728452980518341064453125">
        <ele>267.20001220703125</ele>
        <time>2023-08-19T17:50:18.000Z</time>
        <extensions>
          <ns3:TrackPointExtension>
            <ns3:hr>155</ns3:hr>
            <ns3:cad>88</ns3:cad>
          </ns3:TrackPointExtension>
        </extensions>
      </trkpt>
      <trkpt lat="42.617745436728000640869140625" lon="2.728482149541378021240234375">
        <ele>267</ele>
        <time>2023-08-19T17:50:19.000Z</time>
        <extensions>
          <ns3:TrackPointExtension>
            <ns3:hr>155</ns3:hr>
            <ns3:cad>88</ns3:cad>
          </ns3:TrackPointExtension>
        </extensions>
      </trkpt>
      <trkpt lat="42.6177249848842620849609375" lon="2.7285111509263515472412109375">
        <ele>266.79998779296875</ele>
        <time>2023-08-19T17:50:20.000Z</time>
        <extensions>
          <ns3:TrackPointExtension>
            <ns3:hr>155</ns3:hr>
            <ns3:cad>89</ns3:cad>
          </ns3:TrackPointExtension>
        </extensions>
      </trkpt>
      <trkpt lat="42.6177013479173183441162109375" lon="2.72853411734104156494140625">
        <ele>266.600006103515625</ele>
        <time>2023-08-19T17:50:21.000Z</time>
        <extensions>
          <ns3:TrackPointExtension>
            <ns3:hr>155</ns3:hr>
            <ns3:cad>87</ns3:cad>
          </ns3:TrackPointExtension>
        </extensions>
      </trkpt>
      <trkpt lat="42.617677040398120880126953125" lon="2.72855482064187526702880859375">
        <ele>266.20001220703125</ele>
        <time>2023-08-19T17:50:22.000Z</time>
        <extensions>
          <ns3:TrackPointExtension>
            <ns3:hr>155</ns3:hr>
            <ns3:cad>87</ns3:cad>
          </ns3:TrackPointExtension>
        </extensions>
      </trkpt>
      <trkpt lat="42.61765046976506710052490234375" lon="2.7285751886665821075439453125">
        <ele>266</ele>
        <time>2023-08-19T17:50:23.000Z</time>
        <extensions>
          <ns3:TrackPointExtension>
            <ns3:hr>155</ns3:hr>
            <ns3:cad>88</ns3:cad>
          </ns3:TrackPointExtension>
        </extensions>
      </trkpt>
      <trkpt lat="42.61762616224586963653564453125" lon="2.72859538905322551727294921875">
        <ele>265.79998779296875</ele>
        <time>2023-08-19T17:50:24.000Z</time>
        <extensions>
          <ns3:TrackPointExtension>
            <ns3:hr>155</ns3:hr>
            <ns3:cad>88</ns3:cad>
          </ns3:TrackPointExtension>
        </extensions>
      </trkpt>
      <trkpt lat="42.61759967543184757232666015625" lon="2.72861483506858348846435546875">
        <ele>265.399993896484375</ele>
        <time>2023-08-19T17:50:25.000Z</time>
        <extensions>
          <ns3:TrackPointExtension>
            <ns3:hr>155</ns3:hr>
            <ns3:cad>87</ns3:cad>
          </ns3:TrackPointExtension>
        </extensions>
      </trkpt>
      <trkpt lat="42.617575787007808685302734375" lon="2.7286313474178314208984375">
        <ele>265.20001220703125</ele>
        <time>2023-08-19T17:50:26.000Z</time>
        <extensions>
          <ns3:TrackPointExtension>
            <ns3:hr>155</ns3:hr>
            <ns3:cad>88</ns3:cad>
          </ns3:TrackPointExtension>
        </extensions>
      </trkpt>
      <trkpt lat="42.61754770763218402862548828125" lon="2.7286553196609020233154296875">
        <ele>265</ele>
        <time>2023-08-19T17:50:27.000Z</time>
        <extensions>
          <ns3:TrackPointExtension>
            <ns3:hr>155</ns3:hr>
            <ns3:cad>88</ns3:cad>
          </ns3:TrackPointExtension>
        </extensions>
      </trkpt>
      <trkpt lat="42.61752557940781116485595703125" lon="2.72867836989462375640869140625">
        <ele>264.600006103515625</ele>
        <time>2023-08-19T17:50:28.000Z</time>
        <extensions>
          <ns3:TrackPointExtension>
            <ns3:hr>155</ns3:hr>
            <ns3:cad>88</ns3:cad>
          </ns3:TrackPointExtension>
        </extensions>
      </trkpt>
      <trkpt lat="42.61750261299312114715576171875" lon="2.72870552726089954376220703125">
        <ele>264.399993896484375</ele>
        <time>2023-08-19T17:50:29.000Z</time>
        <extensions>
          <ns3:TrackPointExtension>
            <ns3:hr>155</ns3:hr>
            <ns3:cad>88</ns3:cad>
          </ns3:TrackPointExtension>
        </extensions>
      </trkpt>
      <trkpt lat="42.61748366989195346832275390625" lon="2.7287317626178264617919921875">
        <ele>264.399993896484375</ele>
        <time>2023-08-19T17:50:30.000Z</time>
        <extensions>
          <ns3:TrackPointExtension>
            <ns3:hr>155</ns3:hr>
            <ns3:cad>88</ns3:cad>
          </ns3:TrackPointExtension>
        </extensions>
      </trkpt>
      <trkpt lat="42.6174649782478809356689453125" lon="2.72876587696373462677001953125">
        <ele>264.20001220703125</ele>
        <time>2023-08-19T17:50:31.000Z</time>
        <extensions>
          <ns3:TrackPointExtension>
            <ns3:hr>154</ns3:hr>
            <ns3:cad>88</ns3:cad>
          </ns3:TrackPointExtension>
        </extensions>
      </trkpt>
      <trkpt lat="42.61744947172701358795166015625" lon="2.72879085503518581390380859375">
        <ele>263.79998779296875</ele>
        <time>2023-08-19T17:50:32.000Z</time>
        <extensions>
          <ns3:TrackPointExtension>
            <ns3:hr>154</ns3:hr>
            <ns3:cad>88</ns3:cad>
          </ns3:TrackPointExtension>
        </extensions>
      </trkpt>
      <trkpt lat="42.61743388138711452484130859375" lon="2.728821448981761932373046875">
        <ele>263.399993896484375</ele>
        <time>2023-08-19T17:50:33.000Z</time>
        <extensions>
          <ns3:TrackPointExtension>
            <ns3:hr>154</ns3:hr>
            <ns3:cad>88</ns3:cad>
          </ns3:TrackPointExtension>
        </extensions>
      </trkpt>
      <trkpt lat="42.6174227334558963775634765625" lon="2.7288494445383548736572265625">
        <ele>263.20001220703125</ele>
        <time>2023-08-19T17:50:34.000Z</time>
        <extensions>
          <ns3:TrackPointExtension>
            <ns3:hr>154</ns3:hr>
            <ns3:cad>89</ns3:cad>
          </ns3:TrackPointExtension>
        </extensions>
      </trkpt>
      <trkpt lat="42.61741049587726593017578125" lon="2.72887635044753551483154296875">
        <ele>263</ele>
        <time>2023-08-19T17:50:35.000Z</time>
        <extensions>
          <ns3:TrackPointExtension>
            <ns3:hr>154</ns3:hr>
            <ns3:cad>89</ns3:cad>
          </ns3:TrackPointExtension>
        </extensions>
      </trkpt>
      <trkpt lat="42.617396414279937744140625" lon="2.72890157997608184814453125">
        <ele>262.79998779296875</ele>
        <time>2023-08-19T17:50:36.000Z</time>
        <extensions>
          <ns3:TrackPointExtension>
            <ns3:hr>154</ns3:hr>
            <ns3:cad>91</ns3:cad>
          </ns3:TrackPointExtension>
        </extensions>
      </trkpt>
      <trkpt lat="42.6173791475594043731689453125" lon="2.72892580367624759674072265625">
        <ele>262.600006103515625</ele>
        <time>2023-08-19T17:50:37.000Z</time>
        <extensions>
          <ns3:TrackPointExtension>
            <ns3:hr>154</ns3:hr>
            <ns3:cad>93</ns3:cad>
          </ns3:TrackPointExtension>
        </extensions>
      </trkpt>
      <trkpt lat="42.61736799962818622589111328125" lon="2.72894675843417644500732421875">
        <ele>262.399993896484375</ele>
        <time>2023-08-19T17:50:38.000Z</time>
        <extensions>
          <ns3:TrackPointExtension>
            <ns3:hr>154</ns3:hr>
            <ns3:cad>93</ns3:cad>
          </ns3:TrackPointExtension>
        </extensions>
      </trkpt>
      <trkpt lat="42.61735358275473117828369140625" lon="2.72898011840879917144775390625">
        <ele>262</ele>
        <time>2023-08-19T17:50:39.000Z</time>
        <extensions>
          <ns3:TrackPointExtension>
            <ns3:hr>154</ns3:hr>
            <ns3:cad>91</ns3:cad>
          </ns3:TrackPointExtension>
        </extensions>
      </trkpt>
      <trkpt lat="42.61734218336641788482666015625" lon="2.72901163436472415924072265625">
        <ele>261.20001220703125</ele>
        <time>2023-08-19T17:50:40.000Z</time>
        <extensions>
          <ns3:TrackPointExtension>
            <ns3:hr>154</ns3:hr>
            <ns3:cad>91</ns3:cad>
          </ns3:TrackPointExtension>
        </extensions>
      </trkpt>
      <trkpt lat="42.61732743121683597564697265625" lon="2.72904164157807826995849609375">
        <ele>261</ele>
        <time>2023-08-19T17:50:41.000Z</time>
        <extensions>
          <ns3:TrackPointExtension>
            <ns3:hr>154</ns3:hr>
            <ns3:cad>90</ns3:cad>
          </ns3:TrackPointExtension>
        </extensions>
      </trkpt>
      <trkpt lat="42.61731100268661975860595703125" lon="2.72907466627657413482666015625">
        <ele>260.600006103515625</ele>
        <time>2023-08-19T17:50:42.000Z</time>
        <extensions>
          <ns3:TrackPointExtension>
            <ns3:hr>154</ns3:hr>
            <ns3:cad>91</ns3:cad>
          </ns3:TrackPointExtension>
        </extensions>
      </trkpt>
      <trkpt lat="42.61729516088962554931640625" lon="2.72910383529961109161376953125">
        <ele>260.20001220703125</ele>
        <time>2023-08-19T17:50:43.000Z</time>
        <extensions>
          <ns3:TrackPointExtension>
            <ns3:hr>154</ns3:hr>
            <ns3:cad>91</ns3:cad>
          </ns3:TrackPointExtension>
        </extensions>
      </trkpt>
      <trkpt lat="42.61728174984455108642578125" lon="2.72912981919944286346435546875">
        <ele>259.79998779296875</ele>
        <time>2023-08-19T17:50:44.000Z</time>
        <extensions>
          <ns3:TrackPointExtension>
            <ns3:hr>154</ns3:hr>
            <ns3:cad>91</ns3:cad>
          </ns3:TrackPointExtension>
        </extensions>
      </trkpt>
      <trkpt lat="42.61726163327693939208984375" lon="2.729164771735668182373046875">
        <ele>259.600006103515625</ele>
        <time>2023-08-19T17:50:45.000Z</time>
        <extensions>
          <ns3:TrackPointExtension>
            <ns3:hr>154</ns3:hr>
            <ns3:cad>90</ns3:cad>
          </ns3:TrackPointExtension>
        </extensions>
      </trkpt>
      <trkpt lat="42.61724419891834259033203125" lon="2.72919385693967342376708984375">
        <ele>259.20001220703125</ele>
        <time>2023-08-19T17:50:46.000Z</time>
        <extensions>
          <ns3:TrackPointExtension>
            <ns3:hr>154</ns3:hr>
            <ns3:cad>89</ns3:cad>
          </ns3:TrackPointExtension>
        </extensions>
      </trkpt>
      <trkpt lat="42.61721762828528881072998046875" lon="2.72922252304852008819580078125">
        <ele>258.79998779296875</ele>
        <time>2023-08-19T17:50:47.000Z</time>
        <extensions>
          <ns3:TrackPointExtension>
            <ns3:hr>154</ns3:hr>
            <ns3:cad>89</ns3:cad>
          </ns3:TrackPointExtension>
        </extensions>
      </trkpt>
      <trkpt lat="42.61719860136508941650390625" lon="2.72924062795937061309814453125">
        <ele>258.600006103515625</ele>
        <time>2023-08-19T17:50:48.000Z</time>
        <extensions>
          <ns3:TrackPointExtension>
            <ns3:hr>154</ns3:hr>
            <ns3:cad>89</ns3:cad>
          </ns3:TrackPointExtension>
        </extensions>
      </trkpt>
      <trkpt lat="42.61717303656041622161865234375" lon="2.7292604930698871612548828125">
        <ele>258.399993896484375</ele>
        <time>2023-08-19T17:50:49.000Z</time>
        <extensions>
          <ns3:TrackPointExtension>
            <ns3:hr>154</ns3:hr>
            <ns3:cad>88</ns3:cad>
          </ns3:TrackPointExtension>
        </extensions>
      </trkpt>
      <trkpt lat="42.61715074069797992706298828125" lon="2.72927767597138881683349609375">
        <ele>258</ele>
        <time>2023-08-19T17:50:50.000Z</time>
        <extensions>
          <ns3:TrackPointExtension>
            <ns3:hr>154</ns3:hr>
            <ns3:cad>87</ns3:cad>
          </ns3:TrackPointExtension>
        </extensions>
      </trkpt>
      <trkpt lat="42.6171280257403850555419921875" lon="2.729296199977397918701171875">
        <ele>257.79998779296875</ele>
        <time>2023-08-19T17:50:51.000Z</time>
        <extensions>
          <ns3:TrackPointExtension>
            <ns3:hr>155</ns3:hr>
            <ns3:cad>88</ns3:cad>
          </ns3:TrackPointExtension>
        </extensions>
      </trkpt>
      <trkpt lat="42.61710983701050281524658203125" lon="2.72931455634534358978271484375">
        <ele>257.600006103515625</ele>
        <time>2023-08-19T17:50:52.000Z</time>
        <extensions>
          <ns3:TrackPointExtension>
            <ns3:hr>155</ns3:hr>
            <ns3:cad>87</ns3:cad>
          </ns3:TrackPointExtension>
        </extensions>
      </trkpt>
      <trkpt lat="42.6170847751200199127197265625" lon="2.7293382771313190460205078125">
        <ele>257</ele>
        <time>2023-08-19T17:50:53.000Z</time>
        <extensions>
          <ns3:TrackPointExtension>
            <ns3:hr>155</ns3:hr>
            <ns3:cad>88</ns3:cad>
          </ns3:TrackPointExtension>
        </extensions>
      </trkpt>
      <trkpt lat="42.61707161553204059600830078125" lon="2.7293597348034381866455078125">
        <ele>256.79998779296875</ele>
        <time>2023-08-19T17:50:54.000Z</time>
        <extensions>
          <ns3:TrackPointExtension>
            <ns3:hr>155</ns3:hr>
            <ns3:cad>91</ns3:cad>
          </ns3:TrackPointExtension>
        </extensions>
      </trkpt>
      <trkpt lat="42.6170535944402217864990234375" lon="2.72939049638807773590087890625">
        <ele>256.399993896484375</ele>
        <time>2023-08-19T17:50:55.000Z</time>
        <extensions>
          <ns3:TrackPointExtension>
            <ns3:hr>155</ns3:hr>
            <ns3:cad>91</ns3:cad>
          </ns3:TrackPointExtension>
        </extensions>
      </trkpt>
      <trkpt lat="42.6170405186712741851806640625" lon="2.72941664792597293853759765625">
        <ele>256</ele>
        <time>2023-08-19T17:50:56.000Z</time>
        <extensions>
          <ns3:TrackPointExtension>
            <ns3:hr>155</ns3:hr>
            <ns3:cad>90</ns3:cad>
          </ns3:TrackPointExtension>
        </extensions>
      </trkpt>
      <trkpt lat="42.6170217432081699371337890625" lon="2.72944078780710697174072265625">
        <ele>256</ele>
        <time>2023-08-19T17:50:57.000Z</time>
        <extensions>
          <ns3:TrackPointExtension>
            <ns3:hr>155</ns3:hr>
            <ns3:cad>90</ns3:cad>
          </ns3:TrackPointExtension>
        </extensions>
      </trkpt>
      <trkpt lat="42.6170029677450656890869140625" lon="2.72946911863982677459716796875">
        <ele>255.600006103515625</ele>
        <time>2023-08-19T17:50:58.000Z</time>
        <extensions>
          <ns3:TrackPointExtension>
            <ns3:hr>155</ns3:hr>
            <ns3:cad>90</ns3:cad>
          </ns3:TrackPointExtension>
        </extensions>
      </trkpt>
      <trkpt lat="42.6169845275580883026123046875" lon="2.72949837148189544677734375">
        <ele>255.1999969482421875</ele>
        <time>2023-08-19T17:50:59.000Z</time>
        <extensions>
          <ns3:TrackPointExtension>
            <ns3:hr>156</ns3:hr>
            <ns3:cad>91</ns3:cad>
          </ns3:TrackPointExtension>
        </extensions>
      </trkpt>
      <trkpt lat="42.61696793138980865478515625" lon="2.72953416220843791961669921875">
        <ele>254.8000030517578125</ele>
        <time>2023-08-19T17:51:00.000Z</time>
        <extensions>
          <ns3:TrackPointExtension>
            <ns3:hr>156</ns3:hr>
            <ns3:cad>92</ns3:cad>
          </ns3:TrackPointExtension>
        </extensions>
      </trkpt>
      <trkpt lat="42.61695560999214649200439453125" lon="2.729559727013111114501953125">
        <ele>254.600006103515625</ele>
        <time>2023-08-19T17:51:01.000Z</time>
        <extensions>
          <ns3:TrackPointExtension>
            <ns3:hr>156</ns3:hr>
            <ns3:cad>91</ns3:cad>
          </ns3:TrackPointExtension>
        </extensions>
      </trkpt>
      <trkpt lat="42.6169442944228649139404296875" lon="2.72959166206419467926025390625">
        <ele>253.8000030517578125</ele>
        <time>2023-08-19T17:51:02.000Z</time>
        <extensions>
          <ns3:TrackPointExtension>
            <ns3:hr>156</ns3:hr>
            <ns3:cad>91</ns3:cad>
          </ns3:TrackPointExtension>
        </extensions>
      </trkpt>
      <trkpt lat="42.6169268600642681121826171875" lon="2.7296195738017559051513671875">
        <ele>253.399993896484375</ele>
        <time>2023-08-19T17:51:03.000Z</time>
        <extensions>
          <ns3:TrackPointExtension>
            <ns3:hr>156</ns3:hr>
            <ns3:cad>91</ns3:cad>
          </ns3:TrackPointExtension>
        </extensions>
      </trkpt>
      <trkpt lat="42.6169122755527496337890625" lon="2.729647569358348846435546875">
        <ele>253.1999969482421875</ele>
        <time>2023-08-19T17:51:04.000Z</time>
        <extensions>
          <ns3:TrackPointExtension>
            <ns3:hr>156</ns3:hr>
            <ns3:cad>90</ns3:cad>
          </ns3:TrackPointExtension>
        </extensions>
      </trkpt>
      <trkpt lat="42.616896517574787139892578125" lon="2.72967816330492496490478515625">
        <ele>252.600006103515625</ele>
        <time>2023-08-19T17:51:05.000Z</time>
        <extensions>
          <ns3:TrackPointExtension>
            <ns3:hr>156</ns3:hr>
            <ns3:cad>89</ns3:cad>
          </ns3:TrackPointExtension>
        </extensions>
      </trkpt>
      <trkpt lat="42.61687765829265117645263671875" lon="2.729711942374706268310546875">
        <ele>252.399993896484375</ele>
        <time>2023-08-19T17:51:06.000Z</time>
        <extensions>
          <ns3:TrackPointExtension>
            <ns3:hr>157</ns3:hr>
            <ns3:cad>89</ns3:cad>
          </ns3:TrackPointExtension>
        </extensions>
      </trkpt>
      <trkpt lat="42.6168559491634368896484375" lon="2.72973918356001377105712890625">
        <ele>251.8000030517578125</ele>
        <time>2023-08-19T17:51:07.000Z</time>
        <extensions>
          <ns3:TrackPointExtension>
            <ns3:hr>157</ns3:hr>
            <ns3:cad>90</ns3:cad>
          </ns3:TrackPointExtension>
        </extensions>
      </trkpt>
      <trkpt lat="42.6168376766145229339599609375" lon="2.72976533509790897369384765625">
        <ele>251.600006103515625</ele>
        <time>2023-08-19T17:51:08.000Z</time>
        <extensions>
          <ns3:TrackPointExtension>
            <ns3:hr>157</ns3:hr>
            <ns3:cad>90</ns3:cad>
          </ns3:TrackPointExtension>
        </extensions>
      </trkpt>
      <trkpt lat="42.6168148778378963470458984375" lon="2.729798443615436553955078125">
        <ele>251.1999969482421875</ele>
        <time>2023-08-19T17:51:09.000Z</time>
        <extensions>
          <ns3:TrackPointExtension>
            <ns3:hr>157</ns3:hr>
            <ns3:cad>90</ns3:cad>
          </ns3:TrackPointExtension>
        </extensions>
      </trkpt>
      <trkpt lat="42.61679685674607753753662109375" lon="2.7298284508287906646728515625">
        <ele>251</ele>
        <time>2023-08-19T17:51:10.000Z</time>
        <extensions>
          <ns3:TrackPointExtension>
            <ns3:hr>157</ns3:hr>
            <ns3:cad>88</ns3:cad>
          </ns3:TrackPointExtension>
        </extensions>
      </trkpt>
      <trkpt lat="42.6167712919414043426513671875" lon="2.72985912859439849853515625">
        <ele>250.600006103515625</ele>
        <time>2023-08-19T17:51:11.000Z</time>
        <extensions>
          <ns3:TrackPointExtension>
            <ns3:hr>157</ns3:hr>
            <ns3:cad>88</ns3:cad>
          </ns3:TrackPointExtension>
        </extensions>
      </trkpt>
      <trkpt lat="42.61675109155476093292236328125" lon="2.72988469339907169342041015625">
        <ele>250.399993896484375</ele>
        <time>2023-08-19T17:51:12.000Z</time>
        <extensions>
          <ns3:TrackPointExtension>
            <ns3:hr>157</ns3:hr>
            <ns3:cad>88</ns3:cad>
          </ns3:TrackPointExtension>
        </extensions>
      </trkpt>
      <trkpt lat="42.61672527529299259185791015625" lon="2.72991503588855266571044921875">
        <ele>250.1999969482421875</ele>
        <time>2023-08-19T17:51:13.000Z</time>
        <extensions>
          <ns3:TrackPointExtension>
            <ns3:hr>157</ns3:hr>
            <ns3:cad>88</ns3:cad>
          </ns3:TrackPointExtension>
        </extensions>
      </trkpt>
      <trkpt lat="42.61670641601085662841796875" lon="2.7299424447119235992431640625">
        <ele>249.600006103515625</ele>
        <time>2023-08-19T17:51:14.000Z</time>
        <extensions>
          <ns3:TrackPointExtension>
            <ns3:hr>157</ns3:hr>
            <ns3:cad>88</ns3:cad>
          </ns3:TrackPointExtension>
        </extensions>
      </trkpt>
      <trkpt lat="42.6166851259768009185791015625" lon="2.72996784187853336334228515625">
        <ele>249.399993896484375</ele>
        <time>2023-08-19T17:51:15.000Z</time>
        <extensions>
          <ns3:TrackPointExtension>
            <ns3:hr>157</ns3:hr>
            <ns3:cad>89</ns3:cad>
          </ns3:TrackPointExtension>
        </extensions>
      </trkpt>
      <trkpt lat="42.61666811071336269378662109375" lon="2.7299930714070796966552734375">
        <ele>249</ele>
        <time>2023-08-19T17:51:16.000Z</time>
        <extensions>
          <ns3:TrackPointExtension>
            <ns3:hr>157</ns3:hr>
            <ns3:cad>89</ns3:cad>
          </ns3:TrackPointExtension>
        </extensions>
      </trkpt>
      <trkpt lat="42.61664916761219501495361328125" lon="2.7300279401242733001708984375">
        <ele>248.8000030517578125</ele>
        <time>2023-08-19T17:51:17.000Z</time>
        <extensions>
          <ns3:TrackPointExtension>
            <ns3:hr>157</ns3:hr>
            <ns3:cad>88</ns3:cad>
          </ns3:TrackPointExtension>
        </extensions>
      </trkpt>
      <trkpt lat="42.61663139797747135162353515625" lon="2.7300510741770267486572265625">
        <ele>248.600006103515625</ele>
        <time>2023-08-19T17:51:18.000Z</time>
        <extensions>
          <ns3:TrackPointExtension>
            <ns3:hr>157</ns3:hr>
            <ns3:cad>88</ns3:cad>
          </ns3:TrackPointExtension>
        </extensions>
      </trkpt>
      <trkpt lat="42.61660742573440074920654296875" lon="2.73007948882877826690673828125">
        <ele>248.399993896484375</ele>
        <time>2023-08-19T17:51:19.000Z</time>
        <extensions>
          <ns3:TrackPointExtension>
            <ns3:hr>157</ns3:hr>
            <ns3:cad>88</ns3:cad>
          </ns3:TrackPointExtension>
        </extensions>
      </trkpt>
      <trkpt lat="42.6165912486612796783447265625" lon="2.73010027594864368438720703125">
        <ele>247.8000030517578125</ele>
        <time>2023-08-19T17:51:20.000Z</time>
        <extensions>
          <ns3:TrackPointExtension>
            <ns3:hr>157</ns3:hr>
            <ns3:cad>90</ns3:cad>
          </ns3:TrackPointExtension>
        </extensions>
      </trkpt>
      <trkpt lat="42.61657121591269969940185546875" lon="2.73012860678136348724365234375">
        <ele>247.399993896484375</ele>
        <time>2023-08-19T17:51:21.000Z</time>
        <extensions>
          <ns3:TrackPointExtension>
            <ns3:hr>157</ns3:hr>
            <ns3:cad>91</ns3:cad>
          </ns3:TrackPointExtension>
        </extensions>
      </trkpt>
      <trkpt lat="42.61655428446829319000244140625" lon="2.7301566861569881439208984375">
        <ele>247.1999969482421875</ele>
        <time>2023-08-19T17:51:22.000Z</time>
        <extensions>
          <ns3:TrackPointExtension>
            <ns3:hr>157</ns3:hr>
            <ns3:cad>92</ns3:cad>
          </ns3:TrackPointExtension>
        </extensions>
      </trkpt>
      <trkpt lat="42.616531737148761749267578125" lon="2.7301845140755176544189453125">
        <ele>246.8000030517578125</ele>
        <time>2023-08-19T17:51:23.000Z</time>
        <extensions>
          <ns3:TrackPointExtension>
            <ns3:hr>157</ns3:hr>
            <ns3:cad>92</ns3:cad>
          </ns3:TrackPointExtension>
        </extensions>
      </trkpt>
      <trkpt lat="42.6165111176669597625732421875" lon="2.73020706139504909515380859375">
        <ele>246.600006103515625</ele>
        <time>2023-08-19T17:51:24.000Z</time>
        <extensions>
          <ns3:TrackPointExtension>
            <ns3:hr>156</ns3:hr>
            <ns3:cad>91</ns3:cad>
          </ns3:TrackPointExtension>
        </extensions>
      </trkpt>
      <trkpt lat="42.61649049818515777587890625" lon="2.7302317880094051361083984375">
        <ele>246.1999969482421875</ele>
        <time>2023-08-19T17:51:25.000Z</time>
        <extensions>
          <ns3:TrackPointExtension>
            <ns3:hr>156</ns3:hr>
            <ns3:cad>90</ns3:cad>
          </ns3:TrackPointExtension>
        </extensions>
      </trkpt>
      <trkpt lat="42.61647515930235385894775390625" lon="2.7302572689950466156005859375">
        <ele>245.399993896484375</ele>
        <time>2023-08-19T17:51:26.000Z</time>
        <extensions>
          <ns3:TrackPointExtension>
            <ns3:hr>156</ns3:hr>
            <ns3:cad>89</ns3:cad>
          </ns3:TrackPointExtension>
        </extensions>
      </trkpt>
      <trkpt lat="42.6164541207253932952880859375" lon="2.730285264551639556884765625">
        <ele>245.1999969482421875</ele>
        <time>2023-08-19T17:51:27.000Z</time>
        <extensions>
          <ns3:TrackPointExtension>
            <ns3:hr>156</ns3:hr>
            <ns3:cad>88</ns3:cad>
          </ns3:TrackPointExtension>
        </extensions>
      </trkpt>
      <trkpt lat="42.61643844656646251678466796875" lon="2.73030948825180530548095703125">
        <ele>244.8000030517578125</ele>
        <time>2023-08-19T17:51:28.000Z</time>
        <extensions>
          <ns3:TrackPointExtension>
            <ns3:hr>156</ns3:hr>
            <ns3:cad>89</ns3:cad>
          </ns3:TrackPointExtension>
        </extensions>
      </trkpt>
      <trkpt lat="42.61641916818916797637939453125" lon="2.73033061064779758453369140625">
        <ele>244.399993896484375</ele>
        <time>2023-08-19T17:51:29.000Z</time>
        <extensions>
          <ns3:TrackPointExtension>
            <ns3:hr>156</ns3:hr>
            <ns3:cad>89</ns3:cad>
          </ns3:TrackPointExtension>
        </extensions>
      </trkpt>
      <trkpt lat="42.61639754287898540496826171875" lon="2.73034636862576007843017578125">
        <ele>243.8000030517578125</ele>
        <time>2023-08-19T17:51:30.000Z</time>
        <extensions>
          <ns3:TrackPointExtension>
            <ns3:hr>156</ns3:hr>
            <ns3:cad>91</ns3:cad>
          </ns3:TrackPointExtension>
        </extensions>
      </trkpt>
      <trkpt lat="42.61637927033007144927978515625" lon="2.730369083583354949951171875">
        <ele>243.600006103515625</ele>
        <time>2023-08-19T17:51:31.000Z</time>
        <extensions>
          <ns3:TrackPointExtension>
            <ns3:hr>156</ns3:hr>
            <ns3:cad>97</ns3:cad>
          </ns3:TrackPointExtension>
        </extensions>
      </trkpt>
      <trkpt lat="42.61635839939117431640625" lon="2.73039833642542362213134765625">
        <ele>243.1999969482421875</ele>
        <time>2023-08-19T17:51:32.000Z</time>
        <extensions>
          <ns3:TrackPointExtension>
            <ns3:hr>156</ns3:hr>
            <ns3:cad>95</ns3:cad>
          </ns3:TrackPointExtension>
        </extensions>
      </trkpt>
      <trkpt lat="42.61633937247097492218017578125" lon="2.73042616434395313262939453125">
        <ele>242.600006103515625</ele>
        <time>2023-08-19T17:51:33.000Z</time>
        <extensions>
          <ns3:TrackPointExtension>
            <ns3:hr>156</ns3:hr>
            <ns3:cad>93</ns3:cad>
          </ns3:TrackPointExtension>
        </extensions>
      </trkpt>
      <trkpt lat="42.61632076464593410491943359375" lon="2.73045885376632213592529296875">
        <ele>242.600006103515625</ele>
        <time>2023-08-19T17:51:34.000Z</time>
        <extensions>
          <ns3:TrackPointExtension>
            <ns3:hr>156</ns3:hr>
            <ns3:cad>92</ns3:cad>
          </ns3:TrackPointExtension>
        </extensions>
      </trkpt>
      <trkpt lat="42.6163034141063690185546875" lon="2.7304912917315959930419921875">
        <ele>242.1999969482421875</ele>
        <time>2023-08-19T17:51:35.000Z</time>
        <extensions>
          <ns3:TrackPointExtension>
            <ns3:hr>156</ns3:hr>
            <ns3:cad>93</ns3:cad>
          </ns3:TrackPointExtension>
        </extensions>
      </trkpt>
      <trkpt lat="42.61628841049969196319580078125" lon="2.73051836527884006500244140625">
        <ele>241.8000030517578125</ele>
        <time>2023-08-19T17:51:36.000Z</time>
        <extensions>
          <ns3:TrackPointExtension>
            <ns3:hr>156</ns3:hr>
            <ns3:cad>99</ns3:cad>
          </ns3:TrackPointExtension>
        </extensions>
      </trkpt>
      <trkpt lat="42.61626678518950939178466796875" lon="2.73054636083543300628662109375">
        <ele>241.1999969482421875</ele>
        <time>2023-08-19T17:51:37.000Z</time>
        <extensions>
          <ns3:TrackPointExtension>
            <ns3:hr>156</ns3:hr>
            <ns3:cad>100</ns3:cad>
          </ns3:TrackPointExtension>
        </extensions>
      </trkpt>
      <trkpt lat="42.61625018902122974395751953125" lon="2.73056932725012302398681640625">
        <ele>240.600006103515625</ele>
        <time>2023-08-19T17:51:38.000Z</time>
        <extensions>
          <ns3:TrackPointExtension>
            <ns3:hr>156</ns3:hr>
            <ns3:cad>99</ns3:cad>
          </ns3:TrackPointExtension>
        </extensions>
      </trkpt>
      <trkpt lat="42.61622454039752483367919921875" lon="2.73059296421706676483154296875">
        <ele>240</ele>
        <time>2023-08-19T17:51:39.000Z</time>
        <extensions>
          <ns3:TrackPointExtension>
            <ns3:hr>156</ns3:hr>
            <ns3:cad>93</ns3:cad>
          </ns3:TrackPointExtension>
        </extensions>
      </trkpt>
      <trkpt lat="42.61620241217315196990966796875" lon="2.73062288761138916015625">
        <ele>239.8000030517578125</ele>
        <time>2023-08-19T17:51:40.000Z</time>
        <extensions>
          <ns3:TrackPointExtension>
            <ns3:hr>156</ns3:hr>
            <ns3:cad>94</ns3:cad>
          </ns3:TrackPointExtension>
        </extensions>
      </trkpt>
      <trkpt lat="42.61618061922490596771240234375" lon="2.73065172135829925537109375">
        <ele>239.399993896484375</ele>
        <time>2023-08-19T17:51:41.000Z</time>
        <extensions>
          <ns3:TrackPointExtension>
            <ns3:hr>156</ns3:hr>
            <ns3:cad>94</ns3:cad>
          </ns3:TrackPointExtension>
        </extensions>
      </trkpt>
      <trkpt lat="42.61616821400821208953857421875" lon="2.7306914515793323516845703125">
        <ele>239</ele>
        <time>2023-08-19T17:51:42.000Z</time>
        <extensions>
          <ns3:TrackPointExtension>
            <ns3:hr>156</ns3:hr>
            <ns3:cad>94</ns3:cad>
          </ns3:TrackPointExtension>
        </extensions>
      </trkpt>
      <trkpt lat="42.6161517016589641571044921875" lon="2.730729170143604278564453125">
        <ele>238.600006103515625</ele>
        <time>2023-08-19T17:51:43.000Z</time>
        <extensions>
          <ns3:TrackPointExtension>
            <ns3:hr>156</ns3:hr>
            <ns3:cad>93</ns3:cad>
          </ns3:TrackPointExtension>
        </extensions>
      </trkpt>
      <trkpt lat="42.616134099662303924560546875" lon="2.73076881654560565948486328125">
        <ele>238</ele>
        <time>2023-08-19T17:51:44.000Z</time>
        <extensions>
          <ns3:TrackPointExtension>
            <ns3:hr>157</ns3:hr>
            <ns3:cad>93</ns3:cad>
          </ns3:TrackPointExtension>
        </extensions>
      </trkpt>
      <trkpt lat="42.61611607857048511505126953125" lon="2.73080527782440185546875">
        <ele>237.600006103515625</ele>
        <time>2023-08-19T17:51:45.000Z</time>
        <extensions>
          <ns3:TrackPointExtension>
            <ns3:hr>157</ns3:hr>
            <ns3:cad>92</ns3:cad>
          </ns3:TrackPointExtension>
        </extensions>
      </trkpt>
      <trkpt lat="42.61610434390604496002197265625" lon="2.73084618151187896728515625">
        <ele>237.1999969482421875</ele>
        <time>2023-08-19T17:51:46.000Z</time>
        <extensions>
          <ns3:TrackPointExtension>
            <ns3:hr>157</ns3:hr>
            <ns3:cad>92</ns3:cad>
          </ns3:TrackPointExtension>
        </extensions>
      </trkpt>
      <trkpt lat="42.6160893402993679046630859375" lon="2.73088398389518260955810546875">
        <ele>236.600006103515625</ele>
        <time>2023-08-19T17:51:47.000Z</time>
        <extensions>
          <ns3:TrackPointExtension>
            <ns3:hr>157</ns3:hr>
            <ns3:cad>91</ns3:cad>
          </ns3:TrackPointExtension>
        </extensions>
      </trkpt>
      <trkpt lat="42.61607886292040348052978515625" lon="2.7309264801442623138427734375">
        <ele>236.1999969482421875</ele>
        <time>2023-08-19T17:51:48.000Z</time>
        <extensions>
          <ns3:TrackPointExtension>
            <ns3:hr>158</ns3:hr>
            <ns3:cad>90</ns3:cad>
          </ns3:TrackPointExtension>
        </extensions>
      </trkpt>
      <trkpt lat="42.61606243439018726348876953125" lon="2.730963528156280517578125">
        <ele>236.1999969482421875</ele>
        <time>2023-08-19T17:51:49.000Z</time>
        <extensions>
          <ns3:TrackPointExtension>
            <ns3:hr>158</ns3:hr>
            <ns3:cad>90</ns3:cad>
          </ns3:TrackPointExtension>
        </extensions>
      </trkpt>
      <trkpt lat="42.616044580936431884765625" lon="2.73099479265511035919189453125">
        <ele>235.8000030517578125</ele>
        <time>2023-08-19T17:51:50.000Z</time>
        <extensions>
          <ns3:TrackPointExtension>
            <ns3:hr>158</ns3:hr>
            <ns3:cad>89</ns3:cad>
          </ns3:TrackPointExtension>
        </extensions>
      </trkpt>
      <trkpt lat="42.61601977050304412841796875" lon="2.73101457394659519195556640625">
        <ele>235.600006103515625</ele>
        <time>2023-08-19T17:51:51.000Z</time>
        <extensions>
          <ns3:TrackPointExtension>
            <ns3:hr>158</ns3:hr>
            <ns3:cad>89</ns3:cad>
          </ns3:TrackPointExtension>
        </extensions>
      </trkpt>
      <trkpt lat="42.61599839664995670318603515625" lon="2.7310344390571117401123046875">
        <ele>235.399993896484375</ele>
        <time>2023-08-19T17:51:52.000Z</time>
        <extensions>
          <ns3:TrackPointExtension>
            <ns3:hr>158</ns3:hr>
            <ns3:cad>88</ns3:cad>
          </ns3:TrackPointExtension>
        </extensions>
      </trkpt>
      <trkpt lat="42.61597911827266216278076171875" lon="2.73105430416762828826904296875">
        <ele>235.1999969482421875</ele>
        <time>2023-08-19T17:51:53.000Z</time>
        <extensions>
          <ns3:TrackPointExtension>
            <ns3:hr>159</ns3:hr>
            <ns3:cad>88</ns3:cad>
          </ns3:TrackPointExtension>
        </extensions>
      </trkpt>
      <trkpt lat="42.6159579120576381683349609375" lon="2.7310793660581111907958984375">
        <ele>235.1999969482421875</ele>
        <time>2023-08-19T17:51:54.000Z</time>
        <extensions>
          <ns3:TrackPointExtension>
            <ns3:hr>159</ns3:hr>
            <ns3:cad>92</ns3:cad>
          </ns3:TrackPointExtension>
        </extensions>
      </trkpt>
      <trkpt lat="42.6159404776990413665771484375" lon="2.73110476322472095489501953125">
        <ele>235</ele>
        <time>2023-08-19T17:51:55.000Z</time>
        <extensions>
          <ns3:TrackPointExtension>
            <ns3:hr>159</ns3:hr>
            <ns3:cad>95</ns3:cad>
          </ns3:TrackPointExtension>
        </extensions>
      </trkpt>
      <trkpt lat="42.6159220375120639801025390625" lon="2.731134183704853057861328125">
        <ele>235</ele>
        <time>2023-08-19T17:51:56.000Z</time>
        <extensions>
          <ns3:TrackPointExtension>
            <ns3:hr>159</ns3:hr>
            <ns3:cad>94</ns3:cad>
          </ns3:TrackPointExtension>
        </extensions>
      </trkpt>
      <trkpt lat="42.6159035973250865936279296875" lon="2.731162346899509429931640625">
        <ele>234.8000030517578125</ele>
        <time>2023-08-19T17:51:57.000Z</time>
        <extensions>
          <ns3:TrackPointExtension>
            <ns3:hr>159</ns3:hr>
            <ns3:cad>93</ns3:cad>
          </ns3:TrackPointExtension>
        </extensions>
      </trkpt>
      <trkpt lat="42.61589295230805873870849609375" lon="2.731193862855434417724609375">
        <ele>234.399993896484375</ele>
        <time>2023-08-19T17:51:58.000Z</time>
        <extensions>
          <ns3:TrackPointExtension>
            <ns3:hr>159</ns3:hr>
            <ns3:cad>90</ns3:cad>
          </ns3:TrackPointExtension>
        </extensions>
      </trkpt>
      <trkpt lat="42.61588322930037975311279296875" lon="2.73122462444007396697998046875">
        <ele>234.1999969482421875</ele>
        <time>2023-08-19T17:51:59.000Z</time>
        <extensions>
          <ns3:TrackPointExtension>
            <ns3:hr>159</ns3:hr>
            <ns3:cad>88</ns3:cad>
          </ns3:TrackPointExtension>
        </extensions>
      </trkpt>
      <trkpt lat="42.61586663313210010528564453125" lon="2.73126058280467987060546875">
        <ele>234</ele>
        <time>2023-08-19T17:52:00.000Z</time>
        <extensions>
          <ns3:TrackPointExtension>
            <ns3:hr>159</ns3:hr>
            <ns3:cad>86</ns3:cad>
          </ns3:TrackPointExtension>
        </extensions>
      </trkpt>
      <trkpt lat="42.615860514342784881591796875" lon="2.7312902547419071197509765625">
        <ele>233.600006103515625</ele>
        <time>2023-08-19T17:52:01.000Z</time>
        <extensions>
          <ns3:TrackPointExtension>
            <ns3:hr>159</ns3:hr>
            <ns3:cad>89</ns3:cad>
          </ns3:TrackPointExtension>
        </extensions>
      </trkpt>
      <trkpt lat="42.615845091640949249267578125" lon="2.731319926679134368896484375">
        <ele>233.600006103515625</ele>
        <time>2023-08-19T17:52:02.000Z</time>
        <extensions>
          <ns3:TrackPointExtension>
            <ns3:hr>159</ns3:hr>
            <ns3:cad>105</ns3:cad>
          </ns3:TrackPointExtension>
        </extensions>
      </trkpt>
      <trkpt lat="42.6158362068235874176025390625" lon="2.73134465329349040985107421875">
        <ele>233.399993896484375</ele>
        <time>2023-08-19T17:52:03.000Z</time>
        <extensions>
          <ns3:TrackPointExtension>
            <ns3:hr>159</ns3:hr>
            <ns3:cad>95</ns3:cad>
          </ns3:TrackPointExtension>
        </extensions>
      </trkpt>
      <trkpt lat="42.61582355014979839324951171875" lon="2.7313710562884807586669921875">
        <ele>233</ele>
        <time>2023-08-19T17:52:04.000Z</time>
        <extensions>
          <ns3:TrackPointExtension>
            <ns3:hr>159</ns3:hr>
            <ns3:cad>91</ns3:cad>
          </ns3:TrackPointExtension>
        </extensions>
      </trkpt>
      <trkpt lat="42.61581248603761196136474609375" lon="2.73139527998864650726318359375">
        <ele>232.600006103515625</ele>
        <time>2023-08-19T17:52:05.000Z</time>
        <extensions>
          <ns3:TrackPointExtension>
            <ns3:hr>159</ns3:hr>
            <ns3:cad>90</ns3:cad>
          </ns3:TrackPointExtension>
        </extensions>
      </trkpt>
      <trkpt lat="42.61580091901123523712158203125" lon="2.73142143152654170989990234375">
        <ele>232.600006103515625</ele>
        <time>2023-08-19T17:52:06.000Z</time>
        <extensions>
          <ns3:TrackPointExtension>
            <ns3:hr>159</ns3:hr>
            <ns3:cad>90</ns3:cad>
          </ns3:TrackPointExtension>
        </extensions>
      </trkpt>
      <trkpt lat="42.6157922856509685516357421875" lon="2.731442637741565704345703125">
        <ele>232.399993896484375</ele>
        <time>2023-08-19T17:52:07.000Z</time>
        <extensions>
          <ns3:TrackPointExtension>
            <ns3:hr>159</ns3:hr>
            <ns3:cad>88</ns3:cad>
          </ns3:TrackPointExtension>
        </extensions>
      </trkpt>
      <trkpt lat="42.61578214354813098907470703125" lon="2.73147323168814182281494140625">
        <ele>232.399993896484375</ele>
        <time>2023-08-19T17:52:08.000Z</time>
        <extensions>
          <ns3:TrackPointExtension>
            <ns3:hr>159</ns3:hr>
            <ns3:cad>92</ns3:cad>
          </ns3:TrackPointExtension>
        </extensions>
      </trkpt>
      <trkpt lat="42.6157738454639911651611328125" lon="2.7314961142838001251220703125">
        <ele>232.1999969482421875</ele>
        <time>2023-08-19T17:52:09.000Z</time>
        <extensions>
          <ns3:TrackPointExtension>
            <ns3:hr>159</ns3:hr>
            <ns3:cad>93</ns3:cad>
          </ns3:TrackPointExtension>
        </extensions>
      </trkpt>
      <trkpt lat="42.615765631198883056640625" lon="2.73152519948780536651611328125">
        <ele>231.8000030517578125</ele>
        <time>2023-08-19T17:52:10.000Z</time>
        <extensions>
          <ns3:TrackPointExtension>
            <ns3:hr>159</ns3:hr>
            <ns3:cad>94</ns3:cad>
          </ns3:TrackPointExtension>
        </extensions>
      </trkpt>
      <trkpt lat="42.61575825512409210205078125" lon="2.7315544523298740386962890625">
        <ele>231.399993896484375</ele>
        <time>2023-08-19T17:52:11.000Z</time>
        <extensions>
          <ns3:TrackPointExtension>
            <ns3:hr>159</ns3:hr>
            <ns3:cad>94</ns3:cad>
          </ns3:TrackPointExtension>
        </extensions>
      </trkpt>
      <trkpt lat="42.61574895121157169342041015625" lon="2.73158554919064044952392578125">
        <ele>231</ele>
        <time>2023-08-19T17:52:12.000Z</time>
        <extensions>
          <ns3:TrackPointExtension>
            <ns3:hr>159</ns3:hr>
            <ns3:cad>93</ns3:cad>
          </ns3:TrackPointExtension>
        </extensions>
      </trkpt>
      <trkpt lat="42.615734450519084930419921875" lon="2.73161186836659908294677734375">
        <ele>230.8000030517578125</ele>
        <time>2023-08-19T17:52:13.000Z</time>
        <extensions>
          <ns3:TrackPointExtension>
            <ns3:hr>159</ns3:hr>
            <ns3:cad>90</ns3:cad>
          </ns3:TrackPointExtension>
        </extensions>
      </trkpt>
      <trkpt lat="42.61572581715881824493408203125" lon="2.7316382713615894317626953125">
        <ele>230.600006103515625</ele>
        <time>2023-08-19T17:52:14.000Z</time>
        <extensions>
          <ns3:TrackPointExtension>
            <ns3:hr>159</ns3:hr>
            <ns3:cad>95</ns3:cad>
          </ns3:TrackPointExtension>
        </extensions>
      </trkpt>
      <trkpt lat="42.61571341194212436676025390625" lon="2.73166232742369174957275390625">
        <ele>230.399993896484375</ele>
        <time>2023-08-19T17:52:15.000Z</time>
        <extensions>
          <ns3:TrackPointExtension>
            <ns3:hr>158</ns3:hr>
            <ns3:cad>98</ns3:cad>
          </ns3:TrackPointExtension>
        </extensions>
      </trkpt>
      <trkpt lat="42.6157010905444622039794921875" lon="2.7316837012767791748046875">
        <ele>230.1999969482421875</ele>
        <time>2023-08-19T17:52:16.000Z</time>
        <extensions>
          <ns3:TrackPointExtension>
            <ns3:hr>158</ns3:hr>
            <ns3:cad>96</ns3:cad>
          </ns3:TrackPointExtension>
        </extensions>
      </trkpt>
      <trkpt lat="42.615692205727100372314453125" lon="2.73170323111116886138916015625">
        <ele>229.600006103515625</ele>
        <time>2023-08-19T17:52:17.000Z</time>
        <extensions>
          <ns3:TrackPointExtension>
            <ns3:hr>158</ns3:hr>
            <ns3:cad>96</ns3:cad>
          </ns3:TrackPointExtension>
        </extensions>
      </trkpt>
      <trkpt lat="42.615690194070339202880859375" lon="2.73172150366008281707763671875">
        <ele>229.1999969482421875</ele>
        <time>2023-08-19T17:52:18.000Z</time>
        <extensions>
          <ns3:TrackPointExtension>
            <ns3:hr>158</ns3:hr>
            <ns3:cad>95</ns3:cad>
          </ns3:TrackPointExtension>
        </extensions>
      </trkpt>
      <trkpt lat="42.61568441055715084075927734375" lon="2.73175151087343692779541015625">
        <ele>229</ele>
        <time>2023-08-19T17:52:19.000Z</time>
        <extensions>
          <ns3:TrackPointExtension>
            <ns3:hr>158</ns3:hr>
            <ns3:cad>89</ns3:cad>
          </ns3:TrackPointExtension>
        </extensions>
      </trkpt>
      <trkpt lat="42.61567804031074047088623046875" lon="2.7317770756781101226806640625">
        <ele>228.8000030517578125</ele>
        <time>2023-08-19T17:52:20.000Z</time>
        <extensions>
          <ns3:TrackPointExtension>
            <ns3:hr>158</ns3:hr>
            <ns3:cad>86</ns3:cad>
          </ns3:TrackPointExtension>
        </extensions>
      </trkpt>
      <trkpt lat="42.6156709156930446624755859375" lon="2.73180465213954448699951171875">
        <ele>228.8000030517578125</ele>
        <time>2023-08-19T17:52:21.000Z</time>
        <extensions>
          <ns3:TrackPointExtension>
            <ns3:hr>158</ns3:hr>
            <ns3:cad>88</ns3:cad>
          </ns3:TrackPointExtension>
        </extensions>
      </trkpt>
      <trkpt lat="42.61566597037017345428466796875" lon="2.73182795383036136627197265625">
        <ele>228.600006103515625</ele>
        <time>2023-08-19T17:52:22.000Z</time>
        <extensions>
          <ns3:TrackPointExtension>
            <ns3:hr>158</ns3:hr>
            <ns3:cad>89</ns3:cad>
          </ns3:TrackPointExtension>
        </extensions>
      </trkpt>
      <trkpt lat="42.6156642101705074310302734375" lon="2.7318501658737659454345703125">
        <ele>228.399993896484375</ele>
        <time>2023-08-19T17:52:23.000Z</time>
        <extensions>
          <ns3:TrackPointExtension>
            <ns3:hr>158</ns3:hr>
            <ns3:cad>99</ns3:cad>
          </ns3:TrackPointExtension>
        </extensions>
      </trkpt>
      <trkpt lat="42.61565373279154300689697265625" lon="2.731877826154232025146484375">
        <ele>228</ele>
        <time>2023-08-19T17:52:24.000Z</time>
        <extensions>
          <ns3:TrackPointExtension>
            <ns3:hr>158</ns3:hr>
            <ns3:cad>97</ns3:cad>
          </ns3:TrackPointExtension>
        </extensions>
      </trkpt>
      <trkpt lat="42.61564484797418117523193359375" lon="2.73189651779830455780029296875">
        <ele>227.600006103515625</ele>
        <time>2023-08-19T17:52:25.000Z</time>
        <extensions>
          <ns3:TrackPointExtension>
            <ns3:hr>158</ns3:hr>
            <ns3:cad>94</ns3:cad>
          </ns3:TrackPointExtension>
        </extensions>
      </trkpt>
      <trkpt lat="42.615635208785533905029296875" lon="2.731920741498470306396484375">
        <ele>227.1999969482421875</ele>
        <time>2023-08-19T17:52:26.000Z</time>
        <extensions>
          <ns3:TrackPointExtension>
            <ns3:hr>158</ns3:hr>
            <ns3:cad>93</ns3:cad>
          </ns3:TrackPointExtension>
        </extensions>
      </trkpt>
      <trkpt lat="42.61562406085431575775146484375" lon="2.73195116780698299407958984375">
        <ele>227</ele>
        <time>2023-08-19T17:52:27.000Z</time>
        <extensions>
          <ns3:TrackPointExtension>
            <ns3:hr>158</ns3:hr>
            <ns3:cad>91</ns3:cad>
          </ns3:TrackPointExtension>
        </extensions>
      </trkpt>
      <trkpt lat="42.61561567895114421844482421875" lon="2.73197539150714874267578125">
        <ele>226.8000030517578125</ele>
        <time>2023-08-19T17:52:28.000Z</time>
        <extensions>
          <ns3:TrackPointExtension>
            <ns3:hr>157</ns3:hr>
            <ns3:cad>86</ns3:cad>
          </ns3:TrackPointExtension>
        </extensions>
      </trkpt>
      <trkpt lat="42.61560763232409954071044921875" lon="2.73200313560664653778076171875">
        <ele>226.600006103515625</ele>
        <time>2023-08-19T17:52:29.000Z</time>
        <extensions>
          <ns3:TrackPointExtension>
            <ns3:hr>157</ns3:hr>
            <ns3:cad>79</ns3:cad>
          </ns3:TrackPointExtension>
        </extensions>
      </trkpt>
      <trkpt lat="42.61560738086700439453125" lon="2.73202207870781421661376953125">
        <ele>226.399993896484375</ele>
        <time>2023-08-19T17:52:30.000Z</time>
        <extensions>
          <ns3:TrackPointExtension>
            <ns3:hr>157</ns3:hr>
            <ns3:cad>89</ns3:cad>
          </ns3:TrackPointExtension>
        </extensions>
      </trkpt>
      <trkpt lat="42.615603692829608917236328125" lon="2.73205074481666088104248046875">
        <ele>226.1999969482421875</ele>
        <time>2023-08-19T17:52:31.000Z</time>
        <extensions>
          <ns3:TrackPointExtension>
            <ns3:hr>157</ns3:hr>
            <ns3:cad>92</ns3:cad>
          </ns3:TrackPointExtension>
        </extensions>
      </trkpt>
      <trkpt lat="42.6155964843928813934326171875" lon="2.73207597434520721435546875">
        <ele>226</ele>
        <time>2023-08-19T17:52:32.000Z</time>
        <extensions>
          <ns3:TrackPointExtension>
            <ns3:hr>157</ns3:hr>
            <ns3:cad>91</ns3:cad>
          </ns3:TrackPointExtension>
        </extensions>
      </trkpt>
      <trkpt lat="42.61558718048036098480224609375" lon="2.732106149196624755859375">
        <ele>225.399993896484375</ele>
        <time>2023-08-19T17:52:33.000Z</time>
        <extensions>
          <ns3:TrackPointExtension>
            <ns3:hr>157</ns3:hr>
            <ns3:cad>92</ns3:cad>
          </ns3:TrackPointExtension>
        </extensions>
      </trkpt>
      <trkpt lat="42.61558366008102893829345703125" lon="2.7321361564099788665771484375">
        <ele>225.1999969482421875</ele>
        <time>2023-08-19T17:52:34.000Z</time>
        <extensions>
          <ns3:TrackPointExtension>
            <ns3:hr>157</ns3:hr>
            <ns3:cad>91</ns3:cad>
          </ns3:TrackPointExtension>
        </extensions>
      </trkpt>
      <trkpt lat="42.61557452380657196044921875" lon="2.7321680076420307159423828125">
        <ele>225</ele>
        <time>2023-08-19T17:52:35.000Z</time>
        <extensions>
          <ns3:TrackPointExtension>
            <ns3:hr>157</ns3:hr>
            <ns3:cad>89</ns3:cad>
          </ns3:TrackPointExtension>
        </extensions>
      </trkpt>
      <trkpt lat="42.61557125486433506011962890625" lon="2.732196338474750518798828125">
        <ele>224.399993896484375</ele>
        <time>2023-08-19T17:52:36.000Z</time>
        <extensions>
          <ns3:TrackPointExtension>
            <ns3:hr>157</ns3:hr>
            <ns3:cad>86</ns3:cad>
          </ns3:TrackPointExtension>
        </extensions>
      </trkpt>
      <trkpt lat="42.6155629567801952362060546875" lon="2.732227183878421783447265625">
        <ele>224.1999969482421875</ele>
        <time>2023-08-19T17:52:37.000Z</time>
        <extensions>
          <ns3:TrackPointExtension>
            <ns3:hr>157</ns3:hr>
            <ns3:cad>88</ns3:cad>
          </ns3:TrackPointExtension>
        </extensions>
      </trkpt>
      <trkpt lat="42.61555247940123081207275390625" lon="2.7322581969201564788818359375">
        <ele>224</ele>
        <time>2023-08-19T17:52:38.000Z</time>
        <extensions>
          <ns3:TrackPointExtension>
            <ns3:hr>157</ns3:hr>
            <ns3:cad>90</ns3:cad>
          </ns3:TrackPointExtension>
        </extensions>
      </trkpt>
      <trkpt lat="42.6155388168990612030029296875" lon="2.7322833426296710968017578125">
        <ele>223.600006103515625</ele>
        <time>2023-08-19T17:52:39.000Z</time>
        <extensions>
          <ns3:TrackPointExtension>
            <ns3:hr>157</ns3:hr>
            <ns3:cad>90</ns3:cad>
          </ns3:TrackPointExtension>
        </extensions>
      </trkpt>
      <trkpt lat="42.61552129872143268585205078125" lon="2.73230169899761676788330078125">
        <ele>223.1999969482421875</ele>
        <time>2023-08-19T17:52:40.000Z</time>
        <extensions>
          <ns3:TrackPointExtension>
            <ns3:hr>157</ns3:hr>
            <ns3:cad>90</ns3:cad>
          </ns3:TrackPointExtension>
        </extensions>
      </trkpt>
      <trkpt lat="42.6155012659728527069091796875" lon="2.73231603205204010009765625">
        <ele>223</ele>
        <time>2023-08-19T17:52:41.000Z</time>
        <extensions>
          <ns3:TrackPointExtension>
            <ns3:hr>157</ns3:hr>
            <ns3:cad>91</ns3:cad>
          </ns3:TrackPointExtension>
        </extensions>
      </trkpt>
      <trkpt lat="42.61547855101525783538818359375" lon="2.73233757354319095611572265625">
        <ele>222.600006103515625</ele>
        <time>2023-08-19T17:52:42.000Z</time>
        <extensions>
          <ns3:TrackPointExtension>
            <ns3:hr>157</ns3:hr>
            <ns3:cad>91</ns3:cad>
          </ns3:TrackPointExtension>
        </extensions>
      </trkpt>
      <trkpt lat="42.615455500781536102294921875" lon="2.73235986940562725067138671875">
        <ele>222.1999969482421875</ele>
        <time>2023-08-19T17:52:43.000Z</time>
        <extensions>
          <ns3:TrackPointExtension>
            <ns3:hr>157</ns3:hr>
            <ns3:cad>91</ns3:cad>
          </ns3:TrackPointExtension>
        </extensions>
      </trkpt>
      <trkpt lat="42.61543697677552700042724609375" lon="2.7323872782289981842041015625">
        <ele>221.8000030517578125</ele>
        <time>2023-08-19T17:52:44.000Z</time>
        <extensions>
          <ns3:TrackPointExtension>
            <ns3:hr>156</ns3:hr>
            <ns3:cad>90</ns3:cad>
          </ns3:TrackPointExtension>
        </extensions>
      </trkpt>
      <trkpt lat="42.6154154352843761444091796875" lon="2.73241929709911346435546875">
        <ele>221.399993896484375</ele>
        <time>2023-08-19T17:52:45.000Z</time>
        <extensions>
          <ns3:TrackPointExtension>
            <ns3:hr>156</ns3:hr>
            <ns3:cad>89</ns3:cad>
          </ns3:TrackPointExtension>
        </extensions>
      </trkpt>
      <trkpt lat="42.61539976112544536590576171875" lon="2.73245039395987987518310546875">
        <ele>221.1999969482421875</ele>
        <time>2023-08-19T17:52:46.000Z</time>
        <extensions>
          <ns3:TrackPointExtension>
            <ns3:hr>156</ns3:hr>
            <ns3:cad>88</ns3:cad>
          </ns3:TrackPointExtension>
        </extensions>
      </trkpt>
      <trkpt lat="42.61537872254848480224609375" lon="2.73249666206538677215576171875">
        <ele>221</ele>
        <time>2023-08-19T17:52:47.000Z</time>
        <extensions>
          <ns3:TrackPointExtension>
            <ns3:hr>156</ns3:hr>
            <ns3:cad>87</ns3:cad>
          </ns3:TrackPointExtension>
        </extensions>
      </trkpt>
      <trkpt lat="42.61536422185599803924560546875" lon="2.7325327880680561065673828125">
        <ele>221</ele>
        <time>2023-08-19T17:52:48.000Z</time>
        <extensions>
          <ns3:TrackPointExtension>
            <ns3:hr>156</ns3:hr>
            <ns3:cad>86</ns3:cad>
          </ns3:TrackPointExtension>
        </extensions>
      </trkpt>
      <trkpt lat="42.615344859659671783447265625" lon="2.73257553577423095703125">
        <ele>221</ele>
        <time>2023-08-19T17:52:49.000Z</time>
        <extensions>
          <ns3:TrackPointExtension>
            <ns3:hr>156</ns3:hr>
            <ns3:cad>86</ns3:cad>
          </ns3:TrackPointExtension>
        </extensions>
      </trkpt>
      <trkpt lat="42.61533471755683422088623046875" lon="2.73261048831045627593994140625">
        <ele>220.8000030517578125</ele>
        <time>2023-08-19T17:52:50.000Z</time>
        <extensions>
          <ns3:TrackPointExtension>
            <ns3:hr>155</ns3:hr>
            <ns3:cad>87</ns3:cad>
          </ns3:TrackPointExtension>
        </extensions>
      </trkpt>
      <trkpt lat="42.61533019132912158966064453125" lon="2.7326400764286518096923828125">
        <ele>220.8000030517578125</ele>
        <time>2023-08-19T17:52:51.000Z</time>
        <extensions>
          <ns3:TrackPointExtension>
            <ns3:hr>156</ns3:hr>
            <ns3:cad>87</ns3:cad>
          </ns3:TrackPointExtension>
        </extensions>
      </trkpt>
      <trkpt lat="42.615324072539806365966796875" lon="2.732675112783908843994140625">
        <ele>220.8000030517578125</ele>
        <time>2023-08-19T17:52:52.000Z</time>
        <extensions>
          <ns3:TrackPointExtension>
            <ns3:hr>156</ns3:hr>
            <ns3:cad>86</ns3:cad>
          </ns3:TrackPointExtension>
        </extensions>
      </trkpt>
      <trkpt lat="42.61531828902661800384521484375" lon="2.73270134814083576202392578125">
        <ele>221</ele>
        <time>2023-08-19T17:52:53.000Z</time>
        <extensions>
          <ns3:TrackPointExtension>
            <ns3:hr>156</ns3:hr>
            <ns3:cad>83</ns3:cad>
          </ns3:TrackPointExtension>
        </extensions>
      </trkpt>
      <trkpt lat="42.615311332046985626220703125" lon="2.73273319937288761138916015625">
        <ele>221</ele>
        <time>2023-08-19T17:52:54.000Z</time>
        <extensions>
          <ns3:TrackPointExtension>
            <ns3:hr>156</ns3:hr>
            <ns3:cad>82</ns3:cad>
          </ns3:TrackPointExtension>
        </extensions>
      </trkpt>
      <trkpt lat="42.61530504561960697174072265625" lon="2.7327601052820682525634765625">
        <ele>221</ele>
        <time>2023-08-19T17:52:55.000Z</time>
        <extensions>
          <ns3:TrackPointExtension>
            <ns3:hr>156</ns3:hr>
            <ns3:cad>83</ns3:cad>
          </ns3:TrackPointExtension>
        </extensions>
      </trkpt>
      <trkpt lat="42.61530001647770404815673828125" lon="2.73279019631445407867431640625">
        <ele>221.1999969482421875</ele>
        <time>2023-08-19T17:52:56.000Z</time>
        <extensions>
          <ns3:TrackPointExtension>
            <ns3:hr>156</ns3:hr>
            <ns3:cad>84</ns3:cad>
          </ns3:TrackPointExtension>
        </extensions>
      </trkpt>
      <trkpt lat="42.615287862718105316162109375" lon="2.7328231371939182281494140625">
        <ele>221.399993896484375</ele>
        <time>2023-08-19T17:52:57.000Z</time>
        <extensions>
          <ns3:TrackPointExtension>
            <ns3:hr>156</ns3:hr>
            <ns3:cad>84</ns3:cad>
          </ns3:TrackPointExtension>
        </extensions>
      </trkpt>
      <trkpt lat="42.61527721770107746124267578125" lon="2.732846774160861968994140625">
        <ele>221.600006103515625</ele>
        <time>2023-08-19T17:52:58.000Z</time>
        <extensions>
          <ns3:TrackPointExtension>
            <ns3:hr>156</ns3:hr>
            <ns3:cad>84</ns3:cad>
          </ns3:TrackPointExtension>
        </extensions>
      </trkpt>
      <trkpt lat="42.615263722836971282958984375" lon="2.732877619564533233642578125">
        <ele>221.600006103515625</ele>
        <time>2023-08-19T17:52:59.000Z</time>
        <extensions>
          <ns3:TrackPointExtension>
            <ns3:hr>156</ns3:hr>
            <ns3:cad>85</ns3:cad>
          </ns3:TrackPointExtension>
        </extensions>
      </trkpt>
      <trkpt lat="42.6152555085718631744384765625" lon="2.7329036034643650054931640625">
        <ele>221.600006103515625</ele>
        <time>2023-08-19T17:53:00.000Z</time>
        <extensions>
          <ns3:TrackPointExtension>
            <ns3:hr>156</ns3:hr>
            <ns3:cad>86</ns3:cad>
          </ns3:TrackPointExtension>
        </extensions>
      </trkpt>
      <trkpt lat="42.6152528263628482818603515625" lon="2.7329336106777191162109375">
        <ele>222</ele>
        <time>2023-08-19T17:53:01.000Z</time>
        <extensions>
          <ns3:TrackPointExtension>
            <ns3:hr>156</ns3:hr>
            <ns3:cad>86</ns3:cad>
          </ns3:TrackPointExtension>
        </extensions>
      </trkpt>
      <trkpt lat="42.6152546703815460205078125" lon="2.7329631149768829345703125">
        <ele>222</ele>
        <time>2023-08-19T17:53:02.000Z</time>
        <extensions>
          <ns3:TrackPointExtension>
            <ns3:hr>156</ns3:hr>
            <ns3:cad>85</ns3:cad>
          </ns3:TrackPointExtension>
        </extensions>
      </trkpt>
      <trkpt lat="42.6152675785124301910400390625" lon="2.73298398591578006744384765625">
        <ele>222.1999969482421875</ele>
        <time>2023-08-19T17:53:03.000Z</time>
        <extensions>
          <ns3:TrackPointExtension>
            <ns3:hr>157</ns3:hr>
            <ns3:cad>85</ns3:cad>
          </ns3:TrackPointExtension>
        </extensions>
      </trkpt>
      <trkpt lat="42.61528224684298038482666015625" lon="2.73301231674849987030029296875">
        <ele>222.399993896484375</ele>
        <time>2023-08-19T17:53:04.000Z</time>
        <extensions>
          <ns3:TrackPointExtension>
            <ns3:hr>157</ns3:hr>
            <ns3:cad>85</ns3:cad>
          </ns3:TrackPointExtension>
        </extensions>
      </trkpt>
      <trkpt lat="42.61529733426868915557861328125" lon="2.733029834926128387451171875">
        <ele>222.600006103515625</ele>
        <time>2023-08-19T17:53:05.000Z</time>
        <extensions>
          <ns3:TrackPointExtension>
            <ns3:hr>157</ns3:hr>
            <ns3:cad>86</ns3:cad>
          </ns3:TrackPointExtension>
        </extensions>
      </trkpt>
      <trkpt lat="42.6153131760656833648681640625" lon="2.73305472917854785919189453125">
        <ele>222.8000030517578125</ele>
        <time>2023-08-19T17:53:06.000Z</time>
        <extensions>
          <ns3:TrackPointExtension>
            <ns3:hr>157</ns3:hr>
            <ns3:cad>86</ns3:cad>
          </ns3:TrackPointExtension>
        </extensions>
      </trkpt>
      <trkpt lat="42.61532633565366268157958984375" lon="2.73307937197387218475341796875">
        <ele>223</ele>
        <time>2023-08-19T17:53:07.000Z</time>
        <extensions>
          <ns3:TrackPointExtension>
            <ns3:hr>158</ns3:hr>
            <ns3:cad>86</ns3:cad>
          </ns3:TrackPointExtension>
        </extensions>
      </trkpt>
      <trkpt lat="42.6153430156409740447998046875" lon="2.73310585878789424896240234375">
        <ele>223.1999969482421875</ele>
        <time>2023-08-19T17:53:08.000Z</time>
        <extensions>
          <ns3:TrackPointExtension>
            <ns3:hr>158</ns3:hr>
            <ns3:cad>85</ns3:cad>
          </ns3:TrackPointExtension>
        </extensions>
      </trkpt>
      <trkpt lat="42.61536103673279285430908203125" lon="2.7331362850964069366455078125">
        <ele>223.399993896484375</ele>
        <time>2023-08-19T17:53:09.000Z</time>
        <extensions>
          <ns3:TrackPointExtension>
            <ns3:hr>158</ns3:hr>
            <ns3:cad>85</ns3:cad>
          </ns3:TrackPointExtension>
        </extensions>
      </trkpt>
      <trkpt lat="42.61537863872945308685302734375" lon="2.733157910406589508056640625">
        <ele>223.399993896484375</ele>
        <time>2023-08-19T17:53:10.000Z</time>
        <extensions>
          <ns3:TrackPointExtension>
            <ns3:hr>159</ns3:hr>
            <ns3:cad>85</ns3:cad>
          </ns3:TrackPointExtension>
        </extensions>
      </trkpt>
      <trkpt lat="42.61539724655449390411376953125" lon="2.7331892587244510650634765625">
        <ele>223.600006103515625</ele>
        <time>2023-08-19T17:53:11.000Z</time>
        <extensions>
          <ns3:TrackPointExtension>
            <ns3:hr>158</ns3:hr>
            <ns3:cad>85</ns3:cad>
          </ns3:TrackPointExtension>
        </extensions>
      </trkpt>
      <trkpt lat="42.615416944026947021484375" lon="2.7332170866429805755615234375">
        <ele>223.8000030517578125</ele>
        <time>2023-08-19T17:53:12.000Z</time>
        <extensions>
          <ns3:TrackPointExtension>
            <ns3:hr>160</ns3:hr>
            <ns3:cad>85</ns3:cad>
          </ns3:TrackPointExtension>
        </extensions>
      </trkpt>
      <trkpt lat="42.6154318638145923614501953125" lon="2.73324281908571720123291015625">
        <ele>223.8000030517578125</ele>
        <time>2023-08-19T17:53:13.000Z</time>
        <extensions>
          <ns3:TrackPointExtension>
            <ns3:hr>160</ns3:hr>
            <ns3:cad>85</ns3:cad>
          </ns3:TrackPointExtension>
        </extensions>
      </trkpt>
      <trkpt lat="42.615448124706745147705078125" lon="2.73327131755650043487548828125">
        <ele>223.8000030517578125</ele>
        <time>2023-08-19T17:53:14.000Z</time>
        <extensions>
          <ns3:TrackPointExtension>
            <ns3:hr>160</ns3:hr>
            <ns3:cad>85</ns3:cad>
          </ns3:TrackPointExtension>
        </extensions>
      </trkpt>
      <trkpt lat="42.61546681635081768035888671875" lon="2.73329503834247589111328125">
        <ele>223.8000030517578125</ele>
        <time>2023-08-19T17:53:15.000Z</time>
        <extensions>
          <ns3:TrackPointExtension>
            <ns3:hr>160</ns3:hr>
            <ns3:cad>85</ns3:cad>
          </ns3:TrackPointExtension>
        </extensions>
      </trkpt>
      <trkpt lat="42.615485675632953643798828125" lon="2.73333099670708179473876953125">
        <ele>223.600006103515625</ele>
        <time>2023-08-19T17:53:16.000Z</time>
        <extensions>
          <ns3:TrackPointExtension>
            <ns3:hr>160</ns3:hr>
            <ns3:cad>84</ns3:cad>
          </ns3:TrackPointExtension>
        </extensions>
      </trkpt>
      <trkpt lat="42.615497075021266937255859375" lon="2.7333595789968967437744140625">
        <ele>223.600006103515625</ele>
        <time>2023-08-19T17:53:17.000Z</time>
        <extensions>
          <ns3:TrackPointExtension>
            <ns3:hr>160</ns3:hr>
            <ns3:cad>84</ns3:cad>
          </ns3:TrackPointExtension>
        </extensions>
      </trkpt>
      <trkpt lat="42.6155126653611660003662109375" lon="2.7333904244005680084228515625">
        <ele>223.600006103515625</ele>
        <time>2023-08-19T17:53:18.000Z</time>
        <extensions>
          <ns3:TrackPointExtension>
            <ns3:hr>161</ns3:hr>
            <ns3:cad>84</ns3:cad>
          </ns3:TrackPointExtension>
        </extensions>
      </trkpt>
      <trkpt lat="42.615525908768177032470703125" lon="2.7334205992519855499267578125">
        <ele>223.600006103515625</ele>
        <time>2023-08-19T17:53:19.000Z</time>
        <extensions>
          <ns3:TrackPointExtension>
            <ns3:hr>161</ns3:hr>
            <ns3:cad>84</ns3:cad>
          </ns3:TrackPointExtension>
        </extensions>
      </trkpt>
      <trkpt lat="42.61554376222193241119384765625" lon="2.73344666697084903717041015625">
        <ele>223.600006103515625</ele>
        <time>2023-08-19T17:53:20.000Z</time>
        <extensions>
          <ns3:TrackPointExtension>
            <ns3:hr>161</ns3:hr>
            <ns3:cad>84</ns3:cad>
          </ns3:TrackPointExtension>
        </extensions>
      </trkpt>
      <trkpt lat="42.615566141903400421142578125" lon="2.73348120041191577911376953125">
        <ele>223.600006103515625</ele>
        <time>2023-08-19T17:53:21.000Z</time>
        <extensions>
          <ns3:TrackPointExtension>
            <ns3:hr>161</ns3:hr>
            <ns3:cad>84</ns3:cad>
          </ns3:TrackPointExtension>
        </extensions>
      </trkpt>
      <trkpt lat="42.61558265425264835357666015625" lon="2.73350718431174755096435546875">
        <ele>223.600006103515625</ele>
        <time>2023-08-19T17:53:22.000Z</time>
        <extensions>
          <ns3:TrackPointExtension>
            <ns3:hr>161</ns3:hr>
            <ns3:cad>84</ns3:cad>
          </ns3:TrackPointExtension>
        </extensions>
      </trkpt>
      <trkpt lat="42.615602016448974609375" lon="2.73354255594313144683837890625">
        <ele>223.600006103515625</ele>
        <time>2023-08-19T17:53:23.000Z</time>
        <extensions>
          <ns3:TrackPointExtension>
            <ns3:hr>161</ns3:hr>
            <ns3:cad>84</ns3:cad>
          </ns3:TrackPointExtension>
        </extensions>
      </trkpt>
      <trkpt lat="42.6156162656843662261962890625" lon="2.73357591591775417327880859375">
        <ele>223.600006103515625</ele>
        <time>2023-08-19T17:53:24.000Z</time>
        <extensions>
          <ns3:TrackPointExtension>
            <ns3:hr>161</ns3:hr>
            <ns3:cad>84</ns3:cad>
          </ns3:TrackPointExtension>
        </extensions>
      </trkpt>
      <trkpt lat="42.61563328094780445098876953125" lon="2.73360525257885456085205078125">
        <ele>223.399993896484375</ele>
        <time>2023-08-19T17:53:25.000Z</time>
        <extensions>
          <ns3:TrackPointExtension>
            <ns3:hr>161</ns3:hr>
            <ns3:cad>85</ns3:cad>
          </ns3:TrackPointExtension>
        </extensions>
      </trkpt>
      <trkpt lat="42.6156497932970523834228515625" lon="2.7336402051150798797607421875">
        <ele>223.1999969482421875</ele>
        <time>2023-08-19T17:53:26.000Z</time>
        <extensions>
          <ns3:TrackPointExtension>
            <ns3:hr>161</ns3:hr>
            <ns3:cad>85</ns3:cad>
          </ns3:TrackPointExtension>
        </extensions>
      </trkpt>
      <trkpt lat="42.615666054189205169677734375" lon="2.7336697094142436981201171875">
        <ele>223</ele>
        <time>2023-08-19T17:53:27.000Z</time>
        <extensions>
          <ns3:TrackPointExtension>
            <ns3:hr>161</ns3:hr>
            <ns3:cad>84</ns3:cad>
          </ns3:TrackPointExtension>
        </extensions>
      </trkpt>
      <trkpt lat="42.61568658985197544097900390625" lon="2.73370767943561077117919921875">
        <ele>223</ele>
        <time>2023-08-19T17:53:28.000Z</time>
        <extensions>
          <ns3:TrackPointExtension>
            <ns3:hr>161</ns3:hr>
            <ns3:cad>85</ns3:cad>
          </ns3:TrackPointExtension>
        </extensions>
      </trkpt>
      <trkpt lat="42.61570461094379425048828125" lon="2.73373668082058429718017578125">
        <ele>222.8000030517578125</ele>
        <time>2023-08-19T17:53:29.000Z</time>
        <extensions>
          <ns3:TrackPointExtension>
            <ns3:hr>161</ns3:hr>
            <ns3:cad>85</ns3:cad>
          </ns3:TrackPointExtension>
        </extensions>
      </trkpt>
      <trkpt lat="42.615723721683025360107421875" lon="2.73377188481390476226806640625">
        <ele>222.600006103515625</ele>
        <time>2023-08-19T17:53:30.000Z</time>
        <extensions>
          <ns3:TrackPointExtension>
            <ns3:hr>161</ns3:hr>
            <ns3:cad>85</ns3:cad>
          </ns3:TrackPointExtension>
        </extensions>
      </trkpt>
      <trkpt lat="42.6157393120229244232177734375" lon="2.7338058315217494964599609375">
        <ele>222.600006103515625</ele>
        <time>2023-08-19T17:53:31.000Z</time>
        <extensions>
          <ns3:TrackPointExtension>
            <ns3:hr>161</ns3:hr>
            <ns3:cad>85</ns3:cad>
          </ns3:TrackPointExtension>
        </extensions>
      </trkpt>
      <trkpt lat="42.61575582437217235565185546875" lon="2.73383357562124729156494140625">
        <ele>222.8000030517578125</ele>
        <time>2023-08-19T17:53:32.000Z</time>
        <extensions>
          <ns3:TrackPointExtension>
            <ns3:hr>161</ns3:hr>
            <ns3:cad>85</ns3:cad>
          </ns3:TrackPointExtension>
        </extensions>
      </trkpt>
      <trkpt lat="42.61577359400689601898193359375" lon="2.73387179709970951080322265625">
        <ele>222.8000030517578125</ele>
        <time>2023-08-19T17:53:33.000Z</time>
        <extensions>
          <ns3:TrackPointExtension>
            <ns3:hr>161</ns3:hr>
            <ns3:cad>85</ns3:cad>
          </ns3:TrackPointExtension>
        </extensions>
      </trkpt>
      <trkpt lat="42.61578683741390705108642578125" lon="2.733896858990192413330078125">
        <ele>222.8000030517578125</ele>
        <time>2023-08-19T17:53:34.000Z</time>
        <extensions>
          <ns3:TrackPointExtension>
            <ns3:hr>161</ns3:hr>
            <ns3:cad>85</ns3:cad>
          </ns3:TrackPointExtension>
        </extensions>
      </trkpt>
      <trkpt lat="42.6158006675541400909423828125" lon="2.73393030278384685516357421875">
        <ele>222.8000030517578125</ele>
        <time>2023-08-19T17:53:35.000Z</time>
        <extensions>
          <ns3:TrackPointExtension>
            <ns3:hr>161</ns3:hr>
            <ns3:cad>85</ns3:cad>
          </ns3:TrackPointExtension>
        </extensions>
      </trkpt>
      <trkpt lat="42.61581416241824626922607421875" lon="2.7339607290923595428466796875">
        <ele>223</ele>
        <time>2023-08-19T17:53:36.000Z</time>
        <extensions>
          <ns3:TrackPointExtension>
            <ns3:hr>161</ns3:hr>
            <ns3:cad>85</ns3:cad>
          </ns3:TrackPointExtension>
        </extensions>
      </trkpt>
      <trkpt lat="42.61583335697650909423828125" lon="2.7339878864586353302001953125">
        <ele>223</ele>
        <time>2023-08-19T17:53:37.000Z</time>
        <extensions>
          <ns3:TrackPointExtension>
            <ns3:hr>161</ns3:hr>
            <ns3:cad>85</ns3:cad>
          </ns3:TrackPointExtension>
        </extensions>
      </trkpt>
      <trkpt lat="42.61585053987801074981689453125" lon="2.73401923477649688720703125">
        <ele>223</ele>
        <time>2023-08-19T17:53:38.000Z</time>
        <extensions>
          <ns3:TrackPointExtension>
            <ns3:hr>162</ns3:hr>
            <ns3:cad>86</ns3:cad>
          </ns3:TrackPointExtension>
        </extensions>
      </trkpt>
      <trkpt lat="42.61586554348468780517578125" lon="2.734047062695026397705078125">
        <ele>223</ele>
        <time>2023-08-19T17:53:39.000Z</time>
        <extensions>
          <ns3:TrackPointExtension>
            <ns3:hr>162</ns3:hr>
            <ns3:cad>85</ns3:cad>
          </ns3:TrackPointExtension>
        </extensions>
      </trkpt>
      <trkpt lat="42.61588356457650661468505859375" lon="2.73408385924994945526123046875">
        <ele>223</ele>
        <time>2023-08-19T17:53:40.000Z</time>
        <extensions>
          <ns3:TrackPointExtension>
            <ns3:hr>162</ns3:hr>
            <ns3:cad>85</ns3:cad>
          </ns3:TrackPointExtension>
        </extensions>
      </trkpt>
      <trkpt lat="42.6158948801457881927490234375" lon="2.7341105975210666656494140625">
        <ele>223</ele>
        <time>2023-08-19T17:53:41.000Z</time>
        <extensions>
          <ns3:TrackPointExtension>
            <ns3:hr>162</ns3:hr>
            <ns3:cad>85</ns3:cad>
          </ns3:TrackPointExtension>
        </extensions>
      </trkpt>
      <trkpt lat="42.61590577661991119384765625" lon="2.734142951667308807373046875">
        <ele>223</ele>
        <time>2023-08-19T17:53:42.000Z</time>
        <extensions>
          <ns3:TrackPointExtension>
            <ns3:hr>162</ns3:hr>
            <ns3:cad>84</ns3:cad>
          </ns3:TrackPointExtension>
        </extensions>
      </trkpt>
      <trkpt lat="42.61590988375246524810791015625" lon="2.7341789938509464263916015625">
        <ele>223</ele>
        <time>2023-08-19T17:53:43.000Z</time>
        <extensions>
          <ns3:TrackPointExtension>
            <ns3:hr>162</ns3:hr>
            <ns3:cad>84</ns3:cad>
          </ns3:TrackPointExtension>
        </extensions>
      </trkpt>
      <trkpt lat="42.6159136556088924407958984375" lon="2.7342116832733154296875">
        <ele>223</ele>
        <time>2023-08-19T17:53:44.000Z</time>
        <extensions>
          <ns3:TrackPointExtension>
            <ns3:hr>162</ns3:hr>
            <ns3:cad>84</ns3:cad>
          </ns3:TrackPointExtension>
        </extensions>
      </trkpt>
      <trkpt lat="42.6159217022359371185302734375" lon="2.7342463843524456024169921875">
        <ele>223</ele>
        <time>2023-08-19T17:53:45.000Z</time>
        <extensions>
          <ns3:TrackPointExtension>
            <ns3:hr>162</ns3:hr>
            <ns3:cad>85</ns3:cad>
          </ns3:TrackPointExtension>
        </extensions>
      </trkpt>
      <trkpt lat="42.615932263433933258056640625" lon="2.7342747151851654052734375">
        <ele>222.8000030517578125</ele>
        <time>2023-08-19T17:53:46.000Z</time>
        <extensions>
          <ns3:TrackPointExtension>
            <ns3:hr>162</ns3:hr>
            <ns3:cad>86</ns3:cad>
          </ns3:TrackPointExtension>
        </extensions>
      </trkpt>
      <trkpt lat="42.61594844050705432891845703125" lon="2.7343069016933441162109375">
        <ele>222.8000030517578125</ele>
        <time>2023-08-19T17:53:47.000Z</time>
        <extensions>
          <ns3:TrackPointExtension>
            <ns3:hr>162</ns3:hr>
            <ns3:cad>86</ns3:cad>
          </ns3:TrackPointExtension>
        </extensions>
      </trkpt>
      <trkpt lat="42.6159632764756679534912109375" lon="2.7343379147350788116455078125">
        <ele>222.600006103515625</ele>
        <time>2023-08-19T17:53:48.000Z</time>
        <extensions>
          <ns3:TrackPointExtension>
            <ns3:hr>162</ns3:hr>
            <ns3:cad>85</ns3:cad>
          </ns3:TrackPointExtension>
        </extensions>
      </trkpt>
      <trkpt lat="42.6159813813865184783935546875" lon="2.73436465300619602203369140625">
        <ele>222.600006103515625</ele>
        <time>2023-08-19T17:53:49.000Z</time>
        <extensions>
          <ns3:TrackPointExtension>
            <ns3:hr>162</ns3:hr>
            <ns3:cad>84</ns3:cad>
          </ns3:TrackPointExtension>
        </extensions>
      </trkpt>
      <trkpt lat="42.61600292287766933441162109375" lon="2.734395079314708709716796875">
        <ele>222.600006103515625</ele>
        <time>2023-08-19T17:53:50.000Z</time>
        <extensions>
          <ns3:TrackPointExtension>
            <ns3:hr>162</ns3:hr>
            <ns3:cad>84</ns3:cad>
          </ns3:TrackPointExtension>
        </extensions>
      </trkpt>
      <trkpt lat="42.6160232909023761749267578125" lon="2.73441846482455730438232421875">
        <ele>222.399993896484375</ele>
        <time>2023-08-19T17:53:51.000Z</time>
        <extensions>
          <ns3:TrackPointExtension>
            <ns3:hr>161</ns3:hr>
            <ns3:cad>84</ns3:cad>
          </ns3:TrackPointExtension>
        </extensions>
      </trkpt>
      <trkpt lat="42.61604650877416133880615234375" lon="2.7344452030956745147705078125">
        <ele>222</ele>
        <time>2023-08-19T17:53:52.000Z</time>
        <extensions>
          <ns3:TrackPointExtension>
            <ns3:hr>161</ns3:hr>
            <ns3:cad>84</ns3:cad>
          </ns3:TrackPointExtension>
        </extensions>
      </trkpt>
      <trkpt lat="42.61606813408434391021728515625" lon="2.73447764106094837188720703125">
        <ele>221.8000030517578125</ele>
        <time>2023-08-19T17:53:53.000Z</time>
        <extensions>
          <ns3:TrackPointExtension>
            <ns3:hr>161</ns3:hr>
            <ns3:cad>84</ns3:cad>
          </ns3:TrackPointExtension>
        </extensions>
      </trkpt>
      <trkpt lat="42.616088502109050750732421875" lon="2.7345052175223827362060546875">
        <ele>221.8000030517578125</ele>
        <time>2023-08-19T17:53:54.000Z</time>
        <extensions>
          <ns3:TrackPointExtension>
            <ns3:hr>161</ns3:hr>
            <ns3:cad>83</ns3:cad>
          </ns3:TrackPointExtension>
        </extensions>
      </trkpt>
      <trkpt lat="42.61611121706664562225341796875" lon="2.734539248049259185791015625">
        <ele>221.600006103515625</ele>
        <time>2023-08-19T17:53:55.000Z</time>
        <extensions>
          <ns3:TrackPointExtension>
            <ns3:hr>161</ns3:hr>
            <ns3:cad>83</ns3:cad>
          </ns3:TrackPointExtension>
        </extensions>
      </trkpt>
      <trkpt lat="42.6161290705204010009765625" lon="2.7345705963671207427978515625">
        <ele>221.399993896484375</ele>
        <time>2023-08-19T17:53:56.000Z</time>
        <extensions>
          <ns3:TrackPointExtension>
            <ns3:hr>161</ns3:hr>
            <ns3:cad>83</ns3:cad>
          </ns3:TrackPointExtension>
        </extensions>
      </trkpt>
      <trkpt lat="42.6161496900022029876708984375" lon="2.7346004359424114227294921875">
        <ele>221.1999969482421875</ele>
        <time>2023-08-19T17:53:57.000Z</time>
        <extensions>
          <ns3:TrackPointExtension>
            <ns3:hr>160</ns3:hr>
            <ns3:cad>83</ns3:cad>
          </ns3:TrackPointExtension>
        </extensions>
      </trkpt>
      <trkpt lat="42.61616821400821208953857421875" lon="2.7346287667751312255859375">
        <ele>220.600006103515625</ele>
        <time>2023-08-19T17:53:58.000Z</time>
        <extensions>
          <ns3:TrackPointExtension>
            <ns3:hr>160</ns3:hr>
            <ns3:cad>83</ns3:cad>
          </ns3:TrackPointExtension>
        </extensions>
      </trkpt>
      <trkpt lat="42.616185732185840606689453125" lon="2.7346520684659481048583984375">
        <ele>220.600006103515625</ele>
        <time>2023-08-19T17:53:59.000Z</time>
        <extensions>
          <ns3:TrackPointExtension>
            <ns3:hr>160</ns3:hr>
            <ns3:cad>84</ns3:cad>
          </ns3:TrackPointExtension>
        </extensions>
      </trkpt>
      <trkpt lat="42.616205513477325439453125" lon="2.73468199186027050018310546875">
        <ele>220.600006103515625</ele>
        <time>2023-08-19T17:54:00.000Z</time>
        <extensions>
          <ns3:TrackPointExtension>
            <ns3:hr>160</ns3:hr>
            <ns3:cad>84</ns3:cad>
          </ns3:TrackPointExtension>
        </extensions>
      </trkpt>
      <trkpt lat="42.616222612559795379638671875" lon="2.7347052097320556640625">
        <ele>220.399993896484375</ele>
        <time>2023-08-19T17:54:01.000Z</time>
        <extensions>
          <ns3:TrackPointExtension>
            <ns3:hr>159</ns3:hr>
            <ns3:cad>83</ns3:cad>
          </ns3:TrackPointExtension>
        </extensions>
      </trkpt>
      <trkpt lat="42.6162388734519481658935546875" lon="2.7347281761467456817626953125">
        <ele>220.399993896484375</ele>
        <time>2023-08-19T17:54:02.000Z</time>
        <extensions>
          <ns3:TrackPointExtension>
            <ns3:hr>159</ns3:hr>
            <ns3:cad>83</ns3:cad>
          </ns3:TrackPointExtension>
        </extensions>
      </trkpt>
      <trkpt lat="42.6162589900195598602294921875" lon="2.73475692607462406158447265625">
        <ele>220.399993896484375</ele>
        <time>2023-08-19T17:54:03.000Z</time>
        <extensions>
          <ns3:TrackPointExtension>
            <ns3:hr>159</ns3:hr>
            <ns3:cad>83</ns3:cad>
          </ns3:TrackPointExtension>
        </extensions>
      </trkpt>
      <trkpt lat="42.61627650819718837738037109375" lon="2.73478156886994838714599609375">
        <ele>220.399993896484375</ele>
        <time>2023-08-19T17:54:04.000Z</time>
        <extensions>
          <ns3:TrackPointExtension>
            <ns3:hr>159</ns3:hr>
            <ns3:cad>83</ns3:cad>
          </ns3:TrackPointExtension>
        </extensions>
      </trkpt>
      <trkpt lat="42.6162988878786563873291015625" lon="2.73480989970266819000244140625">
        <ele>220.399993896484375</ele>
        <time>2023-08-19T17:54:05.000Z</time>
        <extensions>
          <ns3:TrackPointExtension>
            <ns3:hr>159</ns3:hr>
            <ns3:cad>83</ns3:cad>
          </ns3:TrackPointExtension>
        </extensions>
      </trkpt>
      <trkpt lat="42.61631640605628490447998046875" lon="2.73483873344957828521728515625">
        <ele>220.399993896484375</ele>
        <time>2023-08-19T17:54:06.000Z</time>
        <extensions>
          <ns3:TrackPointExtension>
            <ns3:hr>159</ns3:hr>
            <ns3:cad>83</ns3:cad>
          </ns3:TrackPointExtension>
        </extensions>
      </trkpt>
      <trkpt lat="42.61633518151938915252685546875" lon="2.734865806996822357177734375">
        <ele>220.8000030517578125</ele>
        <time>2023-08-19T17:54:07.000Z</time>
        <extensions>
          <ns3:TrackPointExtension>
            <ns3:hr>159</ns3:hr>
            <ns3:cad>83</ns3:cad>
          </ns3:TrackPointExtension>
        </extensions>
      </trkpt>
      <trkpt lat="42.61635303497314453125" lon="2.73489824496209621429443359375">
        <ele>220.8000030517578125</ele>
        <time>2023-08-19T17:54:08.000Z</time>
        <extensions>
          <ns3:TrackPointExtension>
            <ns3:hr>159</ns3:hr>
            <ns3:cad>83</ns3:cad>
          </ns3:TrackPointExtension>
        </extensions>
      </trkpt>
      <trkpt lat="42.616366110742092132568359375" lon="2.73492313921451568603515625">
        <ele>220.8000030517578125</ele>
        <time>2023-08-19T17:54:09.000Z</time>
        <extensions>
          <ns3:TrackPointExtension>
            <ns3:hr>158</ns3:hr>
            <ns3:cad>84</ns3:cad>
          </ns3:TrackPointExtension>
        </extensions>
      </trkpt>
      <trkpt lat="42.61638027615845203399658203125" lon="2.73495306260883808135986328125">
        <ele>221</ele>
        <time>2023-08-19T17:54:10.000Z</time>
        <extensions>
          <ns3:TrackPointExtension>
            <ns3:hr>158</ns3:hr>
            <ns3:cad>84</ns3:cad>
          </ns3:TrackPointExtension>
        </extensions>
      </trkpt>
      <trkpt lat="42.61639536358416080474853515625" lon="2.734981141984462738037109375">
        <ele>221</ele>
        <time>2023-08-19T17:54:11.000Z</time>
        <extensions>
          <ns3:TrackPointExtension>
            <ns3:hr>158</ns3:hr>
            <ns3:cad>84</ns3:cad>
          </ns3:TrackPointExtension>
        </extensions>
      </trkpt>
      <trkpt lat="42.61641212739050388336181640625" lon="2.73500519804656505584716796875">
        <ele>221.1999969482421875</ele>
        <time>2023-08-19T17:54:12.000Z</time>
        <extensions>
          <ns3:TrackPointExtension>
            <ns3:hr>158</ns3:hr>
            <ns3:cad>84</ns3:cad>
          </ns3:TrackPointExtension>
        </extensions>
      </trkpt>
      <trkpt lat="42.61643140576779842376708984375" lon="2.73503051139414310455322265625">
        <ele>221.399993896484375</ele>
        <time>2023-08-19T17:54:13.000Z</time>
        <extensions>
          <ns3:TrackPointExtension>
            <ns3:hr>158</ns3:hr>
            <ns3:cad>83</ns3:cad>
          </ns3:TrackPointExtension>
        </extensions>
      </trkpt>
      <trkpt lat="42.61644816957414150238037109375" lon="2.73504828102886676788330078125">
        <ele>221.399993896484375</ele>
        <time>2023-08-19T17:54:14.000Z</time>
        <extensions>
          <ns3:TrackPointExtension>
            <ns3:hr>159</ns3:hr>
            <ns3:cad>83</ns3:cad>
          </ns3:TrackPointExtension>
        </extensions>
      </trkpt>
      <trkpt lat="42.6164698787033557891845703125" lon="2.73506839759647846221923828125">
        <ele>221.600006103515625</ele>
        <time>2023-08-19T17:54:15.000Z</time>
        <extensions>
          <ns3:TrackPointExtension>
            <ns3:hr>159</ns3:hr>
            <ns3:cad>84</ns3:cad>
          </ns3:TrackPointExtension>
        </extensions>
      </trkpt>
      <trkpt lat="42.616490162909030914306640625" lon="2.7350852452218532562255859375">
        <ele>221.600006103515625</ele>
        <time>2023-08-19T17:54:16.000Z</time>
        <extensions>
          <ns3:TrackPointExtension>
            <ns3:hr>159</ns3:hr>
            <ns3:cad>84</ns3:cad>
          </ns3:TrackPointExtension>
        </extensions>
      </trkpt>
      <trkpt lat="42.61651203967630863189697265625" lon="2.73509874008595943450927734375">
        <ele>221.8000030517578125</ele>
        <time>2023-08-19T17:54:17.000Z</time>
        <extensions>
          <ns3:TrackPointExtension>
            <ns3:hr>159</ns3:hr>
            <ns3:cad>84</ns3:cad>
          </ns3:TrackPointExtension>
        </extensions>
      </trkpt>
      <trkpt lat="42.61654120869934558868408203125" lon="2.73510552942752838134765625">
        <ele>222.1999969482421875</ele>
        <time>2023-08-19T17:54:18.000Z</time>
        <extensions>
          <ns3:TrackPointExtension>
            <ns3:hr>159</ns3:hr>
            <ns3:cad>84</ns3:cad>
          </ns3:TrackPointExtension>
        </extensions>
      </trkpt>
      <trkpt lat="42.6165620796382427215576171875" lon="2.73509723134338855743408203125">
        <ele>222.399993896484375</ele>
        <time>2023-08-19T17:54:19.000Z</time>
        <extensions>
          <ns3:TrackPointExtension>
            <ns3:hr>159</ns3:hr>
            <ns3:cad>84</ns3:cad>
          </ns3:TrackPointExtension>
        </extensions>
      </trkpt>
      <trkpt lat="42.6165875606238842010498046875" lon="2.73507309146225452423095703125">
        <ele>222.600006103515625</ele>
        <time>2023-08-19T17:54:20.000Z</time>
        <extensions>
          <ns3:TrackPointExtension>
            <ns3:hr>160</ns3:hr>
            <ns3:cad>84</ns3:cad>
          </ns3:TrackPointExtension>
        </extensions>
      </trkpt>
      <trkpt lat="42.61660977266728878021240234375" lon="2.73505180142819881439208984375">
        <ele>222.600006103515625</ele>
        <time>2023-08-19T17:54:21.000Z</time>
        <extensions>
          <ns3:TrackPointExtension>
            <ns3:hr>160</ns3:hr>
            <ns3:cad>84</ns3:cad>
          </ns3:TrackPointExtension>
        </extensions>
      </trkpt>
      <trkpt lat="42.61662804521620273590087890625" lon="2.7350279130041599273681640625">
        <ele>222.8000030517578125</ele>
        <time>2023-08-19T17:54:22.000Z</time>
        <extensions>
          <ns3:TrackPointExtension>
            <ns3:hr>160</ns3:hr>
            <ns3:cad>84</ns3:cad>
          </ns3:TrackPointExtension>
        </extensions>
      </trkpt>
      <trkpt lat="42.61664682067930698394775390625" lon="2.73500067181885242462158203125">
        <ele>223.1999969482421875</ele>
        <time>2023-08-19T17:54:23.000Z</time>
        <extensions>
          <ns3:TrackPointExtension>
            <ns3:hr>160</ns3:hr>
            <ns3:cad>84</ns3:cad>
          </ns3:TrackPointExtension>
        </extensions>
      </trkpt>
      <trkpt lat="42.6166609860956668853759765625" lon="2.73497334681451320648193359375">
        <ele>223.1999969482421875</ele>
        <time>2023-08-19T17:54:24.000Z</time>
        <extensions>
          <ns3:TrackPointExtension>
            <ns3:hr>160</ns3:hr>
            <ns3:cad>84</ns3:cad>
          </ns3:TrackPointExtension>
        </extensions>
      </trkpt>
      <trkpt lat="42.61667565442621707916259765625" lon="2.7349404059350490570068359375">
        <ele>223.399993896484375</ele>
        <time>2023-08-19T17:54:25.000Z</time>
        <extensions>
          <ns3:TrackPointExtension>
            <ns3:hr>160</ns3:hr>
            <ns3:cad>84</ns3:cad>
          </ns3:TrackPointExtension>
        </extensions>
      </trkpt>
      <trkpt lat="42.61668906547129154205322265625" lon="2.73491232655942440032958984375">
        <ele>223.600006103515625</ele>
        <time>2023-08-19T17:54:26.000Z</time>
        <extensions>
          <ns3:TrackPointExtension>
            <ns3:hr>161</ns3:hr>
            <ns3:cad>84</ns3:cad>
          </ns3:TrackPointExtension>
        </extensions>
      </trkpt>
      <trkpt lat="42.6167005486786365509033203125" lon="2.73488667793571949005126953125">
        <ele>224</ele>
        <time>2023-08-19T17:54:27.000Z</time>
        <extensions>
          <ns3:TrackPointExtension>
            <ns3:hr>160</ns3:hr>
            <ns3:cad>84</ns3:cad>
          </ns3:TrackPointExtension>
        </extensions>
      </trkpt>
      <trkpt lat="42.61671580374240875244140625" lon="2.7348569221794605255126953125">
        <ele>224.1999969482421875</ele>
        <time>2023-08-19T17:54:28.000Z</time>
        <extensions>
          <ns3:TrackPointExtension>
            <ns3:hr>161</ns3:hr>
            <ns3:cad>83</ns3:cad>
          </ns3:TrackPointExtension>
        </extensions>
      </trkpt>
      <trkpt lat="42.616728879511356353759765625" lon="2.7348270826041698455810546875">
        <ele>224.399993896484375</ele>
        <time>2023-08-19T17:54:29.000Z</time>
        <extensions>
          <ns3:TrackPointExtension>
            <ns3:hr>161</ns3:hr>
            <ns3:cad>83</ns3:cad>
          </ns3:TrackPointExtension>
        </extensions>
      </trkpt>
      <trkpt lat="42.6167397759854793548583984375" lon="2.7348026074469089508056640625">
        <ele>224.600006103515625</ele>
        <time>2023-08-19T17:54:30.000Z</time>
        <extensions>
          <ns3:TrackPointExtension>
            <ns3:hr>162</ns3:hr>
            <ns3:cad>83</ns3:cad>
          </ns3:TrackPointExtension>
        </extensions>
      </trkpt>
      <trkpt lat="42.61675394140183925628662109375" lon="2.73478056304156780242919921875">
        <ele>224.8000030517578125</ele>
        <time>2023-08-19T17:54:31.000Z</time>
        <extensions>
          <ns3:TrackPointExtension>
            <ns3:hr>162</ns3:hr>
            <ns3:cad>83</ns3:cad>
          </ns3:TrackPointExtension>
        </extensions>
      </trkpt>
      <trkpt lat="42.6167639158666133880615234375" lon="2.73476086556911468505859375">
        <ele>225</ele>
        <time>2023-08-19T17:54:32.000Z</time>
        <extensions>
          <ns3:TrackPointExtension>
            <ns3:hr>162</ns3:hr>
            <ns3:cad>84</ns3:cad>
          </ns3:TrackPointExtension>
        </extensions>
      </trkpt>
      <trkpt lat="42.61677682399749755859375" lon="2.7347375638782978057861328125">
        <ele>225.1999969482421875</ele>
        <time>2023-08-19T17:54:33.000Z</time>
        <extensions>
          <ns3:TrackPointExtension>
            <ns3:hr>162</ns3:hr>
            <ns3:cad>84</ns3:cad>
          </ns3:TrackPointExtension>
        </extensions>
      </trkpt>
      <trkpt lat="42.61678897775709629058837890625" lon="2.7347167767584323883056640625">
        <ele>225.600006103515625</ele>
        <time>2023-08-19T17:54:34.000Z</time>
        <extensions>
          <ns3:TrackPointExtension>
            <ns3:hr>162</ns3:hr>
            <ns3:cad>84</ns3:cad>
          </ns3:TrackPointExtension>
        </extensions>
      </trkpt>
      <trkpt lat="42.61680473573505878448486328125" lon="2.73468920029699802398681640625">
        <ele>226</ele>
        <time>2023-08-19T17:54:35.000Z</time>
        <extensions>
          <ns3:TrackPointExtension>
            <ns3:hr>162</ns3:hr>
            <ns3:cad>83</ns3:cad>
          </ns3:TrackPointExtension>
        </extensions>
      </trkpt>
      <trkpt lat="42.616819404065608978271484375" lon="2.7346689999103546142578125">
        <ele>226.1999969482421875</ele>
        <time>2023-08-19T17:54:36.000Z</time>
        <extensions>
          <ns3:TrackPointExtension>
            <ns3:hr>162</ns3:hr>
            <ns3:cad>83</ns3:cad>
          </ns3:TrackPointExtension>
        </extensions>
      </trkpt>
      <trkpt lat="42.6168344914913177490234375" lon="2.73465315811336040496826171875">
        <ele>226.399993896484375</ele>
        <time>2023-08-19T17:54:37.000Z</time>
        <extensions>
          <ns3:TrackPointExtension>
            <ns3:hr>162</ns3:hr>
            <ns3:cad>83</ns3:cad>
          </ns3:TrackPointExtension>
        </extensions>
      </trkpt>
      <trkpt lat="42.61684949509799480438232421875" lon="2.734632790088653564453125">
        <ele>226.399993896484375</ele>
        <time>2023-08-19T17:54:38.000Z</time>
        <extensions>
          <ns3:TrackPointExtension>
            <ns3:hr>162</ns3:hr>
            <ns3:cad>83</ns3:cad>
          </ns3:TrackPointExtension>
        </extensions>
      </trkpt>
      <trkpt lat="42.61686558835208415985107421875" lon="2.73461736738681793212890625">
        <ele>226.8000030517578125</ele>
        <time>2023-08-19T17:54:39.000Z</time>
        <extensions>
          <ns3:TrackPointExtension>
            <ns3:hr>163</ns3:hr>
            <ns3:cad>82</ns3:cad>
          </ns3:TrackPointExtension>
        </extensions>
      </trkpt>
      <trkpt lat="42.616880424320697784423828125" lon="2.73460018448531627655029296875">
        <ele>227.1999969482421875</ele>
        <time>2023-08-19T17:54:40.000Z</time>
        <extensions>
          <ns3:TrackPointExtension>
            <ns3:hr>163</ns3:hr>
            <ns3:cad>83</ns3:cad>
          </ns3:TrackPointExtension>
        </extensions>
      </trkpt>
      <trkpt lat="42.61690129525959491729736328125" lon="2.7345786429941654205322265625">
        <ele>227.399993896484375</ele>
        <time>2023-08-19T17:54:41.000Z</time>
        <extensions>
          <ns3:TrackPointExtension>
            <ns3:hr>163</ns3:hr>
            <ns3:cad>82</ns3:cad>
          </ns3:TrackPointExtension>
        </extensions>
      </trkpt>
      <trkpt lat="42.61692074127495288848876953125" lon="2.73456380702555179595947265625">
        <ele>227.600006103515625</ele>
        <time>2023-08-19T17:54:42.000Z</time>
        <extensions>
          <ns3:TrackPointExtension>
            <ns3:hr>163</ns3:hr>
            <ns3:cad>82</ns3:cad>
          </ns3:TrackPointExtension>
        </extensions>
      </trkpt>
      <trkpt lat="42.616940103471279144287109375" lon="2.73455056361854076385498046875">
        <ele>227.8000030517578125</ele>
        <time>2023-08-19T17:54:43.000Z</time>
        <extensions>
          <ns3:TrackPointExtension>
            <ns3:hr>163</ns3:hr>
            <ns3:cad>82</ns3:cad>
          </ns3:TrackPointExtension>
        </extensions>
      </trkpt>
      <trkpt lat="42.61696332134306430816650390625" lon="2.7345340512692928314208984375">
        <ele>228</ele>
        <time>2023-08-19T17:54:44.000Z</time>
        <extensions>
          <ns3:TrackPointExtension>
            <ns3:hr>163</ns3:hr>
            <ns3:cad>81</ns3:cad>
          </ns3:TrackPointExtension>
        </extensions>
      </trkpt>
      <trkpt lat="42.61698410846292972564697265625" lon="2.73452390916645526885986328125">
        <ele>228</ele>
        <time>2023-08-19T17:54:45.000Z</time>
        <extensions>
          <ns3:TrackPointExtension>
            <ns3:hr>163</ns3:hr>
            <ns3:cad>81</ns3:cad>
          </ns3:TrackPointExtension>
        </extensions>
      </trkpt>
      <trkpt lat="42.61700305156409740447998046875" lon="2.7345156110823154449462890625">
        <ele>228.399993896484375</ele>
        <time>2023-08-19T17:54:46.000Z</time>
        <extensions>
          <ns3:TrackPointExtension>
            <ns3:hr>163</ns3:hr>
            <ns3:cad>81</ns3:cad>
          </ns3:TrackPointExtension>
        </extensions>
      </trkpt>
      <trkpt lat="42.61702735908329486846923828125" lon="2.734514772891998291015625">
        <ele>228.399993896484375</ele>
        <time>2023-08-19T17:54:47.000Z</time>
        <extensions>
          <ns3:TrackPointExtension>
            <ns3:hr>163</ns3:hr>
            <ns3:cad>81</ns3:cad>
          </ns3:TrackPointExtension>
        </extensions>
      </trkpt>
      <trkpt lat="42.61704864911735057830810546875" lon="2.73452089168131351470947265625">
        <ele>228.8000030517578125</ele>
        <time>2023-08-19T17:54:48.000Z</time>
        <extensions>
          <ns3:TrackPointExtension>
            <ns3:hr>163</ns3:hr>
            <ns3:cad>81</ns3:cad>
          </ns3:TrackPointExtension>
        </extensions>
      </trkpt>
      <trkpt lat="42.61706792749464511871337890625" lon="2.73453379981219768524169921875">
        <ele>229</ele>
        <time>2023-08-19T17:54:49.000Z</time>
        <extensions>
          <ns3:TrackPointExtension>
            <ns3:hr>163</ns3:hr>
            <ns3:cad>81</ns3:cad>
          </ns3:TrackPointExtension>
        </extensions>
      </trkpt>
      <trkpt lat="42.6170887984335422515869140625" lon="2.73455911315977573394775390625">
        <ele>229.399993896484375</ele>
        <time>2023-08-19T17:54:50.000Z</time>
        <extensions>
          <ns3:TrackPointExtension>
            <ns3:hr>163</ns3:hr>
            <ns3:cad>81</ns3:cad>
          </ns3:TrackPointExtension>
        </extensions>
      </trkpt>
      <trkpt lat="42.61710547842085361480712890625" lon="2.73458182811737060546875">
        <ele>229.399993896484375</ele>
        <time>2023-08-19T17:54:51.000Z</time>
        <extensions>
          <ns3:TrackPointExtension>
            <ns3:hr>163</ns3:hr>
            <ns3:cad>81</ns3:cad>
          </ns3:TrackPointExtension>
        </extensions>
      </trkpt>
      <trkpt lat="42.617122828960418701171875" lon="2.73460756056010723114013671875">
        <ele>229.600006103515625</ele>
        <time>2023-08-19T17:54:52.000Z</time>
        <extensions>
          <ns3:TrackPointExtension>
            <ns3:hr>163</ns3:hr>
            <ns3:cad>81</ns3:cad>
          </ns3:TrackPointExtension>
        </extensions>
      </trkpt>
      <trkpt lat="42.61714085005223751068115234375" lon="2.734641171991825103759765625">
        <ele>229.8000030517578125</ele>
        <time>2023-08-19T17:54:53.000Z</time>
        <extensions>
          <ns3:TrackPointExtension>
            <ns3:hr>163</ns3:hr>
            <ns3:cad>81</ns3:cad>
          </ns3:TrackPointExtension>
        </extensions>
      </trkpt>
      <trkpt lat="42.6171561889350414276123046875" lon="2.73466707207262516021728515625">
        <ele>229.8000030517578125</ele>
        <time>2023-08-19T17:54:54.000Z</time>
        <extensions>
          <ns3:TrackPointExtension>
            <ns3:hr>163</ns3:hr>
            <ns3:cad>82</ns3:cad>
          </ns3:TrackPointExtension>
        </extensions>
      </trkpt>
      <trkpt lat="42.61717219837009906768798828125" lon="2.734700180590152740478515625">
        <ele>229.8000030517578125</ele>
        <time>2023-08-19T17:54:55.000Z</time>
        <extensions>
          <ns3:TrackPointExtension>
            <ns3:hr>163</ns3:hr>
            <ns3:cad>81</ns3:cad>
          </ns3:TrackPointExtension>
        </extensions>
      </trkpt>
      <trkpt lat="42.61718611232936382293701171875" lon="2.7347305230796337127685546875">
        <ele>229.8000030517578125</ele>
        <time>2023-08-19T17:54:56.000Z</time>
        <extensions>
          <ns3:TrackPointExtension>
            <ns3:hr>163</ns3:hr>
            <ns3:cad>81</ns3:cad>
          </ns3:TrackPointExtension>
        </extensions>
      </trkpt>
      <trkpt lat="42.61720103211700916290283203125" lon="2.734759859740734100341796875">
        <ele>229.8000030517578125</ele>
        <time>2023-08-19T17:54:57.000Z</time>
        <extensions>
          <ns3:TrackPointExtension>
            <ns3:hr>163</ns3:hr>
            <ns3:cad>82</ns3:cad>
          </ns3:TrackPointExtension>
        </extensions>
      </trkpt>
      <trkpt lat="42.6172192208468914031982421875" lon="2.7347962372004985809326171875">
        <ele>229.8000030517578125</ele>
        <time>2023-08-19T17:54:58.000Z</time>
        <extensions>
          <ns3:TrackPointExtension>
            <ns3:hr>163</ns3:hr>
            <ns3:cad>82</ns3:cad>
          </ns3:TrackPointExtension>
        </extensions>
      </trkpt>
      <trkpt lat="42.6172329671680927276611328125" lon="2.73482431657612323760986328125">
        <ele>229.8000030517578125</ele>
        <time>2023-08-19T17:54:59.000Z</time>
        <extensions>
          <ns3:TrackPointExtension>
            <ns3:hr>163</ns3:hr>
            <ns3:cad>82</ns3:cad>
          </ns3:TrackPointExtension>
        </extensions>
      </trkpt>
      <trkpt lat="42.61724956333637237548828125" lon="2.73484879173338413238525390625">
        <ele>229.8000030517578125</ele>
        <time>2023-08-19T17:55:00.000Z</time>
        <extensions>
          <ns3:TrackPointExtension>
            <ns3:hr>163</ns3:hr>
            <ns3:cad>82</ns3:cad>
          </ns3:TrackPointExtension>
        </extensions>
      </trkpt>
      <trkpt lat="42.61726892553269863128662109375" lon="2.734879553318023681640625">
        <ele>229.399993896484375</ele>
        <time>2023-08-19T17:55:01.000Z</time>
        <extensions>
          <ns3:TrackPointExtension>
            <ns3:hr>163</ns3:hr>
            <ns3:cad>82</ns3:cad>
          </ns3:TrackPointExtension>
        </extensions>
      </trkpt>
      <trkpt lat="42.61728686280548572540283203125" lon="2.7349055372178554534912109375">
        <ele>229.1999969482421875</ele>
        <time>2023-08-19T17:55:02.000Z</time>
        <extensions>
          <ns3:TrackPointExtension>
            <ns3:hr>163</ns3:hr>
            <ns3:cad>82</ns3:cad>
          </ns3:TrackPointExtension>
        </extensions>
      </trkpt>
      <trkpt lat="42.6173065602779388427734375" lon="2.73493479005992412567138671875">
        <ele>229.1999969482421875</ele>
        <time>2023-08-19T17:55:03.000Z</time>
        <extensions>
          <ns3:TrackPointExtension>
            <ns3:hr>163</ns3:hr>
            <ns3:cad>82</ns3:cad>
          </ns3:TrackPointExtension>
        </extensions>
      </trkpt>
      <trkpt lat="42.61732734739780426025390625" lon="2.73496747948229312896728515625">
        <ele>229</ele>
        <time>2023-08-19T17:55:04.000Z</time>
        <extensions>
          <ns3:TrackPointExtension>
            <ns3:hr>163</ns3:hr>
            <ns3:cad>82</ns3:cad>
          </ns3:TrackPointExtension>
        </extensions>
      </trkpt>
      <trkpt lat="42.6173479668796062469482421875" lon="2.73499463684856891632080078125">
        <ele>229</ele>
        <time>2023-08-19T17:55:05.000Z</time>
        <extensions>
          <ns3:TrackPointExtension>
            <ns3:hr>163</ns3:hr>
            <ns3:cad>82</ns3:cad>
          </ns3:TrackPointExtension>
        </extensions>
      </trkpt>
      <trkpt lat="42.61736934073269367218017578125" lon="2.73502414114773273468017578125">
        <ele>229</ele>
        <time>2023-08-19T17:55:06.000Z</time>
        <extensions>
          <ns3:TrackPointExtension>
            <ns3:hr>163</ns3:hr>
            <ns3:cad>82</ns3:cad>
          </ns3:TrackPointExtension>
        </extensions>
      </trkpt>
      <trkpt lat="42.61738526634871959686279296875" lon="2.73504995740950107574462890625">
        <ele>228.8000030517578125</ele>
        <time>2023-08-19T17:55:07.000Z</time>
        <extensions>
          <ns3:TrackPointExtension>
            <ns3:hr>163</ns3:hr>
            <ns3:cad>82</ns3:cad>
          </ns3:TrackPointExtension>
        </extensions>
      </trkpt>
      <trkpt lat="42.61740270070731639862060546875" lon="2.73508147336542606353759765625">
        <ele>228.399993896484375</ele>
        <time>2023-08-19T17:55:08.000Z</time>
        <extensions>
          <ns3:TrackPointExtension>
            <ns3:hr>163</ns3:hr>
            <ns3:cad>83</ns3:cad>
          </ns3:TrackPointExtension>
        </extensions>
      </trkpt>
      <trkpt lat="42.6174163632094860076904296875" lon="2.73511483334004878997802734375">
        <ele>228.399993896484375</ele>
        <time>2023-08-19T17:55:09.000Z</time>
        <extensions>
          <ns3:TrackPointExtension>
            <ns3:hr>163</ns3:hr>
            <ns3:cad>83</ns3:cad>
          </ns3:TrackPointExtension>
        </extensions>
      </trkpt>
      <trkpt lat="42.6174267567694187164306640625" lon="2.73514618165791034698486328125">
        <ele>228.1999969482421875</ele>
        <time>2023-08-19T17:55:10.000Z</time>
        <extensions>
          <ns3:TrackPointExtension>
            <ns3:hr>163</ns3:hr>
            <ns3:cad>82</ns3:cad>
          </ns3:TrackPointExtension>
        </extensions>
      </trkpt>
      <trkpt lat="42.61743907816708087921142578125" lon="2.735180296003818511962890625">
        <ele>228.1999969482421875</ele>
        <time>2023-08-19T17:55:11.000Z</time>
        <extensions>
          <ns3:TrackPointExtension>
            <ns3:hr>163</ns3:hr>
            <ns3:cad>82</ns3:cad>
          </ns3:TrackPointExtension>
        </extensions>
      </trkpt>
      <trkpt lat="42.617449723184108734130859375" lon="2.735215835273265838623046875">
        <ele>228.1999969482421875</ele>
        <time>2023-08-19T17:55:12.000Z</time>
        <extensions>
          <ns3:TrackPointExtension>
            <ns3:hr>163</ns3:hr>
            <ns3:cad>82</ns3:cad>
          </ns3:TrackPointExtension>
        </extensions>
      </trkpt>
      <trkpt lat="42.61746145784854888916015625" lon="2.7352424897253513336181640625">
        <ele>228</ele>
        <time>2023-08-19T17:55:13.000Z</time>
        <extensions>
          <ns3:TrackPointExtension>
            <ns3:hr>163</ns3:hr>
            <ns3:cad>82</ns3:cad>
          </ns3:TrackPointExtension>
        </extensions>
      </trkpt>
      <trkpt lat="42.6174763776361942291259765625" lon="2.73527258075773715972900390625">
        <ele>227.8000030517578125</ele>
        <time>2023-08-19T17:55:14.000Z</time>
        <extensions>
          <ns3:TrackPointExtension>
            <ns3:hr>163</ns3:hr>
            <ns3:cad>82</ns3:cad>
          </ns3:TrackPointExtension>
        </extensions>
      </trkpt>
      <trkpt lat="42.617490291595458984375" lon="2.73530074395239353179931640625">
        <ele>227.8000030517578125</ele>
        <time>2023-08-19T17:55:15.000Z</time>
        <extensions>
          <ns3:TrackPointExtension>
            <ns3:hr>163</ns3:hr>
            <ns3:cad>82</ns3:cad>
          </ns3:TrackPointExtension>
        </extensions>
      </trkpt>
      <trkpt lat="42.6175042055547237396240234375" lon="2.7353266440331935882568359375">
        <ele>227.600006103515625</ele>
        <time>2023-08-19T17:55:16.000Z</time>
        <extensions>
          <ns3:TrackPointExtension>
            <ns3:hr>163</ns3:hr>
            <ns3:cad>82</ns3:cad>
          </ns3:TrackPointExtension>
        </extensions>
      </trkpt>
      <trkpt lat="42.61752021498978137969970703125" lon="2.73535807617008686065673828125">
        <ele>227.399993896484375</ele>
        <time>2023-08-19T17:55:17.000Z</time>
        <extensions>
          <ns3:TrackPointExtension>
            <ns3:hr>164</ns3:hr>
            <ns3:cad>82</ns3:cad>
          </ns3:TrackPointExtension>
        </extensions>
      </trkpt>
      <trkpt lat="42.6175345480442047119140625" lon="2.73538716137409210205078125">
        <ele>227</ele>
        <time>2023-08-19T17:55:18.000Z</time>
        <extensions>
          <ns3:TrackPointExtension>
            <ns3:hr>163</ns3:hr>
            <ns3:cad>83</ns3:cad>
          </ns3:TrackPointExtension>
        </extensions>
      </trkpt>
      <trkpt lat="42.61755089275538921356201171875" lon="2.735421024262905120849609375">
        <ele>226.600006103515625</ele>
        <time>2023-08-19T17:55:19.000Z</time>
        <extensions>
          <ns3:TrackPointExtension>
            <ns3:hr>164</ns3:hr>
            <ns3:cad>83</ns3:cad>
          </ns3:TrackPointExtension>
        </extensions>
      </trkpt>
      <trkpt lat="42.61756530962884426116943359375" lon="2.7354550547897815704345703125">
        <ele>226.399993896484375</ele>
        <time>2023-08-19T17:55:20.000Z</time>
        <extensions>
          <ns3:TrackPointExtension>
            <ns3:hr>164</ns3:hr>
            <ns3:cad>83</ns3:cad>
          </ns3:TrackPointExtension>
        </extensions>
      </trkpt>
      <trkpt lat="42.61757972650229930877685546875" lon="2.73548229597508907318115234375">
        <ele>226.399993896484375</ele>
        <time>2023-08-19T17:55:21.000Z</time>
        <extensions>
          <ns3:TrackPointExtension>
            <ns3:hr>165</ns3:hr>
            <ns3:cad>83</ns3:cad>
          </ns3:TrackPointExtension>
        </extensions>
      </trkpt>
      <trkpt lat="42.6175964064896106719970703125" lon="2.7355190925300121307373046875">
        <ele>226.1999969482421875</ele>
        <time>2023-08-19T17:55:22.000Z</time>
        <extensions>
          <ns3:TrackPointExtension>
            <ns3:hr>164</ns3:hr>
            <ns3:cad>83</ns3:cad>
          </ns3:TrackPointExtension>
        </extensions>
      </trkpt>
      <trkpt lat="42.617610655725002288818359375" lon="2.735545746982097625732421875">
        <ele>226</ele>
        <time>2023-08-19T17:55:23.000Z</time>
        <extensions>
          <ns3:TrackPointExtension>
            <ns3:hr>164</ns3:hr>
            <ns3:cad>83</ns3:cad>
          </ns3:TrackPointExtension>
        </extensions>
      </trkpt>
      <trkpt lat="42.61763018555939197540283203125" lon="2.73557567037642002105712890625">
        <ele>225.600006103515625</ele>
        <time>2023-08-19T17:55:24.000Z</time>
        <extensions>
          <ns3:TrackPointExtension>
            <ns3:hr>164</ns3:hr>
            <ns3:cad>83</ns3:cad>
          </ns3:TrackPointExtension>
        </extensions>
      </trkpt>
      <trkpt lat="42.61764644645154476165771484375" lon="2.735603749752044677734375">
        <ele>225.1999969482421875</ele>
        <time>2023-08-19T17:55:25.000Z</time>
        <extensions>
          <ns3:TrackPointExtension>
            <ns3:hr>163</ns3:hr>
            <ns3:cad>84</ns3:cad>
          </ns3:TrackPointExtension>
        </extensions>
      </trkpt>
      <trkpt lat="42.61766530573368072509765625" lon="2.73563032038509845733642578125">
        <ele>225.1999969482421875</ele>
        <time>2023-08-19T17:55:26.000Z</time>
        <extensions>
          <ns3:TrackPointExtension>
            <ns3:hr>163</ns3:hr>
            <ns3:cad>85</ns3:cad>
          </ns3:TrackPointExtension>
        </extensions>
      </trkpt>
      <trkpt lat="42.61768198572099208831787109375" lon="2.73566368035972118377685546875">
        <ele>225</ele>
        <time>2023-08-19T17:55:27.000Z</time>
        <extensions>
          <ns3:TrackPointExtension>
            <ns3:hr>163</ns3:hr>
            <ns3:cad>85</ns3:cad>
          </ns3:TrackPointExtension>
        </extensions>
      </trkpt>
      <trkpt lat="42.6177000068128108978271484375" lon="2.73569234646856784820556640625">
        <ele>224.8000030517578125</ele>
        <time>2023-08-19T17:55:28.000Z</time>
        <extensions>
          <ns3:TrackPointExtension>
            <ns3:hr>163</ns3:hr>
            <ns3:cad>84</ns3:cad>
          </ns3:TrackPointExtension>
        </extensions>
      </trkpt>
      <trkpt lat="42.61771786026656627655029296875" lon="2.73572755046188831329345703125">
        <ele>224.600006103515625</ele>
        <time>2023-08-19T17:55:29.000Z</time>
        <extensions>
          <ns3:TrackPointExtension>
            <ns3:hr>162</ns3:hr>
            <ns3:cad>85</ns3:cad>
          </ns3:TrackPointExtension>
        </extensions>
      </trkpt>
      <trkpt lat="42.61773395352065563201904296875" lon="2.73575370199978351593017578125">
        <ele>224.399993896484375</ele>
        <time>2023-08-19T17:55:30.000Z</time>
        <extensions>
          <ns3:TrackPointExtension>
            <ns3:hr>162</ns3:hr>
            <ns3:cad>85</ns3:cad>
          </ns3:TrackPointExtension>
        </extensions>
      </trkpt>
      <trkpt lat="42.61775247752666473388671875" lon="2.7357889898121356964111328125">
        <ele>224.1999969482421875</ele>
        <time>2023-08-19T17:55:31.000Z</time>
        <extensions>
          <ns3:TrackPointExtension>
            <ns3:hr>162</ns3:hr>
            <ns3:cad>86</ns3:cad>
          </ns3:TrackPointExtension>
        </extensions>
      </trkpt>
      <trkpt lat="42.61776966042816638946533203125" lon="2.73582360707223415374755859375">
        <ele>223.8000030517578125</ele>
        <time>2023-08-19T17:55:32.000Z</time>
        <extensions>
          <ns3:TrackPointExtension>
            <ns3:hr>161</ns3:hr>
            <ns3:cad>86</ns3:cad>
          </ns3:TrackPointExtension>
        </extensions>
      </trkpt>
      <trkpt lat="42.61778642423450946807861328125" lon="2.735856883227825164794921875">
        <ele>223.600006103515625</ele>
        <time>2023-08-19T17:55:33.000Z</time>
        <extensions>
          <ns3:TrackPointExtension>
            <ns3:hr>161</ns3:hr>
            <ns3:cad>86</ns3:cad>
          </ns3:TrackPointExtension>
        </extensions>
      </trkpt>
      <trkpt lat="42.617807798087596893310546875" lon="2.73589636199176311492919921875">
        <ele>223.399993896484375</ele>
        <time>2023-08-19T17:55:34.000Z</time>
        <extensions>
          <ns3:TrackPointExtension>
            <ns3:hr>161</ns3:hr>
            <ns3:cad>86</ns3:cad>
          </ns3:TrackPointExtension>
        </extensions>
      </trkpt>
      <trkpt lat="42.617825902998447418212890625" lon="2.7359281294047832489013671875">
        <ele>223.1999969482421875</ele>
        <time>2023-08-19T17:55:35.000Z</time>
        <extensions>
          <ns3:TrackPointExtension>
            <ns3:hr>161</ns3:hr>
            <ns3:cad>86</ns3:cad>
          </ns3:TrackPointExtension>
        </extensions>
      </trkpt>
      <trkpt lat="42.61784979142248630523681640625" lon="2.73596249520778656005859375">
        <ele>222.8000030517578125</ele>
        <time>2023-08-19T17:55:36.000Z</time>
        <extensions>
          <ns3:TrackPointExtension>
            <ns3:hr>161</ns3:hr>
            <ns3:cad>86</ns3:cad>
          </ns3:TrackPointExtension>
        </extensions>
      </trkpt>
      <trkpt lat="42.61787409894168376922607421875" lon="2.735989652574062347412109375">
        <ele>222.8000030517578125</ele>
        <time>2023-08-19T17:55:37.000Z</time>
        <extensions>
          <ns3:TrackPointExtension>
            <ns3:hr>161</ns3:hr>
            <ns3:cad>86</ns3:cad>
          </ns3:TrackPointExtension>
        </extensions>
      </trkpt>
      <trkpt lat="42.61790360324084758758544921875" lon="2.73601857014000415802001953125">
        <ele>222.399993896484375</ele>
        <time>2023-08-19T17:55:38.000Z</time>
        <extensions>
          <ns3:TrackPointExtension>
            <ns3:hr>160</ns3:hr>
            <ns3:cad>87</ns3:cad>
          </ns3:TrackPointExtension>
        </extensions>
      </trkpt>
      <trkpt lat="42.61792824603617191314697265625" lon="2.7360364235937595367431640625">
        <ele>222.1999969482421875</ele>
        <time>2023-08-19T17:55:39.000Z</time>
        <extensions>
          <ns3:TrackPointExtension>
            <ns3:hr>160</ns3:hr>
            <ns3:cad>87</ns3:cad>
          </ns3:TrackPointExtension>
        </extensions>
      </trkpt>
      <trkpt lat="42.61795976199209690093994140625" lon="2.73605578579008579254150390625">
        <ele>222</ele>
        <time>2023-08-19T17:55:40.000Z</time>
        <extensions>
          <ns3:TrackPointExtension>
            <ns3:hr>160</ns3:hr>
            <ns3:cad>87</ns3:cad>
          </ns3:TrackPointExtension>
        </extensions>
      </trkpt>
      <trkpt lat="42.61798792518675327301025390625" lon="2.73606886155903339385986328125">
        <ele>221.8000030517578125</ele>
        <time>2023-08-19T17:55:41.000Z</time>
        <extensions>
          <ns3:TrackPointExtension>
            <ns3:hr>160</ns3:hr>
            <ns3:cad>87</ns3:cad>
          </ns3:TrackPointExtension>
        </extensions>
      </trkpt>
      <trkpt lat="42.61801592074334621429443359375" lon="2.7360776625573635101318359375">
        <ele>221.399993896484375</ele>
        <time>2023-08-19T17:55:42.000Z</time>
        <extensions>
          <ns3:TrackPointExtension>
            <ns3:hr>160</ns3:hr>
            <ns3:cad>86</ns3:cad>
          </ns3:TrackPointExtension>
        </extensions>
      </trkpt>
      <trkpt lat="42.61804752051830291748046875" lon="2.73608797229826450347900390625">
        <ele>221.399993896484375</ele>
        <time>2023-08-19T17:55:43.000Z</time>
        <extensions>
          <ns3:TrackPointExtension>
            <ns3:hr>160</ns3:hr>
            <ns3:cad>86</ns3:cad>
          </ns3:TrackPointExtension>
        </extensions>
      </trkpt>
      <trkpt lat="42.6180714927613735198974609375" lon="2.7360873855650424957275390625">
        <ele>221.1999969482421875</ele>
        <time>2023-08-19T17:55:44.000Z</time>
        <extensions>
          <ns3:TrackPointExtension>
            <ns3:hr>160</ns3:hr>
            <ns3:cad>86</ns3:cad>
          </ns3:TrackPointExtension>
        </extensions>
      </trkpt>
      <trkpt lat="42.61810258962213993072509765625" lon="2.73608864285051822662353515625">
        <ele>221</ele>
        <time>2023-08-19T17:55:45.000Z</time>
        <extensions>
          <ns3:TrackPointExtension>
            <ns3:hr>160</ns3:hr>
            <ns3:cad>86</ns3:cad>
          </ns3:TrackPointExtension>
        </extensions>
      </trkpt>
      <trkpt lat="42.618130333721637725830078125" lon="2.736089229583740234375">
        <ele>221</ele>
        <time>2023-08-19T17:55:46.000Z</time>
        <extensions>
          <ns3:TrackPointExtension>
            <ns3:hr>160</ns3:hr>
            <ns3:cad>86</ns3:cad>
          </ns3:TrackPointExtension>
        </extensions>
      </trkpt>
      <trkpt lat="42.618163526058197021484375" lon="2.73609635420143604278564453125">
        <ele>221</ele>
        <time>2023-08-19T17:55:47.000Z</time>
        <extensions>
          <ns3:TrackPointExtension>
            <ns3:hr>160</ns3:hr>
            <ns3:cad>86</ns3:cad>
          </ns3:TrackPointExtension>
        </extensions>
      </trkpt>
      <trkpt lat="42.61818825267255306243896484375" lon="2.73610607720911502838134765625">
        <ele>221</ele>
        <time>2023-08-19T17:55:48.000Z</time>
        <extensions>
          <ns3:TrackPointExtension>
            <ns3:hr>160</ns3:hr>
            <ns3:cad>86</ns3:cad>
          </ns3:TrackPointExtension>
        </extensions>
      </trkpt>
      <trkpt lat="42.61821138672530651092529296875" lon="2.73612787015736103057861328125">
        <ele>221</ele>
        <time>2023-08-19T17:55:49.000Z</time>
        <extensions>
          <ns3:TrackPointExtension>
            <ns3:hr>160</ns3:hr>
            <ns3:cad>87</ns3:cad>
          </ns3:TrackPointExtension>
        </extensions>
      </trkpt>
      <trkpt lat="42.61822714470326900482177734375" lon="2.7361571229994297027587890625">
        <ele>221.1999969482421875</ele>
        <time>2023-08-19T17:55:50.000Z</time>
        <extensions>
          <ns3:TrackPointExtension>
            <ns3:hr>159</ns3:hr>
            <ns3:cad>86</ns3:cad>
          </ns3:TrackPointExtension>
        </extensions>
      </trkpt>
      <trkpt lat="42.618242986500263214111328125" lon="2.736184783279895782470703125">
        <ele>221.1999969482421875</ele>
        <time>2023-08-19T17:55:51.000Z</time>
        <extensions>
          <ns3:TrackPointExtension>
            <ns3:hr>159</ns3:hr>
            <ns3:cad>86</ns3:cad>
          </ns3:TrackPointExtension>
        </extensions>
      </trkpt>
      <trkpt lat="42.61825279332697391510009765625" lon="2.7362204901874065399169921875">
        <ele>221.399993896484375</ele>
        <time>2023-08-19T17:55:52.000Z</time>
        <extensions>
          <ns3:TrackPointExtension>
            <ns3:hr>159</ns3:hr>
            <ns3:cad>86</ns3:cad>
          </ns3:TrackPointExtension>
        </extensions>
      </trkpt>
      <trkpt lat="42.61826335452497005462646484375" lon="2.73624488152563571929931640625">
        <ele>221.8000030517578125</ele>
        <time>2023-08-19T17:55:53.000Z</time>
        <extensions>
          <ns3:TrackPointExtension>
            <ns3:hr>159</ns3:hr>
            <ns3:cad>86</ns3:cad>
          </ns3:TrackPointExtension>
        </extensions>
      </trkpt>
      <trkpt lat="42.6182713173329830169677734375" lon="2.7362823486328125">
        <ele>222</ele>
        <time>2023-08-19T17:55:54.000Z</time>
        <extensions>
          <ns3:TrackPointExtension>
            <ns3:hr>159</ns3:hr>
            <ns3:cad>85</ns3:cad>
          </ns3:TrackPointExtension>
        </extensions>
      </trkpt>
      <trkpt lat="42.618279866874217987060546875" lon="2.7363133616745471954345703125">
        <ele>222.1999969482421875</ele>
        <time>2023-08-19T17:55:55.000Z</time>
        <extensions>
          <ns3:TrackPointExtension>
            <ns3:hr>159</ns3:hr>
            <ns3:cad>85</ns3:cad>
          </ns3:TrackPointExtension>
        </extensions>
      </trkpt>
      <trkpt lat="42.618291266262531280517578125" lon="2.73634227924048900604248046875">
        <ele>222.399993896484375</ele>
        <time>2023-08-19T17:55:56.000Z</time>
        <extensions>
          <ns3:TrackPointExtension>
            <ns3:hr>159</ns3:hr>
            <ns3:cad>85</ns3:cad>
          </ns3:TrackPointExtension>
        </extensions>
      </trkpt>
      <trkpt lat="42.61829922907054424285888671875" lon="2.73636876605451107025146484375">
        <ele>222.399993896484375</ele>
        <time>2023-08-19T17:55:57.000Z</time>
        <extensions>
          <ns3:TrackPointExtension>
            <ns3:hr>159</ns3:hr>
            <ns3:cad>85</ns3:cad>
          </ns3:TrackPointExtension>
        </extensions>
      </trkpt>
      <trkpt lat="42.61830878444015979766845703125" lon="2.7363951690495014190673828125">
        <ele>222.600006103515625</ele>
        <time>2023-08-19T17:55:58.000Z</time>
        <extensions>
          <ns3:TrackPointExtension>
            <ns3:hr>159</ns3:hr>
            <ns3:cad>84</ns3:cad>
          </ns3:TrackPointExtension>
        </extensions>
      </trkpt>
      <trkpt lat="42.6183185912668704986572265625" lon="2.73642324842512607574462890625">
        <ele>222.600006103515625</ele>
        <time>2023-08-19T17:55:59.000Z</time>
        <extensions>
          <ns3:TrackPointExtension>
            <ns3:hr>159</ns3:hr>
            <ns3:cad>84</ns3:cad>
          </ns3:TrackPointExtension>
        </extensions>
      </trkpt>
      <trkpt lat="42.61832781136035919189453125" lon="2.7364526689052581787109375">
        <ele>222.8000030517578125</ele>
        <time>2023-08-19T17:56:00.000Z</time>
        <extensions>
          <ns3:TrackPointExtension>
            <ns3:hr>159</ns3:hr>
            <ns3:cad>84</ns3:cad>
          </ns3:TrackPointExtension>
        </extensions>
      </trkpt>
      <trkpt lat="42.61833996511995792388916015625" lon="2.7364741265773773193359375">
        <ele>223</ele>
        <time>2023-08-19T17:56:01.000Z</time>
        <extensions>
          <ns3:TrackPointExtension>
            <ns3:hr>159</ns3:hr>
            <ns3:cad>84</ns3:cad>
          </ns3:TrackPointExtension>
        </extensions>
      </trkpt>
      <trkpt lat="42.61835035867989063262939453125" lon="2.736504971981048583984375">
        <ele>223.1999969482421875</ele>
        <time>2023-08-19T17:56:02.000Z</time>
        <extensions>
          <ns3:TrackPointExtension>
            <ns3:hr>159</ns3:hr>
            <ns3:cad>84</ns3:cad>
          </ns3:TrackPointExtension>
        </extensions>
      </trkpt>
      <trkpt lat="42.6183618418872356414794921875" lon="2.7365349791944026947021484375">
        <ele>223.399993896484375</ele>
        <time>2023-08-19T17:56:03.000Z</time>
        <extensions>
          <ns3:TrackPointExtension>
            <ns3:hr>159</ns3:hr>
            <ns3:cad>84</ns3:cad>
          </ns3:TrackPointExtension>
        </extensions>
      </trkpt>
      <trkpt lat="42.61837583966553211212158203125" lon="2.73656641133129596710205078125">
        <ele>223.399993896484375</ele>
        <time>2023-08-19T17:56:04.000Z</time>
        <extensions>
          <ns3:TrackPointExtension>
            <ns3:hr>159</ns3:hr>
            <ns3:cad>84</ns3:cad>
          </ns3:TrackPointExtension>
        </extensions>
      </trkpt>
      <trkpt lat="42.61838723905384540557861328125" lon="2.73659826256334781646728515625">
        <ele>223.600006103515625</ele>
        <time>2023-08-19T17:56:05.000Z</time>
        <extensions>
          <ns3:TrackPointExtension>
            <ns3:hr>159</ns3:hr>
            <ns3:cad>83</ns3:cad>
          </ns3:TrackPointExtension>
        </extensions>
      </trkpt>
      <trkpt lat="42.6184010691940784454345703125" lon="2.73662240244448184967041015625">
        <ele>224</ele>
        <time>2023-08-19T17:56:06.000Z</time>
        <extensions>
          <ns3:TrackPointExtension>
            <ns3:hr>159</ns3:hr>
            <ns3:cad>83</ns3:cad>
          </ns3:TrackPointExtension>
        </extensions>
      </trkpt>
      <trkpt lat="42.6184169948101043701171875" lon="2.736656852066516876220703125">
        <ele>224.1999969482421875</ele>
        <time>2023-08-19T17:56:07.000Z</time>
        <extensions>
          <ns3:TrackPointExtension>
            <ns3:hr>159</ns3:hr>
            <ns3:cad>83</ns3:cad>
          </ns3:TrackPointExtension>
        </extensions>
      </trkpt>
      <trkpt lat="42.6184292323887348175048828125" lon="2.73669163696467876434326171875">
        <ele>224.399993896484375</ele>
        <time>2023-08-19T17:56:08.000Z</time>
        <extensions>
          <ns3:TrackPointExtension>
            <ns3:hr>160</ns3:hr>
            <ns3:cad>82</ns3:cad>
          </ns3:TrackPointExtension>
        </extensions>
      </trkpt>
      <trkpt lat="42.6184426434338092803955078125" lon="2.73671963252127170562744140625">
        <ele>224.399993896484375</ele>
        <time>2023-08-19T17:56:09.000Z</time>
        <extensions>
          <ns3:TrackPointExtension>
            <ns3:hr>160</ns3:hr>
            <ns3:cad>83</ns3:cad>
          </ns3:TrackPointExtension>
        </extensions>
      </trkpt>
      <trkpt lat="42.61845580302178859710693359375" lon="2.73675751872360706329345703125">
        <ele>224.399993896484375</ele>
        <time>2023-08-19T17:56:10.000Z</time>
        <extensions>
          <ns3:TrackPointExtension>
            <ns3:hr>160</ns3:hr>
            <ns3:cad>83</ns3:cad>
          </ns3:TrackPointExtension>
        </extensions>
      </trkpt>
      <trkpt lat="42.61846854351460933685302734375" lon="2.73678719066083431243896484375">
        <ele>224.399993896484375</ele>
        <time>2023-08-19T17:56:11.000Z</time>
        <extensions>
          <ns3:TrackPointExtension>
            <ns3:hr>160</ns3:hr>
            <ns3:cad>83</ns3:cad>
          </ns3:TrackPointExtension>
        </extensions>
      </trkpt>
      <trkpt lat="42.61847960762679576873779296875" lon="2.73682222701609134674072265625">
        <ele>224.600006103515625</ele>
        <time>2023-08-19T17:56:12.000Z</time>
        <extensions>
          <ns3:TrackPointExtension>
            <ns3:hr>160</ns3:hr>
            <ns3:cad>83</ns3:cad>
          </ns3:TrackPointExtension>
        </extensions>
      </trkpt>
      <trkpt lat="42.618487067520618438720703125" lon="2.73685407824814319610595703125">
        <ele>224.600006103515625</ele>
        <time>2023-08-19T17:56:13.000Z</time>
        <extensions>
          <ns3:TrackPointExtension>
            <ns3:hr>160</ns3:hr>
            <ns3:cad>83</ns3:cad>
          </ns3:TrackPointExtension>
        </extensions>
      </trkpt>
      <trkpt lat="42.61849737726151943206787109375" lon="2.73688123561441898345947265625">
        <ele>224.600006103515625</ele>
        <time>2023-08-19T17:56:14.000Z</time>
        <extensions>
          <ns3:TrackPointExtension>
            <ns3:hr>160</ns3:hr>
            <ns3:cad>83</ns3:cad>
          </ns3:TrackPointExtension>
        </extensions>
      </trkpt>
      <trkpt lat="42.6185033284127712249755859375" lon="2.736921049654483795166015625">
        <ele>224.8000030517578125</ele>
        <time>2023-08-19T17:56:15.000Z</time>
        <extensions>
          <ns3:TrackPointExtension>
            <ns3:hr>160</ns3:hr>
            <ns3:cad>83</ns3:cad>
          </ns3:TrackPointExtension>
        </extensions>
      </trkpt>
      <trkpt lat="42.618504501879215240478515625" lon="2.736951895058155059814453125">
        <ele>224.8000030517578125</ele>
        <time>2023-08-19T17:56:16.000Z</time>
        <extensions>
          <ns3:TrackPointExtension>
            <ns3:hr>160</ns3:hr>
            <ns3:cad>83</ns3:cad>
          </ns3:TrackPointExtension>
        </extensions>
      </trkpt>
      <trkpt lat="42.61849947273731231689453125" lon="2.73698718287050724029541015625">
        <ele>224.8000030517578125</ele>
        <time>2023-08-19T17:56:17.000Z</time>
        <extensions>
          <ns3:TrackPointExtension>
            <ns3:hr>160</ns3:hr>
            <ns3:cad>83</ns3:cad>
          </ns3:TrackPointExtension>
        </extensions>
      </trkpt>
      <trkpt lat="42.618484385311603546142578125" lon="2.73701794445514678955078125">
        <ele>225</ele>
        <time>2023-08-19T17:56:18.000Z</time>
        <extensions>
          <ns3:TrackPointExtension>
            <ns3:hr>160</ns3:hr>
            <ns3:cad>83</ns3:cad>
          </ns3:TrackPointExtension>
        </extensions>
      </trkpt>
      <trkpt lat="42.61847323738038539886474609375" lon="2.7370502986013889312744140625">
        <ele>225</ele>
        <time>2023-08-19T17:56:19.000Z</time>
        <extensions>
          <ns3:TrackPointExtension>
            <ns3:hr>160</ns3:hr>
            <ns3:cad>83</ns3:cad>
          </ns3:TrackPointExtension>
        </extensions>
      </trkpt>
      <trkpt lat="42.61845027096569538116455078125" lon="2.73708391003310680389404296875">
        <ele>225</ele>
        <time>2023-08-19T17:56:20.000Z</time>
        <extensions>
          <ns3:TrackPointExtension>
            <ns3:hr>160</ns3:hr>
            <ns3:cad>83</ns3:cad>
          </ns3:TrackPointExtension>
        </extensions>
      </trkpt>
      <trkpt lat="42.61843317188322544097900390625" lon="2.73711710236966609954833984375">
        <ele>225</ele>
        <time>2023-08-19T17:56:21.000Z</time>
        <extensions>
          <ns3:TrackPointExtension>
            <ns3:hr>160</ns3:hr>
            <ns3:cad>84</ns3:cad>
          </ns3:TrackPointExtension>
        </extensions>
      </trkpt>
      <trkpt lat="42.61841624043881893157958984375" lon="2.73715347982943058013916015625">
        <ele>225</ele>
        <time>2023-08-19T17:56:22.000Z</time>
        <extensions>
          <ns3:TrackPointExtension>
            <ns3:hr>160</ns3:hr>
            <ns3:cad>83</ns3:cad>
          </ns3:TrackPointExtension>
        </extensions>
      </trkpt>
      <trkpt lat="42.61840048246085643768310546875" lon="2.73718960583209991455078125">
        <ele>225</ele>
        <time>2023-08-19T17:56:23.000Z</time>
        <extensions>
          <ns3:TrackPointExtension>
            <ns3:hr>160</ns3:hr>
            <ns3:cad>83</ns3:cad>
          </ns3:TrackPointExtension>
        </extensions>
      </trkpt>
      <trkpt lat="42.6183893345296382904052734375" lon="2.73722103796899318695068359375">
        <ele>224.8000030517578125</ele>
        <time>2023-08-19T17:56:24.000Z</time>
        <extensions>
          <ns3:TrackPointExtension>
            <ns3:hr>160</ns3:hr>
            <ns3:cad>84</ns3:cad>
          </ns3:TrackPointExtension>
        </extensions>
      </trkpt>
      <trkpt lat="42.6183687150478363037109375" lon="2.73726345039904117584228515625">
        <ele>224.8000030517578125</ele>
        <time>2023-08-19T17:56:25.000Z</time>
        <extensions>
          <ns3:TrackPointExtension>
            <ns3:hr>160</ns3:hr>
            <ns3:cad>84</ns3:cad>
          </ns3:TrackPointExtension>
        </extensions>
      </trkpt>
      <trkpt lat="42.6183517836034297943115234375" lon="2.7372967265546321868896484375">
        <ele>224.600006103515625</ele>
        <time>2023-08-19T17:56:26.000Z</time>
        <extensions>
          <ns3:TrackPointExtension>
            <ns3:hr>160</ns3:hr>
            <ns3:cad>84</ns3:cad>
          </ns3:TrackPointExtension>
        </extensions>
      </trkpt>
      <trkpt lat="42.6183333434164524078369140625" lon="2.737330757081508636474609375">
        <ele>224.600006103515625</ele>
        <time>2023-08-19T17:56:27.000Z</time>
        <extensions>
          <ns3:TrackPointExtension>
            <ns3:hr>160</ns3:hr>
            <ns3:cad>84</ns3:cad>
          </ns3:TrackPointExtension>
        </extensions>
      </trkpt>
      <trkpt lat="42.61831398122012615203857421875" lon="2.73736788891255855560302734375">
        <ele>224.600006103515625</ele>
        <time>2023-08-19T17:56:28.000Z</time>
        <extensions>
          <ns3:TrackPointExtension>
            <ns3:hr>160</ns3:hr>
            <ns3:cad>84</ns3:cad>
          </ns3:TrackPointExtension>
        </extensions>
      </trkpt>
      <trkpt lat="42.61830073781311511993408203125" lon="2.7374013327062129974365234375">
        <ele>224.399993896484375</ele>
        <time>2023-08-19T17:56:29.000Z</time>
        <extensions>
          <ns3:TrackPointExtension>
            <ns3:hr>160</ns3:hr>
            <ns3:cad>84</ns3:cad>
          </ns3:TrackPointExtension>
        </extensions>
      </trkpt>
      <trkpt lat="42.618278525769710540771484375" lon="2.73744181729853153228759765625">
        <ele>224.399993896484375</ele>
        <time>2023-08-19T17:56:30.000Z</time>
        <extensions>
          <ns3:TrackPointExtension>
            <ns3:hr>160</ns3:hr>
            <ns3:cad>84</ns3:cad>
          </ns3:TrackPointExtension>
        </extensions>
      </trkpt>
      <trkpt lat="42.61826218105852603912353515625" lon="2.7374717406928539276123046875">
        <ele>224.399993896484375</ele>
        <time>2023-08-19T17:56:31.000Z</time>
        <extensions>
          <ns3:TrackPointExtension>
            <ns3:hr>160</ns3:hr>
            <ns3:cad>84</ns3:cad>
          </ns3:TrackPointExtension>
        </extensions>
      </trkpt>
      <trkpt lat="42.6182438246905803680419921875" lon="2.7375062741339206695556640625">
        <ele>224</ele>
        <time>2023-08-19T17:56:32.000Z</time>
        <extensions>
          <ns3:TrackPointExtension>
            <ns3:hr>161</ns3:hr>
            <ns3:cad>84</ns3:cad>
          </ns3:TrackPointExtension>
        </extensions>
      </trkpt>
      <trkpt lat="42.6182247139513492584228515625" lon="2.73753955028951168060302734375">
        <ele>223.8000030517578125</ele>
        <time>2023-08-19T17:56:33.000Z</time>
        <extensions>
          <ns3:TrackPointExtension>
            <ns3:hr>161</ns3:hr>
            <ns3:cad>84</ns3:cad>
          </ns3:TrackPointExtension>
        </extensions>
      </trkpt>
      <trkpt lat="42.61821172200143337249755859375" lon="2.7375686354935169219970703125">
        <ele>223.8000030517578125</ele>
        <time>2023-08-19T17:56:34.000Z</time>
        <extensions>
          <ns3:TrackPointExtension>
            <ns3:hr>162</ns3:hr>
            <ns3:cad>84</ns3:cad>
          </ns3:TrackPointExtension>
        </extensions>
      </trkpt>
      <trkpt lat="42.61819361709058284759521484375" lon="2.7375991456210613250732421875">
        <ele>223.600006103515625</ele>
        <time>2023-08-19T17:56:35.000Z</time>
        <extensions>
          <ns3:TrackPointExtension>
            <ns3:hr>162</ns3:hr>
            <ns3:cad>84</ns3:cad>
          </ns3:TrackPointExtension>
        </extensions>
      </trkpt>
      <trkpt lat="42.6181760989129543304443359375" lon="2.73763141594827175140380859375">
        <ele>223.399993896484375</ele>
        <time>2023-08-19T17:56:36.000Z</time>
        <extensions>
          <ns3:TrackPointExtension>
            <ns3:hr>162</ns3:hr>
            <ns3:cad>84</ns3:cad>
          </ns3:TrackPointExtension>
        </extensions>
      </trkpt>
      <trkpt lat="42.61816210113465785980224609375" lon="2.737662009894847869873046875">
        <ele>223.399993896484375</ele>
        <time>2023-08-19T17:56:37.000Z</time>
        <extensions>
          <ns3:TrackPointExtension>
            <ns3:hr>162</ns3:hr>
            <ns3:cad>84</ns3:cad>
          </ns3:TrackPointExtension>
        </extensions>
      </trkpt>
      <trkpt lat="42.61814567260444164276123046875" lon="2.737694196403026580810546875">
        <ele>223.399993896484375</ele>
        <time>2023-08-19T17:56:38.000Z</time>
        <extensions>
          <ns3:TrackPointExtension>
            <ns3:hr>162</ns3:hr>
            <ns3:cad>84</ns3:cad>
          </ns3:TrackPointExtension>
        </extensions>
      </trkpt>
      <trkpt lat="42.61813276447355747222900390625" lon="2.7377255447208881378173828125">
        <ele>223.1999969482421875</ele>
        <time>2023-08-19T17:56:39.000Z</time>
        <extensions>
          <ns3:TrackPointExtension>
            <ns3:hr>162</ns3:hr>
            <ns3:cad>84</ns3:cad>
          </ns3:TrackPointExtension>
        </extensions>
      </trkpt>
      <trkpt lat="42.61811147443950176239013671875" lon="2.73775915615260601043701171875">
        <ele>223.1999969482421875</ele>
        <time>2023-08-19T17:56:40.000Z</time>
        <extensions>
          <ns3:TrackPointExtension>
            <ns3:hr>162</ns3:hr>
            <ns3:cad>83</ns3:cad>
          </ns3:TrackPointExtension>
        </extensions>
      </trkpt>
      <trkpt lat="42.6180912740528583526611328125" lon="2.7377902530133724212646484375">
        <ele>223.1999969482421875</ele>
        <time>2023-08-19T17:56:41.000Z</time>
        <extensions>
          <ns3:TrackPointExtension>
            <ns3:hr>162</ns3:hr>
            <ns3:cad>84</ns3:cad>
          </ns3:TrackPointExtension>
        </extensions>
      </trkpt>
      <trkpt lat="42.61807073839008808135986328125" lon="2.7378247864544391632080078125">
        <ele>223</ele>
        <time>2023-08-19T17:56:42.000Z</time>
        <extensions>
          <ns3:TrackPointExtension>
            <ns3:hr>162</ns3:hr>
            <ns3:cad>84</ns3:cad>
          </ns3:TrackPointExtension>
        </extensions>
      </trkpt>
      <trkpt lat="42.6180527172982692718505859375" lon="2.73785487748682498931884765625">
        <ele>222.600006103515625</ele>
        <time>2023-08-19T17:56:43.000Z</time>
        <extensions>
          <ns3:TrackPointExtension>
            <ns3:hr>162</ns3:hr>
            <ns3:cad>84</ns3:cad>
          </ns3:TrackPointExtension>
        </extensions>
      </trkpt>
      <trkpt lat="42.61803813278675079345703125" lon="2.737887986004352569580078125">
        <ele>222.1999969482421875</ele>
        <time>2023-08-19T17:56:44.000Z</time>
        <extensions>
          <ns3:TrackPointExtension>
            <ns3:hr>163</ns3:hr>
            <ns3:cad>84</ns3:cad>
          </ns3:TrackPointExtension>
        </extensions>
      </trkpt>
      <trkpt lat="42.61802136898040771484375" lon="2.73791472427546977996826171875">
        <ele>222.1999969482421875</ele>
        <time>2023-08-19T17:56:45.000Z</time>
        <extensions>
          <ns3:TrackPointExtension>
            <ns3:hr>163</ns3:hr>
            <ns3:cad>84</ns3:cad>
          </ns3:TrackPointExtension>
        </extensions>
      </trkpt>
      <trkpt lat="42.6180024258792400360107421875" lon="2.73794456385076045989990234375">
        <ele>222</ele>
        <time>2023-08-19T17:56:46.000Z</time>
        <extensions>
          <ns3:TrackPointExtension>
            <ns3:hr>163</ns3:hr>
            <ns3:cad>84</ns3:cad>
          </ns3:TrackPointExtension>
        </extensions>
      </trkpt>
      <trkpt lat="42.61798524297773838043212890625" lon="2.73797549307346343994140625">
        <ele>221.600006103515625</ele>
        <time>2023-08-19T17:56:47.000Z</time>
        <extensions>
          <ns3:TrackPointExtension>
            <ns3:hr>163</ns3:hr>
            <ns3:cad>84</ns3:cad>
          </ns3:TrackPointExtension>
        </extensions>
      </trkpt>
      <trkpt lat="42.617964036762714385986328125" lon="2.7380078472197055816650390625">
        <ele>221.600006103515625</ele>
        <time>2023-08-19T17:56:48.000Z</time>
        <extensions>
          <ns3:TrackPointExtension>
            <ns3:hr>163</ns3:hr>
            <ns3:cad>84</ns3:cad>
          </ns3:TrackPointExtension>
        </extensions>
      </trkpt>
      <trkpt lat="42.61794601567089557647705078125" lon="2.7380396984517574310302734375">
        <ele>221.399993896484375</ele>
        <time>2023-08-19T17:56:49.000Z</time>
        <extensions>
          <ns3:TrackPointExtension>
            <ns3:hr>163</ns3:hr>
            <ns3:cad>84</ns3:cad>
          </ns3:TrackPointExtension>
        </extensions>
      </trkpt>
      <trkpt lat="42.61792137287557125091552734375" lon="2.7380742318928241729736328125">
        <ele>221.399993896484375</ele>
        <time>2023-08-19T17:56:50.000Z</time>
        <extensions>
          <ns3:TrackPointExtension>
            <ns3:hr>162</ns3:hr>
            <ns3:cad>84</ns3:cad>
          </ns3:TrackPointExtension>
        </extensions>
      </trkpt>
      <trkpt lat="42.61790142394602298736572265625" lon="2.7381022274494171142578125">
        <ele>221.399993896484375</ele>
        <time>2023-08-19T17:56:51.000Z</time>
        <extensions>
          <ns3:TrackPointExtension>
            <ns3:hr>162</ns3:hr>
            <ns3:cad>84</ns3:cad>
          </ns3:TrackPointExtension>
        </extensions>
      </trkpt>
      <trkpt lat="42.61787879280745983123779296875" lon="2.73813374340534210205078125">
        <ele>221.399993896484375</ele>
        <time>2023-08-19T17:56:52.000Z</time>
        <extensions>
          <ns3:TrackPointExtension>
            <ns3:hr>162</ns3:hr>
            <ns3:cad>85</ns3:cad>
          </ns3:TrackPointExtension>
        </extensions>
      </trkpt>
      <trkpt lat="42.61785364709794521331787109375" lon="2.73816266097128391265869140625">
        <ele>221.1999969482421875</ele>
        <time>2023-08-19T17:56:53.000Z</time>
        <extensions>
          <ns3:TrackPointExtension>
            <ns3:hr>162</ns3:hr>
            <ns3:cad>85</ns3:cad>
          </ns3:TrackPointExtension>
        </extensions>
      </trkpt>
      <trkpt lat="42.61782866902649402618408203125" lon="2.73819350637495517730712890625">
        <ele>221.1999969482421875</ele>
        <time>2023-08-19T17:56:54.000Z</time>
        <extensions>
          <ns3:TrackPointExtension>
            <ns3:hr>162</ns3:hr>
            <ns3:cad>85</ns3:cad>
          </ns3:TrackPointExtension>
        </extensions>
      </trkpt>
      <trkpt lat="42.61780167929828166961669921875" lon="2.7382200770080089569091796875">
        <ele>221</ele>
        <time>2023-08-19T17:56:55.000Z</time>
        <extensions>
          <ns3:TrackPointExtension>
            <ns3:hr>162</ns3:hr>
            <ns3:cad>85</ns3:cad>
          </ns3:TrackPointExtension>
        </extensions>
      </trkpt>
      <trkpt lat="42.6177794672548770904541015625" lon="2.73824631236493587493896484375">
        <ele>220.8000030517578125</ele>
        <time>2023-08-19T17:56:56.000Z</time>
        <extensions>
          <ns3:TrackPointExtension>
            <ns3:hr>162</ns3:hr>
            <ns3:cad>84</ns3:cad>
          </ns3:TrackPointExtension>
        </extensions>
      </trkpt>
      <trkpt lat="42.617750130593776702880859375" lon="2.73827581666409969329833984375">
        <ele>220.600006103515625</ele>
        <time>2023-08-19T17:56:57.000Z</time>
        <extensions>
          <ns3:TrackPointExtension>
            <ns3:hr>161</ns3:hr>
            <ns3:cad>85</ns3:cad>
          </ns3:TrackPointExtension>
        </extensions>
      </trkpt>
      <trkpt lat="42.61772523634135723114013671875" lon="2.73829962126910686492919921875">
        <ele>220.600006103515625</ele>
        <time>2023-08-19T17:56:58.000Z</time>
        <extensions>
          <ns3:TrackPointExtension>
            <ns3:hr>161</ns3:hr>
            <ns3:cad>85</ns3:cad>
          </ns3:TrackPointExtension>
        </extensions>
      </trkpt>
      <trkpt lat="42.6176990009844303131103515625" lon="2.7383263595402240753173828125">
        <ele>220.399993896484375</ele>
        <time>2023-08-19T17:56:59.000Z</time>
        <extensions>
          <ns3:TrackPointExtension>
            <ns3:hr>162</ns3:hr>
            <ns3:cad>85</ns3:cad>
          </ns3:TrackPointExtension>
        </extensions>
      </trkpt>
      <trkpt lat="42.61767125688493251800537109375" lon="2.738350667059421539306640625">
        <ele>220</ele>
        <time>2023-08-19T17:57:00.000Z</time>
        <extensions>
          <ns3:TrackPointExtension>
            <ns3:hr>161</ns3:hr>
            <ns3:cad>85</ns3:cad>
          </ns3:TrackPointExtension>
        </extensions>
      </trkpt>
      <trkpt lat="42.617645524442195892333984375" lon="2.73837606422603130340576171875">
        <ele>219.8000030517578125</ele>
        <time>2023-08-19T17:57:01.000Z</time>
        <extensions>
          <ns3:TrackPointExtension>
            <ns3:hr>161</ns3:hr>
            <ns3:cad>86</ns3:cad>
          </ns3:TrackPointExtension>
        </extensions>
      </trkpt>
      <trkpt lat="42.61762063018977642059326171875" lon="2.7384014613926410675048828125">
        <ele>219.600006103515625</ele>
        <time>2023-08-19T17:57:02.000Z</time>
        <extensions>
          <ns3:TrackPointExtension>
            <ns3:hr>161</ns3:hr>
            <ns3:cad>86</ns3:cad>
          </ns3:TrackPointExtension>
        </extensions>
      </trkpt>
      <trkpt lat="42.617600597441196441650390625" lon="2.7384292893111705780029296875">
        <ele>219.600006103515625</ele>
        <time>2023-08-19T17:57:03.000Z</time>
        <extensions>
          <ns3:TrackPointExtension>
            <ns3:hr>161</ns3:hr>
            <ns3:cad>86</ns3:cad>
          </ns3:TrackPointExtension>
        </extensions>
      </trkpt>
      <trkpt lat="42.61757268570363521575927734375" lon="2.73845183663070201873779296875">
        <ele>219.1999969482421875</ele>
        <time>2023-08-19T17:57:04.000Z</time>
        <extensions>
          <ns3:TrackPointExtension>
            <ns3:hr>161</ns3:hr>
            <ns3:cad>86</ns3:cad>
          </ns3:TrackPointExtension>
        </extensions>
      </trkpt>
      <trkpt lat="42.61754971928894519805908203125" lon="2.73847513832151889801025390625">
        <ele>219</ele>
        <time>2023-08-19T17:57:05.000Z</time>
        <extensions>
          <ns3:TrackPointExtension>
            <ns3:hr>161</ns3:hr>
            <ns3:cad>86</ns3:cad>
          </ns3:TrackPointExtension>
        </extensions>
      </trkpt>
      <trkpt lat="42.617526836693286895751953125" lon="2.738498859107494354248046875">
        <ele>218.8000030517578125</ele>
        <time>2023-08-19T17:57:06.000Z</time>
        <extensions>
          <ns3:TrackPointExtension>
            <ns3:hr>161</ns3:hr>
            <ns3:cad>85</ns3:cad>
          </ns3:TrackPointExtension>
        </extensions>
      </trkpt>
      <trkpt lat="42.61750026606023311614990234375" lon="2.738519646227359771728515625">
        <ele>218.600006103515625</ele>
        <time>2023-08-19T17:57:07.000Z</time>
        <extensions>
          <ns3:TrackPointExtension>
            <ns3:hr>161</ns3:hr>
            <ns3:cad>85</ns3:cad>
          </ns3:TrackPointExtension>
        </extensions>
      </trkpt>
      <trkpt lat="42.61747595854103565216064453125" lon="2.738542445003986358642578125">
        <ele>218.399993896484375</ele>
        <time>2023-08-19T17:57:08.000Z</time>
        <extensions>
          <ns3:TrackPointExtension>
            <ns3:hr>160</ns3:hr>
            <ns3:cad>85</ns3:cad>
          </ns3:TrackPointExtension>
        </extensions>
      </trkpt>
      <trkpt lat="42.61745232157409191131591796875" lon="2.73856415413320064544677734375">
        <ele>218.399993896484375</ele>
        <time>2023-08-19T17:57:09.000Z</time>
        <extensions>
          <ns3:TrackPointExtension>
            <ns3:hr>160</ns3:hr>
            <ns3:cad>86</ns3:cad>
          </ns3:TrackPointExtension>
        </extensions>
      </trkpt>
      <trkpt lat="42.6174307800829410552978515625" lon="2.738582678139209747314453125">
        <ele>218.399993896484375</ele>
        <time>2023-08-19T17:57:10.000Z</time>
        <extensions>
          <ns3:TrackPointExtension>
            <ns3:hr>160</ns3:hr>
            <ns3:cad>86</ns3:cad>
          </ns3:TrackPointExtension>
        </extensions>
      </trkpt>
      <trkpt lat="42.61739783920347690582275390625" lon="2.738601453602313995361328125">
        <ele>218</ele>
        <time>2023-08-19T17:57:11.000Z</time>
        <extensions>
          <ns3:TrackPointExtension>
            <ns3:hr>160</ns3:hr>
            <ns3:cad>85</ns3:cad>
          </ns3:TrackPointExtension>
        </extensions>
      </trkpt>
      <trkpt lat="42.61737369932234287261962890625" lon="2.73861612193286418914794921875">
        <ele>218</ele>
        <time>2023-08-19T17:57:12.000Z</time>
        <extensions>
          <ns3:TrackPointExtension>
            <ns3:hr>160</ns3:hr>
            <ns3:cad>85</ns3:cad>
          </ns3:TrackPointExtension>
        </extensions>
      </trkpt>
      <trkpt lat="42.617347128689289093017578125" lon="2.7386317960917949676513671875">
        <ele>217.8000030517578125</ele>
        <time>2023-08-19T17:57:13.000Z</time>
        <extensions>
          <ns3:TrackPointExtension>
            <ns3:hr>159</ns3:hr>
            <ns3:cad>86</ns3:cad>
          </ns3:TrackPointExtension>
        </extensions>
      </trkpt>
      <trkpt lat="42.617318965494632720947265625" lon="2.73865233175456523895263671875">
        <ele>217.8000030517578125</ele>
        <time>2023-08-19T17:57:14.000Z</time>
        <extensions>
          <ns3:TrackPointExtension>
            <ns3:hr>159</ns3:hr>
            <ns3:cad>86</ns3:cad>
          </ns3:TrackPointExtension>
        </extensions>
      </trkpt>
      <trkpt lat="42.61729960329830646514892578125" lon="2.738673873245716094970703125">
        <ele>217.399993896484375</ele>
        <time>2023-08-19T17:57:15.000Z</time>
        <extensions>
          <ns3:TrackPointExtension>
            <ns3:hr>159</ns3:hr>
            <ns3:cad>86</ns3:cad>
          </ns3:TrackPointExtension>
        </extensions>
      </trkpt>
      <trkpt lat="42.6172758825123310089111328125" lon="2.73870010860264301300048828125">
        <ele>217.399993896484375</ele>
        <time>2023-08-19T17:57:16.000Z</time>
        <extensions>
          <ns3:TrackPointExtension>
            <ns3:hr>159</ns3:hr>
            <ns3:cad>86</ns3:cad>
          </ns3:TrackPointExtension>
        </extensions>
      </trkpt>
      <trkpt lat="42.61725819669663906097412109375" lon="2.7387290261685848236083984375">
        <ele>217.1999969482421875</ele>
        <time>2023-08-19T17:57:17.000Z</time>
        <extensions>
          <ns3:TrackPointExtension>
            <ns3:hr>159</ns3:hr>
            <ns3:cad>86</ns3:cad>
          </ns3:TrackPointExtension>
        </extensions>
      </trkpt>
      <trkpt lat="42.61723388917744159698486328125" lon="2.7387566864490509033203125">
        <ele>217.1999969482421875</ele>
        <time>2023-08-19T17:57:18.000Z</time>
        <extensions>
          <ns3:TrackPointExtension>
            <ns3:hr>159</ns3:hr>
            <ns3:cad>86</ns3:cad>
          </ns3:TrackPointExtension>
        </extensions>
      </trkpt>
      <trkpt lat="42.6172125153243541717529296875" lon="2.73877906613051891326904296875">
        <ele>217.1999969482421875</ele>
        <time>2023-08-19T17:57:19.000Z</time>
        <extensions>
          <ns3:TrackPointExtension>
            <ns3:hr>159</ns3:hr>
            <ns3:cad>86</ns3:cad>
          </ns3:TrackPointExtension>
        </extensions>
      </trkpt>
      <trkpt lat="42.6171877048909664154052734375" lon="2.738801948726177215576171875">
        <ele>217</ele>
        <time>2023-08-19T17:57:20.000Z</time>
        <extensions>
          <ns3:TrackPointExtension>
            <ns3:hr>159</ns3:hr>
            <ns3:cad>86</ns3:cad>
          </ns3:TrackPointExtension>
        </extensions>
      </trkpt>
      <trkpt lat="42.61716105043888092041015625" lon="2.73882684297859668731689453125">
        <ele>217</ele>
        <time>2023-08-19T17:57:21.000Z</time>
        <extensions>
          <ns3:TrackPointExtension>
            <ns3:hr>159</ns3:hr>
            <ns3:cad>86</ns3:cad>
          </ns3:TrackPointExtension>
        </extensions>
      </trkpt>
      <trkpt lat="42.61713967658579349517822265625" lon="2.73884880356490612030029296875">
        <ele>216.8000030517578125</ele>
        <time>2023-08-19T17:57:22.000Z</time>
        <extensions>
          <ns3:TrackPointExtension>
            <ns3:hr>159</ns3:hr>
            <ns3:cad>86</ns3:cad>
          </ns3:TrackPointExtension>
        </extensions>
      </trkpt>
      <trkpt lat="42.617113105952739715576171875" lon="2.73886908777058124542236328125">
        <ele>216.8000030517578125</ele>
        <time>2023-08-19T17:57:23.000Z</time>
        <extensions>
          <ns3:TrackPointExtension>
            <ns3:hr>159</ns3:hr>
            <ns3:cad>86</ns3:cad>
          </ns3:TrackPointExtension>
        </extensions>
      </trkpt>
      <trkpt lat="42.61709206737577915191650390625" lon="2.7388916350901126861572265625">
        <ele>216.600006103515625</ele>
        <time>2023-08-19T17:57:24.000Z</time>
        <extensions>
          <ns3:TrackPointExtension>
            <ns3:hr>159</ns3:hr>
            <ns3:cad>86</ns3:cad>
          </ns3:TrackPointExtension>
        </extensions>
      </trkpt>
      <trkpt lat="42.617068178951740264892578125" lon="2.73891166783869266510009765625">
        <ele>216.600006103515625</ele>
        <time>2023-08-19T17:57:25.000Z</time>
        <extensions>
          <ns3:TrackPointExtension>
            <ns3:hr>159</ns3:hr>
            <ns3:cad>86</ns3:cad>
          </ns3:TrackPointExtension>
        </extensions>
      </trkpt>
      <trkpt lat="42.61704496107995510101318359375" lon="2.73893304169178009033203125">
        <ele>216.600006103515625</ele>
        <time>2023-08-19T17:57:26.000Z</time>
        <extensions>
          <ns3:TrackPointExtension>
            <ns3:hr>159</ns3:hr>
            <ns3:cad>86</ns3:cad>
          </ns3:TrackPointExtension>
        </extensions>
      </trkpt>
      <trkpt lat="42.61701495386660099029541015625" lon="2.7389546670019626617431640625">
        <ele>216.399993896484375</ele>
        <time>2023-08-19T17:57:27.000Z</time>
        <extensions>
          <ns3:TrackPointExtension>
            <ns3:hr>159</ns3:hr>
            <ns3:cad>86</ns3:cad>
          </ns3:TrackPointExtension>
        </extensions>
      </trkpt>
      <trkpt lat="42.61698662303388118743896484375" lon="2.738969586789608001708984375">
        <ele>216.399993896484375</ele>
        <time>2023-08-19T17:57:28.000Z</time>
        <extensions>
          <ns3:TrackPointExtension>
            <ns3:hr>159</ns3:hr>
            <ns3:cad>86</ns3:cad>
          </ns3:TrackPointExtension>
        </extensions>
      </trkpt>
      <trkpt lat="42.61695996858179569244384765625" lon="2.73898710496723651885986328125">
        <ele>216.399993896484375</ele>
        <time>2023-08-19T17:57:29.000Z</time>
        <extensions>
          <ns3:TrackPointExtension>
            <ns3:hr>159</ns3:hr>
            <ns3:cad>86</ns3:cad>
          </ns3:TrackPointExtension>
        </extensions>
      </trkpt>
      <trkpt lat="42.616931386291980743408203125" lon="2.7389980852603912353515625">
        <ele>216.399993896484375</ele>
        <time>2023-08-19T17:57:30.000Z</time>
        <extensions>
          <ns3:TrackPointExtension>
            <ns3:hr>159</ns3:hr>
            <ns3:cad>85</ns3:cad>
          </ns3:TrackPointExtension>
        </extensions>
      </trkpt>
      <trkpt lat="42.61690892279148101806640625" lon="2.7390143461525440216064453125">
        <ele>216.399993896484375</ele>
        <time>2023-08-19T17:57:31.000Z</time>
        <extensions>
          <ns3:TrackPointExtension>
            <ns3:hr>160</ns3:hr>
            <ns3:cad>85</ns3:cad>
          </ns3:TrackPointExtension>
        </extensions>
      </trkpt>
      <trkpt lat="42.61688000522553920745849609375" lon="2.7390270866453647613525390625">
        <ele>216.600006103515625</ele>
        <time>2023-08-19T17:57:32.000Z</time>
        <extensions>
          <ns3:TrackPointExtension>
            <ns3:hr>160</ns3:hr>
            <ns3:cad>85</ns3:cad>
          </ns3:TrackPointExtension>
        </extensions>
      </trkpt>
      <trkpt lat="42.61685452423989772796630859375" lon="2.73903572000563144683837890625">
        <ele>216.399993896484375</ele>
        <time>2023-08-19T17:57:33.000Z</time>
        <extensions>
          <ns3:TrackPointExtension>
            <ns3:hr>159</ns3:hr>
            <ns3:cad>85</ns3:cad>
          </ns3:TrackPointExtension>
        </extensions>
      </trkpt>
      <trkpt lat="42.61682401411235332489013671875" lon="2.739043347537517547607421875">
        <ele>216.399993896484375</ele>
        <time>2023-08-19T17:57:34.000Z</time>
        <extensions>
          <ns3:TrackPointExtension>
            <ns3:hr>161</ns3:hr>
            <ns3:cad>85</ns3:cad>
          </ns3:TrackPointExtension>
        </extensions>
      </trkpt>
      <trkpt lat="42.61679082177579402923583984375" lon="2.73904762230813503265380859375">
        <ele>216.600006103515625</ele>
        <time>2023-08-19T17:57:35.000Z</time>
        <extensions>
          <ns3:TrackPointExtension>
            <ns3:hr>160</ns3:hr>
            <ns3:cad>85</ns3:cad>
          </ns3:TrackPointExtension>
        </extensions>
      </trkpt>
      <trkpt lat="42.61676232330501079559326171875" lon="2.73905784823000431060791015625">
        <ele>216.399993896484375</ele>
        <time>2023-08-19T17:57:36.000Z</time>
        <extensions>
          <ns3:TrackPointExtension>
            <ns3:hr>161</ns3:hr>
            <ns3:cad>85</ns3:cad>
          </ns3:TrackPointExtension>
        </extensions>
      </trkpt>
      <trkpt lat="42.61673189699649810791015625" lon="2.73906203918159008026123046875">
        <ele>216.399993896484375</ele>
        <time>2023-08-19T17:57:37.000Z</time>
        <extensions>
          <ns3:TrackPointExtension>
            <ns3:hr>160</ns3:hr>
            <ns3:cad>85</ns3:cad>
          </ns3:TrackPointExtension>
        </extensions>
      </trkpt>
      <trkpt lat="42.616710104048252105712890625" lon="2.73906539194285869598388671875">
        <ele>216.399993896484375</ele>
        <time>2023-08-19T17:57:38.000Z</time>
        <extensions>
          <ns3:TrackPointExtension>
            <ns3:hr>160</ns3:hr>
            <ns3:cad>85</ns3:cad>
          </ns3:TrackPointExtension>
        </extensions>
      </trkpt>
      <trkpt lat="42.61668101884424686431884765625" lon="2.73906354792416095733642578125">
        <ele>216.399993896484375</ele>
        <time>2023-08-19T17:57:39.000Z</time>
        <extensions>
          <ns3:TrackPointExtension>
            <ns3:hr>159</ns3:hr>
            <ns3:cad>85</ns3:cad>
          </ns3:TrackPointExtension>
        </extensions>
      </trkpt>
      <trkpt lat="42.616655789315700531005859375" lon="2.73905885405838489532470703125">
        <ele>216.600006103515625</ele>
        <time>2023-08-19T17:57:40.000Z</time>
        <extensions>
          <ns3:TrackPointExtension>
            <ns3:hr>160</ns3:hr>
            <ns3:cad>84</ns3:cad>
          </ns3:TrackPointExtension>
        </extensions>
      </trkpt>
      <trkpt lat="42.61662787757813930511474609375" lon="2.73905642330646514892578125">
        <ele>216.8000030517578125</ele>
        <time>2023-08-19T17:57:41.000Z</time>
        <extensions>
          <ns3:TrackPointExtension>
            <ns3:hr>160</ns3:hr>
            <ns3:cad>84</ns3:cad>
          </ns3:TrackPointExtension>
        </extensions>
      </trkpt>
      <trkpt lat="42.6165969483554363250732421875" lon="2.73904695175588130950927734375">
        <ele>217.1999969482421875</ele>
        <time>2023-08-19T17:57:42.000Z</time>
        <extensions>
          <ns3:TrackPointExtension>
            <ns3:hr>160</ns3:hr>
            <ns3:cad>84</ns3:cad>
          </ns3:TrackPointExtension>
        </extensions>
      </trkpt>
      <trkpt lat="42.6165697909891605377197265625" lon="2.73904167115688323974609375">
        <ele>217.399993896484375</ele>
        <time>2023-08-19T17:57:43.000Z</time>
        <extensions>
          <ns3:TrackPointExtension>
            <ns3:hr>160</ns3:hr>
            <ns3:cad>84</ns3:cad>
          </ns3:TrackPointExtension>
        </extensions>
      </trkpt>
      <trkpt lat="42.616540454328060150146484375" lon="2.73903094232082366943359375">
        <ele>217.399993896484375</ele>
        <time>2023-08-19T17:57:44.000Z</time>
        <extensions>
          <ns3:TrackPointExtension>
            <ns3:hr>159</ns3:hr>
            <ns3:cad>84</ns3:cad>
          </ns3:TrackPointExtension>
        </extensions>
      </trkpt>
      <trkpt lat="42.6165171526372432708740234375" lon="2.73901845328509807586669921875">
        <ele>217.399993896484375</ele>
        <time>2023-08-19T17:57:45.000Z</time>
        <extensions>
          <ns3:TrackPointExtension>
            <ns3:hr>159</ns3:hr>
            <ns3:cad>84</ns3:cad>
          </ns3:TrackPointExtension>
        </extensions>
      </trkpt>
      <trkpt lat="42.6164930127561092376708984375" lon="2.73900822736322879791259765625">
        <ele>217.8000030517578125</ele>
        <time>2023-08-19T17:57:46.000Z</time>
        <extensions>
          <ns3:TrackPointExtension>
            <ns3:hr>159</ns3:hr>
            <ns3:cad>84</ns3:cad>
          </ns3:TrackPointExtension>
        </extensions>
      </trkpt>
      <trkpt lat="42.61646694503724575042724609375" lon="2.73899598978459835052490234375">
        <ele>217.8000030517578125</ele>
        <time>2023-08-19T17:57:47.000Z</time>
        <extensions>
          <ns3:TrackPointExtension>
            <ns3:hr>159</ns3:hr>
            <ns3:cad>84</ns3:cad>
          </ns3:TrackPointExtension>
        </extensions>
      </trkpt>
      <trkpt lat="42.6164402067661285400390625" lon="2.7389865182340145111083984375">
        <ele>218</ele>
        <time>2023-08-19T17:57:48.000Z</time>
        <extensions>
          <ns3:TrackPointExtension>
            <ns3:hr>159</ns3:hr>
            <ns3:cad>84</ns3:cad>
          </ns3:TrackPointExtension>
        </extensions>
      </trkpt>
      <trkpt lat="42.616409696638584136962890625" lon="2.73896967060863971710205078125">
        <ele>218</ele>
        <time>2023-08-19T17:57:49.000Z</time>
        <extensions>
          <ns3:TrackPointExtension>
            <ns3:hr>160</ns3:hr>
            <ns3:cad>84</ns3:cad>
          </ns3:TrackPointExtension>
        </extensions>
      </trkpt>
      <trkpt lat="42.6163823716342449188232421875" lon="2.73895391263067722320556640625">
        <ele>218</ele>
        <time>2023-08-19T17:57:50.000Z</time>
        <extensions>
          <ns3:TrackPointExtension>
            <ns3:hr>160</ns3:hr>
            <ns3:cad>84</ns3:cad>
          </ns3:TrackPointExtension>
        </extensions>
      </trkpt>
      <trkpt lat="42.61635429225862026214599609375" lon="2.73893698118627071380615234375">
        <ele>218.1999969482421875</ele>
        <time>2023-08-19T17:57:51.000Z</time>
        <extensions>
          <ns3:TrackPointExtension>
            <ns3:hr>160</ns3:hr>
            <ns3:cad>84</ns3:cad>
          </ns3:TrackPointExtension>
        </extensions>
      </trkpt>
      <trkpt lat="42.6163273863494396209716796875" lon="2.7389176189899444580078125">
        <ele>218.1999969482421875</ele>
        <time>2023-08-19T17:57:52.000Z</time>
        <extensions>
          <ns3:TrackPointExtension>
            <ns3:hr>160</ns3:hr>
            <ns3:cad>84</ns3:cad>
          </ns3:TrackPointExtension>
        </extensions>
      </trkpt>
      <trkpt lat="42.61630274355411529541015625" lon="2.73890714161098003387451171875">
        <ele>218.399993896484375</ele>
        <time>2023-08-19T17:57:53.000Z</time>
        <extensions>
          <ns3:TrackPointExtension>
            <ns3:hr>160</ns3:hr>
            <ns3:cad>84</ns3:cad>
          </ns3:TrackPointExtension>
        </extensions>
      </trkpt>
      <trkpt lat="42.61628187261521816253662109375" lon="2.738894484937191009521484375">
        <ele>218.399993896484375</ele>
        <time>2023-08-19T17:57:54.000Z</time>
        <extensions>
          <ns3:TrackPointExtension>
            <ns3:hr>161</ns3:hr>
            <ns3:cad>84</ns3:cad>
          </ns3:TrackPointExtension>
        </extensions>
      </trkpt>
      <trkpt lat="42.61625890620052814483642578125" lon="2.7388799004256725311279296875">
        <ele>218.600006103515625</ele>
        <time>2023-08-19T17:57:55.000Z</time>
        <extensions>
          <ns3:TrackPointExtension>
            <ns3:hr>161</ns3:hr>
            <ns3:cad>84</ns3:cad>
          </ns3:TrackPointExtension>
        </extensions>
      </trkpt>
      <trkpt lat="42.6162341795861721038818359375" lon="2.7388654835522174835205078125">
        <ele>218.8000030517578125</ele>
        <time>2023-08-19T17:57:56.000Z</time>
        <extensions>
          <ns3:TrackPointExtension>
            <ns3:hr>161</ns3:hr>
            <ns3:cad>84</ns3:cad>
          </ns3:TrackPointExtension>
        </extensions>
      </trkpt>
      <trkpt lat="42.61620593257248401641845703125" lon="2.73884612135589122772216796875">
        <ele>219</ele>
        <time>2023-08-19T17:57:57.000Z</time>
        <extensions>
          <ns3:TrackPointExtension>
            <ns3:hr>161</ns3:hr>
            <ns3:cad>84</ns3:cad>
          </ns3:TrackPointExtension>
        </extensions>
      </trkpt>
      <trkpt lat="42.6161825470626354217529296875" lon="2.7388296090066432952880859375">
        <ele>219</ele>
        <time>2023-08-19T17:57:58.000Z</time>
        <extensions>
          <ns3:TrackPointExtension>
            <ns3:hr>162</ns3:hr>
            <ns3:cad>84</ns3:cad>
          </ns3:TrackPointExtension>
        </extensions>
      </trkpt>
      <trkpt lat="42.6161547191441059112548828125" lon="2.73880454711616039276123046875">
        <ele>219.1999969482421875</ele>
        <time>2023-08-19T17:57:59.000Z</time>
        <extensions>
          <ns3:TrackPointExtension>
            <ns3:hr>162</ns3:hr>
            <ns3:cad>84</ns3:cad>
          </ns3:TrackPointExtension>
        </extensions>
      </trkpt>
      <trkpt lat="42.61613108217716217041015625" lon="2.73878694511950016021728515625">
        <ele>219.1999969482421875</ele>
        <time>2023-08-19T17:58:00.000Z</time>
        <extensions>
          <ns3:TrackPointExtension>
            <ns3:hr>162</ns3:hr>
            <ns3:cad>84</ns3:cad>
          </ns3:TrackPointExtension>
        </extensions>
      </trkpt>
      <trkpt lat="42.61610903777182102203369140625" lon="2.73877068422734737396240234375">
        <ele>219.399993896484375</ele>
        <time>2023-08-19T17:58:01.000Z</time>
        <extensions>
          <ns3:TrackPointExtension>
            <ns3:hr>162</ns3:hr>
            <ns3:cad>84</ns3:cad>
          </ns3:TrackPointExtension>
        </extensions>
      </trkpt>
      <trkpt lat="42.616083137691020965576171875" lon="2.7387518249452114105224609375">
        <ele>219.399993896484375</ele>
        <time>2023-08-19T17:58:02.000Z</time>
        <extensions>
          <ns3:TrackPointExtension>
            <ns3:hr>162</ns3:hr>
            <ns3:cad>84</ns3:cad>
          </ns3:TrackPointExtension>
        </extensions>
      </trkpt>
      <trkpt lat="42.61606008745729923248291015625" lon="2.73873749189078807830810546875">
        <ele>219.600006103515625</ele>
        <time>2023-08-19T17:58:03.000Z</time>
        <extensions>
          <ns3:TrackPointExtension>
            <ns3:hr>163</ns3:hr>
            <ns3:cad>84</ns3:cad>
          </ns3:TrackPointExtension>
        </extensions>
      </trkpt>
      <trkpt lat="42.6160343550145626068115234375" lon="2.73871771059930324554443359375">
        <ele>219.600006103515625</ele>
        <time>2023-08-19T17:58:04.000Z</time>
        <extensions>
          <ns3:TrackPointExtension>
            <ns3:hr>163</ns3:hr>
            <ns3:cad>84</ns3:cad>
          </ns3:TrackPointExtension>
        </extensions>
      </trkpt>
      <trkpt lat="42.61601029895246028900146484375" lon="2.73869524709880352020263671875">
        <ele>219.600006103515625</ele>
        <time>2023-08-19T17:58:05.000Z</time>
        <extensions>
          <ns3:TrackPointExtension>
            <ns3:hr>164</ns3:hr>
            <ns3:cad>84</ns3:cad>
          </ns3:TrackPointExtension>
        </extensions>
      </trkpt>
      <trkpt lat="42.61598481796681880950927734375" lon="2.73867580108344554901123046875">
        <ele>219.600006103515625</ele>
        <time>2023-08-19T17:58:06.000Z</time>
        <extensions>
          <ns3:TrackPointExtension>
            <ns3:hr>164</ns3:hr>
            <ns3:cad>83</ns3:cad>
          </ns3:TrackPointExtension>
        </extensions>
      </trkpt>
      <trkpt lat="42.61595916934311389923095703125" lon="2.73865048773586750030517578125">
        <ele>219.8000030517578125</ele>
        <time>2023-08-19T17:58:07.000Z</time>
        <extensions>
          <ns3:TrackPointExtension>
            <ns3:hr>164</ns3:hr>
            <ns3:cad>84</ns3:cad>
          </ns3:TrackPointExtension>
        </extensions>
      </trkpt>
      <trkpt lat="42.6159394718706607818603515625" lon="2.73862995207309722900390625">
        <ele>219.8000030517578125</ele>
        <time>2023-08-19T17:58:08.000Z</time>
        <extensions>
          <ns3:TrackPointExtension>
            <ns3:hr>164</ns3:hr>
            <ns3:cad>83</ns3:cad>
          </ns3:TrackPointExtension>
        </extensions>
      </trkpt>
      <trkpt lat="42.61591910384595394134521484375" lon="2.73860807530581951141357421875">
        <ele>219.8000030517578125</ele>
        <time>2023-08-19T17:58:09.000Z</time>
        <extensions>
          <ns3:TrackPointExtension>
            <ns3:hr>163</ns3:hr>
            <ns3:cad>83</ns3:cad>
          </ns3:TrackPointExtension>
        </extensions>
      </trkpt>
      <trkpt lat="42.615902759134769439697265625" lon="2.73858368396759033203125">
        <ele>219.8000030517578125</ele>
        <time>2023-08-19T17:58:10.000Z</time>
        <extensions>
          <ns3:TrackPointExtension>
            <ns3:hr>163</ns3:hr>
            <ns3:cad>84</ns3:cad>
          </ns3:TrackPointExtension>
        </extensions>
      </trkpt>
      <trkpt lat="42.61588105000555515289306640625" lon="2.73856482468545436859130859375">
        <ele>219.600006103515625</ele>
        <time>2023-08-19T17:58:11.000Z</time>
        <extensions>
          <ns3:TrackPointExtension>
            <ns3:hr>163</ns3:hr>
            <ns3:cad>84</ns3:cad>
          </ns3:TrackPointExtension>
        </extensions>
      </trkpt>
      <trkpt lat="42.61585741303861141204833984375" lon="2.738540433347225189208984375">
        <ele>219.600006103515625</ele>
        <time>2023-08-19T17:58:12.000Z</time>
        <extensions>
          <ns3:TrackPointExtension>
            <ns3:hr>163</ns3:hr>
            <ns3:cad>84</ns3:cad>
          </ns3:TrackPointExtension>
        </extensions>
      </trkpt>
      <trkpt lat="42.61583494953811168670654296875" lon="2.7385167963802814483642578125">
        <ele>219.600006103515625</ele>
        <time>2023-08-19T17:58:13.000Z</time>
        <extensions>
          <ns3:TrackPointExtension>
            <ns3:hr>163</ns3:hr>
            <ns3:cad>84</ns3:cad>
          </ns3:TrackPointExtension>
        </extensions>
      </trkpt>
      <trkpt lat="42.615808546543121337890625" lon="2.7384869568049907684326171875">
        <ele>219.600006103515625</ele>
        <time>2023-08-19T17:58:14.000Z</time>
        <extensions>
          <ns3:TrackPointExtension>
            <ns3:hr>163</ns3:hr>
            <ns3:cad>84</ns3:cad>
          </ns3:TrackPointExtension>
        </extensions>
      </trkpt>
      <trkpt lat="42.61578616686165332794189453125" lon="2.738461308181285858154296875">
        <ele>219.600006103515625</ele>
        <time>2023-08-19T17:58:15.000Z</time>
        <extensions>
          <ns3:TrackPointExtension>
            <ns3:hr>163</ns3:hr>
            <ns3:cad>84</ns3:cad>
          </ns3:TrackPointExtension>
        </extensions>
      </trkpt>
      <trkpt lat="42.6157600991427898406982421875" lon="2.73843993432819843292236328125">
        <ele>219.600006103515625</ele>
        <time>2023-08-19T17:58:16.000Z</time>
        <extensions>
          <ns3:TrackPointExtension>
            <ns3:hr>163</ns3:hr>
            <ns3:cad>84</ns3:cad>
          </ns3:TrackPointExtension>
        </extensions>
      </trkpt>
      <trkpt lat="42.615735121071338653564453125" lon="2.7384168840944766998291015625">
        <ele>219.399993896484375</ele>
        <time>2023-08-19T17:58:17.000Z</time>
        <extensions>
          <ns3:TrackPointExtension>
            <ns3:hr>162</ns3:hr>
            <ns3:cad>84</ns3:cad>
          </ns3:TrackPointExtension>
        </extensions>
      </trkpt>
      <trkpt lat="42.61571391485631465911865234375" lon="2.73839701898396015167236328125">
        <ele>219.399993896484375</ele>
        <time>2023-08-19T17:58:18.000Z</time>
        <extensions>
          <ns3:TrackPointExtension>
            <ns3:hr>162</ns3:hr>
            <ns3:cad>84</ns3:cad>
          </ns3:TrackPointExtension>
        </extensions>
      </trkpt>
      <trkpt lat="42.61568742804229259490966796875" lon="2.73836818523705005645751953125">
        <ele>219.399993896484375</ele>
        <time>2023-08-19T17:58:19.000Z</time>
        <extensions>
          <ns3:TrackPointExtension>
            <ns3:hr>162</ns3:hr>
            <ns3:cad>84</ns3:cad>
          </ns3:TrackPointExtension>
        </extensions>
      </trkpt>
      <trkpt lat="42.61566479690372943878173828125" lon="2.73834337480366230010986328125">
        <ele>219.399993896484375</ele>
        <time>2023-08-19T17:58:20.000Z</time>
        <extensions>
          <ns3:TrackPointExtension>
            <ns3:hr>162</ns3:hr>
            <ns3:cad>84</ns3:cad>
          </ns3:TrackPointExtension>
        </extensions>
      </trkpt>
      <trkpt lat="42.6156414113938808441162109375" lon="2.7383209951221942901611328125">
        <ele>219.1999969482421875</ele>
        <time>2023-08-19T17:58:21.000Z</time>
        <extensions>
          <ns3:TrackPointExtension>
            <ns3:hr>162</ns3:hr>
            <ns3:cad>84</ns3:cad>
          </ns3:TrackPointExtension>
        </extensions>
      </trkpt>
      <trkpt lat="42.61561810970306396484375" lon="2.73829073645174503326416015625">
        <ele>219.1999969482421875</ele>
        <time>2023-08-19T17:58:22.000Z</time>
        <extensions>
          <ns3:TrackPointExtension>
            <ns3:hr>162</ns3:hr>
            <ns3:cad>84</ns3:cad>
          </ns3:TrackPointExtension>
        </extensions>
      </trkpt>
      <trkpt lat="42.61559690348803997039794921875" lon="2.738266177475452423095703125">
        <ele>219.1999969482421875</ele>
        <time>2023-08-19T17:58:23.000Z</time>
        <extensions>
          <ns3:TrackPointExtension>
            <ns3:hr>162</ns3:hr>
            <ns3:cad>84</ns3:cad>
          </ns3:TrackPointExtension>
        </extensions>
      </trkpt>
      <trkpt lat="42.61557494290173053741455078125" lon="2.73823860101401805877685546875">
        <ele>218.8000030517578125</ele>
        <time>2023-08-19T17:58:24.000Z</time>
        <extensions>
          <ns3:TrackPointExtension>
            <ns3:hr>162</ns3:hr>
            <ns3:cad>84</ns3:cad>
          </ns3:TrackPointExtension>
        </extensions>
      </trkpt>
      <trkpt lat="42.6155562512576580047607421875" lon="2.738215886056423187255859375">
        <ele>218.8000030517578125</ele>
        <time>2023-08-19T17:58:25.000Z</time>
        <extensions>
          <ns3:TrackPointExtension>
            <ns3:hr>162</ns3:hr>
            <ns3:cad>84</ns3:cad>
          </ns3:TrackPointExtension>
        </extensions>
      </trkpt>
      <trkpt lat="42.6155368052423000335693359375" lon="2.7381907403469085693359375">
        <ele>218.8000030517578125</ele>
        <time>2023-08-19T17:58:26.000Z</time>
        <extensions>
          <ns3:TrackPointExtension>
            <ns3:hr>162</ns3:hr>
            <ns3:cad>84</ns3:cad>
          </ns3:TrackPointExtension>
        </extensions>
      </trkpt>
      <trkpt lat="42.61551526375114917755126953125" lon="2.7381590567529201507568359375">
        <ele>218.8000030517578125</ele>
        <time>2023-08-19T17:58:27.000Z</time>
        <extensions>
          <ns3:TrackPointExtension>
            <ns3:hr>162</ns3:hr>
            <ns3:cad>85</ns3:cad>
          </ns3:TrackPointExtension>
        </extensions>
      </trkpt>
      <trkpt lat="42.61549732647836208343505859375" lon="2.73813265375792980194091796875">
        <ele>218.8000030517578125</ele>
        <time>2023-08-19T17:58:28.000Z</time>
        <extensions>
          <ns3:TrackPointExtension>
            <ns3:hr>162</ns3:hr>
            <ns3:cad>84</ns3:cad>
          </ns3:TrackPointExtension>
        </extensions>
      </trkpt>
      <trkpt lat="42.6154746115207672119140625" lon="2.738103233277797698974609375">
        <ele>218.8000030517578125</ele>
        <time>2023-08-19T17:58:29.000Z</time>
        <extensions>
          <ns3:TrackPointExtension>
            <ns3:hr>162</ns3:hr>
            <ns3:cad>84</ns3:cad>
          </ns3:TrackPointExtension>
        </extensions>
      </trkpt>
      <trkpt lat="42.61545357294380664825439453125" lon="2.73807448334991931915283203125">
        <ele>218.600006103515625</ele>
        <time>2023-08-19T17:58:30.000Z</time>
        <extensions>
          <ns3:TrackPointExtension>
            <ns3:hr>162</ns3:hr>
            <ns3:cad>84</ns3:cad>
          </ns3:TrackPointExtension>
        </extensions>
      </trkpt>
      <trkpt lat="42.61542993597686290740966796875" lon="2.738043554127216339111328125">
        <ele>218.600006103515625</ele>
        <time>2023-08-19T17:58:31.000Z</time>
        <extensions>
          <ns3:TrackPointExtension>
            <ns3:hr>162</ns3:hr>
            <ns3:cad>84</ns3:cad>
          </ns3:TrackPointExtension>
        </extensions>
      </trkpt>
      <trkpt lat="42.61541048996150493621826171875" lon="2.73801111616194248199462890625">
        <ele>218.8000030517578125</ele>
        <time>2023-08-19T17:58:32.000Z</time>
        <extensions>
          <ns3:TrackPointExtension>
            <ns3:hr>162</ns3:hr>
            <ns3:cad>84</ns3:cad>
          </ns3:TrackPointExtension>
        </extensions>
      </trkpt>
      <trkpt lat="42.615389786660671234130859375" lon="2.7379793487489223480224609375">
        <ele>218.600006103515625</ele>
        <time>2023-08-19T17:58:33.000Z</time>
        <extensions>
          <ns3:TrackPointExtension>
            <ns3:hr>162</ns3:hr>
            <ns3:cad>84</ns3:cad>
          </ns3:TrackPointExtension>
        </extensions>
      </trkpt>
      <trkpt lat="42.615367658436298370361328125" lon="2.737947665154933929443359375">
        <ele>218.600006103515625</ele>
        <time>2023-08-19T17:58:34.000Z</time>
        <extensions>
          <ns3:TrackPointExtension>
            <ns3:hr>162</ns3:hr>
            <ns3:cad>84</ns3:cad>
          </ns3:TrackPointExtension>
        </extensions>
      </trkpt>
      <trkpt lat="42.61534628458321094512939453125" lon="2.7379213459789752960205078125">
        <ele>218.600006103515625</ele>
        <time>2023-08-19T17:58:35.000Z</time>
        <extensions>
          <ns3:TrackPointExtension>
            <ns3:hr>162</ns3:hr>
            <ns3:cad>84</ns3:cad>
          </ns3:TrackPointExtension>
        </extensions>
      </trkpt>
      <trkpt lat="42.61532382108271121978759765625" lon="2.7378874830901622772216796875">
        <ele>218.399993896484375</ele>
        <time>2023-08-19T17:58:36.000Z</time>
        <extensions>
          <ns3:TrackPointExtension>
            <ns3:hr>162</ns3:hr>
            <ns3:cad>85</ns3:cad>
          </ns3:TrackPointExtension>
        </extensions>
      </trkpt>
      <trkpt lat="42.61530454270541667938232421875" lon="2.73785403929650783538818359375">
        <ele>218.399993896484375</ele>
        <time>2023-08-19T17:58:37.000Z</time>
        <extensions>
          <ns3:TrackPointExtension>
            <ns3:hr>162</ns3:hr>
            <ns3:cad>85</ns3:cad>
          </ns3:TrackPointExtension>
        </extensions>
      </trkpt>
      <trkpt lat="42.6152801513671875" lon="2.737818248569965362548828125">
        <ele>218.1999969482421875</ele>
        <time>2023-08-19T17:58:38.000Z</time>
        <extensions>
          <ns3:TrackPointExtension>
            <ns3:hr>162</ns3:hr>
            <ns3:cad>85</ns3:cad>
          </ns3:TrackPointExtension>
        </extensions>
      </trkpt>
      <trkpt lat="42.6152585260570049285888671875" lon="2.73778094910085201263427734375">
        <ele>218.1999969482421875</ele>
        <time>2023-08-19T17:58:39.000Z</time>
        <extensions>
          <ns3:TrackPointExtension>
            <ns3:hr>161</ns3:hr>
            <ns3:cad>85</ns3:cad>
          </ns3:TrackPointExtension>
        </extensions>
      </trkpt>
      <trkpt lat="42.61523866094648838043212890625" lon="2.73775144480168819427490234375">
        <ele>218</ele>
        <time>2023-08-19T17:58:40.000Z</time>
        <extensions>
          <ns3:TrackPointExtension>
            <ns3:hr>161</ns3:hr>
            <ns3:cad>86</ns3:cad>
          </ns3:TrackPointExtension>
        </extensions>
      </trkpt>
      <trkpt lat="42.6152115873992443084716796875" lon="2.7377133071422576904296875">
        <ele>217.8000030517578125</ele>
        <time>2023-08-19T17:58:41.000Z</time>
        <extensions>
          <ns3:TrackPointExtension>
            <ns3:hr>162</ns3:hr>
            <ns3:cad>86</ns3:cad>
          </ns3:TrackPointExtension>
        </extensions>
      </trkpt>
      <trkpt lat="42.61518920771777629852294921875" lon="2.73768656887114048004150390625">
        <ele>217.8000030517578125</ele>
        <time>2023-08-19T17:58:42.000Z</time>
        <extensions>
          <ns3:TrackPointExtension>
            <ns3:hr>161</ns3:hr>
            <ns3:cad>86</ns3:cad>
          </ns3:TrackPointExtension>
        </extensions>
      </trkpt>
      <trkpt lat="42.61516280472278594970703125" lon="2.73765438236296176910400390625">
        <ele>217.600006103515625</ele>
        <time>2023-08-19T17:58:43.000Z</time>
        <extensions>
          <ns3:TrackPointExtension>
            <ns3:hr>161</ns3:hr>
            <ns3:cad>86</ns3:cad>
          </ns3:TrackPointExtension>
        </extensions>
      </trkpt>
      <trkpt lat="42.61514176614582538604736328125" lon="2.73762789554893970489501953125">
        <ele>217.600006103515625</ele>
        <time>2023-08-19T17:58:44.000Z</time>
        <extensions>
          <ns3:TrackPointExtension>
            <ns3:hr>161</ns3:hr>
            <ns3:cad>86</ns3:cad>
          </ns3:TrackPointExtension>
        </extensions>
      </trkpt>
      <trkpt lat="42.61511913500726222991943359375" lon="2.73760861717164516448974609375">
        <ele>217.399993896484375</ele>
        <time>2023-08-19T17:58:45.000Z</time>
        <extensions>
          <ns3:TrackPointExtension>
            <ns3:hr>162</ns3:hr>
            <ns3:cad>86</ns3:cad>
          </ns3:TrackPointExtension>
        </extensions>
      </trkpt>
      <trkpt lat="42.61509080417454242706298828125" lon="2.73758120834827423095703125">
        <ele>217.399993896484375</ele>
        <time>2023-08-19T17:58:46.000Z</time>
        <extensions>
          <ns3:TrackPointExtension>
            <ns3:hr>162</ns3:hr>
            <ns3:cad>85</ns3:cad>
          </ns3:TrackPointExtension>
        </extensions>
      </trkpt>
      <trkpt lat="42.61506800539791584014892578125" lon="2.73756234906613826751708984375">
        <ele>217.1999969482421875</ele>
        <time>2023-08-19T17:58:47.000Z</time>
        <extensions>
          <ns3:TrackPointExtension>
            <ns3:hr>162</ns3:hr>
            <ns3:cad>85</ns3:cad>
          </ns3:TrackPointExtension>
        </extensions>
      </trkpt>
      <trkpt lat="42.61504252441227436065673828125" lon="2.73754122667014598846435546875">
        <ele>217.1999969482421875</ele>
        <time>2023-08-19T17:58:48.000Z</time>
        <extensions>
          <ns3:TrackPointExtension>
            <ns3:hr>162</ns3:hr>
            <ns3:cad>85</ns3:cad>
          </ns3:TrackPointExtension>
        </extensions>
      </trkpt>
      <trkpt lat="42.6150198094546794891357421875" lon="2.737521864473819732666015625">
        <ele>217.1999969482421875</ele>
        <time>2023-08-19T17:58:49.000Z</time>
        <extensions>
          <ns3:TrackPointExtension>
            <ns3:hr>162</ns3:hr>
            <ns3:cad>85</ns3:cad>
          </ns3:TrackPointExtension>
        </extensions>
      </trkpt>
      <trkpt lat="42.61498854495584964752197265625" lon="2.73750266991555690765380859375">
        <ele>217</ele>
        <time>2023-08-19T17:58:50.000Z</time>
        <extensions>
          <ns3:TrackPointExtension>
            <ns3:hr>162</ns3:hr>
            <ns3:cad>85</ns3:cad>
          </ns3:TrackPointExtension>
        </extensions>
      </trkpt>
      <trkpt lat="42.6149624772369861602783203125" lon="2.73748892359435558319091796875">
        <ele>217</ele>
        <time>2023-08-19T17:58:51.000Z</time>
        <extensions>
          <ns3:TrackPointExtension>
            <ns3:hr>162</ns3:hr>
            <ns3:cad>85</ns3:cad>
          </ns3:TrackPointExtension>
        </extensions>
      </trkpt>
      <trkpt lat="42.61493372730910778045654296875" lon="2.7374767698347568511962890625">
        <ele>217</ele>
        <time>2023-08-19T17:58:52.000Z</time>
        <extensions>
          <ns3:TrackPointExtension>
            <ns3:hr>162</ns3:hr>
            <ns3:cad>85</ns3:cad>
          </ns3:TrackPointExtension>
        </extensions>
      </trkpt>
      <trkpt lat="42.61490589939057826995849609375" lon="2.73746176622807979583740234375">
        <ele>217</ele>
        <time>2023-08-19T17:58:53.000Z</time>
        <extensions>
          <ns3:TrackPointExtension>
            <ns3:hr>162</ns3:hr>
            <ns3:cad>85</ns3:cad>
          </ns3:TrackPointExtension>
        </extensions>
      </trkpt>
      <trkpt lat="42.614878825843334197998046875" lon="2.737452797591686248779296875">
        <ele>217</ele>
        <time>2023-08-19T17:58:54.000Z</time>
        <extensions>
          <ns3:TrackPointExtension>
            <ns3:hr>162</ns3:hr>
            <ns3:cad>85</ns3:cad>
          </ns3:TrackPointExtension>
        </extensions>
      </trkpt>
      <trkpt lat="42.61485292576253414154052734375" lon="2.7374362014234066009521484375">
        <ele>217</ele>
        <time>2023-08-19T17:58:55.000Z</time>
        <extensions>
          <ns3:TrackPointExtension>
            <ns3:hr>162</ns3:hr>
            <ns3:cad>85</ns3:cad>
          </ns3:TrackPointExtension>
        </extensions>
      </trkpt>
      <trkpt lat="42.614827193319797515869140625" lon="2.73742505349218845367431640625">
        <ele>217</ele>
        <time>2023-08-19T17:58:56.000Z</time>
        <extensions>
          <ns3:TrackPointExtension>
            <ns3:hr>162</ns3:hr>
            <ns3:cad>85</ns3:cad>
          </ns3:TrackPointExtension>
        </extensions>
      </trkpt>
      <trkpt lat="42.61480431072413921356201171875" lon="2.737413905560970306396484375">
        <ele>216.8000030517578125</ele>
        <time>2023-08-19T17:58:57.000Z</time>
        <extensions>
          <ns3:TrackPointExtension>
            <ns3:hr>162</ns3:hr>
            <ns3:cad>85</ns3:cad>
          </ns3:TrackPointExtension>
        </extensions>
      </trkpt>
      <trkpt lat="42.61477782391011714935302734375" lon="2.73740141652524471282958984375">
        <ele>216.8000030517578125</ele>
        <time>2023-08-19T17:58:58.000Z</time>
        <extensions>
          <ns3:TrackPointExtension>
            <ns3:hr>163</ns3:hr>
            <ns3:cad>85</ns3:cad>
          </ns3:TrackPointExtension>
        </extensions>
      </trkpt>
      <trkpt lat="42.61474899016320705413818359375" lon="2.737395130097866058349609375">
        <ele>217</ele>
        <time>2023-08-19T17:58:59.000Z</time>
        <extensions>
          <ns3:TrackPointExtension>
            <ns3:hr>163</ns3:hr>
            <ns3:cad>85</ns3:cad>
          </ns3:TrackPointExtension>
        </extensions>
      </trkpt>
      <trkpt lat="42.614719904959201812744140625" lon="2.7373828925192356109619140625">
        <ele>217</ele>
        <time>2023-08-19T17:59:00.000Z</time>
        <extensions>
          <ns3:TrackPointExtension>
            <ns3:hr>163</ns3:hr>
            <ns3:cad>85</ns3:cad>
          </ns3:TrackPointExtension>
        </extensions>
      </trkpt>
      <trkpt lat="42.61469484306871891021728515625" lon="2.737376689910888671875">
        <ele>216.8000030517578125</ele>
        <time>2023-08-19T17:59:01.000Z</time>
        <extensions>
          <ns3:TrackPointExtension>
            <ns3:hr>163</ns3:hr>
            <ns3:cad>85</ns3:cad>
          </ns3:TrackPointExtension>
        </extensions>
      </trkpt>
      <trkpt lat="42.614663578569889068603515625" lon="2.73736587725579738616943359375">
        <ele>216.8000030517578125</ele>
        <time>2023-08-19T17:59:02.000Z</time>
        <extensions>
          <ns3:TrackPointExtension>
            <ns3:hr>163</ns3:hr>
            <ns3:cad>85</ns3:cad>
          </ns3:TrackPointExtension>
        </extensions>
      </trkpt>
      <trkpt lat="42.61463583447039127349853515625" lon="2.737355567514896392822265625">
        <ele>217</ele>
        <time>2023-08-19T17:59:03.000Z</time>
        <extensions>
          <ns3:TrackPointExtension>
            <ns3:hr>163</ns3:hr>
            <ns3:cad>85</ns3:cad>
          </ns3:TrackPointExtension>
        </extensions>
      </trkpt>
      <trkpt lat="42.61460482142865657806396484375" lon="2.73735179565846920013427734375">
        <ele>216.8000030517578125</ele>
        <time>2023-08-19T17:59:04.000Z</time>
        <extensions>
          <ns3:TrackPointExtension>
            <ns3:hr>163</ns3:hr>
            <ns3:cad>85</ns3:cad>
          </ns3:TrackPointExtension>
        </extensions>
      </trkpt>
      <trkpt lat="42.6145732216536998748779296875" lon="2.7373450063169002532958984375">
        <ele>216.8000030517578125</ele>
        <time>2023-08-19T17:59:05.000Z</time>
        <extensions>
          <ns3:TrackPointExtension>
            <ns3:hr>164</ns3:hr>
            <ns3:cad>85</ns3:cad>
          </ns3:TrackPointExtension>
        </extensions>
      </trkpt>
      <trkpt lat="42.6145453937351703643798828125" lon="2.7373463474214076995849609375">
        <ele>216.8000030517578125</ele>
        <time>2023-08-19T17:59:06.000Z</time>
        <extensions>
          <ns3:TrackPointExtension>
            <ns3:hr>164</ns3:hr>
            <ns3:cad>85</ns3:cad>
          </ns3:TrackPointExtension>
        </extensions>
      </trkpt>
      <trkpt lat="42.6145125366747379302978515625" lon="2.73734039627015590667724609375">
        <ele>216.600006103515625</ele>
        <time>2023-08-19T17:59:07.000Z</time>
        <extensions>
          <ns3:TrackPointExtension>
            <ns3:hr>164</ns3:hr>
            <ns3:cad>85</ns3:cad>
          </ns3:TrackPointExtension>
        </extensions>
      </trkpt>
      <trkpt lat="42.61448931880295276641845703125" lon="2.73733587004244327545166015625">
        <ele>216.600006103515625</ele>
        <time>2023-08-19T17:59:08.000Z</time>
        <extensions>
          <ns3:TrackPointExtension>
            <ns3:hr>164</ns3:hr>
            <ns3:cad>85</ns3:cad>
          </ns3:TrackPointExtension>
        </extensions>
      </trkpt>
      <trkpt lat="42.6144585572183132171630859375" lon="2.7373255603015422821044921875">
        <ele>216.600006103515625</ele>
        <time>2023-08-19T17:59:09.000Z</time>
        <extensions>
          <ns3:TrackPointExtension>
            <ns3:hr>164</ns3:hr>
            <ns3:cad>85</ns3:cad>
          </ns3:TrackPointExtension>
        </extensions>
      </trkpt>
      <trkpt lat="42.61442796327173709869384765625" lon="2.737311981618404388427734375">
        <ele>216.600006103515625</ele>
        <time>2023-08-19T17:59:10.000Z</time>
        <extensions>
          <ns3:TrackPointExtension>
            <ns3:hr>164</ns3:hr>
            <ns3:cad>85</ns3:cad>
          </ns3:TrackPointExtension>
        </extensions>
      </trkpt>
      <trkpt lat="42.61439661495387554168701171875" lon="2.7373015880584716796875">
        <ele>216.399993896484375</ele>
        <time>2023-08-19T17:59:11.000Z</time>
        <extensions>
          <ns3:TrackPointExtension>
            <ns3:hr>164</ns3:hr>
            <ns3:cad>85</ns3:cad>
          </ns3:TrackPointExtension>
        </extensions>
      </trkpt>
      <trkpt lat="42.61436392553150653839111328125" lon="2.73728323169052600860595703125">
        <ele>216.399993896484375</ele>
        <time>2023-08-19T17:59:12.000Z</time>
        <extensions>
          <ns3:TrackPointExtension>
            <ns3:hr>163</ns3:hr>
            <ns3:cad>85</ns3:cad>
          </ns3:TrackPointExtension>
        </extensions>
      </trkpt>
      <trkpt lat="42.6143385283648967742919921875" lon="2.73727132938802242279052734375">
        <ele>216.399993896484375</ele>
        <time>2023-08-19T17:59:13.000Z</time>
        <extensions>
          <ns3:TrackPointExtension>
            <ns3:hr>163</ns3:hr>
            <ns3:cad>85</ns3:cad>
          </ns3:TrackPointExtension>
        </extensions>
      </trkpt>
      <trkpt lat="42.6143051683902740478515625" lon="2.73725624196231365203857421875">
        <ele>216.399993896484375</ele>
        <time>2023-08-19T17:59:14.000Z</time>
        <extensions>
          <ns3:TrackPointExtension>
            <ns3:hr>163</ns3:hr>
            <ns3:cad>85</ns3:cad>
          </ns3:TrackPointExtension>
        </extensions>
      </trkpt>
      <trkpt lat="42.61427742429077625274658203125" lon="2.73724216036498546600341796875">
        <ele>216.1999969482421875</ele>
        <time>2023-08-19T17:59:15.000Z</time>
        <extensions>
          <ns3:TrackPointExtension>
            <ns3:hr>163</ns3:hr>
            <ns3:cad>85</ns3:cad>
          </ns3:TrackPointExtension>
        </extensions>
      </trkpt>
      <trkpt lat="42.61424473486840724945068359375" lon="2.73723076097667217254638671875">
        <ele>216.1999969482421875</ele>
        <time>2023-08-19T17:59:16.000Z</time>
        <extensions>
          <ns3:TrackPointExtension>
            <ns3:hr>163</ns3:hr>
            <ns3:cad>85</ns3:cad>
          </ns3:TrackPointExtension>
        </extensions>
      </trkpt>
      <trkpt lat="42.61421196162700653076171875" lon="2.73721911013126373291015625">
        <ele>216</ele>
        <time>2023-08-19T17:59:17.000Z</time>
        <extensions>
          <ns3:TrackPointExtension>
            <ns3:hr>163</ns3:hr>
            <ns3:cad>85</ns3:cad>
          </ns3:TrackPointExtension>
        </extensions>
      </trkpt>
      <trkpt lat="42.61418522335588932037353515625" lon="2.73721802048385143280029296875">
        <ele>215.399993896484375</ele>
        <time>2023-08-19T17:59:18.000Z</time>
        <extensions>
          <ns3:TrackPointExtension>
            <ns3:hr>164</ns3:hr>
            <ns3:cad>85</ns3:cad>
          </ns3:TrackPointExtension>
        </extensions>
      </trkpt>
      <trkpt lat="42.614153958857059478759765625" lon="2.737220786511898040771484375">
        <ele>215.1999969482421875</ele>
        <time>2023-08-19T17:59:19.000Z</time>
        <extensions>
          <ns3:TrackPointExtension>
            <ns3:hr>163</ns3:hr>
            <ns3:cad>84</ns3:cad>
          </ns3:TrackPointExtension>
        </extensions>
      </trkpt>
      <trkpt lat="42.61413007043302059173583984375" lon="2.7372253127396106719970703125">
        <ele>215</ele>
        <time>2023-08-19T17:59:20.000Z</time>
        <extensions>
          <ns3:TrackPointExtension>
            <ns3:hr>163</ns3:hr>
            <ns3:cad>85</ns3:cad>
          </ns3:TrackPointExtension>
        </extensions>
      </trkpt>
      <trkpt lat="42.6141024939715862274169921875" lon="2.73723679594695568084716796875">
        <ele>214.8000030517578125</ele>
        <time>2023-08-19T17:59:21.000Z</time>
        <extensions>
          <ns3:TrackPointExtension>
            <ns3:hr>163</ns3:hr>
            <ns3:cad>85</ns3:cad>
          </ns3:TrackPointExtension>
        </extensions>
      </trkpt>
      <trkpt lat="42.614076174795627593994140625" lon="2.7372484467923641204833984375">
        <ele>214.399993896484375</ele>
        <time>2023-08-19T17:59:22.000Z</time>
        <extensions>
          <ns3:TrackPointExtension>
            <ns3:hr>163</ns3:hr>
            <ns3:cad>86</ns3:cad>
          </ns3:TrackPointExtension>
        </extensions>
      </trkpt>
      <trkpt lat="42.6140528731048107147216796875" lon="2.73726948536932468414306640625">
        <ele>214</ele>
        <time>2023-08-19T17:59:23.000Z</time>
        <extensions>
          <ns3:TrackPointExtension>
            <ns3:hr>163</ns3:hr>
            <ns3:cad>87</ns3:cad>
          </ns3:TrackPointExtension>
        </extensions>
      </trkpt>
      <trkpt lat="42.61402613483369350433349609375" lon="2.73730150423943996429443359375">
        <ele>214</ele>
        <time>2023-08-19T17:59:24.000Z</time>
        <extensions>
          <ns3:TrackPointExtension>
            <ns3:hr>162</ns3:hr>
            <ns3:cad>87</ns3:cad>
          </ns3:TrackPointExtension>
        </extensions>
      </trkpt>
      <trkpt lat="42.61400233022868633270263671875" lon="2.737341485917568206787109375">
        <ele>213.8000030517578125</ele>
        <time>2023-08-19T17:59:25.000Z</time>
        <extensions>
          <ns3:TrackPointExtension>
            <ns3:hr>162</ns3:hr>
            <ns3:cad>87</ns3:cad>
          </ns3:TrackPointExtension>
        </extensions>
      </trkpt>
      <trkpt lat="42.61398120783269405364990234375" lon="2.7373788692057132720947265625">
        <ele>213.399993896484375</ele>
        <time>2023-08-19T17:59:26.000Z</time>
        <extensions>
          <ns3:TrackPointExtension>
            <ns3:hr>162</ns3:hr>
            <ns3:cad>88</ns3:cad>
          </ns3:TrackPointExtension>
        </extensions>
      </trkpt>
      <trkpt lat="42.61395991779863834381103515625" lon="2.7374137379229068756103515625">
        <ele>213.1999969482421875</ele>
        <time>2023-08-19T17:59:27.000Z</time>
        <extensions>
          <ns3:TrackPointExtension>
            <ns3:hr>162</ns3:hr>
            <ns3:cad>87</ns3:cad>
          </ns3:TrackPointExtension>
        </extensions>
      </trkpt>
      <trkpt lat="42.61393208988010883331298828125" lon="2.73745053447782993316650390625">
        <ele>213.1999969482421875</ele>
        <time>2023-08-19T17:59:28.000Z</time>
        <extensions>
          <ns3:TrackPointExtension>
            <ns3:hr>162</ns3:hr>
            <ns3:cad>86</ns3:cad>
          </ns3:TrackPointExtension>
        </extensions>
      </trkpt>
      <trkpt lat="42.61391155421733856201171875" lon="2.73748473264276981353759765625">
        <ele>213</ele>
        <time>2023-08-19T17:59:29.000Z</time>
        <extensions>
          <ns3:TrackPointExtension>
            <ns3:hr>162</ns3:hr>
            <ns3:cad>86</ns3:cad>
          </ns3:TrackPointExtension>
        </extensions>
      </trkpt>
      <trkpt lat="42.6138867437839508056640625" lon="2.73752488195896148681640625">
        <ele>213</ele>
        <time>2023-08-19T17:59:30.000Z</time>
        <extensions>
          <ns3:TrackPointExtension>
            <ns3:hr>161</ns3:hr>
            <ns3:cad>87</ns3:cad>
          </ns3:TrackPointExtension>
        </extensions>
      </trkpt>
      <trkpt lat="42.61386956088244915008544921875" lon="2.7375569008290767669677734375">
        <ele>212.600006103515625</ele>
        <time>2023-08-19T17:59:31.000Z</time>
        <extensions>
          <ns3:TrackPointExtension>
            <ns3:hr>161</ns3:hr>
            <ns3:cad>87</ns3:cad>
          </ns3:TrackPointExtension>
        </extensions>
      </trkpt>
      <trkpt lat="42.6138543896377086639404296875" lon="2.737591601908206939697265625">
        <ele>212.399993896484375</ele>
        <time>2023-08-19T17:59:32.000Z</time>
        <extensions>
          <ns3:TrackPointExtension>
            <ns3:hr>161</ns3:hr>
            <ns3:cad>87</ns3:cad>
          </ns3:TrackPointExtension>
        </extensions>
      </trkpt>
      <trkpt lat="42.613837458193302154541015625" lon="2.73762705735862255096435546875">
        <ele>212.399993896484375</ele>
        <time>2023-08-19T17:59:33.000Z</time>
        <extensions>
          <ns3:TrackPointExtension>
            <ns3:hr>161</ns3:hr>
            <ns3:cad>87</ns3:cad>
          </ns3:TrackPointExtension>
        </extensions>
      </trkpt>
      <trkpt lat="42.61382035911083221435546875" lon="2.73766142316162586212158203125">
        <ele>212.399993896484375</ele>
        <time>2023-08-19T17:59:34.000Z</time>
        <extensions>
          <ns3:TrackPointExtension>
            <ns3:hr>161</ns3:hr>
            <ns3:cad>87</ns3:cad>
          </ns3:TrackPointExtension>
        </extensions>
      </trkpt>
      <trkpt lat="42.61379965580999851226806640625" lon="2.73770081810653209686279296875">
        <ele>212.1999969482421875</ele>
        <time>2023-08-19T17:59:35.000Z</time>
        <extensions>
          <ns3:TrackPointExtension>
            <ns3:hr>161</ns3:hr>
            <ns3:cad>86</ns3:cad>
          </ns3:TrackPointExtension>
        </extensions>
      </trkpt>
      <trkpt lat="42.613787166774272918701171875" lon="2.73773417808115482330322265625">
        <ele>212</ele>
        <time>2023-08-19T17:59:36.000Z</time>
        <extensions>
          <ns3:TrackPointExtension>
            <ns3:hr>161</ns3:hr>
            <ns3:cad>85</ns3:cad>
          </ns3:TrackPointExtension>
        </extensions>
      </trkpt>
      <trkpt lat="42.613772414624691009521484375" lon="2.7377704717218875885009765625">
        <ele>212</ele>
        <time>2023-08-19T17:59:37.000Z</time>
        <extensions>
          <ns3:TrackPointExtension>
            <ns3:hr>161</ns3:hr>
            <ns3:cad>86</ns3:cad>
          </ns3:TrackPointExtension>
        </extensions>
      </trkpt>
      <trkpt lat="42.6137601770460605621337890625" lon="2.73780223913490772247314453125">
        <ele>211.8000030517578125</ele>
        <time>2023-08-19T17:59:38.000Z</time>
        <extensions>
          <ns3:TrackPointExtension>
            <ns3:hr>161</ns3:hr>
            <ns3:cad>86</ns3:cad>
          </ns3:TrackPointExtension>
        </extensions>
      </trkpt>
      <trkpt lat="42.613748610019683837890625" lon="2.73783870041370391845703125">
        <ele>211.8000030517578125</ele>
        <time>2023-08-19T17:59:39.000Z</time>
        <extensions>
          <ns3:TrackPointExtension>
            <ns3:hr>161</ns3:hr>
            <ns3:cad>86</ns3:cad>
          </ns3:TrackPointExtension>
        </extensions>
      </trkpt>
      <trkpt lat="42.61373360641300678253173828125" lon="2.737875916063785552978515625">
        <ele>211.8000030517578125</ele>
        <time>2023-08-19T17:59:40.000Z</time>
        <extensions>
          <ns3:TrackPointExtension>
            <ns3:hr>161</ns3:hr>
            <ns3:cad>86</ns3:cad>
          </ns3:TrackPointExtension>
        </extensions>
      </trkpt>
      <trkpt lat="42.613722123205661773681640625" lon="2.73791137151420116424560546875">
        <ele>211.600006103515625</ele>
        <time>2023-08-19T17:59:41.000Z</time>
        <extensions>
          <ns3:TrackPointExtension>
            <ns3:hr>161</ns3:hr>
            <ns3:cad>86</ns3:cad>
          </ns3:TrackPointExtension>
        </extensions>
      </trkpt>
      <trkpt lat="42.61370745487511157989501953125" lon="2.73795110173523426055908203125">
        <ele>211.600006103515625</ele>
        <time>2023-08-19T17:59:42.000Z</time>
        <extensions>
          <ns3:TrackPointExtension>
            <ns3:hr>161</ns3:hr>
            <ns3:cad>86</ns3:cad>
          </ns3:TrackPointExtension>
        </extensions>
      </trkpt>
      <trkpt lat="42.61369991116225719451904296875" lon="2.7379853837192058563232421875">
        <ele>211.399993896484375</ele>
        <time>2023-08-19T17:59:43.000Z</time>
        <extensions>
          <ns3:TrackPointExtension>
            <ns3:hr>161</ns3:hr>
            <ns3:cad>86</ns3:cad>
          </ns3:TrackPointExtension>
        </extensions>
      </trkpt>
      <trkpt lat="42.61368599720299243927001953125" lon="2.73802704177796840667724609375">
        <ele>211.1999969482421875</ele>
        <time>2023-08-19T17:59:44.000Z</time>
        <extensions>
          <ns3:TrackPointExtension>
            <ns3:hr>161</ns3:hr>
            <ns3:cad>86</ns3:cad>
          </ns3:TrackPointExtension>
        </extensions>
      </trkpt>
      <trkpt lat="42.61367459781467914581298828125" lon="2.73806132376194000244140625">
        <ele>211.1999969482421875</ele>
        <time>2023-08-19T17:59:45.000Z</time>
        <extensions>
          <ns3:TrackPointExtension>
            <ns3:hr>161</ns3:hr>
            <ns3:cad>86</ns3:cad>
          </ns3:TrackPointExtension>
        </extensions>
      </trkpt>
      <trkpt lat="42.613661773502826690673828125" lon="2.73809661157429218292236328125">
        <ele>211</ele>
        <time>2023-08-19T17:59:46.000Z</time>
        <extensions>
          <ns3:TrackPointExtension>
            <ns3:hr>161</ns3:hr>
            <ns3:cad>86</ns3:cad>
          </ns3:TrackPointExtension>
        </extensions>
      </trkpt>
      <trkpt lat="42.6136488653719425201416015625" lon="2.73813240230083465576171875">
        <ele>210.8000030517578125</ele>
        <time>2023-08-19T17:59:47.000Z</time>
        <extensions>
          <ns3:TrackPointExtension>
            <ns3:hr>162</ns3:hr>
            <ns3:cad>86</ns3:cad>
          </ns3:TrackPointExtension>
        </extensions>
      </trkpt>
      <trkpt lat="42.6136386394500732421875" lon="2.73816836066544055938720703125">
        <ele>210.8000030517578125</ele>
        <time>2023-08-19T17:59:48.000Z</time>
        <extensions>
          <ns3:TrackPointExtension>
            <ns3:hr>161</ns3:hr>
            <ns3:cad>86</ns3:cad>
          </ns3:TrackPointExtension>
        </extensions>
      </trkpt>
      <trkpt lat="42.61362581513822078704833984375" lon="2.7382106892764568328857421875">
        <ele>210.600006103515625</ele>
        <time>2023-08-19T17:59:49.000Z</time>
        <extensions>
          <ns3:TrackPointExtension>
            <ns3:hr>162</ns3:hr>
            <ns3:cad>86</ns3:cad>
          </ns3:TrackPointExtension>
        </extensions>
      </trkpt>
      <trkpt lat="42.61361877433955669403076171875" lon="2.7382457256317138671875">
        <ele>210.600006103515625</ele>
        <time>2023-08-19T17:59:50.000Z</time>
        <extensions>
          <ns3:TrackPointExtension>
            <ns3:hr>162</ns3:hr>
            <ns3:cad>86</ns3:cad>
          </ns3:TrackPointExtension>
        </extensions>
      </trkpt>
      <trkpt lat="42.61360921896994113922119140625" lon="2.7382814325392246246337890625">
        <ele>210.399993896484375</ele>
        <time>2023-08-19T17:59:51.000Z</time>
        <extensions>
          <ns3:TrackPointExtension>
            <ns3:hr>161</ns3:hr>
            <ns3:cad>86</ns3:cad>
          </ns3:TrackPointExtension>
        </extensions>
      </trkpt>
      <trkpt lat="42.61360050179064273834228515625" lon="2.73831537924706935882568359375">
        <ele>210.1999969482421875</ele>
        <time>2023-08-19T17:59:52.000Z</time>
        <extensions>
          <ns3:TrackPointExtension>
            <ns3:hr>161</ns3:hr>
            <ns3:cad>86</ns3:cad>
          </ns3:TrackPointExtension>
        </extensions>
      </trkpt>
      <trkpt lat="42.6135901920497417449951171875" lon="2.7383545227348804473876953125">
        <ele>210.1999969482421875</ele>
        <time>2023-08-19T17:59:53.000Z</time>
        <extensions>
          <ns3:TrackPointExtension>
            <ns3:hr>161</ns3:hr>
            <ns3:cad>86</ns3:cad>
          </ns3:TrackPointExtension>
        </extensions>
      </trkpt>
      <trkpt lat="42.6135797984898090362548828125" lon="2.7383957616984844207763671875">
        <ele>210.1999969482421875</ele>
        <time>2023-08-19T17:59:54.000Z</time>
        <extensions>
          <ns3:TrackPointExtension>
            <ns3:hr>161</ns3:hr>
            <ns3:cad>86</ns3:cad>
          </ns3:TrackPointExtension>
        </extensions>
      </trkpt>
      <trkpt lat="42.61357367970049381256103515625" lon="2.7384306304156780242919921875">
        <ele>210.1999969482421875</ele>
        <time>2023-08-19T17:59:55.000Z</time>
        <extensions>
          <ns3:TrackPointExtension>
            <ns3:hr>161</ns3:hr>
            <ns3:cad>86</ns3:cad>
          </ns3:TrackPointExtension>
        </extensions>
      </trkpt>
      <trkpt lat="42.61356295086443424224853515625" lon="2.7384698577225208282470703125">
        <ele>210</ele>
        <time>2023-08-19T17:59:56.000Z</time>
        <extensions>
          <ns3:TrackPointExtension>
            <ns3:hr>161</ns3:hr>
            <ns3:cad>84</ns3:cad>
          </ns3:TrackPointExtension>
        </extensions>
      </trkpt>
      <trkpt lat="42.61355473659932613372802734375" lon="2.738506235182285308837890625">
        <ele>210</ele>
        <time>2023-08-19T17:59:57.000Z</time>
        <extensions>
          <ns3:TrackPointExtension>
            <ns3:hr>161</ns3:hr>
            <ns3:cad>84</ns3:cad>
          </ns3:TrackPointExtension>
        </extensions>
      </trkpt>
      <trkpt lat="42.61354434303939342498779296875" lon="2.73854755796492099761962890625">
        <ele>209.8000030517578125</ele>
        <time>2023-08-19T17:59:58.000Z</time>
        <extensions>
          <ns3:TrackPointExtension>
            <ns3:hr>161</ns3:hr>
            <ns3:cad>84</ns3:cad>
          </ns3:TrackPointExtension>
        </extensions>
      </trkpt>
      <trkpt lat="42.61353177018463611602783203125" lon="2.73858946748077869415283203125">
        <ele>209.8000030517578125</ele>
        <time>2023-08-19T17:59:59.000Z</time>
        <extensions>
          <ns3:TrackPointExtension>
            <ns3:hr>161</ns3:hr>
            <ns3:cad>85</ns3:cad>
          </ns3:TrackPointExtension>
        </extensions>
      </trkpt>
      <trkpt lat="42.61352037079632282257080078125" lon="2.73862835951149463653564453125">
        <ele>209.600006103515625</ele>
        <time>2023-08-19T18:00:00.000Z</time>
        <extensions>
          <ns3:TrackPointExtension>
            <ns3:hr>161</ns3:hr>
            <ns3:cad>85</ns3:cad>
          </ns3:TrackPointExtension>
        </extensions>
      </trkpt>
      <trkpt lat="42.61350452899932861328125" lon="2.73866658098995685577392578125">
        <ele>209.399993896484375</ele>
        <time>2023-08-19T18:00:01.000Z</time>
        <extensions>
          <ns3:TrackPointExtension>
            <ns3:hr>161</ns3:hr>
            <ns3:cad>84</ns3:cad>
          </ns3:TrackPointExtension>
        </extensions>
      </trkpt>
      <trkpt lat="42.6134949736297130584716796875" lon="2.73869826458394527435302734375">
        <ele>209.1999969482421875</ele>
        <time>2023-08-19T18:00:02.000Z</time>
        <extensions>
          <ns3:TrackPointExtension>
            <ns3:hr>160</ns3:hr>
            <ns3:cad>85</ns3:cad>
          </ns3:TrackPointExtension>
        </extensions>
      </trkpt>
      <trkpt lat="42.61348600499331951141357421875" lon="2.73874000646173954010009765625">
        <ele>209</ele>
        <time>2023-08-19T18:00:03.000Z</time>
        <extensions>
          <ns3:TrackPointExtension>
            <ns3:hr>160</ns3:hr>
            <ns3:cad>85</ns3:cad>
          </ns3:TrackPointExtension>
        </extensions>
      </trkpt>
      <trkpt lat="42.61347862891852855682373046875" lon="2.73877923376858234405517578125">
        <ele>208.8000030517578125</ele>
        <time>2023-08-19T18:00:04.000Z</time>
        <extensions>
          <ns3:TrackPointExtension>
            <ns3:hr>160</ns3:hr>
            <ns3:cad>85</ns3:cad>
          </ns3:TrackPointExtension>
        </extensions>
      </trkpt>
      <trkpt lat="42.61347359977662563323974609375" lon="2.73881644941866397857666015625">
        <ele>208.8000030517578125</ele>
        <time>2023-08-19T18:00:05.000Z</time>
        <extensions>
          <ns3:TrackPointExtension>
            <ns3:hr>160</ns3:hr>
            <ns3:cad>85</ns3:cad>
          </ns3:TrackPointExtension>
        </extensions>
      </trkpt>
      <trkpt lat="42.6134715043008327484130859375" lon="2.738858275115489959716796875">
        <ele>208.600006103515625</ele>
        <time>2023-08-19T18:00:06.000Z</time>
        <extensions>
          <ns3:TrackPointExtension>
            <ns3:hr>160</ns3:hr>
            <ns3:cad>85</ns3:cad>
          </ns3:TrackPointExtension>
        </extensions>
      </trkpt>
      <trkpt lat="42.613472677767276763916015625" lon="2.738897167146205902099609375">
        <ele>208.1999969482421875</ele>
        <time>2023-08-19T18:00:07.000Z</time>
        <extensions>
          <ns3:TrackPointExtension>
            <ns3:hr>159</ns3:hr>
            <ns3:cad>86</ns3:cad>
          </ns3:TrackPointExtension>
        </extensions>
      </trkpt>
      <trkpt lat="42.61347142048180103302001953125" lon="2.7389389090240001678466796875">
        <ele>208.1999969482421875</ele>
        <time>2023-08-19T18:00:08.000Z</time>
        <extensions>
          <ns3:TrackPointExtension>
            <ns3:hr>159</ns3:hr>
            <ns3:cad>86</ns3:cad>
          </ns3:TrackPointExtension>
        </extensions>
      </trkpt>
      <trkpt lat="42.613474018871784210205078125" lon="2.73897570557892322540283203125">
        <ele>208</ele>
        <time>2023-08-19T18:00:09.000Z</time>
        <extensions>
          <ns3:TrackPointExtension>
            <ns3:hr>159</ns3:hr>
            <ns3:cad>86</ns3:cad>
          </ns3:TrackPointExtension>
        </extensions>
      </trkpt>
      <trkpt lat="42.61347309686243534088134765625" lon="2.73902381770312786102294921875">
        <ele>208</ele>
        <time>2023-08-19T18:00:10.000Z</time>
        <extensions>
          <ns3:TrackPointExtension>
            <ns3:hr>159</ns3:hr>
            <ns3:cad>86</ns3:cad>
          </ns3:TrackPointExtension>
        </extensions>
      </trkpt>
      <trkpt lat="42.61347435414791107177734375" lon="2.73905918933451175689697265625">
        <ele>207.8000030517578125</ele>
        <time>2023-08-19T18:00:11.000Z</time>
        <extensions>
          <ns3:TrackPointExtension>
            <ns3:hr>159</ns3:hr>
            <ns3:cad>86</ns3:cad>
          </ns3:TrackPointExtension>
        </extensions>
      </trkpt>
      <trkpt lat="42.61347301304340362548828125" lon="2.7391031943261623382568359375">
        <ele>207.8000030517578125</ele>
        <time>2023-08-19T18:00:12.000Z</time>
        <extensions>
          <ns3:TrackPointExtension>
            <ns3:hr>159</ns3:hr>
            <ns3:cad>86</ns3:cad>
          </ns3:TrackPointExtension>
        </extensions>
      </trkpt>
      <trkpt lat="42.613471336662769317626953125" lon="2.73914493620395660400390625">
        <ele>207.8000030517578125</ele>
        <time>2023-08-19T18:00:13.000Z</time>
        <extensions>
          <ns3:TrackPointExtension>
            <ns3:hr>159</ns3:hr>
            <ns3:cad>86</ns3:cad>
          </ns3:TrackPointExtension>
        </extensions>
      </trkpt>
      <trkpt lat="42.6134711690247058868408203125" lon="2.73918542079627513885498046875">
        <ele>207.600006103515625</ele>
        <time>2023-08-19T18:00:14.000Z</time>
        <extensions>
          <ns3:TrackPointExtension>
            <ns3:hr>160</ns3:hr>
            <ns3:cad>86</ns3:cad>
          </ns3:TrackPointExtension>
        </extensions>
      </trkpt>
      <trkpt lat="42.61346873827278614044189453125" lon="2.73923554457724094390869140625">
        <ele>207.600006103515625</ele>
        <time>2023-08-19T18:00:15.000Z</time>
        <extensions>
          <ns3:TrackPointExtension>
            <ns3:hr>160</ns3:hr>
            <ns3:cad>86</ns3:cad>
          </ns3:TrackPointExtension>
        </extensions>
      </trkpt>
      <trkpt lat="42.61347175575792789459228515625" lon="2.73927502334117889404296875">
        <ele>207.600006103515625</ele>
        <time>2023-08-19T18:00:16.000Z</time>
        <extensions>
          <ns3:TrackPointExtension>
            <ns3:hr>160</ns3:hr>
            <ns3:cad>86</ns3:cad>
          </ns3:TrackPointExtension>
        </extensions>
      </trkpt>
      <trkpt lat="42.613472677767276763916015625" lon="2.7393217943608760833740234375">
        <ele>207.399993896484375</ele>
        <time>2023-08-19T18:00:17.000Z</time>
        <extensions>
          <ns3:TrackPointExtension>
            <ns3:hr>160</ns3:hr>
            <ns3:cad>86</ns3:cad>
          </ns3:TrackPointExtension>
        </extensions>
      </trkpt>
      <trkpt lat="42.61347695253789424896240234375" lon="2.73935305885970592498779296875">
        <ele>207.399993896484375</ele>
        <time>2023-08-19T18:00:18.000Z</time>
        <extensions>
          <ns3:TrackPointExtension>
            <ns3:hr>160</ns3:hr>
            <ns3:cad>87</ns3:cad>
          </ns3:TrackPointExtension>
        </extensions>
      </trkpt>
      <trkpt lat="42.61348105967044830322265625" lon="2.739396728575229644775390625">
        <ele>207.1999969482421875</ele>
        <time>2023-08-19T18:00:19.000Z</time>
        <extensions>
          <ns3:TrackPointExtension>
            <ns3:hr>161</ns3:hr>
            <ns3:cad>86</ns3:cad>
          </ns3:TrackPointExtension>
        </extensions>
      </trkpt>
      <trkpt lat="42.61348231695592403411865234375" lon="2.73944341577589511871337890625">
        <ele>207</ele>
        <time>2023-08-19T18:00:20.000Z</time>
        <extensions>
          <ns3:TrackPointExtension>
            <ns3:hr>161</ns3:hr>
            <ns3:cad>86</ns3:cad>
          </ns3:TrackPointExtension>
        </extensions>
      </trkpt>
      <trkpt lat="42.61348466388881206512451171875" lon="2.7394890971481800079345703125">
        <ele>206.8000030517578125</ele>
        <time>2023-08-19T18:00:21.000Z</time>
        <extensions>
          <ns3:TrackPointExtension>
            <ns3:hr>161</ns3:hr>
            <ns3:cad>86</ns3:cad>
          </ns3:TrackPointExtension>
        </extensions>
      </trkpt>
      <trkpt lat="42.61348164640367031097412109375" lon="2.73953695781528949737548828125">
        <ele>206.8000030517578125</ele>
        <time>2023-08-19T18:00:22.000Z</time>
        <extensions>
          <ns3:TrackPointExtension>
            <ns3:hr>161</ns3:hr>
            <ns3:cad>85</ns3:cad>
          </ns3:TrackPointExtension>
        </extensions>
      </trkpt>
      <trkpt lat="42.6134817302227020263671875" lon="2.73956612683832645416259765625">
        <ele>206.8000030517578125</ele>
        <time>2023-08-19T18:00:23.000Z</time>
        <extensions>
          <ns3:TrackPointExtension>
            <ns3:hr>162</ns3:hr>
            <ns3:cad>85</ns3:cad>
          </ns3:TrackPointExtension>
        </extensions>
      </trkpt>
      <trkpt lat="42.613480724394321441650390625" lon="2.7396084554493427276611328125">
        <ele>206.600006103515625</ele>
        <time>2023-08-19T18:00:24.000Z</time>
        <extensions>
          <ns3:TrackPointExtension>
            <ns3:hr>162</ns3:hr>
            <ns3:cad>85</ns3:cad>
          </ns3:TrackPointExtension>
        </extensions>
      </trkpt>
      <trkpt lat="42.61347812600433826446533203125" lon="2.73964793421328067779541015625">
        <ele>206.600006103515625</ele>
        <time>2023-08-19T18:00:25.000Z</time>
        <extensions>
          <ns3:TrackPointExtension>
            <ns3:hr>162</ns3:hr>
            <ns3:cad>85</ns3:cad>
          </ns3:TrackPointExtension>
        </extensions>
      </trkpt>
      <trkpt lat="42.613480053842067718505859375" lon="2.7396900951862335205078125">
        <ele>206.399993896484375</ele>
        <time>2023-08-19T18:00:26.000Z</time>
        <extensions>
          <ns3:TrackPointExtension>
            <ns3:hr>162</ns3:hr>
            <ns3:cad>85</ns3:cad>
          </ns3:TrackPointExtension>
        </extensions>
      </trkpt>
      <trkpt lat="42.61347644962370395660400390625" lon="2.73973326198756694793701171875">
        <ele>206.1999969482421875</ele>
        <time>2023-08-19T18:00:27.000Z</time>
        <extensions>
          <ns3:TrackPointExtension>
            <ns3:hr>162</ns3:hr>
            <ns3:cad>86</ns3:cad>
          </ns3:TrackPointExtension>
        </extensions>
      </trkpt>
      <trkpt lat="42.6134741865098476409912109375" lon="2.73977835662662982940673828125">
        <ele>206</ele>
        <time>2023-08-19T18:00:28.000Z</time>
        <extensions>
          <ns3:TrackPointExtension>
            <ns3:hr>162</ns3:hr>
            <ns3:cad>86</ns3:cad>
          </ns3:TrackPointExtension>
        </extensions>
      </trkpt>
      <trkpt lat="42.6134681515395641326904296875" lon="2.7398253791034221649169921875">
        <ele>205.8000030517578125</ele>
        <time>2023-08-19T18:00:29.000Z</time>
        <extensions>
          <ns3:TrackPointExtension>
            <ns3:hr>162</ns3:hr>
            <ns3:cad>86</ns3:cad>
          </ns3:TrackPointExtension>
        </extensions>
      </trkpt>
      <trkpt lat="42.61346505023539066314697265625" lon="2.7398672886192798614501953125">
        <ele>205.600006103515625</ele>
        <time>2023-08-19T18:00:30.000Z</time>
        <extensions>
          <ns3:TrackPointExtension>
            <ns3:hr>162</ns3:hr>
            <ns3:cad>85</ns3:cad>
          </ns3:TrackPointExtension>
        </extensions>
      </trkpt>
      <trkpt lat="42.61345884762704372406005859375" lon="2.7399152331054210662841796875">
        <ele>205.399993896484375</ele>
        <time>2023-08-19T18:00:31.000Z</time>
        <extensions>
          <ns3:TrackPointExtension>
            <ns3:hr>162</ns3:hr>
            <ns3:cad>86</ns3:cad>
          </ns3:TrackPointExtension>
        </extensions>
      </trkpt>
      <trkpt lat="42.6134540699422359466552734375" lon="2.739954292774200439453125">
        <ele>205.1999969482421875</ele>
        <time>2023-08-19T18:00:32.000Z</time>
        <extensions>
          <ns3:TrackPointExtension>
            <ns3:hr>162</ns3:hr>
            <ns3:cad>86</ns3:cad>
          </ns3:TrackPointExtension>
        </extensions>
      </trkpt>
      <trkpt lat="42.61344962753355503082275390625" lon="2.74000785313546657562255859375">
        <ele>205</ele>
        <time>2023-08-19T18:00:33.000Z</time>
        <extensions>
          <ns3:TrackPointExtension>
            <ns3:hr>162</ns3:hr>
            <ns3:cad>86</ns3:cad>
          </ns3:TrackPointExtension>
        </extensions>
      </trkpt>
      <trkpt lat="42.61344694532454013824462890625" lon="2.7400480024516582489013671875">
        <ele>204.600006103515625</ele>
        <time>2023-08-19T18:00:34.000Z</time>
        <extensions>
          <ns3:TrackPointExtension>
            <ns3:hr>162</ns3:hr>
            <ns3:cad>86</ns3:cad>
          </ns3:TrackPointExtension>
        </extensions>
      </trkpt>
      <trkpt lat="42.61344728060066699981689453125" lon="2.74009100161492824554443359375">
        <ele>204.399993896484375</ele>
        <time>2023-08-19T18:00:35.000Z</time>
        <extensions>
          <ns3:TrackPointExtension>
            <ns3:hr>162</ns3:hr>
            <ns3:cad>86</ns3:cad>
          </ns3:TrackPointExtension>
        </extensions>
      </trkpt>
      <trkpt lat="42.61344526894390583038330078125" lon="2.7401340007781982421875">
        <ele>204.1999969482421875</ele>
        <time>2023-08-19T18:00:36.000Z</time>
        <extensions>
          <ns3:TrackPointExtension>
            <ns3:hr>162</ns3:hr>
            <ns3:cad>87</ns3:cad>
          </ns3:TrackPointExtension>
        </extensions>
      </trkpt>
      <trkpt lat="42.6134473644196987152099609375" lon="2.7401740662753582000732421875">
        <ele>203.8000030517578125</ele>
        <time>2023-08-19T18:00:37.000Z</time>
        <extensions>
          <ns3:TrackPointExtension>
            <ns3:hr>162</ns3:hr>
            <ns3:cad>87</ns3:cad>
          </ns3:TrackPointExtension>
        </extensions>
      </trkpt>
      <trkpt lat="42.6134450174868106842041015625" lon="2.74022025056183338165283203125">
        <ele>203.600006103515625</ele>
        <time>2023-08-19T18:00:38.000Z</time>
        <extensions>
          <ns3:TrackPointExtension>
            <ns3:hr>162</ns3:hr>
            <ns3:cad>87</ns3:cad>
          </ns3:TrackPointExtension>
        </extensions>
      </trkpt>
      <trkpt lat="42.61344711296260356903076171875" lon="2.7402587234973907470703125">
        <ele>203.399993896484375</ele>
        <time>2023-08-19T18:00:39.000Z</time>
        <extensions>
          <ns3:TrackPointExtension>
            <ns3:hr>162</ns3:hr>
            <ns3:cad>87</ns3:cad>
          </ns3:TrackPointExtension>
        </extensions>
      </trkpt>
      <trkpt lat="42.61344878934323787689208984375" lon="2.74030289612710475921630859375">
        <ele>203.1999969482421875</ele>
        <time>2023-08-19T18:00:40.000Z</time>
        <extensions>
          <ns3:TrackPointExtension>
            <ns3:hr>162</ns3:hr>
            <ns3:cad>87</ns3:cad>
          </ns3:TrackPointExtension>
        </extensions>
      </trkpt>
      <trkpt lat="42.61345398612320423126220703125" lon="2.74033776484429836273193359375">
        <ele>203</ele>
        <time>2023-08-19T18:00:41.000Z</time>
        <extensions>
          <ns3:TrackPointExtension>
            <ns3:hr>162</ns3:hr>
            <ns3:cad>87</ns3:cad>
          </ns3:TrackPointExtension>
        </extensions>
      </trkpt>
      <trkpt lat="42.61345901526510715484619140625" lon="2.74038503877818584442138671875">
        <ele>202.8000030517578125</ele>
        <time>2023-08-19T18:00:42.000Z</time>
        <extensions>
          <ns3:TrackPointExtension>
            <ns3:hr>162</ns3:hr>
            <ns3:cad>87</ns3:cad>
          </ns3:TrackPointExtension>
        </extensions>
      </trkpt>
      <trkpt lat="42.613462619483470916748046875" lon="2.74042292498052120208740234375">
        <ele>202.600006103515625</ele>
        <time>2023-08-19T18:00:43.000Z</time>
        <extensions>
          <ns3:TrackPointExtension>
            <ns3:hr>162</ns3:hr>
            <ns3:cad>87</ns3:cad>
          </ns3:TrackPointExtension>
        </extensions>
      </trkpt>
      <trkpt lat="42.6134715043008327484130859375" lon="2.74046751670539379119873046875">
        <ele>202.399993896484375</ele>
        <time>2023-08-19T18:00:44.000Z</time>
        <extensions>
          <ns3:TrackPointExtension>
            <ns3:hr>162</ns3:hr>
            <ns3:cad>87</ns3:cad>
          </ns3:TrackPointExtension>
        </extensions>
      </trkpt>
      <trkpt lat="42.6134785450994968414306640625" lon="2.7405053190886974334716796875">
        <ele>202.1999969482421875</ele>
        <time>2023-08-19T18:00:45.000Z</time>
        <extensions>
          <ns3:TrackPointExtension>
            <ns3:hr>162</ns3:hr>
            <ns3:cad>87</ns3:cad>
          </ns3:TrackPointExtension>
        </extensions>
      </trkpt>
      <trkpt lat="42.61348818428814411163330078125" lon="2.740546055138111114501953125">
        <ele>201.8000030517578125</ele>
        <time>2023-08-19T18:00:46.000Z</time>
        <extensions>
          <ns3:TrackPointExtension>
            <ns3:hr>162</ns3:hr>
            <ns3:cad>87</ns3:cad>
          </ns3:TrackPointExtension>
        </extensions>
      </trkpt>
      <trkpt lat="42.6134946383535861968994140625" lon="2.7405914850533008575439453125">
        <ele>201.8000030517578125</ele>
        <time>2023-08-19T18:00:47.000Z</time>
        <extensions>
          <ns3:TrackPointExtension>
            <ns3:hr>162</ns3:hr>
            <ns3:cad>87</ns3:cad>
          </ns3:TrackPointExtension>
        </extensions>
      </trkpt>
      <trkpt lat="42.6135050319135189056396484375" lon="2.74062962271273136138916015625">
        <ele>201.600006103515625</ele>
        <time>2023-08-19T18:00:48.000Z</time>
        <extensions>
          <ns3:TrackPointExtension>
            <ns3:hr>162</ns3:hr>
            <ns3:cad>87</ns3:cad>
          </ns3:TrackPointExtension>
        </extensions>
      </trkpt>
      <trkpt lat="42.6135154254734516143798828125" lon="2.7406706102192401885986328125">
        <ele>201.399993896484375</ele>
        <time>2023-08-19T18:00:49.000Z</time>
        <extensions>
          <ns3:TrackPointExtension>
            <ns3:hr>162</ns3:hr>
            <ns3:cad>87</ns3:cad>
          </ns3:TrackPointExtension>
        </extensions>
      </trkpt>
      <trkpt lat="42.61352908797562122344970703125" lon="2.74070505984127521514892578125">
        <ele>201.399993896484375</ele>
        <time>2023-08-19T18:00:50.000Z</time>
        <extensions>
          <ns3:TrackPointExtension>
            <ns3:hr>162</ns3:hr>
            <ns3:cad>87</ns3:cad>
          </ns3:TrackPointExtension>
        </extensions>
      </trkpt>
      <trkpt lat="42.61354400776326656341552734375" lon="2.74074395187199115753173828125">
        <ele>201.1999969482421875</ele>
        <time>2023-08-19T18:00:51.000Z</time>
        <extensions>
          <ns3:TrackPointExtension>
            <ns3:hr>162</ns3:hr>
            <ns3:cad>87</ns3:cad>
          </ns3:TrackPointExtension>
        </extensions>
      </trkpt>
      <trkpt lat="42.61355943046510219573974609375" lon="2.7407768927514553070068359375">
        <ele>201.1999969482421875</ele>
        <time>2023-08-19T18:00:52.000Z</time>
        <extensions>
          <ns3:TrackPointExtension>
            <ns3:hr>162</ns3:hr>
            <ns3:cad>87</ns3:cad>
          </ns3:TrackPointExtension>
        </extensions>
      </trkpt>
      <trkpt lat="42.613579295575618743896484375" lon="2.74081938900053501129150390625">
        <ele>201</ele>
        <time>2023-08-19T18:00:53.000Z</time>
        <extensions>
          <ns3:TrackPointExtension>
            <ns3:hr>162</ns3:hr>
            <ns3:cad>87</ns3:cad>
          </ns3:TrackPointExtension>
        </extensions>
      </trkpt>
      <trkpt lat="42.6135945506393909454345703125" lon="2.7408570237457752227783203125">
        <ele>201</ele>
        <time>2023-08-19T18:00:54.000Z</time>
        <extensions>
          <ns3:TrackPointExtension>
            <ns3:hr>162</ns3:hr>
            <ns3:cad>87</ns3:cad>
          </ns3:TrackPointExtension>
        </extensions>
      </trkpt>
      <trkpt lat="42.61361173354089260101318359375" lon="2.74089717306196689605712890625">
        <ele>201</ele>
        <time>2023-08-19T18:00:55.000Z</time>
        <extensions>
          <ns3:TrackPointExtension>
            <ns3:hr>162</ns3:hr>
            <ns3:cad>87</ns3:cad>
          </ns3:TrackPointExtension>
        </extensions>
      </trkpt>
      <trkpt lat="42.61362363584339618682861328125" lon="2.74093438871204853057861328125">
        <ele>201</ele>
        <time>2023-08-19T18:00:56.000Z</time>
        <extensions>
          <ns3:TrackPointExtension>
            <ns3:hr>162</ns3:hr>
            <ns3:cad>86</ns3:cad>
          </ns3:TrackPointExtension>
        </extensions>
      </trkpt>
      <trkpt lat="42.61363352648913860321044921875" lon="2.74097076617181301116943359375">
        <ele>200.8000030517578125</ele>
        <time>2023-08-19T18:00:57.000Z</time>
        <extensions>
          <ns3:TrackPointExtension>
            <ns3:hr>162</ns3:hr>
            <ns3:cad>87</ns3:cad>
          </ns3:TrackPointExtension>
        </extensions>
      </trkpt>
      <trkpt lat="42.6136448420584201812744140625" lon="2.74101334623992443084716796875">
        <ele>200.8000030517578125</ele>
        <time>2023-08-19T18:00:58.000Z</time>
        <extensions>
          <ns3:TrackPointExtension>
            <ns3:hr>162</ns3:hr>
            <ns3:cad>87</ns3:cad>
          </ns3:TrackPointExtension>
        </extensions>
      </trkpt>
      <trkpt lat="42.6136587560176849365234375" lon="2.74105475284159183502197265625">
        <ele>200.600006103515625</ele>
        <time>2023-08-19T18:00:59.000Z</time>
        <extensions>
          <ns3:TrackPointExtension>
            <ns3:hr>162</ns3:hr>
            <ns3:cad>87</ns3:cad>
          </ns3:TrackPointExtension>
        </extensions>
      </trkpt>
      <trkpt lat="42.61367308907210826873779296875" lon="2.74109716527163982391357421875">
        <ele>200.399993896484375</ele>
        <time>2023-08-19T18:01:00.000Z</time>
        <extensions>
          <ns3:TrackPointExtension>
            <ns3:hr>162</ns3:hr>
            <ns3:cad>87</ns3:cad>
          </ns3:TrackPointExtension>
        </extensions>
      </trkpt>
      <trkpt lat="42.61368415318429470062255859375" lon="2.74113052524626255035400390625">
        <ele>200.399993896484375</ele>
        <time>2023-08-19T18:01:01.000Z</time>
        <extensions>
          <ns3:TrackPointExtension>
            <ns3:hr>163</ns3:hr>
            <ns3:cad>87</ns3:cad>
          </ns3:TrackPointExtension>
        </extensions>
      </trkpt>
      <trkpt lat="42.61369739659130573272705078125" lon="2.7411711774766445159912109375">
        <ele>200.399993896484375</ele>
        <time>2023-08-19T18:01:02.000Z</time>
        <extensions>
          <ns3:TrackPointExtension>
            <ns3:hr>163</ns3:hr>
            <ns3:cad>87</ns3:cad>
          </ns3:TrackPointExtension>
        </extensions>
      </trkpt>
      <trkpt lat="42.613707371056079864501953125" lon="2.74121199734508991241455078125">
        <ele>200.1999969482421875</ele>
        <time>2023-08-19T18:01:03.000Z</time>
        <extensions>
          <ns3:TrackPointExtension>
            <ns3:hr>163</ns3:hr>
            <ns3:cad>86</ns3:cad>
          </ns3:TrackPointExtension>
        </extensions>
      </trkpt>
      <trkpt lat="42.613717429339885711669921875" lon="2.74125440977513790130615234375">
        <ele>200.1999969482421875</ele>
        <time>2023-08-19T18:01:04.000Z</time>
        <extensions>
          <ns3:TrackPointExtension>
            <ns3:hr>163</ns3:hr>
            <ns3:cad>86</ns3:cad>
          </ns3:TrackPointExtension>
        </extensions>
      </trkpt>
      <trkpt lat="42.613727487623691558837890625" lon="2.7412967383861541748046875">
        <ele>200.1999969482421875</ele>
        <time>2023-08-19T18:01:05.000Z</time>
        <extensions>
          <ns3:TrackPointExtension>
            <ns3:hr>163</ns3:hr>
            <ns3:cad>87</ns3:cad>
          </ns3:TrackPointExtension>
        </extensions>
      </trkpt>
      <trkpt lat="42.61373989284038543701171875" lon="2.741332612931728363037109375">
        <ele>200</ele>
        <time>2023-08-19T18:01:06.000Z</time>
        <extensions>
          <ns3:TrackPointExtension>
            <ns3:hr>162</ns3:hr>
            <ns3:cad>86</ns3:cad>
          </ns3:TrackPointExtension>
        </extensions>
      </trkpt>
      <trkpt lat="42.61375590227544307708740234375" lon="2.74137645028531551361083984375">
        <ele>200</ele>
        <time>2023-08-19T18:01:07.000Z</time>
        <extensions>
          <ns3:TrackPointExtension>
            <ns3:hr>162</ns3:hr>
            <ns3:cad>86</ns3:cad>
          </ns3:TrackPointExtension>
        </extensions>
      </trkpt>
      <trkpt lat="42.6137714087963104248046875" lon="2.74140981025993824005126953125">
        <ele>199.8000030517578125</ele>
        <time>2023-08-19T18:01:08.000Z</time>
        <extensions>
          <ns3:TrackPointExtension>
            <ns3:hr>162</ns3:hr>
            <ns3:cad>86</ns3:cad>
          </ns3:TrackPointExtension>
        </extensions>
      </trkpt>
      <trkpt lat="42.61378758586943149566650390625" lon="2.74145297706127166748046875">
        <ele>199.600006103515625</ele>
        <time>2023-08-19T18:01:09.000Z</time>
        <extensions>
          <ns3:TrackPointExtension>
            <ns3:hr>162</ns3:hr>
            <ns3:cad>86</ns3:cad>
          </ns3:TrackPointExtension>
        </extensions>
      </trkpt>
      <trkpt lat="42.61379982344806194305419921875" lon="2.74148591794073581695556640625">
        <ele>199.1999969482421875</ele>
        <time>2023-08-19T18:01:10.000Z</time>
        <extensions>
          <ns3:TrackPointExtension>
            <ns3:hr>162</ns3:hr>
            <ns3:cad>86</ns3:cad>
          </ns3:TrackPointExtension>
        </extensions>
      </trkpt>
      <trkpt lat="42.613816671073436737060546875" lon="2.741531431674957275390625">
        <ele>199</ele>
        <time>2023-08-19T18:01:11.000Z</time>
        <extensions>
          <ns3:TrackPointExtension>
            <ns3:hr>163</ns3:hr>
            <ns3:cad>86</ns3:cad>
          </ns3:TrackPointExtension>
        </extensions>
      </trkpt>
      <trkpt lat="42.61382731609046459197998046875" lon="2.7415756881237030029296875">
        <ele>198.399993896484375</ele>
        <time>2023-08-19T18:01:12.000Z</time>
        <extensions>
          <ns3:TrackPointExtension>
            <ns3:hr>163</ns3:hr>
            <ns3:cad>87</ns3:cad>
          </ns3:TrackPointExtension>
        </extensions>
      </trkpt>
      <trkpt lat="42.61383921839296817779541015625" lon="2.74161734618246555328369140625">
        <ele>198.1999969482421875</ele>
        <time>2023-08-19T18:01:13.000Z</time>
        <extensions>
          <ns3:TrackPointExtension>
            <ns3:hr>163</ns3:hr>
            <ns3:cad>87</ns3:cad>
          </ns3:TrackPointExtension>
        </extensions>
      </trkpt>
      <trkpt lat="42.613848857581615447998046875" lon="2.74165892042219638824462890625">
        <ele>197.8000030517578125</ele>
        <time>2023-08-19T18:01:14.000Z</time>
        <extensions>
          <ns3:TrackPointExtension>
            <ns3:hr>163</ns3:hr>
            <ns3:cad>86</ns3:cad>
          </ns3:TrackPointExtension>
        </extensions>
      </trkpt>
      <trkpt lat="42.61386034078896045684814453125" lon="2.74169110693037509918212890625">
        <ele>197.8000030517578125</ele>
        <time>2023-08-19T18:01:15.000Z</time>
        <extensions>
          <ns3:TrackPointExtension>
            <ns3:hr>163</ns3:hr>
            <ns3:cad>86</ns3:cad>
          </ns3:TrackPointExtension>
        </extensions>
      </trkpt>
      <trkpt lat="42.61387291364371776580810546875" lon="2.74173234589397907257080078125">
        <ele>197.600006103515625</ele>
        <time>2023-08-19T18:01:16.000Z</time>
        <extensions>
          <ns3:TrackPointExtension>
            <ns3:hr>163</ns3:hr>
            <ns3:cad>86</ns3:cad>
          </ns3:TrackPointExtension>
        </extensions>
      </trkpt>
      <trkpt lat="42.61388464830815792083740234375" lon="2.74176436476409435272216796875">
        <ele>197.600006103515625</ele>
        <time>2023-08-19T18:01:17.000Z</time>
        <extensions>
          <ns3:TrackPointExtension>
            <ns3:hr>162</ns3:hr>
            <ns3:cad>86</ns3:cad>
          </ns3:TrackPointExtension>
        </extensions>
      </trkpt>
      <trkpt lat="42.61389814317226409912109375" lon="2.7418085373938083648681640625">
        <ele>197.399993896484375</ele>
        <time>2023-08-19T18:01:18.000Z</time>
        <extensions>
          <ns3:TrackPointExtension>
            <ns3:hr>163</ns3:hr>
            <ns3:cad>86</ns3:cad>
          </ns3:TrackPointExtension>
        </extensions>
      </trkpt>
      <trkpt lat="42.6139066927134990692138671875" lon="2.74184516631066799163818359375">
        <ele>197.1999969482421875</ele>
        <time>2023-08-19T18:01:19.000Z</time>
        <extensions>
          <ns3:TrackPointExtension>
            <ns3:hr>163</ns3:hr>
            <ns3:cad>86</ns3:cad>
          </ns3:TrackPointExtension>
        </extensions>
      </trkpt>
      <trkpt lat="42.613917253911495208740234375" lon="2.74188883602619171142578125">
        <ele>197</ele>
        <time>2023-08-19T18:01:20.000Z</time>
        <extensions>
          <ns3:TrackPointExtension>
            <ns3:hr>163</ns3:hr>
            <ns3:cad>86</ns3:cad>
          </ns3:TrackPointExtension>
        </extensions>
      </trkpt>
      <trkpt lat="42.61392488144338130950927734375" lon="2.7419302426278591156005859375">
        <ele>196.8000030517578125</ele>
        <time>2023-08-19T18:01:21.000Z</time>
        <extensions>
          <ns3:TrackPointExtension>
            <ns3:hr>163</ns3:hr>
            <ns3:cad>86</ns3:cad>
          </ns3:TrackPointExtension>
        </extensions>
      </trkpt>
      <trkpt lat="42.61393493972718715667724609375" lon="2.74197399616241455078125">
        <ele>196.600006103515625</ele>
        <time>2023-08-19T18:01:22.000Z</time>
        <extensions>
          <ns3:TrackPointExtension>
            <ns3:hr>162</ns3:hr>
            <ns3:cad>86</ns3:cad>
          </ns3:TrackPointExtension>
        </extensions>
      </trkpt>
      <trkpt lat="42.6139425672590732574462890625" lon="2.74201783351600170135498046875">
        <ele>196.399993896484375</ele>
        <time>2023-08-19T18:01:23.000Z</time>
        <extensions>
          <ns3:TrackPointExtension>
            <ns3:hr>162</ns3:hr>
            <ns3:cad>86</ns3:cad>
          </ns3:TrackPointExtension>
        </extensions>
      </trkpt>
      <trkpt lat="42.61395170353353023529052734375" lon="2.74205940775573253631591796875">
        <ele>196.1999969482421875</ele>
        <time>2023-08-19T18:01:24.000Z</time>
        <extensions>
          <ns3:TrackPointExtension>
            <ns3:hr>162</ns3:hr>
            <ns3:cad>87</ns3:cad>
          </ns3:TrackPointExtension>
        </extensions>
      </trkpt>
      <trkpt lat="42.6139579899609088897705078125" lon="2.74210517294704914093017578125">
        <ele>196</ele>
        <time>2023-08-19T18:01:25.000Z</time>
        <extensions>
          <ns3:TrackPointExtension>
            <ns3:hr>162</ns3:hr>
            <ns3:cad>88</ns3:cad>
          </ns3:TrackPointExtension>
        </extensions>
      </trkpt>
      <trkpt lat="42.61396880261600017547607421875" lon="2.74214372970163822174072265625">
        <ele>195.600006103515625</ele>
        <time>2023-08-19T18:01:26.000Z</time>
        <extensions>
          <ns3:TrackPointExtension>
            <ns3:hr>162</ns3:hr>
            <ns3:cad>88</ns3:cad>
          </ns3:TrackPointExtension>
        </extensions>
      </trkpt>
      <trkpt lat="42.6139757595956325531005859375" lon="2.742191590368747711181640625">
        <ele>195.399993896484375</ele>
        <time>2023-08-19T18:01:27.000Z</time>
        <extensions>
          <ns3:TrackPointExtension>
            <ns3:hr>162</ns3:hr>
            <ns3:cad>87</ns3:cad>
          </ns3:TrackPointExtension>
        </extensions>
      </trkpt>
      <trkpt lat="42.61397886089980602264404296875" lon="2.74223542772233486175537109375">
        <ele>195.1999969482421875</ele>
        <time>2023-08-19T18:01:28.000Z</time>
        <extensions>
          <ns3:TrackPointExtension>
            <ns3:hr>162</ns3:hr>
            <ns3:cad>87</ns3:cad>
          </ns3:TrackPointExtension>
        </extensions>
      </trkpt>
      <trkpt lat="42.61398129165172576904296875" lon="2.7422909997403621673583984375">
        <ele>195</ele>
        <time>2023-08-19T18:01:29.000Z</time>
        <extensions>
          <ns3:TrackPointExtension>
            <ns3:hr>162</ns3:hr>
            <ns3:cad>86</ns3:cad>
          </ns3:TrackPointExtension>
        </extensions>
      </trkpt>
      <trkpt lat="42.61398154310882091522216796875" lon="2.74233198724687099456787109375">
        <ele>194.399993896484375</ele>
        <time>2023-08-19T18:01:30.000Z</time>
        <extensions>
          <ns3:TrackPointExtension>
            <ns3:hr>162</ns3:hr>
            <ns3:cad>86</ns3:cad>
          </ns3:TrackPointExtension>
        </extensions>
      </trkpt>
      <trkpt lat="42.6139817945659160614013671875" lon="2.742375992238521575927734375">
        <ele>194</ele>
        <time>2023-08-19T18:01:31.000Z</time>
        <extensions>
          <ns3:TrackPointExtension>
            <ns3:hr>162</ns3:hr>
            <ns3:cad>87</ns3:cad>
          </ns3:TrackPointExtension>
        </extensions>
      </trkpt>
      <trkpt lat="42.6139787770807743072509765625" lon="2.74241848848760128021240234375">
        <ele>193.600006103515625</ele>
        <time>2023-08-19T18:01:32.000Z</time>
        <extensions>
          <ns3:TrackPointExtension>
            <ns3:hr>162</ns3:hr>
            <ns3:cad>87</ns3:cad>
          </ns3:TrackPointExtension>
        </extensions>
      </trkpt>
      <trkpt lat="42.613982968032360076904296875" lon="2.74246207438409328460693359375">
        <ele>193.399993896484375</ele>
        <time>2023-08-19T18:01:33.000Z</time>
        <extensions>
          <ns3:TrackPointExtension>
            <ns3:hr>162</ns3:hr>
            <ns3:cad>87</ns3:cad>
          </ns3:TrackPointExtension>
        </extensions>
      </trkpt>
      <trkpt lat="42.61398338712751865386962890625" lon="2.7425092644989490509033203125">
        <ele>193</ele>
        <time>2023-08-19T18:01:34.000Z</time>
        <extensions>
          <ns3:TrackPointExtension>
            <ns3:hr>162</ns3:hr>
            <ns3:cad>87</ns3:cad>
          </ns3:TrackPointExtension>
        </extensions>
      </trkpt>
      <trkpt lat="42.6139858178794384002685546875" lon="2.7425541914999485015869140625">
        <ele>192.8000030517578125</ele>
        <time>2023-08-19T18:01:35.000Z</time>
        <extensions>
          <ns3:TrackPointExtension>
            <ns3:hr>162</ns3:hr>
            <ns3:cad>87</ns3:cad>
          </ns3:TrackPointExtension>
        </extensions>
      </trkpt>
      <trkpt lat="42.61398506350815296173095703125" lon="2.74259903468191623687744140625">
        <ele>192.1999969482421875</ele>
        <time>2023-08-19T18:01:36.000Z</time>
        <extensions>
          <ns3:TrackPointExtension>
            <ns3:hr>162</ns3:hr>
            <ns3:cad>87</ns3:cad>
          </ns3:TrackPointExtension>
        </extensions>
      </trkpt>
      <trkpt lat="42.61398640461266040802001953125" lon="2.74264044128358364105224609375">
        <ele>191.8000030517578125</ele>
        <time>2023-08-19T18:01:37.000Z</time>
        <extensions>
          <ns3:TrackPointExtension>
            <ns3:hr>162</ns3:hr>
            <ns3:cad>87</ns3:cad>
          </ns3:TrackPointExtension>
        </extensions>
      </trkpt>
      <trkpt lat="42.61398942209780216217041015625" lon="2.74268453009426593780517578125">
        <ele>191.600006103515625</ele>
        <time>2023-08-19T18:01:38.000Z</time>
        <extensions>
          <ns3:TrackPointExtension>
            <ns3:hr>162</ns3:hr>
            <ns3:cad>87</ns3:cad>
          </ns3:TrackPointExtension>
        </extensions>
      </trkpt>
      <trkpt lat="42.613989673554897308349609375" lon="2.74272744543850421905517578125">
        <ele>190.8000030517578125</ele>
        <time>2023-08-19T18:01:39.000Z</time>
        <extensions>
          <ns3:TrackPointExtension>
            <ns3:hr>162</ns3:hr>
            <ns3:cad>86</ns3:cad>
          </ns3:TrackPointExtension>
        </extensions>
      </trkpt>
      <trkpt lat="42.61399478651583194732666015625" lon="2.74276734329760074615478515625">
        <ele>190.399993896484375</ele>
        <time>2023-08-19T18:01:40.000Z</time>
        <extensions>
          <ns3:TrackPointExtension>
            <ns3:hr>162</ns3:hr>
            <ns3:cad>86</ns3:cad>
          </ns3:TrackPointExtension>
        </extensions>
      </trkpt>
      <trkpt lat="42.61400015093386173248291015625" lon="2.74281394667923450469970703125">
        <ele>190</ele>
        <time>2023-08-19T18:01:41.000Z</time>
        <extensions>
          <ns3:TrackPointExtension>
            <ns3:hr>162</ns3:hr>
            <ns3:cad>86</ns3:cad>
          </ns3:TrackPointExtension>
        </extensions>
      </trkpt>
      <trkpt lat="42.6140089519321918487548828125" lon="2.74285309016704559326171875">
        <ele>189.600006103515625</ele>
        <time>2023-08-19T18:01:42.000Z</time>
        <extensions>
          <ns3:TrackPointExtension>
            <ns3:hr>161</ns3:hr>
            <ns3:cad>86</ns3:cad>
          </ns3:TrackPointExtension>
        </extensions>
      </trkpt>
      <trkpt lat="42.61401741765439510345458984375" lon="2.74289868772029876708984375">
        <ele>189.1999969482421875</ele>
        <time>2023-08-19T18:01:43.000Z</time>
        <extensions>
          <ns3:TrackPointExtension>
            <ns3:hr>161</ns3:hr>
            <ns3:cad>86</ns3:cad>
          </ns3:TrackPointExtension>
        </extensions>
      </trkpt>
      <trkpt lat="42.61402688920497894287109375" lon="2.74293581955134868621826171875">
        <ele>189</ele>
        <time>2023-08-19T18:01:44.000Z</time>
        <extensions>
          <ns3:TrackPointExtension>
            <ns3:hr>161</ns3:hr>
            <ns3:cad>86</ns3:cad>
          </ns3:TrackPointExtension>
        </extensions>
      </trkpt>
      <trkpt lat="42.61403820477426052093505859375" lon="2.74298141710460186004638671875">
        <ele>188.8000030517578125</ele>
        <time>2023-08-19T18:01:45.000Z</time>
        <extensions>
          <ns3:TrackPointExtension>
            <ns3:hr>161</ns3:hr>
            <ns3:cad>86</ns3:cad>
          </ns3:TrackPointExtension>
        </extensions>
      </trkpt>
      <trkpt lat="42.61404423974454402923583984375" lon="2.74302014149725437164306640625">
        <ele>188.1999969482421875</ele>
        <time>2023-08-19T18:01:46.000Z</time>
        <extensions>
          <ns3:TrackPointExtension>
            <ns3:hr>161</ns3:hr>
            <ns3:cad>86</ns3:cad>
          </ns3:TrackPointExtension>
        </extensions>
      </trkpt>
      <trkpt lat="42.61404641903936862945556640625" lon="2.74306339211761951446533203125">
        <ele>188</ele>
        <time>2023-08-19T18:01:47.000Z</time>
        <extensions>
          <ns3:TrackPointExtension>
            <ns3:hr>161</ns3:hr>
            <ns3:cad>87</ns3:cad>
          </ns3:TrackPointExtension>
        </extensions>
      </trkpt>
      <trkpt lat="42.61404558084905147552490234375" lon="2.74310588836669921875">
        <ele>187.600006103515625</ele>
        <time>2023-08-19T18:01:48.000Z</time>
        <extensions>
          <ns3:TrackPointExtension>
            <ns3:hr>161</ns3:hr>
            <ns3:cad>87</ns3:cad>
          </ns3:TrackPointExtension>
        </extensions>
      </trkpt>
      <trkpt lat="42.6140503585338592529296875" lon="2.74314813315868377685546875">
        <ele>186.8000030517578125</ele>
        <time>2023-08-19T18:01:49.000Z</time>
        <extensions>
          <ns3:TrackPointExtension>
            <ns3:hr>161</ns3:hr>
            <ns3:cad>87</ns3:cad>
          </ns3:TrackPointExtension>
        </extensions>
      </trkpt>
      <trkpt lat="42.61405237019062042236328125" lon="2.74319549091160297393798828125">
        <ele>186.399993896484375</ele>
        <time>2023-08-19T18:01:50.000Z</time>
        <extensions>
          <ns3:TrackPointExtension>
            <ns3:hr>161</ns3:hr>
            <ns3:cad>87</ns3:cad>
          </ns3:TrackPointExtension>
        </extensions>
      </trkpt>
      <trkpt lat="42.61405647732317447662353515625" lon="2.74323404766619205474853515625">
        <ele>186.1999969482421875</ele>
        <time>2023-08-19T18:01:51.000Z</time>
        <extensions>
          <ns3:TrackPointExtension>
            <ns3:hr>162</ns3:hr>
            <ns3:cad>87</ns3:cad>
          </ns3:TrackPointExtension>
        </extensions>
      </trkpt>
      <trkpt lat="42.6140584051609039306640625" lon="2.743278555572032928466796875">
        <ele>185.8000030517578125</ele>
        <time>2023-08-19T18:01:52.000Z</time>
        <extensions>
          <ns3:TrackPointExtension>
            <ns3:hr>161</ns3:hr>
            <ns3:cad>86</ns3:cad>
          </ns3:TrackPointExtension>
        </extensions>
      </trkpt>
      <trkpt lat="42.6140615902841091156005859375" lon="2.74331853725016117095947265625">
        <ele>185.600006103515625</ele>
        <time>2023-08-19T18:01:53.000Z</time>
        <extensions>
          <ns3:TrackPointExtension>
            <ns3:hr>161</ns3:hr>
            <ns3:cad>86</ns3:cad>
          </ns3:TrackPointExtension>
        </extensions>
      </trkpt>
      <trkpt lat="42.61406653560698032379150390625" lon="2.74335826747119426727294921875">
        <ele>185.399993896484375</ele>
        <time>2023-08-19T18:01:54.000Z</time>
        <extensions>
          <ns3:TrackPointExtension>
            <ns3:hr>161</ns3:hr>
            <ns3:cad>86</ns3:cad>
          </ns3:TrackPointExtension>
        </extensions>
      </trkpt>
      <trkpt lat="42.614062093198299407958984375" lon="2.743400596082210540771484375">
        <ele>185</ele>
        <time>2023-08-19T18:01:55.000Z</time>
        <extensions>
          <ns3:TrackPointExtension>
            <ns3:hr>161</ns3:hr>
            <ns3:cad>86</ns3:cad>
          </ns3:TrackPointExtension>
        </extensions>
      </trkpt>
      <trkpt lat="42.61406368575990200042724609375" lon="2.74343806318938732147216796875">
        <ele>184.600006103515625</ele>
        <time>2023-08-19T18:01:56.000Z</time>
        <extensions>
          <ns3:TrackPointExtension>
            <ns3:hr>161</ns3:hr>
            <ns3:cad>85</ns3:cad>
          </ns3:TrackPointExtension>
        </extensions>
      </trkpt>
      <trkpt lat="42.6140609197318553924560546875" lon="2.743485756218433380126953125">
        <ele>184.399993896484375</ele>
        <time>2023-08-19T18:01:57.000Z</time>
        <extensions>
          <ns3:TrackPointExtension>
            <ns3:hr>161</ns3:hr>
            <ns3:cad>85</ns3:cad>
          </ns3:TrackPointExtension>
        </extensions>
      </trkpt>
      <trkpt lat="42.61405882425606250762939453125" lon="2.74352506734430789947509765625">
        <ele>184.1999969482421875</ele>
        <time>2023-08-19T18:01:58.000Z</time>
        <extensions>
          <ns3:TrackPointExtension>
            <ns3:hr>161</ns3:hr>
            <ns3:cad>85</ns3:cad>
          </ns3:TrackPointExtension>
        </extensions>
      </trkpt>
      <trkpt lat="42.61405530385673046112060546875" lon="2.7435724250972270965576171875">
        <ele>183.600006103515625</ele>
        <time>2023-08-19T18:01:59.000Z</time>
        <extensions>
          <ns3:TrackPointExtension>
            <ns3:hr>161</ns3:hr>
            <ns3:cad>85</ns3:cad>
          </ns3:TrackPointExtension>
        </extensions>
      </trkpt>
      <trkpt lat="42.614049352705478668212890625" lon="2.7436133287847042083740234375">
        <ele>183.1999969482421875</ele>
        <time>2023-08-19T18:02:00.000Z</time>
        <extensions>
          <ns3:TrackPointExtension>
            <ns3:hr>161</ns3:hr>
            <ns3:cad>85</ns3:cad>
          </ns3:TrackPointExtension>
        </extensions>
      </trkpt>
      <trkpt lat="42.61404306627810001373291015625" lon="2.743661105632781982421875">
        <ele>183</ele>
        <time>2023-08-19T18:02:01.000Z</time>
        <extensions>
          <ns3:TrackPointExtension>
            <ns3:hr>161</ns3:hr>
            <ns3:cad>86</ns3:cad>
          </ns3:TrackPointExtension>
        </extensions>
      </trkpt>
      <trkpt lat="42.6140342652797698974609375" lon="2.74370603263378143310546875">
        <ele>182.600006103515625</ele>
        <time>2023-08-19T18:02:02.000Z</time>
        <extensions>
          <ns3:TrackPointExtension>
            <ns3:hr>161</ns3:hr>
            <ns3:cad>86</ns3:cad>
          </ns3:TrackPointExtension>
        </extensions>
      </trkpt>
      <trkpt lat="42.61402957141399383544921875" lon="2.74374886415898799896240234375">
        <ele>181.8000030517578125</ele>
        <time>2023-08-19T18:02:03.000Z</time>
        <extensions>
          <ns3:TrackPointExtension>
            <ns3:hr>160</ns3:hr>
            <ns3:cad>86</ns3:cad>
          </ns3:TrackPointExtension>
        </extensions>
      </trkpt>
      <trkpt lat="42.61402160860598087310791015625" lon="2.7437927015125751495361328125">
        <ele>181.600006103515625</ele>
        <time>2023-08-19T18:02:04.000Z</time>
        <extensions>
          <ns3:TrackPointExtension>
            <ns3:hr>160</ns3:hr>
            <ns3:cad>86</ns3:cad>
          </ns3:TrackPointExtension>
        </extensions>
      </trkpt>
      <trkpt lat="42.614016830921173095703125" lon="2.74383033625781536102294921875">
        <ele>181.399993896484375</ele>
        <time>2023-08-19T18:02:05.000Z</time>
        <extensions>
          <ns3:TrackPointExtension>
            <ns3:hr>160</ns3:hr>
            <ns3:cad>86</ns3:cad>
          </ns3:TrackPointExtension>
        </extensions>
      </trkpt>
      <trkpt lat="42.614007107913494110107421875" lon="2.74387543089687824249267578125">
        <ele>181</ele>
        <time>2023-08-19T18:02:06.000Z</time>
        <extensions>
          <ns3:TrackPointExtension>
            <ns3:hr>160</ns3:hr>
            <ns3:cad>86</ns3:cad>
          </ns3:TrackPointExtension>
        </extensions>
      </trkpt>
      <trkpt lat="42.613999731838703155517578125" lon="2.7439160831272602081298828125">
        <ele>180.600006103515625</ele>
        <time>2023-08-19T18:02:07.000Z</time>
        <extensions>
          <ns3:TrackPointExtension>
            <ns3:hr>160</ns3:hr>
            <ns3:cad>86</ns3:cad>
          </ns3:TrackPointExtension>
        </extensions>
      </trkpt>
      <trkpt lat="42.61399067938327789306640625" lon="2.74395975284278392791748046875">
        <ele>180.399993896484375</ele>
        <time>2023-08-19T18:02:08.000Z</time>
        <extensions>
          <ns3:TrackPointExtension>
            <ns3:hr>160</ns3:hr>
            <ns3:cad>87</ns3:cad>
          </ns3:TrackPointExtension>
        </extensions>
      </trkpt>
      <trkpt lat="42.61398137547075748443603515625" lon="2.74400199763476848602294921875">
        <ele>180</ele>
        <time>2023-08-19T18:02:09.000Z</time>
        <extensions>
          <ns3:TrackPointExtension>
            <ns3:hr>160</ns3:hr>
            <ns3:cad>86</ns3:cad>
          </ns3:TrackPointExtension>
        </extensions>
      </trkpt>
      <trkpt lat="42.6139717362821102142333984375" lon="2.74405497126281261444091796875">
        <ele>179.600006103515625</ele>
        <time>2023-08-19T18:02:10.000Z</time>
        <extensions>
          <ns3:TrackPointExtension>
            <ns3:hr>160</ns3:hr>
            <ns3:cad>86</ns3:cad>
          </ns3:TrackPointExtension>
        </extensions>
      </trkpt>
      <trkpt lat="42.61396528221666812896728515625" lon="2.74409352801740169525146484375">
        <ele>179.399993896484375</ele>
        <time>2023-08-19T18:02:11.000Z</time>
        <extensions>
          <ns3:TrackPointExtension>
            <ns3:hr>160</ns3:hr>
            <ns3:cad>88</ns3:cad>
          </ns3:TrackPointExtension>
        </extensions>
      </trkpt>
      <trkpt lat="42.6139618456363677978515625" lon="2.74414197541773319244384765625">
        <ele>179</ele>
        <time>2023-08-19T18:02:12.000Z</time>
        <extensions>
          <ns3:TrackPointExtension>
            <ns3:hr>160</ns3:hr>
            <ns3:cad>89</ns3:cad>
          </ns3:TrackPointExtension>
        </extensions>
      </trkpt>
      <trkpt lat="42.6139553077518939971923828125" lon="2.7441893331706523895263671875">
        <ele>178.600006103515625</ele>
        <time>2023-08-19T18:02:13.000Z</time>
        <extensions>
          <ns3:TrackPointExtension>
            <ns3:hr>160</ns3:hr>
            <ns3:cad>88</ns3:cad>
          </ns3:TrackPointExtension>
        </extensions>
      </trkpt>
      <trkpt lat="42.61394851841032505035400390625" lon="2.74423199705779552459716796875">
        <ele>178.399993896484375</ele>
        <time>2023-08-19T18:02:14.000Z</time>
        <extensions>
          <ns3:TrackPointExtension>
            <ns3:hr>160</ns3:hr>
            <ns3:cad>88</ns3:cad>
          </ns3:TrackPointExtension>
        </extensions>
      </trkpt>
      <trkpt lat="42.6139350235462188720703125" lon="2.7442785166203975677490234375">
        <ele>178</ele>
        <time>2023-08-19T18:02:15.000Z</time>
        <extensions>
          <ns3:TrackPointExtension>
            <ns3:hr>160</ns3:hr>
            <ns3:cad>88</ns3:cad>
          </ns3:TrackPointExtension>
        </extensions>
      </trkpt>
      <trkpt lat="42.613925300538539886474609375" lon="2.744321264326572418212890625">
        <ele>177.8000030517578125</ele>
        <time>2023-08-19T18:02:16.000Z</time>
        <extensions>
          <ns3:TrackPointExtension>
            <ns3:hr>160</ns3:hr>
            <ns3:cad>87</ns3:cad>
          </ns3:TrackPointExtension>
        </extensions>
      </trkpt>
      <trkpt lat="42.61391180567443370819091796875" lon="2.74436158128082752227783203125">
        <ele>177</ele>
        <time>2023-08-19T18:02:17.000Z</time>
        <extensions>
          <ns3:TrackPointExtension>
            <ns3:hr>160</ns3:hr>
            <ns3:cad>87</ns3:cad>
          </ns3:TrackPointExtension>
        </extensions>
      </trkpt>
      <trkpt lat="42.61389839462935924530029296875" lon="2.74440248496830463409423828125">
        <ele>176.8000030517578125</ele>
        <time>2023-08-19T18:02:18.000Z</time>
        <extensions>
          <ns3:TrackPointExtension>
            <ns3:hr>160</ns3:hr>
            <ns3:cad>86</ns3:cad>
          </ns3:TrackPointExtension>
        </extensions>
      </trkpt>
      <trkpt lat="42.61388741433620452880859375" lon="2.74443752132356166839599609375">
        <ele>176.399993896484375</ele>
        <time>2023-08-19T18:02:19.000Z</time>
        <extensions>
          <ns3:TrackPointExtension>
            <ns3:hr>160</ns3:hr>
            <ns3:cad>86</ns3:cad>
          </ns3:TrackPointExtension>
        </extensions>
      </trkpt>
      <trkpt lat="42.61387023143470287322998046875" lon="2.74447356350719928741455078125">
        <ele>175.8000030517578125</ele>
        <time>2023-08-19T18:02:20.000Z</time>
        <extensions>
          <ns3:TrackPointExtension>
            <ns3:hr>160</ns3:hr>
            <ns3:cad>86</ns3:cad>
          </ns3:TrackPointExtension>
        </extensions>
      </trkpt>
      <trkpt lat="42.61385925114154815673828125" lon="2.7445095218718051910400390625">
        <ele>175.1999969482421875</ele>
        <time>2023-08-19T18:02:21.000Z</time>
        <extensions>
          <ns3:TrackPointExtension>
            <ns3:hr>160</ns3:hr>
            <ns3:cad>86</ns3:cad>
          </ns3:TrackPointExtension>
        </extensions>
      </trkpt>
      <trkpt lat="42.613847516477108001708984375" lon="2.7445521019399166107177734375">
        <ele>174.399993896484375</ele>
        <time>2023-08-19T18:02:22.000Z</time>
        <extensions>
          <ns3:TrackPointExtension>
            <ns3:hr>159</ns3:hr>
            <ns3:cad>86</ns3:cad>
          </ns3:TrackPointExtension>
        </extensions>
      </trkpt>
      <trkpt lat="42.613840140402317047119140625" lon="2.74459543637931346893310546875">
        <ele>174.1999969482421875</ele>
        <time>2023-08-19T18:02:23.000Z</time>
        <extensions>
          <ns3:TrackPointExtension>
            <ns3:hr>159</ns3:hr>
            <ns3:cad>85</ns3:cad>
          </ns3:TrackPointExtension>
        </extensions>
      </trkpt>
      <trkpt lat="42.61383066885173320770263671875" lon="2.74464321322739124298095703125">
        <ele>173.600006103515625</ele>
        <time>2023-08-19T18:02:24.000Z</time>
        <extensions>
          <ns3:TrackPointExtension>
            <ns3:hr>159</ns3:hr>
            <ns3:cad>85</ns3:cad>
          </ns3:TrackPointExtension>
        </extensions>
      </trkpt>
      <trkpt lat="42.61382379569113254547119140625" lon="2.7446815185248851776123046875">
        <ele>173.600006103515625</ele>
        <time>2023-08-19T18:02:25.000Z</time>
        <extensions>
          <ns3:TrackPointExtension>
            <ns3:hr>159</ns3:hr>
            <ns3:cad>85</ns3:cad>
          </ns3:TrackPointExtension>
        </extensions>
      </trkpt>
      <trkpt lat="42.61382027529180049896240234375" lon="2.74472451768815517425537109375">
        <ele>173.399993896484375</ele>
        <time>2023-08-19T18:02:26.000Z</time>
        <extensions>
          <ns3:TrackPointExtension>
            <ns3:hr>159</ns3:hr>
            <ns3:cad>86</ns3:cad>
          </ns3:TrackPointExtension>
        </extensions>
      </trkpt>
      <trkpt lat="42.61382027529180049896240234375" lon="2.7447660081088542938232421875">
        <ele>173</ele>
        <time>2023-08-19T18:02:27.000Z</time>
        <extensions>
          <ns3:TrackPointExtension>
            <ns3:hr>159</ns3:hr>
            <ns3:cad>86</ns3:cad>
          </ns3:TrackPointExtension>
        </extensions>
      </trkpt>
      <trkpt lat="42.61381809599697589874267578125" lon="2.74481671862304210662841796875">
        <ele>172.1999969482421875</ele>
        <time>2023-08-19T18:02:28.000Z</time>
        <extensions>
          <ns3:TrackPointExtension>
            <ns3:hr>159</ns3:hr>
            <ns3:cad>87</ns3:cad>
          </ns3:TrackPointExtension>
        </extensions>
      </trkpt>
      <trkpt lat="42.61381558142602443695068359375" lon="2.7448719553649425506591796875">
        <ele>171.600006103515625</ele>
        <time>2023-08-19T18:02:29.000Z</time>
        <extensions>
          <ns3:TrackPointExtension>
            <ns3:hr>159</ns3:hr>
            <ns3:cad>91</ns3:cad>
          </ns3:TrackPointExtension>
        </extensions>
      </trkpt>
      <trkpt lat="42.6138054393231868743896484375" lon="2.7449108473956584930419921875">
        <ele>170.600006103515625</ele>
        <time>2023-08-19T18:02:30.000Z</time>
        <extensions>
          <ns3:TrackPointExtension>
            <ns3:hr>159</ns3:hr>
            <ns3:cad>96</ns3:cad>
          </ns3:TrackPointExtension>
        </extensions>
      </trkpt>
      <trkpt lat="42.613797225058078765869140625" lon="2.7449587918817996978759765625">
        <ele>170.1999969482421875</ele>
        <time>2023-08-19T18:02:31.000Z</time>
        <extensions>
          <ns3:TrackPointExtension>
            <ns3:hr>159</ns3:hr>
            <ns3:cad>97</ns3:cad>
          </ns3:TrackPointExtension>
        </extensions>
      </trkpt>
      <trkpt lat="42.6137916930019855499267578125" lon="2.74499810300767421722412109375">
        <ele>169.600006103515625</ele>
        <time>2023-08-19T18:02:32.000Z</time>
        <extensions>
          <ns3:TrackPointExtension>
            <ns3:hr>159</ns3:hr>
            <ns3:cad>95</ns3:cad>
          </ns3:TrackPointExtension>
        </extensions>
      </trkpt>
      <trkpt lat="42.61379077099263668060302734375" lon="2.7450348995625972747802734375">
        <ele>169.600006103515625</ele>
        <time>2023-08-19T18:02:33.000Z</time>
        <extensions>
          <ns3:TrackPointExtension>
            <ns3:hr>159</ns3:hr>
            <ns3:cad>93</ns3:cad>
          </ns3:TrackPointExtension>
        </extensions>
      </trkpt>
      <trkpt lat="42.6137923635542392730712890625" lon="2.74507655762135982513427734375">
        <ele>169.399993896484375</ele>
        <time>2023-08-19T18:02:34.000Z</time>
        <extensions>
          <ns3:TrackPointExtension>
            <ns3:hr>159</ns3:hr>
            <ns3:cad>90</ns3:cad>
          </ns3:TrackPointExtension>
        </extensions>
      </trkpt>
      <trkpt lat="42.6137963868677616119384765625" lon="2.74511829949915409088134765625">
        <ele>169.399993896484375</ele>
        <time>2023-08-19T18:02:35.000Z</time>
        <extensions>
          <ns3:TrackPointExtension>
            <ns3:hr>159</ns3:hr>
            <ns3:cad>90</ns3:cad>
          </ns3:TrackPointExtension>
        </extensions>
      </trkpt>
      <trkpt lat="42.613799907267093658447265625" lon="2.74516624398529529571533203125">
        <ele>169.1999969482421875</ele>
        <time>2023-08-19T18:02:36.000Z</time>
        <extensions>
          <ns3:TrackPointExtension>
            <ns3:hr>159</ns3:hr>
            <ns3:cad>89</ns3:cad>
          </ns3:TrackPointExtension>
        </extensions>
      </trkpt>
      <trkpt lat="42.6138061098754405975341796875" lon="2.74520345963537693023681640625">
        <ele>169.1999969482421875</ele>
        <time>2023-08-19T18:02:37.000Z</time>
        <extensions>
          <ns3:TrackPointExtension>
            <ns3:hr>159</ns3:hr>
            <ns3:cad>88</ns3:cad>
          </ns3:TrackPointExtension>
        </extensions>
      </trkpt>
      <trkpt lat="42.6138116419315338134765625" lon="2.745243944227695465087890625">
        <ele>169.1999969482421875</ele>
        <time>2023-08-19T18:02:38.000Z</time>
        <extensions>
          <ns3:TrackPointExtension>
            <ns3:hr>159</ns3:hr>
            <ns3:cad>87</ns3:cad>
          </ns3:TrackPointExtension>
        </extensions>
      </trkpt>
      <trkpt lat="42.6138151623308658599853515625" lon="2.74528451263904571533203125">
        <ele>169.1999969482421875</ele>
        <time>2023-08-19T18:02:39.000Z</time>
        <extensions>
          <ns3:TrackPointExtension>
            <ns3:hr>159</ns3:hr>
            <ns3:cad>86</ns3:cad>
          </ns3:TrackPointExtension>
        </extensions>
      </trkpt>
      <trkpt lat="42.613822035491466522216796875" lon="2.74532139301300048828125">
        <ele>169.1999969482421875</ele>
        <time>2023-08-19T18:02:40.000Z</time>
        <extensions>
          <ns3:TrackPointExtension>
            <ns3:hr>158</ns3:hr>
            <ns3:cad>86</ns3:cad>
          </ns3:TrackPointExtension>
        </extensions>
      </trkpt>
      <trkpt lat="42.6138258911669254302978515625" lon="2.74536556564271450042724609375">
        <ele>169</ele>
        <time>2023-08-19T18:02:41.000Z</time>
        <extensions>
          <ns3:TrackPointExtension>
            <ns3:hr>158</ns3:hr>
            <ns3:cad>86</ns3:cad>
          </ns3:TrackPointExtension>
        </extensions>
      </trkpt>
      <trkpt lat="42.61383418925106525421142578125" lon="2.7454094029963016510009765625">
        <ele>168.8000030517578125</ele>
        <time>2023-08-19T18:02:42.000Z</time>
        <extensions>
          <ns3:TrackPointExtension>
            <ns3:hr>158</ns3:hr>
            <ns3:cad>86</ns3:cad>
          </ns3:TrackPointExtension>
        </extensions>
      </trkpt>
      <trkpt lat="42.61384089477360248565673828125" lon="2.74545240215957164764404296875">
        <ele>168.600006103515625</ele>
        <time>2023-08-19T18:02:43.000Z</time>
        <extensions>
          <ns3:TrackPointExtension>
            <ns3:hr>159</ns3:hr>
            <ns3:cad>86</ns3:cad>
          </ns3:TrackPointExtension>
        </extensions>
      </trkpt>
      <trkpt lat="42.6138450019061565399169921875" lon="2.74549364112317562103271484375">
        <ele>168.399993896484375</ele>
        <time>2023-08-19T18:02:44.000Z</time>
        <extensions>
          <ns3:TrackPointExtension>
            <ns3:hr>159</ns3:hr>
            <ns3:cad>85</ns3:cad>
          </ns3:TrackPointExtension>
        </extensions>
      </trkpt>
      <trkpt lat="42.61384785175323486328125" lon="2.74553504772484302520751953125">
        <ele>168.399993896484375</ele>
        <time>2023-08-19T18:02:45.000Z</time>
        <extensions>
          <ns3:TrackPointExtension>
            <ns3:hr>159</ns3:hr>
            <ns3:cad>85</ns3:cad>
          </ns3:TrackPointExtension>
        </extensions>
      </trkpt>
      <trkpt lat="42.61384986340999603271484375" lon="2.7455777116119861602783203125">
        <ele>167.8000030517578125</ele>
        <time>2023-08-19T18:02:46.000Z</time>
        <extensions>
          <ns3:TrackPointExtension>
            <ns3:hr>159</ns3:hr>
            <ns3:cad>85</ns3:cad>
          </ns3:TrackPointExtension>
        </extensions>
      </trkpt>
      <trkpt lat="42.61385145597159862518310546875" lon="2.74561501108109951019287109375">
        <ele>167.8000030517578125</ele>
        <time>2023-08-19T18:02:47.000Z</time>
        <extensions>
          <ns3:TrackPointExtension>
            <ns3:hr>159</ns3:hr>
            <ns3:cad>85</ns3:cad>
          </ns3:TrackPointExtension>
        </extensions>
      </trkpt>
      <trkpt lat="42.61385145597159862518310546875" lon="2.74565323255956172943115234375">
        <ele>167.600006103515625</ele>
        <time>2023-08-19T18:02:48.000Z</time>
        <extensions>
          <ns3:TrackPointExtension>
            <ns3:hr>159</ns3:hr>
            <ns3:cad>86</ns3:cad>
          </ns3:TrackPointExtension>
        </extensions>
      </trkpt>
      <trkpt lat="42.6138600893318653106689453125" lon="2.74569011293351650238037109375">
        <ele>167.399993896484375</ele>
        <time>2023-08-19T18:02:49.000Z</time>
        <extensions>
          <ns3:TrackPointExtension>
            <ns3:hr>159</ns3:hr>
            <ns3:cad>85</ns3:cad>
          </ns3:TrackPointExtension>
        </extensions>
      </trkpt>
      <trkpt lat="42.61386327445507049560546875" lon="2.74573420174419879913330078125">
        <ele>167.1999969482421875</ele>
        <time>2023-08-19T18:02:50.000Z</time>
        <extensions>
          <ns3:TrackPointExtension>
            <ns3:hr>160</ns3:hr>
            <ns3:cad>85</ns3:cad>
          </ns3:TrackPointExtension>
        </extensions>
      </trkpt>
      <trkpt lat="42.613866291940212249755859375" lon="2.7457782067358493804931640625">
        <ele>167.1999969482421875</ele>
        <time>2023-08-19T18:02:51.000Z</time>
        <extensions>
          <ns3:TrackPointExtension>
            <ns3:hr>160</ns3:hr>
            <ns3:cad>85</ns3:cad>
          </ns3:TrackPointExtension>
        </extensions>
      </trkpt>
      <trkpt lat="42.61387308128178119659423828125" lon="2.745821289718151092529296875">
        <ele>167</ele>
        <time>2023-08-19T18:02:52.000Z</time>
        <extensions>
          <ns3:TrackPointExtension>
            <ns3:hr>160</ns3:hr>
            <ns3:cad>85</ns3:cad>
          </ns3:TrackPointExtension>
        </extensions>
      </trkpt>
      <trkpt lat="42.61388028971850872039794921875" lon="2.74587149731814861297607421875">
        <ele>166.8000030517578125</ele>
        <time>2023-08-19T18:02:53.000Z</time>
        <extensions>
          <ns3:TrackPointExtension>
            <ns3:hr>160</ns3:hr>
            <ns3:cad>84</ns3:cad>
          </ns3:TrackPointExtension>
        </extensions>
      </trkpt>
      <trkpt lat="42.61388582177460193634033203125" lon="2.74591256864368915557861328125">
        <ele>166.600006103515625</ele>
        <time>2023-08-19T18:02:54.000Z</time>
        <extensions>
          <ns3:TrackPointExtension>
            <ns3:hr>161</ns3:hr>
            <ns3:cad>84</ns3:cad>
          </ns3:TrackPointExtension>
        </extensions>
      </trkpt>
      <trkpt lat="42.6138959638774394989013671875" lon="2.74596470408141613006591796875">
        <ele>166.399993896484375</ele>
        <time>2023-08-19T18:02:55.000Z</time>
        <extensions>
          <ns3:TrackPointExtension>
            <ns3:hr>159</ns3:hr>
            <ns3:cad>84</ns3:cad>
          </ns3:TrackPointExtension>
        </extensions>
      </trkpt>
      <trkpt lat="42.61390359140932559967041015625" lon="2.74601281620562076568603515625">
        <ele>166.399993896484375</ele>
        <time>2023-08-19T18:02:56.000Z</time>
        <extensions>
          <ns3:TrackPointExtension>
            <ns3:hr>159</ns3:hr>
            <ns3:cad>84</ns3:cad>
          </ns3:TrackPointExtension>
        </extensions>
      </trkpt>
      <trkpt lat="42.61391415260732173919677734375" lon="2.7460561506450176239013671875">
        <ele>166.1999969482421875</ele>
        <time>2023-08-19T18:02:57.000Z</time>
        <extensions>
          <ns3:TrackPointExtension>
            <ns3:hr>160</ns3:hr>
            <ns3:cad>84</ns3:cad>
          </ns3:TrackPointExtension>
        </extensions>
      </trkpt>
      <trkpt lat="42.61392228305339813232421875" lon="2.74610124528408050537109375">
        <ele>165.8000030517578125</ele>
        <time>2023-08-19T18:02:58.000Z</time>
        <extensions>
          <ns3:TrackPointExtension>
            <ns3:hr>158</ns3:hr>
            <ns3:cad>84</ns3:cad>
          </ns3:TrackPointExtension>
        </extensions>
      </trkpt>
      <trkpt lat="42.61393225751817226409912109375" lon="2.74614223279058933258056640625">
        <ele>165.1999969482421875</ele>
        <time>2023-08-19T18:02:59.000Z</time>
        <extensions>
          <ns3:TrackPointExtension>
            <ns3:hr>159</ns3:hr>
            <ns3:cad>84</ns3:cad>
          </ns3:TrackPointExtension>
        </extensions>
      </trkpt>
      <trkpt lat="42.61394449509680271148681640625" lon="2.74618078954517841339111328125">
        <ele>164.600006103515625</ele>
        <time>2023-08-19T18:03:00.000Z</time>
        <extensions>
          <ns3:TrackPointExtension>
            <ns3:hr>160</ns3:hr>
            <ns3:cad>85</ns3:cad>
          </ns3:TrackPointExtension>
        </extensions>
      </trkpt>
      <trkpt lat="42.6139543019235134124755859375" lon="2.74622001685202121734619140625">
        <ele>164.399993896484375</ele>
        <time>2023-08-19T18:03:01.000Z</time>
        <extensions>
          <ns3:TrackPointExtension>
            <ns3:hr>161</ns3:hr>
            <ns3:cad>85</ns3:cad>
          </ns3:TrackPointExtension>
        </extensions>
      </trkpt>
      <trkpt lat="42.61396612040698528289794921875" lon="2.7462573163211345672607421875">
        <ele>164.1999969482421875</ele>
        <time>2023-08-19T18:03:02.000Z</time>
        <extensions>
          <ns3:TrackPointExtension>
            <ns3:hr>161</ns3:hr>
            <ns3:cad>85</ns3:cad>
          </ns3:TrackPointExtension>
        </extensions>
      </trkpt>
      <trkpt lat="42.61397726833820343017578125" lon="2.74630098603665828704833984375">
        <ele>163.8000030517578125</ele>
        <time>2023-08-19T18:03:03.000Z</time>
        <extensions>
          <ns3:TrackPointExtension>
            <ns3:hr>161</ns3:hr>
            <ns3:cad>85</ns3:cad>
          </ns3:TrackPointExtension>
        </extensions>
      </trkpt>
      <trkpt lat="42.613988332450389862060546875" lon="2.7463381178677082061767578125">
        <ele>163.399993896484375</ele>
        <time>2023-08-19T18:03:04.000Z</time>
        <extensions>
          <ns3:TrackPointExtension>
            <ns3:hr>162</ns3:hr>
            <ns3:cad>85</ns3:cad>
          </ns3:TrackPointExtension>
        </extensions>
      </trkpt>
      <trkpt lat="42.61400140821933746337890625" lon="2.74638287723064422607421875">
        <ele>163.1999969482421875</ele>
        <time>2023-08-19T18:03:05.000Z</time>
        <extensions>
          <ns3:TrackPointExtension>
            <ns3:hr>161</ns3:hr>
            <ns3:cad>85</ns3:cad>
          </ns3:TrackPointExtension>
        </extensions>
      </trkpt>
      <trkpt lat="42.6140128076076507568359375" lon="2.7464197576045989990234375">
        <ele>162.8000030517578125</ele>
        <time>2023-08-19T18:03:06.000Z</time>
        <extensions>
          <ns3:TrackPointExtension>
            <ns3:hr>162</ns3:hr>
            <ns3:cad>85</ns3:cad>
          </ns3:TrackPointExtension>
        </extensions>
      </trkpt>
      <trkpt lat="42.61402294971048831939697265625" lon="2.74646141566336154937744140625">
        <ele>162.1999969482421875</ele>
        <time>2023-08-19T18:03:07.000Z</time>
        <extensions>
          <ns3:TrackPointExtension>
            <ns3:hr>162</ns3:hr>
            <ns3:cad>85</ns3:cad>
          </ns3:TrackPointExtension>
        </extensions>
      </trkpt>
      <trkpt lat="42.61403183452785015106201171875" lon="2.7465029060840606689453125">
        <ele>162</ele>
        <time>2023-08-19T18:03:08.000Z</time>
        <extensions>
          <ns3:TrackPointExtension>
            <ns3:hr>162</ns3:hr>
            <ns3:cad>84</ns3:cad>
          </ns3:TrackPointExtension>
        </extensions>
      </trkpt>
      <trkpt lat="42.614040635526180267333984375" lon="2.74654238484799861907958984375">
        <ele>161.8000030517578125</ele>
        <time>2023-08-19T18:03:09.000Z</time>
        <extensions>
          <ns3:TrackPointExtension>
            <ns3:hr>162</ns3:hr>
            <ns3:cad>84</ns3:cad>
          </ns3:TrackPointExtension>
        </extensions>
      </trkpt>
      <trkpt lat="42.61405094526708126068115234375" lon="2.7465828694403171539306640625">
        <ele>161.8000030517578125</ele>
        <time>2023-08-19T18:03:10.000Z</time>
        <extensions>
          <ns3:TrackPointExtension>
            <ns3:hr>162</ns3:hr>
            <ns3:cad>84</ns3:cad>
          </ns3:TrackPointExtension>
        </extensions>
      </trkpt>
      <trkpt lat="42.61406016536056995391845703125" lon="2.74661413393914699554443359375">
        <ele>161.399993896484375</ele>
        <time>2023-08-19T18:03:11.000Z</time>
        <extensions>
          <ns3:TrackPointExtension>
            <ns3:hr>162</ns3:hr>
            <ns3:cad>85</ns3:cad>
          </ns3:TrackPointExtension>
        </extensions>
      </trkpt>
      <trkpt lat="42.614070139825344085693359375" lon="2.74665537290275096893310546875">
        <ele>160.8000030517578125</ele>
        <time>2023-08-19T18:03:12.000Z</time>
        <extensions>
          <ns3:TrackPointExtension>
            <ns3:hr>162</ns3:hr>
            <ns3:cad>85</ns3:cad>
          </ns3:TrackPointExtension>
        </extensions>
      </trkpt>
      <trkpt lat="42.6140807010233402252197265625" lon="2.74669342674314975738525390625">
        <ele>160.600006103515625</ele>
        <time>2023-08-19T18:03:13.000Z</time>
        <extensions>
          <ns3:TrackPointExtension>
            <ns3:hr>162</ns3:hr>
            <ns3:cad>85</ns3:cad>
          </ns3:TrackPointExtension>
        </extensions>
      </trkpt>
      <trkpt lat="42.61409134604036808013916015625" lon="2.74673617444932460784912109375">
        <ele>160.600006103515625</ele>
        <time>2023-08-19T18:03:14.000Z</time>
        <extensions>
          <ns3:TrackPointExtension>
            <ns3:hr>162</ns3:hr>
            <ns3:cad>85</ns3:cad>
          </ns3:TrackPointExtension>
        </extensions>
      </trkpt>
      <trkpt lat="42.61410291306674480438232421875" lon="2.74677850306034088134765625">
        <ele>160.399993896484375</ele>
        <time>2023-08-19T18:03:15.000Z</time>
        <extensions>
          <ns3:TrackPointExtension>
            <ns3:hr>162</ns3:hr>
            <ns3:cad>85</ns3:cad>
          </ns3:TrackPointExtension>
        </extensions>
      </trkpt>
      <trkpt lat="42.61411615647375583648681640625" lon="2.7468182332813739776611328125">
        <ele>160.399993896484375</ele>
        <time>2023-08-19T18:03:16.000Z</time>
        <extensions>
          <ns3:TrackPointExtension>
            <ns3:hr>161</ns3:hr>
            <ns3:cad>85</ns3:cad>
          </ns3:TrackPointExtension>
        </extensions>
      </trkpt>
      <trkpt lat="42.6141309924423694610595703125" lon="2.74685989134013652801513671875">
        <ele>160.399993896484375</ele>
        <time>2023-08-19T18:03:17.000Z</time>
        <extensions>
          <ns3:TrackPointExtension>
            <ns3:hr>161</ns3:hr>
            <ns3:cad>85</ns3:cad>
          </ns3:TrackPointExtension>
        </extensions>
      </trkpt>
      <trkpt lat="42.61414448730647563934326171875" lon="2.7468963526189327239990234375">
        <ele>160.1999969482421875</ele>
        <time>2023-08-19T18:03:18.000Z</time>
        <extensions>
          <ns3:TrackPointExtension>
            <ns3:hr>160</ns3:hr>
            <ns3:cad>86</ns3:cad>
          </ns3:TrackPointExtension>
        </extensions>
      </trkpt>
      <trkpt lat="42.61415672488510608673095703125" lon="2.7469374239444732666015625">
        <ele>159.8000030517578125</ele>
        <time>2023-08-19T18:03:19.000Z</time>
        <extensions>
          <ns3:TrackPointExtension>
            <ns3:hr>161</ns3:hr>
            <ns3:cad>87</ns3:cad>
          </ns3:TrackPointExtension>
        </extensions>
      </trkpt>
      <trkpt lat="42.6141656935214996337890625" lon="2.74697388522326946258544921875">
        <ele>159.600006103515625</ele>
        <time>2023-08-19T18:03:20.000Z</time>
        <extensions>
          <ns3:TrackPointExtension>
            <ns3:hr>161</ns3:hr>
            <ns3:cad>87</ns3:cad>
          </ns3:TrackPointExtension>
        </extensions>
      </trkpt>
      <trkpt lat="42.61416929773986339569091796875" lon="2.74701897986233234405517578125">
        <ele>159.600006103515625</ele>
        <time>2023-08-19T18:03:21.000Z</time>
        <extensions>
          <ns3:TrackPointExtension>
            <ns3:hr>161</ns3:hr>
            <ns3:cad>87</ns3:cad>
          </ns3:TrackPointExtension>
        </extensions>
      </trkpt>
      <trkpt lat="42.61417181231081485748291015625" lon="2.74706013500690460205078125">
        <ele>159.399993896484375</ele>
        <time>2023-08-19T18:03:22.000Z</time>
        <extensions>
          <ns3:TrackPointExtension>
            <ns3:hr>161</ns3:hr>
            <ns3:cad>86</ns3:cad>
          </ns3:TrackPointExtension>
        </extensions>
      </trkpt>
      <trkpt lat="42.61417684145271778106689453125" lon="2.74709768593311309814453125">
        <ele>159.399993896484375</ele>
        <time>2023-08-19T18:03:23.000Z</time>
        <extensions>
          <ns3:TrackPointExtension>
            <ns3:hr>161</ns3:hr>
            <ns3:cad>85</ns3:cad>
          </ns3:TrackPointExtension>
        </extensions>
      </trkpt>
      <trkpt lat="42.6141772605478763580322265625" lon="2.74713682942092418670654296875">
        <ele>159.1999969482421875</ele>
        <time>2023-08-19T18:03:24.000Z</time>
        <extensions>
          <ns3:TrackPointExtension>
            <ns3:hr>160</ns3:hr>
            <ns3:cad>85</ns3:cad>
          </ns3:TrackPointExtension>
        </extensions>
      </trkpt>
      <trkpt lat="42.61417667381465435028076171875" lon="2.74717555381357669830322265625">
        <ele>159</ele>
        <time>2023-08-19T18:03:25.000Z</time>
        <extensions>
          <ns3:TrackPointExtension>
            <ns3:hr>160</ns3:hr>
            <ns3:cad>85</ns3:cad>
          </ns3:TrackPointExtension>
        </extensions>
      </trkpt>
      <trkpt lat="42.61417851783335208892822265625" lon="2.747211344540119171142578125">
        <ele>159</ele>
        <time>2023-08-19T18:03:26.000Z</time>
        <extensions>
          <ns3:TrackPointExtension>
            <ns3:hr>161</ns3:hr>
            <ns3:cad>85</ns3:cad>
          </ns3:TrackPointExtension>
        </extensions>
      </trkpt>
      <trkpt lat="42.614180780947208404541015625" lon="2.747244536876678466796875">
        <ele>159</ele>
        <time>2023-08-19T18:03:27.000Z</time>
        <extensions>
          <ns3:TrackPointExtension>
            <ns3:hr>159</ns3:hr>
            <ns3:cad>85</ns3:cad>
          </ns3:TrackPointExtension>
        </extensions>
      </trkpt>
      <trkpt lat="42.61418371461331844329833984375" lon="2.7472775615751743316650390625">
        <ele>159</ele>
        <time>2023-08-19T18:03:28.000Z</time>
        <extensions>
          <ns3:TrackPointExtension>
            <ns3:hr>159</ns3:hr>
            <ns3:cad>86</ns3:cad>
          </ns3:TrackPointExtension>
        </extensions>
      </trkpt>
      <trkpt lat="42.6141869835555553436279296875" lon="2.747316621243953704833984375">
        <ele>158.8000030517578125</ele>
        <time>2023-08-19T18:03:29.000Z</time>
        <extensions>
          <ns3:TrackPointExtension>
            <ns3:hr>158</ns3:hr>
            <ns3:cad>86</ns3:cad>
          </ns3:TrackPointExtension>
        </extensions>
      </trkpt>
      <trkpt lat="42.61419025249779224395751953125" lon="2.7473529987037181854248046875">
        <ele>158.8000030517578125</ele>
        <time>2023-08-19T18:03:30.000Z</time>
        <extensions>
          <ns3:TrackPointExtension>
            <ns3:hr>158</ns3:hr>
            <ns3:cad>85</ns3:cad>
          </ns3:TrackPointExtension>
        </extensions>
      </trkpt>
      <trkpt lat="42.6141960360109806060791015625" lon="2.7473979257047176361083984375">
        <ele>159</ele>
        <time>2023-08-19T18:03:31.000Z</time>
        <extensions>
          <ns3:TrackPointExtension>
            <ns3:hr>159</ns3:hr>
            <ns3:cad>85</ns3:cad>
          </ns3:TrackPointExtension>
        </extensions>
      </trkpt>
      <trkpt lat="42.6142007298767566680908203125" lon="2.74743438698351383209228515625">
        <ele>159</ele>
        <time>2023-08-19T18:03:32.000Z</time>
        <extensions>
          <ns3:TrackPointExtension>
            <ns3:hr>159</ns3:hr>
            <ns3:cad>85</ns3:cad>
          </ns3:TrackPointExtension>
        </extensions>
      </trkpt>
      <trkpt lat="42.614209614694118499755859375" lon="2.74748099036514759063720703125">
        <ele>159</ele>
        <time>2023-08-19T18:03:33.000Z</time>
        <extensions>
          <ns3:TrackPointExtension>
            <ns3:hr>158</ns3:hr>
            <ns3:cad>85</ns3:cad>
          </ns3:TrackPointExtension>
        </extensions>
      </trkpt>
      <trkpt lat="42.61421908624470233917236328125" lon="2.7475179545581340789794921875">
        <ele>159.1999969482421875</ele>
        <time>2023-08-19T18:03:34.000Z</time>
        <extensions>
          <ns3:TrackPointExtension>
            <ns3:hr>158</ns3:hr>
            <ns3:cad>85</ns3:cad>
          </ns3:TrackPointExtension>
        </extensions>
      </trkpt>
      <trkpt lat="42.61422914452850818634033203125" lon="2.74754838086664676666259765625">
        <ele>159.1999969482421875</ele>
        <time>2023-08-19T18:03:35.000Z</time>
        <extensions>
          <ns3:TrackPointExtension>
            <ns3:hr>158</ns3:hr>
            <ns3:cad>85</ns3:cad>
          </ns3:TrackPointExtension>
        </extensions>
      </trkpt>
      <trkpt lat="42.61423685587942600250244140625" lon="2.74758517742156982421875">
        <ele>159.399993896484375</ele>
        <time>2023-08-19T18:03:36.000Z</time>
        <extensions>
          <ns3:TrackPointExtension>
            <ns3:hr>158</ns3:hr>
            <ns3:cad>85</ns3:cad>
          </ns3:TrackPointExtension>
        </extensions>
      </trkpt>
      <trkpt lat="42.6142490096390247344970703125" lon="2.747620381414890289306640625">
        <ele>159.399993896484375</ele>
        <time>2023-08-19T18:03:37.000Z</time>
        <extensions>
          <ns3:TrackPointExtension>
            <ns3:hr>159</ns3:hr>
            <ns3:cad>85</ns3:cad>
          </ns3:TrackPointExtension>
        </extensions>
      </trkpt>
      <trkpt lat="42.61426334269344806671142578125" lon="2.7476604469120502471923828125">
        <ele>159.600006103515625</ele>
        <time>2023-08-19T18:03:38.000Z</time>
        <extensions>
          <ns3:TrackPointExtension>
            <ns3:hr>159</ns3:hr>
            <ns3:cad>85</ns3:cad>
          </ns3:TrackPointExtension>
        </extensions>
      </trkpt>
      <trkpt lat="42.614276669919490814208984375" lon="2.7476939745247364044189453125">
        <ele>159.8000030517578125</ele>
        <time>2023-08-19T18:03:39.000Z</time>
        <extensions>
          <ns3:TrackPointExtension>
            <ns3:hr>159</ns3:hr>
            <ns3:cad>85</ns3:cad>
          </ns3:TrackPointExtension>
        </extensions>
      </trkpt>
      <trkpt lat="42.614295780658721923828125" lon="2.74773395620286464691162109375">
        <ele>159.8000030517578125</ele>
        <time>2023-08-19T18:03:40.000Z</time>
        <extensions>
          <ns3:TrackPointExtension>
            <ns3:hr>160</ns3:hr>
            <ns3:cad>85</ns3:cad>
          </ns3:TrackPointExtension>
        </extensions>
      </trkpt>
      <trkpt lat="42.6143164001405239105224609375" lon="2.74776932783424854278564453125">
        <ele>160</ele>
        <time>2023-08-19T18:03:41.000Z</time>
        <extensions>
          <ns3:TrackPointExtension>
            <ns3:hr>161</ns3:hr>
            <ns3:cad>85</ns3:cad>
          </ns3:TrackPointExtension>
        </extensions>
      </trkpt>
      <trkpt lat="42.61433509178459644317626953125" lon="2.74779883213341236114501953125">
        <ele>160.399993896484375</ele>
        <time>2023-08-19T18:03:42.000Z</time>
        <extensions>
          <ns3:TrackPointExtension>
            <ns3:hr>160</ns3:hr>
            <ns3:cad>85</ns3:cad>
          </ns3:TrackPointExtension>
        </extensions>
      </trkpt>
      <trkpt lat="42.6143569685518741607666015625" lon="2.74782984517514705657958984375">
        <ele>160.399993896484375</ele>
        <time>2023-08-19T18:03:43.000Z</time>
        <extensions>
          <ns3:TrackPointExtension>
            <ns3:hr>160</ns3:hr>
            <ns3:cad>85</ns3:cad>
          </ns3:TrackPointExtension>
        </extensions>
      </trkpt>
      <trkpt lat="42.61437851004302501678466796875" lon="2.7478582598268985748291015625">
        <ele>160.600006103515625</ele>
        <time>2023-08-19T18:03:44.000Z</time>
        <extensions>
          <ns3:TrackPointExtension>
            <ns3:hr>160</ns3:hr>
            <ns3:cad>85</ns3:cad>
          </ns3:TrackPointExtension>
        </extensions>
      </trkpt>
      <trkpt lat="42.61440298520028591156005859375" lon="2.747893966734409332275390625">
        <ele>160.600006103515625</ele>
        <time>2023-08-19T18:03:45.000Z</time>
        <extensions>
          <ns3:TrackPointExtension>
            <ns3:hr>161</ns3:hr>
            <ns3:cad>85</ns3:cad>
          </ns3:TrackPointExtension>
        </extensions>
      </trkpt>
      <trkpt lat="42.61442544870078563690185546875" lon="2.74792523123323917388916015625">
        <ele>160.600006103515625</ele>
        <time>2023-08-19T18:03:46.000Z</time>
        <extensions>
          <ns3:TrackPointExtension>
            <ns3:hr>161</ns3:hr>
            <ns3:cad>85</ns3:cad>
          </ns3:TrackPointExtension>
        </extensions>
      </trkpt>
      <trkpt lat="42.61445067822933197021484375" lon="2.74795792065560817718505859375">
        <ele>160.600006103515625</ele>
        <time>2023-08-19T18:03:47.000Z</time>
        <extensions>
          <ns3:TrackPointExtension>
            <ns3:hr>161</ns3:hr>
            <ns3:cad>85</ns3:cad>
          </ns3:TrackPointExtension>
        </extensions>
      </trkpt>
      <trkpt lat="42.61446886695921421051025390625" lon="2.7479863353073596954345703125">
        <ele>160.600006103515625</ele>
        <time>2023-08-19T18:03:48.000Z</time>
        <extensions>
          <ns3:TrackPointExtension>
            <ns3:hr>161</ns3:hr>
            <ns3:cad>84</ns3:cad>
          </ns3:TrackPointExtension>
        </extensions>
      </trkpt>
      <trkpt lat="42.61448479257524013519287109375" lon="2.74801500141620635986328125">
        <ele>160.600006103515625</ele>
        <time>2023-08-19T18:03:49.000Z</time>
        <extensions>
          <ns3:TrackPointExtension>
            <ns3:hr>161</ns3:hr>
            <ns3:cad>85</ns3:cad>
          </ns3:TrackPointExtension>
        </extensions>
      </trkpt>
      <trkpt lat="42.61450457386672496795654296875" lon="2.7480505406856536865234375">
        <ele>160.600006103515625</ele>
        <time>2023-08-19T18:03:50.000Z</time>
        <extensions>
          <ns3:TrackPointExtension>
            <ns3:hr>161</ns3:hr>
            <ns3:cad>84</ns3:cad>
          </ns3:TrackPointExtension>
        </extensions>
      </trkpt>
      <trkpt lat="42.61452100239694118499755859375" lon="2.7480802126228809356689453125">
        <ele>160.600006103515625</ele>
        <time>2023-08-19T18:03:51.000Z</time>
        <extensions>
          <ns3:TrackPointExtension>
            <ns3:hr>161</ns3:hr>
            <ns3:cad>84</ns3:cad>
          </ns3:TrackPointExtension>
        </extensions>
      </trkpt>
      <trkpt lat="42.61453994549810886383056640625" lon="2.748109884560108184814453125">
        <ele>160.600006103515625</ele>
        <time>2023-08-19T18:03:52.000Z</time>
        <extensions>
          <ns3:TrackPointExtension>
            <ns3:hr>161</ns3:hr>
            <ns3:cad>84</ns3:cad>
          </ns3:TrackPointExtension>
        </extensions>
      </trkpt>
      <trkpt lat="42.6145581342279911041259765625" lon="2.74814316071569919586181640625">
        <ele>160.600006103515625</ele>
        <time>2023-08-19T18:03:53.000Z</time>
        <extensions>
          <ns3:TrackPointExtension>
            <ns3:hr>161</ns3:hr>
            <ns3:cad>84</ns3:cad>
          </ns3:TrackPointExtension>
        </extensions>
      </trkpt>
      <trkpt lat="42.61457196436822414398193359375" lon="2.748176939785480499267578125">
        <ele>160.399993896484375</ele>
        <time>2023-08-19T18:03:54.000Z</time>
        <extensions>
          <ns3:TrackPointExtension>
            <ns3:hr>162</ns3:hr>
            <ns3:cad>84</ns3:cad>
          </ns3:TrackPointExtension>
        </extensions>
      </trkpt>
      <trkpt lat="42.61458135209977626800537109375" lon="2.74821708910167217254638671875">
        <ele>160.1999969482421875</ele>
        <time>2023-08-19T18:03:55.000Z</time>
        <extensions>
          <ns3:TrackPointExtension>
            <ns3:hr>162</ns3:hr>
            <ns3:cad>84</ns3:cad>
          </ns3:TrackPointExtension>
        </extensions>
      </trkpt>
      <trkpt lat="42.6145883090794086456298828125" lon="2.74825816042721271514892578125">
        <ele>160.1999969482421875</ele>
        <time>2023-08-19T18:03:56.000Z</time>
        <extensions>
          <ns3:TrackPointExtension>
            <ns3:hr>162</ns3:hr>
            <ns3:cad>84</ns3:cad>
          </ns3:TrackPointExtension>
        </extensions>
      </trkpt>
      <trkpt lat="42.614593841135501861572265625" lon="2.74830157868564128875732421875">
        <ele>160.1999969482421875</ele>
        <time>2023-08-19T18:03:57.000Z</time>
        <extensions>
          <ns3:TrackPointExtension>
            <ns3:hr>163</ns3:hr>
            <ns3:cad>83</ns3:cad>
          </ns3:TrackPointExtension>
        </extensions>
      </trkpt>
      <trkpt lat="42.6145950146019458770751953125" lon="2.748349942266941070556640625">
        <ele>160.1999969482421875</ele>
        <time>2023-08-19T18:03:58.000Z</time>
        <extensions>
          <ns3:TrackPointExtension>
            <ns3:hr>163</ns3:hr>
            <ns3:cad>84</ns3:cad>
          </ns3:TrackPointExtension>
        </extensions>
      </trkpt>
      <trkpt lat="42.61459643952548503875732421875" lon="2.74839051067829132080078125">
        <ele>160</ele>
        <time>2023-08-19T18:03:59.000Z</time>
        <extensions>
          <ns3:TrackPointExtension>
            <ns3:hr>162</ns3:hr>
            <ns3:cad>85</ns3:cad>
          </ns3:TrackPointExtension>
        </extensions>
      </trkpt>
      <trkpt lat="42.614594511687755584716796875" lon="2.7484392933547496795654296875">
        <ele>159.8000030517578125</ele>
        <time>2023-08-19T18:04:00.000Z</time>
        <extensions>
          <ns3:TrackPointExtension>
            <ns3:hr>161</ns3:hr>
            <ns3:cad>85</ns3:cad>
          </ns3:TrackPointExtension>
        </extensions>
      </trkpt>
      <trkpt lat="42.61458554305136203765869140625" lon="2.74847927503287792205810546875">
        <ele>159.600006103515625</ele>
        <time>2023-08-19T18:04:01.000Z</time>
        <extensions>
          <ns3:TrackPointExtension>
            <ns3:hr>161</ns3:hr>
            <ns3:cad>84</ns3:cad>
          </ns3:TrackPointExtension>
        </extensions>
      </trkpt>
      <trkpt lat="42.61457548476755619049072265625" lon="2.748519591987133026123046875">
        <ele>159.1999969482421875</ele>
        <time>2023-08-19T18:04:02.000Z</time>
        <extensions>
          <ns3:TrackPointExtension>
            <ns3:hr>161</ns3:hr>
            <ns3:cad>84</ns3:cad>
          </ns3:TrackPointExtension>
        </extensions>
      </trkpt>
      <trkpt lat="42.61456257663667201995849609375" lon="2.74856426753103733062744140625">
        <ele>158.8000030517578125</ele>
        <time>2023-08-19T18:04:03.000Z</time>
        <extensions>
          <ns3:TrackPointExtension>
            <ns3:hr>161</ns3:hr>
            <ns3:cad>83</ns3:cad>
          </ns3:TrackPointExtension>
        </extensions>
      </trkpt>
      <trkpt lat="42.61455570347607135772705078125" lon="2.74860567413270473480224609375">
        <ele>158.399993896484375</ele>
        <time>2023-08-19T18:04:04.000Z</time>
        <extensions>
          <ns3:TrackPointExtension>
            <ns3:hr>163</ns3:hr>
            <ns3:cad>83</ns3:cad>
          </ns3:TrackPointExtension>
        </extensions>
      </trkpt>
      <trkpt lat="42.6145544461905956268310546875" lon="2.7486538700759410858154296875">
        <ele>158.399993896484375</ele>
        <time>2023-08-19T18:04:05.000Z</time>
        <extensions>
          <ns3:TrackPointExtension>
            <ns3:hr>163</ns3:hr>
            <ns3:cad>84</ns3:cad>
          </ns3:TrackPointExtension>
        </extensions>
      </trkpt>
      <trkpt lat="42.61455721221864223480224609375" lon="2.74869318120181560516357421875">
        <ele>158.1999969482421875</ele>
        <time>2023-08-19T18:04:06.000Z</time>
        <extensions>
          <ns3:TrackPointExtension>
            <ns3:hr>163</ns3:hr>
            <ns3:cad>84</ns3:cad>
          </ns3:TrackPointExtension>
        </extensions>
      </trkpt>
      <trkpt lat="42.61456509120762348175048828125" lon="2.7487346716225147247314453125">
        <ele>158</ele>
        <time>2023-08-19T18:04:07.000Z</time>
        <extensions>
          <ns3:TrackPointExtension>
            <ns3:hr>161</ns3:hr>
            <ns3:cad>85</ns3:cad>
          </ns3:TrackPointExtension>
        </extensions>
      </trkpt>
      <trkpt lat="42.61456995271146297454833984375" lon="2.7487806044518947601318359375">
        <ele>157.600006103515625</ele>
        <time>2023-08-19T18:04:08.000Z</time>
        <extensions>
          <ns3:TrackPointExtension>
            <ns3:hr>158</ns3:hr>
            <ns3:cad>85</ns3:cad>
          </ns3:TrackPointExtension>
        </extensions>
      </trkpt>
      <trkpt lat="42.6145769096910953521728515625" lon="2.748824693262577056884765625">
        <ele>157.399993896484375</ele>
        <time>2023-08-19T18:04:09.000Z</time>
        <extensions>
          <ns3:TrackPointExtension>
            <ns3:hr>157</ns3:hr>
            <ns3:cad>85</ns3:cad>
          </ns3:TrackPointExtension>
        </extensions>
      </trkpt>
      <trkpt lat="42.61458185501396656036376953125" lon="2.74887892417609691619873046875">
        <ele>157.1999969482421875</ele>
        <time>2023-08-19T18:04:10.000Z</time>
        <extensions>
          <ns3:TrackPointExtension>
            <ns3:hr>157</ns3:hr>
            <ns3:cad>85</ns3:cad>
          </ns3:TrackPointExtension>
        </extensions>
      </trkpt>
      <trkpt lat="42.61459107510745525360107421875" lon="2.74892033077776432037353515625">
        <ele>156.8000030517578125</ele>
        <time>2023-08-19T18:04:11.000Z</time>
        <extensions>
          <ns3:TrackPointExtension>
            <ns3:hr>157</ns3:hr>
            <ns3:cad>85</ns3:cad>
          </ns3:TrackPointExtension>
        </extensions>
      </trkpt>
      <trkpt lat="42.61459811590611934661865234375" lon="2.74897146038711071014404296875">
        <ele>156.1999969482421875</ele>
        <time>2023-08-19T18:04:12.000Z</time>
        <extensions>
          <ns3:TrackPointExtension>
            <ns3:hr>159</ns3:hr>
            <ns3:cad>86</ns3:cad>
          </ns3:TrackPointExtension>
        </extensions>
      </trkpt>
      <trkpt lat="42.61460800655186176300048828125" lon="2.74901152588427066802978515625">
        <ele>156</ele>
        <time>2023-08-19T18:04:13.000Z</time>
        <extensions>
          <ns3:TrackPointExtension>
            <ns3:hr>162</ns3:hr>
            <ns3:cad>86</ns3:cad>
          </ns3:TrackPointExtension>
        </extensions>
      </trkpt>
      <trkpt lat="42.61461638845503330230712890625" lon="2.7490615658462047576904296875">
        <ele>155.600006103515625</ele>
        <time>2023-08-19T18:04:14.000Z</time>
        <extensions>
          <ns3:TrackPointExtension>
            <ns3:hr>162</ns3:hr>
            <ns3:cad>87</ns3:cad>
          </ns3:TrackPointExtension>
        </extensions>
      </trkpt>
      <trkpt lat="42.61462862603366374969482421875" lon="2.74910355918109416961669921875">
        <ele>155</ele>
        <time>2023-08-19T18:04:15.000Z</time>
        <extensions>
          <ns3:TrackPointExtension>
            <ns3:hr>164</ns3:hr>
            <ns3:cad>88</ns3:cad>
          </ns3:TrackPointExtension>
        </extensions>
      </trkpt>
      <trkpt lat="42.61464036069810390472412109375" lon="2.7491507492959499359130859375">
        <ele>154.1999969482421875</ele>
        <time>2023-08-19T18:04:16.000Z</time>
        <extensions>
          <ns3:TrackPointExtension>
            <ns3:hr>164</ns3:hr>
            <ns3:cad>88</ns3:cad>
          </ns3:TrackPointExtension>
        </extensions>
      </trkpt>
      <trkpt lat="42.61465310119092464447021484375" lon="2.7491939999163150787353515625">
        <ele>153.8000030517578125</ele>
        <time>2023-08-19T18:04:17.000Z</time>
        <extensions>
          <ns3:TrackPointExtension>
            <ns3:hr>164</ns3:hr>
            <ns3:cad>88</ns3:cad>
          </ns3:TrackPointExtension>
        </extensions>
      </trkpt>
      <trkpt lat="42.61466785334050655364990234375" lon="2.74923674762248992919921875">
        <ele>153.399993896484375</ele>
        <time>2023-08-19T18:04:18.000Z</time>
        <extensions>
          <ns3:TrackPointExtension>
            <ns3:hr>163</ns3:hr>
            <ns3:cad>88</ns3:cad>
          </ns3:TrackPointExtension>
        </extensions>
      </trkpt>
      <trkpt lat="42.61468009091913700103759765625" lon="2.74927840568125247955322265625">
        <ele>153</ele>
        <time>2023-08-19T18:04:19.000Z</time>
        <extensions>
          <ns3:TrackPointExtension>
            <ns3:hr>163</ns3:hr>
            <ns3:cad>88</ns3:cad>
          </ns3:TrackPointExtension>
        </extensions>
      </trkpt>
      <trkpt lat="42.61469199322164058685302734375" lon="2.7493219077587127685546875">
        <ele>152.600006103515625</ele>
        <time>2023-08-19T18:04:20.000Z</time>
        <extensions>
          <ns3:TrackPointExtension>
            <ns3:hr>164</ns3:hr>
            <ns3:cad>88</ns3:cad>
          </ns3:TrackPointExtension>
        </extensions>
      </trkpt>
      <trkpt lat="42.61470205150544643402099609375" lon="2.7493659965693950653076171875">
        <ele>152.399993896484375</ele>
        <time>2023-08-19T18:04:21.000Z</time>
        <extensions>
          <ns3:TrackPointExtension>
            <ns3:hr>164</ns3:hr>
            <ns3:cad>88</ns3:cad>
          </ns3:TrackPointExtension>
        </extensions>
      </trkpt>
      <trkpt lat="42.61471512727439403533935546875" lon="2.74940530769526958465576171875">
        <ele>151.8000030517578125</ele>
        <time>2023-08-19T18:04:22.000Z</time>
        <extensions>
          <ns3:TrackPointExtension>
            <ns3:hr>164</ns3:hr>
            <ns3:cad>88</ns3:cad>
          </ns3:TrackPointExtension>
        </extensions>
      </trkpt>
      <trkpt lat="42.61472702957689762115478515625" lon="2.74944788776338100433349609375">
        <ele>151.399993896484375</ele>
        <time>2023-08-19T18:04:23.000Z</time>
        <extensions>
          <ns3:TrackPointExtension>
            <ns3:hr>163</ns3:hr>
            <ns3:cad>88</ns3:cad>
          </ns3:TrackPointExtension>
        </extensions>
      </trkpt>
      <trkpt lat="42.61474396102130413055419921875" lon="2.74948895908892154693603515625">
        <ele>151.1999969482421875</ele>
        <time>2023-08-19T18:04:24.000Z</time>
        <extensions>
          <ns3:TrackPointExtension>
            <ns3:hr>164</ns3:hr>
            <ns3:cad>88</ns3:cad>
          </ns3:TrackPointExtension>
        </extensions>
      </trkpt>
      <trkpt lat="42.6147566176950931549072265625" lon="2.7495379932224750518798828125">
        <ele>150.8000030517578125</ele>
        <time>2023-08-19T18:04:25.000Z</time>
        <extensions>
          <ns3:TrackPointExtension>
            <ns3:hr>165</ns3:hr>
            <ns3:cad>88</ns3:cad>
          </ns3:TrackPointExtension>
        </extensions>
      </trkpt>
      <trkpt lat="42.614770866930484771728515625" lon="2.74957478977739810943603515625">
        <ele>150.1999969482421875</ele>
        <time>2023-08-19T18:04:26.000Z</time>
        <extensions>
          <ns3:TrackPointExtension>
            <ns3:hr>164</ns3:hr>
            <ns3:cad>88</ns3:cad>
          </ns3:TrackPointExtension>
        </extensions>
      </trkpt>
      <trkpt lat="42.61478469707071781158447265625" lon="2.74961854331195354461669921875">
        <ele>150</ele>
        <time>2023-08-19T18:04:27.000Z</time>
        <extensions>
          <ns3:TrackPointExtension>
            <ns3:hr>164</ns3:hr>
            <ns3:cad>87</ns3:cad>
          </ns3:TrackPointExtension>
        </extensions>
      </trkpt>
      <trkpt lat="42.614798359572887420654296875" lon="2.7496625483036041259765625">
        <ele>149.600006103515625</ele>
        <time>2023-08-19T18:04:28.000Z</time>
        <extensions>
          <ns3:TrackPointExtension>
            <ns3:hr>163</ns3:hr>
            <ns3:cad>87</ns3:cad>
          </ns3:TrackPointExtension>
        </extensions>
      </trkpt>
      <trkpt lat="42.61480732820928096771240234375" lon="2.74970588274300098419189453125">
        <ele>149.1999969482421875</ele>
        <time>2023-08-19T18:04:29.000Z</time>
        <extensions>
          <ns3:TrackPointExtension>
            <ns3:hr>163</ns3:hr>
            <ns3:cad>87</ns3:cad>
          </ns3:TrackPointExtension>
        </extensions>
      </trkpt>
      <trkpt lat="42.61481638066470623016357421875" lon="2.7497421763837337493896484375">
        <ele>149</ele>
        <time>2023-08-19T18:04:30.000Z</time>
        <extensions>
          <ns3:TrackPointExtension>
            <ns3:hr>163</ns3:hr>
            <ns3:cad>87</ns3:cad>
          </ns3:TrackPointExtension>
        </extensions>
      </trkpt>
      <trkpt lat="42.61482912115752696990966796875" lon="2.7497877739369869232177734375">
        <ele>148.8000030517578125</ele>
        <time>2023-08-19T18:04:31.000Z</time>
        <extensions>
          <ns3:TrackPointExtension>
            <ns3:hr>164</ns3:hr>
            <ns3:cad>87</ns3:cad>
          </ns3:TrackPointExtension>
        </extensions>
      </trkpt>
      <trkpt lat="42.61483984999358654022216796875" lon="2.749829851090908050537109375">
        <ele>148.1999969482421875</ele>
        <time>2023-08-19T18:04:32.000Z</time>
        <extensions>
          <ns3:TrackPointExtension>
            <ns3:hr>164</ns3:hr>
            <ns3:cad>88</ns3:cad>
          </ns3:TrackPointExtension>
        </extensions>
      </trkpt>
      <trkpt lat="42.6148509979248046875" lon="2.7498766221106052398681640625">
        <ele>148</ele>
        <time>2023-08-19T18:04:33.000Z</time>
        <extensions>
          <ns3:TrackPointExtension>
            <ns3:hr>164</ns3:hr>
            <ns3:cad>88</ns3:cad>
          </ns3:TrackPointExtension>
        </extensions>
      </trkpt>
      <trkpt lat="42.614858038723468780517578125" lon="2.749921046197414398193359375">
        <ele>147.8000030517578125</ele>
        <time>2023-08-19T18:04:34.000Z</time>
        <extensions>
          <ns3:TrackPointExtension>
            <ns3:hr>164</ns3:hr>
            <ns3:cad>88</ns3:cad>
          </ns3:TrackPointExtension>
        </extensions>
      </trkpt>
      <trkpt lat="42.614869438111782073974609375" lon="2.74996002204716205596923828125">
        <ele>147.8000030517578125</ele>
        <time>2023-08-19T18:04:35.000Z</time>
        <extensions>
          <ns3:TrackPointExtension>
            <ns3:hr>165</ns3:hr>
            <ns3:cad>88</ns3:cad>
          </ns3:TrackPointExtension>
        </extensions>
      </trkpt>
      <trkpt lat="42.6148776523768901824951171875" lon="2.750004865229129791259765625">
        <ele>147.600006103515625</ele>
        <time>2023-08-19T18:04:36.000Z</time>
        <extensions>
          <ns3:TrackPointExtension>
            <ns3:hr>165</ns3:hr>
            <ns3:cad>88</ns3:cad>
          </ns3:TrackPointExtension>
        </extensions>
      </trkpt>
      <trkpt lat="42.61488930322229862213134765625" lon="2.7500506304204463958740234375">
        <ele>147.399993896484375</ele>
        <time>2023-08-19T18:04:37.000Z</time>
        <extensions>
          <ns3:TrackPointExtension>
            <ns3:hr>165</ns3:hr>
            <ns3:cad>87</ns3:cad>
          </ns3:TrackPointExtension>
        </extensions>
      </trkpt>
      <trkpt lat="42.61489936150610446929931640625" lon="2.75010201148688793182373046875">
        <ele>147.1999969482421875</ele>
        <time>2023-08-19T18:04:38.000Z</time>
        <extensions>
          <ns3:TrackPointExtension>
            <ns3:hr>165</ns3:hr>
            <ns3:cad>88</ns3:cad>
          </ns3:TrackPointExtension>
        </extensions>
      </trkpt>
      <trkpt lat="42.61491277255117893218994140625" lon="2.75014400482177734375">
        <ele>147</ele>
        <time>2023-08-19T18:04:39.000Z</time>
        <extensions>
          <ns3:TrackPointExtension>
            <ns3:hr>164</ns3:hr>
            <ns3:cad>88</ns3:cad>
          </ns3:TrackPointExtension>
        </extensions>
      </trkpt>
      <trkpt lat="42.6149219088256359100341796875" lon="2.75018884800374507904052734375">
        <ele>146.8000030517578125</ele>
        <time>2023-08-19T18:04:40.000Z</time>
        <extensions>
          <ns3:TrackPointExtension>
            <ns3:hr>164</ns3:hr>
            <ns3:cad>87</ns3:cad>
          </ns3:TrackPointExtension>
        </extensions>
      </trkpt>
      <trkpt lat="42.6149339787662029266357421875" lon="2.75022354908287525177001953125">
        <ele>146.600006103515625</ele>
        <time>2023-08-19T18:04:41.000Z</time>
        <extensions>
          <ns3:TrackPointExtension>
            <ns3:hr>165</ns3:hr>
            <ns3:cad>87</ns3:cad>
          </ns3:TrackPointExtension>
        </extensions>
      </trkpt>
      <trkpt lat="42.6149440370500087738037109375" lon="2.75026612915098667144775390625">
        <ele>146.399993896484375</ele>
        <time>2023-08-19T18:04:42.000Z</time>
        <extensions>
          <ns3:TrackPointExtension>
            <ns3:hr>165</ns3:hr>
            <ns3:cad>87</ns3:cad>
          </ns3:TrackPointExtension>
        </extensions>
      </trkpt>
      <trkpt lat="42.614952586591243743896484375" lon="2.7503049373626708984375">
        <ele>146</ele>
        <time>2023-08-19T18:04:43.000Z</time>
        <extensions>
          <ns3:TrackPointExtension>
            <ns3:hr>165</ns3:hr>
            <ns3:cad>87</ns3:cad>
          </ns3:TrackPointExtension>
        </extensions>
      </trkpt>
      <trkpt lat="42.61496205814182758331298828125" lon="2.75035397149622440338134765625">
        <ele>146</ele>
        <time>2023-08-19T18:04:44.000Z</time>
        <extensions>
          <ns3:TrackPointExtension>
            <ns3:hr>165</ns3:hr>
            <ns3:cad>87</ns3:cad>
          </ns3:TrackPointExtension>
        </extensions>
      </trkpt>
      <trkpt lat="42.6149690151214599609375" lon="2.75039806030690670013427734375">
        <ele>145.8000030517578125</ele>
        <time>2023-08-19T18:04:45.000Z</time>
        <extensions>
          <ns3:TrackPointExtension>
            <ns3:hr>164</ns3:hr>
            <ns3:cad>87</ns3:cad>
          </ns3:TrackPointExtension>
        </extensions>
      </trkpt>
      <trkpt lat="42.614978067576885223388671875" lon="2.7504415623843669891357421875">
        <ele>145.600006103515625</ele>
        <time>2023-08-19T18:04:46.000Z</time>
        <extensions>
          <ns3:TrackPointExtension>
            <ns3:hr>164</ns3:hr>
            <ns3:cad>87</ns3:cad>
          </ns3:TrackPointExtension>
        </extensions>
      </trkpt>
      <trkpt lat="42.61498183943331241607666015625" lon="2.7504885010421276092529296875">
        <ele>145.399993896484375</ele>
        <time>2023-08-19T18:04:47.000Z</time>
        <extensions>
          <ns3:TrackPointExtension>
            <ns3:hr>165</ns3:hr>
            <ns3:cad>87</ns3:cad>
          </ns3:TrackPointExtension>
        </extensions>
      </trkpt>
      <trkpt lat="42.61498846113681793212890625" lon="2.7505277283489704132080078125">
        <ele>145.399993896484375</ele>
        <time>2023-08-19T18:04:48.000Z</time>
        <extensions>
          <ns3:TrackPointExtension>
            <ns3:hr>165</ns3:hr>
            <ns3:cad>87</ns3:cad>
          </ns3:TrackPointExtension>
        </extensions>
      </trkpt>
      <trkpt lat="42.61499072425067424774169921875" lon="2.7505746670067310333251953125">
        <ele>145.1999969482421875</ele>
        <time>2023-08-19T18:04:49.000Z</time>
        <extensions>
          <ns3:TrackPointExtension>
            <ns3:hr>165</ns3:hr>
            <ns3:cad>87</ns3:cad>
          </ns3:TrackPointExtension>
        </extensions>
      </trkpt>
      <trkpt lat="42.61499742977321147918701171875" lon="2.75061582215130329132080078125">
        <ele>145</ele>
        <time>2023-08-19T18:04:50.000Z</time>
        <extensions>
          <ns3:TrackPointExtension>
            <ns3:hr>164</ns3:hr>
            <ns3:cad>88</ns3:cad>
          </ns3:TrackPointExtension>
        </extensions>
      </trkpt>
      <trkpt lat="42.61500027962028980255126953125" lon="2.7506658621132373809814453125">
        <ele>144.600006103515625</ele>
        <time>2023-08-19T18:04:51.000Z</time>
        <extensions>
          <ns3:TrackPointExtension>
            <ns3:hr>164</ns3:hr>
            <ns3:cad>87</ns3:cad>
          </ns3:TrackPointExtension>
        </extensions>
      </trkpt>
      <trkpt lat="42.6150050573050975799560546875" lon="2.75070391595363616943359375">
        <ele>144.399993896484375</ele>
        <time>2023-08-19T18:04:52.000Z</time>
        <extensions>
          <ns3:TrackPointExtension>
            <ns3:hr>165</ns3:hr>
            <ns3:cad>87</ns3:cad>
          </ns3:TrackPointExtension>
        </extensions>
      </trkpt>
      <trkpt lat="42.61500832624733448028564453125" lon="2.75075093843042850494384765625">
        <ele>144.1999969482421875</ele>
        <time>2023-08-19T18:04:53.000Z</time>
        <extensions>
          <ns3:TrackPointExtension>
            <ns3:hr>164</ns3:hr>
            <ns3:cad>87</ns3:cad>
          </ns3:TrackPointExtension>
        </extensions>
      </trkpt>
      <trkpt lat="42.6150077395141124725341796875" lon="2.75079167447984218597412109375">
        <ele>144</ele>
        <time>2023-08-19T18:04:54.000Z</time>
        <extensions>
          <ns3:TrackPointExtension>
            <ns3:hr>165</ns3:hr>
            <ns3:cad>87</ns3:cad>
          </ns3:TrackPointExtension>
        </extensions>
      </trkpt>
      <trkpt lat="42.6150100864470005035400390625" lon="2.7508319914340972900390625">
        <ele>144</ele>
        <time>2023-08-19T18:04:55.000Z</time>
        <extensions>
          <ns3:TrackPointExtension>
            <ns3:hr>165</ns3:hr>
            <ns3:cad>87</ns3:cad>
          </ns3:TrackPointExtension>
        </extensions>
      </trkpt>
      <trkpt lat="42.61501218192279338836669921875" lon="2.7508767507970333099365234375">
        <ele>143.8000030517578125</ele>
        <time>2023-08-19T18:04:56.000Z</time>
        <extensions>
          <ns3:TrackPointExtension>
            <ns3:hr>165</ns3:hr>
            <ns3:cad>86</ns3:cad>
          </ns3:TrackPointExtension>
        </extensions>
      </trkpt>
      <trkpt lat="42.61501704342663288116455078125" lon="2.75091773830354213714599609375">
        <ele>143.600006103515625</ele>
        <time>2023-08-19T18:04:57.000Z</time>
        <extensions>
          <ns3:TrackPointExtension>
            <ns3:hr>164</ns3:hr>
            <ns3:cad>86</ns3:cad>
          </ns3:TrackPointExtension>
        </extensions>
      </trkpt>
      <trkpt lat="42.61501603759825229644775390625" lon="2.750964425504207611083984375">
        <ele>143.1999969482421875</ele>
        <time>2023-08-19T18:04:58.000Z</time>
        <extensions>
          <ns3:TrackPointExtension>
            <ns3:hr>163</ns3:hr>
            <ns3:cad>86</ns3:cad>
          </ns3:TrackPointExtension>
        </extensions>
      </trkpt>
      <trkpt lat="42.61501939035952091217041015625" lon="2.75100574828684329986572265625">
        <ele>143.1999969482421875</ele>
        <time>2023-08-19T18:04:59.000Z</time>
        <extensions>
          <ns3:TrackPointExtension>
            <ns3:hr>163</ns3:hr>
            <ns3:cad>86</ns3:cad>
          </ns3:TrackPointExtension>
        </extensions>
      </trkpt>
      <trkpt lat="42.6150159537792205810546875" lon="2.7510521002113819122314453125">
        <ele>143</ele>
        <time>2023-08-19T18:05:00.000Z</time>
        <extensions>
          <ns3:TrackPointExtension>
            <ns3:hr>163</ns3:hr>
            <ns3:cad>86</ns3:cad>
          </ns3:TrackPointExtension>
        </extensions>
      </trkpt>
      <trkpt lat="42.615017630159854888916015625" lon="2.7510913275182247161865234375">
        <ele>142.8000030517578125</ele>
        <time>2023-08-19T18:05:01.000Z</time>
        <extensions>
          <ns3:TrackPointExtension>
            <ns3:hr>162</ns3:hr>
            <ns3:cad>86</ns3:cad>
          </ns3:TrackPointExtension>
        </extensions>
      </trkpt>
      <trkpt lat="42.6150191389024257659912109375" lon="2.7511375956237316131591796875">
        <ele>142.600006103515625</ele>
        <time>2023-08-19T18:05:02.000Z</time>
        <extensions>
          <ns3:TrackPointExtension>
            <ns3:hr>162</ns3:hr>
            <ns3:cad>86</ns3:cad>
          </ns3:TrackPointExtension>
        </extensions>
      </trkpt>
      <trkpt lat="42.6150208152830600738525390625" lon="2.75118143297731876373291015625">
        <ele>142.399993896484375</ele>
        <time>2023-08-19T18:05:03.000Z</time>
        <extensions>
          <ns3:TrackPointExtension>
            <ns3:hr>161</ns3:hr>
            <ns3:cad>86</ns3:cad>
          </ns3:TrackPointExtension>
        </extensions>
      </trkpt>
      <trkpt lat="42.6150240004062652587890625" lon="2.75122099556028842926025390625">
        <ele>142.1999969482421875</ele>
        <time>2023-08-19T18:05:04.000Z</time>
        <extensions>
          <ns3:TrackPointExtension>
            <ns3:hr>161</ns3:hr>
            <ns3:cad>87</ns3:cad>
          </ns3:TrackPointExtension>
        </extensions>
      </trkpt>
      <trkpt lat="42.61502425186336040496826171875" lon="2.7512660063803195953369140625">
        <ele>142</ele>
        <time>2023-08-19T18:05:05.000Z</time>
        <extensions>
          <ns3:TrackPointExtension>
            <ns3:hr>161</ns3:hr>
            <ns3:cad>87</ns3:cad>
          </ns3:TrackPointExtension>
        </extensions>
      </trkpt>
      <trkpt lat="42.61502710171043872833251953125" lon="2.75130230002105236053466796875">
        <ele>141.600006103515625</ele>
        <time>2023-08-19T18:05:06.000Z</time>
        <extensions>
          <ns3:TrackPointExtension>
            <ns3:hr>161</ns3:hr>
            <ns3:cad>87</ns3:cad>
          </ns3:TrackPointExtension>
        </extensions>
      </trkpt>
      <trkpt lat="42.6150251738727092742919921875" lon="2.75134705938398838043212890625">
        <ele>141.600006103515625</ele>
        <time>2023-08-19T18:05:07.000Z</time>
        <extensions>
          <ns3:TrackPointExtension>
            <ns3:hr>161</ns3:hr>
            <ns3:cad>87</ns3:cad>
          </ns3:TrackPointExtension>
        </extensions>
      </trkpt>
      <trkpt lat="42.61502844281494617462158203125" lon="2.75138746015727519989013671875">
        <ele>141.399993896484375</ele>
        <time>2023-08-19T18:05:08.000Z</time>
        <extensions>
          <ns3:TrackPointExtension>
            <ns3:hr>160</ns3:hr>
            <ns3:cad>86</ns3:cad>
          </ns3:TrackPointExtension>
        </extensions>
      </trkpt>
      <trkpt lat="42.61502961628139019012451171875" lon="2.75143037550151348114013671875">
        <ele>141.1999969482421875</ele>
        <time>2023-08-19T18:05:09.000Z</time>
        <extensions>
          <ns3:TrackPointExtension>
            <ns3:hr>160</ns3:hr>
            <ns3:cad>86</ns3:cad>
          </ns3:TrackPointExtension>
        </extensions>
      </trkpt>
      <trkpt lat="42.61503498069941997528076171875" lon="2.7514685131609439849853515625">
        <ele>141</ele>
        <time>2023-08-19T18:05:10.000Z</time>
        <extensions>
          <ns3:TrackPointExtension>
            <ns3:hr>161</ns3:hr>
            <ns3:cad>87</ns3:cad>
          </ns3:TrackPointExtension>
        </extensions>
      </trkpt>
      <trkpt lat="42.61503967456519603729248046875" lon="2.75151134468615055084228515625">
        <ele>140.8000030517578125</ele>
        <time>2023-08-19T18:05:11.000Z</time>
        <extensions>
          <ns3:TrackPointExtension>
            <ns3:hr>161</ns3:hr>
            <ns3:cad>87</ns3:cad>
          </ns3:TrackPointExtension>
        </extensions>
      </trkpt>
      <trkpt lat="42.6150436140596866607666015625" lon="2.75155819952487945556640625">
        <ele>140.8000030517578125</ele>
        <time>2023-08-19T18:05:12.000Z</time>
        <extensions>
          <ns3:TrackPointExtension>
            <ns3:hr>160</ns3:hr>
            <ns3:cad>87</ns3:cad>
          </ns3:TrackPointExtension>
        </extensions>
      </trkpt>
      <trkpt lat="42.6150519959628582000732421875" lon="2.75160036049783229827880859375">
        <ele>140.600006103515625</ele>
        <time>2023-08-19T18:05:13.000Z</time>
        <extensions>
          <ns3:TrackPointExtension>
            <ns3:hr>160</ns3:hr>
            <ns3:cad>86</ns3:cad>
          </ns3:TrackPointExtension>
        </extensions>
      </trkpt>
      <trkpt lat="42.615055851638317108154296875" lon="2.75164562277495861053466796875">
        <ele>140.399993896484375</ele>
        <time>2023-08-19T18:05:14.000Z</time>
        <extensions>
          <ns3:TrackPointExtension>
            <ns3:hr>160</ns3:hr>
            <ns3:cad>86</ns3:cad>
          </ns3:TrackPointExtension>
        </extensions>
      </trkpt>
      <trkpt lat="42.61506398208439350128173828125" lon="2.75168350897729396820068359375">
        <ele>140.399993896484375</ele>
        <time>2023-08-19T18:05:15.000Z</time>
        <extensions>
          <ns3:TrackPointExtension>
            <ns3:hr>161</ns3:hr>
            <ns3:cad>86</ns3:cad>
          </ns3:TrackPointExtension>
        </extensions>
      </trkpt>
      <trkpt lat="42.6150690950453281402587890625" lon="2.75172960944473743438720703125">
        <ele>140.399993896484375</ele>
        <time>2023-08-19T18:05:16.000Z</time>
        <extensions>
          <ns3:TrackPointExtension>
            <ns3:hr>162</ns3:hr>
            <ns3:cad>86</ns3:cad>
          </ns3:TrackPointExtension>
        </extensions>
      </trkpt>
      <trkpt lat="42.61507739312946796417236328125" lon="2.75177403353154659271240234375">
        <ele>140.1999969482421875</ele>
        <time>2023-08-19T18:05:17.000Z</time>
        <extensions>
          <ns3:TrackPointExtension>
            <ns3:hr>161</ns3:hr>
            <ns3:cad>86</ns3:cad>
          </ns3:TrackPointExtension>
        </extensions>
      </trkpt>
      <trkpt lat="42.6150841824710369110107421875" lon="2.75181812234222888946533203125">
        <ele>140.1999969482421875</ele>
        <time>2023-08-19T18:05:18.000Z</time>
        <extensions>
          <ns3:TrackPointExtension>
            <ns3:hr>160</ns3:hr>
            <ns3:cad>86</ns3:cad>
          </ns3:TrackPointExtension>
        </extensions>
      </trkpt>
      <trkpt lat="42.61508996598422527313232421875" lon="2.75186321698129177093505859375">
        <ele>139.8000030517578125</ele>
        <time>2023-08-19T18:05:19.000Z</time>
        <extensions>
          <ns3:TrackPointExtension>
            <ns3:hr>160</ns3:hr>
            <ns3:cad>86</ns3:cad>
          </ns3:TrackPointExtension>
        </extensions>
      </trkpt>
      <trkpt lat="42.61509834788739681243896484375" lon="2.7519053779542446136474609375">
        <ele>139.600006103515625</ele>
        <time>2023-08-19T18:05:20.000Z</time>
        <extensions>
          <ns3:TrackPointExtension>
            <ns3:hr>162</ns3:hr>
            <ns3:cad>86</ns3:cad>
          </ns3:TrackPointExtension>
        </extensions>
      </trkpt>
      <trkpt lat="42.6151022873818874359130859375" lon="2.7519503049552440643310546875">
        <ele>139.600006103515625</ele>
        <time>2023-08-19T18:05:21.000Z</time>
        <extensions>
          <ns3:TrackPointExtension>
            <ns3:hr>162</ns3:hr>
            <ns3:cad>86</ns3:cad>
          </ns3:TrackPointExtension>
        </extensions>
      </trkpt>
      <trkpt lat="42.615110836923122406005859375" lon="2.7519912086427211761474609375">
        <ele>139.399993896484375</ele>
        <time>2023-08-19T18:05:22.000Z</time>
        <extensions>
          <ns3:TrackPointExtension>
            <ns3:hr>162</ns3:hr>
            <ns3:cad>86</ns3:cad>
          </ns3:TrackPointExtension>
        </extensions>
      </trkpt>
      <trkpt lat="42.61511527933180332183837890625" lon="2.75203538127243518829345703125">
        <ele>139.399993896484375</ele>
        <time>2023-08-19T18:05:23.000Z</time>
        <extensions>
          <ns3:TrackPointExtension>
            <ns3:hr>162</ns3:hr>
            <ns3:cad>87</ns3:cad>
          </ns3:TrackPointExtension>
        </extensions>
      </trkpt>
      <trkpt lat="42.6151213981211185455322265625" lon="2.75207041762769222259521484375">
        <ele>139.1999969482421875</ele>
        <time>2023-08-19T18:05:24.000Z</time>
        <extensions>
          <ns3:TrackPointExtension>
            <ns3:hr>162</ns3:hr>
            <ns3:cad>87</ns3:cad>
          </ns3:TrackPointExtension>
        </extensions>
      </trkpt>
      <trkpt lat="42.61513019911944866180419921875" lon="2.75211551226675510406494140625">
        <ele>139</ele>
        <time>2023-08-19T18:05:25.000Z</time>
        <extensions>
          <ns3:TrackPointExtension>
            <ns3:hr>162</ns3:hr>
            <ns3:cad>86</ns3:cad>
          </ns3:TrackPointExtension>
        </extensions>
      </trkpt>
      <trkpt lat="42.6151398383080959320068359375" lon="2.75215306319296360015869140625">
        <ele>138.600006103515625</ele>
        <time>2023-08-19T18:05:26.000Z</time>
        <extensions>
          <ns3:TrackPointExtension>
            <ns3:hr>162</ns3:hr>
            <ns3:cad>86</ns3:cad>
          </ns3:TrackPointExtension>
        </extensions>
      </trkpt>
      <trkpt lat="42.61515266261994838714599609375" lon="2.75219388306140899658203125">
        <ele>138.399993896484375</ele>
        <time>2023-08-19T18:05:27.000Z</time>
        <extensions>
          <ns3:TrackPointExtension>
            <ns3:hr>162</ns3:hr>
            <ns3:cad>87</ns3:cad>
          </ns3:TrackPointExtension>
        </extensions>
      </trkpt>
      <trkpt lat="42.6151626370847225189208984375" lon="2.7522302605211734771728515625">
        <ele>138.399993896484375</ele>
        <time>2023-08-19T18:05:28.000Z</time>
        <extensions>
          <ns3:TrackPointExtension>
            <ns3:hr>162</ns3:hr>
            <ns3:cad>87</ns3:cad>
          </ns3:TrackPointExtension>
        </extensions>
      </trkpt>
      <trkpt lat="42.61517613194882869720458984375" lon="2.7522616088390350341796875">
        <ele>138.1999969482421875</ele>
        <time>2023-08-19T18:05:29.000Z</time>
        <extensions>
          <ns3:TrackPointExtension>
            <ns3:hr>163</ns3:hr>
            <ns3:cad>87</ns3:cad>
          </ns3:TrackPointExtension>
        </extensions>
      </trkpt>
      <trkpt lat="42.61518937535583972930908203125" lon="2.752297818660736083984375">
        <ele>138.1999969482421875</ele>
        <time>2023-08-19T18:05:30.000Z</time>
        <extensions>
          <ns3:TrackPointExtension>
            <ns3:hr>162</ns3:hr>
            <ns3:cad>87</ns3:cad>
          </ns3:TrackPointExtension>
        </extensions>
      </trkpt>
      <trkpt lat="42.6152058877050876617431640625" lon="2.7523318491876125335693359375">
        <ele>138.1999969482421875</ele>
        <time>2023-08-19T18:05:31.000Z</time>
        <extensions>
          <ns3:TrackPointExtension>
            <ns3:hr>163</ns3:hr>
            <ns3:cad>87</ns3:cad>
          </ns3:TrackPointExtension>
        </extensions>
      </trkpt>
      <trkpt lat="42.61522541753947734832763671875" lon="2.752369232475757598876953125">
        <ele>138</ele>
        <time>2023-08-19T18:05:32.000Z</time>
        <extensions>
          <ns3:TrackPointExtension>
            <ns3:hr>163</ns3:hr>
            <ns3:cad>87</ns3:cad>
          </ns3:TrackPointExtension>
        </extensions>
      </trkpt>
      <trkpt lat="42.61524595320224761962890625" lon="2.7524009160697460174560546875">
        <ele>138</ele>
        <time>2023-08-19T18:05:33.000Z</time>
        <extensions>
          <ns3:TrackPointExtension>
            <ns3:hr>163</ns3:hr>
            <ns3:cad>87</ns3:cad>
          </ns3:TrackPointExtension>
        </extensions>
      </trkpt>
      <trkpt lat="42.61526900343596935272216796875" lon="2.7524341084063053131103515625">
        <ele>138</ele>
        <time>2023-08-19T18:05:34.000Z</time>
        <extensions>
          <ns3:TrackPointExtension>
            <ns3:hr>162</ns3:hr>
            <ns3:cad>87</ns3:cad>
          </ns3:TrackPointExtension>
        </extensions>
      </trkpt>
      <trkpt lat="42.61529289186000823974609375" lon="2.7524599246680736541748046875">
        <ele>137.8000030517578125</ele>
        <time>2023-08-19T18:05:35.000Z</time>
        <extensions>
          <ns3:TrackPointExtension>
            <ns3:hr>162</ns3:hr>
            <ns3:cad>87</ns3:cad>
          </ns3:TrackPointExtension>
        </extensions>
      </trkpt>
      <trkpt lat="42.61531728319823741912841796875" lon="2.752488590776920318603515625">
        <ele>137.8000030517578125</ele>
        <time>2023-08-19T18:05:36.000Z</time>
        <extensions>
          <ns3:TrackPointExtension>
            <ns3:hr>163</ns3:hr>
            <ns3:cad>87</ns3:cad>
          </ns3:TrackPointExtension>
        </extensions>
      </trkpt>
      <trkpt lat="42.61533924378454685211181640625" lon="2.75251415558159351348876953125">
        <ele>137.8000030517578125</ele>
        <time>2023-08-19T18:05:37.000Z</time>
        <extensions>
          <ns3:TrackPointExtension>
            <ns3:hr>162</ns3:hr>
            <ns3:cad>87</ns3:cad>
          </ns3:TrackPointExtension>
        </extensions>
      </trkpt>
      <trkpt lat="42.61536103673279285430908203125" lon="2.75254315696656703948974609375">
        <ele>137.8000030517578125</ele>
        <time>2023-08-19T18:05:38.000Z</time>
        <extensions>
          <ns3:TrackPointExtension>
            <ns3:hr>162</ns3:hr>
            <ns3:cad>87</ns3:cad>
          </ns3:TrackPointExtension>
        </extensions>
      </trkpt>
      <trkpt lat="42.6153835840523242950439453125" lon="2.75257735513150691986083984375">
        <ele>137.600006103515625</ele>
        <time>2023-08-19T18:05:39.000Z</time>
        <extensions>
          <ns3:TrackPointExtension>
            <ns3:hr>163</ns3:hr>
            <ns3:cad>87</ns3:cad>
          </ns3:TrackPointExtension>
        </extensions>
      </trkpt>
      <trkpt lat="42.61540931649506092071533203125" lon="2.75260786525905132293701171875">
        <ele>137.600006103515625</ele>
        <time>2023-08-19T18:05:40.000Z</time>
        <extensions>
          <ns3:TrackPointExtension>
            <ns3:hr>164</ns3:hr>
            <ns3:cad>87</ns3:cad>
          </ns3:TrackPointExtension>
        </extensions>
      </trkpt>
      <trkpt lat="42.61543362401425838470458984375" lon="2.75264105759561061859130859375">
        <ele>137.399993896484375</ele>
        <time>2023-08-19T18:05:41.000Z</time>
        <extensions>
          <ns3:TrackPointExtension>
            <ns3:hr>164</ns3:hr>
            <ns3:cad>87</ns3:cad>
          </ns3:TrackPointExtension>
        </extensions>
      </trkpt>
      <trkpt lat="42.615456841886043548583984375" lon="2.75267341174185276031494140625">
        <ele>137.399993896484375</ele>
        <time>2023-08-19T18:05:42.000Z</time>
        <extensions>
          <ns3:TrackPointExtension>
            <ns3:hr>162</ns3:hr>
            <ns3:cad>88</ns3:cad>
          </ns3:TrackPointExtension>
        </extensions>
      </trkpt>
      <trkpt lat="42.61547771282494068145751953125" lon="2.7527095377445220947265625">
        <ele>137</ele>
        <time>2023-08-19T18:05:43.000Z</time>
        <extensions>
          <ns3:TrackPointExtension>
            <ns3:hr>161</ns3:hr>
            <ns3:cad>88</ns3:cad>
          </ns3:TrackPointExtension>
        </extensions>
      </trkpt>
      <trkpt lat="42.61549900285899639129638671875" lon="2.752736695110797882080078125">
        <ele>137</ele>
        <time>2023-08-19T18:05:44.000Z</time>
        <extensions>
          <ns3:TrackPointExtension>
            <ns3:hr>161</ns3:hr>
            <ns3:cad>88</ns3:cad>
          </ns3:TrackPointExtension>
        </extensions>
      </trkpt>
      <trkpt lat="42.6155213825404644012451171875" lon="2.7527744136750698089599609375">
        <ele>136.8000030517578125</ele>
        <time>2023-08-19T18:05:45.000Z</time>
        <extensions>
          <ns3:TrackPointExtension>
            <ns3:hr>162</ns3:hr>
            <ns3:cad>87</ns3:cad>
          </ns3:TrackPointExtension>
        </extensions>
      </trkpt>
      <trkpt lat="42.61554158292710781097412109375" lon="2.75280584581196308135986328125">
        <ele>136.8000030517578125</ele>
        <time>2023-08-19T18:05:46.000Z</time>
        <extensions>
          <ns3:TrackPointExtension>
            <ns3:hr>162</ns3:hr>
            <ns3:cad>88</ns3:cad>
          </ns3:TrackPointExtension>
        </extensions>
      </trkpt>
      <trkpt lat="42.61556237004697322845458984375" lon="2.75284473784267902374267578125">
        <ele>136.399993896484375</ele>
        <time>2023-08-19T18:05:47.000Z</time>
        <extensions>
          <ns3:TrackPointExtension>
            <ns3:hr>161</ns3:hr>
            <ns3:cad>88</ns3:cad>
          </ns3:TrackPointExtension>
        </extensions>
      </trkpt>
      <trkpt lat="42.61558148078620433807373046875" lon="2.7528723143041133880615234375">
        <ele>136.399993896484375</ele>
        <time>2023-08-19T18:05:48.000Z</time>
        <extensions>
          <ns3:TrackPointExtension>
            <ns3:hr>160</ns3:hr>
            <ns3:cad>88</ns3:cad>
          </ns3:TrackPointExtension>
        </extensions>
      </trkpt>
      <trkpt lat="42.61560210026800632476806640625" lon="2.75291514582931995391845703125">
        <ele>136.399993896484375</ele>
        <time>2023-08-19T18:05:49.000Z</time>
        <extensions>
          <ns3:TrackPointExtension>
            <ns3:hr>161</ns3:hr>
            <ns3:cad>87</ns3:cad>
          </ns3:TrackPointExtension>
        </extensions>
      </trkpt>
      <trkpt lat="42.6156172715127468109130859375" lon="2.7529524452984333038330078125">
        <ele>136.1999969482421875</ele>
        <time>2023-08-19T18:05:50.000Z</time>
        <extensions>
          <ns3:TrackPointExtension>
            <ns3:hr>161</ns3:hr>
            <ns3:cad>88</ns3:cad>
          </ns3:TrackPointExtension>
        </extensions>
      </trkpt>
      <trkpt lat="42.6156313531100749969482421875" lon="2.7529933489859104156494140625">
        <ele>136.1999969482421875</ele>
        <time>2023-08-19T18:05:51.000Z</time>
        <extensions>
          <ns3:TrackPointExtension>
            <ns3:hr>161</ns3:hr>
            <ns3:cad>88</ns3:cad>
          </ns3:TrackPointExtension>
        </extensions>
      </trkpt>
      <trkpt lat="42.61564426124095916748046875" lon="2.7530319057404994964599609375">
        <ele>136.1999969482421875</ele>
        <time>2023-08-19T18:05:52.000Z</time>
        <extensions>
          <ns3:TrackPointExtension>
            <ns3:hr>161</ns3:hr>
            <ns3:cad>88</ns3:cad>
          </ns3:TrackPointExtension>
        </extensions>
      </trkpt>
      <trkpt lat="42.61565809138119220733642578125" lon="2.753073312342166900634765625">
        <ele>136</ele>
        <time>2023-08-19T18:05:53.000Z</time>
        <extensions>
          <ns3:TrackPointExtension>
            <ns3:hr>162</ns3:hr>
            <ns3:cad>88</ns3:cad>
          </ns3:TrackPointExtension>
        </extensions>
      </trkpt>
      <trkpt lat="42.61566865257918834686279296875" lon="2.7531140483915805816650390625">
        <ele>136</ele>
        <time>2023-08-19T18:05:54.000Z</time>
        <extensions>
          <ns3:TrackPointExtension>
            <ns3:hr>162</ns3:hr>
            <ns3:cad>88</ns3:cad>
          </ns3:TrackPointExtension>
        </extensions>
      </trkpt>
      <trkpt lat="42.615680806338787078857421875" lon="2.7531505934894084930419921875">
        <ele>136</ele>
        <time>2023-08-19T18:05:55.000Z</time>
        <extensions>
          <ns3:TrackPointExtension>
            <ns3:hr>162</ns3:hr>
            <ns3:cad>87</ns3:cad>
          </ns3:TrackPointExtension>
        </extensions>
      </trkpt>
      <trkpt lat="42.615693546831607818603515625" lon="2.75318755768239498138427734375">
        <ele>136</ele>
        <time>2023-08-19T18:05:56.000Z</time>
        <extensions>
          <ns3:TrackPointExtension>
            <ns3:hr>162</ns3:hr>
            <ns3:cad>88</ns3:cad>
          </ns3:TrackPointExtension>
        </extensions>
      </trkpt>
      <trkpt lat="42.61571089737117290496826171875" lon="2.75321991182863712310791015625">
        <ele>136</ele>
        <time>2023-08-19T18:05:57.000Z</time>
        <extensions>
          <ns3:TrackPointExtension>
            <ns3:hr>163</ns3:hr>
            <ns3:cad>87</ns3:cad>
          </ns3:TrackPointExtension>
        </extensions>
      </trkpt>
      <trkpt lat="42.61572472751140594482421875" lon="2.75325846858322620391845703125">
        <ele>135.8000030517578125</ele>
        <time>2023-08-19T18:05:58.000Z</time>
        <extensions>
          <ns3:TrackPointExtension>
            <ns3:hr>162</ns3:hr>
            <ns3:cad>87</ns3:cad>
          </ns3:TrackPointExtension>
        </extensions>
      </trkpt>
      <trkpt lat="42.61573805473744869232177734375" lon="2.75328713469207286834716796875">
        <ele>135.8000030517578125</ele>
        <time>2023-08-19T18:05:59.000Z</time>
        <extensions>
          <ns3:TrackPointExtension>
            <ns3:hr>163</ns3:hr>
            <ns3:cad>87</ns3:cad>
          </ns3:TrackPointExtension>
        </extensions>
      </trkpt>
      <trkpt lat="42.6157500408589839935302734375" lon="2.75332686491310596466064453125">
        <ele>135.8000030517578125</ele>
        <time>2023-08-19T18:06:00.000Z</time>
        <extensions>
          <ns3:TrackPointExtension>
            <ns3:hr>162</ns3:hr>
            <ns3:cad>87</ns3:cad>
          </ns3:TrackPointExtension>
        </extensions>
      </trkpt>
      <trkpt lat="42.61576068587601184844970703125" lon="2.753359973430633544921875">
        <ele>135.8000030517578125</ele>
        <time>2023-08-19T18:06:01.000Z</time>
        <extensions>
          <ns3:TrackPointExtension>
            <ns3:hr>161</ns3:hr>
            <ns3:cad>87</ns3:cad>
          </ns3:TrackPointExtension>
        </extensions>
      </trkpt>
      <trkpt lat="42.615772671997547149658203125" lon="2.75340355932712554931640625">
        <ele>135.8000030517578125</ele>
        <time>2023-08-19T18:06:02.000Z</time>
        <extensions>
          <ns3:TrackPointExtension>
            <ns3:hr>162</ns3:hr>
            <ns3:cad>87</ns3:cad>
          </ns3:TrackPointExtension>
        </extensions>
      </trkpt>
      <trkpt lat="42.61578197591006755828857421875" lon="2.7534426189959049224853515625">
        <ele>135.600006103515625</ele>
        <time>2023-08-19T18:06:03.000Z</time>
        <extensions>
          <ns3:TrackPointExtension>
            <ns3:hr>162</ns3:hr>
            <ns3:cad>87</ns3:cad>
          </ns3:TrackPointExtension>
        </extensions>
      </trkpt>
      <trkpt lat="42.615790776908397674560546875" lon="2.75348461233079433441162109375">
        <ele>135.600006103515625</ele>
        <time>2023-08-19T18:06:04.000Z</time>
        <extensions>
          <ns3:TrackPointExtension>
            <ns3:hr>162</ns3:hr>
            <ns3:cad>87</ns3:cad>
          </ns3:TrackPointExtension>
        </extensions>
      </trkpt>
      <trkpt lat="42.6157959736883640289306640625" lon="2.7535254321992397308349609375">
        <ele>135.600006103515625</ele>
        <time>2023-08-19T18:06:05.000Z</time>
        <extensions>
          <ns3:TrackPointExtension>
            <ns3:hr>163</ns3:hr>
            <ns3:cad>87</ns3:cad>
          </ns3:TrackPointExtension>
        </extensions>
      </trkpt>
      <trkpt lat="42.615802846848964691162109375" lon="2.75356306694447994232177734375">
        <ele>135.600006103515625</ele>
        <time>2023-08-19T18:06:06.000Z</time>
        <extensions>
          <ns3:TrackPointExtension>
            <ns3:hr>163</ns3:hr>
            <ns3:cad>87</ns3:cad>
          </ns3:TrackPointExtension>
        </extensions>
      </trkpt>
      <trkpt lat="42.61580653488636016845703125" lon="2.7536045573651790618896484375">
        <ele>135.600006103515625</ele>
        <time>2023-08-19T18:06:07.000Z</time>
        <extensions>
          <ns3:TrackPointExtension>
            <ns3:hr>163</ns3:hr>
            <ns3:cad>87</ns3:cad>
          </ns3:TrackPointExtension>
        </extensions>
      </trkpt>
      <trkpt lat="42.61581433005630970001220703125" lon="2.7536441199481487274169921875">
        <ele>135.600006103515625</ele>
        <time>2023-08-19T18:06:08.000Z</time>
        <extensions>
          <ns3:TrackPointExtension>
            <ns3:hr>164</ns3:hr>
            <ns3:cad>87</ns3:cad>
          </ns3:TrackPointExtension>
        </extensions>
      </trkpt>
      <trkpt lat="42.61581969447433948516845703125" lon="2.75368527509272098541259765625">
        <ele>135.600006103515625</ele>
        <time>2023-08-19T18:06:09.000Z</time>
        <extensions>
          <ns3:TrackPointExtension>
            <ns3:hr>165</ns3:hr>
            <ns3:cad>87</ns3:cad>
          </ns3:TrackPointExtension>
        </extensions>
      </trkpt>
      <trkpt lat="42.61582774110138416290283203125" lon="2.75371846742928028106689453125">
        <ele>135.600006103515625</ele>
        <time>2023-08-19T18:06:10.000Z</time>
        <extensions>
          <ns3:TrackPointExtension>
            <ns3:hr>164</ns3:hr>
            <ns3:cad>87</ns3:cad>
          </ns3:TrackPointExtension>
        </extensions>
      </trkpt>
      <trkpt lat="42.61583603918552398681640625" lon="2.753761969506740570068359375">
        <ele>135.600006103515625</ele>
        <time>2023-08-19T18:06:11.000Z</time>
        <extensions>
          <ns3:TrackPointExtension>
            <ns3:hr>164</ns3:hr>
            <ns3:cad>87</ns3:cad>
          </ns3:TrackPointExtension>
        </extensions>
      </trkpt>
      <trkpt lat="42.6158462651073932647705078125" lon="2.75379784405231475830078125">
        <ele>135.600006103515625</ele>
        <time>2023-08-19T18:06:12.000Z</time>
        <extensions>
          <ns3:TrackPointExtension>
            <ns3:hr>163</ns3:hr>
            <ns3:cad>88</ns3:cad>
          </ns3:TrackPointExtension>
        </extensions>
      </trkpt>
      <trkpt lat="42.61585640721023082733154296875" lon="2.7538405917584896087646484375">
        <ele>135.8000030517578125</ele>
        <time>2023-08-19T18:06:13.000Z</time>
        <extensions>
          <ns3:TrackPointExtension>
            <ns3:hr>164</ns3:hr>
            <ns3:cad>88</ns3:cad>
          </ns3:TrackPointExtension>
        </extensions>
      </trkpt>
      <trkpt lat="42.6158650405704975128173828125" lon="2.753873951733112335205078125">
        <ele>135.8000030517578125</ele>
        <time>2023-08-19T18:06:14.000Z</time>
        <extensions>
          <ns3:TrackPointExtension>
            <ns3:hr>165</ns3:hr>
            <ns3:cad>88</ns3:cad>
          </ns3:TrackPointExtension>
        </extensions>
      </trkpt>
      <trkpt lat="42.61587568558752536773681640625" lon="2.75391812436282634735107421875">
        <ele>135.8000030517578125</ele>
        <time>2023-08-19T18:06:15.000Z</time>
        <extensions>
          <ns3:TrackPointExtension>
            <ns3:hr>164</ns3:hr>
            <ns3:cad>88</ns3:cad>
          </ns3:TrackPointExtension>
        </extensions>
      </trkpt>
      <trkpt lat="42.61588356457650661468505859375" lon="2.75395299308001995086669921875">
        <ele>135.8000030517578125</ele>
        <time>2023-08-19T18:06:16.000Z</time>
        <extensions>
          <ns3:TrackPointExtension>
            <ns3:hr>163</ns3:hr>
            <ns3:cad>87</ns3:cad>
          </ns3:TrackPointExtension>
        </extensions>
      </trkpt>
      <trkpt lat="42.61589379049837589263916015625" lon="2.75399071164429187774658203125">
        <ele>136</ele>
        <time>2023-08-19T18:06:17.000Z</time>
        <extensions>
          <ns3:TrackPointExtension>
            <ns3:hr>163</ns3:hr>
            <ns3:cad>87</ns3:cad>
          </ns3:TrackPointExtension>
        </extensions>
      </trkpt>
      <trkpt lat="42.61590175330638885498046875" lon="2.75403119623661041259765625">
        <ele>136</ele>
        <time>2023-08-19T18:06:18.000Z</time>
        <extensions>
          <ns3:TrackPointExtension>
            <ns3:hr>164</ns3:hr>
            <ns3:cad>88</ns3:cad>
          </ns3:TrackPointExtension>
        </extensions>
      </trkpt>
      <trkpt lat="42.6159119792282581329345703125" lon="2.7540720999240875244140625">
        <ele>136</ele>
        <time>2023-08-19T18:06:19.000Z</time>
        <extensions>
          <ns3:TrackPointExtension>
            <ns3:hr>164</ns3:hr>
            <ns3:cad>88</ns3:cad>
          </ns3:TrackPointExtension>
        </extensions>
      </trkpt>
      <trkpt lat="42.6159193553030490875244140625" lon="2.7541131712496280670166015625">
        <ele>136</ele>
        <time>2023-08-19T18:06:20.000Z</time>
        <extensions>
          <ns3:TrackPointExtension>
            <ns3:hr>165</ns3:hr>
            <ns3:cad>88</ns3:cad>
          </ns3:TrackPointExtension>
        </extensions>
      </trkpt>
      <trkpt lat="42.6159290783107280731201171875" lon="2.75414728559553623199462890625">
        <ele>136</ele>
        <time>2023-08-19T18:06:21.000Z</time>
        <extensions>
          <ns3:TrackPointExtension>
            <ns3:hr>164</ns3:hr>
            <ns3:cad>88</ns3:cad>
          </ns3:TrackPointExtension>
        </extensions>
      </trkpt>
      <trkpt lat="42.615936957299709320068359375" lon="2.754187770187854766845703125">
        <ele>136</ele>
        <time>2023-08-19T18:06:22.000Z</time>
        <extensions>
          <ns3:TrackPointExtension>
            <ns3:hr>163</ns3:hr>
            <ns3:cad>88</ns3:cad>
          </ns3:TrackPointExtension>
        </extensions>
      </trkpt>
      <trkpt lat="42.615938968956470489501953125" lon="2.75422154925763607025146484375">
        <ele>136.1999969482421875</ele>
        <time>2023-08-19T18:06:23.000Z</time>
        <extensions>
          <ns3:TrackPointExtension>
            <ns3:hr>164</ns3:hr>
            <ns3:cad>88</ns3:cad>
          </ns3:TrackPointExtension>
        </extensions>
      </trkpt>
      <trkpt lat="42.61594894342124462127685546875" lon="2.75426228530704975128173828125">
        <ele>136.1999969482421875</ele>
        <time>2023-08-19T18:06:24.000Z</time>
        <extensions>
          <ns3:TrackPointExtension>
            <ns3:hr>165</ns3:hr>
            <ns3:cad>88</ns3:cad>
          </ns3:TrackPointExtension>
        </extensions>
      </trkpt>
      <trkpt lat="42.6159575767815113067626953125" lon="2.7542962320148944854736328125">
        <ele>136</ele>
        <time>2023-08-19T18:06:25.000Z</time>
        <extensions>
          <ns3:TrackPointExtension>
            <ns3:hr>165</ns3:hr>
            <ns3:cad>88</ns3:cad>
          </ns3:TrackPointExtension>
        </extensions>
      </trkpt>
      <trkpt lat="42.61596880853176116943359375" lon="2.7543389797210693359375">
        <ele>136</ele>
        <time>2023-08-19T18:06:26.000Z</time>
        <extensions>
          <ns3:TrackPointExtension>
            <ns3:hr>165</ns3:hr>
            <ns3:cad>88</ns3:cad>
          </ns3:TrackPointExtension>
        </extensions>
      </trkpt>
      <trkpt lat="42.61598045937716960906982421875" lon="2.754371501505374908447265625">
        <ele>136.1999969482421875</ele>
        <time>2023-08-19T18:06:27.000Z</time>
        <extensions>
          <ns3:TrackPointExtension>
            <ns3:hr>164</ns3:hr>
            <ns3:cad>88</ns3:cad>
          </ns3:TrackPointExtension>
        </extensions>
      </trkpt>
      <trkpt lat="42.61599219404160976409912109375" lon="2.75441206991672515869140625">
        <ele>136.1999969482421875</ele>
        <time>2023-08-19T18:06:28.000Z</time>
        <extensions>
          <ns3:TrackPointExtension>
            <ns3:hr>165</ns3:hr>
            <ns3:cad>88</ns3:cad>
          </ns3:TrackPointExtension>
        </extensions>
      </trkpt>
      <trkpt lat="42.61600191704928874969482421875" lon="2.754457332193851470947265625">
        <ele>136.1999969482421875</ele>
        <time>2023-08-19T18:06:29.000Z</time>
        <extensions>
          <ns3:TrackPointExtension>
            <ns3:hr>165</ns3:hr>
            <ns3:cad>87</ns3:cad>
          </ns3:TrackPointExtension>
        </extensions>
      </trkpt>
      <trkpt lat="42.6160149089992046356201171875" lon="2.75449831970036029815673828125">
        <ele>136.1999969482421875</ele>
        <time>2023-08-19T18:06:30.000Z</time>
        <extensions>
          <ns3:TrackPointExtension>
            <ns3:hr>166</ns3:hr>
            <ns3:cad>87</ns3:cad>
          </ns3:TrackPointExtension>
        </extensions>
      </trkpt>
      <trkpt lat="42.61602387763559818267822265625" lon="2.75454391725361347198486328125">
        <ele>136.1999969482421875</ele>
        <time>2023-08-19T18:06:31.000Z</time>
        <extensions>
          <ns3:TrackPointExtension>
            <ns3:hr>165</ns3:hr>
            <ns3:cad>87</ns3:cad>
          </ns3:TrackPointExtension>
        </extensions>
      </trkpt>
      <trkpt lat="42.61603544466197490692138671875" lon="2.754582725465297698974609375">
        <ele>136.1999969482421875</ele>
        <time>2023-08-19T18:06:32.000Z</time>
        <extensions>
          <ns3:TrackPointExtension>
            <ns3:hr>165</ns3:hr>
            <ns3:cad>87</ns3:cad>
          </ns3:TrackPointExtension>
        </extensions>
      </trkpt>
      <trkpt lat="42.6160432398319244384765625" lon="2.754627652466297149658203125">
        <ele>136.1999969482421875</ele>
        <time>2023-08-19T18:06:33.000Z</time>
        <extensions>
          <ns3:TrackPointExtension>
            <ns3:hr>165</ns3:hr>
            <ns3:cad>87</ns3:cad>
          </ns3:TrackPointExtension>
        </extensions>
      </trkpt>
      <trkpt lat="42.6160561479628086090087890625" lon="2.7546660415828227996826171875">
        <ele>136</ele>
        <time>2023-08-19T18:06:34.000Z</time>
        <extensions>
          <ns3:TrackPointExtension>
            <ns3:hr>165</ns3:hr>
            <ns3:cad>87</ns3:cad>
          </ns3:TrackPointExtension>
        </extensions>
      </trkpt>
      <trkpt lat="42.61606536805629730224609375" lon="2.7547102980315685272216796875">
        <ele>135.8000030517578125</ele>
        <time>2023-08-19T18:06:35.000Z</time>
        <extensions>
          <ns3:TrackPointExtension>
            <ns3:hr>164</ns3:hr>
            <ns3:cad>87</ns3:cad>
          </ns3:TrackPointExtension>
        </extensions>
      </trkpt>
      <trkpt lat="42.61607467196881771087646484375" lon="2.7547491900622844696044921875">
        <ele>135.600006103515625</ele>
        <time>2023-08-19T18:06:36.000Z</time>
        <extensions>
          <ns3:TrackPointExtension>
            <ns3:hr>165</ns3:hr>
            <ns3:cad>87</ns3:cad>
          </ns3:TrackPointExtension>
        </extensions>
      </trkpt>
      <trkpt lat="42.61608414351940155029296875" lon="2.7547897584736347198486328125">
        <ele>135.399993896484375</ele>
        <time>2023-08-19T18:06:37.000Z</time>
        <extensions>
          <ns3:TrackPointExtension>
            <ns3:hr>166</ns3:hr>
            <ns3:cad>87</ns3:cad>
          </ns3:TrackPointExtension>
        </extensions>
      </trkpt>
      <trkpt lat="42.61609160341322422027587890625" lon="2.7548338472843170166015625">
        <ele>135.399993896484375</ele>
        <time>2023-08-19T18:06:38.000Z</time>
        <extensions>
          <ns3:TrackPointExtension>
            <ns3:hr>166</ns3:hr>
            <ns3:cad>86</ns3:cad>
          </ns3:TrackPointExtension>
        </extensions>
      </trkpt>
      <trkpt lat="42.6161007396876811981201171875" lon="2.754871733486652374267578125">
        <ele>135.399993896484375</ele>
        <time>2023-08-19T18:06:39.000Z</time>
        <extensions>
          <ns3:TrackPointExtension>
            <ns3:hr>166</ns3:hr>
            <ns3:cad>86</ns3:cad>
          </ns3:TrackPointExtension>
        </extensions>
      </trkpt>
      <trkpt lat="42.61610853485763072967529296875" lon="2.75491758249700069427490234375">
        <ele>135.399993896484375</ele>
        <time>2023-08-19T18:06:40.000Z</time>
        <extensions>
          <ns3:TrackPointExtension>
            <ns3:hr>165</ns3:hr>
            <ns3:cad>86</ns3:cad>
          </ns3:TrackPointExtension>
        </extensions>
      </trkpt>
      <trkpt lat="42.616120688617229461669921875" lon="2.7549563907086849212646484375">
        <ele>135.1999969482421875</ele>
        <time>2023-08-19T18:06:41.000Z</time>
        <extensions>
          <ns3:TrackPointExtension>
            <ns3:hr>165</ns3:hr>
            <ns3:cad>86</ns3:cad>
          </ns3:TrackPointExtension>
        </extensions>
      </trkpt>
      <trkpt lat="42.6161329261958599090576171875" lon="2.75500106625258922576904296875">
        <ele>135</ele>
        <time>2023-08-19T18:06:42.000Z</time>
        <extensions>
          <ns3:TrackPointExtension>
            <ns3:hr>164</ns3:hr>
            <ns3:cad>87</ns3:cad>
          </ns3:TrackPointExtension>
        </extensions>
      </trkpt>
      <trkpt lat="42.616144157946109771728515625" lon="2.7550351805984973907470703125">
        <ele>134.8000030517578125</ele>
        <time>2023-08-19T18:06:43.000Z</time>
        <extensions>
          <ns3:TrackPointExtension>
            <ns3:hr>165</ns3:hr>
            <ns3:cad>87</ns3:cad>
          </ns3:TrackPointExtension>
        </extensions>
      </trkpt>
      <trkpt lat="42.61615446768701076507568359375" lon="2.75507633574306964874267578125">
        <ele>134.600006103515625</ele>
        <time>2023-08-19T18:06:44.000Z</time>
        <extensions>
          <ns3:TrackPointExtension>
            <ns3:hr>166</ns3:hr>
            <ns3:cad>87</ns3:cad>
          </ns3:TrackPointExtension>
        </extensions>
      </trkpt>
      <trkpt lat="42.6161617599427700042724609375" lon="2.755114473402500152587890625">
        <ele>134.600006103515625</ele>
        <time>2023-08-19T18:06:45.000Z</time>
        <extensions>
          <ns3:TrackPointExtension>
            <ns3:hr>166</ns3:hr>
            <ns3:cad>86</ns3:cad>
          </ns3:TrackPointExtension>
        </extensions>
      </trkpt>
      <trkpt lat="42.6161728240549564361572265625" lon="2.75515344925224781036376953125">
        <ele>134.600006103515625</ele>
        <time>2023-08-19T18:06:46.000Z</time>
        <extensions>
          <ns3:TrackPointExtension>
            <ns3:hr>167</ns3:hr>
            <ns3:cad>86</ns3:cad>
          </ns3:TrackPointExtension>
        </extensions>
      </trkpt>
      <trkpt lat="42.616184391081333160400390625" lon="2.75519301183521747589111328125">
        <ele>134.399993896484375</ele>
        <time>2023-08-19T18:06:47.000Z</time>
        <extensions>
          <ns3:TrackPointExtension>
            <ns3:hr>168</ns3:hr>
            <ns3:cad>86</ns3:cad>
          </ns3:TrackPointExtension>
        </extensions>
      </trkpt>
      <trkpt lat="42.61619947850704193115234375" lon="2.7552266232669353485107421875">
        <ele>134.399993896484375</ele>
        <time>2023-08-19T18:06:48.000Z</time>
        <extensions>
          <ns3:TrackPointExtension>
            <ns3:hr>167</ns3:hr>
            <ns3:cad>86</ns3:cad>
          </ns3:TrackPointExtension>
        </extensions>
      </trkpt>
      <trkpt lat="42.61621213518083095550537109375" lon="2.7552702091634273529052734375">
        <ele>134.399993896484375</ele>
        <time>2023-08-19T18:06:49.000Z</time>
        <extensions>
          <ns3:TrackPointExtension>
            <ns3:hr>166</ns3:hr>
            <ns3:cad>87</ns3:cad>
          </ns3:TrackPointExtension>
        </extensions>
      </trkpt>
      <trkpt lat="42.6162274740636348724365234375" lon="2.7553010545670986175537109375">
        <ele>134.399993896484375</ele>
        <time>2023-08-19T18:06:50.000Z</time>
        <extensions>
          <ns3:TrackPointExtension>
            <ns3:hr>166</ns3:hr>
            <ns3:cad>87</ns3:cad>
          </ns3:TrackPointExtension>
        </extensions>
      </trkpt>
      <trkpt lat="42.61624063365161418914794921875" lon="2.7553359232842922210693359375">
        <ele>134.1999969482421875</ele>
        <time>2023-08-19T18:06:51.000Z</time>
        <extensions>
          <ns3:TrackPointExtension>
            <ns3:hr>165</ns3:hr>
            <ns3:cad>86</ns3:cad>
          </ns3:TrackPointExtension>
        </extensions>
      </trkpt>
      <trkpt lat="42.6162546314299106597900390625" lon="2.75536886416375637054443359375">
        <ele>134.1999969482421875</ele>
        <time>2023-08-19T18:06:52.000Z</time>
        <extensions>
          <ns3:TrackPointExtension>
            <ns3:hr>164</ns3:hr>
            <ns3:cad>86</ns3:cad>
          </ns3:TrackPointExtension>
        </extensions>
      </trkpt>
      <trkpt lat="42.616268880665302276611328125" lon="2.755405493080615997314453125">
        <ele>134.1999969482421875</ele>
        <time>2023-08-19T18:06:53.000Z</time>
        <extensions>
          <ns3:TrackPointExtension>
            <ns3:hr>166</ns3:hr>
            <ns3:cad>86</ns3:cad>
          </ns3:TrackPointExtension>
        </extensions>
      </trkpt>
      <trkpt lat="42.6162804476916790008544921875" lon="2.755441032350063323974609375">
        <ele>134.1999969482421875</ele>
        <time>2023-08-19T18:06:54.000Z</time>
        <extensions>
          <ns3:TrackPointExtension>
            <ns3:hr>166</ns3:hr>
            <ns3:cad>86</ns3:cad>
          </ns3:TrackPointExtension>
        </extensions>
      </trkpt>
      <trkpt lat="42.61629377491772174835205078125" lon="2.7554733864963054656982421875">
        <ele>134.1999969482421875</ele>
        <time>2023-08-19T18:06:55.000Z</time>
        <extensions>
          <ns3:TrackPointExtension>
            <ns3:hr>166</ns3:hr>
            <ns3:cad>86</ns3:cad>
          </ns3:TrackPointExtension>
        </extensions>
      </trkpt>
      <trkpt lat="42.61630081571638584136962890625" lon="2.75550733320415019989013671875">
        <ele>134</ele>
        <time>2023-08-19T18:06:56.000Z</time>
        <extensions>
          <ns3:TrackPointExtension>
            <ns3:hr>167</ns3:hr>
            <ns3:cad>86</ns3:cad>
          </ns3:TrackPointExtension>
        </extensions>
      </trkpt>
      <trkpt lat="42.616314478218555450439453125" lon="2.7555444650352001190185546875">
        <ele>133.8000030517578125</ele>
        <time>2023-08-19T18:06:57.000Z</time>
        <extensions>
          <ns3:TrackPointExtension>
            <ns3:hr>169</ns3:hr>
            <ns3:cad>86</ns3:cad>
          </ns3:TrackPointExtension>
        </extensions>
      </trkpt>
      <trkpt lat="42.6163273863494396209716796875" lon="2.755578495562076568603515625">
        <ele>133.600006103515625</ele>
        <time>2023-08-19T18:06:58.000Z</time>
        <extensions>
          <ns3:TrackPointExtension>
            <ns3:hr>166</ns3:hr>
            <ns3:cad>86</ns3:cad>
          </ns3:TrackPointExtension>
        </extensions>
      </trkpt>
      <trkpt lat="42.61633987538516521453857421875" lon="2.75560992769896984100341796875">
        <ele>133.600006103515625</ele>
        <time>2023-08-19T18:06:59.000Z</time>
        <extensions>
          <ns3:TrackPointExtension>
            <ns3:hr>166</ns3:hr>
            <ns3:cad>86</ns3:cad>
          </ns3:TrackPointExtension>
        </extensions>
      </trkpt>
      <trkpt lat="42.61635370552539825439453125" lon="2.7556427009403705596923828125">
        <ele>133.600006103515625</ele>
        <time>2023-08-19T18:07:00.000Z</time>
        <extensions>
          <ns3:TrackPointExtension>
            <ns3:hr>165</ns3:hr>
            <ns3:cad>86</ns3:cad>
          </ns3:TrackPointExtension>
        </extensions>
      </trkpt>
      <trkpt lat="42.6163652725517749786376953125" lon="2.75568075478076934814453125">
        <ele>133.600006103515625</ele>
        <time>2023-08-19T18:07:01.000Z</time>
        <extensions>
          <ns3:TrackPointExtension>
            <ns3:hr>165</ns3:hr>
            <ns3:cad>86</ns3:cad>
          </ns3:TrackPointExtension>
        </extensions>
      </trkpt>
      <trkpt lat="42.6163806952536106109619140625" lon="2.75571604259312152862548828125">
        <ele>133.600006103515625</ele>
        <time>2023-08-19T18:07:02.000Z</time>
        <extensions>
          <ns3:TrackPointExtension>
            <ns3:hr>164</ns3:hr>
            <ns3:cad>86</ns3:cad>
          </ns3:TrackPointExtension>
        </extensions>
      </trkpt>
      <trkpt lat="42.6163914240896701812744140625" lon="2.75575644336640834808349609375">
        <ele>133.8000030517578125</ele>
        <time>2023-08-19T18:07:03.000Z</time>
        <extensions>
          <ns3:TrackPointExtension>
            <ns3:hr>164</ns3:hr>
            <ns3:cad>86</ns3:cad>
          </ns3:TrackPointExtension>
        </extensions>
      </trkpt>
      <trkpt lat="42.61640726588666439056396484375" lon="2.755789048969745635986328125">
        <ele>133.8000030517578125</ele>
        <time>2023-08-19T18:07:04.000Z</time>
        <extensions>
          <ns3:TrackPointExtension>
            <ns3:hr>164</ns3:hr>
            <ns3:cad>85</ns3:cad>
          </ns3:TrackPointExtension>
        </extensions>
      </trkpt>
      <trkpt lat="42.6164205931127071380615234375" lon="2.7558227442204952239990234375">
        <ele>133.8000030517578125</ele>
        <time>2023-08-19T18:07:05.000Z</time>
        <extensions>
          <ns3:TrackPointExtension>
            <ns3:hr>165</ns3:hr>
            <ns3:cad>85</ns3:cad>
          </ns3:TrackPointExtension>
        </extensions>
      </trkpt>
      <trkpt lat="42.61643257923424243927001953125" lon="2.755857445299625396728515625">
        <ele>133.8000030517578125</ele>
        <time>2023-08-19T18:07:06.000Z</time>
        <extensions>
          <ns3:TrackPointExtension>
            <ns3:hr>165</ns3:hr>
            <ns3:cad>85</ns3:cad>
          </ns3:TrackPointExtension>
        </extensions>
      </trkpt>
      <trkpt lat="42.6164467446506023406982421875" lon="2.75589223019778728485107421875">
        <ele>133.8000030517578125</ele>
        <time>2023-08-19T18:07:07.000Z</time>
        <extensions>
          <ns3:TrackPointExtension>
            <ns3:hr>165</ns3:hr>
            <ns3:cad>85</ns3:cad>
          </ns3:TrackPointExtension>
        </extensions>
      </trkpt>
      <trkpt lat="42.6164563000202178955078125" lon="2.75592894293367862701416015625">
        <ele>133.8000030517578125</ele>
        <time>2023-08-19T18:07:08.000Z</time>
        <extensions>
          <ns3:TrackPointExtension>
            <ns3:hr>166</ns3:hr>
            <ns3:cad>85</ns3:cad>
          </ns3:TrackPointExtension>
        </extensions>
      </trkpt>
      <trkpt lat="42.616470046341419219970703125" lon="2.75596297346055507659912109375">
        <ele>133.8000030517578125</ele>
        <time>2023-08-19T18:07:09.000Z</time>
        <extensions>
          <ns3:TrackPointExtension>
            <ns3:hr>165</ns3:hr>
            <ns3:cad>85</ns3:cad>
          </ns3:TrackPointExtension>
        </extensions>
      </trkpt>
      <trkpt lat="42.61648186482489109039306640625" lon="2.75600261986255645751953125">
        <ele>134</ele>
        <time>2023-08-19T18:07:10.000Z</time>
        <extensions>
          <ns3:TrackPointExtension>
            <ns3:hr>165</ns3:hr>
            <ns3:cad>86</ns3:cad>
          </ns3:TrackPointExtension>
        </extensions>
      </trkpt>
      <trkpt lat="42.6164946891367435455322265625" lon="2.75603505782783031463623046875">
        <ele>134</ele>
        <time>2023-08-19T18:07:11.000Z</time>
        <extensions>
          <ns3:TrackPointExtension>
            <ns3:hr>165</ns3:hr>
            <ns3:cad>86</ns3:cad>
          </ns3:TrackPointExtension>
        </extensions>
      </trkpt>
      <trkpt lat="42.61650734581053256988525390625" lon="2.75607244111597537994384765625">
        <ele>134</ele>
        <time>2023-08-19T18:07:12.000Z</time>
        <extensions>
          <ns3:TrackPointExtension>
            <ns3:hr>164</ns3:hr>
            <ns3:cad>86</ns3:cad>
          </ns3:TrackPointExtension>
        </extensions>
      </trkpt>
      <trkpt lat="42.61651790700852870941162109375" lon="2.756107561290264129638671875">
        <ele>134</ele>
        <time>2023-08-19T18:07:13.000Z</time>
        <extensions>
          <ns3:TrackPointExtension>
            <ns3:hr>164</ns3:hr>
            <ns3:cad>86</ns3:cad>
          </ns3:TrackPointExtension>
        </extensions>
      </trkpt>
      <trkpt lat="42.6165302284061908721923828125" lon="2.75614083744585514068603515625">
        <ele>134</ele>
        <time>2023-08-19T18:07:14.000Z</time>
        <extensions>
          <ns3:TrackPointExtension>
            <ns3:hr>167</ns3:hr>
            <ns3:cad>86</ns3:cad>
          </ns3:TrackPointExtension>
        </extensions>
      </trkpt>
      <trkpt lat="42.616543136537075042724609375" lon="2.75617755018174648284912109375">
        <ele>134</ele>
        <time>2023-08-19T18:07:15.000Z</time>
        <extensions>
          <ns3:TrackPointExtension>
            <ns3:hr>167</ns3:hr>
            <ns3:cad>86</ns3:cad>
          </ns3:TrackPointExtension>
        </extensions>
      </trkpt>
      <trkpt lat="42.616559229791164398193359375" lon="2.756208479404449462890625">
        <ele>133.8000030517578125</ele>
        <time>2023-08-19T18:07:16.000Z</time>
        <extensions>
          <ns3:TrackPointExtension>
            <ns3:hr>165</ns3:hr>
            <ns3:cad>86</ns3:cad>
          </ns3:TrackPointExtension>
        </extensions>
      </trkpt>
      <trkpt lat="42.6165728084743022918701171875" lon="2.75624728761613368988037109375">
        <ele>133.8000030517578125</ele>
        <time>2023-08-19T18:07:17.000Z</time>
        <extensions>
          <ns3:TrackPointExtension>
            <ns3:hr>165</ns3:hr>
            <ns3:cad>86</ns3:cad>
          </ns3:TrackPointExtension>
        </extensions>
      </trkpt>
      <trkpt lat="42.61658915318548679351806640625" lon="2.7562783844769001007080078125">
        <ele>133.8000030517578125</ele>
        <time>2023-08-19T18:07:18.000Z</time>
        <extensions>
          <ns3:TrackPointExtension>
            <ns3:hr>164</ns3:hr>
            <ns3:cad>86</ns3:cad>
          </ns3:TrackPointExtension>
        </extensions>
      </trkpt>
      <trkpt lat="42.6166043244302272796630859375" lon="2.75631719268858432769775390625">
        <ele>133.8000030517578125</ele>
        <time>2023-08-19T18:07:19.000Z</time>
        <extensions>
          <ns3:TrackPointExtension>
            <ns3:hr>164</ns3:hr>
            <ns3:cad>86</ns3:cad>
          </ns3:TrackPointExtension>
        </extensions>
      </trkpt>
      <trkpt lat="42.6166194118559360504150390625" lon="2.75634904392063617706298828125">
        <ele>133.8000030517578125</ele>
        <time>2023-08-19T18:07:20.000Z</time>
        <extensions>
          <ns3:TrackPointExtension>
            <ns3:hr>163</ns3:hr>
            <ns3:cad>86</ns3:cad>
          </ns3:TrackPointExtension>
        </extensions>
      </trkpt>
      <trkpt lat="42.616635002195835113525390625" lon="2.7563876844942569732666015625">
        <ele>133.8000030517578125</ele>
        <time>2023-08-19T18:07:21.000Z</time>
        <extensions>
          <ns3:TrackPointExtension>
            <ns3:hr>164</ns3:hr>
            <ns3:cad>86</ns3:cad>
          </ns3:TrackPointExtension>
        </extensions>
      </trkpt>
      <trkpt lat="42.61664799414575099945068359375" lon="2.75642481632530689239501953125">
        <ele>133.8000030517578125</ele>
        <time>2023-08-19T18:07:22.000Z</time>
        <extensions>
          <ns3:TrackPointExtension>
            <ns3:hr>165</ns3:hr>
            <ns3:cad>86</ns3:cad>
          </ns3:TrackPointExtension>
        </extensions>
      </trkpt>
      <trkpt lat="42.616663165390491485595703125" lon="2.756457589566707611083984375">
        <ele>133.8000030517578125</ele>
        <time>2023-08-19T18:07:23.000Z</time>
        <extensions>
          <ns3:TrackPointExtension>
            <ns3:hr>165</ns3:hr>
            <ns3:cad>87</ns3:cad>
          </ns3:TrackPointExtension>
        </extensions>
      </trkpt>
      <trkpt lat="42.61667833663523197174072265625" lon="2.75649723596870899200439453125">
        <ele>133.600006103515625</ele>
        <time>2023-08-19T18:07:24.000Z</time>
        <extensions>
          <ns3:TrackPointExtension>
            <ns3:hr>165</ns3:hr>
            <ns3:cad>87</ns3:cad>
          </ns3:TrackPointExtension>
        </extensions>
      </trkpt>
      <trkpt lat="42.61669568717479705810546875" lon="2.7565318532288074493408203125">
        <ele>133.600006103515625</ele>
        <time>2023-08-19T18:07:25.000Z</time>
        <extensions>
          <ns3:TrackPointExtension>
            <ns3:hr>165</ns3:hr>
            <ns3:cad>87</ns3:cad>
          </ns3:TrackPointExtension>
        </extensions>
      </trkpt>
      <trkpt lat="42.61670683510601520538330078125" lon="2.7565704099833965301513671875">
        <ele>133.600006103515625</ele>
        <time>2023-08-19T18:07:26.000Z</time>
        <extensions>
          <ns3:TrackPointExtension>
            <ns3:hr>165</ns3:hr>
            <ns3:cad>87</ns3:cad>
          </ns3:TrackPointExtension>
        </extensions>
      </trkpt>
      <trkpt lat="42.616720497608184814453125" lon="2.7566076256334781646728515625">
        <ele>133.399993896484375</ele>
        <time>2023-08-19T18:07:27.000Z</time>
        <extensions>
          <ns3:TrackPointExtension>
            <ns3:hr>165</ns3:hr>
            <ns3:cad>87</ns3:cad>
          </ns3:TrackPointExtension>
        </extensions>
      </trkpt>
      <trkpt lat="42.61673566885292530059814453125" lon="2.756649367511272430419921875">
        <ele>133.399993896484375</ele>
        <time>2023-08-19T18:07:28.000Z</time>
        <extensions>
          <ns3:TrackPointExtension>
            <ns3:hr>166</ns3:hr>
            <ns3:cad>87</ns3:cad>
          </ns3:TrackPointExtension>
        </extensions>
      </trkpt>
      <trkpt lat="42.61674807406961917877197265625" lon="2.75668616406619548797607421875">
        <ele>133</ele>
        <time>2023-08-19T18:07:29.000Z</time>
        <extensions>
          <ns3:TrackPointExtension>
            <ns3:hr>167</ns3:hr>
            <ns3:cad>87</ns3:cad>
          </ns3:TrackPointExtension>
        </extensions>
      </trkpt>
      <trkpt lat="42.61676165275275707244873046875" lon="2.75672547519207000732421875">
        <ele>133</ele>
        <time>2023-08-19T18:07:30.000Z</time>
        <extensions>
          <ns3:TrackPointExtension>
            <ns3:hr>167</ns3:hr>
            <ns3:cad>86</ns3:cad>
          </ns3:TrackPointExtension>
        </extensions>
      </trkpt>
      <trkpt lat="42.61677439324557781219482421875" lon="2.75676570832729339599609375">
        <ele>133</ele>
        <time>2023-08-19T18:07:31.000Z</time>
        <extensions>
          <ns3:TrackPointExtension>
            <ns3:hr>167</ns3:hr>
            <ns3:cad>86</ns3:cad>
          </ns3:TrackPointExtension>
        </extensions>
      </trkpt>
      <trkpt lat="42.61679132468998432159423828125" lon="2.756805606186389923095703125">
        <ele>133</ele>
        <time>2023-08-19T18:07:32.000Z</time>
        <extensions>
          <ns3:TrackPointExtension>
            <ns3:hr>167</ns3:hr>
            <ns3:cad>86</ns3:cad>
          </ns3:TrackPointExtension>
        </extensions>
      </trkpt>
      <trkpt lat="42.61680557392537593841552734375" lon="2.7568463422358036041259765625">
        <ele>132.8000030517578125</ele>
        <time>2023-08-19T18:07:33.000Z</time>
        <extensions>
          <ns3:TrackPointExtension>
            <ns3:hr>167</ns3:hr>
            <ns3:cad>86</ns3:cad>
          </ns3:TrackPointExtension>
        </extensions>
      </trkpt>
      <trkpt lat="42.61682300828397274017333984375" lon="2.75688104331493377685546875">
        <ele>133</ele>
        <time>2023-08-19T18:07:34.000Z</time>
        <extensions>
          <ns3:TrackPointExtension>
            <ns3:hr>166</ns3:hr>
            <ns3:cad>86</ns3:cad>
          </ns3:TrackPointExtension>
        </extensions>
      </trkpt>
      <trkpt lat="42.61683625169098377227783203125" lon="2.75692186318337917327880859375">
        <ele>133</ele>
        <time>2023-08-19T18:07:35.000Z</time>
        <extensions>
          <ns3:TrackPointExtension>
            <ns3:hr>166</ns3:hr>
            <ns3:cad>86</ns3:cad>
          </ns3:TrackPointExtension>
        </extensions>
      </trkpt>
      <trkpt lat="42.61684999801218509674072265625" lon="2.75695119984447956085205078125">
        <ele>132.8000030517578125</ele>
        <time>2023-08-19T18:07:36.000Z</time>
        <extensions>
          <ns3:TrackPointExtension>
            <ns3:hr>166</ns3:hr>
            <ns3:cad>86</ns3:cad>
          </ns3:TrackPointExtension>
        </extensions>
      </trkpt>
      <trkpt lat="42.61686525307595729827880859375" lon="2.756994031369686126708984375">
        <ele>132.600006103515625</ele>
        <time>2023-08-19T18:07:37.000Z</time>
        <extensions>
          <ns3:TrackPointExtension>
            <ns3:hr>166</ns3:hr>
            <ns3:cad>86</ns3:cad>
          </ns3:TrackPointExtension>
        </extensions>
      </trkpt>
      <trkpt lat="42.616877742111682891845703125" lon="2.7570314146578311920166015625">
        <ele>132.399993896484375</ele>
        <time>2023-08-19T18:07:38.000Z</time>
        <extensions>
          <ns3:TrackPointExtension>
            <ns3:hr>166</ns3:hr>
            <ns3:cad>86</ns3:cad>
          </ns3:TrackPointExtension>
        </extensions>
      </trkpt>
      <trkpt lat="42.6168919913470745086669921875" lon="2.75707139633595943450927734375">
        <ele>132.399993896484375</ele>
        <time>2023-08-19T18:07:39.000Z</time>
        <extensions>
          <ns3:TrackPointExtension>
            <ns3:hr>166</ns3:hr>
            <ns3:cad>87</ns3:cad>
          </ns3:TrackPointExtension>
        </extensions>
      </trkpt>
      <trkpt lat="42.61690355837345123291015625" lon="2.75711129419505596160888671875">
        <ele>132.1999969482421875</ele>
        <time>2023-08-19T18:07:40.000Z</time>
        <extensions>
          <ns3:TrackPointExtension>
            <ns3:hr>166</ns3:hr>
            <ns3:cad>86</ns3:cad>
          </ns3:TrackPointExtension>
        </extensions>
      </trkpt>
      <trkpt lat="42.616918981075286865234375" lon="2.75714565999805927276611328125">
        <ele>132.1999969482421875</ele>
        <time>2023-08-19T18:07:41.000Z</time>
        <extensions>
          <ns3:TrackPointExtension>
            <ns3:hr>167</ns3:hr>
            <ns3:cad>87</ns3:cad>
          </ns3:TrackPointExtension>
        </extensions>
      </trkpt>
      <trkpt lat="42.61693281121551990509033203125" lon="2.75718572549521923065185546875">
        <ele>132</ele>
        <time>2023-08-19T18:07:42.000Z</time>
        <extensions>
          <ns3:TrackPointExtension>
            <ns3:hr>167</ns3:hr>
            <ns3:cad>87</ns3:cad>
          </ns3:TrackPointExtension>
        </extensions>
      </trkpt>
      <trkpt lat="42.6169489882886409759521484375" lon="2.757222019135951995849609375">
        <ele>132</ele>
        <time>2023-08-19T18:07:43.000Z</time>
        <extensions>
          <ns3:TrackPointExtension>
            <ns3:hr>167</ns3:hr>
            <ns3:cad>87</ns3:cad>
          </ns3:TrackPointExtension>
        </extensions>
      </trkpt>
      <trkpt lat="42.61696265079081058502197265625" lon="2.7572647668421268463134765625">
        <ele>131.8000030517578125</ele>
        <time>2023-08-19T18:07:44.000Z</time>
        <extensions>
          <ns3:TrackPointExtension>
            <ns3:hr>167</ns3:hr>
            <ns3:cad>87</ns3:cad>
          </ns3:TrackPointExtension>
        </extensions>
      </trkpt>
      <trkpt lat="42.6169778220355510711669921875" lon="2.7572982944548130035400390625">
        <ele>131.8000030517578125</ele>
        <time>2023-08-19T18:07:45.000Z</time>
        <extensions>
          <ns3:TrackPointExtension>
            <ns3:hr>166</ns3:hr>
            <ns3:cad>87</ns3:cad>
          </ns3:TrackPointExtension>
        </extensions>
      </trkpt>
      <trkpt lat="42.61699416674673557281494140625" lon="2.75733727030456066131591796875">
        <ele>131.600006103515625</ele>
        <time>2023-08-19T18:07:46.000Z</time>
        <extensions>
          <ns3:TrackPointExtension>
            <ns3:hr>166</ns3:hr>
            <ns3:cad>87</ns3:cad>
          </ns3:TrackPointExtension>
        </extensions>
      </trkpt>
      <trkpt lat="42.6170079968869686126708984375" lon="2.7573703788220882415771484375">
        <ele>131.399993896484375</ele>
        <time>2023-08-19T18:07:47.000Z</time>
        <extensions>
          <ns3:TrackPointExtension>
            <ns3:hr>166</ns3:hr>
            <ns3:cad>87</ns3:cad>
          </ns3:TrackPointExtension>
        </extensions>
      </trkpt>
      <trkpt lat="42.61702434159815311431884765625" lon="2.7574075944721698760986328125">
        <ele>131.399993896484375</ele>
        <time>2023-08-19T18:07:48.000Z</time>
        <extensions>
          <ns3:TrackPointExtension>
            <ns3:hr>166</ns3:hr>
            <ns3:cad>86</ns3:cad>
          </ns3:TrackPointExtension>
        </extensions>
      </trkpt>
      <trkpt lat="42.61703758500516414642333984375" lon="2.7574491687119007110595703125">
        <ele>131.399993896484375</ele>
        <time>2023-08-19T18:07:49.000Z</time>
        <extensions>
          <ns3:TrackPointExtension>
            <ns3:hr>166</ns3:hr>
            <ns3:cad>86</ns3:cad>
          </ns3:TrackPointExtension>
        </extensions>
      </trkpt>
      <trkpt lat="42.617053091526031494140625" lon="2.757486216723918914794921875">
        <ele>131.1999969482421875</ele>
        <time>2023-08-19T18:07:50.000Z</time>
        <extensions>
          <ns3:TrackPointExtension>
            <ns3:hr>166</ns3:hr>
            <ns3:cad>86</ns3:cad>
          </ns3:TrackPointExtension>
        </extensions>
      </trkpt>
      <trkpt lat="42.617067508399486541748046875" lon="2.757529802620410919189453125">
        <ele>131.1999969482421875</ele>
        <time>2023-08-19T18:07:51.000Z</time>
        <extensions>
          <ns3:TrackPointExtension>
            <ns3:hr>166</ns3:hr>
            <ns3:cad>86</ns3:cad>
          </ns3:TrackPointExtension>
        </extensions>
      </trkpt>
      <trkpt lat="42.61708267964422702789306640625" lon="2.75756525807082653045654296875">
        <ele>131.1999969482421875</ele>
        <time>2023-08-19T18:07:52.000Z</time>
        <extensions>
          <ns3:TrackPointExtension>
            <ns3:hr>166</ns3:hr>
            <ns3:cad>86</ns3:cad>
          </ns3:TrackPointExtension>
        </extensions>
      </trkpt>
      <trkpt lat="42.61709374375641345977783203125" lon="2.7576084248721599578857421875">
        <ele>131</ele>
        <time>2023-08-19T18:07:53.000Z</time>
        <extensions>
          <ns3:TrackPointExtension>
            <ns3:hr>165</ns3:hr>
            <ns3:cad>86</ns3:cad>
          </ns3:TrackPointExtension>
        </extensions>
      </trkpt>
      <trkpt lat="42.61710782535374164581298828125" lon="2.75764136575162410736083984375">
        <ele>131</ele>
        <time>2023-08-19T18:07:54.000Z</time>
        <extensions>
          <ns3:TrackPointExtension>
            <ns3:hr>165</ns3:hr>
            <ns3:cad>86</ns3:cad>
          </ns3:TrackPointExtension>
        </extensions>
      </trkpt>
      <trkpt lat="42.6171214878559112548828125" lon="2.7576828561723232269287109375">
        <ele>130.8000030517578125</ele>
        <time>2023-08-19T18:07:55.000Z</time>
        <extensions>
          <ns3:TrackPointExtension>
            <ns3:hr>165</ns3:hr>
            <ns3:cad>86</ns3:cad>
          </ns3:TrackPointExtension>
        </extensions>
      </trkpt>
      <trkpt lat="42.61713288724422454833984375" lon="2.75772065855562686920166015625">
        <ele>130.600006103515625</ele>
        <time>2023-08-19T18:07:56.000Z</time>
        <extensions>
          <ns3:TrackPointExtension>
            <ns3:hr>165</ns3:hr>
            <ns3:cad>86</ns3:cad>
          </ns3:TrackPointExtension>
        </extensions>
      </trkpt>
      <trkpt lat="42.61714571155607700347900390625" lon="2.7577576227486133575439453125">
        <ele>130.600006103515625</ele>
        <time>2023-08-19T18:07:57.000Z</time>
        <extensions>
          <ns3:TrackPointExtension>
            <ns3:hr>164</ns3:hr>
            <ns3:cad>87</ns3:cad>
          </ns3:TrackPointExtension>
        </extensions>
      </trkpt>
      <trkpt lat="42.6171548478305339813232421875" lon="2.75779911316931247711181640625">
        <ele>130.399993896484375</ele>
        <time>2023-08-19T18:07:58.000Z</time>
        <extensions>
          <ns3:TrackPointExtension>
            <ns3:hr>164</ns3:hr>
            <ns3:cad>86</ns3:cad>
          </ns3:TrackPointExtension>
        </extensions>
      </trkpt>
      <trkpt lat="42.617166750133037567138671875" lon="2.75783398188650608062744140625">
        <ele>130.1999969482421875</ele>
        <time>2023-08-19T18:07:59.000Z</time>
        <extensions>
          <ns3:TrackPointExtension>
            <ns3:hr>163</ns3:hr>
            <ns3:cad>86</ns3:cad>
          </ns3:TrackPointExtension>
        </extensions>
      </trkpt>
      <trkpt lat="42.617176473140716552734375" lon="2.7578766457736492156982421875">
        <ele>130.1999969482421875</ele>
        <time>2023-08-19T18:08:00.000Z</time>
        <extensions>
          <ns3:TrackPointExtension>
            <ns3:hr>163</ns3:hr>
            <ns3:cad>86</ns3:cad>
          </ns3:TrackPointExtension>
        </extensions>
      </trkpt>
      <trkpt lat="42.61719080619513988494873046875" lon="2.757911346852779388427734375">
        <ele>130.1999969482421875</ele>
        <time>2023-08-19T18:08:01.000Z</time>
        <extensions>
          <ns3:TrackPointExtension>
            <ns3:hr>165</ns3:hr>
            <ns3:cad>86</ns3:cad>
          </ns3:TrackPointExtension>
        </extensions>
      </trkpt>
      <trkpt lat="42.61720589362084865570068359375" lon="2.75795049034059047698974609375">
        <ele>130</ele>
        <time>2023-08-19T18:08:02.000Z</time>
        <extensions>
          <ns3:TrackPointExtension>
            <ns3:hr>164</ns3:hr>
            <ns3:cad>87</ns3:cad>
          </ns3:TrackPointExtension>
        </extensions>
      </trkpt>
      <trkpt lat="42.6172192208468914031982421875" lon="2.75798401795327663421630859375">
        <ele>130</ele>
        <time>2023-08-19T18:08:03.000Z</time>
        <extensions>
          <ns3:TrackPointExtension>
            <ns3:hr>164</ns3:hr>
            <ns3:cad>87</ns3:cad>
          </ns3:TrackPointExtension>
        </extensions>
      </trkpt>
      <trkpt lat="42.61723154224455356597900390625" lon="2.75802274234592914581298828125">
        <ele>130</ele>
        <time>2023-08-19T18:08:04.000Z</time>
        <extensions>
          <ns3:TrackPointExtension>
            <ns3:hr>163</ns3:hr>
            <ns3:cad>87</ns3:cad>
          </ns3:TrackPointExtension>
        </extensions>
      </trkpt>
      <trkpt lat="42.6172447018325328826904296875" lon="2.7580607123672962188720703125">
        <ele>129.8000030517578125</ele>
        <time>2023-08-19T18:08:05.000Z</time>
        <extensions>
          <ns3:TrackPointExtension>
            <ns3:hr>162</ns3:hr>
            <ns3:cad>87</ns3:cad>
          </ns3:TrackPointExtension>
        </extensions>
      </trkpt>
      <trkpt lat="42.61726104654371738433837890625" lon="2.75810035876929759979248046875">
        <ele>129.600006103515625</ele>
        <time>2023-08-19T18:08:06.000Z</time>
        <extensions>
          <ns3:TrackPointExtension>
            <ns3:hr>162</ns3:hr>
            <ns3:cad>87</ns3:cad>
          </ns3:TrackPointExtension>
        </extensions>
      </trkpt>
      <trkpt lat="42.61727102100849151611328125" lon="2.75813958607614040374755859375">
        <ele>129.600006103515625</ele>
        <time>2023-08-19T18:08:07.000Z</time>
        <extensions>
          <ns3:TrackPointExtension>
            <ns3:hr>162</ns3:hr>
            <ns3:cad>87</ns3:cad>
          </ns3:TrackPointExtension>
        </extensions>
      </trkpt>
      <trkpt lat="42.61728174984455108642578125" lon="2.75818057358264923095703125">
        <ele>129.399993896484375</ele>
        <time>2023-08-19T18:08:08.000Z</time>
        <extensions>
          <ns3:TrackPointExtension>
            <ns3:hr>162</ns3:hr>
            <ns3:cad>87</ns3:cad>
          </ns3:TrackPointExtension>
        </extensions>
      </trkpt>
      <trkpt lat="42.61728719808161258697509765625" lon="2.75822357274591922760009765625">
        <ele>129.399993896484375</ele>
        <time>2023-08-19T18:08:09.000Z</time>
        <extensions>
          <ns3:TrackPointExtension>
            <ns3:hr>162</ns3:hr>
            <ns3:cad>88</ns3:cad>
          </ns3:TrackPointExtension>
        </extensions>
      </trkpt>
      <trkpt lat="42.6172949932515621185302734375" lon="2.75826615281403064727783203125">
        <ele>129.1999969482421875</ele>
        <time>2023-08-19T18:08:10.000Z</time>
        <extensions>
          <ns3:TrackPointExtension>
            <ns3:hr>163</ns3:hr>
            <ns3:cad>88</ns3:cad>
          </ns3:TrackPointExtension>
        </extensions>
      </trkpt>
      <trkpt lat="42.61729893274605274200439453125" lon="2.75831191800534725189208984375">
        <ele>129</ele>
        <time>2023-08-19T18:08:11.000Z</time>
        <extensions>
          <ns3:TrackPointExtension>
            <ns3:hr>162</ns3:hr>
            <ns3:cad>88</ns3:cad>
          </ns3:TrackPointExtension>
        </extensions>
      </trkpt>
      <trkpt lat="42.61730496771633625030517578125" lon="2.75834561325609683990478515625">
        <ele>129</ele>
        <time>2023-08-19T18:08:12.000Z</time>
        <extensions>
          <ns3:TrackPointExtension>
            <ns3:hr>163</ns3:hr>
            <ns3:cad>88</ns3:cad>
          </ns3:TrackPointExtension>
        </extensions>
      </trkpt>
      <trkpt lat="42.6173084042966365814208984375" lon="2.75839355774223804473876953125">
        <ele>129</ele>
        <time>2023-08-19T18:08:13.000Z</time>
        <extensions>
          <ns3:TrackPointExtension>
            <ns3:hr>162</ns3:hr>
            <ns3:cad>87</ns3:cad>
          </ns3:TrackPointExtension>
        </extensions>
      </trkpt>
      <trkpt lat="42.6173134334385395050048828125" lon="2.75843345560133457183837890625">
        <ele>128.8000030517578125</ele>
        <time>2023-08-19T18:08:14.000Z</time>
        <extensions>
          <ns3:TrackPointExtension>
            <ns3:hr>161</ns3:hr>
            <ns3:cad>87</ns3:cad>
          </ns3:TrackPointExtension>
        </extensions>
      </trkpt>
      <trkpt lat="42.61731519363820552825927734375" lon="2.7584808133542537689208984375">
        <ele>128.8000030517578125</ele>
        <time>2023-08-19T18:08:15.000Z</time>
        <extensions>
          <ns3:TrackPointExtension>
            <ns3:hr>161</ns3:hr>
            <ns3:cad>87</ns3:cad>
          </ns3:TrackPointExtension>
        </extensions>
      </trkpt>
      <trkpt lat="42.61732039041817188262939453125" lon="2.75851811282336711883544921875">
        <ele>128.600006103515625</ele>
        <time>2023-08-19T18:08:16.000Z</time>
        <extensions>
          <ns3:TrackPointExtension>
            <ns3:hr>163</ns3:hr>
            <ns3:cad>87</ns3:cad>
          </ns3:TrackPointExtension>
        </extensions>
      </trkpt>
      <trkpt lat="42.6173241622745990753173828125" lon="2.75855884887278079986572265625">
        <ele>128.399993896484375</ele>
        <time>2023-08-19T18:08:17.000Z</time>
        <extensions>
          <ns3:TrackPointExtension>
            <ns3:hr>162</ns3:hr>
            <ns3:cad>87</ns3:cad>
          </ns3:TrackPointExtension>
        </extensions>
      </trkpt>
      <trkpt lat="42.61732525192201137542724609375" lon="2.75860168039798736572265625">
        <ele>128.1999969482421875</ele>
        <time>2023-08-19T18:08:18.000Z</time>
        <extensions>
          <ns3:TrackPointExtension>
            <ns3:hr>162</ns3:hr>
            <ns3:cad>87</ns3:cad>
          </ns3:TrackPointExtension>
        </extensions>
      </trkpt>
      <trkpt lat="42.6173298619687557220458984375" lon="2.75863998569548130035400390625">
        <ele>128</ele>
        <time>2023-08-19T18:08:19.000Z</time>
        <extensions>
          <ns3:TrackPointExtension>
            <ns3:hr>161</ns3:hr>
            <ns3:cad>87</ns3:cad>
          </ns3:TrackPointExtension>
        </extensions>
      </trkpt>
      <trkpt lat="42.6173345558345317840576171875" lon="2.758681140840053558349609375">
        <ele>127.8000030517578125</ele>
        <time>2023-08-19T18:08:20.000Z</time>
        <extensions>
          <ns3:TrackPointExtension>
            <ns3:hr>161</ns3:hr>
            <ns3:cad>87</ns3:cad>
          </ns3:TrackPointExtension>
        </extensions>
      </trkpt>
      <trkpt lat="42.61734050698578357696533203125" lon="2.7587202005088329315185546875">
        <ele>127.8000030517578125</ele>
        <time>2023-08-19T18:08:21.000Z</time>
        <extensions>
          <ns3:TrackPointExtension>
            <ns3:hr>161</ns3:hr>
            <ns3:cad>87</ns3:cad>
          </ns3:TrackPointExtension>
        </extensions>
      </trkpt>
      <trkpt lat="42.6173449493944644927978515625" lon="2.75876722298562526702880859375">
        <ele>127.59999847412109375</ele>
        <time>2023-08-19T18:08:22.000Z</time>
        <extensions>
          <ns3:TrackPointExtension>
            <ns3:hr>162</ns3:hr>
            <ns3:cad>88</ns3:cad>
          </ns3:TrackPointExtension>
        </extensions>
      </trkpt>
      <trkpt lat="42.61735148727893829345703125" lon="2.75880477391183376312255859375">
        <ele>127.59999847412109375</ele>
        <time>2023-08-19T18:08:23.000Z</time>
        <extensions>
          <ns3:TrackPointExtension>
            <ns3:hr>162</ns3:hr>
            <ns3:cad>89</ns3:cad>
          </ns3:TrackPointExtension>
        </extensions>
      </trkpt>
      <trkpt lat="42.61735551059246063232421875" lon="2.75885942392051219940185546875">
        <ele>127.59999847412109375</ele>
        <time>2023-08-19T18:08:24.000Z</time>
        <extensions>
          <ns3:TrackPointExtension>
            <ns3:hr>164</ns3:hr>
            <ns3:cad>88</ns3:cad>
          </ns3:TrackPointExtension>
        </extensions>
      </trkpt>
      <trkpt lat="42.61736531741917133331298828125" lon="2.75889663957059383392333984375">
        <ele>127.40000152587890625</ele>
        <time>2023-08-19T18:08:25.000Z</time>
        <extensions>
          <ns3:TrackPointExtension>
            <ns3:hr>162</ns3:hr>
            <ns3:cad>88</ns3:cad>
          </ns3:TrackPointExtension>
        </extensions>
      </trkpt>
      <trkpt lat="42.61737353168427944183349609375" lon="2.75894827209413051605224609375">
        <ele>127.40000152587890625</ele>
        <time>2023-08-19T18:08:26.000Z</time>
        <extensions>
          <ns3:TrackPointExtension>
            <ns3:hr>162</ns3:hr>
            <ns3:cad>88</ns3:cad>
          </ns3:TrackPointExtension>
        </extensions>
      </trkpt>
      <trkpt lat="42.61738543398678302764892578125" lon="2.75899571366608142852783203125">
        <ele>127.40000152587890625</ele>
        <time>2023-08-19T18:08:27.000Z</time>
        <extensions>
          <ns3:TrackPointExtension>
            <ns3:hr>162</ns3:hr>
            <ns3:cad>88</ns3:cad>
          </ns3:TrackPointExtension>
        </extensions>
      </trkpt>
      <trkpt lat="42.61739482171833515167236328125" lon="2.75904399342834949493408203125">
        <ele>127</ele>
        <time>2023-08-19T18:08:28.000Z</time>
        <extensions>
          <ns3:TrackPointExtension>
            <ns3:hr>163</ns3:hr>
            <ns3:cad>88</ns3:cad>
          </ns3:TrackPointExtension>
        </extensions>
      </trkpt>
      <trkpt lat="42.61740647256374359130859375" lon="2.7590869925916194915771484375">
        <ele>126.8000030517578125</ele>
        <time>2023-08-19T18:08:29.000Z</time>
        <extensions>
          <ns3:TrackPointExtension>
            <ns3:hr>163</ns3:hr>
            <ns3:cad>88</ns3:cad>
          </ns3:TrackPointExtension>
        </extensions>
      </trkpt>
      <trkpt lat="42.61741451919078826904296875" lon="2.75913787074387073516845703125">
        <ele>126.59999847412109375</ele>
        <time>2023-08-19T18:08:30.000Z</time>
        <extensions>
          <ns3:TrackPointExtension>
            <ns3:hr>163</ns3:hr>
            <ns3:cad>88</ns3:cad>
          </ns3:TrackPointExtension>
        </extensions>
      </trkpt>
      <trkpt lat="42.61742390692234039306640625" lon="2.75918145664036273956298828125">
        <ele>126.40000152587890625</ele>
        <time>2023-08-19T18:08:31.000Z</time>
        <extensions>
          <ns3:TrackPointExtension>
            <ns3:hr>163</ns3:hr>
            <ns3:cad>88</ns3:cad>
          </ns3:TrackPointExtension>
        </extensions>
      </trkpt>
      <trkpt lat="42.61743270792067050933837890625" lon="2.75922588072717189788818359375">
        <ele>126</ele>
        <time>2023-08-19T18:08:32.000Z</time>
        <extensions>
          <ns3:TrackPointExtension>
            <ns3:hr>162</ns3:hr>
            <ns3:cad>88</ns3:cad>
          </ns3:TrackPointExtension>
        </extensions>
      </trkpt>
      <trkpt lat="42.6174398325383663177490234375" lon="2.75926292873919010162353515625">
        <ele>126</ele>
        <time>2023-08-19T18:08:33.000Z</time>
        <extensions>
          <ns3:TrackPointExtension>
            <ns3:hr>163</ns3:hr>
            <ns3:cad>88</ns3:cad>
          </ns3:TrackPointExtension>
        </extensions>
      </trkpt>
      <trkpt lat="42.617450058460235595703125" lon="2.7593059279024600982666015625">
        <ele>125.8000030517578125</ele>
        <time>2023-08-19T18:08:34.000Z</time>
        <extensions>
          <ns3:TrackPointExtension>
            <ns3:hr>163</ns3:hr>
            <ns3:cad>88</ns3:cad>
          </ns3:TrackPointExtension>
        </extensions>
      </trkpt>
      <trkpt lat="42.61745802126824855804443359375" lon="2.759349010884761810302734375">
        <ele>125.40000152587890625</ele>
        <time>2023-08-19T18:08:35.000Z</time>
        <extensions>
          <ns3:TrackPointExtension>
            <ns3:hr>164</ns3:hr>
            <ns3:cad>88</ns3:cad>
          </ns3:TrackPointExtension>
        </extensions>
      </trkpt>
      <trkpt lat="42.61746472679078578948974609375" lon="2.759398631751537322998046875">
        <ele>125.1999969482421875</ele>
        <time>2023-08-19T18:08:36.000Z</time>
        <extensions>
          <ns3:TrackPointExtension>
            <ns3:hr>164</ns3:hr>
            <ns3:cad>88</ns3:cad>
          </ns3:TrackPointExtension>
        </extensions>
      </trkpt>
      <trkpt lat="42.61747126467525959014892578125" lon="2.759444899857044219970703125">
        <ele>125</ele>
        <time>2023-08-19T18:08:37.000Z</time>
        <extensions>
          <ns3:TrackPointExtension>
            <ns3:hr>164</ns3:hr>
            <ns3:cad>89</ns3:cad>
          </ns3:TrackPointExtension>
        </extensions>
      </trkpt>
      <trkpt lat="42.61748098768293857574462890625" lon="2.7594899944961071014404296875">
        <ele>124.8000030517578125</ele>
        <time>2023-08-19T18:08:38.000Z</time>
        <extensions>
          <ns3:TrackPointExtension>
            <ns3:hr>164</ns3:hr>
            <ns3:cad>89</ns3:cad>
          </ns3:TrackPointExtension>
        </extensions>
      </trkpt>
      <trkpt lat="42.61748685501515865325927734375" lon="2.759534418582916259765625">
        <ele>124.8000030517578125</ele>
        <time>2023-08-19T18:08:39.000Z</time>
        <extensions>
          <ns3:TrackPointExtension>
            <ns3:hr>164</ns3:hr>
            <ns3:cad>89</ns3:cad>
          </ns3:TrackPointExtension>
        </extensions>
      </trkpt>
      <trkpt lat="42.61749498546123504638671875" lon="2.75957725010812282562255859375">
        <ele>124.59999847412109375</ele>
        <time>2023-08-19T18:08:40.000Z</time>
        <extensions>
          <ns3:TrackPointExtension>
            <ns3:hr>165</ns3:hr>
            <ns3:cad>89</ns3:cad>
          </ns3:TrackPointExtension>
        </extensions>
      </trkpt>
      <trkpt lat="42.617503367364406585693359375" lon="2.7596247754991054534912109375">
        <ele>124.40000152587890625</ele>
        <time>2023-08-19T18:08:41.000Z</time>
        <extensions>
          <ns3:TrackPointExtension>
            <ns3:hr>165</ns3:hr>
            <ns3:cad>90</ns3:cad>
          </ns3:TrackPointExtension>
        </extensions>
      </trkpt>
      <trkpt lat="42.61751376092433929443359375" lon="2.75966609828174114227294921875">
        <ele>124.40000152587890625</ele>
        <time>2023-08-19T18:08:42.000Z</time>
        <extensions>
          <ns3:TrackPointExtension>
            <ns3:hr>165</ns3:hr>
            <ns3:cad>90</ns3:cad>
          </ns3:TrackPointExtension>
        </extensions>
      </trkpt>
      <trkpt lat="42.61752591468393802642822265625" lon="2.7597074210643768310546875">
        <ele>124.40000152587890625</ele>
        <time>2023-08-19T18:08:43.000Z</time>
        <extensions>
          <ns3:TrackPointExtension>
            <ns3:hr>165</ns3:hr>
            <ns3:cad>90</ns3:cad>
          </ns3:TrackPointExtension>
        </extensions>
      </trkpt>
      <trkpt lat="42.61753857135772705078125" lon="2.759743966162204742431640625">
        <ele>124</ele>
        <time>2023-08-19T18:08:44.000Z</time>
        <extensions>
          <ns3:TrackPointExtension>
            <ns3:hr>165</ns3:hr>
            <ns3:cad>89</ns3:cad>
          </ns3:TrackPointExtension>
        </extensions>
      </trkpt>
      <trkpt lat="42.61755223385989665985107421875" lon="2.7597847022116184234619140625">
        <ele>124</ele>
        <time>2023-08-19T18:08:45.000Z</time>
        <extensions>
          <ns3:TrackPointExtension>
            <ns3:hr>165</ns3:hr>
            <ns3:cad>89</ns3:cad>
          </ns3:TrackPointExtension>
        </extensions>
      </trkpt>
      <trkpt lat="42.6175618730485439300537109375" lon="2.7598209120333194732666015625">
        <ele>123.59999847412109375</ele>
        <time>2023-08-19T18:08:46.000Z</time>
        <extensions>
          <ns3:TrackPointExtension>
            <ns3:hr>165</ns3:hr>
            <ns3:cad>89</ns3:cad>
          </ns3:TrackPointExtension>
        </extensions>
      </trkpt>
      <trkpt lat="42.6175729371607303619384765625" lon="2.7598618157207965850830078125">
        <ele>123.40000152587890625</ele>
        <time>2023-08-19T18:08:47.000Z</time>
        <extensions>
          <ns3:TrackPointExtension>
            <ns3:hr>165</ns3:hr>
            <ns3:cad>88</ns3:cad>
          </ns3:TrackPointExtension>
        </extensions>
      </trkpt>
      <trkpt lat="42.617584504187107086181640625" lon="2.75989743880927562713623046875">
        <ele>123.1999969482421875</ele>
        <time>2023-08-19T18:08:48.000Z</time>
        <extensions>
          <ns3:TrackPointExtension>
            <ns3:hr>165</ns3:hr>
            <ns3:cad>88</ns3:cad>
          </ns3:TrackPointExtension>
        </extensions>
      </trkpt>
      <trkpt lat="42.6175977475941181182861328125" lon="2.75994236581027507781982421875">
        <ele>123.1999969482421875</ele>
        <time>2023-08-19T18:08:49.000Z</time>
        <extensions>
          <ns3:TrackPointExtension>
            <ns3:hr>165</ns3:hr>
            <ns3:cad>88</ns3:cad>
          </ns3:TrackPointExtension>
        </extensions>
      </trkpt>
      <trkpt lat="42.6176078058779239654541015625" lon="2.7599810063838958740234375">
        <ele>123.1999969482421875</ele>
        <time>2023-08-19T18:08:50.000Z</time>
        <extensions>
          <ns3:TrackPointExtension>
            <ns3:hr>165</ns3:hr>
            <ns3:cad>88</ns3:cad>
          </ns3:TrackPointExtension>
        </extensions>
      </trkpt>
      <trkpt lat="42.6176228933036327362060546875" lon="2.76001897640526294708251953125">
        <ele>123</ele>
        <time>2023-08-19T18:08:51.000Z</time>
        <extensions>
          <ns3:TrackPointExtension>
            <ns3:hr>165</ns3:hr>
            <ns3:cad>88</ns3:cad>
          </ns3:TrackPointExtension>
        </extensions>
      </trkpt>
      <trkpt lat="42.6176379807293415069580078125" lon="2.76005602441728115081787109375">
        <ele>122.8000030517578125</ele>
        <time>2023-08-19T18:08:52.000Z</time>
        <extensions>
          <ns3:TrackPointExtension>
            <ns3:hr>165</ns3:hr>
            <ns3:cad>88</ns3:cad>
          </ns3:TrackPointExtension>
        </extensions>
      </trkpt>
      <trkpt lat="42.617655582726001739501953125" lon="2.760091982781887054443359375">
        <ele>122.8000030517578125</ele>
        <time>2023-08-19T18:08:53.000Z</time>
        <extensions>
          <ns3:TrackPointExtension>
            <ns3:hr>165</ns3:hr>
            <ns3:cad>88</ns3:cad>
          </ns3:TrackPointExtension>
        </extensions>
      </trkpt>
      <trkpt lat="42.617669664323329925537109375" lon="2.760132215917110443115234375">
        <ele>122.59999847412109375</ele>
        <time>2023-08-19T18:08:54.000Z</time>
        <extensions>
          <ns3:TrackPointExtension>
            <ns3:hr>165</ns3:hr>
            <ns3:cad>88</ns3:cad>
          </ns3:TrackPointExtension>
        </extensions>
      </trkpt>
      <trkpt lat="42.61768399737775325775146484375" lon="2.76017345488071441650390625">
        <ele>122.40000152587890625</ele>
        <time>2023-08-19T18:08:55.000Z</time>
        <extensions>
          <ns3:TrackPointExtension>
            <ns3:hr>165</ns3:hr>
            <ns3:cad>88</ns3:cad>
          </ns3:TrackPointExtension>
        </extensions>
      </trkpt>
      <trkpt lat="42.61769455857574939727783203125" lon="2.7602091617882251739501953125">
        <ele>122.1999969482421875</ele>
        <time>2023-08-19T18:08:56.000Z</time>
        <extensions>
          <ns3:TrackPointExtension>
            <ns3:hr>166</ns3:hr>
            <ns3:cad>88</ns3:cad>
          </ns3:TrackPointExtension>
        </extensions>
      </trkpt>
      <trkpt lat="42.61770897544920444488525390625" lon="2.760241515934467315673828125">
        <ele>122.1999969482421875</ele>
        <time>2023-08-19T18:08:57.000Z</time>
        <extensions>
          <ns3:TrackPointExtension>
            <ns3:hr>166</ns3:hr>
            <ns3:cad>88</ns3:cad>
          </ns3:TrackPointExtension>
        </extensions>
      </trkpt>
      <trkpt lat="42.617721967399120330810546875" lon="2.76028099469840526580810546875">
        <ele>122</ele>
        <time>2023-08-19T18:08:58.000Z</time>
        <extensions>
          <ns3:TrackPointExtension>
            <ns3:hr>165</ns3:hr>
            <ns3:cad>89</ns3:cad>
          </ns3:TrackPointExtension>
        </extensions>
      </trkpt>
      <trkpt lat="42.61773772537708282470703125" lon="2.76031284593045711517333984375">
        <ele>122</ele>
        <time>2023-08-19T18:08:59.000Z</time>
        <extensions>
          <ns3:TrackPointExtension>
            <ns3:hr>165</ns3:hr>
            <ns3:cad>89</ns3:cad>
          </ns3:TrackPointExtension>
        </extensions>
      </trkpt>
      <trkpt lat="42.617753483355045318603515625" lon="2.760353498160839080810546875">
        <ele>122</ele>
        <time>2023-08-19T18:09:00.000Z</time>
        <extensions>
          <ns3:TrackPointExtension>
            <ns3:hr>166</ns3:hr>
            <ns3:cad>88</ns3:cad>
          </ns3:TrackPointExtension>
        </extensions>
      </trkpt>
      <trkpt lat="42.6177680678665637969970703125" lon="2.760390378534793853759765625">
        <ele>121.8000030517578125</ele>
        <time>2023-08-19T18:09:01.000Z</time>
        <extensions>
          <ns3:TrackPointExtension>
            <ns3:hr>167</ns3:hr>
            <ns3:cad>88</ns3:cad>
          </ns3:TrackPointExtension>
        </extensions>
      </trkpt>
      <trkpt lat="42.61778340674936771392822265625" lon="2.7604378201067447662353515625">
        <ele>121.8000030517578125</ele>
        <time>2023-08-19T18:09:02.000Z</time>
        <extensions>
          <ns3:TrackPointExtension>
            <ns3:hr>168</ns3:hr>
            <ns3:cad>88</ns3:cad>
          </ns3:TrackPointExtension>
        </extensions>
      </trkpt>
      <trkpt lat="42.61779614724218845367431640625" lon="2.76046841405332088470458984375">
        <ele>121.8000030517578125</ele>
        <time>2023-08-19T18:09:03.000Z</time>
        <extensions>
          <ns3:TrackPointExtension>
            <ns3:hr>167</ns3:hr>
            <ns3:cad>88</ns3:cad>
          </ns3:TrackPointExtension>
        </extensions>
      </trkpt>
      <trkpt lat="42.617813162505626678466796875" lon="2.76051099412143230438232421875">
        <ele>121.8000030517578125</ele>
        <time>2023-08-19T18:09:04.000Z</time>
        <extensions>
          <ns3:TrackPointExtension>
            <ns3:hr>166</ns3:hr>
            <ns3:cad>88</ns3:cad>
          </ns3:TrackPointExtension>
        </extensions>
      </trkpt>
      <trkpt lat="42.61782783083617687225341796875" lon="2.76054385118186473846435546875">
        <ele>121.59999847412109375</ele>
        <time>2023-08-19T18:09:05.000Z</time>
        <extensions>
          <ns3:TrackPointExtension>
            <ns3:hr>166</ns3:hr>
            <ns3:cad>88</ns3:cad>
          </ns3:TrackPointExtension>
        </extensions>
      </trkpt>
      <trkpt lat="42.61784610338509082794189453125" lon="2.76058190502226352691650390625">
        <ele>121.59999847412109375</ele>
        <time>2023-08-19T18:09:06.000Z</time>
        <extensions>
          <ns3:TrackPointExtension>
            <ns3:hr>166</ns3:hr>
            <ns3:cad>88</ns3:cad>
          </ns3:TrackPointExtension>
        </extensions>
      </trkpt>
      <trkpt lat="42.61786152608692646026611328125" lon="2.76061333715915679931640625">
        <ele>121.59999847412109375</ele>
        <time>2023-08-19T18:09:07.000Z</time>
        <extensions>
          <ns3:TrackPointExtension>
            <ns3:hr>167</ns3:hr>
            <ns3:cad>88</ns3:cad>
          </ns3:TrackPointExtension>
        </extensions>
      </trkpt>
      <trkpt lat="42.61787996627390384674072265625" lon="2.760645188391208648681640625">
        <ele>121.59999847412109375</ele>
        <time>2023-08-19T18:09:08.000Z</time>
        <extensions>
          <ns3:TrackPointExtension>
            <ns3:hr>166</ns3:hr>
            <ns3:cad>88</ns3:cad>
          </ns3:TrackPointExtension>
        </extensions>
      </trkpt>
      <trkpt lat="42.61789605952799320220947265625" lon="2.7606822364032268524169921875">
        <ele>121.59999847412109375</ele>
        <time>2023-08-19T18:09:09.000Z</time>
        <extensions>
          <ns3:TrackPointExtension>
            <ns3:hr>166</ns3:hr>
            <ns3:cad>88</ns3:cad>
          </ns3:TrackPointExtension>
        </extensions>
      </trkpt>
      <trkpt lat="42.6179142482578754425048828125" lon="2.760715596377849578857421875">
        <ele>121.40000152587890625</ele>
        <time>2023-08-19T18:09:10.000Z</time>
        <extensions>
          <ns3:TrackPointExtension>
            <ns3:hr>166</ns3:hr>
            <ns3:cad>88</ns3:cad>
          </ns3:TrackPointExtension>
        </extensions>
      </trkpt>
      <trkpt lat="42.61792941950261592864990234375" lon="2.76075281202793121337890625">
        <ele>121.1999969482421875</ele>
        <time>2023-08-19T18:09:11.000Z</time>
        <extensions>
          <ns3:TrackPointExtension>
            <ns3:hr>165</ns3:hr>
            <ns3:cad>88</ns3:cad>
          </ns3:TrackPointExtension>
        </extensions>
      </trkpt>
      <trkpt lat="42.61794517748057842254638671875" lon="2.760789357125759124755859375">
        <ele>121.1999969482421875</ele>
        <time>2023-08-19T18:09:12.000Z</time>
        <extensions>
          <ns3:TrackPointExtension>
            <ns3:hr>165</ns3:hr>
            <ns3:cad>88</ns3:cad>
          </ns3:TrackPointExtension>
        </extensions>
      </trkpt>
      <trkpt lat="42.6179610192775726318359375" lon="2.7608257345855236053466796875">
        <ele>121.1999969482421875</ele>
        <time>2023-08-19T18:09:13.000Z</time>
        <extensions>
          <ns3:TrackPointExtension>
            <ns3:hr>166</ns3:hr>
            <ns3:cad>88</ns3:cad>
          </ns3:TrackPointExtension>
        </extensions>
      </trkpt>
      <trkpt lat="42.6179796271026134490966796875" lon="2.7608582563698291778564453125">
        <ele>121.1999969482421875</ele>
        <time>2023-08-19T18:09:14.000Z</time>
        <extensions>
          <ns3:TrackPointExtension>
            <ns3:hr>167</ns3:hr>
            <ns3:cad>88</ns3:cad>
          </ns3:TrackPointExtension>
        </extensions>
      </trkpt>
      <trkpt lat="42.617998234927654266357421875" lon="2.7608983218669891357421875">
        <ele>121.1999969482421875</ele>
        <time>2023-08-19T18:09:15.000Z</time>
        <extensions>
          <ns3:TrackPointExtension>
            <ns3:hr>167</ns3:hr>
            <ns3:cad>87</ns3:cad>
          </ns3:TrackPointExtension>
        </extensions>
      </trkpt>
      <trkpt lat="42.6180134899914264678955078125" lon="2.76092975400388240814208984375">
        <ele>121.1999969482421875</ele>
        <time>2023-08-19T18:09:16.000Z</time>
        <extensions>
          <ns3:TrackPointExtension>
            <ns3:hr>166</ns3:hr>
            <ns3:cad>87</ns3:cad>
          </ns3:TrackPointExtension>
        </extensions>
      </trkpt>
      <trkpt lat="42.618029750883579254150390625" lon="2.760967724025249481201171875">
        <ele>121.1999969482421875</ele>
        <time>2023-08-19T18:09:17.000Z</time>
        <extensions>
          <ns3:TrackPointExtension>
            <ns3:hr>166</ns3:hr>
            <ns3:cad>87</ns3:cad>
          </ns3:TrackPointExtension>
        </extensions>
      </trkpt>
      <trkpt lat="42.61804441921412944793701171875" lon="2.7610037662088871002197265625">
        <ele>121.1999969482421875</ele>
        <time>2023-08-19T18:09:18.000Z</time>
        <extensions>
          <ns3:TrackPointExtension>
            <ns3:hr>164</ns3:hr>
            <ns3:cad>88</ns3:cad>
          </ns3:TrackPointExtension>
        </extensions>
      </trkpt>
      <trkpt lat="42.61805883608758449554443359375" lon="2.7610429935157299041748046875">
        <ele>121</ele>
        <time>2023-08-19T18:09:19.000Z</time>
        <extensions>
          <ns3:TrackPointExtension>
            <ns3:hr>166</ns3:hr>
            <ns3:cad>88</ns3:cad>
          </ns3:TrackPointExtension>
        </extensions>
      </trkpt>
      <trkpt lat="42.61807375587522983551025390625" lon="2.76108230464160442352294921875">
        <ele>121</ele>
        <time>2023-08-19T18:09:20.000Z</time>
        <extensions>
          <ns3:TrackPointExtension>
            <ns3:hr>166</ns3:hr>
            <ns3:cad>88</ns3:cad>
          </ns3:TrackPointExtension>
        </extensions>
      </trkpt>
      <trkpt lat="42.618090100586414337158203125" lon="2.7611164189875125885009765625">
        <ele>121</ele>
        <time>2023-08-19T18:09:21.000Z</time>
        <extensions>
          <ns3:TrackPointExtension>
            <ns3:hr>166</ns3:hr>
            <ns3:cad>88</ns3:cad>
          </ns3:TrackPointExtension>
        </extensions>
      </trkpt>
      <trkpt lat="42.6181058585643768310546875" lon="2.76115187443792819976806640625">
        <ele>120.8000030517578125</ele>
        <time>2023-08-19T18:09:22.000Z</time>
        <extensions>
          <ns3:TrackPointExtension>
            <ns3:hr>167</ns3:hr>
            <ns3:cad>88</ns3:cad>
          </ns3:TrackPointExtension>
        </extensions>
      </trkpt>
      <trkpt lat="42.618120275437831878662109375" lon="2.7611797861754894256591796875">
        <ele>120.8000030517578125</ele>
        <time>2023-08-19T18:09:23.000Z</time>
        <extensions>
          <ns3:TrackPointExtension>
            <ns3:hr>166</ns3:hr>
            <ns3:cad>88</ns3:cad>
          </ns3:TrackPointExtension>
        </extensions>
      </trkpt>
      <trkpt lat="42.61813427321612834930419921875" lon="2.7612119726836681365966796875">
        <ele>120.59999847412109375</ele>
        <time>2023-08-19T18:09:24.000Z</time>
        <extensions>
          <ns3:TrackPointExtension>
            <ns3:hr>165</ns3:hr>
            <ns3:cad>87</ns3:cad>
          </ns3:TrackPointExtension>
        </extensions>
      </trkpt>
      <trkpt lat="42.61815086938440799713134765625" lon="2.7612443268299102783203125">
        <ele>120.59999847412109375</ele>
        <time>2023-08-19T18:09:25.000Z</time>
        <extensions>
          <ns3:TrackPointExtension>
            <ns3:hr>165</ns3:hr>
            <ns3:cad>87</ns3:cad>
          </ns3:TrackPointExtension>
        </extensions>
      </trkpt>
      <trkpt lat="42.61817249469459056854248046875" lon="2.76128598488867282867431640625">
        <ele>120.8000030517578125</ele>
        <time>2023-08-19T18:09:26.000Z</time>
        <extensions>
          <ns3:TrackPointExtension>
            <ns3:hr>166</ns3:hr>
            <ns3:cad>87</ns3:cad>
          </ns3:TrackPointExtension>
        </extensions>
      </trkpt>
      <trkpt lat="42.6181905157864093780517578125" lon="2.76132219471037387847900390625">
        <ele>120.8000030517578125</ele>
        <time>2023-08-19T18:09:27.000Z</time>
        <extensions>
          <ns3:TrackPointExtension>
            <ns3:hr>167</ns3:hr>
            <ns3:cad>87</ns3:cad>
          </ns3:TrackPointExtension>
        </extensions>
      </trkpt>
      <trkpt lat="42.618211805820465087890625" lon="2.761355303227901458740234375">
        <ele>120.59999847412109375</ele>
        <time>2023-08-19T18:09:28.000Z</time>
        <extensions>
          <ns3:TrackPointExtension>
            <ns3:hr>167</ns3:hr>
            <ns3:cad>86</ns3:cad>
          </ns3:TrackPointExtension>
        </extensions>
      </trkpt>
      <trkpt lat="42.61823393404483795166015625" lon="2.7613906748592853546142578125">
        <ele>120.59999847412109375</ele>
        <time>2023-08-19T18:09:29.000Z</time>
        <extensions>
          <ns3:TrackPointExtension>
            <ns3:hr>167</ns3:hr>
            <ns3:cad>86</ns3:cad>
          </ns3:TrackPointExtension>
        </extensions>
      </trkpt>
      <trkpt lat="42.618256397545337677001953125" lon="2.7614171616733074188232421875">
        <ele>120.59999847412109375</ele>
        <time>2023-08-19T18:09:30.000Z</time>
        <extensions>
          <ns3:TrackPointExtension>
            <ns3:hr>167</ns3:hr>
            <ns3:cad>86</ns3:cad>
          </ns3:TrackPointExtension>
        </extensions>
      </trkpt>
      <trkpt lat="42.61827710084617137908935546875" lon="2.76144859381020069122314453125">
        <ele>120.59999847412109375</ele>
        <time>2023-08-19T18:09:31.000Z</time>
        <extensions>
          <ns3:TrackPointExtension>
            <ns3:hr>167</ns3:hr>
            <ns3:cad>86</ns3:cad>
          </ns3:TrackPointExtension>
        </extensions>
      </trkpt>
      <trkpt lat="42.618298642337322235107421875" lon="2.76147340424358844757080078125">
        <ele>120.40000152587890625</ele>
        <time>2023-08-19T18:09:32.000Z</time>
        <extensions>
          <ns3:TrackPointExtension>
            <ns3:hr>166</ns3:hr>
            <ns3:cad>86</ns3:cad>
          </ns3:TrackPointExtension>
        </extensions>
      </trkpt>
      <trkpt lat="42.6183204352855682373046875" lon="2.761507518589496612548828125">
        <ele>120.1999969482421875</ele>
        <time>2023-08-19T18:09:33.000Z</time>
        <extensions>
          <ns3:TrackPointExtension>
            <ns3:hr>165</ns3:hr>
            <ns3:cad>86</ns3:cad>
          </ns3:TrackPointExtension>
        </extensions>
      </trkpt>
      <trkpt lat="42.6183380372822284698486328125" lon="2.7615405432879924774169921875">
        <ele>119.8000030517578125</ele>
        <time>2023-08-19T18:09:34.000Z</time>
        <extensions>
          <ns3:TrackPointExtension>
            <ns3:hr>164</ns3:hr>
            <ns3:cad>86</ns3:cad>
          </ns3:TrackPointExtension>
        </extensions>
      </trkpt>
      <trkpt lat="42.61835857294499874114990234375" lon="2.76157164014875888824462890625">
        <ele>119.59999847412109375</ele>
        <time>2023-08-19T18:09:35.000Z</time>
        <extensions>
          <ns3:TrackPointExtension>
            <ns3:hr>164</ns3:hr>
            <ns3:cad>86</ns3:cad>
          </ns3:TrackPointExtension>
        </extensions>
      </trkpt>
      <trkpt lat="42.61837868951261043548583984375" lon="2.76160432957112789154052734375">
        <ele>119.59999847412109375</ele>
        <time>2023-08-19T18:09:36.000Z</time>
        <extensions>
          <ns3:TrackPointExtension>
            <ns3:hr>164</ns3:hr>
            <ns3:cad>86</ns3:cad>
          </ns3:TrackPointExtension>
        </extensions>
      </trkpt>
      <trkpt lat="42.61839981190860271453857421875" lon="2.76163165457546710968017578125">
        <ele>119.40000152587890625</ele>
        <time>2023-08-19T18:09:37.000Z</time>
        <extensions>
          <ns3:TrackPointExtension>
            <ns3:hr>164</ns3:hr>
            <ns3:cad>85</ns3:cad>
          </ns3:TrackPointExtension>
        </extensions>
      </trkpt>
      <trkpt lat="42.6184225268661975860595703125" lon="2.761664092540740966796875">
        <ele>119.40000152587890625</ele>
        <time>2023-08-19T18:09:38.000Z</time>
        <extensions>
          <ns3:TrackPointExtension>
            <ns3:hr>164</ns3:hr>
            <ns3:cad>85</ns3:cad>
          </ns3:TrackPointExtension>
        </extensions>
      </trkpt>
      <trkpt lat="42.61844289489090442657470703125" lon="2.76168756186962127685546875">
        <ele>119.40000152587890625</ele>
        <time>2023-08-19T18:09:39.000Z</time>
        <extensions>
          <ns3:TrackPointExtension>
            <ns3:hr>163</ns3:hr>
            <ns3:cad>85</ns3:cad>
          </ns3:TrackPointExtension>
        </extensions>
      </trkpt>
      <trkpt lat="42.61846535839140415191650390625" lon="2.76171949692070484161376953125">
        <ele>119</ele>
        <time>2023-08-19T18:09:40.000Z</time>
        <extensions>
          <ns3:TrackPointExtension>
            <ns3:hr>163</ns3:hr>
            <ns3:cad>86</ns3:cad>
          </ns3:TrackPointExtension>
        </extensions>
      </trkpt>
      <trkpt lat="42.61848379857838153839111328125" lon="2.7617490850389003753662109375">
        <ele>118.8000030517578125</ele>
        <time>2023-08-19T18:09:41.000Z</time>
        <extensions>
          <ns3:TrackPointExtension>
            <ns3:hr>163</ns3:hr>
            <ns3:cad>86</ns3:cad>
          </ns3:TrackPointExtension>
        </extensions>
      </trkpt>
      <trkpt lat="42.61850617825984954833984375" lon="2.7617809362709522247314453125">
        <ele>118.59999847412109375</ele>
        <time>2023-08-19T18:09:42.000Z</time>
        <extensions>
          <ns3:TrackPointExtension>
            <ns3:hr>162</ns3:hr>
            <ns3:cad>86</ns3:cad>
          </ns3:TrackPointExtension>
        </extensions>
      </trkpt>
      <trkpt lat="42.61852604337036609649658203125" lon="2.76181605644524097442626953125">
        <ele>118.59999847412109375</ele>
        <time>2023-08-19T18:09:43.000Z</time>
        <extensions>
          <ns3:TrackPointExtension>
            <ns3:hr>163</ns3:hr>
            <ns3:cad>85</ns3:cad>
          </ns3:TrackPointExtension>
        </extensions>
      </trkpt>
      <trkpt lat="42.618546746671199798583984375" lon="2.76184271089732646942138671875">
        <ele>118.40000152587890625</ele>
        <time>2023-08-19T18:09:44.000Z</time>
        <extensions>
          <ns3:TrackPointExtension>
            <ns3:hr>161</ns3:hr>
            <ns3:cad>85</ns3:cad>
          </ns3:TrackPointExtension>
        </extensions>
      </trkpt>
      <trkpt lat="42.6185707189142704010009765625" lon="2.7618724666535854339599609375">
        <ele>117.8000030517578125</ele>
        <time>2023-08-19T18:09:45.000Z</time>
        <extensions>
          <ns3:TrackPointExtension>
            <ns3:hr>162</ns3:hr>
            <ns3:cad>85</ns3:cad>
          </ns3:TrackPointExtension>
        </extensions>
      </trkpt>
      <trkpt lat="42.6185905002057552337646484375" lon="2.76189451105892658233642578125">
        <ele>117.8000030517578125</ele>
        <time>2023-08-19T18:09:46.000Z</time>
        <extensions>
          <ns3:TrackPointExtension>
            <ns3:hr>163</ns3:hr>
            <ns3:cad>85</ns3:cad>
          </ns3:TrackPointExtension>
        </extensions>
      </trkpt>
      <trkpt lat="42.61861003004014492034912109375" lon="2.76192233897745609283447265625">
        <ele>117.8000030517578125</ele>
        <time>2023-08-19T18:09:47.000Z</time>
        <extensions>
          <ns3:TrackPointExtension>
            <ns3:hr>163</ns3:hr>
            <ns3:cad>85</ns3:cad>
          </ns3:TrackPointExtension>
        </extensions>
      </trkpt>
      <trkpt lat="42.61862880550324916839599609375" lon="2.76195234619081020355224609375">
        <ele>117.59999847412109375</ele>
        <time>2023-08-19T18:09:48.000Z</time>
        <extensions>
          <ns3:TrackPointExtension>
            <ns3:hr>163</ns3:hr>
            <ns3:cad>85</ns3:cad>
          </ns3:TrackPointExtension>
        </extensions>
      </trkpt>
      <trkpt lat="42.618651352822780609130859375" lon="2.76197883300483226776123046875">
        <ele>117.59999847412109375</ele>
        <time>2023-08-19T18:09:49.000Z</time>
        <extensions>
          <ns3:TrackPointExtension>
            <ns3:hr>163</ns3:hr>
            <ns3:cad>85</ns3:cad>
          </ns3:TrackPointExtension>
        </extensions>
      </trkpt>
      <trkpt lat="42.618673145771026611328125" lon="2.76201202534139156341552734375">
        <ele>117.40000152587890625</ele>
        <time>2023-08-19T18:09:50.000Z</time>
        <extensions>
          <ns3:TrackPointExtension>
            <ns3:hr>162</ns3:hr>
            <ns3:cad>85</ns3:cad>
          </ns3:TrackPointExtension>
        </extensions>
      </trkpt>
      <trkpt lat="42.61869728565216064453125" lon="2.7620354108512401580810546875">
        <ele>117.1999969482421875</ele>
        <time>2023-08-19T18:09:51.000Z</time>
        <extensions>
          <ns3:TrackPointExtension>
            <ns3:hr>162</ns3:hr>
            <ns3:cad>86</ns3:cad>
          </ns3:TrackPointExtension>
        </extensions>
      </trkpt>
      <trkpt lat="42.61871941387653350830078125" lon="2.7620709501206874847412109375">
        <ele>117</ele>
        <time>2023-08-19T18:09:52.000Z</time>
        <extensions>
          <ns3:TrackPointExtension>
            <ns3:hr>163</ns3:hr>
            <ns3:cad>86</ns3:cad>
          </ns3:TrackPointExtension>
        </extensions>
      </trkpt>
      <trkpt lat="42.6187430508434772491455078125" lon="2.76209617964923381805419921875">
        <ele>116.8000030517578125</ele>
        <time>2023-08-19T18:09:53.000Z</time>
        <extensions>
          <ns3:TrackPointExtension>
            <ns3:hr>163</ns3:hr>
            <ns3:cad>86</ns3:cad>
          </ns3:TrackPointExtension>
        </extensions>
      </trkpt>
      <trkpt lat="42.61876501142978668212890625" lon="2.76213255710899829864501953125">
        <ele>116.8000030517578125</ele>
        <time>2023-08-19T18:09:54.000Z</time>
        <extensions>
          <ns3:TrackPointExtension>
            <ns3:hr>163</ns3:hr>
            <ns3:cad>87</ns3:cad>
          </ns3:TrackPointExtension>
        </extensions>
      </trkpt>
      <trkpt lat="42.618785463273525238037109375" lon="2.7621651627123355865478515625">
        <ele>116.59999847412109375</ele>
        <time>2023-08-19T18:09:55.000Z</time>
        <extensions>
          <ns3:TrackPointExtension>
            <ns3:hr>163</ns3:hr>
            <ns3:cad>86</ns3:cad>
          </ns3:TrackPointExtension>
        </extensions>
      </trkpt>
      <trkpt lat="42.61880717240273952484130859375" lon="2.7621993608772754669189453125">
        <ele>116.40000152587890625</ele>
        <time>2023-08-19T18:09:56.000Z</time>
        <extensions>
          <ns3:TrackPointExtension>
            <ns3:hr>162</ns3:hr>
            <ns3:cad>86</ns3:cad>
          </ns3:TrackPointExtension>
        </extensions>
      </trkpt>
      <trkpt lat="42.61882938444614410400390625" lon="2.76223230175673961639404296875">
        <ele>116.40000152587890625</ele>
        <time>2023-08-19T18:09:57.000Z</time>
        <extensions>
          <ns3:TrackPointExtension>
            <ns3:hr>164</ns3:hr>
            <ns3:cad>86</ns3:cad>
          </ns3:TrackPointExtension>
        </extensions>
      </trkpt>
      <trkpt lat="42.6188563741743564605712890625" lon="2.76226113550364971160888671875">
        <ele>116.40000152587890625</ele>
        <time>2023-08-19T18:09:58.000Z</time>
        <extensions>
          <ns3:TrackPointExtension>
            <ns3:hr>164</ns3:hr>
            <ns3:cad>87</ns3:cad>
          </ns3:TrackPointExtension>
        </extensions>
      </trkpt>
      <trkpt lat="42.6188815198838710784912109375" lon="2.76228410191833972930908203125">
        <ele>116.40000152587890625</ele>
        <time>2023-08-19T18:09:59.000Z</time>
        <extensions>
          <ns3:TrackPointExtension>
            <ns3:hr>164</ns3:hr>
            <ns3:cad>87</ns3:cad>
          </ns3:TrackPointExtension>
        </extensions>
      </trkpt>
      <trkpt lat="42.61890741996467113494873046875" lon="2.76230514049530029296875">
        <ele>116.40000152587890625</ele>
        <time>2023-08-19T18:10:00.000Z</time>
        <extensions>
          <ns3:TrackPointExtension>
            <ns3:hr>164</ns3:hr>
            <ns3:cad>87</ns3:cad>
          </ns3:TrackPointExtension>
        </extensions>
      </trkpt>
      <trkpt lat="42.61893306858837604522705078125" lon="2.76232969947159290313720703125">
        <ele>116.40000152587890625</ele>
        <time>2023-08-19T18:10:01.000Z</time>
        <extensions>
          <ns3:TrackPointExtension>
            <ns3:hr>164</ns3:hr>
            <ns3:cad>87</ns3:cad>
          </ns3:TrackPointExtension>
        </extensions>
      </trkpt>
      <trkpt lat="42.61895771138370037078857421875" lon="2.762355096638202667236328125">
        <ele>116.1999969482421875</ele>
        <time>2023-08-19T18:10:02.000Z</time>
        <extensions>
          <ns3:TrackPointExtension>
            <ns3:hr>164</ns3:hr>
            <ns3:cad>86</ns3:cad>
          </ns3:TrackPointExtension>
        </extensions>
      </trkpt>
      <trkpt lat="42.61897816322743892669677734375" lon="2.76238359510898590087890625">
        <ele>116.1999969482421875</ele>
        <time>2023-08-19T18:10:03.000Z</time>
        <extensions>
          <ns3:TrackPointExtension>
            <ns3:hr>164</ns3:hr>
            <ns3:cad>86</ns3:cad>
          </ns3:TrackPointExtension>
        </extensions>
      </trkpt>
      <trkpt lat="42.61900045908987522125244140625" lon="2.7624082379043102264404296875">
        <ele>115.8000030517578125</ele>
        <time>2023-08-19T18:10:04.000Z</time>
        <extensions>
          <ns3:TrackPointExtension>
            <ns3:hr>164</ns3:hr>
            <ns3:cad>86</ns3:cad>
          </ns3:TrackPointExtension>
        </extensions>
      </trkpt>
      <trkpt lat="42.6190297119319438934326171875" lon="2.76243858039379119873046875">
        <ele>115.8000030517578125</ele>
        <time>2023-08-19T18:10:05.000Z</time>
        <extensions>
          <ns3:TrackPointExtension>
            <ns3:hr>164</ns3:hr>
            <ns3:cad>87</ns3:cad>
          </ns3:TrackPointExtension>
        </extensions>
      </trkpt>
      <trkpt lat="42.61905393563210964202880859375" lon="2.7624692581593990325927734375">
        <ele>115.59999847412109375</ele>
        <time>2023-08-19T18:10:06.000Z</time>
        <extensions>
          <ns3:TrackPointExtension>
            <ns3:hr>164</ns3:hr>
            <ns3:cad>87</ns3:cad>
          </ns3:TrackPointExtension>
        </extensions>
      </trkpt>
      <trkpt lat="42.619078159332275390625" lon="2.76249566115438938140869140625">
        <ele>115.40000152587890625</ele>
        <time>2023-08-19T18:10:07.000Z</time>
        <extensions>
          <ns3:TrackPointExtension>
            <ns3:hr>163</ns3:hr>
            <ns3:cad>86</ns3:cad>
          </ns3:TrackPointExtension>
        </extensions>
      </trkpt>
      <trkpt lat="42.61910456232726573944091796875" lon="2.7625319547951221466064453125">
        <ele>115.40000152587890625</ele>
        <time>2023-08-19T18:10:08.000Z</time>
        <extensions>
          <ns3:TrackPointExtension>
            <ns3:hr>163</ns3:hr>
            <ns3:cad>86</ns3:cad>
          </ns3:TrackPointExtension>
        </extensions>
      </trkpt>
      <trkpt lat="42.61912669055163860321044921875" lon="2.762562967836856842041015625">
        <ele>115.1999969482421875</ele>
        <time>2023-08-19T18:10:09.000Z</time>
        <extensions>
          <ns3:TrackPointExtension>
            <ns3:hr>163</ns3:hr>
            <ns3:cad>85</ns3:cad>
          </ns3:TrackPointExtension>
        </extensions>
      </trkpt>
      <trkpt lat="42.61915150098502635955810546875" lon="2.76259808801114559173583984375">
        <ele>115</ele>
        <time>2023-08-19T18:10:10.000Z</time>
        <extensions>
          <ns3:TrackPointExtension>
            <ns3:hr>163</ns3:hr>
            <ns3:cad>86</ns3:cad>
          </ns3:TrackPointExtension>
        </extensions>
      </trkpt>
      <trkpt lat="42.619167678058147430419921875" lon="2.7626335434615612030029296875">
        <ele>114.8000030517578125</ele>
        <time>2023-08-19T18:10:11.000Z</time>
        <extensions>
          <ns3:TrackPointExtension>
            <ns3:hr>164</ns3:hr>
            <ns3:cad>86</ns3:cad>
          </ns3:TrackPointExtension>
        </extensions>
      </trkpt>
      <trkpt lat="42.61918620206415653228759765625" lon="2.76266983710229396820068359375">
        <ele>114.59999847412109375</ele>
        <time>2023-08-19T18:10:12.000Z</time>
        <extensions>
          <ns3:TrackPointExtension>
            <ns3:hr>164</ns3:hr>
            <ns3:cad>86</ns3:cad>
          </ns3:TrackPointExtension>
        </extensions>
      </trkpt>
      <trkpt lat="42.61920087039470672607421875" lon="2.76270956732332706451416015625">
        <ele>114.40000152587890625</ele>
        <time>2023-08-19T18:10:13.000Z</time>
        <extensions>
          <ns3:TrackPointExtension>
            <ns3:hr>164</ns3:hr>
            <ns3:cad>85</ns3:cad>
          </ns3:TrackPointExtension>
        </extensions>
      </trkpt>
      <trkpt lat="42.61921654455363750457763671875" lon="2.76274644769728183746337890625">
        <ele>114.40000152587890625</ele>
        <time>2023-08-19T18:10:14.000Z</time>
        <extensions>
          <ns3:TrackPointExtension>
            <ns3:hr>165</ns3:hr>
            <ns3:cad>85</ns3:cad>
          </ns3:TrackPointExtension>
        </extensions>
      </trkpt>
      <trkpt lat="42.619235403835773468017578125" lon="2.76278886012732982635498046875">
        <ele>114.1999969482421875</ele>
        <time>2023-08-19T18:10:15.000Z</time>
        <extensions>
          <ns3:TrackPointExtension>
            <ns3:hr>166</ns3:hr>
            <ns3:cad>85</ns3:cad>
          </ns3:TrackPointExtension>
        </extensions>
      </trkpt>
      <trkpt lat="42.61925074271857738494873046875" lon="2.76282423175871372222900390625">
        <ele>114</ele>
        <time>2023-08-19T18:10:16.000Z</time>
        <extensions>
          <ns3:TrackPointExtension>
            <ns3:hr>166</ns3:hr>
            <ns3:cad>85</ns3:cad>
          </ns3:TrackPointExtension>
        </extensions>
      </trkpt>
      <trkpt lat="42.61926549486815929412841796875" lon="2.7628635428845882415771484375">
        <ele>113.8000030517578125</ele>
        <time>2023-08-19T18:10:17.000Z</time>
        <extensions>
          <ns3:TrackPointExtension>
            <ns3:hr>165</ns3:hr>
            <ns3:cad>85</ns3:cad>
          </ns3:TrackPointExtension>
        </extensions>
      </trkpt>
      <trkpt lat="42.61928058229386806488037109375" lon="2.7629041112959384918212890625">
        <ele>113.59999847412109375</ele>
        <time>2023-08-19T18:10:18.000Z</time>
        <extensions>
          <ns3:TrackPointExtension>
            <ns3:hr>164</ns3:hr>
            <ns3:cad>85</ns3:cad>
          </ns3:TrackPointExtension>
        </extensions>
      </trkpt>
      <trkpt lat="42.619295418262481689453125" lon="2.76293906383216381072998046875">
        <ele>113.40000152587890625</ele>
        <time>2023-08-19T18:10:19.000Z</time>
        <extensions>
          <ns3:TrackPointExtension>
            <ns3:hr>164</ns3:hr>
            <ns3:cad>85</ns3:cad>
          </ns3:TrackPointExtension>
        </extensions>
      </trkpt>
      <trkpt lat="42.6193074882030487060546875" lon="2.7629802189767360687255859375">
        <ele>113.1999969482421875</ele>
        <time>2023-08-19T18:10:20.000Z</time>
        <extensions>
          <ns3:TrackPointExtension>
            <ns3:hr>164</ns3:hr>
            <ns3:cad>85</ns3:cad>
          </ns3:TrackPointExtension>
        </extensions>
      </trkpt>
      <trkpt lat="42.61931846849620342254638671875" lon="2.76301031000912189483642578125">
        <ele>113</ele>
        <time>2023-08-19T18:10:21.000Z</time>
        <extensions>
          <ns3:TrackPointExtension>
            <ns3:hr>164</ns3:hr>
            <ns3:cad>85</ns3:cad>
          </ns3:TrackPointExtension>
        </extensions>
      </trkpt>
      <trkpt lat="42.61933405883610248565673828125" lon="2.7630466036498546600341796875">
        <ele>112.59999847412109375</ele>
        <time>2023-08-19T18:10:22.000Z</time>
        <extensions>
          <ns3:TrackPointExtension>
            <ns3:hr>163</ns3:hr>
            <ns3:cad>85</ns3:cad>
          </ns3:TrackPointExtension>
        </extensions>
      </trkpt>
      <trkpt lat="42.61934763751924037933349609375" lon="2.763081304728984832763671875">
        <ele>112.40000152587890625</ele>
        <time>2023-08-19T18:10:23.000Z</time>
        <extensions>
          <ns3:TrackPointExtension>
            <ns3:hr>163</ns3:hr>
            <ns3:cad>85</ns3:cad>
          </ns3:TrackPointExtension>
        </extensions>
      </trkpt>
      <trkpt lat="42.6193609647452831268310546875" lon="2.7631176821887493133544921875">
        <ele>112.1999969482421875</ele>
        <time>2023-08-19T18:10:24.000Z</time>
        <extensions>
          <ns3:TrackPointExtension>
            <ns3:hr>163</ns3:hr>
            <ns3:cad>85</ns3:cad>
          </ns3:TrackPointExtension>
        </extensions>
      </trkpt>
      <trkpt lat="42.61937714181840419769287109375" lon="2.76315565221011638641357421875">
        <ele>112</ele>
        <time>2023-08-19T18:10:25.000Z</time>
        <extensions>
          <ns3:TrackPointExtension>
            <ns3:hr>163</ns3:hr>
            <ns3:cad>85</ns3:cad>
          </ns3:TrackPointExtension>
        </extensions>
      </trkpt>
      <trkpt lat="42.61939004994928836822509765625" lon="2.76318616233766078948974609375">
        <ele>112</ele>
        <time>2023-08-19T18:10:26.000Z</time>
        <extensions>
          <ns3:TrackPointExtension>
            <ns3:hr>162</ns3:hr>
            <ns3:cad>85</ns3:cad>
          </ns3:TrackPointExtension>
        </extensions>
      </trkpt>
      <trkpt lat="42.619399689137935638427734375" lon="2.76322371326386928558349609375">
        <ele>111.59999847412109375</ele>
        <time>2023-08-19T18:10:27.000Z</time>
        <extensions>
          <ns3:TrackPointExtension>
            <ns3:hr>161</ns3:hr>
            <ns3:cad>85</ns3:cad>
          </ns3:TrackPointExtension>
        </extensions>
      </trkpt>
      <trkpt lat="42.61940337717533111572265625" lon="2.76325791142880916595458984375">
        <ele>111.59999847412109375</ele>
        <time>2023-08-19T18:10:28.000Z</time>
        <extensions>
          <ns3:TrackPointExtension>
            <ns3:hr>161</ns3:hr>
            <ns3:cad>85</ns3:cad>
          </ns3:TrackPointExtension>
        </extensions>
      </trkpt>
      <trkpt lat="42.619394324719905853271484375" lon="2.7633014135062694549560546875">
        <ele>111.40000152587890625</ele>
        <time>2023-08-19T18:10:29.000Z</time>
        <extensions>
          <ns3:TrackPointExtension>
            <ns3:hr>162</ns3:hr>
            <ns3:cad>85</ns3:cad>
          </ns3:TrackPointExtension>
        </extensions>
      </trkpt>
      <trkpt lat="42.61937923729419708251953125" lon="2.763336785137653350830078125">
        <ele>111.1999969482421875</ele>
        <time>2023-08-19T18:10:30.000Z</time>
        <extensions>
          <ns3:TrackPointExtension>
            <ns3:hr>162</ns3:hr>
            <ns3:cad>86</ns3:cad>
          </ns3:TrackPointExtension>
        </extensions>
      </trkpt>
      <trkpt lat="42.61936004273593425750732421875" lon="2.76336922310292720794677734375">
        <ele>111</ele>
        <time>2023-08-19T18:10:31.000Z</time>
        <extensions>
          <ns3:TrackPointExtension>
            <ns3:hr>161</ns3:hr>
            <ns3:cad>86</ns3:cad>
          </ns3:TrackPointExtension>
        </extensions>
      </trkpt>
      <trkpt lat="42.619332633912563323974609375" lon="2.763387076556682586669921875">
        <ele>110.8000030517578125</ele>
        <time>2023-08-19T18:10:32.000Z</time>
        <extensions>
          <ns3:TrackPointExtension>
            <ns3:hr>161</ns3:hr>
            <ns3:cad>86</ns3:cad>
          </ns3:TrackPointExtension>
        </extensions>
      </trkpt>
      <trkpt lat="42.619306147098541259765625" lon="2.76340375654399394989013671875">
        <ele>110.8000030517578125</ele>
        <time>2023-08-19T18:10:33.000Z</time>
        <extensions>
          <ns3:TrackPointExtension>
            <ns3:hr>161</ns3:hr>
            <ns3:cad>85</ns3:cad>
          </ns3:TrackPointExtension>
        </extensions>
      </trkpt>
      <trkpt lat="42.61927873827517032623291015625" lon="2.7634056843817234039306640625">
        <ele>110.59999847412109375</ele>
        <time>2023-08-19T18:10:34.000Z</time>
        <extensions>
          <ns3:TrackPointExtension>
            <ns3:hr>161</ns3:hr>
            <ns3:cad>85</ns3:cad>
          </ns3:TrackPointExtension>
        </extensions>
      </trkpt>
      <trkpt lat="42.6192523352801799774169921875" lon="2.763412892818450927734375">
        <ele>110.59999847412109375</ele>
        <time>2023-08-19T18:10:35.000Z</time>
        <extensions>
          <ns3:TrackPointExtension>
            <ns3:hr>160</ns3:hr>
            <ns3:cad>85</ns3:cad>
          </ns3:TrackPointExtension>
        </extensions>
      </trkpt>
      <trkpt lat="42.61922174133360385894775390625" lon="2.76342186145484447479248046875">
        <ele>110.40000152587890625</ele>
        <time>2023-08-19T18:10:36.000Z</time>
        <extensions>
          <ns3:TrackPointExtension>
            <ns3:hr>160</ns3:hr>
            <ns3:cad>86</ns3:cad>
          </ns3:TrackPointExtension>
        </extensions>
      </trkpt>
      <trkpt lat="42.61919542215764522552490234375" lon="2.76342965662479400634765625">
        <ele>110.1999969482421875</ele>
        <time>2023-08-19T18:10:37.000Z</time>
        <extensions>
          <ns3:TrackPointExtension>
            <ns3:hr>161</ns3:hr>
            <ns3:cad>86</ns3:cad>
          </ns3:TrackPointExtension>
        </extensions>
      </trkpt>
      <trkpt lat="42.61916960589587688446044921875" lon="2.76344097219407558441162109375">
        <ele>110.1999969482421875</ele>
        <time>2023-08-19T18:10:38.000Z</time>
        <extensions>
          <ns3:TrackPointExtension>
            <ns3:hr>161</ns3:hr>
            <ns3:cad>86</ns3:cad>
          </ns3:TrackPointExtension>
        </extensions>
      </trkpt>
      <trkpt lat="42.619145549833774566650390625" lon="2.76344776153564453125">
        <ele>110</ele>
        <time>2023-08-19T18:10:39.000Z</time>
        <extensions>
          <ns3:TrackPointExtension>
            <ns3:hr>160</ns3:hr>
            <ns3:cad>86</ns3:cad>
          </ns3:TrackPointExtension>
        </extensions>
      </trkpt>
      <trkpt lat="42.61912048794329166412353515625" lon="2.76345740072429180145263671875">
        <ele>110</ele>
        <time>2023-08-19T18:10:40.000Z</time>
        <extensions>
          <ns3:TrackPointExtension>
            <ns3:hr>161</ns3:hr>
            <ns3:cad>85</ns3:cad>
          </ns3:TrackPointExtension>
        </extensions>
      </trkpt>
      <trkpt lat="42.6190887205302715301513671875" lon="2.7634717337787151336669921875">
        <ele>110</ele>
        <time>2023-08-19T18:10:41.000Z</time>
        <extensions>
          <ns3:TrackPointExtension>
            <ns3:hr>162</ns3:hr>
            <ns3:cad>85</ns3:cad>
          </ns3:TrackPointExtension>
        </extensions>
      </trkpt>
      <trkpt lat="42.61906131170690059661865234375" lon="2.76348338462412357330322265625">
        <ele>109.8000030517578125</ele>
        <time>2023-08-19T18:10:42.000Z</time>
        <extensions>
          <ns3:TrackPointExtension>
            <ns3:hr>161</ns3:hr>
            <ns3:cad>86</ns3:cad>
          </ns3:TrackPointExtension>
        </extensions>
      </trkpt>
      <trkpt lat="42.6190280355513095855712890625" lon="2.76349394582211971282958984375">
        <ele>109.8000030517578125</ele>
        <time>2023-08-19T18:10:43.000Z</time>
        <extensions>
          <ns3:TrackPointExtension>
            <ns3:hr>161</ns3:hr>
            <ns3:cad>86</ns3:cad>
          </ns3:TrackPointExtension>
        </extensions>
      </trkpt>
      <trkpt lat="42.61900163255631923675537109375" lon="2.76350744068622589111328125">
        <ele>109.8000030517578125</ele>
        <time>2023-08-19T18:10:44.000Z</time>
        <extensions>
          <ns3:TrackPointExtension>
            <ns3:hr>161</ns3:hr>
            <ns3:cad>85</ns3:cad>
          </ns3:TrackPointExtension>
        </extensions>
      </trkpt>
      <trkpt lat="42.61897556483745574951171875" lon="2.76352948509156703948974609375">
        <ele>109.8000030517578125</ele>
        <time>2023-08-19T18:10:45.000Z</time>
        <extensions>
          <ns3:TrackPointExtension>
            <ns3:hr>160</ns3:hr>
            <ns3:cad>85</ns3:cad>
          </ns3:TrackPointExtension>
        </extensions>
      </trkpt>
      <trkpt lat="42.61895050294697284698486328125" lon="2.76355572044849395751953125">
        <ele>109.8000030517578125</ele>
        <time>2023-08-19T18:10:46.000Z</time>
        <extensions>
          <ns3:TrackPointExtension>
            <ns3:hr>160</ns3:hr>
            <ns3:cad>86</ns3:cad>
          </ns3:TrackPointExtension>
        </extensions>
      </trkpt>
      <trkpt lat="42.6189311407506465911865234375" lon="2.763582877814769744873046875">
        <ele>109.8000030517578125</ele>
        <time>2023-08-19T18:10:47.000Z</time>
        <extensions>
          <ns3:TrackPointExtension>
            <ns3:hr>161</ns3:hr>
            <ns3:cad>86</ns3:cad>
          </ns3:TrackPointExtension>
        </extensions>
      </trkpt>
      <trkpt lat="42.618906497955322265625" lon="2.7636256255209445953369140625">
        <ele>109.8000030517578125</ele>
        <time>2023-08-19T18:10:48.000Z</time>
        <extensions>
          <ns3:TrackPointExtension>
            <ns3:hr>162</ns3:hr>
            <ns3:cad>85</ns3:cad>
          </ns3:TrackPointExtension>
        </extensions>
      </trkpt>
      <trkpt lat="42.61888797394931316375732421875" lon="2.7636594884097576141357421875">
        <ele>109.8000030517578125</ele>
        <time>2023-08-19T18:10:49.000Z</time>
        <extensions>
          <ns3:TrackPointExtension>
            <ns3:hr>162</ns3:hr>
            <ns3:cad>85</ns3:cad>
          </ns3:TrackPointExtension>
        </extensions>
      </trkpt>
      <trkpt lat="42.6188667677342891693115234375" lon="2.763698212802410125732421875">
        <ele>109.8000030517578125</ele>
        <time>2023-08-19T18:10:50.000Z</time>
        <extensions>
          <ns3:TrackPointExtension>
            <ns3:hr>162</ns3:hr>
            <ns3:cad>85</ns3:cad>
          </ns3:TrackPointExtension>
        </extensions>
      </trkpt>
      <trkpt lat="42.61884815990924835205078125" lon="2.7637319080531597137451171875">
        <ele>109.8000030517578125</ele>
        <time>2023-08-19T18:10:51.000Z</time>
        <extensions>
          <ns3:TrackPointExtension>
            <ns3:hr>161</ns3:hr>
            <ns3:cad>86</ns3:cad>
          </ns3:TrackPointExtension>
        </extensions>
      </trkpt>
      <trkpt lat="42.6188312284648418426513671875" lon="2.7637677825987339019775390625">
        <ele>109.8000030517578125</ele>
        <time>2023-08-19T18:10:52.000Z</time>
        <extensions>
          <ns3:TrackPointExtension>
            <ns3:hr>161</ns3:hr>
            <ns3:cad>86</ns3:cad>
          </ns3:TrackPointExtension>
        </extensions>
      </trkpt>
      <trkpt lat="42.618810944259166717529296875" lon="2.76380424387753009796142578125">
        <ele>109.8000030517578125</ele>
        <time>2023-08-19T18:10:53.000Z</time>
        <extensions>
          <ns3:TrackPointExtension>
            <ns3:hr>162</ns3:hr>
            <ns3:cad>86</ns3:cad>
          </ns3:TrackPointExtension>
        </extensions>
      </trkpt>
      <trkpt lat="42.61879409663379192352294921875" lon="2.76383240707218647003173828125">
        <ele>109.59999847412109375</ele>
        <time>2023-08-19T18:10:54.000Z</time>
        <extensions>
          <ns3:TrackPointExtension>
            <ns3:hr>163</ns3:hr>
            <ns3:cad>85</ns3:cad>
          </ns3:TrackPointExtension>
        </extensions>
      </trkpt>
      <trkpt lat="42.61877347715198993682861328125" lon="2.76387088000774383544921875">
        <ele>109.59999847412109375</ele>
        <time>2023-08-19T18:10:55.000Z</time>
        <extensions>
          <ns3:TrackPointExtension>
            <ns3:hr>163</ns3:hr>
            <ns3:cad>86</ns3:cad>
          </ns3:TrackPointExtension>
        </extensions>
      </trkpt>
      <trkpt lat="42.61875621043145656585693359375" lon="2.76390566490590572357177734375">
        <ele>109.40000152587890625</ele>
        <time>2023-08-19T18:10:56.000Z</time>
        <extensions>
          <ns3:TrackPointExtension>
            <ns3:hr>163</ns3:hr>
            <ns3:cad>86</ns3:cad>
          </ns3:TrackPointExtension>
        </extensions>
      </trkpt>
      <trkpt lat="42.6187410391867160797119140625" lon="2.7639411203563213348388671875">
        <ele>109.40000152587890625</ele>
        <time>2023-08-19T18:10:57.000Z</time>
        <extensions>
          <ns3:TrackPointExtension>
            <ns3:hr>162</ns3:hr>
            <ns3:cad>86</ns3:cad>
          </ns3:TrackPointExtension>
        </extensions>
      </trkpt>
      <trkpt lat="42.6187266223132610321044921875" lon="2.7639763243496417999267578125">
        <ele>109.40000152587890625</ele>
        <time>2023-08-19T18:10:58.000Z</time>
        <extensions>
          <ns3:TrackPointExtension>
            <ns3:hr>161</ns3:hr>
            <ns3:cad>85</ns3:cad>
          </ns3:TrackPointExtension>
        </extensions>
      </trkpt>
      <trkpt lat="42.61871748603880405426025390625" lon="2.7640118636190891265869140625">
        <ele>109.40000152587890625</ele>
        <time>2023-08-19T18:10:59.000Z</time>
        <extensions>
          <ns3:TrackPointExtension>
            <ns3:hr>161</ns3:hr>
            <ns3:cad>85</ns3:cad>
          </ns3:TrackPointExtension>
        </extensions>
      </trkpt>
      <trkpt lat="42.618703655898571014404296875" lon="2.76405285112559795379638671875">
        <ele>109.40000152587890625</ele>
        <time>2023-08-19T18:11:00.000Z</time>
        <extensions>
          <ns3:TrackPointExtension>
            <ns3:hr>162</ns3:hr>
            <ns3:cad>85</ns3:cad>
          </ns3:TrackPointExtension>
        </extensions>
      </trkpt>
      <trkpt lat="42.61869586072862148284912109375" lon="2.7640862949192523956298828125">
        <ele>109.40000152587890625</ele>
        <time>2023-08-19T18:11:01.000Z</time>
        <extensions>
          <ns3:TrackPointExtension>
            <ns3:hr>163</ns3:hr>
            <ns3:cad>85</ns3:cad>
          </ns3:TrackPointExtension>
        </extensions>
      </trkpt>
      <trkpt lat="42.61868010275065898895263671875" lon="2.7641223371028900146484375">
        <ele>109.1999969482421875</ele>
        <time>2023-08-19T18:11:02.000Z</time>
        <extensions>
          <ns3:TrackPointExtension>
            <ns3:hr>163</ns3:hr>
            <ns3:cad>85</ns3:cad>
          </ns3:TrackPointExtension>
        </extensions>
      </trkpt>
      <trkpt lat="42.61866350658237934112548828125" lon="2.7641530148684978485107421875">
        <ele>109</ele>
        <time>2023-08-19T18:11:03.000Z</time>
        <extensions>
          <ns3:TrackPointExtension>
            <ns3:hr>163</ns3:hr>
            <ns3:cad>85</ns3:cad>
          </ns3:TrackPointExtension>
        </extensions>
      </trkpt>
      <trkpt lat="42.61864623986184597015380859375" lon="2.76418327353894710540771484375">
        <ele>109</ele>
        <time>2023-08-19T18:11:04.000Z</time>
        <extensions>
          <ns3:TrackPointExtension>
            <ns3:hr>163</ns3:hr>
            <ns3:cad>85</ns3:cad>
          </ns3:TrackPointExtension>
        </extensions>
      </trkpt>
      <trkpt lat="42.61861975304782390594482421875" lon="2.76420825161039829254150390625">
        <ele>109</ele>
        <time>2023-08-19T18:11:05.000Z</time>
        <extensions>
          <ns3:TrackPointExtension>
            <ns3:hr>163</ns3:hr>
            <ns3:cad>85</ns3:cad>
          </ns3:TrackPointExtension>
        </extensions>
      </trkpt>
      <trkpt lat="42.61859695427119731903076171875" lon="2.76423624716699123382568359375">
        <ele>109</ele>
        <time>2023-08-19T18:11:06.000Z</time>
        <extensions>
          <ns3:TrackPointExtension>
            <ns3:hr>163</ns3:hr>
            <ns3:cad>85</ns3:cad>
          </ns3:TrackPointExtension>
        </extensions>
      </trkpt>
      <trkpt lat="42.61857231147587299346923828125" lon="2.76426373980939388275146484375">
        <ele>108.8000030517578125</ele>
        <time>2023-08-19T18:11:07.000Z</time>
        <extensions>
          <ns3:TrackPointExtension>
            <ns3:hr>162</ns3:hr>
            <ns3:cad>85</ns3:cad>
          </ns3:TrackPointExtension>
        </extensions>
      </trkpt>
      <trkpt lat="42.6185499317944049835205078125" lon="2.76428586803376674652099609375">
        <ele>108.8000030517578125</ele>
        <time>2023-08-19T18:11:08.000Z</time>
        <extensions>
          <ns3:TrackPointExtension>
            <ns3:hr>163</ns3:hr>
            <ns3:cad>86</ns3:cad>
          </ns3:TrackPointExtension>
        </extensions>
      </trkpt>
      <trkpt lat="42.6185278035700321197509765625" lon="2.76431143283843994140625">
        <ele>108.8000030517578125</ele>
        <time>2023-08-19T18:11:09.000Z</time>
        <extensions>
          <ns3:TrackPointExtension>
            <ns3:hr>164</ns3:hr>
            <ns3:cad>86</ns3:cad>
          </ns3:TrackPointExtension>
        </extensions>
      </trkpt>
      <trkpt lat="42.618504501879215240478515625" lon="2.76433490216732025146484375">
        <ele>109</ele>
        <time>2023-08-19T18:11:10.000Z</time>
        <extensions>
          <ns3:TrackPointExtension>
            <ns3:hr>165</ns3:hr>
            <ns3:cad>85</ns3:cad>
          </ns3:TrackPointExtension>
        </extensions>
      </trkpt>
      <trkpt lat="42.61848731897771358489990234375" lon="2.764356024563312530517578125">
        <ele>109</ele>
        <time>2023-08-19T18:11:11.000Z</time>
        <extensions>
          <ns3:TrackPointExtension>
            <ns3:hr>166</ns3:hr>
            <ns3:cad>85</ns3:cad>
          </ns3:TrackPointExtension>
        </extensions>
      </trkpt>
      <trkpt lat="42.61846996843814849853515625" lon="2.76437186636030673980712890625">
        <ele>109.1999969482421875</ele>
        <time>2023-08-19T18:11:12.000Z</time>
        <extensions>
          <ns3:TrackPointExtension>
            <ns3:hr>166</ns3:hr>
            <ns3:cad>85</ns3:cad>
          </ns3:TrackPointExtension>
        </extensions>
      </trkpt>
      <trkpt lat="42.61845043860375881195068359375" lon="2.76438586413860321044921875">
        <ele>109.1999969482421875</ele>
        <time>2023-08-19T18:11:13.000Z</time>
        <extensions>
          <ns3:TrackPointExtension>
            <ns3:hr>166</ns3:hr>
            <ns3:cad>84</ns3:cad>
          </ns3:TrackPointExtension>
        </extensions>
      </trkpt>
      <trkpt lat="42.61843032203614711761474609375" lon="2.76440254412591457366943359375">
        <ele>109.1999969482421875</ele>
        <time>2023-08-19T18:11:14.000Z</time>
        <extensions>
          <ns3:TrackPointExtension>
            <ns3:hr>166</ns3:hr>
            <ns3:cad>84</ns3:cad>
          </ns3:TrackPointExtension>
        </extensions>
      </trkpt>
      <trkpt lat="42.61840919964015483856201171875" lon="2.76442098431289196014404296875">
        <ele>109.40000152587890625</ele>
        <time>2023-08-19T18:11:15.000Z</time>
        <extensions>
          <ns3:TrackPointExtension>
            <ns3:hr>166</ns3:hr>
            <ns3:cad>84</ns3:cad>
          </ns3:TrackPointExtension>
        </extensions>
      </trkpt>
      <trkpt lat="42.6183893345296382904052734375" lon="2.764439843595027923583984375">
        <ele>109.40000152587890625</ele>
        <time>2023-08-19T18:11:16.000Z</time>
        <extensions>
          <ns3:TrackPointExtension>
            <ns3:hr>167</ns3:hr>
            <ns3:cad>84</ns3:cad>
          </ns3:TrackPointExtension>
        </extensions>
      </trkpt>
      <trkpt lat="42.6183651946485042572021484375" lon="2.76445669122040271759033203125">
        <ele>109.40000152587890625</ele>
        <time>2023-08-19T18:11:17.000Z</time>
        <extensions>
          <ns3:TrackPointExtension>
            <ns3:hr>166</ns3:hr>
            <ns3:cad>84</ns3:cad>
          </ns3:TrackPointExtension>
        </extensions>
      </trkpt>
      <trkpt lat="42.61834390461444854736328125" lon="2.76446809060871601104736328125">
        <ele>109.8000030517578125</ele>
        <time>2023-08-19T18:11:18.000Z</time>
        <extensions>
          <ns3:TrackPointExtension>
            <ns3:hr>166</ns3:hr>
            <ns3:cad>84</ns3:cad>
          </ns3:TrackPointExtension>
        </extensions>
      </trkpt>
      <trkpt lat="42.61832110583782196044921875" lon="2.76448309421539306640625">
        <ele>109.8000030517578125</ele>
        <time>2023-08-19T18:11:19.000Z</time>
        <extensions>
          <ns3:TrackPointExtension>
            <ns3:hr>166</ns3:hr>
            <ns3:cad>83</ns3:cad>
          </ns3:TrackPointExtension>
        </extensions>
      </trkpt>
      <trkpt lat="42.61829839088022708892822265625" lon="2.7644966728985309600830078125">
        <ele>110</ele>
        <time>2023-08-19T18:11:20.000Z</time>
        <extensions>
          <ns3:TrackPointExtension>
            <ns3:hr>166</ns3:hr>
            <ns3:cad>83</ns3:cad>
          </ns3:TrackPointExtension>
        </extensions>
      </trkpt>
      <trkpt lat="42.61827928014099597930908203125" lon="2.76451016776263713836669921875">
        <ele>110</ele>
        <time>2023-08-19T18:11:21.000Z</time>
        <extensions>
          <ns3:TrackPointExtension>
            <ns3:hr>166</ns3:hr>
            <ns3:cad>83</ns3:cad>
          </ns3:TrackPointExtension>
        </extensions>
      </trkpt>
      <trkpt lat="42.6182533800601959228515625" lon="2.76452810503542423248291015625">
        <ele>110.1999969482421875</ele>
        <time>2023-08-19T18:11:22.000Z</time>
        <extensions>
          <ns3:TrackPointExtension>
            <ns3:hr>168</ns3:hr>
            <ns3:cad>83</ns3:cad>
          </ns3:TrackPointExtension>
        </extensions>
      </trkpt>
      <trkpt lat="42.618231587111949920654296875" lon="2.7645432762801647186279296875">
        <ele>110.59999847412109375</ele>
        <time>2023-08-19T18:11:23.000Z</time>
        <extensions>
          <ns3:TrackPointExtension>
            <ns3:hr>167</ns3:hr>
            <ns3:cad>83</ns3:cad>
          </ns3:TrackPointExtension>
        </extensions>
      </trkpt>
      <trkpt lat="42.61821188963949680328369140625" lon="2.7645622193813323974609375">
        <ele>110.8000030517578125</ele>
        <time>2023-08-19T18:11:24.000Z</time>
        <extensions>
          <ns3:TrackPointExtension>
            <ns3:hr>165</ns3:hr>
            <ns3:cad>83</ns3:cad>
          </ns3:TrackPointExtension>
        </extensions>
      </trkpt>
      <trkpt lat="42.61818691156804561614990234375" lon="2.7645801566541194915771484375">
        <ele>110.8000030517578125</ele>
        <time>2023-08-19T18:11:25.000Z</time>
        <extensions>
          <ns3:TrackPointExtension>
            <ns3:hr>165</ns3:hr>
            <ns3:cad>83</ns3:cad>
          </ns3:TrackPointExtension>
        </extensions>
      </trkpt>
      <trkpt lat="42.61816243641078472137451171875" lon="2.7645979262888431549072265625">
        <ele>111</ele>
        <time>2023-08-19T18:11:26.000Z</time>
        <extensions>
          <ns3:TrackPointExtension>
            <ns3:hr>166</ns3:hr>
            <ns3:cad>83</ns3:cad>
          </ns3:TrackPointExtension>
        </extensions>
      </trkpt>
      <trkpt lat="42.618137709796428680419921875" lon="2.76462567038834095001220703125">
        <ele>111</ele>
        <time>2023-08-19T18:11:27.000Z</time>
        <extensions>
          <ns3:TrackPointExtension>
            <ns3:hr>165</ns3:hr>
            <ns3:cad>83</ns3:cad>
          </ns3:TrackPointExtension>
        </extensions>
      </trkpt>
      <trkpt lat="42.618118263781070709228515625" lon="2.76466213166713714599609375">
        <ele>111.1999969482421875</ele>
        <time>2023-08-19T18:11:28.000Z</time>
        <extensions>
          <ns3:TrackPointExtension>
            <ns3:hr>165</ns3:hr>
            <ns3:cad>83</ns3:cad>
          </ns3:TrackPointExtension>
        </extensions>
      </trkpt>
      <trkpt lat="42.61811281554400920867919921875" lon="2.76469306088984012603759765625">
        <ele>111.1999969482421875</ele>
        <time>2023-08-19T18:11:29.000Z</time>
        <extensions>
          <ns3:TrackPointExtension>
            <ns3:hr>166</ns3:hr>
            <ns3:cad>83</ns3:cad>
          </ns3:TrackPointExtension>
        </extensions>
      </trkpt>
      <trkpt lat="42.61811147443950176239013671875" lon="2.76473664678633213043212890625">
        <ele>111.1999969482421875</ele>
        <time>2023-08-19T18:11:30.000Z</time>
        <extensions>
          <ns3:TrackPointExtension>
            <ns3:hr>165</ns3:hr>
            <ns3:cad>83</ns3:cad>
          </ns3:TrackPointExtension>
        </extensions>
      </trkpt>
      <trkpt lat="42.6181137375533580780029296875" lon="2.764773778617382049560546875">
        <ele>111.1999969482421875</ele>
        <time>2023-08-19T18:11:31.000Z</time>
        <extensions>
          <ns3:TrackPointExtension>
            <ns3:hr>165</ns3:hr>
            <ns3:cad>83</ns3:cad>
          </ns3:TrackPointExtension>
        </extensions>
      </trkpt>
      <trkpt lat="42.6181284897029399871826171875" lon="2.76481392793357372283935546875">
        <ele>111.1999969482421875</ele>
        <time>2023-08-19T18:11:32.000Z</time>
        <extensions>
          <ns3:TrackPointExtension>
            <ns3:hr>166</ns3:hr>
            <ns3:cad>83</ns3:cad>
          </ns3:TrackPointExtension>
        </extensions>
      </trkpt>
      <trkpt lat="42.61813762597739696502685546875" lon="2.764854244887828826904296875">
        <ele>111</ele>
        <time>2023-08-19T18:11:33.000Z</time>
        <extensions>
          <ns3:TrackPointExtension>
            <ns3:hr>165</ns3:hr>
            <ns3:cad>84</ns3:cad>
          </ns3:TrackPointExtension>
        </extensions>
      </trkpt>
      <trkpt lat="42.6181489415466785430908203125" lon="2.764890454709529876708984375">
        <ele>110.8000030517578125</ele>
        <time>2023-08-19T18:11:34.000Z</time>
        <extensions>
          <ns3:TrackPointExtension>
            <ns3:hr>165</ns3:hr>
            <ns3:cad>84</ns3:cad>
          </ns3:TrackPointExtension>
        </extensions>
      </trkpt>
      <trkpt lat="42.61815673671662807464599609375" lon="2.76493378914892673492431640625">
        <ele>110.59999847412109375</ele>
        <time>2023-08-19T18:11:35.000Z</time>
        <extensions>
          <ns3:TrackPointExtension>
            <ns3:hr>165</ns3:hr>
            <ns3:cad>84</ns3:cad>
          </ns3:TrackPointExtension>
        </extensions>
      </trkpt>
      <trkpt lat="42.6181640289723873138427734375" lon="2.76496765203773975372314453125">
        <ele>110.59999847412109375</ele>
        <time>2023-08-19T18:11:36.000Z</time>
        <extensions>
          <ns3:TrackPointExtension>
            <ns3:hr>164</ns3:hr>
            <ns3:cad>84</ns3:cad>
          </ns3:TrackPointExtension>
        </extensions>
      </trkpt>
      <trkpt lat="42.61817232705652713775634765625" lon="2.76500654406845569610595703125">
        <ele>110.40000152587890625</ele>
        <time>2023-08-19T18:11:37.000Z</time>
        <extensions>
          <ns3:TrackPointExtension>
            <ns3:hr>164</ns3:hr>
            <ns3:cad>84</ns3:cad>
          </ns3:TrackPointExtension>
        </extensions>
      </trkpt>
      <trkpt lat="42.6181774400174617767333984375" lon="2.76505029760301113128662109375">
        <ele>110.1999969482421875</ele>
        <time>2023-08-19T18:11:38.000Z</time>
        <extensions>
          <ns3:TrackPointExtension>
            <ns3:hr>165</ns3:hr>
            <ns3:cad>84</ns3:cad>
          </ns3:TrackPointExtension>
        </extensions>
      </trkpt>
      <trkpt lat="42.6181863248348236083984375" lon="2.7650914527475833892822265625">
        <ele>110.1999969482421875</ele>
        <time>2023-08-19T18:11:39.000Z</time>
        <extensions>
          <ns3:TrackPointExtension>
            <ns3:hr>165</ns3:hr>
            <ns3:cad>85</ns3:cad>
          </ns3:TrackPointExtension>
        </extensions>
      </trkpt>
      <trkpt lat="42.61819194070994853973388671875" lon="2.76513244025409221649169921875">
        <ele>110</ele>
        <time>2023-08-19T18:11:40.000Z</time>
        <extensions>
          <ns3:TrackPointExtension>
            <ns3:hr>166</ns3:hr>
            <ns3:cad>84</ns3:cad>
          </ns3:TrackPointExtension>
        </extensions>
      </trkpt>
      <trkpt lat="42.618198730051517486572265625" lon="2.76516982354223728179931640625">
        <ele>110</ele>
        <time>2023-08-19T18:11:41.000Z</time>
        <extensions>
          <ns3:TrackPointExtension>
            <ns3:hr>167</ns3:hr>
            <ns3:cad>84</ns3:cad>
          </ns3:TrackPointExtension>
        </extensions>
      </trkpt>
      <trkpt lat="42.618207447230815887451171875" lon="2.76521123014390468597412109375">
        <ele>110</ele>
        <time>2023-08-19T18:11:42.000Z</time>
        <extensions>
          <ns3:TrackPointExtension>
            <ns3:hr>167</ns3:hr>
            <ns3:cad>84</ns3:cad>
          </ns3:TrackPointExtension>
        </extensions>
      </trkpt>
      <trkpt lat="42.61821339838206768035888671875" lon="2.7652507089078426361083984375">
        <ele>110</ele>
        <time>2023-08-19T18:11:43.000Z</time>
        <extensions>
          <ns3:TrackPointExtension>
            <ns3:hr>167</ns3:hr>
            <ns3:cad>85</ns3:cad>
          </ns3:TrackPointExtension>
        </extensions>
      </trkpt>
      <trkpt lat="42.61822362430393695831298828125" lon="2.76529102586209774017333984375">
        <ele>109.8000030517578125</ele>
        <time>2023-08-19T18:11:44.000Z</time>
        <extensions>
          <ns3:TrackPointExtension>
            <ns3:hr>168</ns3:hr>
            <ns3:cad>85</ns3:cad>
          </ns3:TrackPointExtension>
        </extensions>
      </trkpt>
      <trkpt lat="42.618233598768711090087890625" lon="2.76533645577728748321533203125">
        <ele>109.8000030517578125</ele>
        <time>2023-08-19T18:11:45.000Z</time>
        <extensions>
          <ns3:TrackPointExtension>
            <ns3:hr>168</ns3:hr>
            <ns3:cad>85</ns3:cad>
          </ns3:TrackPointExtension>
        </extensions>
      </trkpt>
      <trkpt lat="42.61824734508991241455078125" lon="2.76537484489381313323974609375">
        <ele>109.59999847412109375</ele>
        <time>2023-08-19T18:11:46.000Z</time>
        <extensions>
          <ns3:TrackPointExtension>
            <ns3:hr>167</ns3:hr>
            <ns3:cad>85</ns3:cad>
          </ns3:TrackPointExtension>
        </extensions>
      </trkpt>
      <trkpt lat="42.618261091411113739013671875" lon="2.76541423983871936798095703125">
        <ele>109.59999847412109375</ele>
        <time>2023-08-19T18:11:47.000Z</time>
        <extensions>
          <ns3:TrackPointExtension>
            <ns3:hr>169</ns3:hr>
            <ns3:cad>85</ns3:cad>
          </ns3:TrackPointExtension>
        </extensions>
      </trkpt>
      <trkpt lat="42.61827592737972736358642578125" lon="2.76545028202235698699951171875">
        <ele>109.59999847412109375</ele>
        <time>2023-08-19T18:11:48.000Z</time>
        <extensions>
          <ns3:TrackPointExtension>
            <ns3:hr>167</ns3:hr>
            <ns3:cad>85</ns3:cad>
          </ns3:TrackPointExtension>
        </extensions>
      </trkpt>
      <trkpt lat="42.6182937808334827423095703125" lon="2.76547995395958423614501953125">
        <ele>109.40000152587890625</ele>
        <time>2023-08-19T18:11:49.000Z</time>
        <extensions>
          <ns3:TrackPointExtension>
            <ns3:hr>167</ns3:hr>
            <ns3:cad>84</ns3:cad>
          </ns3:TrackPointExtension>
        </extensions>
      </trkpt>
      <trkpt lat="42.61831305921077728271484375" lon="2.76550970971584320068359375">
        <ele>109.40000152587890625</ele>
        <time>2023-08-19T18:11:50.000Z</time>
        <extensions>
          <ns3:TrackPointExtension>
            <ns3:hr>167</ns3:hr>
            <ns3:cad>85</ns3:cad>
          </ns3:TrackPointExtension>
        </extensions>
      </trkpt>
      <trkpt lat="42.61833175085484981536865234375" lon="2.765537537634372711181640625">
        <ele>109.1999969482421875</ele>
        <time>2023-08-19T18:11:51.000Z</time>
        <extensions>
          <ns3:TrackPointExtension>
            <ns3:hr>167</ns3:hr>
            <ns3:cad>85</ns3:cad>
          </ns3:TrackPointExtension>
        </extensions>
      </trkpt>
      <trkpt lat="42.618352286517620086669921875" lon="2.765568383038043975830078125">
        <ele>109</ele>
        <time>2023-08-19T18:11:52.000Z</time>
        <extensions>
          <ns3:TrackPointExtension>
            <ns3:hr>167</ns3:hr>
            <ns3:cad>85</ns3:cad>
          </ns3:TrackPointExtension>
        </extensions>
      </trkpt>
      <trkpt lat="42.61837282218039035797119140625" lon="2.76559017598628997802734375">
        <ele>109</ele>
        <time>2023-08-19T18:11:53.000Z</time>
        <extensions>
          <ns3:TrackPointExtension>
            <ns3:hr>166</ns3:hr>
            <ns3:cad>85</ns3:cad>
          </ns3:TrackPointExtension>
        </extensions>
      </trkpt>
      <trkpt lat="42.6183953694999217987060546875" lon="2.7656131424009799957275390625">
        <ele>109</ele>
        <time>2023-08-19T18:11:54.000Z</time>
        <extensions>
          <ns3:TrackPointExtension>
            <ns3:hr>166</ns3:hr>
            <ns3:cad>85</ns3:cad>
          </ns3:TrackPointExtension>
        </extensions>
      </trkpt>
      <trkpt lat="42.61841523461043834686279296875" lon="2.76563468389213085174560546875">
        <ele>109</ele>
        <time>2023-08-19T18:11:55.000Z</time>
        <extensions>
          <ns3:TrackPointExtension>
            <ns3:hr>166</ns3:hr>
            <ns3:cad>85</ns3:cad>
          </ns3:TrackPointExtension>
        </extensions>
      </trkpt>
      <trkpt lat="42.61843518353998661041259765625" lon="2.7656523697078227996826171875">
        <ele>109</ele>
        <time>2023-08-19T18:11:56.000Z</time>
        <extensions>
          <ns3:TrackPointExtension>
            <ns3:hr>166</ns3:hr>
            <ns3:cad>85</ns3:cad>
          </ns3:TrackPointExtension>
        </extensions>
      </trkpt>
      <trkpt lat="42.6184587366878986358642578125" lon="2.7656744979321956634521484375">
        <ele>109</ele>
        <time>2023-08-19T18:11:57.000Z</time>
        <extensions>
          <ns3:TrackPointExtension>
            <ns3:hr>166</ns3:hr>
            <ns3:cad>84</ns3:cad>
          </ns3:TrackPointExtension>
        </extensions>
      </trkpt>
      <trkpt lat="42.61848078109323978424072265625" lon="2.76569201610982418060302734375">
        <ele>109.1999969482421875</ele>
        <time>2023-08-19T18:11:58.000Z</time>
        <extensions>
          <ns3:TrackPointExtension>
            <ns3:hr>166</ns3:hr>
            <ns3:cad>84</ns3:cad>
          </ns3:TrackPointExtension>
        </extensions>
      </trkpt>
      <trkpt lat="42.6185056753456592559814453125" lon="2.76571766473352909088134765625">
        <ele>109.1999969482421875</ele>
        <time>2023-08-19T18:11:59.000Z</time>
        <extensions>
          <ns3:TrackPointExtension>
            <ns3:hr>166</ns3:hr>
            <ns3:cad>84</ns3:cad>
          </ns3:TrackPointExtension>
        </extensions>
      </trkpt>
      <trkpt lat="42.61852486990392208099365234375" lon="2.76573996059596538543701171875">
        <ele>109.1999969482421875</ele>
        <time>2023-08-19T18:12:00.000Z</time>
        <extensions>
          <ns3:TrackPointExtension>
            <ns3:hr>166</ns3:hr>
            <ns3:cad>84</ns3:cad>
          </ns3:TrackPointExtension>
        </extensions>
      </trkpt>
      <trkpt lat="42.6185438968241214752197265625" lon="2.7657586522400379180908203125">
        <ele>109.40000152587890625</ele>
        <time>2023-08-19T18:12:01.000Z</time>
        <extensions>
          <ns3:TrackPointExtension>
            <ns3:hr>165</ns3:hr>
            <ns3:cad>84</ns3:cad>
          </ns3:TrackPointExtension>
        </extensions>
      </trkpt>
      <trkpt lat="42.61856912635266780853271484375" lon="2.76578304357826709747314453125">
        <ele>109.40000152587890625</ele>
        <time>2023-08-19T18:12:02.000Z</time>
        <extensions>
          <ns3:TrackPointExtension>
            <ns3:hr>166</ns3:hr>
            <ns3:cad>84</ns3:cad>
          </ns3:TrackPointExtension>
        </extensions>
      </trkpt>
      <trkpt lat="42.61859343387186527252197265625" lon="2.76580215431749820709228515625">
        <ele>109.40000152587890625</ele>
        <time>2023-08-19T18:12:03.000Z</time>
        <extensions>
          <ns3:TrackPointExtension>
            <ns3:hr>166</ns3:hr>
            <ns3:cad>84</ns3:cad>
          </ns3:TrackPointExtension>
        </extensions>
      </trkpt>
      <trkpt lat="42.61861673556268215179443359375" lon="2.76582428254187107086181640625">
        <ele>109.40000152587890625</ele>
        <time>2023-08-19T18:12:04.000Z</time>
        <extensions>
          <ns3:TrackPointExtension>
            <ns3:hr>166</ns3:hr>
            <ns3:cad>83</ns3:cad>
          </ns3:TrackPointExtension>
        </extensions>
      </trkpt>
      <trkpt lat="42.61863919906318187713623046875" lon="2.765848338603973388671875">
        <ele>109.40000152587890625</ele>
        <time>2023-08-19T18:12:05.000Z</time>
        <extensions>
          <ns3:TrackPointExtension>
            <ns3:hr>166</ns3:hr>
            <ns3:cad>83</ns3:cad>
          </ns3:TrackPointExtension>
        </extensions>
      </trkpt>
      <trkpt lat="42.6186583936214447021484375" lon="2.7658713050186634063720703125">
        <ele>109.40000152587890625</ele>
        <time>2023-08-19T18:12:06.000Z</time>
        <extensions>
          <ns3:TrackPointExtension>
            <ns3:hr>166</ns3:hr>
            <ns3:cad>83</ns3:cad>
          </ns3:TrackPointExtension>
        </extensions>
      </trkpt>
      <trkpt lat="42.61867440305650234222412109375" lon="2.76589955203235149383544921875">
        <ele>109.59999847412109375</ele>
        <time>2023-08-19T18:12:07.000Z</time>
        <extensions>
          <ns3:TrackPointExtension>
            <ns3:hr>166</ns3:hr>
            <ns3:cad>83</ns3:cad>
          </ns3:TrackPointExtension>
        </extensions>
      </trkpt>
      <trkpt lat="42.61868982575833797454833984375" lon="2.7659219317138195037841796875">
        <ele>109.59999847412109375</ele>
        <time>2023-08-19T18:12:08.000Z</time>
        <extensions>
          <ns3:TrackPointExtension>
            <ns3:hr>166</ns3:hr>
            <ns3:cad>84</ns3:cad>
          </ns3:TrackPointExtension>
        </extensions>
      </trkpt>
      <trkpt lat="42.6187095232307910919189453125" lon="2.765941880643367767333984375">
        <ele>109.59999847412109375</ele>
        <time>2023-08-19T18:12:09.000Z</time>
        <extensions>
          <ns3:TrackPointExtension>
            <ns3:hr>166</ns3:hr>
            <ns3:cad>83</ns3:cad>
          </ns3:TrackPointExtension>
        </extensions>
      </trkpt>
      <trkpt lat="42.61872855015099048614501953125" lon="2.76597063057124614715576171875">
        <ele>109.8000030517578125</ele>
        <time>2023-08-19T18:12:10.000Z</time>
        <extensions>
          <ns3:TrackPointExtension>
            <ns3:hr>166</ns3:hr>
            <ns3:cad>83</ns3:cad>
          </ns3:TrackPointExtension>
        </extensions>
      </trkpt>
      <trkpt lat="42.6187430508434772491455078125" lon="2.7659963630139827728271484375">
        <ele>109.8000030517578125</ele>
        <time>2023-08-19T18:12:11.000Z</time>
        <extensions>
          <ns3:TrackPointExtension>
            <ns3:hr>166</ns3:hr>
            <ns3:cad>83</ns3:cad>
          </ns3:TrackPointExtension>
        </extensions>
      </trkpt>
      <trkpt lat="42.61876140721142292022705078125" lon="2.7660298906266689300537109375">
        <ele>109.8000030517578125</ele>
        <time>2023-08-19T18:12:12.000Z</time>
        <extensions>
          <ns3:TrackPointExtension>
            <ns3:hr>166</ns3:hr>
            <ns3:cad>83</ns3:cad>
          </ns3:TrackPointExtension>
        </extensions>
      </trkpt>
      <trkpt lat="42.61877750046551227569580078125" lon="2.76606216095387935638427734375">
        <ele>110</ele>
        <time>2023-08-19T18:12:13.000Z</time>
        <extensions>
          <ns3:TrackPointExtension>
            <ns3:hr>166</ns3:hr>
            <ns3:cad>83</ns3:cad>
          </ns3:TrackPointExtension>
        </extensions>
      </trkpt>
      <trkpt lat="42.61879493482410907745361328125" lon="2.76608948595821857452392578125">
        <ele>110.1999969482421875</ele>
        <time>2023-08-19T18:12:14.000Z</time>
        <extensions>
          <ns3:TrackPointExtension>
            <ns3:hr>166</ns3:hr>
            <ns3:cad>83</ns3:cad>
          </ns3:TrackPointExtension>
        </extensions>
      </trkpt>
      <trkpt lat="42.6188121177256107330322265625" lon="2.76612083427608013153076171875">
        <ele>110.40000152587890625</ele>
        <time>2023-08-19T18:12:15.000Z</time>
        <extensions>
          <ns3:TrackPointExtension>
            <ns3:hr>166</ns3:hr>
            <ns3:cad>83</ns3:cad>
          </ns3:TrackPointExtension>
        </extensions>
      </trkpt>
      <trkpt lat="42.61882997117936611175537109375" lon="2.76614530943334102630615234375">
        <ele>110.59999847412109375</ele>
        <time>2023-08-19T18:12:16.000Z</time>
        <extensions>
          <ns3:TrackPointExtension>
            <ns3:hr>166</ns3:hr>
            <ns3:cad>83</ns3:cad>
          </ns3:TrackPointExtension>
        </extensions>
      </trkpt>
      <trkpt lat="42.6188486628234386444091796875" lon="2.76617749594151973724365234375">
        <ele>110.59999847412109375</ele>
        <time>2023-08-19T18:12:17.000Z</time>
        <extensions>
          <ns3:TrackPointExtension>
            <ns3:hr>166</ns3:hr>
            <ns3:cad>83</ns3:cad>
          </ns3:TrackPointExtension>
        </extensions>
      </trkpt>
      <trkpt lat="42.6188640855252742767333984375" lon="2.76621068827807903289794921875">
        <ele>110.59999847412109375</ele>
        <time>2023-08-19T18:12:18.000Z</time>
        <extensions>
          <ns3:TrackPointExtension>
            <ns3:hr>166</ns3:hr>
            <ns3:cad>83</ns3:cad>
          </ns3:TrackPointExtension>
        </extensions>
      </trkpt>
      <trkpt lat="42.618878670036792755126953125" lon="2.76623952202498912811279296875">
        <ele>110.59999847412109375</ele>
        <time>2023-08-19T18:12:19.000Z</time>
        <extensions>
          <ns3:TrackPointExtension>
            <ns3:hr>165</ns3:hr>
            <ns3:cad>84</ns3:cad>
          </ns3:TrackPointExtension>
        </extensions>
      </trkpt>
      <trkpt lat="42.61889518238604068756103515625" lon="2.7662773244082927703857421875">
        <ele>110.8000030517578125</ele>
        <time>2023-08-19T18:12:20.000Z</time>
        <extensions>
          <ns3:TrackPointExtension>
            <ns3:hr>165</ns3:hr>
            <ns3:cad>84</ns3:cad>
          </ns3:TrackPointExtension>
        </extensions>
      </trkpt>
      <trkpt lat="42.61891110800206661224365234375" lon="2.76630632579326629638671875">
        <ele>111</ele>
        <time>2023-08-19T18:12:21.000Z</time>
        <extensions>
          <ns3:TrackPointExtension>
            <ns3:hr>165</ns3:hr>
            <ns3:cad>83</ns3:cad>
          </ns3:TrackPointExtension>
        </extensions>
      </trkpt>
      <trkpt lat="42.61892904527485370635986328125" lon="2.7663440443575382232666015625">
        <ele>111</ele>
        <time>2023-08-19T18:12:22.000Z</time>
        <extensions>
          <ns3:TrackPointExtension>
            <ns3:hr>165</ns3:hr>
            <ns3:cad>84</ns3:cad>
          </ns3:TrackPointExtension>
        </extensions>
      </trkpt>
      <trkpt lat="42.6189408637583255767822265625" lon="2.76638486422598361968994140625">
        <ele>111</ele>
        <time>2023-08-19T18:12:23.000Z</time>
        <extensions>
          <ns3:TrackPointExtension>
            <ns3:hr>165</ns3:hr>
            <ns3:cad>84</ns3:cad>
          </ns3:TrackPointExtension>
        </extensions>
      </trkpt>
      <trkpt lat="42.618959136307239532470703125" lon="2.76641436852514743804931640625">
        <ele>111</ele>
        <time>2023-08-19T18:12:24.000Z</time>
        <extensions>
          <ns3:TrackPointExtension>
            <ns3:hr>164</ns3:hr>
            <ns3:cad>84</ns3:cad>
          </ns3:TrackPointExtension>
        </extensions>
      </trkpt>
      <trkpt lat="42.6189740560948848724365234375" lon="2.76645108126103878021240234375">
        <ele>111</ele>
        <time>2023-08-19T18:12:25.000Z</time>
        <extensions>
          <ns3:TrackPointExtension>
            <ns3:hr>164</ns3:hr>
            <ns3:cad>84</ns3:cad>
          </ns3:TrackPointExtension>
        </extensions>
      </trkpt>
      <trkpt lat="42.6189901493489742279052734375" lon="2.7664798311889171600341796875">
        <ele>111</ele>
        <time>2023-08-19T18:12:26.000Z</time>
        <extensions>
          <ns3:TrackPointExtension>
            <ns3:hr>164</ns3:hr>
            <ns3:cad>84</ns3:cad>
          </ns3:TrackPointExtension>
        </extensions>
      </trkpt>
      <trkpt lat="42.619006745517253875732421875" lon="2.7665170468389987945556640625">
        <ele>110.8000030517578125</ele>
        <time>2023-08-19T18:12:27.000Z</time>
        <extensions>
          <ns3:TrackPointExtension>
            <ns3:hr>163</ns3:hr>
            <ns3:cad>84</ns3:cad>
          </ns3:TrackPointExtension>
        </extensions>
      </trkpt>
      <trkpt lat="42.619016468524932861328125" lon="2.76655174791812896728515625">
        <ele>110.8000030517578125</ele>
        <time>2023-08-19T18:12:28.000Z</time>
        <extensions>
          <ns3:TrackPointExtension>
            <ns3:hr>164</ns3:hr>
            <ns3:cad>84</ns3:cad>
          </ns3:TrackPointExtension>
        </extensions>
      </trkpt>
      <trkpt lat="42.6190293766558170318603515625" lon="2.7665887959301471710205078125">
        <ele>110.8000030517578125</ele>
        <time>2023-08-19T18:12:29.000Z</time>
        <extensions>
          <ns3:TrackPointExtension>
            <ns3:hr>163</ns3:hr>
            <ns3:cad>84</ns3:cad>
          </ns3:TrackPointExtension>
        </extensions>
      </trkpt>
      <trkpt lat="42.619039602577686309814453125" lon="2.766628526151180267333984375">
        <ele>110.59999847412109375</ele>
        <time>2023-08-19T18:12:30.000Z</time>
        <extensions>
          <ns3:TrackPointExtension>
            <ns3:hr>162</ns3:hr>
            <ns3:cad>84</ns3:cad>
          </ns3:TrackPointExtension>
        </extensions>
      </trkpt>
      <trkpt lat="42.61905242688953876495361328125" lon="2.76666481979191303253173828125">
        <ele>110.59999847412109375</ele>
        <time>2023-08-19T18:12:31.000Z</time>
        <extensions>
          <ns3:TrackPointExtension>
            <ns3:hr>163</ns3:hr>
            <ns3:cad>84</ns3:cad>
          </ns3:TrackPointExtension>
        </extensions>
      </trkpt>
      <trkpt lat="42.61906634084880352020263671875" lon="2.7667048014700412750244140625">
        <ele>110.59999847412109375</ele>
        <time>2023-08-19T18:12:32.000Z</time>
        <extensions>
          <ns3:TrackPointExtension>
            <ns3:hr>168</ns3:hr>
            <ns3:cad>83</ns3:cad>
          </ns3:TrackPointExtension>
        </extensions>
      </trkpt>
      <trkpt lat="42.61907891370356082916259765625" lon="2.76674143038690090179443359375">
        <ele>110.40000152587890625</ele>
        <time>2023-08-19T18:12:33.000Z</time>
        <extensions>
          <ns3:TrackPointExtension>
            <ns3:hr>168</ns3:hr>
            <ns3:cad>84</ns3:cad>
          </ns3:TrackPointExtension>
        </extensions>
      </trkpt>
      <trkpt lat="42.61909416876733303070068359375" lon="2.76677646674215793609619140625">
        <ele>110.40000152587890625</ele>
        <time>2023-08-19T18:12:34.000Z</time>
        <extensions>
          <ns3:TrackPointExtension>
            <ns3:hr>169</ns3:hr>
            <ns3:cad>84</ns3:cad>
          </ns3:TrackPointExtension>
        </extensions>
      </trkpt>
      <trkpt lat="42.61910724453628063201904296875" lon="2.766816280782222747802734375">
        <ele>110.40000152587890625</ele>
        <time>2023-08-19T18:12:35.000Z</time>
        <extensions>
          <ns3:TrackPointExtension>
            <ns3:hr>169</ns3:hr>
            <ns3:cad>84</ns3:cad>
          </ns3:TrackPointExtension>
        </extensions>
      </trkpt>
      <trkpt lat="42.61911847628653049468994140625" lon="2.7668482996523380279541015625">
        <ele>110.40000152587890625</ele>
        <time>2023-08-19T18:12:36.000Z</time>
        <extensions>
          <ns3:TrackPointExtension>
            <ns3:hr>169</ns3:hr>
            <ns3:cad>83</ns3:cad>
          </ns3:TrackPointExtension>
        </extensions>
      </trkpt>
      <trkpt lat="42.619134485721588134765625" lon="2.76688660494983196258544921875">
        <ele>110.1999969482421875</ele>
        <time>2023-08-19T18:12:37.000Z</time>
        <extensions>
          <ns3:TrackPointExtension>
            <ns3:hr>170</ns3:hr>
            <ns3:cad>83</ns3:cad>
          </ns3:TrackPointExtension>
        </extensions>
      </trkpt>
      <trkpt lat="42.61914563365280628204345703125" lon="2.7669203840196132659912109375">
        <ele>110</ele>
        <time>2023-08-19T18:12:38.000Z</time>
        <extensions>
          <ns3:TrackPointExtension>
            <ns3:hr>170</ns3:hr>
            <ns3:cad>84</ns3:cad>
          </ns3:TrackPointExtension>
        </extensions>
      </trkpt>
      <trkpt lat="42.6191614754498004913330078125" lon="2.7669529058039188385009765625">
        <ele>109.8000030517578125</ele>
        <time>2023-08-19T18:12:39.000Z</time>
        <extensions>
          <ns3:TrackPointExtension>
            <ns3:hr>170</ns3:hr>
            <ns3:cad>84</ns3:cad>
          </ns3:TrackPointExtension>
        </extensions>
      </trkpt>
      <trkpt lat="42.6191738806664943695068359375" lon="2.7669923007488250732421875">
        <ele>109.8000030517578125</ele>
        <time>2023-08-19T18:12:40.000Z</time>
        <extensions>
          <ns3:TrackPointExtension>
            <ns3:hr>170</ns3:hr>
            <ns3:cad>84</ns3:cad>
          </ns3:TrackPointExtension>
        </extensions>
      </trkpt>
      <trkpt lat="42.6191862858831882476806640625" lon="2.76702373288571834564208984375">
        <ele>109.8000030517578125</ele>
        <time>2023-08-19T18:12:41.000Z</time>
        <extensions>
          <ns3:TrackPointExtension>
            <ns3:hr>170</ns3:hr>
            <ns3:cad>84</ns3:cad>
          </ns3:TrackPointExtension>
        </extensions>
      </trkpt>
      <trkpt lat="42.619202546775341033935546875" lon="2.76706094853579998016357421875">
        <ele>109.59999847412109375</ele>
        <time>2023-08-19T18:12:42.000Z</time>
        <extensions>
          <ns3:TrackPointExtension>
            <ns3:hr>172</ns3:hr>
            <ns3:cad>84</ns3:cad>
          </ns3:TrackPointExtension>
        </extensions>
      </trkpt>
      <trkpt lat="42.61921587400138378143310546875" lon="2.7670977450907230377197265625">
        <ele>109.40000152587890625</ele>
        <time>2023-08-19T18:12:43.000Z</time>
        <extensions>
          <ns3:TrackPointExtension>
            <ns3:hr>172</ns3:hr>
            <ns3:cad>84</ns3:cad>
          </ns3:TrackPointExtension>
        </extensions>
      </trkpt>
      <trkpt lat="42.61923280544579029083251953125" lon="2.76713470928370952606201171875">
        <ele>109.40000152587890625</ele>
        <time>2023-08-19T18:12:44.000Z</time>
        <extensions>
          <ns3:TrackPointExtension>
            <ns3:hr>172</ns3:hr>
            <ns3:cad>84</ns3:cad>
          </ns3:TrackPointExtension>
        </extensions>
      </trkpt>
      <trkpt lat="42.61924403719604015350341796875" lon="2.7671775408089160919189453125">
        <ele>109.1999969482421875</ele>
        <time>2023-08-19T18:12:45.000Z</time>
        <extensions>
          <ns3:TrackPointExtension>
            <ns3:hr>170</ns3:hr>
            <ns3:cad>84</ns3:cad>
          </ns3:TrackPointExtension>
        </extensions>
      </trkpt>
      <trkpt lat="42.61924822814762592315673828125" lon="2.7672160975635051727294921875">
        <ele>109.1999969482421875</ele>
        <time>2023-08-19T18:12:46.000Z</time>
        <extensions>
          <ns3:TrackPointExtension>
            <ns3:hr>169</ns3:hr>
            <ns3:cad>84</ns3:cad>
          </ns3:TrackPointExtension>
        </extensions>
      </trkpt>
      <trkpt lat="42.619236409664154052734375" lon="2.76725406758487224578857421875">
        <ele>109.1999969482421875</ele>
        <time>2023-08-19T18:12:47.000Z</time>
        <extensions>
          <ns3:TrackPointExtension>
            <ns3:hr>168</ns3:hr>
            <ns3:cad>85</ns3:cad>
          </ns3:TrackPointExtension>
        </extensions>
      </trkpt>
      <trkpt lat="42.61921687982976436614990234375" lon="2.76728323660790920257568359375">
        <ele>109.1999969482421875</ele>
        <time>2023-08-19T18:12:48.000Z</time>
        <extensions>
          <ns3:TrackPointExtension>
            <ns3:hr>168</ns3:hr>
            <ns3:cad>86</ns3:cad>
          </ns3:TrackPointExtension>
        </extensions>
      </trkpt>
      <trkpt lat="42.61918754316866397857666015625" lon="2.76730955578386783599853515625">
        <ele>109.1999969482421875</ele>
        <time>2023-08-19T18:12:49.000Z</time>
        <extensions>
          <ns3:TrackPointExtension>
            <ns3:hr>167</ns3:hr>
            <ns3:cad>86</ns3:cad>
          </ns3:TrackPointExtension>
        </extensions>
      </trkpt>
      <trkpt lat="42.6191581226885318756103515625" lon="2.7673314325511455535888671875">
        <ele>109.40000152587890625</ele>
        <time>2023-08-19T18:12:50.000Z</time>
        <extensions>
          <ns3:TrackPointExtension>
            <ns3:hr>167</ns3:hr>
            <ns3:cad>86</ns3:cad>
          </ns3:TrackPointExtension>
        </extensions>
      </trkpt>
      <trkpt lat="42.61913205496966838836669921875" lon="2.7673535607755184173583984375">
        <ele>109.40000152587890625</ele>
        <time>2023-08-19T18:12:51.000Z</time>
        <extensions>
          <ns3:TrackPointExtension>
            <ns3:hr>167</ns3:hr>
            <ns3:cad>86</ns3:cad>
          </ns3:TrackPointExtension>
        </extensions>
      </trkpt>
      <trkpt lat="42.619101293385028839111328125" lon="2.7673763595521450042724609375">
        <ele>109.59999847412109375</ele>
        <time>2023-08-19T18:12:52.000Z</time>
        <extensions>
          <ns3:TrackPointExtension>
            <ns3:hr>166</ns3:hr>
            <ns3:cad>85</ns3:cad>
          </ns3:TrackPointExtension>
        </extensions>
      </trkpt>
      <trkpt lat="42.61907614767551422119140625" lon="2.76739588938653469085693359375">
        <ele>109.8000030517578125</ele>
        <time>2023-08-19T18:12:53.000Z</time>
        <extensions>
          <ns3:TrackPointExtension>
            <ns3:hr>166</ns3:hr>
            <ns3:cad>85</ns3:cad>
          </ns3:TrackPointExtension>
        </extensions>
      </trkpt>
      <trkpt lat="42.61904840357601642608642578125" lon="2.76741667650640010833740234375">
        <ele>110</ele>
        <time>2023-08-19T18:12:54.000Z</time>
        <extensions>
          <ns3:TrackPointExtension>
            <ns3:hr>166</ns3:hr>
            <ns3:cad>85</ns3:cad>
          </ns3:TrackPointExtension>
        </extensions>
      </trkpt>
      <trkpt lat="42.6190240122377872467041015625" lon="2.76743075810372829437255859375">
        <ele>110</ele>
        <time>2023-08-19T18:12:55.000Z</time>
        <extensions>
          <ns3:TrackPointExtension>
            <ns3:hr>166</ns3:hr>
            <ns3:cad>84</ns3:cad>
          </ns3:TrackPointExtension>
        </extensions>
      </trkpt>
      <trkpt lat="42.61900431476533412933349609375" lon="2.767448611557483673095703125">
        <ele>110</ele>
        <time>2023-08-19T18:12:56.000Z</time>
        <extensions>
          <ns3:TrackPointExtension>
            <ns3:hr>166</ns3:hr>
            <ns3:cad>84</ns3:cad>
          </ns3:TrackPointExtension>
        </extensions>
      </trkpt>
      <trkpt lat="42.6189774088561534881591796875" lon="2.76746344752609729766845703125">
        <ele>110</ele>
        <time>2023-08-19T18:12:57.000Z</time>
        <extensions>
          <ns3:TrackPointExtension>
            <ns3:hr>166</ns3:hr>
            <ns3:cad>84</ns3:cad>
          </ns3:TrackPointExtension>
        </extensions>
      </trkpt>
      <trkpt lat="42.61895603500306606292724609375" lon="2.76747551746666431427001953125">
        <ele>110.1999969482421875</ele>
        <time>2023-08-19T18:12:58.000Z</time>
        <extensions>
          <ns3:TrackPointExtension>
            <ns3:hr>166</ns3:hr>
            <ns3:cad>84</ns3:cad>
          </ns3:TrackPointExtension>
        </extensions>
      </trkpt>
      <trkpt lat="42.6189318113029003143310546875" lon="2.76748959906399250030517578125">
        <ele>110.1999969482421875</ele>
        <time>2023-08-19T18:12:59.000Z</time>
        <extensions>
          <ns3:TrackPointExtension>
            <ns3:hr>166</ns3:hr>
            <ns3:cad>83</ns3:cad>
          </ns3:TrackPointExtension>
        </extensions>
      </trkpt>
      <trkpt lat="42.61890926398336887359619140625" lon="2.76750485412776470184326171875">
        <ele>110.1999969482421875</ele>
        <time>2023-08-19T18:13:00.000Z</time>
        <extensions>
          <ns3:TrackPointExtension>
            <ns3:hr>166</ns3:hr>
            <ns3:cad>83</ns3:cad>
          </ns3:TrackPointExtension>
        </extensions>
      </trkpt>
      <trkpt lat="42.618888728320598602294921875" lon="2.76752195321023464202880859375">
        <ele>110.1999969482421875</ele>
        <time>2023-08-19T18:13:01.000Z</time>
        <extensions>
          <ns3:TrackPointExtension>
            <ns3:hr>166</ns3:hr>
            <ns3:cad>83</ns3:cad>
          </ns3:TrackPointExtension>
        </extensions>
      </trkpt>
      <trkpt lat="42.61886232532560825347900390625" lon="2.76753787882626056671142578125">
        <ele>110.40000152587890625</ele>
        <time>2023-08-19T18:13:02.000Z</time>
        <extensions>
          <ns3:TrackPointExtension>
            <ns3:hr>166</ns3:hr>
            <ns3:cad>83</ns3:cad>
          </ns3:TrackPointExtension>
        </extensions>
      </trkpt>
      <trkpt lat="42.61883868835866451263427734375" lon="2.7675476856529712677001953125">
        <ele>110.40000152587890625</ele>
        <time>2023-08-19T18:13:03.000Z</time>
        <extensions>
          <ns3:TrackPointExtension>
            <ns3:hr>166</ns3:hr>
            <ns3:cad>83</ns3:cad>
          </ns3:TrackPointExtension>
        </extensions>
      </trkpt>
      <trkpt lat="42.61881471611559391021728515625" lon="2.76756235398352146148681640625">
        <ele>110.40000152587890625</ele>
        <time>2023-08-19T18:13:04.000Z</time>
        <extensions>
          <ns3:TrackPointExtension>
            <ns3:hr>166</ns3:hr>
            <ns3:cad>83</ns3:cad>
          </ns3:TrackPointExtension>
        </extensions>
      </trkpt>
      <trkpt lat="42.61878781020641326904296875" lon="2.76757660321891307830810546875">
        <ele>110.59999847412109375</ele>
        <time>2023-08-19T18:13:05.000Z</time>
        <extensions>
          <ns3:TrackPointExtension>
            <ns3:hr>166</ns3:hr>
            <ns3:cad>83</ns3:cad>
          </ns3:TrackPointExtension>
        </extensions>
      </trkpt>
      <trkpt lat="42.61876459233462810516357421875" lon="2.76758682914078235626220703125">
        <ele>110.59999847412109375</ele>
        <time>2023-08-19T18:13:06.000Z</time>
        <extensions>
          <ns3:TrackPointExtension>
            <ns3:hr>166</ns3:hr>
            <ns3:cad>83</ns3:cad>
          </ns3:TrackPointExtension>
        </extensions>
      </trkpt>
      <trkpt lat="42.6187376864254474639892578125" lon="2.76760258711874485015869140625">
        <ele>110.59999847412109375</ele>
        <time>2023-08-19T18:13:07.000Z</time>
        <extensions>
          <ns3:TrackPointExtension>
            <ns3:hr>166</ns3:hr>
            <ns3:cad>83</ns3:cad>
          </ns3:TrackPointExtension>
        </extensions>
      </trkpt>
      <trkpt lat="42.618711702525615692138671875" lon="2.7676184289157390594482421875">
        <ele>110.59999847412109375</ele>
        <time>2023-08-19T18:13:08.000Z</time>
        <extensions>
          <ns3:TrackPointExtension>
            <ns3:hr>166</ns3:hr>
            <ns3:cad>83</ns3:cad>
          </ns3:TrackPointExtension>
        </extensions>
      </trkpt>
      <trkpt lat="42.61868747882544994354248046875" lon="2.76763326488435268402099609375">
        <ele>110.59999847412109375</ele>
        <time>2023-08-19T18:13:09.000Z</time>
        <extensions>
          <ns3:TrackPointExtension>
            <ns3:hr>166</ns3:hr>
            <ns3:cad>83</ns3:cad>
          </ns3:TrackPointExtension>
        </extensions>
      </trkpt>
      <trkpt lat="42.618655376136302947998046875" lon="2.767650783061981201171875">
        <ele>110.59999847412109375</ele>
        <time>2023-08-19T18:13:10.000Z</time>
        <extensions>
          <ns3:TrackPointExtension>
            <ns3:hr>167</ns3:hr>
            <ns3:cad>83</ns3:cad>
          </ns3:TrackPointExtension>
        </extensions>
      </trkpt>
      <trkpt lat="42.61862679384648799896240234375" lon="2.7676707319915294647216796875">
        <ele>110.59999847412109375</ele>
        <time>2023-08-19T18:13:11.000Z</time>
        <extensions>
          <ns3:TrackPointExtension>
            <ns3:hr>167</ns3:hr>
            <ns3:cad>83</ns3:cad>
          </ns3:TrackPointExtension>
        </extensions>
      </trkpt>
      <trkpt lat="42.618598043918609619140625" lon="2.76769713498651981353759765625">
        <ele>110.59999847412109375</ele>
        <time>2023-08-19T18:13:12.000Z</time>
        <extensions>
          <ns3:TrackPointExtension>
            <ns3:hr>167</ns3:hr>
            <ns3:cad>83</ns3:cad>
          </ns3:TrackPointExtension>
        </extensions>
      </trkpt>
      <trkpt lat="42.6185752451419830322265625" lon="2.767728902399539947509765625">
        <ele>110.59999847412109375</ele>
        <time>2023-08-19T18:13:13.000Z</time>
        <extensions>
          <ns3:TrackPointExtension>
            <ns3:hr>167</ns3:hr>
            <ns3:cad>83</ns3:cad>
          </ns3:TrackPointExtension>
        </extensions>
      </trkpt>
      <trkpt lat="42.61855873279273509979248046875" lon="2.767763435840606689453125">
        <ele>110.59999847412109375</ele>
        <time>2023-08-19T18:13:14.000Z</time>
        <extensions>
          <ns3:TrackPointExtension>
            <ns3:hr>167</ns3:hr>
            <ns3:cad>83</ns3:cad>
          </ns3:TrackPointExtension>
        </extensions>
      </trkpt>
      <trkpt lat="42.61854331009089946746826171875" lon="2.76780811138451099395751953125">
        <ele>110.59999847412109375</ele>
        <time>2023-08-19T18:13:15.000Z</time>
        <extensions>
          <ns3:TrackPointExtension>
            <ns3:hr>167</ns3:hr>
            <ns3:cad>83</ns3:cad>
          </ns3:TrackPointExtension>
        </extensions>
      </trkpt>
      <trkpt lat="42.61853794567286968231201171875" lon="2.7678437344729900360107421875">
        <ele>110.59999847412109375</ele>
        <time>2023-08-19T18:13:16.000Z</time>
        <extensions>
          <ns3:TrackPointExtension>
            <ns3:hr>167</ns3:hr>
            <ns3:cad>83</ns3:cad>
          </ns3:TrackPointExtension>
        </extensions>
      </trkpt>
      <trkpt lat="42.618540041148662567138671875" lon="2.7678789384663105010986328125">
        <ele>110.59999847412109375</ele>
        <time>2023-08-19T18:13:17.000Z</time>
        <extensions>
          <ns3:TrackPointExtension>
            <ns3:hr>167</ns3:hr>
            <ns3:cad>83</ns3:cad>
          </ns3:TrackPointExtension>
        </extensions>
      </trkpt>
      <trkpt lat="42.6185455732047557830810546875" lon="2.767922692000865936279296875">
        <ele>110.59999847412109375</ele>
        <time>2023-08-19T18:13:18.000Z</time>
        <extensions>
          <ns3:TrackPointExtension>
            <ns3:hr>168</ns3:hr>
            <ns3:cad>83</ns3:cad>
          </ns3:TrackPointExtension>
        </extensions>
      </trkpt>
      <trkpt lat="42.6185524463653564453125" lon="2.767958901822566986083984375">
        <ele>110.59999847412109375</ele>
        <time>2023-08-19T18:13:19.000Z</time>
        <extensions>
          <ns3:TrackPointExtension>
            <ns3:hr>168</ns3:hr>
            <ns3:cad>83</ns3:cad>
          </ns3:TrackPointExtension>
        </extensions>
      </trkpt>
      <trkpt lat="42.618560492992401123046875" lon="2.76800894178450107574462890625">
        <ele>110.40000152587890625</ele>
        <time>2023-08-19T18:13:20.000Z</time>
        <extensions>
          <ns3:TrackPointExtension>
            <ns3:hr>168</ns3:hr>
            <ns3:cad>83</ns3:cad>
          </ns3:TrackPointExtension>
        </extensions>
      </trkpt>
      <trkpt lat="42.61856812052428722381591796875" lon="2.7680437266826629638671875">
        <ele>110.40000152587890625</ele>
        <time>2023-08-19T18:13:21.000Z</time>
        <extensions>
          <ns3:TrackPointExtension>
            <ns3:hr>169</ns3:hr>
            <ns3:cad>84</ns3:cad>
          </ns3:TrackPointExtension>
        </extensions>
      </trkpt>
      <trkpt lat="42.61857591569423675537109375" lon="2.768082283437252044677734375">
        <ele>110.40000152587890625</ele>
        <time>2023-08-19T18:13:22.000Z</time>
        <extensions>
          <ns3:TrackPointExtension>
            <ns3:hr>169</ns3:hr>
            <ns3:cad>84</ns3:cad>
          </ns3:TrackPointExtension>
        </extensions>
      </trkpt>
      <trkpt lat="42.61858438141644001007080078125" lon="2.768128551542758941650390625">
        <ele>110.40000152587890625</ele>
        <time>2023-08-19T18:13:23.000Z</time>
        <extensions>
          <ns3:TrackPointExtension>
            <ns3:hr>169</ns3:hr>
            <ns3:cad>84</ns3:cad>
          </ns3:TrackPointExtension>
        </extensions>
      </trkpt>
      <trkpt lat="42.618592344224452972412109375" lon="2.76816417463123798370361328125">
        <ele>110.1999969482421875</ele>
        <time>2023-08-19T18:13:24.000Z</time>
        <extensions>
          <ns3:TrackPointExtension>
            <ns3:hr>169</ns3:hr>
            <ns3:cad>84</ns3:cad>
          </ns3:TrackPointExtension>
        </extensions>
      </trkpt>
      <trkpt lat="42.61859946884214878082275390625" lon="2.768204994499683380126953125">
        <ele>110.1999969482421875</ele>
        <time>2023-08-19T18:13:25.000Z</time>
        <extensions>
          <ns3:TrackPointExtension>
            <ns3:hr>169</ns3:hr>
            <ns3:cad>84</ns3:cad>
          </ns3:TrackPointExtension>
        </extensions>
      </trkpt>
      <trkpt lat="42.61860433034598827362060546875" lon="2.768237851560115814208984375">
        <ele>110.1999969482421875</ele>
        <time>2023-08-19T18:13:26.000Z</time>
        <extensions>
          <ns3:TrackPointExtension>
            <ns3:hr>169</ns3:hr>
            <ns3:cad>84</ns3:cad>
          </ns3:TrackPointExtension>
        </extensions>
      </trkpt>
      <trkpt lat="42.618613131344318389892578125" lon="2.768273390829563140869140625">
        <ele>110</ele>
        <time>2023-08-19T18:13:27.000Z</time>
        <extensions>
          <ns3:TrackPointExtension>
            <ns3:hr>169</ns3:hr>
            <ns3:cad>84</ns3:cad>
          </ns3:TrackPointExtension>
        </extensions>
      </trkpt>
      <trkpt lat="42.61861941777169704437255859375" lon="2.7683137916028499603271484375">
        <ele>110</ele>
        <time>2023-08-19T18:13:28.000Z</time>
        <extensions>
          <ns3:TrackPointExtension>
            <ns3:hr>169</ns3:hr>
            <ns3:cad>84</ns3:cad>
          </ns3:TrackPointExtension>
        </extensions>
      </trkpt>
      <trkpt lat="42.61862947605550289154052734375" lon="2.7683466486632823944091796875">
        <ele>110</ele>
        <time>2023-08-19T18:13:29.000Z</time>
        <extensions>
          <ns3:TrackPointExtension>
            <ns3:hr>169</ns3:hr>
            <ns3:cad>84</ns3:cad>
          </ns3:TrackPointExtension>
        </extensions>
      </trkpt>
      <trkpt lat="42.6186424680054187774658203125" lon="2.768394090235233306884765625">
        <ele>110</ele>
        <time>2023-08-19T18:13:30.000Z</time>
        <extensions>
          <ns3:TrackPointExtension>
            <ns3:hr>169</ns3:hr>
            <ns3:cad>84</ns3:cad>
          </ns3:TrackPointExtension>
        </extensions>
      </trkpt>
      <trkpt lat="42.61865160427987575531005859375" lon="2.7684257738292217254638671875">
        <ele>110</ele>
        <time>2023-08-19T18:13:31.000Z</time>
        <extensions>
          <ns3:TrackPointExtension>
            <ns3:hr>169</ns3:hr>
            <ns3:cad>84</ns3:cad>
          </ns3:TrackPointExtension>
        </extensions>
      </trkpt>
      <trkpt lat="42.61866870336234569549560546875" lon="2.76846156455576419830322265625">
        <ele>110</ele>
        <time>2023-08-19T18:13:32.000Z</time>
        <extensions>
          <ns3:TrackPointExtension>
            <ns3:hr>169</ns3:hr>
            <ns3:cad>84</ns3:cad>
          </ns3:TrackPointExtension>
        </extensions>
      </trkpt>
      <trkpt lat="42.61868228204548358917236328125" lon="2.76849945075809955596923828125">
        <ele>110</ele>
        <time>2023-08-19T18:13:33.000Z</time>
        <extensions>
          <ns3:TrackPointExtension>
            <ns3:hr>168</ns3:hr>
            <ns3:cad>84</ns3:cad>
          </ns3:TrackPointExtension>
        </extensions>
      </trkpt>
      <trkpt lat="42.6186981238424777984619140625" lon="2.7685320563614368438720703125">
        <ele>110</ele>
        <time>2023-08-19T18:13:34.000Z</time>
        <extensions>
          <ns3:TrackPointExtension>
            <ns3:hr>168</ns3:hr>
            <ns3:cad>84</ns3:cad>
          </ns3:TrackPointExtension>
        </extensions>
      </trkpt>
      <trkpt lat="42.61871044524013996124267578125" lon="2.76856952346861362457275390625">
        <ele>109.8000030517578125</ele>
        <time>2023-08-19T18:13:35.000Z</time>
        <extensions>
          <ns3:TrackPointExtension>
            <ns3:hr>167</ns3:hr>
            <ns3:cad>84</ns3:cad>
          </ns3:TrackPointExtension>
        </extensions>
      </trkpt>
      <trkpt lat="42.6187185756862163543701171875" lon="2.76860103942453861236572265625">
        <ele>109.8000030517578125</ele>
        <time>2023-08-19T18:13:36.000Z</time>
        <extensions>
          <ns3:TrackPointExtension>
            <ns3:hr>167</ns3:hr>
            <ns3:cad>84</ns3:cad>
          </ns3:TrackPointExtension>
        </extensions>
      </trkpt>
      <trkpt lat="42.61872335337102413177490234375" lon="2.76864445768296718597412109375">
        <ele>109.8000030517578125</ele>
        <time>2023-08-19T18:13:37.000Z</time>
        <extensions>
          <ns3:TrackPointExtension>
            <ns3:hr>167</ns3:hr>
            <ns3:cad>85</ns3:cad>
          </ns3:TrackPointExtension>
        </extensions>
      </trkpt>
      <trkpt lat="42.61872611939907073974609375" lon="2.7686901390552520751953125">
        <ele>109.8000030517578125</ele>
        <time>2023-08-19T18:13:38.000Z</time>
        <extensions>
          <ns3:TrackPointExtension>
            <ns3:hr>167</ns3:hr>
            <ns3:cad>85</ns3:cad>
          </ns3:TrackPointExtension>
        </extensions>
      </trkpt>
      <trkpt lat="42.61872938834130764007568359375" lon="2.7687357366085052490234375">
        <ele>109.8000030517578125</ele>
        <time>2023-08-19T18:13:39.000Z</time>
        <extensions>
          <ns3:TrackPointExtension>
            <ns3:hr>166</ns3:hr>
            <ns3:cad>85</ns3:cad>
          </ns3:TrackPointExtension>
        </extensions>
      </trkpt>
      <trkpt lat="42.61873089708387851715087890625" lon="2.7687840163707733154296875">
        <ele>109.8000030517578125</ele>
        <time>2023-08-19T18:13:40.000Z</time>
        <extensions>
          <ns3:TrackPointExtension>
            <ns3:hr>165</ns3:hr>
            <ns3:cad>85</ns3:cad>
          </ns3:TrackPointExtension>
        </extensions>
      </trkpt>
      <trkpt lat="42.61873592622578144073486328125" lon="2.76882064528763294219970703125">
        <ele>109.8000030517578125</ele>
        <time>2023-08-19T18:13:41.000Z</time>
        <extensions>
          <ns3:TrackPointExtension>
            <ns3:hr>165</ns3:hr>
            <ns3:cad>85</ns3:cad>
          </ns3:TrackPointExtension>
        </extensions>
      </trkpt>
      <trkpt lat="42.61874397285282611846923828125" lon="2.768862135708332061767578125">
        <ele>109.8000030517578125</ele>
        <time>2023-08-19T18:13:42.000Z</time>
        <extensions>
          <ns3:TrackPointExtension>
            <ns3:hr>165</ns3:hr>
            <ns3:cad>85</ns3:cad>
          </ns3:TrackPointExtension>
        </extensions>
      </trkpt>
      <trkpt lat="42.61875369586050510406494140625" lon="2.7688931487500667572021484375">
        <ele>109.8000030517578125</ele>
        <time>2023-08-19T18:13:43.000Z</time>
        <extensions>
          <ns3:TrackPointExtension>
            <ns3:hr>165</ns3:hr>
            <ns3:cad>85</ns3:cad>
          </ns3:TrackPointExtension>
        </extensions>
      </trkpt>
      <trkpt lat="42.61877381242811679840087890625" lon="2.768907733261585235595703125">
        <ele>109.59999847412109375</ele>
        <time>2023-08-19T18:13:44.000Z</time>
        <extensions>
          <ns3:TrackPointExtension>
            <ns3:hr>165</ns3:hr>
            <ns3:cad>84</ns3:cad>
          </ns3:TrackPointExtension>
        </extensions>
      </trkpt>
      <trkpt lat="42.61880164034664630889892578125" lon="2.76891770772635936737060546875">
        <ele>109.40000152587890625</ele>
        <time>2023-08-19T18:13:45.000Z</time>
        <extensions>
          <ns3:TrackPointExtension>
            <ns3:hr>165</ns3:hr>
            <ns3:cad>84</ns3:cad>
          </ns3:TrackPointExtension>
        </extensions>
      </trkpt>
      <trkpt lat="42.61883064173161983489990234375" lon="2.768922150135040283203125">
        <ele>109.1999969482421875</ele>
        <time>2023-08-19T18:13:46.000Z</time>
        <extensions>
          <ns3:TrackPointExtension>
            <ns3:hr>166</ns3:hr>
            <ns3:cad>84</ns3:cad>
          </ns3:TrackPointExtension>
        </extensions>
      </trkpt>
      <trkpt lat="42.61886601336300373077392578125" lon="2.76892608962953090667724609375">
        <ele>109</ele>
        <time>2023-08-19T18:13:47.000Z</time>
        <extensions>
          <ns3:TrackPointExtension>
            <ns3:hr>166</ns3:hr>
            <ns3:cad>84</ns3:cad>
          </ns3:TrackPointExtension>
        </extensions>
      </trkpt>
      <trkpt lat="42.6188969425857067108154296875" lon="2.768927849829196929931640625">
        <ele>109</ele>
        <time>2023-08-19T18:13:48.000Z</time>
        <extensions>
          <ns3:TrackPointExtension>
            <ns3:hr>166</ns3:hr>
            <ns3:cad>84</ns3:cad>
          </ns3:TrackPointExtension>
        </extensions>
      </trkpt>
      <trkpt lat="42.6189244352281093597412109375" lon="2.76892726309597492218017578125">
        <ele>108.8000030517578125</ele>
        <time>2023-08-19T18:13:49.000Z</time>
        <extensions>
          <ns3:TrackPointExtension>
            <ns3:hr>167</ns3:hr>
            <ns3:cad>84</ns3:cad>
          </ns3:TrackPointExtension>
        </extensions>
      </trkpt>
      <trkpt lat="42.6189536042511463165283203125" lon="2.7689263410866260528564453125">
        <ele>108.8000030517578125</ele>
        <time>2023-08-19T18:13:50.000Z</time>
        <extensions>
          <ns3:TrackPointExtension>
            <ns3:hr>167</ns3:hr>
            <ns3:cad>84</ns3:cad>
          </ns3:TrackPointExtension>
        </extensions>
      </trkpt>
      <trkpt lat="42.6189807616174221038818359375" lon="2.76892055757343769073486328125">
        <ele>108.59999847412109375</ele>
        <time>2023-08-19T18:13:51.000Z</time>
        <extensions>
          <ns3:TrackPointExtension>
            <ns3:hr>167</ns3:hr>
            <ns3:cad>84</ns3:cad>
          </ns3:TrackPointExtension>
        </extensions>
      </trkpt>
      <trkpt lat="42.619010768830776214599609375" lon="2.76891485787928104400634765625">
        <ele>108.59999847412109375</ele>
        <time>2023-08-19T18:13:52.000Z</time>
        <extensions>
          <ns3:TrackPointExtension>
            <ns3:hr>167</ns3:hr>
            <ns3:cad>84</ns3:cad>
          </ns3:TrackPointExtension>
        </extensions>
      </trkpt>
      <trkpt lat="42.619038261473178863525390625" lon="2.768911756575107574462890625">
        <ele>108.40000152587890625</ele>
        <time>2023-08-19T18:13:53.000Z</time>
        <extensions>
          <ns3:TrackPointExtension>
            <ns3:hr>167</ns3:hr>
            <ns3:cad>85</ns3:cad>
          </ns3:TrackPointExtension>
        </extensions>
      </trkpt>
      <trkpt lat="42.6190679334104061126708984375" lon="2.7689075656235218048095703125">
        <ele>108</ele>
        <time>2023-08-19T18:13:54.000Z</time>
        <extensions>
          <ns3:TrackPointExtension>
            <ns3:hr>166</ns3:hr>
            <ns3:cad>85</ns3:cad>
          </ns3:TrackPointExtension>
        </extensions>
      </trkpt>
      <trkpt lat="42.61909970082342624664306640625" lon="2.768899016082286834716796875">
        <ele>108</ele>
        <time>2023-08-19T18:13:55.000Z</time>
        <extensions>
          <ns3:TrackPointExtension>
            <ns3:hr>166</ns3:hr>
            <ns3:cad>84</ns3:cad>
          </ns3:TrackPointExtension>
        </extensions>
      </trkpt>
      <trkpt lat="42.61913071386516094207763671875" lon="2.76888837106525897979736328125">
        <ele>107.8000030517578125</ele>
        <time>2023-08-19T18:13:56.000Z</time>
        <extensions>
          <ns3:TrackPointExtension>
            <ns3:hr>166</ns3:hr>
            <ns3:cad>84</ns3:cad>
          </ns3:TrackPointExtension>
        </extensions>
      </trkpt>
      <trkpt lat="42.6191644929349422454833984375" lon="2.76888099499046802520751953125">
        <ele>107.8000030517578125</ele>
        <time>2023-08-19T18:13:57.000Z</time>
        <extensions>
          <ns3:TrackPointExtension>
            <ns3:hr>166</ns3:hr>
            <ns3:cad>84</ns3:cad>
          </ns3:TrackPointExtension>
        </extensions>
      </trkpt>
      <trkpt lat="42.61919240467250347137451171875" lon="2.768873870372772216796875">
        <ele>107.8000030517578125</ele>
        <time>2023-08-19T18:13:58.000Z</time>
        <extensions>
          <ns3:TrackPointExtension>
            <ns3:hr>165</ns3:hr>
            <ns3:cad>84</ns3:cad>
          </ns3:TrackPointExtension>
        </extensions>
      </trkpt>
      <trkpt lat="42.619220651686191558837890625" lon="2.768869511783123016357421875">
        <ele>107.59999847412109375</ele>
        <time>2023-08-19T18:13:59.000Z</time>
        <extensions>
          <ns3:TrackPointExtension>
            <ns3:hr>165</ns3:hr>
            <ns3:cad>84</ns3:cad>
          </ns3:TrackPointExtension>
        </extensions>
      </trkpt>
      <trkpt lat="42.61924889869987964630126953125" lon="2.76886020787060260772705078125">
        <ele>107.59999847412109375</ele>
        <time>2023-08-19T18:14:00.000Z</time>
        <extensions>
          <ns3:TrackPointExtension>
            <ns3:hr>165</ns3:hr>
            <ns3:cad>84</ns3:cad>
          </ns3:TrackPointExtension>
        </extensions>
      </trkpt>
      <trkpt lat="42.61927303858101367950439453125" lon="2.7688498981297016143798828125">
        <ele>107.59999847412109375</ele>
        <time>2023-08-19T18:14:01.000Z</time>
        <extensions>
          <ns3:TrackPointExtension>
            <ns3:hr>165</ns3:hr>
            <ns3:cad>84</ns3:cad>
          </ns3:TrackPointExtension>
        </extensions>
      </trkpt>
      <trkpt lat="42.61929634027183055877685546875" lon="2.7688421867787837982177734375">
        <ele>107.40000152587890625</ele>
        <time>2023-08-19T18:14:02.000Z</time>
        <extensions>
          <ns3:TrackPointExtension>
            <ns3:hr>164</ns3:hr>
            <ns3:cad>85</ns3:cad>
          </ns3:TrackPointExtension>
        </extensions>
      </trkpt>
      <trkpt lat="42.619321905076503753662109375" lon="2.76883430778980255126953125">
        <ele>107.1999969482421875</ele>
        <time>2023-08-19T18:14:03.000Z</time>
        <extensions>
          <ns3:TrackPointExtension>
            <ns3:hr>164</ns3:hr>
            <ns3:cad>85</ns3:cad>
          </ns3:TrackPointExtension>
        </extensions>
      </trkpt>
      <trkpt lat="42.61935568414628505706787109375" lon="2.76882433332502841949462890625">
        <ele>107.1999969482421875</ele>
        <time>2023-08-19T18:14:04.000Z</time>
        <extensions>
          <ns3:TrackPointExtension>
            <ns3:hr>165</ns3:hr>
            <ns3:cad>85</ns3:cad>
          </ns3:TrackPointExtension>
        </extensions>
      </trkpt>
      <trkpt lat="42.61938602663576602935791015625" lon="2.768816538155078887939453125">
        <ele>107.1999969482421875</ele>
        <time>2023-08-19T18:14:05.000Z</time>
        <extensions>
          <ns3:TrackPointExtension>
            <ns3:hr>164</ns3:hr>
            <ns3:cad>85</ns3:cad>
          </ns3:TrackPointExtension>
        </extensions>
      </trkpt>
      <trkpt lat="42.61941771022975444793701171875" lon="2.76880421675741672515869140625">
        <ele>107</ele>
        <time>2023-08-19T18:14:06.000Z</time>
        <extensions>
          <ns3:TrackPointExtension>
            <ns3:hr>165</ns3:hr>
            <ns3:cad>84</ns3:cad>
          </ns3:TrackPointExtension>
        </extensions>
      </trkpt>
      <trkpt lat="42.619449980556964874267578125" lon="2.7687925659120082855224609375">
        <ele>107</ele>
        <time>2023-08-19T18:14:07.000Z</time>
        <extensions>
          <ns3:TrackPointExtension>
            <ns3:hr>165</ns3:hr>
            <ns3:cad>84</ns3:cad>
          </ns3:TrackPointExtension>
        </extensions>
      </trkpt>
      <trkpt lat="42.61947940103709697723388671875" lon="2.768779657781124114990234375">
        <ele>107</ele>
        <time>2023-08-19T18:14:08.000Z</time>
        <extensions>
          <ns3:TrackPointExtension>
            <ns3:hr>165</ns3:hr>
            <ns3:cad>84</ns3:cad>
          </ns3:TrackPointExtension>
        </extensions>
      </trkpt>
      <trkpt lat="42.61951141990721225738525390625" lon="2.76876666583120822906494140625">
        <ele>106.8000030517578125</ele>
        <time>2023-08-19T18:14:09.000Z</time>
        <extensions>
          <ns3:TrackPointExtension>
            <ns3:hr>166</ns3:hr>
            <ns3:cad>84</ns3:cad>
          </ns3:TrackPointExtension>
        </extensions>
      </trkpt>
      <trkpt lat="42.6195381581783294677734375" lon="2.76876063086092472076416015625">
        <ele>106.8000030517578125</ele>
        <time>2023-08-19T18:14:10.000Z</time>
        <extensions>
          <ns3:TrackPointExtension>
            <ns3:hr>166</ns3:hr>
            <ns3:cad>84</ns3:cad>
          </ns3:TrackPointExtension>
        </extensions>
      </trkpt>
      <trkpt lat="42.6195607893168926239013671875" lon="2.768753506243228912353515625">
        <ele>106.8000030517578125</ele>
        <time>2023-08-19T18:14:11.000Z</time>
        <extensions>
          <ns3:TrackPointExtension>
            <ns3:hr>166</ns3:hr>
            <ns3:cad>84</ns3:cad>
          </ns3:TrackPointExtension>
        </extensions>
      </trkpt>
      <trkpt lat="42.61958618648350238800048828125" lon="2.76873799972236156463623046875">
        <ele>106.8000030517578125</ele>
        <time>2023-08-19T18:14:12.000Z</time>
        <extensions>
          <ns3:TrackPointExtension>
            <ns3:hr>167</ns3:hr>
            <ns3:cad>84</ns3:cad>
          </ns3:TrackPointExtension>
        </extensions>
      </trkpt>
      <trkpt lat="42.6196130923926830291748046875" lon="2.76871888898313045501708984375">
        <ele>107</ele>
        <time>2023-08-19T18:14:13.000Z</time>
        <extensions>
          <ns3:TrackPointExtension>
            <ns3:hr>166</ns3:hr>
            <ns3:cad>84</ns3:cad>
          </ns3:TrackPointExtension>
        </extensions>
      </trkpt>
      <trkpt lat="42.61964066885411739349365234375" lon="2.76869441382586956024169921875">
        <ele>107</ele>
        <time>2023-08-19T18:14:14.000Z</time>
        <extensions>
          <ns3:TrackPointExtension>
            <ns3:hr>166</ns3:hr>
            <ns3:cad>84</ns3:cad>
          </ns3:TrackPointExtension>
        </extensions>
      </trkpt>
      <trkpt lat="42.6196664012968540191650390625" lon="2.76867396198213100433349609375">
        <ele>107</ele>
        <time>2023-08-19T18:14:15.000Z</time>
        <extensions>
          <ns3:TrackPointExtension>
            <ns3:hr>166</ns3:hr>
            <ns3:cad>84</ns3:cad>
          </ns3:TrackPointExtension>
        </extensions>
      </trkpt>
      <trkpt lat="42.61969900690019130706787109375" lon="2.76865384541451930999755859375">
        <ele>107</ele>
        <time>2023-08-19T18:14:16.000Z</time>
        <extensions>
          <ns3:TrackPointExtension>
            <ns3:hr>166</ns3:hr>
            <ns3:cad>84</ns3:cad>
          </ns3:TrackPointExtension>
        </extensions>
      </trkpt>
      <trkpt lat="42.61972918175160884857177734375" lon="2.76863389648497104644775390625">
        <ele>106.8000030517578125</ele>
        <time>2023-08-19T18:14:17.000Z</time>
        <extensions>
          <ns3:TrackPointExtension>
            <ns3:hr>165</ns3:hr>
            <ns3:cad>84</ns3:cad>
          </ns3:TrackPointExtension>
        </extensions>
      </trkpt>
      <trkpt lat="42.61976002715528011322021484375" lon="2.76861947961151599884033203125">
        <ele>106.8000030517578125</ele>
        <time>2023-08-19T18:14:18.000Z</time>
        <extensions>
          <ns3:TrackPointExtension>
            <ns3:hr>165</ns3:hr>
            <ns3:cad>84</ns3:cad>
          </ns3:TrackPointExtension>
        </extensions>
      </trkpt>
      <trkpt lat="42.6197948120534420013427734375" lon="2.7686007879674434661865234375">
        <ele>106.8000030517578125</ele>
        <time>2023-08-19T18:14:19.000Z</time>
        <extensions>
          <ns3:TrackPointExtension>
            <ns3:hr>165</ns3:hr>
            <ns3:cad>84</ns3:cad>
          </ns3:TrackPointExtension>
        </extensions>
      </trkpt>
      <trkpt lat="42.61982255615293979644775390625" lon="2.76858528144657611846923828125">
        <ele>106.59999847412109375</ele>
        <time>2023-08-19T18:14:20.000Z</time>
        <extensions>
          <ns3:TrackPointExtension>
            <ns3:hr>165</ns3:hr>
            <ns3:cad>84</ns3:cad>
          </ns3:TrackPointExtension>
        </extensions>
      </trkpt>
      <trkpt lat="42.6198492944240570068359375" lon="2.76856918819248676300048828125">
        <ele>106.59999847412109375</ele>
        <time>2023-08-19T18:14:21.000Z</time>
        <extensions>
          <ns3:TrackPointExtension>
            <ns3:hr>165</ns3:hr>
            <ns3:cad>84</ns3:cad>
          </ns3:TrackPointExtension>
        </extensions>
      </trkpt>
      <trkpt lat="42.6198793016374111175537109375" lon="2.76855108328163623809814453125">
        <ele>106.59999847412109375</ele>
        <time>2023-08-19T18:14:22.000Z</time>
        <extensions>
          <ns3:TrackPointExtension>
            <ns3:hr>165</ns3:hr>
            <ns3:cad>84</ns3:cad>
          </ns3:TrackPointExtension>
        </extensions>
      </trkpt>
      <trkpt lat="42.61990687809884548187255859375" lon="2.76853364892303943634033203125">
        <ele>106.59999847412109375</ele>
        <time>2023-08-19T18:14:23.000Z</time>
        <extensions>
          <ns3:TrackPointExtension>
            <ns3:hr>167</ns3:hr>
            <ns3:cad>84</ns3:cad>
          </ns3:TrackPointExtension>
        </extensions>
      </trkpt>
      <trkpt lat="42.61994157917797565460205078125" lon="2.7685176394879817962646484375">
        <ele>106.59999847412109375</ele>
        <time>2023-08-19T18:14:24.000Z</time>
        <extensions>
          <ns3:TrackPointExtension>
            <ns3:hr>167</ns3:hr>
            <ns3:cad>84</ns3:cad>
          </ns3:TrackPointExtension>
        </extensions>
      </trkpt>
      <trkpt lat="42.6199755258858203887939453125" lon="2.76850665919482707977294921875">
        <ele>106.40000152587890625</ele>
        <time>2023-08-19T18:14:25.000Z</time>
        <extensions>
          <ns3:TrackPointExtension>
            <ns3:hr>168</ns3:hr>
            <ns3:cad>84</ns3:cad>
          </ns3:TrackPointExtension>
        </extensions>
      </trkpt>
      <trkpt lat="42.62000896967947483062744140625" lon="2.76850984431803226470947265625">
        <ele>106.40000152587890625</ele>
        <time>2023-08-19T18:14:26.000Z</time>
        <extensions>
          <ns3:TrackPointExtension>
            <ns3:hr>167</ns3:hr>
            <ns3:cad>84</ns3:cad>
          </ns3:TrackPointExtension>
        </extensions>
      </trkpt>
      <trkpt lat="42.6200385577976703643798828125" lon="2.76853096671402454376220703125">
        <ele>106.40000152587890625</ele>
        <time>2023-08-19T18:14:27.000Z</time>
        <extensions>
          <ns3:TrackPointExtension>
            <ns3:hr>168</ns3:hr>
            <ns3:cad>84</ns3:cad>
          </ns3:TrackPointExtension>
        </extensions>
      </trkpt>
      <trkpt lat="42.620070241391658782958984375" lon="2.76856298558413982391357421875">
        <ele>106.40000152587890625</ele>
        <time>2023-08-19T18:14:28.000Z</time>
        <extensions>
          <ns3:TrackPointExtension>
            <ns3:hr>168</ns3:hr>
            <ns3:cad>85</ns3:cad>
          </ns3:TrackPointExtension>
        </extensions>
      </trkpt>
      <trkpt lat="42.6200952194631099700927734375" lon="2.76859961450099945068359375">
        <ele>106.1999969482421875</ele>
        <time>2023-08-19T18:14:29.000Z</time>
        <extensions>
          <ns3:TrackPointExtension>
            <ns3:hr>167</ns3:hr>
            <ns3:cad>85</ns3:cad>
          </ns3:TrackPointExtension>
        </extensions>
      </trkpt>
      <trkpt lat="42.62011307291686534881591796875" lon="2.76862836442887783050537109375">
        <ele>106.1999969482421875</ele>
        <time>2023-08-19T18:14:30.000Z</time>
        <extensions>
          <ns3:TrackPointExtension>
            <ns3:hr>167</ns3:hr>
            <ns3:cad>85</ns3:cad>
          </ns3:TrackPointExtension>
        </extensions>
      </trkpt>
      <trkpt lat="42.62013352476060390472412109375" lon="2.7686713635921478271484375">
        <ele>106.1999969482421875</ele>
        <time>2023-08-19T18:14:31.000Z</time>
        <extensions>
          <ns3:TrackPointExtension>
            <ns3:hr>169</ns3:hr>
            <ns3:cad>85</ns3:cad>
          </ns3:TrackPointExtension>
        </extensions>
      </trkpt>
      <trkpt lat="42.62015397660434246063232421875" lon="2.76870782487094402313232421875">
        <ele>106.1999969482421875</ele>
        <time>2023-08-19T18:14:32.000Z</time>
        <extensions>
          <ns3:TrackPointExtension>
            <ns3:hr>169</ns3:hr>
            <ns3:cad>85</ns3:cad>
          </ns3:TrackPointExtension>
        </extensions>
      </trkpt>
      <trkpt lat="42.62017224915325641632080078125" lon="2.76874772273004055023193359375">
        <ele>106</ele>
        <time>2023-08-19T18:14:33.000Z</time>
        <extensions>
          <ns3:TrackPointExtension>
            <ns3:hr>169</ns3:hr>
            <ns3:cad>84</ns3:cad>
          </ns3:TrackPointExtension>
        </extensions>
      </trkpt>
      <trkpt lat="42.62019085697829723358154296875" lon="2.76878644712269306182861328125">
        <ele>106</ele>
        <time>2023-08-19T18:14:34.000Z</time>
        <extensions>
          <ns3:TrackPointExtension>
            <ns3:hr>169</ns3:hr>
            <ns3:cad>84</ns3:cad>
          </ns3:TrackPointExtension>
        </extensions>
      </trkpt>
      <trkpt lat="42.62020912952721118927001953125" lon="2.76882081292569637298583984375">
        <ele>105.8000030517578125</ele>
        <time>2023-08-19T18:14:35.000Z</time>
        <extensions>
          <ns3:TrackPointExtension>
            <ns3:hr>171</ns3:hr>
            <ns3:cad>85</ns3:cad>
          </ns3:TrackPointExtension>
        </extensions>
      </trkpt>
      <trkpt lat="42.620228491723537445068359375" lon="2.76885098777711391448974609375">
        <ele>105.8000030517578125</ele>
        <time>2023-08-19T18:14:36.000Z</time>
        <extensions>
          <ns3:TrackPointExtension>
            <ns3:hr>171</ns3:hr>
            <ns3:cad>85</ns3:cad>
          </ns3:TrackPointExtension>
        </extensions>
      </trkpt>
      <trkpt lat="42.6202484406530857086181640625" lon="2.76888233609497547149658203125">
        <ele>105.8000030517578125</ele>
        <time>2023-08-19T18:14:37.000Z</time>
        <extensions>
          <ns3:TrackPointExtension>
            <ns3:hr>171</ns3:hr>
            <ns3:cad>85</ns3:cad>
          </ns3:TrackPointExtension>
        </extensions>
      </trkpt>
      <trkpt lat="42.62027249671518802642822265625" lon="2.7689166180789470672607421875">
        <ele>105.8000030517578125</ele>
        <time>2023-08-19T18:14:38.000Z</time>
        <extensions>
          <ns3:TrackPointExtension>
            <ns3:hr>168</ns3:hr>
            <ns3:cad>85</ns3:cad>
          </ns3:TrackPointExtension>
        </extensions>
      </trkpt>
      <trkpt lat="42.6202920265495777130126953125" lon="2.7689476311206817626953125">
        <ele>105.8000030517578125</ele>
        <time>2023-08-19T18:14:39.000Z</time>
        <extensions>
          <ns3:TrackPointExtension>
            <ns3:hr>168</ns3:hr>
            <ns3:cad>85</ns3:cad>
          </ns3:TrackPointExtension>
        </extensions>
      </trkpt>
      <trkpt lat="42.620314657688140869140625" lon="2.7689771354198455810546875">
        <ele>105.59999847412109375</ele>
        <time>2023-08-19T18:14:40.000Z</time>
        <extensions>
          <ns3:TrackPointExtension>
            <ns3:hr>167</ns3:hr>
            <ns3:cad>85</ns3:cad>
          </ns3:TrackPointExtension>
        </extensions>
      </trkpt>
      <trkpt lat="42.62033821083605289459228515625" lon="2.76901267468929290771484375">
        <ele>105.59999847412109375</ele>
        <time>2023-08-19T18:14:41.000Z</time>
        <extensions>
          <ns3:TrackPointExtension>
            <ns3:hr>167</ns3:hr>
            <ns3:cad>85</ns3:cad>
          </ns3:TrackPointExtension>
        </extensions>
      </trkpt>
      <trkpt lat="42.62035748921334743499755859375" lon="2.76904754340648651123046875">
        <ele>105.59999847412109375</ele>
        <time>2023-08-19T18:14:42.000Z</time>
        <extensions>
          <ns3:TrackPointExtension>
            <ns3:hr>166</ns3:hr>
            <ns3:cad>85</ns3:cad>
          </ns3:TrackPointExtension>
        </extensions>
      </trkpt>
      <trkpt lat="42.6203738339245319366455078125" lon="2.76909045875072479248046875">
        <ele>105.59999847412109375</ele>
        <time>2023-08-19T18:14:43.000Z</time>
        <extensions>
          <ns3:TrackPointExtension>
            <ns3:hr>166</ns3:hr>
            <ns3:cad>86</ns3:cad>
          </ns3:TrackPointExtension>
        </extensions>
      </trkpt>
      <trkpt lat="42.6203884184360504150390625" lon="2.769131362438201904296875">
        <ele>105.59999847412109375</ele>
        <time>2023-08-19T18:14:44.000Z</time>
        <extensions>
          <ns3:TrackPointExtension>
            <ns3:hr>166</ns3:hr>
            <ns3:cad>86</ns3:cad>
          </ns3:TrackPointExtension>
        </extensions>
      </trkpt>
      <trkpt lat="42.6203986443579196929931640625" lon="2.7691710926592350006103515625">
        <ele>105.40000152587890625</ele>
        <time>2023-08-19T18:14:45.000Z</time>
        <extensions>
          <ns3:TrackPointExtension>
            <ns3:hr>166</ns3:hr>
            <ns3:cad>87</ns3:cad>
          </ns3:TrackPointExtension>
        </extensions>
      </trkpt>
      <trkpt lat="42.6204093731939792633056640625" lon="2.7692076377570629119873046875">
        <ele>105.40000152587890625</ele>
        <time>2023-08-19T18:14:46.000Z</time>
        <extensions>
          <ns3:TrackPointExtension>
            <ns3:hr>167</ns3:hr>
            <ns3:cad>88</ns3:cad>
          </ns3:TrackPointExtension>
        </extensions>
      </trkpt>
      <trkpt lat="42.6204224489629268646240234375" lon="2.7692535705864429473876953125">
        <ele>105.40000152587890625</ele>
        <time>2023-08-19T18:14:47.000Z</time>
        <extensions>
          <ns3:TrackPointExtension>
            <ns3:hr>167</ns3:hr>
            <ns3:cad>88</ns3:cad>
          </ns3:TrackPointExtension>
        </extensions>
      </trkpt>
      <trkpt lat="42.62042840011417865753173828125" lon="2.76930235326290130615234375">
        <ele>105.1999969482421875</ele>
        <time>2023-08-19T18:14:48.000Z</time>
        <extensions>
          <ns3:TrackPointExtension>
            <ns3:hr>167</ns3:hr>
            <ns3:cad>88</ns3:cad>
          </ns3:TrackPointExtension>
        </extensions>
      </trkpt>
      <trkpt lat="42.62043661437928676605224609375" lon="2.76934937573969364166259765625">
        <ele>105.1999969482421875</ele>
        <time>2023-08-19T18:14:49.000Z</time>
        <extensions>
          <ns3:TrackPointExtension>
            <ns3:hr>167</ns3:hr>
            <ns3:cad>88</ns3:cad>
          </ns3:TrackPointExtension>
        </extensions>
      </trkpt>
      <trkpt lat="42.6204425655305385589599609375" lon="2.76939480565488338470458984375">
        <ele>105.1999969482421875</ele>
        <time>2023-08-19T18:14:50.000Z</time>
        <extensions>
          <ns3:TrackPointExtension>
            <ns3:hr>166</ns3:hr>
            <ns3:cad>88</ns3:cad>
          </ns3:TrackPointExtension>
        </extensions>
      </trkpt>
      <trkpt lat="42.62045220471918582916259765625" lon="2.769440151751041412353515625">
        <ele>105.1999969482421875</ele>
        <time>2023-08-19T18:14:51.000Z</time>
        <extensions>
          <ns3:TrackPointExtension>
            <ns3:hr>167</ns3:hr>
            <ns3:cad>88</ns3:cad>
          </ns3:TrackPointExtension>
        </extensions>
      </trkpt>
      <trkpt lat="42.6204610057175159454345703125" lon="2.7694845758378505706787109375">
        <ele>105.1999969482421875</ele>
        <time>2023-08-19T18:14:52.000Z</time>
        <extensions>
          <ns3:TrackPointExtension>
            <ns3:hr>168</ns3:hr>
            <ns3:cad>87</ns3:cad>
          </ns3:TrackPointExtension>
        </extensions>
      </trkpt>
      <trkpt lat="42.6204717345535755157470703125" lon="2.76952740736305713653564453125">
        <ele>105.1999969482421875</ele>
        <time>2023-08-19T18:14:53.000Z</time>
        <extensions>
          <ns3:TrackPointExtension>
            <ns3:hr>169</ns3:hr>
            <ns3:cad>87</ns3:cad>
          </ns3:TrackPointExtension>
        </extensions>
      </trkpt>
      <trkpt lat="42.62048154138028621673583984375" lon="2.76957551948726177215576171875">
        <ele>105.1999969482421875</ele>
        <time>2023-08-19T18:14:54.000Z</time>
        <extensions>
          <ns3:TrackPointExtension>
            <ns3:hr>170</ns3:hr>
            <ns3:cad>87</ns3:cad>
          </ns3:TrackPointExtension>
        </extensions>
      </trkpt>
      <trkpt lat="42.62049277313053607940673828125" lon="2.7696180157363414764404296875">
        <ele>105.1999969482421875</ele>
        <time>2023-08-19T18:14:55.000Z</time>
        <extensions>
          <ns3:TrackPointExtension>
            <ns3:hr>170</ns3:hr>
            <ns3:cad>87</ns3:cad>
          </ns3:TrackPointExtension>
        </extensions>
      </trkpt>
      <trkpt lat="42.6205015741288661956787109375" lon="2.769665457308292388916015625">
        <ele>105.1999969482421875</ele>
        <time>2023-08-19T18:14:56.000Z</time>
        <extensions>
          <ns3:TrackPointExtension>
            <ns3:hr>170</ns3:hr>
            <ns3:cad>87</ns3:cad>
          </ns3:TrackPointExtension>
        </extensions>
      </trkpt>
      <trkpt lat="42.62051071040332317352294921875" lon="2.7697048522531986236572265625">
        <ele>105.1999969482421875</ele>
        <time>2023-08-19T18:14:57.000Z</time>
        <extensions>
          <ns3:TrackPointExtension>
            <ns3:hr>171</ns3:hr>
            <ns3:cad>87</ns3:cad>
          </ns3:TrackPointExtension>
        </extensions>
      </trkpt>
      <trkpt lat="42.62052093632519245147705078125" lon="2.76974986307322978973388671875">
        <ele>105.1999969482421875</ele>
        <time>2023-08-19T18:14:58.000Z</time>
        <extensions>
          <ns3:TrackPointExtension>
            <ns3:hr>171</ns3:hr>
            <ns3:cad>87</ns3:cad>
          </ns3:TrackPointExtension>
        </extensions>
      </trkpt>
      <trkpt lat="42.6205280609428882598876953125" lon="2.76979562826454639434814453125">
        <ele>105.1999969482421875</ele>
        <time>2023-08-19T18:14:59.000Z</time>
        <extensions>
          <ns3:TrackPointExtension>
            <ns3:hr>171</ns3:hr>
            <ns3:cad>87</ns3:cad>
          </ns3:TrackPointExtension>
        </extensions>
      </trkpt>
      <trkpt lat="42.62054038234055042266845703125" lon="2.769844830036163330078125">
        <ele>105</ele>
        <time>2023-08-19T18:15:00.000Z</time>
        <extensions>
          <ns3:TrackPointExtension>
            <ns3:hr>171</ns3:hr>
            <ns3:cad>87</ns3:cad>
          </ns3:TrackPointExtension>
        </extensions>
      </trkpt>
      <trkpt lat="42.62054909951984882354736328125" lon="2.76988816447556018829345703125">
        <ele>105</ele>
        <time>2023-08-19T18:15:01.000Z</time>
        <extensions>
          <ns3:TrackPointExtension>
            <ns3:hr>170</ns3:hr>
            <ns3:cad>87</ns3:cad>
          </ns3:TrackPointExtension>
        </extensions>
      </trkpt>
      <trkpt lat="42.62055546976625919342041015625" lon="2.76993409730494022369384765625">
        <ele>104.8000030517578125</ele>
        <time>2023-08-19T18:15:02.000Z</time>
        <extensions>
          <ns3:TrackPointExtension>
            <ns3:hr>170</ns3:hr>
            <ns3:cad>87</ns3:cad>
          </ns3:TrackPointExtension>
        </extensions>
      </trkpt>
      <trkpt lat="42.62055647559463977813720703125" lon="2.7699817903339862823486328125">
        <ele>104.8000030517578125</ele>
        <time>2023-08-19T18:15:03.000Z</time>
        <extensions>
          <ns3:TrackPointExtension>
            <ns3:hr>170</ns3:hr>
            <ns3:cad>87</ns3:cad>
          </ns3:TrackPointExtension>
        </extensions>
      </trkpt>
      <trkpt lat="42.62056468985974788665771484375" lon="2.77002546004951000213623046875">
        <ele>104.59999847412109375</ele>
        <time>2023-08-19T18:15:04.000Z</time>
        <extensions>
          <ns3:TrackPointExtension>
            <ns3:hr>170</ns3:hr>
            <ns3:cad>88</ns3:cad>
          </ns3:TrackPointExtension>
        </extensions>
      </trkpt>
      <trkpt lat="42.62057323940098285675048828125" lon="2.77007608674466609954833984375">
        <ele>104.59999847412109375</ele>
        <time>2023-08-19T18:15:05.000Z</time>
        <extensions>
          <ns3:TrackPointExtension>
            <ns3:hr>170</ns3:hr>
            <ns3:cad>88</ns3:cad>
          </ns3:TrackPointExtension>
        </extensions>
      </trkpt>
      <trkpt lat="42.62058245949447154998779296875" lon="2.7701205946505069732666015625">
        <ele>104.59999847412109375</ele>
        <time>2023-08-19T18:15:06.000Z</time>
        <extensions>
          <ns3:TrackPointExtension>
            <ns3:hr>170</ns3:hr>
            <ns3:cad>88</ns3:cad>
          </ns3:TrackPointExtension>
        </extensions>
      </trkpt>
      <trkpt lat="42.62059100903570652008056640625" lon="2.7701668627560138702392578125">
        <ele>104.59999847412109375</ele>
        <time>2023-08-19T18:15:07.000Z</time>
        <extensions>
          <ns3:TrackPointExtension>
            <ns3:hr>170</ns3:hr>
            <ns3:cad>88</ns3:cad>
          </ns3:TrackPointExtension>
        </extensions>
      </trkpt>
      <trkpt lat="42.620598971843719482421875" lon="2.7702060900628566741943359375">
        <ele>104.40000152587890625</ele>
        <time>2023-08-19T18:15:08.000Z</time>
        <extensions>
          <ns3:TrackPointExtension>
            <ns3:hr>170</ns3:hr>
            <ns3:cad>88</ns3:cad>
          </ns3:TrackPointExtension>
        </extensions>
      </trkpt>
      <trkpt lat="42.6206095330417156219482421875" lon="2.77025663293898105621337890625">
        <ele>104.1999969482421875</ele>
        <time>2023-08-19T18:15:09.000Z</time>
        <extensions>
          <ns3:TrackPointExtension>
            <ns3:hr>172</ns3:hr>
            <ns3:cad>87</ns3:cad>
          </ns3:TrackPointExtension>
        </extensions>
      </trkpt>
      <trkpt lat="42.62061883695423603057861328125" lon="2.77030105702579021453857421875">
        <ele>103.1999969482421875</ele>
        <time>2023-08-19T18:15:10.000Z</time>
        <extensions>
          <ns3:TrackPointExtension>
            <ns3:hr>173</ns3:hr>
            <ns3:cad>87</ns3:cad>
          </ns3:TrackPointExtension>
        </extensions>
      </trkpt>
      <trkpt lat="42.62063057161867618560791015625" lon="2.77034481056034564971923828125">
        <ele>103.1999969482421875</ele>
        <time>2023-08-19T18:15:11.000Z</time>
        <extensions>
          <ns3:TrackPointExtension>
            <ns3:hr>173</ns3:hr>
            <ns3:cad>87</ns3:cad>
          </ns3:TrackPointExtension>
        </extensions>
      </trkpt>
      <trkpt lat="42.6206403784453868865966796875" lon="2.7703878097236156463623046875">
        <ele>103</ele>
        <time>2023-08-19T18:15:12.000Z</time>
        <extensions>
          <ns3:TrackPointExtension>
            <ns3:hr>173</ns3:hr>
            <ns3:cad>87</ns3:cad>
          </ns3:TrackPointExtension>
        </extensions>
      </trkpt>
      <trkpt lat="42.62065253220498561859130859375" lon="2.77042544446885585784912109375">
        <ele>102.8000030517578125</ele>
        <time>2023-08-19T18:15:13.000Z</time>
        <extensions>
          <ns3:TrackPointExtension>
            <ns3:hr>173</ns3:hr>
            <ns3:cad>87</ns3:cad>
          </ns3:TrackPointExtension>
        </extensions>
      </trkpt>
      <trkpt lat="42.6206646859645843505859375" lon="2.7704665996134281158447265625">
        <ele>102.8000030517578125</ele>
        <time>2023-08-19T18:15:14.000Z</time>
        <extensions>
          <ns3:TrackPointExtension>
            <ns3:hr>173</ns3:hr>
            <ns3:cad>87</ns3:cad>
          </ns3:TrackPointExtension>
        </extensions>
      </trkpt>
      <trkpt lat="42.6206767559051513671875" lon="2.77050255797803401947021484375">
        <ele>102.40000152587890625</ele>
        <time>2023-08-19T18:15:15.000Z</time>
        <extensions>
          <ns3:TrackPointExtension>
            <ns3:hr>173</ns3:hr>
            <ns3:cad>87</ns3:cad>
          </ns3:TrackPointExtension>
        </extensions>
      </trkpt>
      <trkpt lat="42.620690502226352691650390625" lon="2.77054681442677974700927734375">
        <ele>102.40000152587890625</ele>
        <time>2023-08-19T18:15:16.000Z</time>
        <extensions>
          <ns3:TrackPointExtension>
            <ns3:hr>173</ns3:hr>
            <ns3:cad>87</ns3:cad>
          </ns3:TrackPointExtension>
        </extensions>
      </trkpt>
      <trkpt lat="42.620700560510158538818359375" lon="2.77058822102844715118408203125">
        <ele>102.40000152587890625</ele>
        <time>2023-08-19T18:15:17.000Z</time>
        <extensions>
          <ns3:TrackPointExtension>
            <ns3:hr>173</ns3:hr>
            <ns3:cad>87</ns3:cad>
          </ns3:TrackPointExtension>
        </extensions>
      </trkpt>
      <trkpt lat="42.62071053497493267059326171875" lon="2.7706392668187618255615234375">
        <ele>102.1999969482421875</ele>
        <time>2023-08-19T18:15:18.000Z</time>
        <extensions>
          <ns3:TrackPointExtension>
            <ns3:hr>173</ns3:hr>
            <ns3:cad>86</ns3:cad>
          </ns3:TrackPointExtension>
        </extensions>
      </trkpt>
      <trkpt lat="42.62071874924004077911376953125" lon="2.77068595401942729949951171875">
        <ele>102</ele>
        <time>2023-08-19T18:15:19.000Z</time>
        <extensions>
          <ns3:TrackPointExtension>
            <ns3:hr>173</ns3:hr>
            <ns3:cad>86</ns3:cad>
          </ns3:TrackPointExtension>
        </extensions>
      </trkpt>
      <trkpt lat="42.6207290589809417724609375" lon="2.77073607780039310455322265625">
        <ele>102</ele>
        <time>2023-08-19T18:15:20.000Z</time>
        <extensions>
          <ns3:TrackPointExtension>
            <ns3:hr>173</ns3:hr>
            <ns3:cad>87</ns3:cad>
          </ns3:TrackPointExtension>
        </extensions>
      </trkpt>
      <trkpt lat="42.62073853053152561187744140625" lon="2.7707777358591556549072265625">
        <ele>102</ele>
        <time>2023-08-19T18:15:21.000Z</time>
        <extensions>
          <ns3:TrackPointExtension>
            <ns3:hr>173</ns3:hr>
            <ns3:cad>87</ns3:cad>
          </ns3:TrackPointExtension>
        </extensions>
      </trkpt>
      <trkpt lat="42.62075026519596576690673828125" lon="2.7708219923079013824462890625">
        <ele>102</ele>
        <time>2023-08-19T18:15:22.000Z</time>
        <extensions>
          <ns3:TrackPointExtension>
            <ns3:hr>173</ns3:hr>
            <ns3:cad>87</ns3:cad>
          </ns3:TrackPointExtension>
        </extensions>
      </trkpt>
      <trkpt lat="42.62076057493686676025390625" lon="2.7708679251372814178466796875">
        <ele>102</ele>
        <time>2023-08-19T18:15:23.000Z</time>
        <extensions>
          <ns3:TrackPointExtension>
            <ns3:hr>173</ns3:hr>
            <ns3:cad>87</ns3:cad>
          </ns3:TrackPointExtension>
        </extensions>
      </trkpt>
      <trkpt lat="42.6207714714109897613525390625" lon="2.77091570198535919189453125">
        <ele>101.8000030517578125</ele>
        <time>2023-08-19T18:15:24.000Z</time>
        <extensions>
          <ns3:TrackPointExtension>
            <ns3:hr>173</ns3:hr>
            <ns3:cad>88</ns3:cad>
          </ns3:TrackPointExtension>
        </extensions>
      </trkpt>
      <trkpt lat="42.620779015123844146728515625" lon="2.77096356265246868133544921875">
        <ele>101.8000030517578125</ele>
        <time>2023-08-19T18:15:25.000Z</time>
        <extensions>
          <ns3:TrackPointExtension>
            <ns3:hr>172</ns3:hr>
            <ns3:cad>88</ns3:cad>
          </ns3:TrackPointExtension>
        </extensions>
      </trkpt>
      <trkpt lat="42.62079167179763317108154296875" lon="2.77101100422441959381103515625">
        <ele>101.59999847412109375</ele>
        <time>2023-08-19T18:15:26.000Z</time>
        <extensions>
          <ns3:TrackPointExtension>
            <ns3:hr>173</ns3:hr>
            <ns3:cad>88</ns3:cad>
          </ns3:TrackPointExtension>
        </extensions>
      </trkpt>
      <trkpt lat="42.62080055661499500274658203125" lon="2.77106028981506824493408203125">
        <ele>101.40000152587890625</ele>
        <time>2023-08-19T18:15:27.000Z</time>
        <extensions>
          <ns3:TrackPointExtension>
            <ns3:hr>172</ns3:hr>
            <ns3:cad>88</ns3:cad>
          </ns3:TrackPointExtension>
        </extensions>
      </trkpt>
      <trkpt lat="42.620813213288784027099609375" lon="2.77110354043543338775634765625">
        <ele>101.1999969482421875</ele>
        <time>2023-08-19T18:15:28.000Z</time>
        <extensions>
          <ns3:TrackPointExtension>
            <ns3:hr>172</ns3:hr>
            <ns3:cad>88</ns3:cad>
          </ns3:TrackPointExtension>
        </extensions>
      </trkpt>
      <trkpt lat="42.62082452885806560516357421875" lon="2.77114897035062313079833984375">
        <ele>101.1999969482421875</ele>
        <time>2023-08-19T18:15:29.000Z</time>
        <extensions>
          <ns3:TrackPointExtension>
            <ns3:hr>171</ns3:hr>
            <ns3:cad>88</ns3:cad>
          </ns3:TrackPointExtension>
        </extensions>
      </trkpt>
      <trkpt lat="42.62083911336958408355712890625" lon="2.7711931429803371429443359375">
        <ele>101.1999969482421875</ele>
        <time>2023-08-19T18:15:30.000Z</time>
        <extensions>
          <ns3:TrackPointExtension>
            <ns3:hr>173</ns3:hr>
            <ns3:cad>88</ns3:cad>
          </ns3:TrackPointExtension>
        </extensions>
      </trkpt>
      <trkpt lat="42.62084908783435821533203125" lon="2.77123932726681232452392578125">
        <ele>101</ele>
        <time>2023-08-19T18:15:31.000Z</time>
        <extensions>
          <ns3:TrackPointExtension>
            <ns3:hr>173</ns3:hr>
            <ns3:cad>88</ns3:cad>
          </ns3:TrackPointExtension>
        </extensions>
      </trkpt>
      <trkpt lat="42.6208599843084812164306640625" lon="2.77128056623041629791259765625">
        <ele>101</ele>
        <time>2023-08-19T18:15:32.000Z</time>
        <extensions>
          <ns3:TrackPointExtension>
            <ns3:hr>173</ns3:hr>
            <ns3:cad>88</ns3:cad>
          </ns3:TrackPointExtension>
        </extensions>
      </trkpt>
      <trkpt lat="42.62086920440196990966796875" lon="2.7713279239833354949951171875">
        <ele>101</ele>
        <time>2023-08-19T18:15:33.000Z</time>
        <extensions>
          <ns3:TrackPointExtension>
            <ns3:hr>173</ns3:hr>
            <ns3:cad>88</ns3:cad>
          </ns3:TrackPointExtension>
        </extensions>
      </trkpt>
      <trkpt lat="42.62088135816156864166259765625" lon="2.771372683346271514892578125">
        <ele>100.8000030517578125</ele>
        <time>2023-08-19T18:15:34.000Z</time>
        <extensions>
          <ns3:TrackPointExtension>
            <ns3:hr>176</ns3:hr>
            <ns3:cad>88</ns3:cad>
          </ns3:TrackPointExtension>
        </extensions>
      </trkpt>
      <trkpt lat="42.6208908297121524810791015625" lon="2.77141853235661983489990234375">
        <ele>100.59999847412109375</ele>
        <time>2023-08-19T18:15:35.000Z</time>
        <extensions>
          <ns3:TrackPointExtension>
            <ns3:hr>177</ns3:hr>
            <ns3:cad>88</ns3:cad>
          </ns3:TrackPointExtension>
        </extensions>
      </trkpt>
      <trkpt lat="42.62090348638594150543212890625" lon="2.77145625092089176177978515625">
        <ele>100.1999969482421875</ele>
        <time>2023-08-19T18:15:36.000Z</time>
        <extensions>
          <ns3:TrackPointExtension>
            <ns3:hr>177</ns3:hr>
            <ns3:cad>88</ns3:cad>
          </ns3:TrackPointExtension>
        </extensions>
      </trkpt>
      <trkpt lat="42.62091974727809429168701171875" lon="2.77149816043674945831298828125">
        <ele>100.1999969482421875</ele>
        <time>2023-08-19T18:15:37.000Z</time>
        <extensions>
          <ns3:TrackPointExtension>
            <ns3:hr>177</ns3:hr>
            <ns3:cad>88</ns3:cad>
          </ns3:TrackPointExtension>
        </extensions>
      </trkpt>
      <trkpt lat="42.62093491852283477783203125" lon="2.77153973467648029327392578125">
        <ele>100.1999969482421875</ele>
        <time>2023-08-19T18:15:38.000Z</time>
        <extensions>
          <ns3:TrackPointExtension>
            <ns3:hr>177</ns3:hr>
            <ns3:cad>88</ns3:cad>
          </ns3:TrackPointExtension>
        </extensions>
      </trkpt>
      <trkpt lat="42.62094975449144840240478515625" lon="2.7715944685041904449462890625">
        <ele>100</ele>
        <time>2023-08-19T18:15:39.000Z</time>
        <extensions>
          <ns3:TrackPointExtension>
            <ns3:hr>177</ns3:hr>
            <ns3:cad>88</ns3:cad>
          </ns3:TrackPointExtension>
        </extensions>
      </trkpt>
      <trkpt lat="42.62096308171749114990234375" lon="2.771639563143253326416015625">
        <ele>100</ele>
        <time>2023-08-19T18:15:40.000Z</time>
        <extensions>
          <ns3:TrackPointExtension>
            <ns3:hr>177</ns3:hr>
            <ns3:cad>90</ns3:cad>
          </ns3:TrackPointExtension>
        </extensions>
      </trkpt>
      <trkpt lat="42.62097439728677272796630859375" lon="2.77169027365744113922119140625">
        <ele>100.1999969482421875</ele>
        <time>2023-08-19T18:15:41.000Z</time>
        <extensions>
          <ns3:TrackPointExtension>
            <ns3:hr>176</ns3:hr>
            <ns3:cad>90</ns3:cad>
          </ns3:TrackPointExtension>
        </extensions>
      </trkpt>
      <trkpt lat="42.62098680250346660614013671875" lon="2.77173251844942569732666015625">
        <ele>100.1999969482421875</ele>
        <time>2023-08-19T18:15:42.000Z</time>
        <extensions>
          <ns3:TrackPointExtension>
            <ns3:hr>176</ns3:hr>
            <ns3:cad>90</ns3:cad>
          </ns3:TrackPointExtension>
        </extensions>
      </trkpt>
      <trkpt lat="42.62099971063435077667236328125" lon="2.77177778072655200958251953125">
        <ele>100.1999969482421875</ele>
        <time>2023-08-19T18:15:43.000Z</time>
        <extensions>
          <ns3:TrackPointExtension>
            <ns3:hr>176</ns3:hr>
            <ns3:cad>90</ns3:cad>
          </ns3:TrackPointExtension>
        </extensions>
      </trkpt>
      <trkpt lat="42.62100826017558574676513671875" lon="2.771814577281475067138671875">
        <ele>100</ele>
        <time>2023-08-19T18:15:44.000Z</time>
        <extensions>
          <ns3:TrackPointExtension>
            <ns3:hr>175</ns3:hr>
            <ns3:cad>89</ns3:cad>
          </ns3:TrackPointExtension>
        </extensions>
      </trkpt>
      <trkpt lat="42.62101848609745502471923828125" lon="2.77186210267245769500732421875">
        <ele>100</ele>
        <time>2023-08-19T18:15:45.000Z</time>
        <extensions>
          <ns3:TrackPointExtension>
            <ns3:hr>175</ns3:hr>
            <ns3:cad>89</ns3:cad>
          </ns3:TrackPointExtension>
        </extensions>
      </trkpt>
      <trkpt lat="42.62103122659027576446533203125" lon="2.7719052694737911224365234375">
        <ele>100</ele>
        <time>2023-08-19T18:15:46.000Z</time>
        <extensions>
          <ns3:TrackPointExtension>
            <ns3:hr>175</ns3:hr>
            <ns3:cad>88</ns3:cad>
          </ns3:TrackPointExtension>
        </extensions>
      </trkpt>
      <trkpt lat="42.621043883264064788818359375" lon="2.77194994501769542694091796875">
        <ele>99.8000030517578125</ele>
        <time>2023-08-19T18:15:47.000Z</time>
        <extensions>
          <ns3:TrackPointExtension>
            <ns3:hr>175</ns3:hr>
            <ns3:cad>88</ns3:cad>
          </ns3:TrackPointExtension>
        </extensions>
      </trkpt>
      <trkpt lat="42.62105285190045833587646484375" lon="2.771993614733219146728515625">
        <ele>99.8000030517578125</ele>
        <time>2023-08-19T18:15:48.000Z</time>
        <extensions>
          <ns3:TrackPointExtension>
            <ns3:hr>175</ns3:hr>
            <ns3:cad>88</ns3:cad>
          </ns3:TrackPointExtension>
        </extensions>
      </trkpt>
      <trkpt lat="42.6210641674697399139404296875" lon="2.772035188972949981689453125">
        <ele>99.59999847412109375</ele>
        <time>2023-08-19T18:15:49.000Z</time>
        <extensions>
          <ns3:TrackPointExtension>
            <ns3:hr>175</ns3:hr>
            <ns3:cad>88</ns3:cad>
          </ns3:TrackPointExtension>
        </extensions>
      </trkpt>
      <trkpt lat="42.62107380665838718414306640625" lon="2.77208070270717144012451171875">
        <ele>99.59999847412109375</ele>
        <time>2023-08-19T18:15:50.000Z</time>
        <extensions>
          <ns3:TrackPointExtension>
            <ns3:hr>175</ns3:hr>
            <ns3:cad>88</ns3:cad>
          </ns3:TrackPointExtension>
        </extensions>
      </trkpt>
      <trkpt lat="42.62108403258025646209716796875" lon="2.7721228636801242828369140625">
        <ele>99.59999847412109375</ele>
        <time>2023-08-19T18:15:51.000Z</time>
        <extensions>
          <ns3:TrackPointExtension>
            <ns3:hr>176</ns3:hr>
            <ns3:cad>87</ns3:cad>
          </ns3:TrackPointExtension>
        </extensions>
      </trkpt>
      <trkpt lat="42.6210956834256649017333984375" lon="2.77216904796659946441650390625">
        <ele>99.59999847412109375</ele>
        <time>2023-08-19T18:15:52.000Z</time>
        <extensions>
          <ns3:TrackPointExtension>
            <ns3:hr>176</ns3:hr>
            <ns3:cad>87</ns3:cad>
          </ns3:TrackPointExtension>
        </extensions>
      </trkpt>
      <trkpt lat="42.6211070828139781951904296875" lon="2.7722164057195186614990234375">
        <ele>99.59999847412109375</ele>
        <time>2023-08-19T18:15:53.000Z</time>
        <extensions>
          <ns3:TrackPointExtension>
            <ns3:hr>176</ns3:hr>
            <ns3:cad>87</ns3:cad>
          </ns3:TrackPointExtension>
        </extensions>
      </trkpt>
      <trkpt lat="42.62111890129745006561279296875" lon="2.77226678095757961273193359375">
        <ele>99.40000152587890625</ele>
        <time>2023-08-19T18:15:54.000Z</time>
        <extensions>
          <ns3:TrackPointExtension>
            <ns3:hr>176</ns3:hr>
            <ns3:cad>88</ns3:cad>
          </ns3:TrackPointExtension>
        </extensions>
      </trkpt>
      <trkpt lat="42.6211312226951122283935546875" lon="2.77230500243604183197021484375">
        <ele>99.40000152587890625</ele>
        <time>2023-08-19T18:15:55.000Z</time>
        <extensions>
          <ns3:TrackPointExtension>
            <ns3:hr>176</ns3:hr>
            <ns3:cad>88</ns3:cad>
          </ns3:TrackPointExtension>
        </extensions>
      </trkpt>
      <trkpt lat="42.62114253826439380645751953125" lon="2.77234791778028011322021484375">
        <ele>99.40000152587890625</ele>
        <time>2023-08-19T18:15:56.000Z</time>
        <extensions>
          <ns3:TrackPointExtension>
            <ns3:hr>177</ns3:hr>
            <ns3:cad>88</ns3:cad>
          </ns3:TrackPointExtension>
        </extensions>
      </trkpt>
      <trkpt lat="42.621157206594944000244140625" lon="2.7723862230777740478515625">
        <ele>99.40000152587890625</ele>
        <time>2023-08-19T18:15:57.000Z</time>
        <extensions>
          <ns3:TrackPointExtension>
            <ns3:hr>177</ns3:hr>
            <ns3:cad>88</ns3:cad>
          </ns3:TrackPointExtension>
        </extensions>
      </trkpt>
      <trkpt lat="42.6211717911064624786376953125" lon="2.77243425138294696807861328125">
        <ele>99.1999969482421875</ele>
        <time>2023-08-19T18:15:58.000Z</time>
        <extensions>
          <ns3:TrackPointExtension>
            <ns3:hr>177</ns3:hr>
            <ns3:cad>88</ns3:cad>
          </ns3:TrackPointExtension>
        </extensions>
      </trkpt>
      <trkpt lat="42.62118243612349033355712890625" lon="2.7724725566804409027099609375">
        <ele>99.1999969482421875</ele>
        <time>2023-08-19T18:15:59.000Z</time>
        <extensions>
          <ns3:TrackPointExtension>
            <ns3:hr>177</ns3:hr>
            <ns3:cad>88</ns3:cad>
          </ns3:TrackPointExtension>
        </extensions>
      </trkpt>
      <trkpt lat="42.62119383551180362701416015625" lon="2.7725194953382015228271484375">
        <ele>99.1999969482421875</ele>
        <time>2023-08-19T18:16:00.000Z</time>
        <extensions>
          <ns3:TrackPointExtension>
            <ns3:hr>177</ns3:hr>
            <ns3:cad>88</ns3:cad>
          </ns3:TrackPointExtension>
        </extensions>
      </trkpt>
      <trkpt lat="42.62120204977691173553466796875" lon="2.77256567962467670440673828125">
        <ele>99.1999969482421875</ele>
        <time>2023-08-19T18:16:01.000Z</time>
        <extensions>
          <ns3:TrackPointExtension>
            <ns3:hr>177</ns3:hr>
            <ns3:cad>87</ns3:cad>
          </ns3:TrackPointExtension>
        </extensions>
      </trkpt>
      <trkpt lat="42.62121227569878101348876953125" lon="2.77261085808277130126953125">
        <ele>99.1999969482421875</ele>
        <time>2023-08-19T18:16:02.000Z</time>
        <extensions>
          <ns3:TrackPointExtension>
            <ns3:hr>178</ns3:hr>
            <ns3:cad>88</ns3:cad>
          </ns3:TrackPointExtension>
        </extensions>
      </trkpt>
      <trkpt lat="42.62122065760195255279541015625" lon="2.77266106568276882171630859375">
        <ele>99.1999969482421875</ele>
        <time>2023-08-19T18:16:03.000Z</time>
        <extensions>
          <ns3:TrackPointExtension>
            <ns3:hr>178</ns3:hr>
            <ns3:cad>88</ns3:cad>
          </ns3:TrackPointExtension>
        </extensions>
      </trkpt>
      <trkpt lat="42.62122929096221923828125" lon="2.77270339429378509521484375">
        <ele>99</ele>
        <time>2023-08-19T18:16:04.000Z</time>
        <extensions>
          <ns3:TrackPointExtension>
            <ns3:hr>178</ns3:hr>
            <ns3:cad>88</ns3:cad>
          </ns3:TrackPointExtension>
        </extensions>
      </trkpt>
      <trkpt lat="42.621237002313137054443359375" lon="2.77274521999061107635498046875">
        <ele>99</ele>
        <time>2023-08-19T18:16:05.000Z</time>
        <extensions>
          <ns3:TrackPointExtension>
            <ns3:hr>177</ns3:hr>
            <ns3:cad>88</ns3:cad>
          </ns3:TrackPointExtension>
        </extensions>
      </trkpt>
      <trkpt lat="42.62124664150178432464599609375" lon="2.77278930880129337310791015625">
        <ele>98.8000030517578125</ele>
        <time>2023-08-19T18:16:06.000Z</time>
        <extensions>
          <ns3:TrackPointExtension>
            <ns3:hr>177</ns3:hr>
            <ns3:cad>88</ns3:cad>
          </ns3:TrackPointExtension>
        </extensions>
      </trkpt>
      <trkpt lat="42.62125737033784389495849609375" lon="2.772839851677417755126953125">
        <ele>98.40000152587890625</ele>
        <time>2023-08-19T18:16:07.000Z</time>
        <extensions>
          <ns3:TrackPointExtension>
            <ns3:hr>177</ns3:hr>
            <ns3:cad>88</ns3:cad>
          </ns3:TrackPointExtension>
        </extensions>
      </trkpt>
      <trkpt lat="42.62126474641263484954833984375" lon="2.77288201265037059783935546875">
        <ele>98.1999969482421875</ele>
        <time>2023-08-19T18:16:08.000Z</time>
        <extensions>
          <ns3:TrackPointExtension>
            <ns3:hr>177</ns3:hr>
            <ns3:cad>88</ns3:cad>
          </ns3:TrackPointExtension>
        </extensions>
      </trkpt>
      <trkpt lat="42.6212717033922672271728515625" lon="2.77293280698359012603759765625">
        <ele>98.1999969482421875</ele>
        <time>2023-08-19T18:16:09.000Z</time>
        <extensions>
          <ns3:TrackPointExtension>
            <ns3:hr>176</ns3:hr>
            <ns3:cad>88</ns3:cad>
          </ns3:TrackPointExtension>
        </extensions>
      </trkpt>
      <trkpt lat="42.6212797500193119049072265625" lon="2.77297773398458957672119140625">
        <ele>98.1999969482421875</ele>
        <time>2023-08-19T18:16:10.000Z</time>
        <extensions>
          <ns3:TrackPointExtension>
            <ns3:hr>176</ns3:hr>
            <ns3:cad>88</ns3:cad>
          </ns3:TrackPointExtension>
        </extensions>
      </trkpt>
      <trkpt lat="42.6212896406650543212890625" lon="2.77302333153784275054931640625">
        <ele>98.1999969482421875</ele>
        <time>2023-08-19T18:16:11.000Z</time>
        <extensions>
          <ns3:TrackPointExtension>
            <ns3:hr>176</ns3:hr>
            <ns3:cad>88</ns3:cad>
          </ns3:TrackPointExtension>
        </extensions>
      </trkpt>
      <trkpt lat="42.621296010911464691162109375" lon="2.773064486682415008544921875">
        <ele>98.1999969482421875</ele>
        <time>2023-08-19T18:16:12.000Z</time>
        <extensions>
          <ns3:TrackPointExtension>
            <ns3:hr>176</ns3:hr>
            <ns3:cad>88</ns3:cad>
          </ns3:TrackPointExtension>
        </extensions>
      </trkpt>
      <trkpt lat="42.62130313552916049957275390625" lon="2.77311033569276332855224609375">
        <ele>98.1999969482421875</ele>
        <time>2023-08-19T18:16:13.000Z</time>
        <extensions>
          <ns3:TrackPointExtension>
            <ns3:hr>176</ns3:hr>
            <ns3:cad>88</ns3:cad>
          </ns3:TrackPointExtension>
        </extensions>
      </trkpt>
      <trkpt lat="42.62131151743233203887939453125" lon="2.773155681788921356201171875">
        <ele>98.1999969482421875</ele>
        <time>2023-08-19T18:16:14.000Z</time>
        <extensions>
          <ns3:TrackPointExtension>
            <ns3:hr>175</ns3:hr>
            <ns3:cad>88</ns3:cad>
          </ns3:TrackPointExtension>
        </extensions>
      </trkpt>
      <trkpt lat="42.62132375501096248626708984375" lon="2.7731994353234767913818359375">
        <ele>98</ele>
        <time>2023-08-19T18:16:15.000Z</time>
        <extensions>
          <ns3:TrackPointExtension>
            <ns3:hr>175</ns3:hr>
            <ns3:cad>87</ns3:cad>
          </ns3:TrackPointExtension>
        </extensions>
      </trkpt>
      <trkpt lat="42.62133230455219745635986328125" lon="2.7732483856379985809326171875">
        <ele>98</ele>
        <time>2023-08-19T18:16:16.000Z</time>
        <extensions>
          <ns3:TrackPointExtension>
            <ns3:hr>175</ns3:hr>
            <ns3:cad>88</ns3:cad>
          </ns3:TrackPointExtension>
        </extensions>
      </trkpt>
      <trkpt lat="42.6213488169014453887939453125" lon="2.77333497069776058197021484375">
        <ele>98</ele>
        <time>2023-08-19T18:16:17.000Z</time>
        <extensions>
          <ns3:TrackPointExtension>
            <ns3:hr>175</ns3:hr>
            <ns3:cad>88</ns3:cad>
          </ns3:TrackPointExtension>
        </extensions>
      </trkpt>
      <trkpt lat="42.62135610915720462799072265625" lon="2.77337729930877685546875">
        <ele>98</ele>
        <time>2023-08-19T18:16:18.000Z</time>
        <extensions>
          <ns3:TrackPointExtension>
            <ns3:hr>175</ns3:hr>
            <ns3:cad>87</ns3:cad>
          </ns3:TrackPointExtension>
        </extensions>
      </trkpt>
      <trkpt lat="42.6213602162897586822509765625" lon="2.77341661043465137481689453125">
        <ele>97.8000030517578125</ele>
        <time>2023-08-19T18:16:19.000Z</time>
        <extensions>
          <ns3:TrackPointExtension>
            <ns3:hr>174</ns3:hr>
            <ns3:cad>87</ns3:cad>
          </ns3:TrackPointExtension>
        </extensions>
      </trkpt>
      <trkpt lat="42.621363066136837005615234375" lon="2.77344678528606891632080078125">
        <ele>97.59999847412109375</ele>
        <time>2023-08-19T18:16:20.000Z</time>
        <extensions>
          <ns3:TrackPointExtension>
            <ns3:hr>174</ns3:hr>
            <ns3:cad>87</ns3:cad>
          </ns3:TrackPointExtension>
        </extensions>
      </trkpt>
      <trkpt lat="42.62136700563132762908935546875" lon="2.77347092516720294952392578125">
        <ele>97.59999847412109375</ele>
        <time>2023-08-19T18:16:21.000Z</time>
        <extensions>
          <ns3:TrackPointExtension>
            <ns3:hr>172</ns3:hr>
            <ns3:cad>86</ns3:cad>
          </ns3:TrackPointExtension>
        </extensions>
      </trkpt>
    </trkseg>
  </trk>
</gpx>
